﻿<?xml version="1.0" encoding="utf-8"?><gpx creator="Garmin Desktop App" version="1.1" xsi:schemaLocation="http://www.topografix.com/GPX/1/1 http://www.topografix.com/GPX/1/1/gpx.xsd http://www.garmin.com/xmlschemas/WaypointExtension/v1 http://www8.garmin.com/xmlschemas/WaypointExtensionv1.xsd http://www.garmin.com/xmlschemas/TrackPointExtension/v1 http://www.garmin.com/xmlschemas/TrackPointExtensionv1.xsd http://www.garmin.com/xmlschemas/GpxExtensions/v3 http://www8.garmin.com/xmlschemas/GpxExtensionsv3.xsd http://www.garmin.com/xmlschemas/ActivityExtension/v1 http://www8.garmin.com/xmlschemas/ActivityExtensionv1.xsd http://www.garmin.com/xmlschemas/AdventuresExtensions/v1 http://www8.garmin.com/xmlschemas/AdventuresExtensionv1.xsd http://www.garmin.com/xmlschemas/PressureExtension/v1 http://www.garmin.com/xmlschemas/PressureExtensionv1.xsd http://www.garmin.com/xmlschemas/TripExtensions/v1 http://www.garmin.com/xmlschemas/TripExtensionsv1.xsd http://www.garmin.com/xmlschemas/TripMetaDataExtensions/v1 http://www.garmin.com/xmlschemas/TripMetaDataExtensionsv1.xsd http://www.garmin.com/xmlschemas/ViaPointTransportationModeExtensions/v1 http://www.garmin.com/xmlschemas/ViaPointTransportationModeExtensionsv1.xsd http://www.garmin.com/xmlschemas/CreationTimeExtension/v1 http://www.garmin.com/xmlschemas/CreationTimeExtensionsv1.xsd http://www.garmin.com/xmlschemas/AccelerationExtension/v1 http://www.garmin.com/xmlschemas/AccelerationExtensionv1.xsd http://www.garmin.com/xmlschemas/PowerExtension/v1 http://www.garmin.com/xmlschemas/PowerExtensionv1.xsd http://www.garmin.com/xmlschemas/VideoExtension/v1 http://www.garmin.com/xmlschemas/VideoExtensionv1.xsd" xmlns="http://www.topografix.com/GPX/1/1" xmlns:xsi="http://www.w3.org/2001/XMLSchema-instance" xmlns:wptx1="http://www.garmin.com/xmlschemas/WaypointExtension/v1" xmlns:gpxtrx="http://www.garmin.com/xmlschemas/GpxExtensions/v3" xmlns:gpxtpx="http://www.garmin.com/xmlschemas/TrackPointExtension/v1" xmlns:gpxx="http://www.garmin.com/xmlschemas/GpxExtensions/v3" xmlns:trp="http://www.garmin.com/xmlschemas/TripExtensions/v1" xmlns:adv="http://www.garmin.com/xmlschemas/AdventuresExtensions/v1" xmlns:prs="http://www.garmin.com/xmlschemas/PressureExtension/v1" xmlns:tmd="http://www.garmin.com/xmlschemas/TripMetaDataExtensions/v1" xmlns:vptm="http://www.garmin.com/xmlschemas/ViaPointTransportationModeExtensions/v1" xmlns:ctx="http://www.garmin.com/xmlschemas/CreationTimeExtension/v1" xmlns:gpxacc="http://www.garmin.com/xmlschemas/AccelerationExtension/v1" xmlns:gpxpx="http://www.garmin.com/xmlschemas/PowerExtension/v1" xmlns:vidx1="http://www.garmin.com/xmlschemas/VideoExtension/v1">

  <metadata>
    <link href="http://www.garmin.com">
      <text>Garmin International</text>
    </link>
    <time>2023-08-26T19:18:24Z</time>
    <bounds maxlat="57.50106300227344" maxlon="-5.428790962323546" minlat="57.236001994460821" minlon="-6.779073989018798" />
  </metadata>

  <trk>
    <name>Track 230826</name>
    <extensions>
      <gpxx:TrackExtension>
        <gpxx:DisplayColor>DarkGray</gpxx:DisplayColor>
      </gpxx:TrackExtension>
    </extensions>
    <trkseg>
      <trkpt lat="57.430367013439536" lon="-5.816563032567501">
        <ele>29.460000000000001</ele>
        <time>2023-08-26T08:13:44Z</time>
      </trkpt>
      <trkpt lat="57.430398026481271" lon="-5.816222978755832">
        <ele>36.189999999999998</ele>
        <time>2023-08-26T08:14:49Z</time>
      </trkpt>
      <trkpt lat="57.430405989289284" lon="-5.816225996240974">
        <ele>35.229999999999997</ele>
        <time>2023-08-26T08:15:30Z</time>
      </trkpt>
      <trkpt lat="57.430386962369084" lon="-5.816119965165854">
        <ele>35.710000000000001</ele>
        <time>2023-08-26T08:15:47Z</time>
      </trkpt>
      <trkpt lat="57.430624002590775" lon="-5.815976969897747">
        <ele>35.710000000000001</ele>
        <time>2023-08-26T08:15:56Z</time>
      </trkpt>
      <trkpt lat="57.4306779820472" lon="-5.815900024026632">
        <ele>35.710000000000001</ele>
        <time>2023-08-26T08:15:58Z</time>
      </trkpt>
      <trkpt lat="57.431101016700268" lon="-5.815353021025658">
        <ele>35.710000000000001</ele>
        <time>2023-08-26T08:16:09Z</time>
      </trkpt>
      <trkpt lat="57.431611977517605" lon="-5.814997963607311">
        <ele>33.780000000000001</ele>
        <time>2023-08-26T08:16:21Z</time>
      </trkpt>
      <trkpt lat="57.431698981672525" lon="-5.81497197970748">
        <ele>33.299999999999997</ele>
        <time>2023-08-26T08:16:23Z</time>
      </trkpt>
      <trkpt lat="57.432124027982354" lon="-5.814868966117501">
        <ele>32.82</ele>
        <time>2023-08-26T08:16:33Z</time>
      </trkpt>
      <trkpt lat="57.432208014652133" lon="-5.814682971686125">
        <ele>32.82</ele>
        <time>2023-08-26T08:16:37Z</time>
      </trkpt>
      <trkpt lat="57.432253025472164" lon="-5.814014011994004">
        <ele>32.340000000000003</ele>
        <time>2023-08-26T08:16:47Z</time>
      </trkpt>
      <trkpt lat="57.432217989116907" lon="-5.813617967069149">
        <ele>31.859999999999999</ele>
        <time>2023-08-26T08:16:52Z</time>
      </trkpt>
      <trkpt lat="57.432155963033438" lon="-5.813031988218427">
        <ele>31.379999999999999</ele>
        <time>2023-08-26T08:17:00Z</time>
      </trkpt>
      <trkpt lat="57.43213701993227" lon="-5.812517004087567">
        <ele>31.379999999999999</ele>
        <time>2023-08-26T08:17:09Z</time>
      </trkpt>
      <trkpt lat="57.432077005505562" lon="-5.812098998576403">
        <ele>29.460000000000001</ele>
        <time>2023-08-26T08:17:16Z</time>
      </trkpt>
      <trkpt lat="57.431909032166004" lon="-5.811865981668234">
        <ele>28.02</ele>
        <time>2023-08-26T08:17:21Z</time>
      </trkpt>
      <trkpt lat="57.431738963350654" lon="-5.811510002240539">
        <ele>28.02</ele>
        <time>2023-08-26T08:17:23Z</time>
      </trkpt>
      <trkpt lat="57.431738963350654" lon="-5.811510002240539">
        <ele>28.02</ele>
        <time>2023-08-26T08:17:24Z</time>
      </trkpt>
      <trkpt lat="57.431738963350654" lon="-5.811510002240539">
        <ele>28.02</ele>
        <time>2023-08-26T08:17:25Z</time>
      </trkpt>
      <trkpt lat="57.431738963350654" lon="-5.811510002240539">
        <ele>28.02</ele>
        <time>2023-08-26T08:17:26Z</time>
      </trkpt>
      <trkpt lat="57.431742986664176" lon="-5.811455016955733">
        <ele>28.02</ele>
        <time>2023-08-26T08:17:27Z</time>
      </trkpt>
      <trkpt lat="57.431749021634459" lon="-5.811377987265587">
        <ele>28.02</ele>
        <time>2023-08-26T08:17:28Z</time>
      </trkpt>
      <trkpt lat="57.431753966957331" lon="-5.811302969232202">
        <ele>28.02</ele>
        <time>2023-08-26T08:17:29Z</time>
      </trkpt>
      <trkpt lat="57.431758996099234" lon="-5.811231974512339">
        <ele>28.02</ele>
        <time>2023-08-26T08:17:30Z</time>
      </trkpt>
      <trkpt lat="57.431764025241137" lon="-5.811154022812843">
        <ele>27.530000000000001</ele>
        <time>2023-08-26T08:17:31Z</time>
      </trkpt>
      <trkpt lat="57.431770982220769" lon="-5.811066012829542">
        <ele>27.530000000000001</ele>
        <time>2023-08-26T08:17:32Z</time>
      </trkpt>
      <trkpt lat="57.431778023019433" lon="-5.810966016724706">
        <ele>27.530000000000001</ele>
        <time>2023-08-26T08:17:33Z</time>
      </trkpt>
      <trkpt lat="57.431843988597393" lon="-5.810239976271987">
        <ele>28.5</ele>
        <time>2023-08-26T08:17:39Z</time>
      </trkpt>
      <trkpt lat="57.431869972497225" lon="-5.809952979907394">
        <ele>28.98</ele>
        <time>2023-08-26T08:17:42Z</time>
      </trkpt>
      <trkpt lat="57.431877013295889" lon="-5.809881985187531">
        <ele>28.98</ele>
        <time>2023-08-26T08:17:43Z</time>
      </trkpt>
      <trkpt lat="57.431885981932282" lon="-5.809790035709739">
        <ele>29.460000000000001</ele>
        <time>2023-08-26T08:17:44Z</time>
      </trkpt>
      <trkpt lat="57.431867960840464" lon="-5.809578979387879">
        <ele>29.460000000000001</ele>
        <time>2023-08-26T08:17:45Z</time>
      </trkpt>
      <trkpt lat="57.43187902495265" lon="-5.809562969952822">
        <ele>30.420000000000002</ele>
        <time>2023-08-26T08:17:46Z</time>
      </trkpt>
      <trkpt lat="57.431958988308907" lon="-5.809519970789552">
        <ele>30.420000000000002</ele>
        <time>2023-08-26T08:17:47Z</time>
      </trkpt>
      <trkpt lat="57.432026965543628" lon="-5.809528017416596">
        <ele>30.899999999999999</ele>
        <time>2023-08-26T08:17:48Z</time>
      </trkpt>
      <trkpt lat="57.432098966091871" lon="-5.809535980224609">
        <ele>30.899999999999999</ele>
        <time>2023-08-26T08:17:49Z</time>
      </trkpt>
      <trkpt lat="57.432179013267159" lon="-5.809545032680035">
        <ele>31.379999999999999</ele>
        <time>2023-08-26T08:17:50Z</time>
      </trkpt>
      <trkpt lat="57.432523006573319" lon="-5.809585014358163">
        <ele>33.299999999999997</ele>
        <time>2023-08-26T08:17:54Z</time>
      </trkpt>
      <trkpt lat="57.432600958272815" lon="-5.809592977166176">
        <ele>33.780000000000001</ele>
        <time>2023-08-26T08:17:55Z</time>
      </trkpt>
      <trkpt lat="57.432695003226399" lon="-5.80955701880157">
        <ele>34.259999999999998</ele>
        <time>2023-08-26T08:17:56Z</time>
      </trkpt>
      <trkpt lat="57.43276197463274" lon="-5.809472026303411">
        <ele>35.229999999999997</ele>
        <time>2023-08-26T08:17:57Z</time>
      </trkpt>
      <trkpt lat="57.432833975180984" lon="-5.809327019378543">
        <ele>36.189999999999998</ele>
        <time>2023-08-26T08:17:58Z</time>
      </trkpt>
      <trkpt lat="57.432875968515873" lon="-5.809171032160521">
        <ele>37.149999999999999</ele>
        <time>2023-08-26T08:17:59Z</time>
      </trkpt>
      <trkpt lat="57.432919973507524" lon="-5.809005992487073">
        <ele>37.630000000000003</ele>
        <time>2023-08-26T08:18:00Z</time>
      </trkpt>
      <trkpt lat="57.433552974835038" lon="-5.806659981608391">
        <ele>49.159999999999997</ele>
        <time>2023-08-26T08:18:13Z</time>
      </trkpt>
      <trkpt lat="57.434063013643026" lon="-5.804769024252892">
        <ele>57.82</ele>
        <time>2023-08-26T08:18:24Z</time>
      </trkpt>
      <trkpt lat="57.434104001149535" lon="-5.80461798235774">
        <ele>58.780000000000001</ele>
        <time>2023-08-26T08:18:25Z</time>
      </trkpt>
      <trkpt lat="57.434384962543845" lon="-5.803575022146106">
        <ele>64.069999999999993</ele>
        <time>2023-08-26T08:18:32Z</time>
      </trkpt>
      <trkpt lat="57.434447994455695" lon="-5.803247038275003">
        <ele>65.989999999999995</ele>
        <time>2023-08-26T08:18:34Z</time>
      </trkpt>
      <trkpt lat="57.434701966121793" lon="-5.801378963515163">
        <ele>77.519999999999996</ele>
        <time>2023-08-26T08:18:43Z</time>
      </trkpt>
      <trkpt lat="57.434721998870373" lon="-5.800805976614356">
        <ele>82.329999999999998</ele>
        <time>2023-08-26T08:18:46Z</time>
      </trkpt>
      <trkpt lat="57.434504991397262" lon="-5.798994982615113">
        <ele>94.829999999999998</ele>
        <time>2023-08-26T08:18:55Z</time>
      </trkpt>
      <trkpt lat="57.434439025819302" lon="-5.798561973497272">
        <ele>96.75</ele>
        <time>2023-08-26T08:18:57Z</time>
      </trkpt>
      <trkpt lat="57.434423016384244" lon="-5.798338009044528">
        <ele>97.709999999999994</ele>
        <time>2023-08-26T08:18:58Z</time>
      </trkpt>
      <trkpt lat="57.434407006949186" lon="-5.798113038763404">
        <ele>98.670000000000002</ele>
        <time>2023-08-26T08:18:59Z</time>
      </trkpt>
      <trkpt lat="57.434423016384244" lon="-5.796560039743781">
        <ele>107.81</ele>
        <time>2023-08-26T08:19:06Z</time>
      </trkpt>
      <trkpt lat="57.434443971142173" lon="-5.796361975371838">
        <ele>109.25</ele>
        <time>2023-08-26T08:19:07Z</time>
      </trkpt>
      <trkpt lat="57.434462998062372" lon="-5.796175980940461">
        <ele>110.69</ele>
        <time>2023-08-26T08:19:08Z</time>
      </trkpt>
      <trkpt lat="57.434528963640332" lon="-5.796028040349484">
        <ele>112.13</ele>
        <time>2023-08-26T08:19:09Z</time>
      </trkpt>
      <trkpt lat="57.434593001380563" lon="-5.795888984575868">
        <ele>113.09</ele>
        <time>2023-08-26T08:19:10Z</time>
      </trkpt>
      <trkpt lat="57.434678999707103" lon="-5.795785970985889">
        <ele>114.53</ele>
        <time>2023-08-26T08:19:11Z</time>
      </trkpt>
      <trkpt lat="57.434771033003926" lon="-5.795674994587898">
        <ele>115.5</ele>
        <time>2023-08-26T08:19:12Z</time>
      </trkpt>
      <trkpt lat="57.435343014076352" lon="-5.794752985239029">
        <ele>121.26000000000001</ele>
        <time>2023-08-26T08:19:18Z</time>
      </trkpt>
      <trkpt lat="57.435988001525402" lon="-5.793094960972667">
        <ele>127.98999999999999</ele>
        <time>2023-08-26T08:19:26Z</time>
      </trkpt>
      <trkpt lat="57.436038041487336" lon="-5.792881976813078">
        <ele>128.47</ele>
        <time>2023-08-26T08:19:27Z</time>
      </trkpt>
      <trkpt lat="57.436073999851942" lon="-5.792658012360334">
        <ele>128.94999999999999</ele>
        <time>2023-08-26T08:19:28Z</time>
      </trkpt>
      <trkpt lat="57.436105012893677" lon="-5.792431030422449">
        <ele>130.40000000000001</ele>
        <time>2023-08-26T08:19:29Z</time>
      </trkpt>
      <trkpt lat="57.436136025935411" lon="-5.79219801351428">
        <ele>131.36000000000001</ele>
        <time>2023-08-26T08:19:30Z</time>
      </trkpt>
      <trkpt lat="57.436253037303686" lon="-5.791333001106978">
        <ele>135.68000000000001</ele>
        <time>2023-08-26T08:19:34Z</time>
      </trkpt>
      <trkpt lat="57.436296036466956" lon="-5.791162010282278">
        <ele>136.63999999999999</ele>
        <time>2023-08-26T08:19:35Z</time>
      </trkpt>
      <trkpt lat="57.436366025358438" lon="-5.790994958952069">
        <ele>137.13</ele>
        <time>2023-08-26T08:19:36Z</time>
      </trkpt>
      <trkpt lat="57.43673499673605" lon="-5.790111003443599">
        <ele>142.41</ele>
        <time>2023-08-26T08:19:41Z</time>
      </trkpt>
      <trkpt lat="57.436810014769435" lon="-5.789931965991855">
        <ele>143.37</ele>
        <time>2023-08-26T08:19:42Z</time>
      </trkpt>
      <trkpt lat="57.436882015317678" lon="-5.789738008752465">
        <ele>144.81999999999999</ele>
        <time>2023-08-26T08:19:43Z</time>
      </trkpt>
      <trkpt lat="57.43755298666656" lon="-5.787094021216035">
        <ele>154.91</ele>
        <time>2023-08-26T08:19:54Z</time>
      </trkpt>
      <trkpt lat="57.437908966094255" lon="-5.784908020868897">
        <ele>162.12</ele>
        <time>2023-08-26T08:20:03Z</time>
      </trkpt>
      <trkpt lat="57.43798297829926" lon="-5.784537959843874">
        <ele>164.03999999999999</ele>
        <time>2023-08-26T08:20:05Z</time>
      </trkpt>
      <trkpt lat="57.437967974692583" lon="-5.784346014261246">
        <ele>165</ele>
        <time>2023-08-26T08:20:06Z</time>
      </trkpt>
      <trkpt lat="57.437951965257525" lon="-5.784135041758418">
        <ele>165.96000000000001</ele>
        <time>2023-08-26T08:20:07Z</time>
      </trkpt>
      <trkpt lat="57.437945008277893" lon="-5.783249996602535">
        <ele>171.25</ele>
        <time>2023-08-26T08:20:11Z</time>
      </trkpt>
      <trkpt lat="57.437956994399428" lon="-5.783056039363146">
        <ele>172.69</ele>
        <time>2023-08-26T08:20:12Z</time>
      </trkpt>
      <trkpt lat="57.437991024926305" lon="-5.782892005518079">
        <ele>173.66</ele>
        <time>2023-08-26T08:20:13Z</time>
      </trkpt>
      <trkpt lat="57.438051039353013" lon="-5.782729983329773">
        <ele>175.09999999999999</ele>
        <time>2023-08-26T08:20:14Z</time>
      </trkpt>
      <trkpt lat="57.438112981617451" lon="-5.782562009990215">
        <ele>176.06</ele>
        <time>2023-08-26T08:20:15Z</time>
      </trkpt>
      <trkpt lat="57.438781019300222" lon="-5.780756967142224">
        <ele>183.27000000000001</ele>
        <time>2023-08-26T08:20:24Z</time>
      </trkpt>
      <trkpt lat="57.438924014568329" lon="-5.780371986329556">
        <ele>184.22999999999999</ele>
        <time>2023-08-26T08:20:26Z</time>
      </trkpt>
      <trkpt lat="57.438983023166656" lon="-5.780148021876812">
        <ele>185.19</ele>
        <time>2023-08-26T08:20:27Z</time>
      </trkpt>
      <trkpt lat="57.439311007037759" lon="-5.777620961889625">
        <ele>191.91999999999999</ele>
        <time>2023-08-26T08:20:37Z</time>
      </trkpt>
      <trkpt lat="57.43939901702106" lon="-5.776761984452605">
        <ele>194.31999999999999</ele>
        <time>2023-08-26T08:20:41Z</time>
      </trkpt>
      <trkpt lat="57.439384013414383" lon="-5.776529973372817">
        <ele>194.80000000000001</ele>
        <time>2023-08-26T08:20:42Z</time>
      </trkpt>
      <trkpt lat="57.439245041459799" lon="-5.775710977613926">
        <ele>196.72999999999999</ele>
        <time>2023-08-26T08:20:46Z</time>
      </trkpt>
      <trkpt lat="57.439217967912555" lon="-5.775548033416271">
        <ele>197.21000000000001</ele>
        <time>2023-08-26T08:20:47Z</time>
      </trkpt>
      <trkpt lat="57.439185027033091" lon="-5.77535399235785">
        <ele>197.69</ele>
        <time>2023-08-26T08:20:48Z</time>
      </trkpt>
      <trkpt lat="57.439113026484847" lon="-5.775243015959859">
        <ele>198.16999999999999</ele>
        <time>2023-08-26T08:20:49Z</time>
      </trkpt>
      <trkpt lat="57.439025016501546" lon="-5.775107983499765">
        <ele>198.65000000000001</ele>
        <time>2023-08-26T08:20:50Z</time>
      </trkpt>
      <trkpt lat="57.438192022964358" lon="-5.773716000840068">
        <ele>203.46000000000001</ele>
        <time>2023-08-26T08:20:58Z</time>
      </trkpt>
      <trkpt lat="57.437217961996794" lon="-5.770946033298969">
        <ele>210.66999999999999</ele>
        <time>2023-08-26T08:21:10Z</time>
      </trkpt>
      <trkpt lat="57.436676993966103" lon="-5.769669972360134">
        <ele>213.55000000000001</ele>
        <time>2023-08-26T08:21:17Z</time>
      </trkpt>
      <trkpt lat="57.436138037592173" lon="-5.767800975590944">
        <ele>218.36000000000001</ele>
        <time>2023-08-26T08:21:26Z</time>
      </trkpt>
      <trkpt lat="57.435237988829613" lon="-5.765875987708569">
        <ele>227.00999999999999</ele>
        <time>2023-08-26T08:21:36Z</time>
      </trkpt>
      <trkpt lat="57.434096960350871" lon="-5.763726029545069">
        <ele>234.69999999999999</ele>
        <time>2023-08-26T08:21:47Z</time>
      </trkpt>
      <trkpt lat="57.433018041774631" lon="-5.762194991111755">
        <ele>242.87</ele>
        <time>2023-08-26T08:21:57Z</time>
      </trkpt>
      <trkpt lat="57.432775972411036" lon="-5.762040009722114">
        <ele>244.31</ele>
        <time>2023-08-26T08:21:59Z</time>
      </trkpt>
      <trkpt lat="57.432650998234749" lon="-5.761973960325122">
        <ele>244.78999999999999</ele>
        <time>2023-08-26T08:22:00Z</time>
      </trkpt>
      <trkpt lat="57.432526024058461" lon="-5.761909000575542">
        <ele>245.27000000000001</ele>
        <time>2023-08-26T08:22:01Z</time>
      </trkpt>
      <trkpt lat="57.432407001033425" lon="-5.761832976713777">
        <ele>245.75</ele>
        <time>2023-08-26T08:22:02Z</time>
      </trkpt>
      <trkpt lat="57.432298036292195" lon="-5.761692998930812">
        <ele>246.72</ele>
        <time>2023-08-26T08:22:03Z</time>
      </trkpt>
      <trkpt lat="57.432190999388695" lon="-5.761556038632989">
        <ele>247.19999999999999</ele>
        <time>2023-08-26T08:22:04Z</time>
      </trkpt>
      <trkpt lat="57.432094020769" lon="-5.761401979252696">
        <ele>247.68000000000001</ele>
        <time>2023-08-26T08:22:05Z</time>
      </trkpt>
      <trkpt lat="57.432010034099221" lon="-5.7612169906497">
        <ele>248.63999999999999</ele>
        <time>2023-08-26T08:22:06Z</time>
      </trkpt>
      <trkpt lat="57.431154996156693" lon="-5.759207010269165">
        <ele>255.84999999999999</ele>
        <time>2023-08-26T08:22:17Z</time>
      </trkpt>
      <trkpt lat="57.43097897619009" lon="-5.758766960352659">
        <ele>257.29000000000002</ele>
        <time>2023-08-26T08:22:20Z</time>
      </trkpt>
      <trkpt lat="57.430928014218807" lon="-5.75863896869123">
        <ele>258.25</ele>
        <time>2023-08-26T08:22:21Z</time>
      </trkpt>
      <trkpt lat="57.430910998955369" lon="-5.758437970653176">
        <ele>258.25</ele>
        <time>2023-08-26T08:22:22Z</time>
      </trkpt>
      <trkpt lat="57.430919967591763" lon="-5.758283995091915">
        <ele>258.73000000000002</ele>
        <time>2023-08-26T08:22:23Z</time>
      </trkpt>
      <trkpt lat="57.43095500394702" lon="-5.758114010095596">
        <ele>259.20999999999998</ele>
        <time>2023-08-26T08:22:24Z</time>
      </trkpt>
      <trkpt lat="57.430993979796767" lon="-5.757966991513968">
        <ele>259.69</ele>
        <time>2023-08-26T08:22:25Z</time>
      </trkpt>
      <trkpt lat="57.431036978960037" lon="-5.757806980982423">
        <ele>260.17000000000002</ele>
        <time>2023-08-26T08:22:26Z</time>
      </trkpt>
      <trkpt lat="57.431290028616786" lon="-5.757046993821859">
        <ele>263.06</ele>
        <time>2023-08-26T08:22:30Z</time>
      </trkpt>
      <trkpt lat="57.431383989751339" lon="-5.756891006603837">
        <ele>264.01999999999998</ele>
        <time>2023-08-26T08:22:31Z</time>
      </trkpt>
      <trkpt lat="57.431474011391401" lon="-5.75674700550735">
        <ele>265.45999999999998</ele>
        <time>2023-08-26T08:22:32Z</time>
      </trkpt>
      <trkpt lat="57.431564033031464" lon="-5.756606021896005">
        <ele>266.89999999999998</ele>
        <time>2023-08-26T08:22:33Z</time>
      </trkpt>
      <trkpt lat="57.431672997772694" lon="-5.756506025791168">
        <ele>267.86000000000001</ele>
        <time>2023-08-26T08:22:34Z</time>
      </trkpt>
      <trkpt lat="57.431780034676194" lon="-5.756409969180822">
        <ele>269.31</ele>
        <time>2023-08-26T08:22:35Z</time>
      </trkpt>
      <trkpt lat="57.432287978008389" lon="-5.755957011133432">
        <ele>274.11000000000001</ele>
        <time>2023-08-26T08:22:40Z</time>
      </trkpt>
      <trkpt lat="57.432373976334929" lon="-5.755862966179848">
        <ele>275.06999999999999</ele>
        <time>2023-08-26T08:22:41Z</time>
      </trkpt>
      <trkpt lat="57.432431979104877" lon="-5.755727011710405">
        <ele>276.04000000000002</ele>
        <time>2023-08-26T08:22:42Z</time>
      </trkpt>
      <trkpt lat="57.432489981874824" lon="-5.755590973421931">
        <ele>276.51999999999998</ele>
        <time>2023-08-26T08:22:43Z</time>
      </trkpt>
      <trkpt lat="57.432489981874824" lon="-5.755444960668683">
        <ele>277.48000000000002</ele>
        <time>2023-08-26T08:22:44Z</time>
      </trkpt>
      <trkpt lat="57.432473972439766" lon="-5.755294002592564">
        <ele>278.44</ele>
        <time>2023-08-26T08:22:45Z</time>
      </trkpt>
      <trkpt lat="57.432420998811722" lon="-5.755161987617612">
        <ele>278.92000000000002</ele>
        <time>2023-08-26T08:22:46Z</time>
      </trkpt>
      <trkpt lat="57.432357966899872" lon="-5.755002982914448">
        <ele>280.36000000000001</ele>
        <time>2023-08-26T08:22:47Z</time>
      </trkpt>
      <trkpt lat="57.432289989665151" lon="-5.754832997918129">
        <ele>281.31999999999999</ele>
        <time>2023-08-26T08:22:48Z</time>
      </trkpt>
      <trkpt lat="57.432096032425761" lon="-5.754332011565566">
        <ele>285.17000000000002</ele>
        <time>2023-08-26T08:22:51Z</time>
      </trkpt>
      <trkpt lat="57.432058984413743" lon="-5.754166971892119">
        <ele>286.13</ele>
        <time>2023-08-26T08:22:52Z</time>
      </trkpt>
      <trkpt lat="57.432025959715247" lon="-5.75401802547276">
        <ele>287.08999999999997</ele>
        <time>2023-08-26T08:22:53Z</time>
      </trkpt>
      <trkpt lat="57.432025959715247" lon="-5.753836976364255">
        <ele>288.05000000000001</ele>
        <time>2023-08-26T08:22:54Z</time>
      </trkpt>
      <trkpt lat="57.432033000513911" lon="-5.7537189591676">
        <ele>289.49000000000001</ele>
        <time>2023-08-26T08:22:55Z</time>
      </trkpt>
      <trkpt lat="57.432039035484195" lon="-5.753617035225034">
        <ele>290.45999999999998</ele>
        <time>2023-08-26T08:22:56Z</time>
      </trkpt>
      <trkpt lat="57.432121010497212" lon="-5.753503041341901">
        <ele>291.42000000000002</ele>
        <time>2023-08-26T08:22:57Z</time>
      </trkpt>
      <trkpt lat="57.432183958590031" lon="-5.753414025530219">
        <ele>292.86000000000001</ele>
        <time>2023-08-26T08:22:58Z</time>
      </trkpt>
      <trkpt lat="57.43226601742208" lon="-5.75330900028348">
        <ele>293.81999999999999</ele>
        <time>2023-08-26T08:22:59Z</time>
      </trkpt>
      <trkpt lat="57.432367019355297" lon="-5.75324596837163">
        <ele>295.25999999999999</ele>
        <time>2023-08-26T08:23:00Z</time>
      </trkpt>
      <trkpt lat="57.433667974546552" lon="-5.752418003976345">
        <ele>307.75999999999999</ele>
        <time>2023-08-26T08:23:10Z</time>
      </trkpt>
      <trkpt lat="57.43454597890377" lon="-5.751860020682216">
        <ele>316.41000000000003</ele>
        <time>2023-08-26T08:23:18Z</time>
      </trkpt>
      <trkpt lat="57.434596018865705" lon="-5.751766981557012">
        <ele>317.37</ele>
        <time>2023-08-26T08:23:19Z</time>
      </trkpt>
      <trkpt lat="57.434639018028975" lon="-5.75167897157371">
        <ele>318.32999999999998</ele>
        <time>2023-08-26T08:23:20Z</time>
      </trkpt>
      <trkpt lat="57.43467497639358" lon="-5.751560032367706">
        <ele>318.81</ele>
        <time>2023-08-26T08:23:21Z</time>
      </trkpt>
      <trkpt lat="57.434663996100426" lon="-5.751432962715626">
        <ele>319.77999999999997</ele>
        <time>2023-08-26T08:23:22Z</time>
      </trkpt>
      <trkpt lat="57.434628959745169" lon="-5.751305976882577">
        <ele>320.74000000000001</ele>
        <time>2023-08-26T08:23:23Z</time>
      </trkpt>
      <trkpt lat="57.434574980288744" lon="-5.751193994656205">
        <ele>321.69999999999999</ele>
        <time>2023-08-26T08:23:24Z</time>
      </trkpt>
      <trkpt lat="57.434515971690416" lon="-5.751071032136679">
        <ele>322.66000000000003</ele>
        <time>2023-08-26T08:23:25Z</time>
      </trkpt>
      <trkpt lat="57.433754978701472" lon="-5.749511998146772">
        <ele>336.12</ele>
        <time>2023-08-26T08:23:35Z</time>
      </trkpt>
      <trkpt lat="57.433229014277458" lon="-5.748030999675393">
        <ele>348.13</ele>
        <time>2023-08-26T08:23:44Z</time>
      </trkpt>
      <trkpt lat="57.433050982654095" lon="-5.747497994452715">
        <ele>351.5</ele>
        <time>2023-08-26T08:23:47Z</time>
      </trkpt>
      <trkpt lat="57.432975964620709" lon="-5.747338989749551">
        <ele>352.45999999999998</ele>
        <time>2023-08-26T08:23:48Z</time>
      </trkpt>
      <trkpt lat="57.432884015142918" lon="-5.747191971167922">
        <ele>353.42000000000002</ele>
        <time>2023-08-26T08:23:49Z</time>
      </trkpt>
      <trkpt lat="57.432789970189333" lon="-5.747050987556577">
        <ele>354.86000000000001</ele>
        <time>2023-08-26T08:23:50Z</time>
      </trkpt>
      <trkpt lat="57.432672958821058" lon="-5.746941016986966">
        <ele>356.31</ele>
        <time>2023-08-26T08:23:51Z</time>
      </trkpt>
      <trkpt lat="57.432557959109545" lon="-5.746832974255085">
        <ele>357.75</ele>
        <time>2023-08-26T08:23:52Z</time>
      </trkpt>
      <trkpt lat="57.432441031560302" lon="-5.746721997857094">
        <ele>358.70999999999998</ele>
        <time>2023-08-26T08:23:53Z</time>
      </trkpt>
      <trkpt lat="57.431030021980405" lon="-5.745225995779038">
        <ele>372.64999999999998</ele>
        <time>2023-08-26T08:24:05Z</time>
      </trkpt>
      <trkpt lat="57.430604975670576" lon="-5.744599029421806">
        <ele>377.94</ele>
        <time>2023-08-26T08:24:11Z</time>
      </trkpt>
      <trkpt lat="57.430560970678926" lon="-5.744481012225151">
        <ele>378.89999999999998</ele>
        <time>2023-08-26T08:24:12Z</time>
      </trkpt>
      <trkpt lat="57.430515959858894" lon="-5.744361989200115">
        <ele>379.38</ele>
        <time>2023-08-26T08:24:13Z</time>
      </trkpt>
      <trkpt lat="57.430481007322669" lon="-5.744224023073912">
        <ele>379.86000000000001</ele>
        <time>2023-08-26T08:24:14Z</time>
      </trkpt>
      <trkpt lat="57.430457035079598" lon="-5.744079016149044">
        <ele>380.33999999999997</ele>
        <time>2023-08-26T08:24:15Z</time>
      </trkpt>
      <trkpt lat="57.430433984845877" lon="-5.743940966203809">
        <ele>380.81999999999999</ele>
        <time>2023-08-26T08:24:16Z</time>
      </trkpt>
      <trkpt lat="57.430441025644541" lon="-5.743783973157406">
        <ele>381.30000000000001</ele>
        <time>2023-08-26T08:24:17Z</time>
      </trkpt>
      <trkpt lat="57.430452005937696" lon="-5.743661010637879">
        <ele>381.77999999999997</ele>
        <time>2023-08-26T08:24:18Z</time>
      </trkpt>
      <trkpt lat="57.430509002879262" lon="-5.743528995662928">
        <ele>382.74000000000001</ele>
        <time>2023-08-26T08:24:19Z</time>
      </trkpt>
      <trkpt lat="57.430557031184435" lon="-5.743421036750078">
        <ele>383.69999999999999</ele>
        <time>2023-08-26T08:24:20Z</time>
      </trkpt>
      <trkpt lat="57.430601958185434" lon="-5.7433180231601">
        <ele>384.66000000000003</ele>
        <time>2023-08-26T08:24:21Z</time>
      </trkpt>
      <trkpt lat="57.430663984268904" lon="-5.743230013176799">
        <ele>385.63</ele>
        <time>2023-08-26T08:24:22Z</time>
      </trkpt>
      <trkpt lat="57.430736990645528" lon="-5.74312599375844">
        <ele>386.58999999999997</ele>
        <time>2023-08-26T08:24:23Z</time>
      </trkpt>
      <trkpt lat="57.430989034473896" lon="-5.742758028209209">
        <ele>388.99000000000001</ele>
        <time>2023-08-26T08:24:26Z</time>
      </trkpt>
      <trkpt lat="57.431058017536998" lon="-5.742619978263974">
        <ele>388.99000000000001</ele>
        <time>2023-08-26T08:24:27Z</time>
      </trkpt>
      <trkpt lat="57.431124988943338" lon="-5.74246097356081">
        <ele>389.47000000000003</ele>
        <time>2023-08-26T08:24:28Z</time>
      </trkpt>
      <trkpt lat="57.431348031386733" lon="-5.741306031122804">
        <ele>391.38999999999999</ele>
        <time>2023-08-26T08:24:34Z</time>
      </trkpt>
      <trkpt lat="57.431337973102927" lon="-5.741102015599608">
        <ele>391.38999999999999</ele>
        <time>2023-08-26T08:24:35Z</time>
      </trkpt>
      <trkpt lat="57.43132196366787" lon="-5.740910992026329">
        <ele>391.38999999999999</ele>
        <time>2023-08-26T08:24:36Z</time>
      </trkpt>
      <trkpt lat="57.43129899725318" lon="-5.740714017301798">
        <ele>391.87</ele>
        <time>2023-08-26T08:24:37Z</time>
      </trkpt>
      <trkpt lat="57.431258009746671" lon="-5.740516036748886">
        <ele>392.36000000000001</ele>
        <time>2023-08-26T08:24:38Z</time>
      </trkpt>
      <trkpt lat="57.43063498288393" lon="-5.738206990063191">
        <ele>400.52999999999997</ele>
        <time>2023-08-26T08:24:49Z</time>
      </trkpt>
      <trkpt lat="57.430552002042532" lon="-5.737784039229155">
        <ele>402.44999999999999</ele>
        <time>2023-08-26T08:24:51Z</time>
      </trkpt>
      <trkpt lat="57.430515959858894" lon="-5.737587986513972">
        <ele>402.93000000000001</ele>
        <time>2023-08-26T08:24:52Z</time>
      </trkpt>
      <trkpt lat="57.430500034242868" lon="-5.7373689673841">
        <ele>403.88999999999999</ele>
        <time>2023-08-26T08:24:53Z</time>
      </trkpt>
      <trkpt lat="57.430484024807811" lon="-5.73715397156775">
        <ele>404.37</ele>
        <time>2023-08-26T08:24:54Z</time>
      </trkpt>
      <trkpt lat="57.430468015372753" lon="-5.736929001286626">
        <ele>405.32999999999998</ele>
        <time>2023-08-26T08:24:55Z</time>
      </trkpt>
      <trkpt lat="57.430263999849558" lon="-5.734140006825328">
        <ele>417.82999999999998</ele>
        <time>2023-08-26T08:25:07Z</time>
      </trkpt>
      <trkpt lat="57.429913971573114" lon="-5.73184797540307">
        <ele>429.37</ele>
        <time>2023-08-26T08:25:18Z</time>
      </trkpt>
      <trkpt lat="57.429813975468278" lon="-5.731515968218446">
        <ele>431.29000000000002</ele>
        <time>2023-08-26T08:25:20Z</time>
      </trkpt>
      <trkpt lat="57.42900000885129" lon="-5.729673039168119">
        <ele>440.89999999999998</ele>
        <time>2023-08-26T08:25:31Z</time>
      </trkpt>
      <trkpt lat="57.427973980084062" lon="-5.727191995829344">
        <ele>466.38</ele>
        <time>2023-08-26T08:25:45Z</time>
      </trkpt>
      <trkpt lat="57.427825033664703" lon="-5.726782036945224">
        <ele>471.66000000000003</ele>
        <time>2023-08-26T08:25:48Z</time>
      </trkpt>
      <trkpt lat="57.427619006484747" lon="-5.726439971476793">
        <ele>476.47000000000003</ele>
        <time>2023-08-26T08:25:51Z</time>
      </trkpt>
      <trkpt lat="57.427535019814968" lon="-5.726381968706846">
        <ele>477.91000000000003</ele>
        <time>2023-08-26T08:25:52Z</time>
      </trkpt>
      <trkpt lat="57.427450027316809" lon="-5.72634500451386">
        <ele>479.35000000000002</ele>
        <time>2023-08-26T08:25:53Z</time>
      </trkpt>
      <trkpt lat="57.427360005676746" lon="-5.726306028664112">
        <ele>480.80000000000001</ele>
        <time>2023-08-26T08:25:54Z</time>
      </trkpt>
      <trkpt lat="57.427263027057052" lon="-5.726264035329223">
        <ele>482.24000000000001</ele>
        <time>2023-08-26T08:25:55Z</time>
      </trkpt>
      <trkpt lat="57.427168982103467" lon="-5.726222964003682">
        <ele>483.68000000000001</ele>
        <time>2023-08-26T08:25:56Z</time>
      </trkpt>
      <trkpt lat="57.427089018747211" lon="-5.726176025345922">
        <ele>485.12</ele>
        <time>2023-08-26T08:25:57Z</time>
      </trkpt>
      <trkpt lat="57.427032021805644" lon="-5.726107964292169">
        <ele>486.56</ele>
        <time>2023-08-26T08:25:58Z</time>
      </trkpt>
      <trkpt lat="57.426992040127516" lon="-5.726048033684492">
        <ele>487.52999999999997</ele>
        <time>2023-08-26T08:25:59Z</time>
      </trkpt>
      <trkpt lat="57.426973013207316" lon="-5.7259819842875">
        <ele>488.97000000000003</ele>
        <time>2023-08-26T08:26:00Z</time>
      </trkpt>
      <trkpt lat="57.426979970186949" lon="-5.725876037031412">
        <ele>490.41000000000003</ele>
        <time>2023-08-26T08:26:01Z</time>
      </trkpt>
      <trkpt lat="57.427012994885445" lon="-5.725828008726239">
        <ele>491.37</ele>
        <time>2023-08-26T08:26:02Z</time>
      </trkpt>
      <trkpt lat="57.427052976563573" lon="-5.725776962935925">
        <ele>492.81</ele>
        <time>2023-08-26T08:26:03Z</time>
      </trkpt>
      <trkpt lat="57.427111985161901" lon="-5.725733963772655">
        <ele>493.76999999999998</ele>
        <time>2023-08-26T08:26:04Z</time>
      </trkpt>
      <trkpt lat="57.427187003195286" lon="-5.72568099014461">
        <ele>494.74000000000001</ele>
        <time>2023-08-26T08:26:05Z</time>
      </trkpt>
      <trkpt lat="57.427564021199942" lon="-5.725410003215075">
        <ele>498.57999999999998</ele>
        <time>2023-08-26T08:26:10Z</time>
      </trkpt>
      <trkpt lat="57.427601991221309" lon="-5.72531403042376">
        <ele>499.06</ele>
        <time>2023-08-26T08:26:11Z</time>
      </trkpt>
      <trkpt lat="57.42762504145503" lon="-5.725238006561995">
        <ele>499.54000000000002</ele>
        <time>2023-08-26T08:26:12Z</time>
      </trkpt>
      <trkpt lat="57.427639961242676" lon="-5.725133987143636">
        <ele>500.5</ele>
        <time>2023-08-26T08:26:13Z</time>
      </trkpt>
      <trkpt lat="57.427637027576566" lon="-5.725011024624109">
        <ele>500.98000000000002</ele>
        <time>2023-08-26T08:26:14Z</time>
      </trkpt>
      <trkpt lat="57.427635015919805" lon="-5.724867023527622">
        <ele>501.45999999999998</ele>
        <time>2023-08-26T08:26:15Z</time>
      </trkpt>
      <trkpt lat="57.427631998434663" lon="-5.724711958318949">
        <ele>501.94999999999999</ele>
        <time>2023-08-26T08:26:16Z</time>
      </trkpt>
      <trkpt lat="57.427628980949521" lon="-5.723861027508974">
        <ele>508.19</ele>
        <time>2023-08-26T08:26:21Z</time>
      </trkpt>
      <trkpt lat="57.427638033404946" lon="-5.723713003098965">
        <ele>509.63999999999999</ele>
        <time>2023-08-26T08:26:22Z</time>
      </trkpt>
      <trkpt lat="57.427653959020972" lon="-5.723448973149061">
        <ele>511.56</ele>
        <time>2023-08-26T08:26:24Z</time>
      </trkpt>
      <trkpt lat="57.427662005648017" lon="-5.723318969830871">
        <ele>512.51999999999998</ele>
        <time>2023-08-26T08:26:25Z</time>
      </trkpt>
      <trkpt lat="57.427619006484747" lon="-5.72316499426961">
        <ele>513.48000000000002</ele>
        <time>2023-08-26T08:26:26Z</time>
      </trkpt>
      <trkpt lat="57.427575001493096" lon="-5.723010012879968">
        <ele>514.44000000000005</ele>
        <time>2023-08-26T08:26:27Z</time>
      </trkpt>
      <trkpt lat="57.427528984844685" lon="-5.722847990691662">
        <ele>515.39999999999998</ele>
        <time>2023-08-26T08:26:28Z</time>
      </trkpt>
      <trkpt lat="57.427048031240702" lon="-5.72142600081861">
        <ele>523.58000000000004</ele>
        <time>2023-08-26T08:26:37Z</time>
      </trkpt>
      <trkpt lat="57.426412012428045" lon="-5.720084980130196">
        <ele>536.07000000000005</ele>
        <time>2023-08-26T08:26:46Z</time>
      </trkpt>
      <trkpt lat="57.426048992201686" lon="-5.719545017927885">
        <ele>541.84000000000003</ele>
        <time>2023-08-26T08:26:50Z</time>
      </trkpt>
      <trkpt lat="57.42597296833992" lon="-5.719432029873133">
        <ele>543.75999999999999</ele>
        <time>2023-08-26T08:26:51Z</time>
      </trkpt>
      <trkpt lat="57.425901973620057" lon="-5.719327004626393">
        <ele>545.20000000000005</ele>
        <time>2023-08-26T08:26:52Z</time>
      </trkpt>
      <trkpt lat="57.425852017477155" lon="-5.719178980216384">
        <ele>546.64999999999998</ele>
        <time>2023-08-26T08:26:53Z</time>
      </trkpt>
      <trkpt lat="57.42579803802073" lon="-5.7190209813416">
        <ele>548.09000000000003</ele>
        <time>2023-08-26T08:26:54Z</time>
      </trkpt>
      <trkpt lat="57.425252040848136" lon="-5.717417020350695">
        <ele>560.59000000000003</ele>
        <time>2023-08-26T08:27:02Z</time>
      </trkpt>
      <trkpt lat="57.424823977053165" lon="-5.71667698211968">
        <ele>568.27999999999997</ele>
        <time>2023-08-26T08:27:07Z</time>
      </trkpt>
      <trkpt lat="57.424730015918612" lon="-5.716635994613171">
        <ele>569.72000000000003</ele>
        <time>2023-08-26T08:27:08Z</time>
      </trkpt>
      <trkpt lat="57.42461602203548" lon="-5.716586038470268">
        <ele>571.15999999999997</ele>
        <time>2023-08-26T08:27:09Z</time>
      </trkpt>
      <trkpt lat="57.423727037385106" lon="-5.71616099216044">
        <ele>581.73000000000002</ele>
        <time>2023-08-26T08:27:16Z</time>
      </trkpt>
      <trkpt lat="57.423624023795128" lon="-5.716077005490661">
        <ele>583.17999999999995</ele>
        <time>2023-08-26T08:27:17Z</time>
      </trkpt>
      <trkpt lat="57.423531990498304" lon="-5.71596896275878">
        <ele>584.13999999999999</ele>
        <time>2023-08-26T08:27:18Z</time>
      </trkpt>
      <trkpt lat="57.423441968858242" lon="-5.71584097109735">
        <ele>585.58000000000004</ele>
        <time>2023-08-26T08:27:19Z</time>
      </trkpt>
      <trkpt lat="57.423354964703321" lon="-5.715715996921063">
        <ele>586.53999999999996</ele>
        <time>2023-08-26T08:27:20Z</time>
      </trkpt>
      <trkpt lat="57.423284975811839" lon="-5.715616000816226">
        <ele>587.5</ele>
        <time>2023-08-26T08:27:21Z</time>
      </trkpt>
      <trkpt lat="57.422519959509373" lon="-5.714023020118475">
        <ele>597.60000000000002</ele>
        <time>2023-08-26T08:27:30Z</time>
      </trkpt>
      <trkpt lat="57.421558974310756" lon="-5.712068025022745">
        <ele>610.09000000000003</ele>
        <time>2023-08-26T08:27:41Z</time>
      </trkpt>
      <trkpt lat="57.421193020418286" lon="-5.711485985666513">
        <ele>615.38</ele>
        <time>2023-08-26T08:27:45Z</time>
      </trkpt>
      <trkpt lat="57.421134011819959" lon="-5.711299991235137">
        <ele>616.34000000000003</ele>
        <time>2023-08-26T08:27:46Z</time>
      </trkpt>
      <trkpt lat="57.421076009050012" lon="-5.711117014288902">
        <ele>617.29999999999995</ele>
        <time>2023-08-26T08:27:47Z</time>
      </trkpt>
      <trkpt lat="57.420993028208613" lon="-5.710853990167379">
        <ele>619.23000000000002</ele>
        <time>2023-08-26T08:27:49Z</time>
      </trkpt>
      <trkpt lat="57.420963020995259" lon="-5.710762040689588">
        <ele>620.19000000000005</ele>
        <time>2023-08-26T08:27:50Z</time>
      </trkpt>
      <trkpt lat="57.420894959941506" lon="-5.710546039044857">
        <ele>622.59000000000003</ele>
        <time>2023-08-26T08:27:53Z</time>
      </trkpt>
      <trkpt lat="57.420818014070392" lon="-5.710302963852882">
        <ele>625.96000000000004</ele>
        <time>2023-08-26T08:27:57Z</time>
      </trkpt>
      <trkpt lat="57.420791024342179" lon="-5.710218977183104">
        <ele>626.44000000000005</ele>
        <time>2023-08-26T08:27:58Z</time>
      </trkpt>
      <trkpt lat="57.420746013522148" lon="-5.710125016048551">
        <ele>627.39999999999998</ele>
        <time>2023-08-26T08:27:59Z</time>
      </trkpt>
      <trkpt lat="57.420028019696474" lon="-5.709171993657947">
        <ele>631.72000000000003</ele>
        <time>2023-08-26T08:28:09Z</time>
      </trkpt>
      <trkpt lat="57.419945038855076" lon="-5.709083983674645">
        <ele>632.20000000000005</ele>
        <time>2023-08-26T08:28:10Z</time>
      </trkpt>
      <trkpt lat="57.419850993901491" lon="-5.708993040025234">
        <ele>632.20000000000005</ele>
        <time>2023-08-26T08:28:11Z</time>
      </trkpt>
      <trkpt lat="57.418660009279847" lon="-5.708116041496396">
        <ele>634.13</ele>
        <time>2023-08-26T08:28:22Z</time>
      </trkpt>
      <trkpt lat="57.41857904009521" lon="-5.707955025136471">
        <ele>633.64999999999998</ele>
        <time>2023-08-26T08:28:23Z</time>
      </trkpt>
      <trkpt lat="57.418501004576683" lon="-5.707791997119784">
        <ele>633.64999999999998</ele>
        <time>2023-08-26T08:28:24Z</time>
      </trkpt>
      <trkpt lat="57.418205039575696" lon="-5.707259997725487">
        <ele>634.13</ele>
        <time>2023-08-26T08:28:28Z</time>
      </trkpt>
      <trkpt lat="57.418122980743647" lon="-5.707219010218978">
        <ele>634.61000000000001</ele>
        <time>2023-08-26T08:28:29Z</time>
      </trkpt>
      <trkpt lat="57.418037988245487" lon="-5.707176011055708">
        <ele>634.13</ele>
        <time>2023-08-26T08:28:30Z</time>
      </trkpt>
      <trkpt lat="57.417031992226839" lon="-5.706663960590959">
        <ele>634.13</ele>
        <time>2023-08-26T08:28:39Z</time>
      </trkpt>
      <trkpt lat="57.416075030341744" lon="-5.705702975392342">
        <ele>631.72000000000003</ele>
        <time>2023-08-26T08:28:47Z</time>
      </trkpt>
      <trkpt lat="57.415818963199854" lon="-5.705339033156633">
        <ele>629.79999999999995</ele>
        <time>2023-08-26T08:28:50Z</time>
      </trkpt>
      <trkpt lat="57.415712010115385" lon="-5.705302990972996">
        <ele>628.84000000000003</ele>
        <time>2023-08-26T08:28:51Z</time>
      </trkpt>
      <trkpt lat="57.41559399291873" lon="-5.705263009294868">
        <ele>627.88</ele>
        <time>2023-08-26T08:28:52Z</time>
      </trkpt>
      <trkpt lat="57.41546499542892" lon="-5.705220010131598">
        <ele>626.44000000000005</ele>
        <time>2023-08-26T08:28:53Z</time>
      </trkpt>
      <trkpt lat="57.415329040959477" lon="-5.705143986269832">
        <ele>624.99000000000001</ele>
        <time>2023-08-26T08:28:54Z</time>
      </trkpt>
      <trkpt lat="57.415214963257313" lon="-5.705013982951641">
        <ele>624.02999999999997</ele>
        <time>2023-08-26T08:28:55Z</time>
      </trkpt>
      <trkpt lat="57.415095018222928" lon="-5.704877022653818">
        <ele>623.07000000000005</ele>
        <time>2023-08-26T08:28:56Z</time>
      </trkpt>
      <trkpt lat="57.41497297771275" lon="-5.704738972708583">
        <ele>622.11000000000001</ele>
        <time>2023-08-26T08:28:57Z</time>
      </trkpt>
      <trkpt lat="57.413881989195943" lon="-5.70309896953404">
        <ele>607.21000000000004</ele>
        <time>2023-08-26T08:29:06Z</time>
      </trkpt>
      <trkpt lat="57.412945982068777" lon="-5.701511017978191">
        <ele>598.08000000000004</ele>
        <time>2023-08-26T08:29:15Z</time>
      </trkpt>
      <trkpt lat="57.412852020934224" lon="-5.70142200216651">
        <ele>598.08000000000004</ele>
        <time>2023-08-26T08:29:16Z</time>
      </trkpt>
      <trkpt lat="57.412774991244078" lon="-5.701404986903071">
        <ele>597.60000000000002</ele>
        <time>2023-08-26T08:29:17Z</time>
      </trkpt>
      <trkpt lat="57.412708019837737" lon="-5.701389983296394">
        <ele>597.60000000000002</ele>
        <time>2023-08-26T08:29:18Z</time>
      </trkpt>
      <trkpt lat="57.412648005411029" lon="-5.701428037136793">
        <ele>597.60000000000002</ele>
        <time>2023-08-26T08:29:19Z</time>
      </trkpt>
      <trkpt lat="57.412581034004688" lon="-5.701472964137793">
        <ele>597.12</ele>
        <time>2023-08-26T08:29:20Z</time>
      </trkpt>
      <trkpt lat="57.412508027628064" lon="-5.701520992442966">
        <ele>596.63999999999999</ele>
        <time>2023-08-26T08:29:21Z</time>
      </trkpt>
      <trkpt lat="57.412430997937918" lon="-5.701572960242629">
        <ele>596.14999999999998</ele>
        <time>2023-08-26T08:29:22Z</time>
      </trkpt>
      <trkpt lat="57.412355979904532" lon="-5.701621994376183">
        <ele>595.19000000000005</ele>
        <time>2023-08-26T08:29:23Z</time>
      </trkpt>
      <trkpt lat="57.412281967699528" lon="-5.701672034338117">
        <ele>594.23000000000002</ele>
        <time>2023-08-26T08:29:24Z</time>
      </trkpt>
      <trkpt lat="57.411738988012075" lon="-5.701673040166497">
        <ele>586.53999999999996</ele>
        <time>2023-08-26T08:29:33Z</time>
      </trkpt>
      <trkpt lat="57.411701017990708" lon="-5.701664993539453">
        <ele>585.10000000000002</ele>
        <time>2023-08-26T08:29:43Z</time>
      </trkpt>
      <trkpt lat="57.411701017990708" lon="-5.701664993539453">
        <ele>584.62</ele>
        <time>2023-08-26T08:30:31Z</time>
      </trkpt>
      <trkpt lat="57.411503959447145" lon="-5.701625011861324">
        <ele>583.65999999999997</ele>
        <time>2023-08-26T08:30:46Z</time>
      </trkpt>
      <trkpt lat="57.411450985819101" lon="-5.701596010476351">
        <ele>583.17999999999995</ele>
        <time>2023-08-26T08:30:47Z</time>
      </trkpt>
      <trkpt lat="57.411390971392393" lon="-5.701560974121094">
        <ele>583.17999999999995</ele>
        <time>2023-08-26T08:30:48Z</time>
      </trkpt>
      <trkpt lat="57.411076985299587" lon="-5.701384032145143">
        <ele>580.28999999999996</ele>
        <time>2023-08-26T08:30:55Z</time>
      </trkpt>
      <trkpt lat="57.411011019721627" lon="-5.701298033818603">
        <ele>579.80999999999995</ele>
        <time>2023-08-26T08:30:56Z</time>
      </trkpt>
      <trkpt lat="57.411011019721627" lon="-5.701282024383545">
        <ele>579.33000000000004</ele>
        <time>2023-08-26T08:30:57Z</time>
      </trkpt>
      <trkpt lat="57.411101963371038" lon="-5.701203988865018">
        <ele>578.85000000000002</ele>
        <time>2023-08-26T08:30:58Z</time>
      </trkpt>
      <trkpt lat="57.411144962534308" lon="-5.701168030500412">
        <ele>578.37</ele>
        <time>2023-08-26T08:30:59Z</time>
      </trkpt>
      <trkpt lat="57.411200031638145" lon="-5.70112100802362">
        <ele>577.88999999999999</ele>
        <time>2023-08-26T08:31:00Z</time>
      </trkpt>
      <trkpt lat="57.411262979730964" lon="-5.701067028567195">
        <ele>577.40999999999997</ele>
        <time>2023-08-26T08:31:01Z</time>
      </trkpt>
      <trkpt lat="57.411498008295894" lon="-5.700867036357522">
        <ele>574.52999999999997</ele>
        <time>2023-08-26T08:31:05Z</time>
      </trkpt>
      <trkpt lat="57.411550981923938" lon="-5.700822025537491">
        <ele>573.55999999999995</ele>
        <time>2023-08-26T08:31:06Z</time>
      </trkpt>
      <trkpt lat="57.411606973037124" lon="-5.700712976977229">
        <ele>573.08000000000004</ele>
        <time>2023-08-26T08:31:07Z</time>
      </trkpt>
      <trkpt lat="57.411630023270845" lon="-5.700608035549521">
        <ele>572.12</ele>
        <time>2023-08-26T08:31:08Z</time>
      </trkpt>
      <trkpt lat="57.411604961380363" lon="-5.700465040281415">
        <ele>571.63999999999999</ele>
        <time>2023-08-26T08:31:09Z</time>
      </trkpt>
      <trkpt lat="57.411578977480531" lon="-5.700346017256379">
        <ele>570.67999999999995</ele>
        <time>2023-08-26T08:31:10Z</time>
      </trkpt>
      <trkpt lat="57.411549976095557" lon="-5.700215008109808">
        <ele>570.20000000000005</ele>
        <time>2023-08-26T08:31:11Z</time>
      </trkpt>
      <trkpt lat="57.411478981375694" lon="-5.699848970398307">
        <ele>567.32000000000005</ele>
        <time>2023-08-26T08:31:14Z</time>
      </trkpt>
      <trkpt lat="57.411471018567681" lon="-5.699727013707161">
        <ele>566.35000000000002</ele>
        <time>2023-08-26T08:31:15Z</time>
      </trkpt>
      <trkpt lat="57.411462971940637" lon="-5.699602961540222">
        <ele>565.87</ele>
        <time>2023-08-26T08:31:16Z</time>
      </trkpt>
      <trkpt lat="57.41144604049623" lon="-5.699330968782306">
        <ele>563.95000000000005</ele>
        <time>2023-08-26T08:31:18Z</time>
      </trkpt>
      <trkpt lat="57.411394994705915" lon="-5.698556983843446">
        <ele>559.13999999999999</ele>
        <time>2023-08-26T08:31:23Z</time>
      </trkpt>
      <trkpt lat="57.411388037726283" lon="-5.698443995788693">
        <ele>558.65999999999997</ele>
        <time>2023-08-26T08:31:24Z</time>
      </trkpt>
      <trkpt lat="57.411376973614097" lon="-5.698268981650472">
        <ele>557.22000000000003</ele>
        <time>2023-08-26T08:31:26Z</time>
      </trkpt>
      <trkpt lat="57.411375967785716" lon="-5.698256995528936">
        <ele>556.25999999999999</ele>
        <time>2023-08-26T08:31:27Z</time>
      </trkpt>
      <trkpt lat="57.411375967785716" lon="-5.698256995528936">
        <ele>555.29999999999995</ele>
        <time>2023-08-26T08:31:28Z</time>
      </trkpt>
      <trkpt lat="57.411375967785716" lon="-5.698256995528936">
        <ele>554.34000000000003</ele>
        <time>2023-08-26T08:31:29Z</time>
      </trkpt>
      <trkpt lat="57.411360964179039" lon="-5.698292031884193">
        <ele>552.89999999999998</ele>
        <time>2023-08-26T08:31:30Z</time>
      </trkpt>
      <trkpt lat="57.411311008036137" lon="-5.698407031595707">
        <ele>551.92999999999995</ele>
        <time>2023-08-26T08:31:31Z</time>
      </trkpt>
      <trkpt lat="57.411311008036137" lon="-5.698407031595707">
        <ele>550.49000000000001</ele>
        <time>2023-08-26T08:31:32Z</time>
      </trkpt>
      <trkpt lat="57.411222998052835" lon="-5.699025029316545">
        <ele>545.69000000000005</ele>
        <time>2023-08-26T08:31:37Z</time>
      </trkpt>
      <trkpt lat="57.411201037466526" lon="-5.699175987392664">
        <ele>544.72000000000003</ele>
        <time>2023-08-26T08:31:38Z</time>
      </trkpt>
      <trkpt lat="57.411179998889565" lon="-5.699325017631054">
        <ele>543.75999999999999</ele>
        <time>2023-08-26T08:31:39Z</time>
      </trkpt>
      <trkpt lat="57.411156026646495" lon="-5.699469018727541">
        <ele>543.27999999999997</ele>
        <time>2023-08-26T08:31:40Z</time>
      </trkpt>
      <trkpt lat="57.411105986684561" lon="-5.699585024267435">
        <ele>542.32000000000005</ele>
        <time>2023-08-26T08:31:41Z</time>
      </trkpt>
      <trkpt lat="57.411058964207768" lon="-5.699691977351904">
        <ele>541.36000000000001</ele>
        <time>2023-08-26T08:31:42Z</time>
      </trkpt>
      <trkpt lat="57.411011019721627" lon="-5.699802031740546">
        <ele>540.39999999999998</ele>
        <time>2023-08-26T08:31:43Z</time>
      </trkpt>
      <trkpt lat="57.410948993638158" lon="-5.699846036732197">
        <ele>539.44000000000005</ele>
        <time>2023-08-26T08:31:44Z</time>
      </trkpt>
      <trkpt lat="57.410893002524972" lon="-5.699886018410325">
        <ele>538.48000000000002</ele>
        <time>2023-08-26T08:31:45Z</time>
      </trkpt>
      <trkpt lat="57.410829970613122" lon="-5.699889035895467">
        <ele>537.99000000000001</ele>
        <time>2023-08-26T08:31:46Z</time>
      </trkpt>
      <trkpt lat="57.410771967843175" lon="-5.699849976226687">
        <ele>537.50999999999999</ele>
        <time>2023-08-26T08:31:47Z</time>
      </trkpt>
      <trkpt lat="57.410710025578737" lon="-5.699774036183953">
        <ele>537.02999999999997</ele>
        <time>2023-08-26T08:31:48Z</time>
      </trkpt>
      <trkpt lat="57.41065202280879" lon="-5.699647972360253">
        <ele>536.54999999999995</ele>
        <time>2023-08-26T08:31:49Z</time>
      </trkpt>
      <trkpt lat="57.410586979240179" lon="-5.699504977092147">
        <ele>535.59000000000003</ele>
        <time>2023-08-26T08:31:50Z</time>
      </trkpt>
      <trkpt lat="57.41043702699244" lon="-5.699271038174629">
        <ele>533.66999999999996</ele>
        <time>2023-08-26T08:31:52Z</time>
      </trkpt>
      <trkpt lat="57.410361003130674" lon="-5.699195014312863">
        <ele>532.23000000000002</ele>
        <time>2023-08-26T08:31:53Z</time>
      </trkpt>
      <trkpt lat="57.410277016460896" lon="-5.699157966300845">
        <ele>530.78999999999996</ele>
        <time>2023-08-26T08:31:54Z</time>
      </trkpt>
      <trkpt lat="57.410185988992453" lon="-5.699157966300845">
        <ele>529.82000000000005</ele>
        <time>2023-08-26T08:31:55Z</time>
      </trkpt>
      <trkpt lat="57.410085992887616" lon="-5.699157966300845">
        <ele>528.86000000000001</ele>
        <time>2023-08-26T08:31:56Z</time>
      </trkpt>
      <trkpt lat="57.409617025405169" lon="-5.699157966300845">
        <ele>524.05999999999995</ele>
        <time>2023-08-26T08:32:02Z</time>
      </trkpt>
      <trkpt lat="57.409567991271615" lon="-5.699157966300845">
        <ele>523.09000000000003</ele>
        <time>2023-08-26T08:32:03Z</time>
      </trkpt>
      <trkpt lat="57.409531027078629" lon="-5.699157966300845">
        <ele>522.61000000000001</ele>
        <time>2023-08-26T08:32:04Z</time>
      </trkpt>
      <trkpt lat="57.409530021250248" lon="-5.699157966300845">
        <ele>521.64999999999998</ele>
        <time>2023-08-26T08:32:05Z</time>
      </trkpt>
      <trkpt lat="57.409530021250248" lon="-5.699157966300845">
        <ele>521.16999999999996</ele>
        <time>2023-08-26T08:32:06Z</time>
      </trkpt>
      <trkpt lat="57.409530021250248" lon="-5.699157966300845">
        <ele>520.69000000000005</ele>
        <time>2023-08-26T08:32:07Z</time>
      </trkpt>
      <trkpt lat="57.409547036513686" lon="-5.699112033471465">
        <ele>520.21000000000004</ele>
        <time>2023-08-26T08:32:08Z</time>
      </trkpt>
      <trkpt lat="57.409594980999827" lon="-5.698985969647765">
        <ele>519.73000000000002</ele>
        <time>2023-08-26T08:32:09Z</time>
      </trkpt>
      <trkpt lat="57.409602021798491" lon="-5.698983035981655">
        <ele>519.25</ele>
        <time>2023-08-26T08:32:10Z</time>
      </trkpt>
      <trkpt lat="57.409667987376451" lon="-5.698950011283159">
        <ele>518.76999999999998</ele>
        <time>2023-08-26T08:32:11Z</time>
      </trkpt>
      <trkpt lat="57.41026503033936" lon="-5.698563018813729">
        <ele>514.44000000000005</ele>
        <time>2023-08-26T08:32:17Z</time>
      </trkpt>
      <trkpt lat="57.410367038100958" lon="-5.69843796081841">
        <ele>513.48000000000002</ele>
        <time>2023-08-26T08:32:18Z</time>
      </trkpt>
      <trkpt lat="57.410434009507298" lon="-5.698270993307233">
        <ele>512.03999999999996</ele>
        <time>2023-08-26T08:32:19Z</time>
      </trkpt>
      <trkpt lat="57.410505004227161" lon="-5.69809396751225">
        <ele>511.56</ele>
        <time>2023-08-26T08:32:20Z</time>
      </trkpt>
      <trkpt lat="57.410572981461883" lon="-5.697908978909254">
        <ele>510.12</ele>
        <time>2023-08-26T08:32:21Z</time>
      </trkpt>
      <trkpt lat="57.410622015595436" lon="-5.697722984477878">
        <ele>509.16000000000003</ele>
        <time>2023-08-26T08:32:22Z</time>
      </trkpt>
      <trkpt lat="57.410669960081577" lon="-5.697513017803431">
        <ele>507.70999999999998</ele>
        <time>2023-08-26T08:32:23Z</time>
      </trkpt>
      <trkpt lat="57.410682030022144" lon="-5.697292992845178">
        <ele>506.26999999999998</ele>
        <time>2023-08-26T08:32:24Z</time>
      </trkpt>
      <trkpt lat="57.41069502197206" lon="-5.697071040049195">
        <ele>504.82999999999998</ele>
        <time>2023-08-26T08:32:25Z</time>
      </trkpt>
      <trkpt lat="57.410724023357034" lon="-5.69637400098145">
        <ele>500.01999999999998</ele>
        <time>2023-08-26T08:32:28Z</time>
      </trkpt>
      <trkpt lat="57.410693010315299" lon="-5.696156993508339">
        <ele>498.10000000000002</ele>
        <time>2023-08-26T08:32:29Z</time>
      </trkpt>
      <trkpt lat="57.410660991445184" lon="-5.695937974378467">
        <ele>496.18000000000001</ele>
        <time>2023-08-26T08:32:30Z</time>
      </trkpt>
      <trkpt lat="57.410137038677931" lon="-5.69401097483933">
        <ele>479.35000000000002</ele>
        <time>2023-08-26T08:32:38Z</time>
      </trkpt>
      <trkpt lat="57.409355007112026" lon="-5.69184098392725">
        <ele>457.72000000000003</ele>
        <time>2023-08-26T08:32:46Z</time>
      </trkpt>
      <trkpt lat="57.408679006621242" lon="-5.690595014020801">
        <ele>443.31</ele>
        <time>2023-08-26T08:32:52Z</time>
      </trkpt>
      <trkpt lat="57.408607006072998" lon="-5.690460987389088">
        <ele>441.38</ele>
        <time>2023-08-26T08:32:53Z</time>
      </trkpt>
      <trkpt lat="57.408564006909728" lon="-5.690383035689592">
        <ele>440.42000000000002</ele>
        <time>2023-08-26T08:32:54Z</time>
      </trkpt>
      <trkpt lat="57.40854699164629" lon="-5.690351016819477">
        <ele>439.45999999999998</ele>
        <time>2023-08-26T08:32:55Z</time>
      </trkpt>
      <trkpt lat="57.40854699164629" lon="-5.690351016819477">
        <ele>438.5</ele>
        <time>2023-08-26T08:33:05Z</time>
      </trkpt>
      <trkpt lat="57.408529976382852" lon="-5.690320003777742">
        <ele>437.06</ele>
        <time>2023-08-26T08:33:11Z</time>
      </trkpt>
      <trkpt lat="57.408496029675007" lon="-5.690257977694273">
        <ele>436.10000000000002</ele>
        <time>2023-08-26T08:33:12Z</time>
      </trkpt>
      <trkpt lat="57.408445989713073" lon="-5.690165022388101">
        <ele>434.64999999999998</ele>
        <time>2023-08-26T08:33:13Z</time>
      </trkpt>
      <trkpt lat="57.407871996983886" lon="-5.689060036092997">
        <ele>426</ele>
        <time>2023-08-26T08:33:20Z</time>
      </trkpt>
      <trkpt lat="57.407815000042319" lon="-5.688856020569801">
        <ele>424.56</ele>
        <time>2023-08-26T08:33:21Z</time>
      </trkpt>
      <trkpt lat="57.40777300670743" lon="-5.688659967854619">
        <ele>422.63999999999999</ele>
        <time>2023-08-26T08:33:22Z</time>
      </trkpt>
      <trkpt lat="57.407739982008934" lon="-5.688460981473327">
        <ele>421.19</ele>
        <time>2023-08-26T08:33:23Z</time>
      </trkpt>
      <trkpt lat="57.407707963138819" lon="-5.688271969556809">
        <ele>419.26999999999998</ele>
        <time>2023-08-26T08:33:24Z</time>
      </trkpt>
      <trkpt lat="57.407555999234319" lon="-5.687378039583564">
        <ele>411.10000000000002</ele>
        <time>2023-08-26T08:33:29Z</time>
      </trkpt>
      <trkpt lat="57.407518029212952" lon="-5.687235966324806">
        <ele>409.18000000000001</ele>
        <time>2023-08-26T08:33:30Z</time>
      </trkpt>
      <trkpt lat="57.407418033108115" lon="-5.686946036294103">
        <ele>406.29000000000002</ele>
        <time>2023-08-26T08:33:32Z</time>
      </trkpt>
      <trkpt lat="57.407358018681407" lon="-5.686817038804293">
        <ele>404.85000000000002</ele>
        <time>2023-08-26T08:33:33Z</time>
      </trkpt>
      <trkpt lat="57.407292975112796" lon="-5.686681000515819">
        <ele>403.41000000000003</ele>
        <time>2023-08-26T08:33:34Z</time>
      </trkpt>
      <trkpt lat="57.407165989279747" lon="-5.686413031071425">
        <ele>400.05000000000001</ele>
        <time>2023-08-26T08:33:36Z</time>
      </trkpt>
      <trkpt lat="57.407105974853039" lon="-5.686285961419344">
        <ele>398.60000000000002</ele>
        <time>2023-08-26T08:33:37Z</time>
      </trkpt>
      <trkpt lat="57.407071022316813" lon="-5.686137014999986">
        <ele>397.16000000000003</ele>
        <time>2023-08-26T08:33:38Z</time>
      </trkpt>
      <trkpt lat="57.407050989568233" lon="-5.68597499281168">
        <ele>395.24000000000001</ele>
        <time>2023-08-26T08:33:39Z</time>
      </trkpt>
      <trkpt lat="57.407045038416982" lon="-5.685808025300503">
        <ele>393.80000000000001</ele>
        <time>2023-08-26T08:33:40Z</time>
      </trkpt>
      <trkpt lat="57.407054007053375" lon="-5.685627982020378">
        <ele>392.36000000000001</ele>
        <time>2023-08-26T08:33:41Z</time>
      </trkpt>
      <trkpt lat="57.407187027856708" lon="-5.683923019096255">
        <ele>381.77999999999997</ele>
        <time>2023-08-26T08:33:49Z</time>
      </trkpt>
      <trkpt lat="57.407604027539492" lon="-5.681943967938423">
        <ele>367.83999999999997</ele>
        <time>2023-08-26T08:33:59Z</time>
      </trkpt>
      <trkpt lat="57.407864034175873" lon="-5.681105023249984">
        <ele>362.06999999999999</ele>
        <time>2023-08-26T08:34:04Z</time>
      </trkpt>
      <trkpt lat="57.407921031117439" lon="-5.680919028818607">
        <ele>361.11000000000001</ele>
        <time>2023-08-26T08:34:05Z</time>
      </trkpt>
      <trkpt lat="57.407921031117439" lon="-5.680726999416947">
        <ele>360.14999999999998</ele>
        <time>2023-08-26T08:34:06Z</time>
      </trkpt>
      <trkpt lat="57.407922958955169" lon="-5.68008997477591">
        <ele>357.75</ele>
        <time>2023-08-26T08:34:09Z</time>
      </trkpt>
      <trkpt lat="57.407936034724116" lon="-5.679859975352883">
        <ele>356.79000000000002</ele>
        <time>2023-08-26T08:34:10Z</time>
      </trkpt>
      <trkpt lat="57.407964030280709" lon="-5.679352032020688">
        <ele>355.33999999999997</ele>
        <time>2023-08-26T08:34:12Z</time>
      </trkpt>
      <trkpt lat="57.407956989482045" lon="-5.679106023162603">
        <ele>354.38</ele>
        <time>2023-08-26T08:34:13Z</time>
      </trkpt>
      <trkpt lat="57.407892029732466" lon="-5.677527962252498">
        <ele>347.64999999999998</ele>
        <time>2023-08-26T08:34:19Z</time>
      </trkpt>
      <trkpt lat="57.407801002264023" lon="-5.676365979015827">
        <ele>342.85000000000002</ele>
        <time>2023-08-26T08:34:24Z</time>
      </trkpt>
      <trkpt lat="57.407596986740828" lon="-5.674159023910761">
        <ele>332.26999999999998</ele>
        <time>2023-08-26T08:34:33Z</time>
      </trkpt>
      <trkpt lat="57.407470000907779" lon="-5.673494003713131">
        <ele>328.43000000000001</ele>
        <time>2023-08-26T08:34:36Z</time>
      </trkpt>
      <trkpt lat="57.407160960137844" lon="-5.671345973387361">
        <ele>316.41000000000003</ele>
        <time>2023-08-26T08:34:45Z</time>
      </trkpt>
      <trkpt lat="57.406828030943871" lon="-5.669003985822201">
        <ele>303.43000000000001</ele>
        <time>2023-08-26T08:34:55Z</time>
      </trkpt>
      <trkpt lat="57.406737003475428" lon="-5.668252967298031">
        <ele>299.11000000000001</ele>
        <time>2023-08-26T08:34:58Z</time>
      </trkpt>
      <trkpt lat="57.406396027654409" lon="-5.666870037093759">
        <ele>291.42000000000002</ele>
        <time>2023-08-26T08:35:05Z</time>
      </trkpt>
      <trkpt lat="57.406262001022696" lon="-5.665531028062105">
        <ele>284.20999999999998</ele>
        <time>2023-08-26T08:35:12Z</time>
      </trkpt>
      <trkpt lat="57.406221013516188" lon="-5.665298011153936">
        <ele>283.25</ele>
        <time>2023-08-26T08:35:13Z</time>
      </trkpt>
      <trkpt lat="57.406157981604338" lon="-5.665097013115883">
        <ele>282.27999999999997</ele>
        <time>2023-08-26T08:35:14Z</time>
      </trkpt>
      <trkpt lat="57.4060960393399" lon="-5.66489702090621">
        <ele>280.83999999999997</ele>
        <time>2023-08-26T08:35:15Z</time>
      </trkpt>
      <trkpt lat="57.406036024913192" lon="-5.66470499150455">
        <ele>279.88</ele>
        <time>2023-08-26T08:35:16Z</time>
      </trkpt>
      <trkpt lat="57.405978022143245" lon="-5.664517991244793">
        <ele>278.92000000000002</ele>
        <time>2023-08-26T08:35:17Z</time>
      </trkpt>
      <trkpt lat="57.405482986941934" lon="-5.662433998659253">
        <ele>267.38</ele>
        <time>2023-08-26T08:35:27Z</time>
      </trkpt>
      <trkpt lat="57.405304033309221" lon="-5.661814995110035">
        <ele>263.06</ele>
        <time>2023-08-26T08:35:30Z</time>
      </trkpt>
      <trkpt lat="57.405218034982681" lon="-5.661661019548774">
        <ele>261.62</ele>
        <time>2023-08-26T08:35:31Z</time>
      </trkpt>
      <trkpt lat="57.405126001685858" lon="-5.661522969603539">
        <ele>260.64999999999998</ele>
        <time>2023-08-26T08:35:32Z</time>
      </trkpt>
      <trkpt lat="57.405032962560654" lon="-5.661385003477335">
        <ele>259.20999999999998</ele>
        <time>2023-08-26T08:35:33Z</time>
      </trkpt>
      <trkpt lat="57.404934978112578" lon="-5.661256005987525">
        <ele>257.76999999999998</ele>
        <time>2023-08-26T08:35:34Z</time>
      </trkpt>
      <trkpt lat="57.404830036684871" lon="-5.661144023761153">
        <ele>256.32999999999998</ele>
        <time>2023-08-26T08:35:35Z</time>
      </trkpt>
      <trkpt lat="57.404383029788733" lon="-5.660639014095068">
        <ele>249.12</ele>
        <time>2023-08-26T08:35:40Z</time>
      </trkpt>
      <trkpt lat="57.404311029240489" lon="-5.660518985241652">
        <ele>247.68000000000001</ele>
        <time>2023-08-26T08:35:41Z</time>
      </trkpt>
      <trkpt lat="57.40422897040844" lon="-5.660375989973545">
        <ele>246.22999999999999</ele>
        <time>2023-08-26T08:35:42Z</time>
      </trkpt>
      <trkpt lat="57.40420600399375" lon="-5.66019301302731">
        <ele>245.27000000000001</ele>
        <time>2023-08-26T08:35:43Z</time>
      </trkpt>
      <trkpt lat="57.404181025922298" lon="-5.65999997779727">
        <ele>243.83000000000001</ele>
        <time>2023-08-26T08:35:44Z</time>
      </trkpt>
      <trkpt lat="57.404154958203435" lon="-5.659801997244358">
        <ele>242.87</ele>
        <time>2023-08-26T08:35:45Z</time>
      </trkpt>
      <trkpt lat="57.404070971533656" lon="-5.659192968159914">
        <ele>239.50999999999999</ele>
        <time>2023-08-26T08:35:48Z</time>
      </trkpt>
      <trkpt lat="57.404015986248851" lon="-5.659007979556918">
        <ele>238.53999999999999</ele>
        <time>2023-08-26T08:35:49Z</time>
      </trkpt>
      <trkpt lat="57.403954965993762" lon="-5.658821985125542">
        <ele>237.58000000000001</ele>
        <time>2023-08-26T08:35:50Z</time>
      </trkpt>
      <trkpt lat="57.403876008465886" lon="-5.658654011785984">
        <ele>237.09999999999999</ele>
        <time>2023-08-26T08:35:51Z</time>
      </trkpt>
      <trkpt lat="57.403795039281249" lon="-5.658483020961285">
        <ele>236.62</ele>
        <time>2023-08-26T08:35:52Z</time>
      </trkpt>
      <trkpt lat="57.4037129804492" lon="-5.658309012651444">
        <ele>235.66</ele>
        <time>2023-08-26T08:35:53Z</time>
      </trkpt>
      <trkpt lat="57.402657028287649" lon="-5.656634978950024">
        <ele>228.93000000000001</ele>
        <time>2023-08-26T08:36:05Z</time>
      </trkpt>
      <trkpt lat="57.402178002521396" lon="-5.655624037608504">
        <ele>222.19999999999999</ele>
        <time>2023-08-26T08:36:12Z</time>
      </trkpt>
      <trkpt lat="57.402133997529745" lon="-5.655503002926707">
        <ele>221.24000000000001</ele>
        <time>2023-08-26T08:36:13Z</time>
      </trkpt>
      <trkpt lat="57.40212201140821" lon="-5.655356990173459">
        <ele>220.28</ele>
        <time>2023-08-26T08:36:14Z</time>
      </trkpt>
      <trkpt lat="57.402147995308042" lon="-5.655238972976804">
        <ele>219.80000000000001</ele>
        <time>2023-08-26T08:36:15Z</time>
      </trkpt>
      <trkpt lat="57.402175990864635" lon="-5.655118022114039">
        <ele>218.84</ele>
        <time>2023-08-26T08:36:16Z</time>
      </trkpt>
      <trkpt lat="57.402205998077989" lon="-5.654980977997184">
        <ele>217.88</ele>
        <time>2023-08-26T08:36:17Z</time>
      </trkpt>
      <trkpt lat="57.402240028604865" lon="-5.654832031577826">
        <ele>216.91</ele>
        <time>2023-08-26T08:36:18Z</time>
      </trkpt>
      <trkpt lat="57.40257304161787" lon="-5.653389003127813">
        <ele>212.59</ele>
        <time>2023-08-26T08:36:26Z</time>
      </trkpt>
      <trkpt lat="57.402731040492654" lon="-5.652860021218658">
        <ele>212.11000000000001</ele>
        <time>2023-08-26T08:36:29Z</time>
      </trkpt>
      <trkpt lat="57.402776973322034" lon="-5.652674026787281">
        <ele>211.63</ele>
        <time>2023-08-26T08:36:30Z</time>
      </trkpt>
      <trkpt lat="57.402802035212517" lon="-5.652476968243718">
        <ele>211.15000000000001</ele>
        <time>2023-08-26T08:36:31Z</time>
      </trkpt>
      <trkpt lat="57.40280999802053" lon="-5.652290973812342">
        <ele>210.66999999999999</ele>
        <time>2023-08-26T08:36:32Z</time>
      </trkpt>
      <trkpt lat="57.402801029384136" lon="-5.652101039886475">
        <ele>210.19</ele>
        <time>2023-08-26T08:36:33Z</time>
      </trkpt>
      <trkpt lat="57.402792982757092" lon="-5.651909010484815">
        <ele>209.69999999999999</ele>
        <time>2023-08-26T08:36:34Z</time>
      </trkpt>
      <trkpt lat="57.402751995250583" lon="-5.651740031316876">
        <ele>208.74000000000001</ele>
        <time>2023-08-26T08:36:35Z</time>
      </trkpt>
      <trkpt lat="57.402712013572454" lon="-5.651573985815048">
        <ele>207.78</ele>
        <time>2023-08-26T08:36:36Z</time>
      </trkpt>
      <trkpt lat="57.402674965560436" lon="-5.651419004425407">
        <ele>207.30000000000001</ele>
        <time>2023-08-26T08:36:37Z</time>
      </trkpt>
      <trkpt lat="57.402621991932392" lon="-5.651326971128583">
        <ele>206.81999999999999</ele>
        <time>2023-08-26T08:36:38Z</time>
      </trkpt>
      <trkpt lat="57.402554014697671" lon="-5.651253964751959">
        <ele>206.34</ele>
        <time>2023-08-26T08:36:39Z</time>
      </trkpt>
      <trkpt lat="57.402492994442582" lon="-5.651187999173999">
        <ele>205.86000000000001</ele>
        <time>2023-08-26T08:36:40Z</time>
      </trkpt>
      <trkpt lat="57.402429962530732" lon="-5.651122033596039">
        <ele>205.38</ele>
        <time>2023-08-26T08:36:41Z</time>
      </trkpt>
      <trkpt lat="57.40235703997314" lon="-5.651048021391034">
        <ele>204.90000000000001</ele>
        <time>2023-08-26T08:36:42Z</time>
      </trkpt>
      <trkpt lat="57.402265006676316" lon="-5.651027988642454">
        <ele>203.94</ele>
        <time>2023-08-26T08:36:43Z</time>
      </trkpt>
      <trkpt lat="57.402162998914719" lon="-5.651006028056145">
        <ele>203.46000000000001</ele>
        <time>2023-08-26T08:36:44Z</time>
      </trkpt>
      <trkpt lat="57.40117602981627" lon="-5.650731017813087">
        <ele>194.31999999999999</ele>
        <time>2023-08-26T08:36:52Z</time>
      </trkpt>
      <trkpt lat="57.400986012071371" lon="-5.650634961202741">
        <ele>192.40000000000001</ele>
        <time>2023-08-26T08:36:54Z</time>
      </trkpt>
      <trkpt lat="57.400906970724463" lon="-5.650550974532962">
        <ele>191.44</ele>
        <time>2023-08-26T08:36:55Z</time>
      </trkpt>
      <trkpt lat="57.40083203651011" lon="-5.650470005348325">
        <ele>190.47999999999999</ele>
        <time>2023-08-26T08:36:56Z</time>
      </trkpt>
      <trkpt lat="57.400732962414622" lon="-5.650362968444824">
        <ele>189.52000000000001</ele>
        <time>2023-08-26T08:36:57Z</time>
      </trkpt>
      <trkpt lat="57.400704966858029" lon="-5.650288034230471">
        <ele>189.03999999999999</ele>
        <time>2023-08-26T08:36:58Z</time>
      </trkpt>
      <trkpt lat="57.400668002665043" lon="-5.650190971791744">
        <ele>188.08000000000001</ele>
        <time>2023-08-26T08:36:59Z</time>
      </trkpt>
      <trkpt lat="57.400676971301436" lon="-5.650040013715625">
        <ele>187.11000000000001</ele>
        <time>2023-08-26T08:37:00Z</time>
      </trkpt>
      <trkpt lat="57.400685017928481" lon="-5.649911016225815">
        <ele>186.15000000000001</ele>
        <time>2023-08-26T08:37:01Z</time>
      </trkpt>
      <trkpt lat="57.400708990171552" lon="-5.64977003261447">
        <ele>185.66999999999999</ele>
        <time>2023-08-26T08:37:02Z</time>
      </trkpt>
      <trkpt lat="57.400752995163202" lon="-5.649637011811137">
        <ele>184.71000000000001</ele>
        <time>2023-08-26T08:37:03Z</time>
      </trkpt>
      <trkpt lat="57.400823989883065" lon="-5.649507008492947">
        <ele>183.75</ele>
        <time>2023-08-26T08:37:04Z</time>
      </trkpt>
      <trkpt lat="57.400906970724463" lon="-5.649401983246207">
        <ele>182.78999999999999</ele>
        <time>2023-08-26T08:37:05Z</time>
      </trkpt>
      <trkpt lat="57.400991963222623" lon="-5.649293018504977">
        <ele>182.31</ele>
        <time>2023-08-26T08:37:06Z</time>
      </trkpt>
      <trkpt lat="57.401099000126123" lon="-5.649255970492959">
        <ele>181.34999999999999</ele>
        <time>2023-08-26T08:37:07Z</time>
      </trkpt>
      <trkpt lat="57.401206959038973" lon="-5.649239039048553">
        <ele>180.38</ele>
        <time>2023-08-26T08:37:08Z</time>
      </trkpt>
      <trkpt lat="57.401320030912757" lon="-5.649222023785114">
        <ele>179.90000000000001</ele>
        <time>2023-08-26T08:37:09Z</time>
      </trkpt>
      <trkpt lat="57.401436958462" lon="-5.649204002693296">
        <ele>178.46000000000001</ele>
        <time>2023-08-26T08:37:10Z</time>
      </trkpt>
      <trkpt lat="57.402013968676329" lon="-5.649107024073601">
        <ele>175.09999999999999</ele>
        <time>2023-08-26T08:37:15Z</time>
      </trkpt>
      <trkpt lat="57.402110025286674" lon="-5.649033011868596">
        <ele>174.13999999999999</ele>
        <time>2023-08-26T08:37:16Z</time>
      </trkpt>
      <trkpt lat="57.402207003906369" lon="-5.648958999663591">
        <ele>173.66</ele>
        <time>2023-08-26T08:37:17Z</time>
      </trkpt>
      <trkpt lat="57.402309011667967" lon="-5.648838970810175">
        <ele>173.16999999999999</ele>
        <time>2023-08-26T08:37:18Z</time>
      </trkpt>
      <trkpt lat="57.402377994731069" lon="-5.648693041875958">
        <ele>172.21000000000001</ele>
        <time>2023-08-26T08:37:19Z</time>
      </trkpt>
      <trkpt lat="57.402452006936073" lon="-5.648538982495666">
        <ele>171.72999999999999</ele>
        <time>2023-08-26T08:37:20Z</time>
      </trkpt>
      <trkpt lat="57.402527024969459" lon="-5.648381989449263">
        <ele>170.77000000000001</ele>
        <time>2023-08-26T08:37:21Z</time>
      </trkpt>
      <trkpt lat="57.403407962992787" lon="-5.647085979580879">
        <ele>165</ele>
        <time>2023-08-26T08:37:31Z</time>
      </trkpt>
      <trkpt lat="57.404246991500258" lon="-5.646345019340515">
        <ele>160.19999999999999</ele>
        <time>2023-08-26T08:37:40Z</time>
      </trkpt>
      <trkpt lat="57.404332989826798" lon="-5.646225996315479">
        <ele>159.72</ele>
        <time>2023-08-26T08:37:41Z</time>
      </trkpt>
      <trkpt lat="57.404368026182055" lon="-5.646095992997289">
        <ele>159.24000000000001</ele>
        <time>2023-08-26T08:37:42Z</time>
      </trkpt>
      <trkpt lat="57.404381018131971" lon="-5.645925002172589">
        <ele>158.27000000000001</ele>
        <time>2023-08-26T08:37:43Z</time>
      </trkpt>
      <trkpt lat="57.404381018131971" lon="-5.645786030218005">
        <ele>157.78999999999999</ele>
        <time>2023-08-26T08:37:44Z</time>
      </trkpt>
      <trkpt lat="57.404381018131971" lon="-5.645431978628039">
        <ele>156.34999999999999</ele>
        <time>2023-08-26T08:37:47Z</time>
      </trkpt>
      <trkpt lat="57.404389986768365" lon="-5.645373975858092">
        <ele>155.87</ele>
        <time>2023-08-26T08:37:48Z</time>
      </trkpt>
      <trkpt lat="57.40440096706152" lon="-5.645315973088145">
        <ele>155.38999999999999</ele>
        <time>2023-08-26T08:37:49Z</time>
      </trkpt>
      <trkpt lat="57.404410019516945" lon="-5.645264005288482">
        <ele>154.91</ele>
        <time>2023-08-26T08:37:50Z</time>
      </trkpt>
      <trkpt lat="57.404417982324958" lon="-5.645223017781973">
        <ele>154.43000000000001</ele>
        <time>2023-08-26T08:37:51Z</time>
      </trkpt>
      <trkpt lat="57.404417982324958" lon="-5.645223017781973">
        <ele>153.94999999999999</ele>
        <time>2023-08-26T08:38:03Z</time>
      </trkpt>
      <trkpt lat="57.404417982324958" lon="-5.645223017781973">
        <ele>153.47</ele>
        <time>2023-08-26T08:38:54Z</time>
      </trkpt>
      <trkpt lat="57.404525019228458" lon="-5.645111035555601">
        <ele>152.99000000000001</ele>
        <time>2023-08-26T08:39:12Z</time>
      </trkpt>
      <trkpt lat="57.404600959271193" lon="-5.645050015300512">
        <ele>152.50999999999999</ele>
        <time>2023-08-26T08:39:13Z</time>
      </trkpt>
      <trkpt lat="57.405317025259137" lon="-5.64455003477633">
        <ele>151.06</ele>
        <time>2023-08-26T08:39:21Z</time>
      </trkpt>
      <trkpt lat="57.406374989077449" lon="-5.644275024533272">
        <ele>145.78</ele>
        <time>2023-08-26T08:39:32Z</time>
      </trkpt>
      <trkpt lat="57.406950993463397" lon="-5.644214004278183">
        <ele>141.93000000000001</ele>
        <time>2023-08-26T08:39:40Z</time>
      </trkpt>
      <trkpt lat="57.407777030020952" lon="-5.643977969884872">
        <ele>137.13</ele>
        <time>2023-08-26T08:39:50Z</time>
      </trkpt>
      <trkpt lat="57.407884988933802" lon="-5.64395098015666">
        <ele>136.63999999999999</ele>
        <time>2023-08-26T08:39:51Z</time>
      </trkpt>
      <trkpt lat="57.407977022230625" lon="-5.643999008461833">
        <ele>136.16</ele>
        <time>2023-08-26T08:39:52Z</time>
      </trkpt>
      <trkpt lat="57.408978994935751" lon="-5.644524972885847">
        <ele>131.84</ele>
        <time>2023-08-26T08:40:03Z</time>
      </trkpt>
      <trkpt lat="57.409050995483994" lon="-5.644563026726246">
        <ele>129.43000000000001</ele>
        <time>2023-08-26T08:40:11Z</time>
      </trkpt>
      <trkpt lat="57.409354001283646" lon="-5.64472203142941">
        <ele>126.06999999999999</ele>
        <time>2023-08-26T08:40:18Z</time>
      </trkpt>
      <trkpt lat="57.409518035128713" lon="-5.64480802975595">
        <ele>124.63</ele>
        <time>2023-08-26T08:40:20Z</time>
      </trkpt>
      <trkpt lat="57.409597998484969" lon="-5.644845999777317">
        <ele>124.15000000000001</ele>
        <time>2023-08-26T08:40:21Z</time>
      </trkpt>
      <trkpt lat="57.409662958234549" lon="-5.644803000614047">
        <ele>123.67</ele>
        <time>2023-08-26T08:40:22Z</time>
      </trkpt>
      <trkpt lat="57.409731019288301" lon="-5.644739968702197">
        <ele>123.19</ele>
        <time>2023-08-26T08:40:23Z</time>
      </trkpt>
      <trkpt lat="57.409762032330036" lon="-5.644648019224405">
        <ele>122.70999999999999</ele>
        <time>2023-08-26T08:40:24Z</time>
      </trkpt>
      <trkpt lat="57.409797990694642" lon="-5.644539976492524">
        <ele>122.22</ele>
        <time>2023-08-26T08:40:25Z</time>
      </trkpt>
      <trkpt lat="57.409778041765094" lon="-5.644347025081515">
        <ele>121.73999999999999</ele>
        <time>2023-08-26T08:40:26Z</time>
      </trkpt>
      <trkpt lat="57.409741999581456" lon="-5.64416597597301">
        <ele>121.73999999999999</ele>
        <time>2023-08-26T08:40:27Z</time>
      </trkpt>
      <trkpt lat="57.409695982933044" lon="-5.643932037055492">
        <ele>121.26000000000001</ele>
        <time>2023-08-26T08:40:28Z</time>
      </trkpt>
      <trkpt lat="57.409290969371796" lon="-5.642013000324369">
        <ele>114.53</ele>
        <time>2023-08-26T08:40:35Z</time>
      </trkpt>
      <trkpt lat="57.408652016893029" lon="-5.639133984223008">
        <ele>107.81</ele>
        <time>2023-08-26T08:40:48Z</time>
      </trkpt>
      <trkpt lat="57.408581022173166" lon="-5.638724025338888">
        <ele>107.31999999999999</ele>
        <time>2023-08-26T08:40:50Z</time>
      </trkpt>
      <trkpt lat="57.40857096388936" lon="-5.638528978452086">
        <ele>107.31999999999999</ele>
        <time>2023-08-26T08:40:51Z</time>
      </trkpt>
      <trkpt lat="57.408596025779843" lon="-5.638292022049427">
        <ele>106.84</ele>
        <time>2023-08-26T08:40:52Z</time>
      </trkpt>
      <trkpt lat="57.408641958609223" lon="-5.638120025396347">
        <ele>106.84</ele>
        <time>2023-08-26T08:40:53Z</time>
      </trkpt>
      <trkpt lat="57.408687975257635" lon="-5.637947022914887">
        <ele>106.84</ele>
        <time>2023-08-26T08:40:54Z</time>
      </trkpt>
      <trkpt lat="57.408730974420905" lon="-5.637781983241439">
        <ele>106.36</ele>
        <time>2023-08-26T08:40:55Z</time>
      </trkpt>
      <trkpt lat="57.4087830260396" lon="-5.637627001851797">
        <ele>106.36</ele>
        <time>2023-08-26T08:40:56Z</time>
      </trkpt>
      <trkpt lat="57.408846979960799" lon="-5.637489035725594">
        <ele>106.36</ele>
        <time>2023-08-26T08:40:57Z</time>
      </trkpt>
      <trkpt lat="57.409500014036894" lon="-5.635943999513984">
        <ele>104.92</ele>
        <time>2023-08-26T08:41:06Z</time>
      </trkpt>
      <trkpt lat="57.409629011526704" lon="-5.635577961802483">
        <ele>104.92</ele>
        <time>2023-08-26T08:41:08Z</time>
      </trkpt>
      <trkpt lat="57.409702017903328" lon="-5.635422980412841">
        <ele>104.44</ele>
        <time>2023-08-26T08:41:09Z</time>
      </trkpt>
      <trkpt lat="57.409780975431204" lon="-5.635294988751411">
        <ele>104.44</ele>
        <time>2023-08-26T08:41:10Z</time>
      </trkpt>
      <trkpt lat="57.409860016778111" lon="-5.63518401235342">
        <ele>104.44</ele>
        <time>2023-08-26T08:41:11Z</time>
      </trkpt>
      <trkpt lat="57.409952972084284" lon="-5.635091979056597">
        <ele>104.44</ele>
        <time>2023-08-26T08:41:12Z</time>
      </trkpt>
      <trkpt lat="57.410046011209488" lon="-5.634999023750424">
        <ele>104.44</ele>
        <time>2023-08-26T08:41:13Z</time>
      </trkpt>
      <trkpt lat="57.410422023385763" lon="-5.634622005745769">
        <ele>104.44</ele>
        <time>2023-08-26T08:41:17Z</time>
      </trkpt>
      <trkpt lat="57.410490000620484" lon="-5.634499965235591">
        <ele>103.95999999999999</ele>
        <time>2023-08-26T08:41:18Z</time>
      </trkpt>
      <trkpt lat="57.410540040582418" lon="-5.634374991059303">
        <ele>103.48</ele>
        <time>2023-08-26T08:41:19Z</time>
      </trkpt>
      <trkpt lat="57.410582033917308" lon="-5.634208023548126">
        <ele>103</ele>
        <time>2023-08-26T08:41:20Z</time>
      </trkpt>
      <trkpt lat="57.410582033917308" lon="-5.634016999974847">
        <ele>102.52</ele>
        <time>2023-08-26T08:41:21Z</time>
      </trkpt>
      <trkpt lat="57.410582033917308" lon="-5.633800998330116">
        <ele>102.04000000000001</ele>
        <time>2023-08-26T08:41:22Z</time>
      </trkpt>
      <trkpt lat="57.410528976470232" lon="-5.633574016392231">
        <ele>101.56</ele>
        <time>2023-08-26T08:41:23Z</time>
      </trkpt>
      <trkpt lat="57.410478014498949" lon="-5.633353991433978">
        <ele>100.59999999999999</ele>
        <time>2023-08-26T08:41:24Z</time>
      </trkpt>
      <trkpt lat="57.410424035042524" lon="-5.633124997839332">
        <ele>99.629999999999995</ele>
        <time>2023-08-26T08:41:25Z</time>
      </trkpt>
      <trkpt lat="57.410369971767068" lon="-5.632892986759543">
        <ele>98.189999999999998</ele>
        <time>2023-08-26T08:41:26Z</time>
      </trkpt>
      <trkpt lat="57.410283973440528" lon="-5.632675979286432">
        <ele>97.230000000000004</ele>
        <time>2023-08-26T08:41:27Z</time>
      </trkpt>
      <trkpt lat="57.41018196567893" lon="-5.632487973198295">
        <ele>95.790000000000006</ele>
        <time>2023-08-26T08:41:28Z</time>
      </trkpt>
      <trkpt lat="57.409168006852269" lon="-5.63082198612392">
        <ele>83.769999999999996</ele>
        <time>2023-08-26T08:41:38Z</time>
      </trkpt>
      <trkpt lat="57.408334007486701" lon="-5.630053030326963">
        <ele>77.519999999999996</ele>
        <time>2023-08-26T08:41:46Z</time>
      </trkpt>
      <trkpt lat="57.408242980018258" lon="-5.629935013130307">
        <ele>77.040000000000006</ele>
        <time>2023-08-26T08:41:47Z</time>
      </trkpt>
      <trkpt lat="57.408195035532117" lon="-5.629820013418794">
        <ele>76.079999999999998</ele>
        <time>2023-08-26T08:41:48Z</time>
      </trkpt>
      <trkpt lat="57.408133009448647" lon="-5.629667965695262">
        <ele>75.599999999999994</ele>
        <time>2023-08-26T08:41:49Z</time>
      </trkpt>
      <trkpt lat="57.408092021942139" lon="-5.629495969042182">
        <ele>74.640000000000001</ele>
        <time>2023-08-26T08:41:50Z</time>
      </trkpt>
      <trkpt lat="57.40800904110074" lon="-5.629153987392783">
        <ele>73.680000000000007</ele>
        <time>2023-08-26T08:41:52Z</time>
      </trkpt>
      <trkpt lat="57.407984985038638" lon="-5.628956006839871">
        <ele>73.200000000000003</ele>
        <time>2023-08-26T08:41:53Z</time>
      </trkpt>
      <trkpt lat="57.407984985038638" lon="-5.62875802628696">
        <ele>72.239999999999995</ele>
        <time>2023-08-26T08:41:54Z</time>
      </trkpt>
      <trkpt lat="57.407984985038638" lon="-5.628551999107003">
        <ele>71.269999999999996</ele>
        <time>2023-08-26T08:41:55Z</time>
      </trkpt>
      <trkpt lat="57.407992025837302" lon="-5.628339014947414">
        <ele>70.310000000000002</ele>
        <time>2023-08-26T08:41:56Z</time>
      </trkpt>
      <trkpt lat="57.408018009737134" lon="-5.628126030787826">
        <ele>69.349999999999994</ele>
        <time>2023-08-26T08:41:57Z</time>
      </trkpt>
      <trkpt lat="57.408181959763169" lon="-5.626819040626288">
        <ele>64.549999999999997</ele>
        <time>2023-08-26T08:42:03Z</time>
      </trkpt>
      <trkpt lat="57.408192018046975" lon="-5.626615025103092">
        <ele>63.579999999999998</ele>
        <time>2023-08-26T08:42:04Z</time>
      </trkpt>
      <trkpt lat="57.408167039975524" lon="-5.626443028450012">
        <ele>63.100000000000001</ele>
        <time>2023-08-26T08:42:05Z</time>
      </trkpt>
      <trkpt lat="57.408141978085041" lon="-5.626271031796932">
        <ele>62.140000000000001</ele>
        <time>2023-08-26T08:42:06Z</time>
      </trkpt>
      <trkpt lat="57.408091016113758" lon="-5.626108003780246">
        <ele>61.659999999999997</ele>
        <time>2023-08-26T08:42:07Z</time>
      </trkpt>
      <trkpt lat="57.408033013343811" lon="-5.625959979370236">
        <ele>60.700000000000003</ele>
        <time>2023-08-26T08:42:08Z</time>
      </trkpt>
      <trkpt lat="57.407975010573864" lon="-5.625812960788608">
        <ele>60.219999999999999</ele>
        <time>2023-08-26T08:42:09Z</time>
      </trkpt>
      <trkpt lat="57.407932011410594" lon="-5.625626966357231">
        <ele>59.740000000000002</ele>
        <time>2023-08-26T08:42:10Z</time>
      </trkpt>
      <trkpt lat="57.407941985875368" lon="-5.625430997461081">
        <ele>58.780000000000001</ele>
        <time>2023-08-26T08:42:11Z</time>
      </trkpt>
      <trkpt lat="57.407979033887386" lon="-5.625288002192974">
        <ele>58.299999999999997</ele>
        <time>2023-08-26T08:42:12Z</time>
      </trkpt>
      <trkpt lat="57.408018009737134" lon="-5.625135032460094">
        <ele>57.340000000000003</ele>
        <time>2023-08-26T08:42:13Z</time>
      </trkpt>
      <trkpt lat="57.408063020557165" lon="-5.624958006665111">
        <ele>56.859999999999999</ele>
        <time>2023-08-26T08:42:14Z</time>
      </trkpt>
      <trkpt lat="57.408111970871687" lon="-5.62476396560669">
        <ele>56.369999999999997</ele>
        <time>2023-08-26T08:42:15Z</time>
      </trkpt>
      <trkpt lat="57.408165028318763" lon="-5.624557016417384">
        <ele>55.890000000000001</ele>
        <time>2023-08-26T08:42:16Z</time>
      </trkpt>
      <trkpt lat="57.408219007775187" lon="-5.624344032257795">
        <ele>55.409999999999997</ele>
        <time>2023-08-26T08:42:17Z</time>
      </trkpt>
      <trkpt lat="57.408264018595219" lon="-5.624123001471162">
        <ele>54.93</ele>
        <time>2023-08-26T08:42:18Z</time>
      </trkpt>
      <trkpt lat="57.40828899666667" lon="-5.623885039240122">
        <ele>53.969999999999999</ele>
        <time>2023-08-26T08:42:19Z</time>
      </trkpt>
      <trkpt lat="57.408368038013577" lon="-5.620906027033925">
        <ele>43.880000000000003</ele>
        <time>2023-08-26T08:42:32Z</time>
      </trkpt>
      <trkpt lat="57.408384969457984" lon="-5.620711985975504">
        <ele>42.920000000000002</ele>
        <time>2023-08-26T08:42:33Z</time>
      </trkpt>
      <trkpt lat="57.408420005813241" lon="-5.620548035949469">
        <ele>42.439999999999998</ele>
        <time>2023-08-26T08:42:34Z</time>
      </trkpt>
      <trkpt lat="57.408469039946795" lon="-5.620395988225937">
        <ele>41.469999999999999</ele>
        <time>2023-08-26T08:42:35Z</time>
      </trkpt>
      <trkpt lat="57.40852796472609" lon="-5.620262967422605">
        <ele>40.990000000000002</ele>
        <time>2023-08-26T08:42:36Z</time>
      </trkpt>
      <trkpt lat="57.408578004688025" lon="-5.620146961882711">
        <ele>40.030000000000001</ele>
        <time>2023-08-26T08:42:37Z</time>
      </trkpt>
      <trkpt lat="57.408616980537772" lon="-5.620098011568189">
        <ele>39.549999999999997</ele>
        <time>2023-08-26T08:42:38Z</time>
      </trkpt>
      <trkpt lat="57.408672971650958" lon="-5.620043026283383">
        <ele>37.630000000000003</ele>
        <time>2023-08-26T08:42:47Z</time>
      </trkpt>
      <trkpt lat="57.409097012132406" lon="-5.619617979973555">
        <ele>33.780000000000001</ele>
        <time>2023-08-26T08:42:54Z</time>
      </trkpt>
      <trkpt lat="57.40987803786993" lon="-5.618342002853751">
        <ele>28.98</ele>
        <time>2023-08-26T08:43:03Z</time>
      </trkpt>
      <trkpt lat="57.410831982269883" lon="-5.616709040477872">
        <ele>22.73</ele>
        <time>2023-08-26T08:43:14Z</time>
      </trkpt>
      <trkpt lat="57.410925021395087" lon="-5.616562021896243">
        <ele>22.25</ele>
        <time>2023-08-26T08:43:15Z</time>
      </trkpt>
      <trkpt lat="57.411035997793078" lon="-5.616429001092911">
        <ele>21.77</ele>
        <time>2023-08-26T08:43:16Z</time>
      </trkpt>
      <trkpt lat="57.412689998745918" lon="-5.615341030061245">
        <ele>20.32</ele>
        <time>2023-08-26T08:43:28Z</time>
      </trkpt>
      <trkpt lat="57.414322961121798" lon="-5.614480040967464">
        <ele>19.84</ele>
        <time>2023-08-26T08:43:39Z</time>
      </trkpt>
      <trkpt lat="57.415645038709044" lon="-5.613469015806913">
        <ele>20.809999999999999</ele>
        <time>2023-08-26T08:43:48Z</time>
      </trkpt>
      <trkpt lat="57.416899977251887" lon="-5.611790958791971">
        <ele>20.809999999999999</ele>
        <time>2023-08-26T08:43:58Z</time>
      </trkpt>
      <trkpt lat="57.41731102578342" lon="-5.611357027664781">
        <ele>20.32</ele>
        <time>2023-08-26T08:44:01Z</time>
      </trkpt>
      <trkpt lat="57.417461983859539" lon="-5.611255019903183">
        <ele>19.84</ele>
        <time>2023-08-26T08:44:02Z</time>
      </trkpt>
      <trkpt lat="57.418038994073868" lon="-5.610867021605372">
        <ele>18.399999999999999</ele>
        <time>2023-08-26T08:44:06Z</time>
      </trkpt>
      <trkpt lat="57.418184000998735" lon="-5.610758978873491">
        <ele>17.920000000000002</ele>
        <time>2023-08-26T08:44:07Z</time>
      </trkpt>
      <trkpt lat="57.41827997379005" lon="-5.610542977228761">
        <ele>17.440000000000001</ele>
        <time>2023-08-26T08:44:08Z</time>
      </trkpt>
      <trkpt lat="57.419070973992348" lon="-5.60920799151063">
        <ele>13.119999999999999</ele>
        <time>2023-08-26T08:44:16Z</time>
      </trkpt>
      <trkpt lat="57.419225033372641" lon="-5.609007999300957">
        <ele>12.15</ele>
        <time>2023-08-26T08:44:18Z</time>
      </trkpt>
      <trkpt lat="57.419337015599012" lon="-5.60886399820447">
        <ele>11.67</ele>
        <time>2023-08-26T08:44:19Z</time>
      </trkpt>
      <trkpt lat="57.419349001720548" lon="-5.608809012919664">
        <ele>11.19</ele>
        <time>2023-08-26T08:44:20Z</time>
      </trkpt>
      <trkpt lat="57.419369034469128" lon="-5.608594017103314">
        <ele>10.710000000000001</ele>
        <time>2023-08-26T08:44:21Z</time>
      </trkpt>
      <trkpt lat="57.419345984235406" lon="-5.608419002965093">
        <ele>10.23</ele>
        <time>2023-08-26T08:44:22Z</time>
      </trkpt>
      <trkpt lat="57.419316982850432" lon="-5.608209036290646">
        <ele>9.75</ele>
        <time>2023-08-26T08:44:23Z</time>
      </trkpt>
      <trkpt lat="57.418933007866144" lon="-5.60581399127841">
        <ele>6.87</ele>
        <time>2023-08-26T08:44:32Z</time>
      </trkpt>
      <trkpt lat="57.418474014848471" lon="-5.603118035942316">
        <ele>7.83</ele>
        <time>2023-08-26T08:44:43Z</time>
      </trkpt>
      <trkpt lat="57.418395979329944" lon="-5.602659964933991">
        <ele>9.75</ele>
        <time>2023-08-26T08:44:48Z</time>
      </trkpt>
      <trkpt lat="57.41838600486517" lon="-5.602601962164044">
        <ele>9.75</ele>
        <time>2023-08-26T08:44:49Z</time>
      </trkpt>
      <trkpt lat="57.418376030400395" lon="-5.602541025727987">
        <ele>10.23</ele>
        <time>2023-08-26T08:44:50Z</time>
      </trkpt>
      <trkpt lat="57.418291959911585" lon="-5.602517975494266">
        <ele>10.710000000000001</ele>
        <time>2023-08-26T08:44:51Z</time>
      </trkpt>
      <trkpt lat="57.41823404096067" lon="-5.602520992979407">
        <ele>10.710000000000001</ele>
        <time>2023-08-26T08:44:52Z</time>
      </trkpt>
      <trkpt lat="57.418159022927284" lon="-5.60252602212131">
        <ele>11.19</ele>
        <time>2023-08-26T08:44:53Z</time>
      </trkpt>
      <trkpt lat="57.418067995458841" lon="-5.602532979100943">
        <ele>11.19</ele>
        <time>2023-08-26T08:44:54Z</time>
      </trkpt>
      <trkpt lat="57.417092006653547" lon="-5.602598022669554">
        <ele>12.630000000000001</ele>
        <time>2023-08-26T08:45:01Z</time>
      </trkpt>
      <trkpt lat="57.415847964584827" lon="-5.603092974051833">
        <ele>11.19</ele>
        <time>2023-08-26T08:45:08Z</time>
      </trkpt>
      <trkpt lat="57.414022972807288" lon="-5.604748986661434">
        <ele>5.42</ele>
        <time>2023-08-26T08:45:19Z</time>
      </trkpt>
      <trkpt lat="57.412236034870148" lon="-5.605956986546516">
        <ele>5.42</ele>
        <time>2023-08-26T08:45:29Z</time>
      </trkpt>
      <trkpt lat="57.41075998172164" lon="-5.607076976448298">
        <ele>6.39</ele>
        <time>2023-08-26T08:45:37Z</time>
      </trkpt>
      <trkpt lat="57.409085026010871" lon="-5.608554035425186">
        <ele>4.94</ele>
        <time>2023-08-26T08:45:46Z</time>
      </trkpt>
      <trkpt lat="57.407390959560871" lon="-5.609829006716609">
        <ele>4.94</ele>
        <time>2023-08-26T08:45:55Z</time>
      </trkpt>
      <trkpt lat="57.406383035704494" lon="-5.61062796972692">
        <ele>7.83</ele>
        <time>2023-08-26T08:46:01Z</time>
      </trkpt>
      <trkpt lat="57.406211039051414" lon="-5.610660994425416">
        <ele>8.310000000000001</ele>
        <time>2023-08-26T08:46:02Z</time>
      </trkpt>
      <trkpt lat="57.406036024913192" lon="-5.610680021345615">
        <ele>8.789999999999999</ele>
        <time>2023-08-26T08:46:03Z</time>
      </trkpt>
      <trkpt lat="57.404882004484534" lon="-5.610630987212062">
        <ele>14.08</ele>
        <time>2023-08-26T08:46:10Z</time>
      </trkpt>
      <trkpt lat="57.403459008783102" lon="-5.610092030838132">
        <ele>16.48</ele>
        <time>2023-08-26T08:46:20Z</time>
      </trkpt>
      <trkpt lat="57.40330402739346" lon="-5.610033022239804">
        <ele>16.48</ele>
        <time>2023-08-26T08:46:21Z</time>
      </trkpt>
      <trkpt lat="57.403146028518677" lon="-5.609970996156335">
        <ele>16</ele>
        <time>2023-08-26T08:46:22Z</time>
      </trkpt>
      <trkpt lat="57.40195102058351" lon="-5.609365990385413">
        <ele>14.56</ele>
        <time>2023-08-26T08:46:30Z</time>
      </trkpt>
      <trkpt lat="57.400650987401605" lon="-5.608430989086628">
        <ele>16</ele>
        <time>2023-08-26T08:46:39Z</time>
      </trkpt>
      <trkpt lat="57.399379033595324" lon="-5.606638016179204">
        <ele>15.52</ele>
        <time>2023-08-26T08:46:49Z</time>
      </trkpt>
      <trkpt lat="57.399263028055429" lon="-5.606429977342486">
        <ele>15.52</ele>
        <time>2023-08-26T08:46:50Z</time>
      </trkpt>
      <trkpt lat="57.399153979495168" lon="-5.606236020103097">
        <ele>15.039999999999999</ele>
        <time>2023-08-26T08:46:51Z</time>
      </trkpt>
      <trkpt lat="57.398932026699185" lon="-5.605673007667065">
        <ele>13.6</ele>
        <time>2023-08-26T08:46:54Z</time>
      </trkpt>
      <trkpt lat="57.398903025314212" lon="-5.605453988537192">
        <ele>13.119999999999999</ele>
        <time>2023-08-26T08:46:55Z</time>
      </trkpt>
      <trkpt lat="57.398875029757619" lon="-5.605245027691126">
        <ele>13.119999999999999</ele>
        <time>2023-08-26T08:46:56Z</time>
      </trkpt>
      <trkpt lat="57.39885600283742" lon="-5.605026008561254">
        <ele>13.119999999999999</ele>
        <time>2023-08-26T08:46:57Z</time>
      </trkpt>
      <trkpt lat="57.398839993402362" lon="-5.604799026623368">
        <ele>13.119999999999999</ele>
        <time>2023-08-26T08:46:58Z</time>
      </trkpt>
      <trkpt lat="57.398822978138924" lon="-5.60456701554358">
        <ele>13.119999999999999</ele>
        <time>2023-08-26T08:46:59Z</time>
      </trkpt>
      <trkpt lat="57.398791965097189" lon="-5.60411598533392">
        <ele>13.6</ele>
        <time>2023-08-26T08:47:01Z</time>
      </trkpt>
      <trkpt lat="57.398850973695517" lon="-5.601896038278937">
        <ele>16</ele>
        <time>2023-08-26T08:47:10Z</time>
      </trkpt>
      <trkpt lat="57.398907970637083" lon="-5.600533979013562">
        <ele>16.48</ele>
        <time>2023-08-26T08:47:15Z</time>
      </trkpt>
      <trkpt lat="57.399087008088827" lon="-5.597695028409362">
        <ele>18.399999999999999</ele>
        <time>2023-08-26T08:47:26Z</time>
      </trkpt>
      <trkpt lat="57.399342991411686" lon="-5.593657968565822">
        <ele>22.73</ele>
        <time>2023-08-26T08:47:40Z</time>
      </trkpt>
      <trkpt lat="57.399670975282788" lon="-5.590577032417059">
        <ele>24.649999999999999</ele>
        <time>2023-08-26T08:47:50Z</time>
      </trkpt>
      <trkpt lat="57.399740964174271" lon="-5.590291963890195">
        <ele>24.170000000000002</ele>
        <time>2023-08-26T08:47:51Z</time>
      </trkpt>
      <trkpt lat="57.399826040491462" lon="-5.590002033859491">
        <ele>24.170000000000002</ele>
        <time>2023-08-26T08:47:52Z</time>
      </trkpt>
      <trkpt lat="57.400590972974896" lon="-5.587624004110694">
        <ele>22.25</ele>
        <time>2023-08-26T08:48:00Z</time>
      </trkpt>
      <trkpt lat="57.401638040319085" lon="-5.585156958550215">
        <ele>24.170000000000002</ele>
        <time>2023-08-26T08:48:10Z</time>
      </trkpt>
      <trkpt lat="57.402224019169807" lon="-5.583321992307901">
        <ele>25.609999999999999</ele>
        <time>2023-08-26T08:48:17Z</time>
      </trkpt>
      <trkpt lat="57.402599025517702" lon="-5.581932021304965">
        <ele>28.5</ele>
        <time>2023-08-26T08:48:25Z</time>
      </trkpt>
      <trkpt lat="57.402628026902676" lon="-5.581716019660235">
        <ele>28.98</ele>
        <time>2023-08-26T08:48:26Z</time>
      </trkpt>
      <trkpt lat="57.40263900719583" lon="-5.581499012187123">
        <ele>28.98</ele>
        <time>2023-08-26T08:48:27Z</time>
      </trkpt>
      <trkpt lat="57.402624003589153" lon="-5.581272030249238">
        <ele>29.460000000000001</ele>
        <time>2023-08-26T08:48:28Z</time>
      </trkpt>
      <trkpt lat="57.402599025517702" lon="-5.581049993634224">
        <ele>29.940000000000001</ele>
        <time>2023-08-26T08:48:29Z</time>
      </trkpt>
      <trkpt lat="57.402520989999175" lon="-5.579001037403941">
        <ele>31.859999999999999</ele>
        <time>2023-08-26T08:48:37Z</time>
      </trkpt>
      <trkpt lat="57.403004039078951" lon="-5.575807029381394">
        <ele>33.780000000000001</ele>
        <time>2023-08-26T08:48:49Z</time>
      </trkpt>
      <trkpt lat="57.403781963512301" lon="-5.573163041844964">
        <ele>36.670000000000002</ele>
        <time>2023-08-26T08:48:59Z</time>
      </trkpt>
      <trkpt lat="57.404217990115285" lon="-5.570502961054444">
        <ele>38.590000000000003</ele>
        <time>2023-08-26T08:49:08Z</time>
      </trkpt>
      <trkpt lat="57.404793994501233" lon="-5.567459994927049">
        <ele>43.399999999999999</ele>
        <time>2023-08-26T08:49:19Z</time>
      </trkpt>
      <trkpt lat="57.404819978401065" lon="-5.567185990512371">
        <ele>43.880000000000003</ele>
        <time>2023-08-26T08:49:20Z</time>
      </trkpt>
      <trkpt lat="57.40482903085649" lon="-5.566918021067977">
        <ele>44.359999999999999</ele>
        <time>2023-08-26T08:49:21Z</time>
      </trkpt>
      <trkpt lat="57.404818972572684" lon="-5.566659020259976">
        <ele>44.840000000000003</ele>
        <time>2023-08-26T08:49:22Z</time>
      </trkpt>
      <trkpt lat="57.404805980622768" lon="-5.566378980875015">
        <ele>44.840000000000003</ele>
        <time>2023-08-26T08:49:23Z</time>
      </trkpt>
      <trkpt lat="57.404758958145976" lon="-5.56612903252244">
        <ele>45.799999999999997</ele>
        <time>2023-08-26T08:49:24Z</time>
      </trkpt>
      <trkpt lat="57.404710007831454" lon="-5.565872965380549">
        <ele>46.280000000000001</ele>
        <time>2023-08-26T08:49:25Z</time>
      </trkpt>
      <trkpt lat="57.404523007571697" lon="-5.563585963100195">
        <ele>50.609999999999999</ele>
        <time>2023-08-26T08:49:33Z</time>
      </trkpt>
      <trkpt lat="57.404778990894556" lon="-5.560792023316026">
        <ele>56.859999999999999</ele>
        <time>2023-08-26T08:49:42Z</time>
      </trkpt>
      <trkpt lat="57.404960040003061" lon="-5.559965986758471">
        <ele>58.299999999999997</ele>
        <time>2023-08-26T08:49:45Z</time>
      </trkpt>
      <trkpt lat="57.405218034982681" lon="-5.559208011254668">
        <ele>59.259999999999998</ele>
        <time>2023-08-26T08:49:48Z</time>
      </trkpt>
      <trkpt lat="57.405276037752628" lon="-5.558931995183229">
        <ele>59.740000000000002</ele>
        <time>2023-08-26T08:49:49Z</time>
      </trkpt>
      <trkpt lat="57.40532398223877" lon="-5.558650027960539">
        <ele>60.219999999999999</ele>
        <time>2023-08-26T08:49:50Z</time>
      </trkpt>
      <trkpt lat="57.40536798723042" lon="-5.558367976918817">
        <ele>61.18</ele>
        <time>2023-08-26T08:49:51Z</time>
      </trkpt>
      <trkpt lat="57.405376033857465" lon="-5.558067988604307">
        <ele>61.659999999999997</ele>
        <time>2023-08-26T08:49:52Z</time>
      </trkpt>
      <trkpt lat="57.405383996665478" lon="-5.557758025825024">
        <ele>61.659999999999997</ele>
        <time>2023-08-26T08:49:53Z</time>
      </trkpt>
      <trkpt lat="57.40549597889185" lon="-5.55474397726357">
        <ele>63.579999999999998</ele>
        <time>2023-08-26T08:50:02Z</time>
      </trkpt>
      <trkpt lat="57.4058180116117" lon="-5.5522729922086">
        <ele>66.469999999999999</ele>
        <time>2023-08-26T08:50:10Z</time>
      </trkpt>
      <trkpt lat="57.406042981892824" lon="-5.55083298124373">
        <ele>69.349999999999994</ele>
        <time>2023-08-26T08:50:15Z</time>
      </trkpt>
      <trkpt lat="57.406053962185979" lon="-5.550628965720534">
        <ele>69.829999999999998</ele>
        <time>2023-08-26T08:50:16Z</time>
      </trkpt>
      <trkpt lat="57.406053962185979" lon="-5.550435008481145">
        <ele>70.310000000000002</ele>
        <time>2023-08-26T08:50:17Z</time>
      </trkpt>
      <trkpt lat="57.406034013256431" lon="-5.550296036526561">
        <ele>71.269999999999996</ele>
        <time>2023-08-26T08:50:18Z</time>
      </trkpt>
      <trkpt lat="57.406010963022709" lon="-5.550132002681494">
        <ele>71.760000000000005</ele>
        <time>2023-08-26T08:50:19Z</time>
      </trkpt>
      <trkpt lat="57.405985984951258" lon="-5.549956988543272">
        <ele>71.760000000000005</ele>
        <time>2023-08-26T08:50:20Z</time>
      </trkpt>
      <trkpt lat="57.405972993001342" lon="-5.54975900799036">
        <ele>72.239999999999995</ele>
        <time>2023-08-26T08:50:21Z</time>
      </trkpt>
      <trkpt lat="57.405987996608019" lon="-5.549542000517249">
        <ele>72.719999999999999</ele>
        <time>2023-08-26T08:50:22Z</time>
      </trkpt>
      <trkpt lat="57.406003000214696" lon="-5.5493079777807">
        <ele>73.200000000000003</ele>
        <time>2023-08-26T08:50:23Z</time>
      </trkpt>
      <trkpt lat="57.406010963022709" lon="-5.549076972529292">
        <ele>73.200000000000003</ele>
        <time>2023-08-26T08:50:24Z</time>
      </trkpt>
      <trkpt lat="57.406010963022709" lon="-5.548868011683226">
        <ele>73.680000000000007</ele>
        <time>2023-08-26T08:50:25Z</time>
      </trkpt>
      <trkpt lat="57.405966036021709" lon="-5.548645975068212">
        <ele>74.159999999999997</ele>
        <time>2023-08-26T08:50:26Z</time>
      </trkpt>
      <trkpt lat="57.405821029096842" lon="-5.54793200455606">
        <ele>74.640000000000001</ele>
        <time>2023-08-26T08:50:29Z</time>
      </trkpt>
      <trkpt lat="57.405773000791669" lon="-5.547678032889962">
        <ele>74.640000000000001</ele>
        <time>2023-08-26T08:50:30Z</time>
      </trkpt>
      <trkpt lat="57.40573201328516" lon="-5.546907987445593">
        <ele>75.599999999999994</ele>
        <time>2023-08-26T08:50:33Z</time>
      </trkpt>
      <trkpt lat="57.405751962214708" lon="-5.546658961102366">
        <ele>75.599999999999994</ele>
        <time>2023-08-26T08:50:34Z</time>
      </trkpt>
      <trkpt lat="57.405803008005023" lon="-5.546442037448287">
        <ele>76.079999999999998</ele>
        <time>2023-08-26T08:50:35Z</time>
      </trkpt>
      <trkpt lat="57.405853969976306" lon="-5.546227041631937">
        <ele>76.560000000000002</ele>
        <time>2023-08-26T08:50:36Z</time>
      </trkpt>
      <trkpt lat="57.405901998281479" lon="-5.546021014451981">
        <ele>77.519999999999996</ele>
        <time>2023-08-26T08:50:37Z</time>
      </trkpt>
      <trkpt lat="57.40599000826478" lon="-5.545648019760847">
        <ele>78.480000000000004</ele>
        <time>2023-08-26T08:50:39Z</time>
      </trkpt>
      <trkpt lat="57.40599000826478" lon="-5.545436963438988">
        <ele>78.969999999999999</ele>
        <time>2023-08-26T08:50:40Z</time>
      </trkpt>
      <trkpt lat="57.405981039628386" lon="-5.545228002592921">
        <ele>79.450000000000003</ele>
        <time>2023-08-26T08:50:41Z</time>
      </trkpt>
      <trkpt lat="57.405954971909523" lon="-5.545002026483417">
        <ele>80.409999999999997</ele>
        <time>2023-08-26T08:50:42Z</time>
      </trkpt>
      <trkpt lat="57.40592697635293" lon="-5.544763980433345">
        <ele>80.890000000000001</ele>
        <time>2023-08-26T08:50:43Z</time>
      </trkpt>
      <trkpt lat="57.405898980796337" lon="-5.54451503790915">
        <ele>81.370000000000005</ele>
        <time>2023-08-26T08:50:44Z</time>
      </trkpt>
      <trkpt lat="57.405869979411364" lon="-5.544265005737543">
        <ele>82.329999999999998</ele>
        <time>2023-08-26T08:50:45Z</time>
      </trkpt>
      <trkpt lat="57.405880959704518" lon="-5.544002987444401">
        <ele>82.810000000000002</ele>
        <time>2023-08-26T08:50:46Z</time>
      </trkpt>
      <trkpt lat="57.405909039080143" lon="-5.543739963322878">
        <ele>83.769999999999996</ele>
        <time>2023-08-26T08:50:47Z</time>
      </trkpt>
      <trkpt lat="57.405937034636736" lon="-5.543471993878484">
        <ele>84.730000000000004</ele>
        <time>2023-08-26T08:50:48Z</time>
      </trkpt>
      <trkpt lat="57.405995037406683" lon="-5.542932031676173">
        <ele>87.140000000000001</ele>
        <time>2023-08-26T08:50:50Z</time>
      </trkpt>
      <trkpt lat="57.406009035184979" lon="-5.542655009776354">
        <ele>88.099999999999994</ele>
        <time>2023-08-26T08:50:51Z</time>
      </trkpt>
      <trkpt lat="57.406005011871457" lon="-5.54236801341176">
        <ele>89.060000000000002</ele>
        <time>2023-08-26T08:50:52Z</time>
      </trkpt>
      <trkpt lat="57.405938962474465" lon="-5.539876995608211">
        <ele>96.269999999999996</ele>
        <time>2023-08-26T08:51:00Z</time>
      </trkpt>
      <trkpt lat="57.405892023816705" lon="-5.539572983980179">
        <ele>97.230000000000004</ele>
        <time>2023-08-26T08:51:01Z</time>
      </trkpt>
      <trkpt lat="57.405846007168293" lon="-5.539272995665669">
        <ele>98.189999999999998</ele>
        <time>2023-08-26T08:51:02Z</time>
      </trkpt>
      <trkpt lat="57.405800996348262" lon="-5.538979964330792">
        <ele>99.629999999999995</ele>
        <time>2023-08-26T08:51:03Z</time>
      </trkpt>
      <trkpt lat="57.405791021883488" lon="-5.538679976016283">
        <ele>100.59999999999999</ele>
        <time>2023-08-26T08:51:04Z</time>
      </trkpt>
      <trkpt lat="57.405784986913204" lon="-5.538386022672057">
        <ele>102.04000000000001</ele>
        <time>2023-08-26T08:51:05Z</time>
      </trkpt>
      <trkpt lat="57.405823040753603" lon="-5.537474993616343">
        <ele>104.92</ele>
        <time>2023-08-26T08:51:08Z</time>
      </trkpt>
      <trkpt lat="57.405856987461448" lon="-5.537178022786975">
        <ele>105.88</ele>
        <time>2023-08-26T08:51:09Z</time>
      </trkpt>
      <trkpt lat="57.405899986624718" lon="-5.536879962310195">
        <ele>106.84</ele>
        <time>2023-08-26T08:51:10Z</time>
      </trkpt>
      <trkpt lat="57.406148007139564" lon="-5.535740023478866">
        <ele>111.17</ele>
        <time>2023-08-26T08:51:14Z</time>
      </trkpt>
      <trkpt lat="57.406203998252749" lon="-5.535479011014104">
        <ele>112.61</ele>
        <time>2023-08-26T08:51:15Z</time>
      </trkpt>
      <trkpt lat="57.406225958839059" lon="-5.535154966637492">
        <ele>113.56999999999999</ele>
        <time>2023-08-26T08:51:16Z</time>
      </trkpt>
      <trkpt lat="57.406309023499489" lon="-5.533904973417521">
        <ele>117.90000000000001</ele>
        <time>2023-08-26T08:51:20Z</time>
      </trkpt>
      <trkpt lat="57.406292008236051" lon="-5.533572966232896">
        <ele>118.86</ele>
        <time>2023-08-26T08:51:21Z</time>
      </trkpt>
      <trkpt lat="57.406153036281466" lon="-5.530434027314186">
        <ele>127.98999999999999</ele>
        <time>2023-08-26T08:51:30Z</time>
      </trkpt>
      <trkpt lat="57.406124034896493" lon="-5.529000973328948">
        <ele>132.31999999999999</ele>
        <time>2023-08-26T08:51:34Z</time>
      </trkpt>
      <trkpt lat="57.406099978834391" lon="-5.528649017214775">
        <ele>133.28</ele>
        <time>2023-08-26T08:51:35Z</time>
      </trkpt>
      <trkpt lat="57.406039964407682" lon="-5.528314998373389">
        <ele>134.24000000000001</ele>
        <time>2023-08-26T08:51:36Z</time>
      </trkpt>
      <trkpt lat="57.405718015506864" lon="-5.526381963863969">
        <ele>140.00999999999999</ele>
        <time>2023-08-26T08:51:43Z</time>
      </trkpt>
      <trkpt lat="57.405239995568991" lon="-5.524525959044695">
        <ele>143.37</ele>
        <time>2023-08-26T08:51:50Z</time>
      </trkpt>
      <trkpt lat="57.404899019747972" lon="-5.523315025493503">
        <ele>144.34</ele>
        <time>2023-08-26T08:51:55Z</time>
      </trkpt>
      <trkpt lat="57.404859038069844" lon="-5.523083014413714">
        <ele>144.81999999999999</ele>
        <time>2023-08-26T08:51:56Z</time>
      </trkpt>
      <trkpt lat="57.404628032818437" lon="-5.520288990810514">
        <ele>140.97</ele>
        <time>2023-08-26T08:52:06Z</time>
      </trkpt>
      <trkpt lat="57.404418988153338" lon="-5.517231021076441">
        <ele>130.88</ele>
        <time>2023-08-26T08:52:17Z</time>
      </trkpt>
      <trkpt lat="57.404331983998418" lon="-5.51542698405683">
        <ele>123.19</ele>
        <time>2023-08-26T08:52:23Z</time>
      </trkpt>
      <trkpt lat="57.404274987056851" lon="-5.515166977420449">
        <ele>121.73999999999999</ele>
        <time>2023-08-26T08:52:24Z</time>
      </trkpt>
      <trkpt lat="57.40420700982213" lon="-5.514938989654183">
        <ele>120.3</ele>
        <time>2023-08-26T08:52:25Z</time>
      </trkpt>
      <trkpt lat="57.404091004282236" lon="-5.514510003849864">
        <ele>117.90000000000001</ele>
        <time>2023-08-26T08:52:27Z</time>
      </trkpt>
      <trkpt lat="57.40405797958374" lon="-5.514289978891611">
        <ele>116.94</ele>
        <time>2023-08-26T08:52:28Z</time>
      </trkpt>
      <trkpt lat="57.404044987633824" lon="-5.514052016660571">
        <ele>115.98</ele>
        <time>2023-08-26T08:52:29Z</time>
      </trkpt>
      <trkpt lat="57.404064014554024" lon="-5.513807013630867">
        <ele>115.01000000000001</ele>
        <time>2023-08-26T08:52:30Z</time>
      </trkpt>
      <trkpt lat="57.404084969311953" lon="-5.513552958145738">
        <ele>114.05</ele>
        <time>2023-08-26T08:52:31Z</time>
      </trkpt>
      <trkpt lat="57.404113970696926" lon="-5.513291023671627">
        <ele>113.56999999999999</ele>
        <time>2023-08-26T08:52:32Z</time>
      </trkpt>
      <trkpt lat="57.404144983738661" lon="-5.513022970408201">
        <ele>112.61</ele>
        <time>2023-08-26T08:52:33Z</time>
      </trkpt>
      <trkpt lat="57.404233999550343" lon="-5.51224303431809">
        <ele>110.69</ele>
        <time>2023-08-26T08:52:36Z</time>
      </trkpt>
      <trkpt lat="57.404244979843497" lon="-5.511999037116766">
        <ele>109.25</ele>
        <time>2023-08-26T08:52:37Z</time>
      </trkpt>
      <trkpt lat="57.40422603674233" lon="-5.511740036308765">
        <ele>108.29000000000001</ele>
        <time>2023-08-26T08:52:38Z</time>
      </trkpt>
      <trkpt lat="57.40410097874701" lon="-5.510682994499803">
        <ele>103</ele>
        <time>2023-08-26T08:52:42Z</time>
      </trkpt>
      <trkpt lat="57.404030989855528" lon="-5.510435979813337">
        <ele>101.56</ele>
        <time>2023-08-26T08:52:43Z</time>
      </trkpt>
      <trkpt lat="57.403672998771071" lon="-5.509534003213048">
        <ele>96.269999999999996</ele>
        <time>2023-08-26T08:52:47Z</time>
      </trkpt>
      <trkpt lat="57.403580965474248" lon="-5.50938899628818">
        <ele>94.829999999999998</ele>
        <time>2023-08-26T08:52:48Z</time>
      </trkpt>
      <trkpt lat="57.403495972976089" lon="-5.509320013225079">
        <ele>93.870000000000005</ele>
        <time>2023-08-26T08:52:49Z</time>
      </trkpt>
      <trkpt lat="57.40339295938611" lon="-5.5092360265553">
        <ele>92.900000000000006</ele>
        <time>2023-08-26T08:52:50Z</time>
      </trkpt>
      <trkpt lat="57.403334034606814" lon="-5.509225968271494">
        <ele>91.939999999999998</ele>
        <time>2023-08-26T08:52:51Z</time>
      </trkpt>
      <trkpt lat="57.403225991874933" lon="-5.509207025170326">
        <ele>90.5</ele>
        <time>2023-08-26T08:52:52Z</time>
      </trkpt>
      <trkpt lat="57.402898008003831" lon="-5.5091099627316">
        <ele>87.140000000000001</ele>
        <time>2023-08-26T08:52:55Z</time>
      </trkpt>
      <trkpt lat="57.402807986363769" lon="-5.50906696356833">
        <ele>86.180000000000007</ele>
        <time>2023-08-26T08:52:56Z</time>
      </trkpt>
      <trkpt lat="57.402721988037229" lon="-5.509026981890202">
        <ele>85.209999999999994</ele>
        <time>2023-08-26T08:52:57Z</time>
      </trkpt>
      <trkpt lat="57.402641018852592" lon="-5.508988006040454">
        <ele>84.25</ele>
        <time>2023-08-26T08:52:58Z</time>
      </trkpt>
      <trkpt lat="57.4025749694556" lon="-5.508902007713914">
        <ele>83.290000000000006</ele>
        <time>2023-08-26T08:52:59Z</time>
      </trkpt>
      <trkpt lat="57.402515038847923" lon="-5.508801005780697">
        <ele>82.329999999999998</ele>
        <time>2023-08-26T08:53:00Z</time>
      </trkpt>
      <trkpt lat="57.402449995279312" lon="-5.508692963048816">
        <ele>81.370000000000005</ele>
        <time>2023-08-26T08:53:01Z</time>
      </trkpt>
      <trkpt lat="57.401784975081682" lon="-5.507909003645182">
        <ele>77.040000000000006</ele>
        <time>2023-08-26T08:53:08Z</time>
      </trkpt>
      <trkpt lat="57.401560004800558" lon="-5.507766008377075">
        <ele>75.599999999999994</ele>
        <time>2023-08-26T08:53:10Z</time>
      </trkpt>
      <trkpt lat="57.401447016745806" lon="-5.507693002000451">
        <ele>74.640000000000001</ele>
        <time>2023-08-26T08:53:11Z</time>
      </trkpt>
      <trkpt lat="57.400298025459051" lon="-5.507487980648875">
        <ele>66.950000000000003</ele>
        <time>2023-08-26T08:53:20Z</time>
      </trkpt>
      <trkpt lat="57.400185037404299" lon="-5.50749602727592">
        <ele>66.469999999999999</ele>
        <time>2023-08-26T08:53:21Z</time>
      </trkpt>
      <trkpt lat="57.399100000038743" lon="-5.508297001942992">
        <ele>58.299999999999997</ele>
        <time>2023-08-26T08:53:31Z</time>
      </trkpt>
      <trkpt lat="57.398471022024751" lon="-5.50870100967586">
        <ele>54.450000000000003</ele>
        <time>2023-08-26T08:53:36Z</time>
      </trkpt>
      <trkpt lat="57.398325009271502" lon="-5.508741997182369">
        <ele>53.490000000000002</ele>
        <time>2023-08-26T08:53:37Z</time>
      </trkpt>
      <trkpt lat="57.398178996518254" lon="-5.508732022717595">
        <ele>52.530000000000001</ele>
        <time>2023-08-26T08:53:38Z</time>
      </trkpt>
      <trkpt lat="57.398028960451484" lon="-5.508720958605409">
        <ele>51.090000000000003</ele>
        <time>2023-08-26T08:53:39Z</time>
      </trkpt>
      <trkpt lat="57.397880014032125" lon="-5.508625991642475">
        <ele>50.130000000000003</ele>
        <time>2023-08-26T08:53:40Z</time>
      </trkpt>
      <trkpt lat="57.397737018764019" lon="-5.508534964174032">
        <ele>48.68</ele>
        <time>2023-08-26T08:53:41Z</time>
      </trkpt>
      <trkpt lat="57.397592011839151" lon="-5.50844301469624">
        <ele>47.240000000000002</ele>
        <time>2023-08-26T08:53:42Z</time>
      </trkpt>
      <trkpt lat="57.397458991035819" lon="-5.508287027478218">
        <ele>45.799999999999997</ele>
        <time>2023-08-26T08:53:43Z</time>
      </trkpt>
      <trkpt lat="57.39733200520277" lon="-5.508114024996758">
        <ele>44.359999999999999</ele>
        <time>2023-08-26T08:53:44Z</time>
      </trkpt>
      <trkpt lat="57.39722203463316" lon="-5.507901040837169">
        <ele>42.439999999999998</ele>
        <time>2023-08-26T08:53:45Z</time>
      </trkpt>
      <trkpt lat="57.39711700938642" lon="-5.507691996172071">
        <ele>40.990000000000002</ele>
        <time>2023-08-26T08:53:46Z</time>
      </trkpt>
      <trkpt lat="57.397047020494938" lon="-5.507442969828844">
        <ele>39.549999999999997</ele>
        <time>2023-08-26T08:53:47Z</time>
      </trkpt>
      <trkpt lat="57.396992035210133" lon="-5.507183969020844">
        <ele>37.630000000000003</ele>
        <time>2023-08-26T08:53:48Z</time>
      </trkpt>
      <trkpt lat="57.396937971934676" lon="-5.506924968212843">
        <ele>36.189999999999998</ele>
        <time>2023-08-26T08:53:49Z</time>
      </trkpt>
      <trkpt lat="57.396892961114645" lon="-5.506656998768449">
        <ele>34.740000000000002</ele>
        <time>2023-08-26T08:53:50Z</time>
      </trkpt>
      <trkpt lat="57.396897990256548" lon="-5.506373019888997">
        <ele>32.82</ele>
        <time>2023-08-26T08:53:51Z</time>
      </trkpt>
      <trkpt lat="57.396904025226831" lon="-5.50607898272574">
        <ele>30.899999999999999</ele>
        <time>2023-08-26T08:53:52Z</time>
      </trkpt>
      <trkpt lat="57.396909976378083" lon="-5.505782011896372">
        <ele>29.460000000000001</ele>
        <time>2023-08-26T08:53:53Z</time>
      </trkpt>
      <trkpt lat="57.396940989419818" lon="-5.50547800026834">
        <ele>28.02</ele>
        <time>2023-08-26T08:53:54Z</time>
      </trkpt>
      <trkpt lat="57.397001003846526" lon="-5.505189998075366">
        <ele>26.09</ele>
        <time>2023-08-26T08:53:55Z</time>
      </trkpt>
      <trkpt lat="57.397060012444854" lon="-5.504907025024295">
        <ele>24.170000000000002</ele>
        <time>2023-08-26T08:53:56Z</time>
      </trkpt>
      <trkpt lat="57.397126983851194" lon="-5.504616005346179">
        <ele>22.25</ele>
        <time>2023-08-26T08:53:57Z</time>
      </trkpt>
      <trkpt lat="57.397208958864212" lon="-5.50433998927474">
        <ele>19.84</ele>
        <time>2023-08-26T08:53:58Z</time>
      </trkpt>
      <trkpt lat="57.397783035412431" lon="-5.50240402109921">
        <ele>7.83</ele>
        <time>2023-08-26T08:54:06Z</time>
      </trkpt>
      <trkpt lat="57.397944973781705" lon="-5.501542026177049">
        <ele>0.14</ele>
        <time>2023-08-26T08:54:13Z</time>
      </trkpt>
      <trkpt lat="57.398069025948644" lon="-5.500780027359724">
        <ele>-3.71</ele>
        <time>2023-08-26T08:54:19Z</time>
      </trkpt>
      <trkpt lat="57.39810599014163" lon="-5.500554973259568">
        <ele>-4.19</ele>
        <time>2023-08-26T08:54:21Z</time>
      </trkpt>
      <trkpt lat="57.39812501706183" lon="-5.500443996861577">
        <ele>-4.19</ele>
        <time>2023-08-26T08:54:22Z</time>
      </trkpt>
      <trkpt lat="57.398144965991378" lon="-5.500323968008161">
        <ele>-4.67</ele>
        <time>2023-08-26T08:54:23Z</time>
      </trkpt>
      <trkpt lat="57.398415030911565" lon="-5.498724030330777">
        <ele>-3.71</ele>
        <time>2023-08-26T08:54:36Z</time>
      </trkpt>
      <trkpt lat="57.398440008983016" lon="-5.49858002923429">
        <ele>-3.71</ele>
        <time>2023-08-26T08:54:37Z</time>
      </trkpt>
      <trkpt lat="57.398838987573981" lon="-5.496650012210012">
        <ele>-2.27</ele>
        <time>2023-08-26T08:54:48Z</time>
      </trkpt>
      <trkpt lat="57.399396970868111" lon="-5.494337026029825">
        <ele>-0.34</ele>
        <time>2023-08-26T08:55:01Z</time>
      </trkpt>
      <trkpt lat="57.399846995249391" lon="-5.492209028452635">
        <ele>1.58</ele>
        <time>2023-08-26T08:55:13Z</time>
      </trkpt>
      <trkpt lat="57.400487959384918" lon="-5.490505993366242">
        <ele>2.06</ele>
        <time>2023-08-26T08:55:24Z</time>
      </trkpt>
      <trkpt lat="57.40098500624299" lon="-5.488904966041446">
        <ele>2.54</ele>
        <time>2023-08-26T08:55:34Z</time>
      </trkpt>
      <trkpt lat="57.401526980102062" lon="-5.486881993710995">
        <ele>3.02</ele>
        <time>2023-08-26T08:55:47Z</time>
      </trkpt>
      <trkpt lat="57.402173979207873" lon="-5.484497006982565">
        <ele>3.98</ele>
        <time>2023-08-26T08:56:02Z</time>
      </trkpt>
      <trkpt lat="57.402568012475967" lon="-5.482587022706866">
        <ele>3.5</ele>
        <time>2023-08-26T08:56:14Z</time>
      </trkpt>
      <trkpt lat="57.40283103659749" lon="-5.481604998931289">
        <ele>3.5</ele>
        <time>2023-08-26T08:56:21Z</time>
      </trkpt>
      <trkpt lat="57.402886021882296" lon="-5.481469966471195">
        <ele>3.5</ele>
        <time>2023-08-26T08:56:22Z</time>
      </trkpt>
      <trkpt lat="57.402946958318353" lon="-5.481339963153005">
        <ele>3.5</ele>
        <time>2023-08-26T08:56:23Z</time>
      </trkpt>
      <trkpt lat="57.403013007715344" lon="-5.481227980926633">
        <ele>3.98</ele>
        <time>2023-08-26T08:56:24Z</time>
      </trkpt>
      <trkpt lat="57.403077967464924" lon="-5.481118010357022">
        <ele>3.98</ele>
        <time>2023-08-26T08:56:25Z</time>
      </trkpt>
      <trkpt lat="57.403878020122647" lon="-5.480197006836534">
        <ele>4.94</ele>
        <time>2023-08-26T08:56:36Z</time>
      </trkpt>
      <trkpt lat="57.40463599562645" lon="-5.479558976367116">
        <ele>6.39</ele>
        <time>2023-08-26T08:56:45Z</time>
      </trkpt>
      <trkpt lat="57.405307972803712" lon="-5.479038963094354">
        <ele>6.87</ele>
        <time>2023-08-26T08:56:52Z</time>
      </trkpt>
      <trkpt lat="57.405523974448442" lon="-5.478873001411557">
        <ele>5.91</ele>
        <time>2023-08-26T08:56:54Z</time>
      </trkpt>
      <trkpt lat="57.406300976872444" lon="-5.47802098095417">
        <ele>3.5</ele>
        <time>2023-08-26T08:57:03Z</time>
      </trkpt>
      <trkpt lat="57.407199013978243" lon="-5.477228974923492">
        <ele>5.91</ele>
        <time>2023-08-26T08:57:15Z</time>
      </trkpt>
      <trkpt lat="57.408243985846639" lon="-5.476594967767596">
        <ele>6.39</ele>
        <time>2023-08-26T08:57:30Z</time>
      </trkpt>
      <trkpt lat="57.409223997965455" lon="-5.47604301944375">
        <ele>6.39</ele>
        <time>2023-08-26T08:57:41Z</time>
      </trkpt>
      <trkpt lat="57.40992003120482" lon="-5.475691985338926">
        <ele>5.91</ele>
        <time>2023-08-26T08:57:47Z</time>
      </trkpt>
      <trkpt lat="57.411308996379375" lon="-5.475332988426089">
        <ele>5.91</ele>
        <time>2023-08-26T08:57:57Z</time>
      </trkpt>
      <trkpt lat="57.412669965997338" lon="-5.47494700178504">
        <ele>5.42</ele>
        <time>2023-08-26T08:58:05Z</time>
      </trkpt>
      <trkpt lat="57.413978967815638" lon="-5.473774038255215">
        <ele>6.39</ele>
        <time>2023-08-26T08:58:14Z</time>
      </trkpt>
      <trkpt lat="57.414672989398241" lon="-5.47301396727562">
        <ele>7.83</ele>
        <time>2023-08-26T08:58:21Z</time>
      </trkpt>
      <trkpt lat="57.414791006594896" lon="-5.472883963957429">
        <ele>9.27</ele>
        <time>2023-08-26T08:58:31Z</time>
      </trkpt>
      <trkpt lat="57.414868036285043" lon="-5.47279897145927">
        <ele>9.75</ele>
        <time>2023-08-26T08:58:41Z</time>
      </trkpt>
      <trkpt lat="57.414935007691383" lon="-5.472725965082645">
        <ele>9.75</ele>
        <time>2023-08-26T08:58:42Z</time>
      </trkpt>
      <trkpt lat="57.415591981261969" lon="-5.47200595960021">
        <ele>9.75</ele>
        <time>2023-08-26T08:58:48Z</time>
      </trkpt>
      <trkpt lat="57.417256962507963" lon="-5.470104021951556">
        <ele>7.83</ele>
        <time>2023-08-26T08:58:59Z</time>
      </trkpt>
      <trkpt lat="57.419293010607362" lon="-5.467136995866895">
        <ele>9.27</ele>
        <time>2023-08-26T08:59:13Z</time>
      </trkpt>
      <trkpt lat="57.420722041279078" lon="-5.46480598859489">
        <ele>10.710000000000001</ele>
        <time>2023-08-26T08:59:24Z</time>
      </trkpt>
      <trkpt lat="57.422152999788523" lon="-5.462560979649425">
        <ele>12.630000000000001</ele>
        <time>2023-08-26T08:59:35Z</time>
      </trkpt>
      <trkpt lat="57.423791997134686" lon="-5.460130982100964">
        <ele>12.15</ele>
        <time>2023-08-26T08:59:46Z</time>
      </trkpt>
      <trkpt lat="57.425134023651481" lon="-5.458083031699061">
        <ele>10.710000000000001</ele>
        <time>2023-08-26T08:59:55Z</time>
      </trkpt>
      <trkpt lat="57.426715018227696" lon="-5.455275010317564">
        <ele>10.710000000000001</ele>
        <time>2023-08-26T09:00:06Z</time>
      </trkpt>
      <trkpt lat="57.428025025874376" lon="-5.45296898111701">
        <ele>10.710000000000001</ele>
        <time>2023-08-26T09:00:15Z</time>
      </trkpt>
      <trkpt lat="57.429867032915354" lon="-5.449728034436703">
        <ele>11.19</ele>
        <time>2023-08-26T09:00:28Z</time>
      </trkpt>
      <trkpt lat="57.431088024750352" lon="-5.447581009939313">
        <ele>10.710000000000001</ele>
        <time>2023-08-26T09:00:38Z</time>
      </trkpt>
      <trkpt lat="57.431230014190078" lon="-5.447322009131312">
        <ele>11.19</ele>
        <time>2023-08-26T09:00:44Z</time>
      </trkpt>
      <trkpt lat="57.431230014190078" lon="-5.447322009131312">
        <ele>11.19</ele>
        <time>2023-08-26T09:01:17Z</time>
      </trkpt>
      <trkpt lat="57.431376026943326" lon="-5.447040041908622">
        <ele>11.67</ele>
        <time>2023-08-26T09:01:29Z</time>
      </trkpt>
      <trkpt lat="57.431416008621454" lon="-5.446964018046856">
        <ele>11.67</ele>
        <time>2023-08-26T09:01:30Z</time>
      </trkpt>
      <trkpt lat="57.43144802749157" lon="-5.446901991963387">
        <ele>11.67</ele>
        <time>2023-08-26T09:01:31Z</time>
      </trkpt>
      <trkpt lat="57.431436963379383" lon="-5.446742987260222">
        <ele>11.19</ele>
        <time>2023-08-26T09:01:32Z</time>
      </trkpt>
      <trkpt lat="57.431396981701255" lon="-5.446659000590444">
        <ele>11.67</ele>
        <time>2023-08-26T09:01:33Z</time>
      </trkpt>
      <trkpt lat="57.431348031386733" lon="-5.446555987000465">
        <ele>11.67</ele>
        <time>2023-08-26T09:01:34Z</time>
      </trkpt>
      <trkpt lat="57.431292040273547" lon="-5.44643796980381">
        <ele>11.67</ele>
        <time>2023-08-26T09:01:35Z</time>
      </trkpt>
      <trkpt lat="57.431229008361697" lon="-5.446304026991129">
        <ele>11.67</ele>
        <time>2023-08-26T09:01:36Z</time>
      </trkpt>
      <trkpt lat="57.43044001981616" lon="-5.444641979411244">
        <ele>11.67</ele>
        <time>2023-08-26T09:01:45Z</time>
      </trkpt>
      <trkpt lat="57.429346013814211" lon="-5.442340979352593">
        <ele>11.19</ele>
        <time>2023-08-26T09:01:55Z</time>
      </trkpt>
      <trkpt lat="57.427759990096092" lon="-5.439058039337397">
        <ele>10.710000000000001</ele>
        <time>2023-08-26T09:02:08Z</time>
      </trkpt>
      <trkpt lat="57.426896989345551" lon="-5.43747503310442">
        <ele>9.75</ele>
        <time>2023-08-26T09:02:16Z</time>
      </trkpt>
      <trkpt lat="57.425822010263801" lon="-5.436172988265753">
        <ele>8.310000000000001</ele>
        <time>2023-08-26T09:02:24Z</time>
      </trkpt>
      <trkpt lat="57.424456011503935" lon="-5.434591993689537">
        <ele>5.91</ele>
        <time>2023-08-26T09:02:34Z</time>
      </trkpt>
      <trkpt lat="57.423377009108663" lon="-5.432773036882281">
        <ele>5.42</ele>
        <time>2023-08-26T09:02:42Z</time>
      </trkpt>
      <trkpt lat="57.423241976648569" lon="-5.432502971962094">
        <ele>5.42</ele>
        <time>2023-08-26T09:02:43Z</time>
      </trkpt>
      <trkpt lat="57.422787006944418" lon="-5.431102020666003">
        <ele>7.35</ele>
        <time>2023-08-26T09:02:49Z</time>
      </trkpt>
      <trkpt lat="57.422404959797859" lon="-5.429327990859747">
        <ele>8.310000000000001</ele>
        <time>2023-08-26T09:02:57Z</time>
      </trkpt>
      <trkpt lat="57.422346035018563" lon="-5.429159011691809">
        <ele>8.310000000000001</ele>
        <time>2023-08-26T09:02:58Z</time>
      </trkpt>
      <trkpt lat="57.422299012541771" lon="-5.429026996716857">
        <ele>8.310000000000001</ele>
        <time>2023-08-26T09:02:59Z</time>
      </trkpt>
      <trkpt lat="57.422244027256966" lon="-5.428931023925543">
        <ele>8.310000000000001</ele>
        <time>2023-08-26T09:03:00Z</time>
      </trkpt>
      <trkpt lat="57.422178983688354" lon="-5.428865980356932">
        <ele>8.310000000000001</ele>
        <time>2023-08-26T09:03:01Z</time>
      </trkpt>
      <trkpt lat="57.42210497148335" lon="-5.428790962323546">
        <ele>8.310000000000001</ele>
        <time>2023-08-26T09:03:02Z</time>
      </trkpt>
      <trkpt lat="57.422035988420248" lon="-5.428795991465449">
        <ele>8.310000000000001</ele>
        <time>2023-08-26T09:03:03Z</time>
      </trkpt>
      <trkpt lat="57.421939009800553" lon="-5.428803032264113">
        <ele>8.310000000000001</ele>
        <time>2023-08-26T09:03:04Z</time>
      </trkpt>
      <trkpt lat="57.421827027574182" lon="-5.428810995072126">
        <ele>7.83</ele>
        <time>2023-08-26T09:03:05Z</time>
      </trkpt>
      <trkpt lat="57.421274995431304" lon="-5.428831027820706">
        <ele>6.87</ele>
        <time>2023-08-26T09:03:09Z</time>
      </trkpt>
      <trkpt lat="57.421138035133481" lon="-5.428899005055428">
        <ele>6.87</ele>
        <time>2023-08-26T09:03:10Z</time>
      </trkpt>
      <trkpt lat="57.421004008501768" lon="-5.428997995331883">
        <ele>6.39</ele>
        <time>2023-08-26T09:03:11Z</time>
      </trkpt>
      <trkpt lat="57.420880040153861" lon="-5.429151970893145">
        <ele>5.91</ele>
        <time>2023-08-26T09:03:12Z</time>
      </trkpt>
      <trkpt lat="57.420757999643683" lon="-5.429310975596309">
        <ele>5.42</ele>
        <time>2023-08-26T09:03:13Z</time>
      </trkpt>
      <trkpt lat="57.42064400576055" lon="-5.429497975856066">
        <ele>4.94</ele>
        <time>2023-08-26T09:03:14Z</time>
      </trkpt>
      <trkpt lat="57.420529006049037" lon="-5.429686987772584">
        <ele>4.46</ele>
        <time>2023-08-26T09:03:15Z</time>
      </trkpt>
      <trkpt lat="57.420414006337523" lon="-5.429875999689102">
        <ele>4.46</ele>
        <time>2023-08-26T09:03:16Z</time>
      </trkpt>
      <trkpt lat="57.420304035767913" lon="-5.430055959150195">
        <ele>4.46</ele>
        <time>2023-08-26T09:03:17Z</time>
      </trkpt>
      <trkpt lat="57.420187024399638" lon="-5.43019400909543">
        <ele>3.98</ele>
        <time>2023-08-26T09:03:18Z</time>
      </trkpt>
      <trkpt lat="57.420050986111164" lon="-5.430272966623306">
        <ele>3.98</ele>
        <time>2023-08-26T09:03:19Z</time>
      </trkpt>
      <trkpt lat="57.418552972376347" lon="-5.431063966825604">
        <ele>3.5</ele>
        <time>2023-08-26T09:03:28Z</time>
      </trkpt>
      <trkpt lat="57.416790006682277" lon="-5.432054037228227">
        <ele>-0.82</ele>
        <time>2023-08-26T09:03:38Z</time>
      </trkpt>
      <trkpt lat="57.415608996525407" lon="-5.433568982407451">
        <ele>-3.23</ele>
        <time>2023-08-26T09:03:46Z</time>
      </trkpt>
      <trkpt lat="57.414841968566179" lon="-5.435607964172959">
        <ele>-4.67</ele>
        <time>2023-08-26T09:03:53Z</time>
      </trkpt>
      <trkpt lat="57.413792973384261" lon="-5.438999030739069">
        <ele>-4.19</ele>
        <time>2023-08-26T09:04:04Z</time>
      </trkpt>
      <trkpt lat="57.41247802041471" lon="-5.441120993345976">
        <ele>-3.71</ele>
        <time>2023-08-26T09:04:13Z</time>
      </trkpt>
      <trkpt lat="57.411585012450814" lon="-5.442516999319196">
        <ele>-3.71</ele>
        <time>2023-08-26T09:04:19Z</time>
      </trkpt>
      <trkpt lat="57.411111015826464" lon="-5.442966017872095">
        <ele>-4.19</ele>
        <time>2023-08-26T09:04:22Z</time>
      </trkpt>
      <trkpt lat="57.410084987059236" lon="-5.443668002262712">
        <ele>-4.67</ele>
        <time>2023-08-26T09:04:28Z</time>
      </trkpt>
      <trkpt lat="57.4083979614079" lon="-5.44508496299386">
        <ele>-5.63</ele>
        <time>2023-08-26T09:04:38Z</time>
      </trkpt>
      <trkpt lat="57.407502019777894" lon="-5.446861004456878">
        <ele>-5.63</ele>
        <time>2023-08-26T09:04:45Z</time>
      </trkpt>
      <trkpt lat="57.407318959012628" lon="-5.447284039109945">
        <ele>-5.15</ele>
        <time>2023-08-26T09:04:47Z</time>
      </trkpt>
      <trkpt lat="57.407217035070062" lon="-5.447461986914277">
        <ele>-5.15</ele>
        <time>2023-08-26T09:04:48Z</time>
      </trkpt>
      <trkpt lat="57.407088959589601" lon="-5.447574974969029">
        <ele>-4.67</ele>
        <time>2023-08-26T09:04:49Z</time>
      </trkpt>
      <trkpt lat="57.406959962099791" lon="-5.447667008265853">
        <ele>-4.19</ele>
        <time>2023-08-26T09:04:50Z</time>
      </trkpt>
      <trkpt lat="57.406830964609981" lon="-5.447729034349322">
        <ele>-2.75</ele>
        <time>2023-08-26T09:04:51Z</time>
      </trkpt>
      <trkpt lat="57.406699033454061" lon="-5.447755018249154">
        <ele>-1.3</ele>
        <time>2023-08-26T09:04:52Z</time>
      </trkpt>
      <trkpt lat="57.406570035964251" lon="-5.447738002985716">
        <ele>0.14</ele>
        <time>2023-08-26T09:04:53Z</time>
      </trkpt>
      <trkpt lat="57.406447995454073" lon="-5.447712019085884">
        <ele>1.58</ele>
        <time>2023-08-26T09:04:54Z</time>
      </trkpt>
      <trkpt lat="57.405466977506876" lon="-5.447570029646158">
        <ele>13.6</ele>
        <time>2023-08-26T09:05:01Z</time>
      </trkpt>
      <trkpt lat="57.404210027307272" lon="-5.447587966918945">
        <ele>29.460000000000001</ele>
        <time>2023-08-26T09:05:08Z</time>
      </trkpt>
      <trkpt lat="57.403033040463924" lon="-5.448046959936619">
        <ele>46.280000000000001</ele>
        <time>2023-08-26T09:05:15Z</time>
      </trkpt>
      <trkpt lat="57.402714025229216" lon="-5.448163971304894">
        <ele>50.609999999999999</ele>
        <time>2023-08-26T09:05:17Z</time>
      </trkpt>
      <trkpt lat="57.402584021911025" lon="-5.448159025982022">
        <ele>52.530000000000001</ele>
        <time>2023-08-26T09:05:18Z</time>
      </trkpt>
      <trkpt lat="57.402345975860953" lon="-5.448149973526597">
        <ele>54.93</ele>
        <time>2023-08-26T09:05:20Z</time>
      </trkpt>
      <trkpt lat="57.402225024998188" lon="-5.448174029588699">
        <ele>55.409999999999997</ele>
        <time>2023-08-26T09:05:21Z</time>
      </trkpt>
      <trkpt lat="57.402112036943436" lon="-5.448276037350297">
        <ele>55.890000000000001</ele>
        <time>2023-08-26T09:05:22Z</time>
      </trkpt>
      <trkpt lat="57.401998965069652" lon="-5.448406962677836">
        <ele>56.859999999999999</ele>
        <time>2023-08-26T09:05:23Z</time>
      </trkpt>
      <trkpt lat="57.401890000328422" lon="-5.448578959330916">
        <ele>57.340000000000003</ele>
        <time>2023-08-26T09:05:24Z</time>
      </trkpt>
      <trkpt lat="57.401783969253302" lon="-5.448747016489506">
        <ele>57.82</ele>
        <time>2023-08-26T09:05:25Z</time>
      </trkpt>
      <trkpt lat="57.401720015332103" lon="-5.448987996205688">
        <ele>58.780000000000001</ele>
        <time>2023-08-26T09:05:26Z</time>
      </trkpt>
      <trkpt lat="57.401657989248633" lon="-5.449225036427379">
        <ele>59.259999999999998</ele>
        <time>2023-08-26T09:05:27Z</time>
      </trkpt>
      <trkpt lat="57.401596968993545" lon="-5.449456041678786">
        <ele>60.219999999999999</ele>
        <time>2023-08-26T09:05:28Z</time>
      </trkpt>
      <trkpt lat="57.401035968214273" lon="-5.451161004602909">
        <ele>62.619999999999997</ele>
        <time>2023-08-26T09:05:35Z</time>
      </trkpt>
      <trkpt lat="57.400168022140861" lon="-5.453329989686608">
        <ele>56.369999999999997</ele>
        <time>2023-08-26T09:05:43Z</time>
      </trkpt>
      <trkpt lat="57.399844983592629" lon="-5.453881016001105">
        <ele>53.490000000000002</ele>
        <time>2023-08-26T09:05:46Z</time>
      </trkpt>
      <trkpt lat="57.399730989709496" lon="-5.454014036804438">
        <ele>52.530000000000001</ele>
        <time>2023-08-26T09:05:47Z</time>
      </trkpt>
      <trkpt lat="57.399621019139886" lon="-5.454083019867539">
        <ele>51.57</ele>
        <time>2023-08-26T09:05:48Z</time>
      </trkpt>
      <trkpt lat="57.398485019803047" lon="-5.454586017876864">
        <ele>41.469999999999999</ele>
        <time>2023-08-26T09:05:56Z</time>
      </trkpt>
      <trkpt lat="57.3977380245924" lon="-5.454960018396378">
        <ele>33.780000000000001</ele>
        <time>2023-08-26T09:06:01Z</time>
      </trkpt>
      <trkpt lat="57.39761296659708" lon="-5.455084992572665">
        <ele>32.340000000000003</ele>
        <time>2023-08-26T09:06:02Z</time>
      </trkpt>
      <trkpt lat="57.397492015734315" lon="-5.45524500310421">
        <ele>30.899999999999999</ele>
        <time>2023-08-26T09:06:03Z</time>
      </trkpt>
      <trkpt lat="57.39713997580111" lon="-5.455703996121883">
        <ele>26.09</ele>
        <time>2023-08-26T09:06:06Z</time>
      </trkpt>
      <trkpt lat="57.397032016888261" lon="-5.455779014155269">
        <ele>24.170000000000002</ele>
        <time>2023-08-26T09:06:07Z</time>
      </trkpt>
      <trkpt lat="57.396905031055212" lon="-5.455814972519875">
        <ele>22.73</ele>
        <time>2023-08-26T09:06:08Z</time>
      </trkpt>
      <trkpt lat="57.396775027737021" lon="-5.455852020531893">
        <ele>20.809999999999999</ele>
        <time>2023-08-26T09:06:09Z</time>
      </trkpt>
      <trkpt lat="57.39664301276207" lon="-5.45588999055326">
        <ele>18.879999999999999</ele>
        <time>2023-08-26T09:06:10Z</time>
      </trkpt>
      <trkpt lat="57.396528013050556" lon="-5.455841962248087">
        <ele>17.440000000000001</ele>
        <time>2023-08-26T09:06:11Z</time>
      </trkpt>
      <trkpt lat="57.396391974762082" lon="-5.455777002498508">
        <ele>15.52</ele>
        <time>2023-08-26T09:06:12Z</time>
      </trkpt>
      <trkpt lat="57.396245039999485" lon="-5.455707013607025">
        <ele>13.6</ele>
        <time>2023-08-26T09:06:13Z</time>
      </trkpt>
      <trkpt lat="57.395756039768457" lon="-5.455473996698856">
        <ele>8.789999999999999</ele>
        <time>2023-08-26T09:06:16Z</time>
      </trkpt>
      <trkpt lat="57.394016962498426" lon="-5.455054985359311">
        <ele>6.39</ele>
        <time>2023-08-26T09:06:26Z</time>
      </trkpt>
      <trkpt lat="57.392440997064114" lon="-5.455435020849109">
        <ele>5.42</ele>
        <time>2023-08-26T09:06:35Z</time>
      </trkpt>
      <trkpt lat="57.390973996371031" lon="-5.456488039344549">
        <ele>5.42</ele>
        <time>2023-08-26T09:06:45Z</time>
      </trkpt>
      <trkpt lat="57.388768969103694" lon="-5.458658030256629">
        <ele>9.75</ele>
        <time>2023-08-26T09:06:59Z</time>
      </trkpt>
      <trkpt lat="57.388360016047955" lon="-5.459211990237236">
        <ele>12.15</ele>
        <time>2023-08-26T09:07:02Z</time>
      </trkpt>
      <trkpt lat="57.388226995244622" lon="-5.459405025467277">
        <ele>13.119999999999999</ele>
        <time>2023-08-26T09:07:03Z</time>
      </trkpt>
      <trkpt lat="57.38813697360456" lon="-5.459667965769768">
        <ele>14.08</ele>
        <time>2023-08-26T09:07:04Z</time>
      </trkpt>
      <trkpt lat="57.388046029955149" lon="-5.459941970184445">
        <ele>14.56</ele>
        <time>2023-08-26T09:07:05Z</time>
      </trkpt>
      <trkpt lat="57.387953996658325" lon="-5.460216980427504">
        <ele>15.52</ele>
        <time>2023-08-26T09:07:06Z</time>
      </trkpt>
      <trkpt lat="57.387862969189882" lon="-5.460489979013801">
        <ele>16.960000000000001</ele>
        <time>2023-08-26T09:07:07Z</time>
      </trkpt>
      <trkpt lat="57.387789962813258" lon="-5.460786027833819">
        <ele>18.399999999999999</ele>
        <time>2023-08-26T09:07:08Z</time>
      </trkpt>
      <trkpt lat="57.386949006468058" lon="-5.463950028643012">
        <ele>28.02</ele>
        <time>2023-08-26T09:07:18Z</time>
      </trkpt>
      <trkpt lat="57.385909985750914" lon="-5.466694012284279">
        <ele>20.809999999999999</ele>
        <time>2023-08-26T09:07:27Z</time>
      </trkpt>
      <trkpt lat="57.38555601797998" lon="-5.468204012140632">
        <ele>16.960000000000001</ele>
        <time>2023-08-26T09:07:32Z</time>
      </trkpt>
      <trkpt lat="57.38538502715528" lon="-5.468706004321575">
        <ele>15.039999999999999</ele>
        <time>2023-08-26T09:07:34Z</time>
      </trkpt>
      <trkpt lat="57.385268015787005" lon="-5.468912031501532">
        <ele>14.08</ele>
        <time>2023-08-26T09:07:35Z</time>
      </trkpt>
      <trkpt lat="57.384193958714604" lon="-5.470254980027676">
        <ele>4.46</ele>
        <time>2023-08-26T09:07:42Z</time>
      </trkpt>
      <trkpt lat="57.38295896910131" lon="-5.471691973507404">
        <ele>0.14</ele>
        <time>2023-08-26T09:07:50Z</time>
      </trkpt>
      <trkpt lat="57.382600978016853" lon="-5.472262026742101">
        <ele>-2.27</ele>
        <time>2023-08-26T09:07:54Z</time>
      </trkpt>
      <trkpt lat="57.382551021873951" lon="-5.472350036725402">
        <ele>-2.75</ele>
        <time>2023-08-26T09:07:55Z</time>
      </trkpt>
      <trkpt lat="57.382423030212522" lon="-5.472578024491668">
        <ele>-4.19</ele>
        <time>2023-08-26T09:07:58Z</time>
      </trkpt>
      <trkpt lat="57.382346000522375" lon="-5.472740968689323">
        <ele>-5.63</ele>
        <time>2023-08-26T09:08:00Z</time>
      </trkpt>
      <trkpt lat="57.382257990539074" lon="-5.472929980605841">
        <ele>-5.63</ele>
        <time>2023-08-26T09:08:01Z</time>
      </trkpt>
      <trkpt lat="57.3816919606179" lon="-5.474523967131972">
        <ele>-3.23</ele>
        <time>2023-08-26T09:08:08Z</time>
      </trkpt>
      <trkpt lat="57.380804987624288" lon="-5.477531980723143">
        <ele>-1.79</ele>
        <time>2023-08-26T09:08:19Z</time>
      </trkpt>
      <trkpt lat="57.379653984680772" lon="-5.480034984648228">
        <ele>-0.34</ele>
        <time>2023-08-26T09:08:30Z</time>
      </trkpt>
      <trkpt lat="57.37919800914824" lon="-5.481268968433142">
        <ele>-1.79</ele>
        <time>2023-08-26T09:08:35Z</time>
      </trkpt>
      <trkpt lat="57.379094995558262" lon="-5.481484970077872">
        <ele>-1.79</ele>
        <time>2023-08-26T09:08:36Z</time>
      </trkpt>
      <trkpt lat="57.378970021381974" lon="-5.481669036671519">
        <ele>-2.27</ele>
        <time>2023-08-26T09:08:37Z</time>
      </trkpt>
      <trkpt lat="57.378842029720545" lon="-5.481846984475851">
        <ele>-2.75</ele>
        <time>2023-08-26T09:08:38Z</time>
      </trkpt>
      <trkpt lat="57.378710014745593" lon="-5.482029961422086">
        <ele>-3.23</ele>
        <time>2023-08-26T09:08:39Z</time>
      </trkpt>
      <trkpt lat="57.378572970628738" lon="-5.482215033844113">
        <ele>-3.23</ele>
        <time>2023-08-26T09:08:40Z</time>
      </trkpt>
      <trkpt lat="57.378422012552619" lon="-5.482365991920233">
        <ele>-3.71</ele>
        <time>2023-08-26T09:08:41Z</time>
      </trkpt>
      <trkpt lat="57.377982968464494" lon="-5.48285398632288">
        <ele>-4.19</ele>
        <time>2023-08-26T09:08:44Z</time>
      </trkpt>
      <trkpt lat="57.377863023430109" lon="-5.483059007674456">
        <ele>-4.67</ele>
        <time>2023-08-26T09:08:45Z</time>
      </trkpt>
      <trkpt lat="57.377616008743644" lon="-5.483481036499143">
        <ele>-6.59</ele>
        <time>2023-08-26T09:08:47Z</time>
      </trkpt>
      <trkpt lat="57.377493968233466" lon="-5.483712963759899">
        <ele>-8.029999999999999</ele>
        <time>2023-08-26T09:08:48Z</time>
      </trkpt>
      <trkpt lat="57.376295020803809" lon="-5.486663980409503">
        <ele>-14.279999999999999</ele>
        <time>2023-08-26T09:08:59Z</time>
      </trkpt>
      <trkpt lat="57.37561197951436" lon="-5.489459009841085">
        <ele>-16.210000000000001</ele>
        <time>2023-08-26T09:09:08Z</time>
      </trkpt>
      <trkpt lat="57.37518098205328" lon="-5.490992981940508">
        <ele>-17.170000000000002</ele>
        <time>2023-08-26T09:09:14Z</time>
      </trkpt>
      <trkpt lat="57.375144017860293" lon="-5.491262963041663">
        <ele>-17.170000000000002</ele>
        <time>2023-08-26T09:09:15Z</time>
      </trkpt>
      <trkpt lat="57.374787032604218" lon="-5.493645016103983">
        <ele>-18.129999999999999</ele>
        <time>2023-08-26T09:09:23Z</time>
      </trkpt>
      <trkpt lat="57.374717965722084" lon="-5.493890019133687">
        <ele>-17.649999999999999</ele>
        <time>2023-08-26T09:09:24Z</time>
      </trkpt>
      <trkpt lat="57.37464303150773" lon="-5.494108032435179">
        <ele>-17.649999999999999</ele>
        <time>2023-08-26T09:09:25Z</time>
      </trkpt>
      <trkpt lat="57.37455602735281" lon="-5.494336020201445">
        <ele>-17.649999999999999</ele>
        <time>2023-08-26T09:09:26Z</time>
      </trkpt>
      <trkpt lat="57.374445972964168" lon="-5.494528971612454">
        <ele>-17.170000000000002</ele>
        <time>2023-08-26T09:09:27Z</time>
      </trkpt>
      <trkpt lat="57.374330973252654" lon="-5.494729969650507">
        <ele>-17.170000000000002</ele>
        <time>2023-08-26T09:09:28Z</time>
      </trkpt>
      <trkpt lat="57.373164966702461" lon="-5.496287997812033">
        <ele>-14.279999999999999</ele>
        <time>2023-08-26T09:09:36Z</time>
      </trkpt>
      <trkpt lat="57.371973982080817" lon="-5.498208040371537">
        <ele>-12.359999999999999</ele>
        <time>2023-08-26T09:09:45Z</time>
      </trkpt>
      <trkpt lat="57.37068903632462" lon="-5.499745029956102">
        <ele>-9</ele>
        <time>2023-08-26T09:09:54Z</time>
      </trkpt>
      <trkpt lat="57.36912002786994" lon="-5.500888992100954">
        <ele>-3.71</ele>
        <time>2023-08-26T09:10:03Z</time>
      </trkpt>
      <trkpt lat="57.367768026888371" lon="-5.502679031342268">
        <ele>-2.27</ele>
        <time>2023-08-26T09:10:12Z</time>
      </trkpt>
      <trkpt lat="57.366624986752868" lon="-5.50395199097693">
        <ele>-1.3</ele>
        <time>2023-08-26T09:10:20Z</time>
      </trkpt>
      <trkpt lat="57.366314018145204" lon="-5.504173021763563">
        <ele>-1.79</ele>
        <time>2023-08-26T09:10:25Z</time>
      </trkpt>
      <trkpt lat="57.366246040910482" lon="-5.504220966249704">
        <ele>-1.79</ele>
        <time>2023-08-26T09:10:26Z</time>
      </trkpt>
      <trkpt lat="57.366166999563575" lon="-5.504277963191271">
        <ele>-1.79</ele>
        <time>2023-08-26T09:10:27Z</time>
      </trkpt>
      <trkpt lat="57.36546702682972" lon="-5.504836030304432">
        <ele>-0.82</ele>
        <time>2023-08-26T09:10:33Z</time>
      </trkpt>
      <trkpt lat="57.365412963554263" lon="-5.504880035296083">
        <ele>-0.82</ele>
        <time>2023-08-26T09:10:38Z</time>
      </trkpt>
      <trkpt lat="57.365353032946587" lon="-5.5049620103091">
        <ele>-0.82</ele>
        <time>2023-08-26T09:10:44Z</time>
      </trkpt>
      <trkpt lat="57.365315984934568" lon="-5.505011966452003">
        <ele>-0.82</ele>
        <time>2023-08-26T09:10:45Z</time>
      </trkpt>
      <trkpt lat="57.365256976336241" lon="-5.505093019455671">
        <ele>-0.34</ele>
        <time>2023-08-26T09:10:46Z</time>
      </trkpt>
      <trkpt lat="57.364725982770324" lon="-5.505958031862974">
        <ele>0.14</ele>
        <time>2023-08-26T09:10:52Z</time>
      </trkpt>
      <trkpt lat="57.363759968429804" lon="-5.507906991988421">
        <ele>3.5</ele>
        <time>2023-08-26T09:11:02Z</time>
      </trkpt>
      <trkpt lat="57.362938961014152" lon="-5.5089389719069">
        <ele>7.83</ele>
        <time>2023-08-26T09:11:09Z</time>
      </trkpt>
      <trkpt lat="57.362088030204177" lon="-5.509575996547937">
        <ele>15.039999999999999</ele>
        <time>2023-08-26T09:11:18Z</time>
      </trkpt>
      <trkpt lat="57.361916033551097" lon="-5.509728966280818">
        <ele>16</ele>
        <time>2023-08-26T09:11:20Z</time>
      </trkpt>
      <trkpt lat="57.361828023567796" lon="-5.509868022054434">
        <ele>16.960000000000001</ele>
        <time>2023-08-26T09:11:21Z</time>
      </trkpt>
      <trkpt lat="57.361755017191172" lon="-5.509984027594328">
        <ele>17.440000000000001</ele>
        <time>2023-08-26T09:11:22Z</time>
      </trkpt>
      <trkpt lat="57.361658960580826" lon="-5.510135991498828">
        <ele>18.399999999999999</ele>
        <time>2023-08-26T09:11:23Z</time>
      </trkpt>
      <trkpt lat="57.361563993617892" lon="-5.510347969830036">
        <ele>19.359999999999999</ele>
        <time>2023-08-26T09:11:24Z</time>
      </trkpt>
      <trkpt lat="57.36145100556314" lon="-5.510602025315166">
        <ele>20.32</ele>
        <time>2023-08-26T09:11:25Z</time>
      </trkpt>
      <trkpt lat="57.361116986721754" lon="-5.511347008869052">
        <ele>23.210000000000001</ele>
        <time>2023-08-26T09:11:28Z</time>
      </trkpt>
      <trkpt lat="57.361030988395214" lon="-5.511491009965539">
        <ele>24.170000000000002</ele>
        <time>2023-08-26T09:11:29Z</time>
      </trkpt>
      <trkpt lat="57.360962005332112" lon="-5.511605003848672">
        <ele>24.649999999999999</ele>
        <time>2023-08-26T09:11:30Z</time>
      </trkpt>
      <trkpt lat="57.360821021720767" lon="-5.511841038241983">
        <ele>25.609999999999999</ele>
        <time>2023-08-26T09:11:32Z</time>
      </trkpt>
      <trkpt lat="57.360466970130801" lon="-5.512704961001873">
        <ele>27.530000000000001</ele>
        <time>2023-08-26T09:11:36Z</time>
      </trkpt>
      <trkpt lat="57.360410979017615" lon="-5.512967985123396">
        <ele>28.98</ele>
        <time>2023-08-26T09:11:37Z</time>
      </trkpt>
      <trkpt lat="57.360296985134482" lon="-5.513495961204171">
        <ele>31.859999999999999</ele>
        <time>2023-08-26T09:11:39Z</time>
      </trkpt>
      <trkpt lat="57.360237976536155" lon="-5.51377197727561">
        <ele>33.780000000000001</ele>
        <time>2023-08-26T09:11:40Z</time>
      </trkpt>
      <trkpt lat="57.360124988481402" lon="-5.514294002205133">
        <ele>37.630000000000003</ele>
        <time>2023-08-26T09:11:42Z</time>
      </trkpt>
      <trkpt lat="57.359612016007304" lon="-5.515395971015096">
        <ele>45.799999999999997</ele>
        <time>2023-08-26T09:11:47Z</time>
      </trkpt>
      <trkpt lat="57.35949500463903" lon="-5.515563022345305">
        <ele>47.240000000000002</ele>
        <time>2023-08-26T09:11:48Z</time>
      </trkpt>
      <trkpt lat="57.35938897356391" lon="-5.515716997906566">
        <ele>48.200000000000003</ele>
        <time>2023-08-26T09:11:49Z</time>
      </trkpt>
      <trkpt lat="57.359285959973931" lon="-5.515865022316575">
        <ele>49.649999999999999</ele>
        <time>2023-08-26T09:11:50Z</time>
      </trkpt>
      <trkpt lat="57.35921697691083" lon="-5.516042970120907">
        <ele>51.090000000000003</ele>
        <time>2023-08-26T09:11:51Z</time>
      </trkpt>
      <trkpt lat="57.359147993847728" lon="-5.516282021999359">
        <ele>52.530000000000001</ele>
        <time>2023-08-26T09:11:52Z</time>
      </trkpt>
      <trkpt lat="57.359078004956245" lon="-5.51652199588716">
        <ele>53.969999999999999</ele>
        <time>2023-08-26T09:11:53Z</time>
      </trkpt>
      <trkpt lat="57.358879018574953" lon="-5.517161032184959">
        <ele>57.340000000000003</ele>
        <time>2023-08-26T09:11:56Z</time>
      </trkpt>
      <trkpt lat="57.358785979449749" lon="-5.517367981374264">
        <ele>58.780000000000001</ele>
        <time>2023-08-26T09:11:57Z</time>
      </trkpt>
      <trkpt lat="57.358665028586984" lon="-5.517506031319499">
        <ele>59.740000000000002</ele>
        <time>2023-08-26T09:11:58Z</time>
      </trkpt>
      <trkpt lat="57.358140992000699" lon="-5.518140960484743">
        <ele>64.069999999999993</ele>
        <time>2023-08-26T09:12:02Z</time>
      </trkpt>
      <trkpt lat="57.357660038396716" lon="-5.51886297762394">
        <ele>68.870000000000005</ele>
        <time>2023-08-26T09:12:06Z</time>
      </trkpt>
      <trkpt lat="57.357515031471848" lon="-5.518989963456988">
        <ele>70.310000000000002</ele>
        <time>2023-08-26T09:12:07Z</time>
      </trkpt>
      <trkpt lat="57.357216970995069" lon="-5.51925097592175">
        <ele>72.239999999999995</ele>
        <time>2023-08-26T09:12:09Z</time>
      </trkpt>
      <trkpt lat="57.357087973505259" lon="-5.519363963976502">
        <ele>73.680000000000007</ele>
        <time>2023-08-26T09:12:10Z</time>
      </trkpt>
      <trkpt lat="57.356973979622126" lon="-5.519568985328078">
        <ele>74.640000000000001</ele>
        <time>2023-08-26T09:12:11Z</time>
      </trkpt>
      <trkpt lat="57.356857974082232" lon="-5.519779035821557">
        <ele>75.599999999999994</ele>
        <time>2023-08-26T09:12:12Z</time>
      </trkpt>
      <trkpt lat="57.356740040704608" lon="-5.519990008324385">
        <ele>77.040000000000006</ele>
        <time>2023-08-26T09:12:13Z</time>
      </trkpt>
      <trkpt lat="57.35661800019443" lon="-5.520182959735394">
        <ele>78</ele>
        <time>2023-08-26T09:12:14Z</time>
      </trkpt>
      <trkpt lat="57.356481039896607" lon="-5.520337019115686">
        <ele>78.969999999999999</ele>
        <time>2023-08-26T09:12:15Z</time>
      </trkpt>
      <trkpt lat="57.356345001608133" lon="-5.520490994676948">
        <ele>79.930000000000007</ele>
        <time>2023-08-26T09:12:16Z</time>
      </trkpt>
      <trkpt lat="57.356216004118323" lon="-5.520637007430196">
        <ele>80.890000000000001</ele>
        <time>2023-08-26T09:12:17Z</time>
      </trkpt>
      <trkpt lat="57.355716023594141" lon="-5.521257016807795">
        <ele>85.689999999999998</ele>
        <time>2023-08-26T09:12:21Z</time>
      </trkpt>
      <trkpt lat="57.35560798086226" lon="-5.521460026502609">
        <ele>86.659999999999997</ele>
        <time>2023-08-26T09:12:22Z</time>
      </trkpt>
      <trkpt lat="57.355227023363113" lon="-5.522223031148315">
        <ele>90.5</ele>
        <time>2023-08-26T09:12:26Z</time>
      </trkpt>
      <trkpt lat="57.355149993672967" lon="-5.522442972287536">
        <ele>91.459999999999994</ele>
        <time>2023-08-26T09:12:27Z</time>
      </trkpt>
      <trkpt lat="57.355100959539413" lon="-5.522693004459143">
        <ele>92.900000000000006</ele>
        <time>2023-08-26T09:12:28Z</time>
      </trkpt>
      <trkpt lat="57.35496299341321" lon="-5.523398006334901">
        <ele>96.269999999999996</ele>
        <time>2023-08-26T09:12:31Z</time>
      </trkpt>
      <trkpt lat="57.354879006743431" lon="-5.523630017414689">
        <ele>96.75</ele>
        <time>2023-08-26T09:12:32Z</time>
      </trkpt>
      <trkpt lat="57.354807006195188" lon="-5.52382699213922">
        <ele>97.709999999999994</ele>
        <time>2023-08-26T09:12:33Z</time>
      </trkpt>
      <trkpt lat="57.35472603701055" lon="-5.523949032649398">
        <ele>98.189999999999998</ele>
        <time>2023-08-26T09:12:34Z</time>
      </trkpt>
      <trkpt lat="57.354615982621908" lon="-5.524080963805318">
        <ele>98.670000000000002</ele>
        <time>2023-08-26T09:12:35Z</time>
      </trkpt>
      <trkpt lat="57.354499977082014" lon="-5.524174002930522">
        <ele>99.150000000000006</ele>
        <time>2023-08-26T09:12:36Z</time>
      </trkpt>
      <trkpt lat="57.354355975985527" lon="-5.524260001257062">
        <ele>99.629999999999995</ele>
        <time>2023-08-26T09:12:37Z</time>
      </trkpt>
      <trkpt lat="57.354205017909408" lon="-5.524351028725505">
        <ele>99.629999999999995</ele>
        <time>2023-08-26T09:12:38Z</time>
      </trkpt>
      <trkpt lat="57.354059005156159" lon="-5.524438032880426">
        <ele>100.11</ele>
        <time>2023-08-26T09:12:39Z</time>
      </trkpt>
      <trkpt lat="57.353917015716434" lon="-5.524524031206965">
        <ele>100.11</ele>
        <time>2023-08-26T09:12:40Z</time>
      </trkpt>
      <trkpt lat="57.353776032105088" lon="-5.524634001776576">
        <ele>100.11</ele>
        <time>2023-08-26T09:12:41Z</time>
      </trkpt>
      <trkpt lat="57.35365298576653" lon="-5.52476903423667">
        <ele>100.11</ele>
        <time>2023-08-26T09:12:42Z</time>
      </trkpt>
      <trkpt lat="57.353537986055017" lon="-5.524953017011285">
        <ele>100.59999999999999</ele>
        <time>2023-08-26T09:12:43Z</time>
      </trkpt>
      <trkpt lat="57.35343798995018" lon="-5.525144962593913">
        <ele>101.08</ele>
        <time>2023-08-26T09:12:44Z</time>
      </trkpt>
      <trkpt lat="57.353347968310118" lon="-5.525388037785888">
        <ele>101.56</ele>
        <time>2023-08-26T09:12:45Z</time>
      </trkpt>
      <trkpt lat="57.353275967761874" lon="-5.525636980310082">
        <ele>102.04000000000001</ele>
        <time>2023-08-26T09:12:46Z</time>
      </trkpt>
      <trkpt lat="57.353203967213631" lon="-5.525881983339787">
        <ele>102.04000000000001</ele>
        <time>2023-08-26T09:12:47Z</time>
      </trkpt>
      <trkpt lat="57.353132972493768" lon="-5.526126986369491">
        <ele>102.52</ele>
        <time>2023-08-26T09:12:48Z</time>
      </trkpt>
      <trkpt lat="57.353056026622653" lon="-5.526386993005872">
        <ele>103</ele>
        <time>2023-08-26T09:12:49Z</time>
      </trkpt>
      <trkpt lat="57.352977991104126" lon="-5.526644987985492">
        <ele>103</ele>
        <time>2023-08-26T09:12:50Z</time>
      </trkpt>
      <trkpt lat="57.352114990353584" lon="-5.52857500500977">
        <ele>108.29000000000001</ele>
        <time>2023-08-26T09:12:58Z</time>
      </trkpt>
      <trkpt lat="57.351943999528885" lon="-5.529099041596055">
        <ele>110.69</ele>
        <time>2023-08-26T09:13:00Z</time>
      </trkpt>
      <trkpt lat="57.35130999237299" lon="-5.530925039201975">
        <ele>116.94</ele>
        <time>2023-08-26T09:13:07Z</time>
      </trkpt>
      <trkpt lat="57.350997012108564" lon="-5.53158100694418">
        <ele>118.38</ele>
        <time>2023-08-26T09:13:10Z</time>
      </trkpt>
      <trkpt lat="57.350798025727272" lon="-5.532103031873703">
        <ele>118.38</ele>
        <time>2023-08-26T09:13:12Z</time>
      </trkpt>
      <trkpt lat="57.349997973069549" lon="-5.534018967300654">
        <ele>116.45999999999999</ele>
        <time>2023-08-26T09:13:19Z</time>
      </trkpt>
      <trkpt lat="57.349749030545354" lon="-5.534466980025172">
        <ele>115.98</ele>
        <time>2023-08-26T09:13:21Z</time>
      </trkpt>
      <trkpt lat="57.349604023620486" lon="-5.534664960578084">
        <ele>115.98</ele>
        <time>2023-08-26T09:13:22Z</time>
      </trkpt>
      <trkpt lat="57.349208984524012" lon="-5.535201989114285">
        <ele>115.98</ele>
        <time>2023-08-26T09:13:25Z</time>
      </trkpt>
      <trkpt lat="57.349101025611162" lon="-5.535410027951002">
        <ele>115.98</ele>
        <time>2023-08-26T09:13:26Z</time>
      </trkpt>
      <trkpt lat="57.349005974829197" lon="-5.535654025152326">
        <ele>116.45999999999999</ele>
        <time>2023-08-26T09:13:27Z</time>
      </trkpt>
      <trkpt lat="57.348601967096329" lon="-5.536918016150594">
        <ele>120.3</ele>
        <time>2023-08-26T09:13:32Z</time>
      </trkpt>
      <trkpt lat="57.348597021773458" lon="-5.53710300475359">
        <ele>121.26000000000001</ele>
        <time>2023-08-26T09:13:33Z</time>
      </trkpt>
      <trkpt lat="57.34860498458147" lon="-5.537283970043063">
        <ele>122.22</ele>
        <time>2023-08-26T09:13:34Z</time>
      </trkpt>
      <trkpt lat="57.348614959046245" lon="-5.537440963089466">
        <ele>123.19</ele>
        <time>2023-08-26T09:13:35Z</time>
      </trkpt>
      <trkpt lat="57.348660975694656" lon="-5.537608014419675">
        <ele>124.15000000000001</ele>
        <time>2023-08-26T09:13:36Z</time>
      </trkpt>
      <trkpt lat="57.34871101565659" lon="-5.537788979709148">
        <ele>124.15000000000001</ele>
        <time>2023-08-26T09:13:37Z</time>
      </trkpt>
      <trkpt lat="57.348801959306002" lon="-5.537914959713817">
        <ele>124.63</ele>
        <time>2023-08-26T09:13:38Z</time>
      </trkpt>
      <trkpt lat="57.348915031179786" lon="-5.538045968860388">
        <ele>124.63</ele>
        <time>2023-08-26T09:13:39Z</time>
      </trkpt>
      <trkpt lat="57.349032964557409" lon="-5.538185024634004">
        <ele>124.63</ele>
        <time>2023-08-26T09:13:40Z</time>
      </trkpt>
      <trkpt lat="57.349149975925684" lon="-5.538321984931827">
        <ele>124.15000000000001</ele>
        <time>2023-08-26T09:13:41Z</time>
      </trkpt>
      <trkpt lat="57.34937503002584" lon="-5.53862800821662">
        <ele>123.19</ele>
        <time>2023-08-26T09:13:43Z</time>
      </trkpt>
      <trkpt lat="57.349460022523999" lon="-5.538829006254673">
        <ele>122.70999999999999</ele>
        <time>2023-08-26T09:13:44Z</time>
      </trkpt>
      <trkpt lat="57.349537974223495" lon="-5.539053976535797">
        <ele>122.22</ele>
        <time>2023-08-26T09:13:45Z</time>
      </trkpt>
      <trkpt lat="57.349602011963725" lon="-5.539309959858656">
        <ele>121.26000000000001</ele>
        <time>2023-08-26T09:13:46Z</time>
      </trkpt>
      <trkpt lat="57.349668983370066" lon="-5.539580024778843">
        <ele>120.3</ele>
        <time>2023-08-26T09:13:47Z</time>
      </trkpt>
      <trkpt lat="57.350069973617792" lon="-5.541040990501642">
        <ele>113.56999999999999</ele>
        <time>2023-08-26T09:13:52Z</time>
      </trkpt>
      <trkpt lat="57.350325034931302" lon="-5.541817992925644">
        <ele>108.29000000000001</ele>
        <time>2023-08-26T09:13:55Z</time>
      </trkpt>
      <trkpt lat="57.350383037701249" lon="-5.542104989290237">
        <ele>106.84</ele>
        <time>2023-08-26T09:13:56Z</time>
      </trkpt>
      <trkpt lat="57.350426036864519" lon="-5.54238704033196">
        <ele>105.88</ele>
        <time>2023-08-26T09:13:57Z</time>
      </trkpt>
      <trkpt lat="57.35043098218739" lon="-5.542681999504566">
        <ele>105.40000000000001</ele>
        <time>2023-08-26T09:13:58Z</time>
      </trkpt>
      <trkpt lat="57.350425031036139" lon="-5.542981987819076">
        <ele>104.92</ele>
        <time>2023-08-26T09:13:59Z</time>
      </trkpt>
      <trkpt lat="57.350418996065855" lon="-5.543283987790346">
        <ele>104.44</ele>
        <time>2023-08-26T09:14:00Z</time>
      </trkpt>
      <trkpt lat="57.35040700994432" lon="-5.543583976104856">
        <ele>103.95999999999999</ele>
        <time>2023-08-26T09:14:01Z</time>
      </trkpt>
      <trkpt lat="57.350368034094572" lon="-5.543878013268113">
        <ele>103</ele>
        <time>2023-08-26T09:14:02Z</time>
      </trkpt>
      <trkpt lat="57.349948016926646" lon="-5.547073027119041">
        <ele>102.04000000000001</ele>
        <time>2023-08-26T09:14:13Z</time>
      </trkpt>
      <trkpt lat="57.349917003884912" lon="-5.547372009605169">
        <ele>102.04000000000001</ele>
        <time>2023-08-26T09:14:14Z</time>
      </trkpt>
      <trkpt lat="57.349609974771738" lon="-5.549624981358647">
        <ele>98.189999999999998</ele>
        <time>2023-08-26T09:14:21Z</time>
      </trkpt>
      <trkpt lat="57.349535962566733" lon="-5.549935027956963">
        <ele>96.75</ele>
        <time>2023-08-26T09:14:22Z</time>
      </trkpt>
      <trkpt lat="57.348849987611175" lon="-5.552255976945162">
        <ele>88.579999999999998</ele>
        <time>2023-08-26T09:14:30Z</time>
      </trkpt>
      <trkpt lat="57.347753969952464" lon="-5.554623026400805">
        <ele>78.969999999999999</ele>
        <time>2023-08-26T09:14:40Z</time>
      </trkpt>
      <trkpt lat="57.347115017473698" lon="-5.556464027613401">
        <ele>73.680000000000007</ele>
        <time>2023-08-26T09:14:47Z</time>
      </trkpt>
      <trkpt lat="57.346492996439338" lon="-5.558952027931809">
        <ele>65.510000000000005</ele>
        <time>2023-08-26T09:14:56Z</time>
      </trkpt>
      <trkpt lat="57.345988992601633" lon="-5.560106970369816">
        <ele>59.259999999999998</ele>
        <time>2023-08-26T09:15:02Z</time>
      </trkpt>
      <trkpt lat="57.345849014818668" lon="-5.560346022248268">
        <ele>54.450000000000003</ele>
        <time>2023-08-26T09:15:07Z</time>
      </trkpt>
      <trkpt lat="57.345864018425345" lon="-5.560513995587826">
        <ele>50.609999999999999</ele>
        <time>2023-08-26T09:15:14Z</time>
      </trkpt>
      <trkpt lat="57.345878016203642" lon="-5.560558000579476">
        <ele>50.130000000000003</ele>
        <time>2023-08-26T09:15:15Z</time>
      </trkpt>
      <trkpt lat="57.345899976789951" lon="-5.560623966157436">
        <ele>49.159999999999997</ele>
        <time>2023-08-26T09:15:16Z</time>
      </trkpt>
      <trkpt lat="57.345931995660067" lon="-5.560721028596163">
        <ele>48.68</ele>
        <time>2023-08-26T09:15:17Z</time>
      </trkpt>
      <trkpt lat="57.345994021743536" lon="-5.560906017199159">
        <ele>48.200000000000003</ele>
        <time>2023-08-26T09:15:18Z</time>
      </trkpt>
      <trkpt lat="57.34598396345973" lon="-5.561027973890305">
        <ele>47.719999999999999</ele>
        <time>2023-08-26T09:15:19Z</time>
      </trkpt>
      <trkpt lat="57.345946999266744" lon="-5.561220003291965">
        <ele>46.759999999999998</ele>
        <time>2023-08-26T09:15:20Z</time>
      </trkpt>
      <trkpt lat="57.345885979011655" lon="-5.561355035752058">
        <ele>46.280000000000001</ele>
        <time>2023-08-26T09:15:21Z</time>
      </trkpt>
      <trkpt lat="57.345805009827018" lon="-5.561495013535023">
        <ele>45.799999999999997</ele>
        <time>2023-08-26T09:15:22Z</time>
      </trkpt>
      <trkpt lat="57.345712976530194" lon="-5.561637002974749">
        <ele>45.32</ele>
        <time>2023-08-26T09:15:23Z</time>
      </trkpt>
      <trkpt lat="57.34522900544107" lon="-5.56239103898406">
        <ele>41.950000000000003</ele>
        <time>2023-08-26T09:15:28Z</time>
      </trkpt>
      <trkpt lat="57.345130015164614" lon="-5.562537973746657">
        <ele>41.469999999999999</ele>
        <time>2023-08-26T09:15:29Z</time>
      </trkpt>
      <trkpt lat="57.345021972432733" lon="-5.562568986788392">
        <ele>40.990000000000002</ele>
        <time>2023-08-26T09:15:30Z</time>
      </trkpt>
      <trkpt lat="57.344916025176644" lon="-5.562599999830127">
        <ele>40.509999999999998</ele>
        <time>2023-08-26T09:15:31Z</time>
      </trkpt>
      <trkpt lat="57.344801025465131" lon="-5.562620032578707">
        <ele>40.509999999999998</ele>
        <time>2023-08-26T09:15:32Z</time>
      </trkpt>
      <trkpt lat="57.344686025753617" lon="-5.562610980123282">
        <ele>40.030000000000001</ele>
        <time>2023-08-26T09:15:33Z</time>
      </trkpt>
      <trkpt lat="57.34432996250689" lon="-5.562583990395069">
        <ele>38.590000000000003</ele>
        <time>2023-08-26T09:15:36Z</time>
      </trkpt>
      <trkpt lat="57.344205994158983" lon="-5.56260796263814">
        <ele>37.630000000000003</ele>
        <time>2023-08-26T09:15:37Z</time>
      </trkpt>
      <trkpt lat="57.343740966171026" lon="-5.562794040888548">
        <ele>34.740000000000002</ele>
        <time>2023-08-26T09:15:41Z</time>
      </trkpt>
      <trkpt lat="57.34368204139173" lon="-5.562889007851481">
        <ele>34.259999999999998</ele>
        <time>2023-08-26T09:15:42Z</time>
      </trkpt>
      <trkpt lat="57.343611968681216" lon="-5.562998978421092">
        <ele>33.299999999999997</ele>
        <time>2023-08-26T09:15:43Z</time>
      </trkpt>
      <trkpt lat="57.342771012336016" lon="-5.564284007996321">
        <ele>25.129999999999999</ele>
        <time>2023-08-26T09:15:55Z</time>
      </trkpt>
      <trkpt lat="57.341959979385138" lon="-5.564736966043711">
        <ele>23.210000000000001</ele>
        <time>2023-08-26T09:16:04Z</time>
      </trkpt>
      <trkpt lat="57.340965969488025" lon="-5.564767979085445">
        <ele>21.77</ele>
        <time>2023-08-26T09:16:13Z</time>
      </trkpt>
      <trkpt lat="57.340034991502762" lon="-5.564667982980609">
        <ele>17.440000000000001</ele>
        <time>2023-08-26T09:16:23Z</time>
      </trkpt>
      <trkpt lat="57.339098984375596" lon="-5.564643004909158">
        <ele>12.15</ele>
        <time>2023-08-26T09:16:32Z</time>
      </trkpt>
      <trkpt lat="57.339011980220675" lon="-5.564700001850724">
        <ele>11.67</ele>
        <time>2023-08-26T09:16:33Z</time>
      </trkpt>
      <trkpt lat="57.338919024914503" lon="-5.564760016277432">
        <ele>11.19</ele>
        <time>2023-08-26T09:16:34Z</time>
      </trkpt>
      <trkpt lat="57.338818022981286" lon="-5.564825981855393">
        <ele>10.710000000000001</ele>
        <time>2023-08-26T09:16:35Z</time>
      </trkpt>
      <trkpt lat="57.338709980249405" lon="-5.564909968525171">
        <ele>10.23</ele>
        <time>2023-08-26T09:16:36Z</time>
      </trkpt>
      <trkpt lat="57.338601015508175" lon="-5.565028991550207">
        <ele>10.23</ele>
        <time>2023-08-26T09:16:37Z</time>
      </trkpt>
      <trkpt lat="57.338504958897829" lon="-5.565133010968566">
        <ele>10.23</ele>
        <time>2023-08-26T09:16:38Z</time>
      </trkpt>
      <trkpt lat="57.338421978056431" lon="-5.565341971814632">
        <ele>10.23</ele>
        <time>2023-08-26T09:16:39Z</time>
      </trkpt>
      <trkpt lat="57.338348971679807" lon="-5.565525032579899">
        <ele>10.710000000000001</ele>
        <time>2023-08-26T09:16:40Z</time>
      </trkpt>
      <trkpt lat="57.338277976959944" lon="-5.56570197455585">
        <ele>11.19</ele>
        <time>2023-08-26T09:16:41Z</time>
      </trkpt>
      <trkpt lat="57.33820497058332" lon="-5.565884029492736">
        <ele>11.67</ele>
        <time>2023-08-26T09:16:42Z</time>
      </trkpt>
      <trkpt lat="57.33818200416863" lon="-5.566083015874028">
        <ele>11.67</ele>
        <time>2023-08-26T09:16:43Z</time>
      </trkpt>
      <trkpt lat="57.338156020268798" lon="-5.566312009468675">
        <ele>12.630000000000001</ele>
        <time>2023-08-26T09:16:44Z</time>
      </trkpt>
      <trkpt lat="57.338146967813373" lon="-5.566532034426928">
        <ele>13.6</ele>
        <time>2023-08-26T09:16:45Z</time>
      </trkpt>
      <trkpt lat="57.33816297724843" lon="-5.56677401997149">
        <ele>14.56</ele>
        <time>2023-08-26T09:16:46Z</time>
      </trkpt>
      <trkpt lat="57.338178986683488" lon="-5.567022962495685">
        <ele>15.039999999999999</ele>
        <time>2023-08-26T09:16:47Z</time>
      </trkpt>
      <trkpt lat="57.338219974189997" lon="-5.567253967747092">
        <ele>16</ele>
        <time>2023-08-26T09:16:48Z</time>
      </trkpt>
      <trkpt lat="57.338274037465453" lon="-5.567497964948416">
        <ele>16.48</ele>
        <time>2023-08-26T09:16:49Z</time>
      </trkpt>
      <trkpt lat="57.338677039369941" lon="-5.568948034197092">
        <ele>19.84</ele>
        <time>2023-08-26T09:16:55Z</time>
      </trkpt>
      <trkpt lat="57.338850041851401" lon="-5.569383976981044">
        <ele>20.32</ele>
        <time>2023-08-26T09:16:57Z</time>
      </trkpt>
      <trkpt lat="57.33895699493587" lon="-5.569553961977363">
        <ele>20.809999999999999</ele>
        <time>2023-08-26T09:16:58Z</time>
      </trkpt>
      <trkpt lat="57.339064031839371" lon="-5.569725958630443">
        <ele>20.809999999999999</ele>
        <time>2023-08-26T09:16:59Z</time>
      </trkpt>
      <trkpt lat="57.33917098492384" lon="-5.569897033274174">
        <ele>20.32</ele>
        <time>2023-08-26T09:17:00Z</time>
      </trkpt>
      <trkpt lat="57.339291013777256" lon="-5.570038016885519">
        <ele>20.809999999999999</ele>
        <time>2023-08-26T09:17:01Z</time>
      </trkpt>
      <trkpt lat="57.340487027540803" lon="-5.571860997006297">
        <ele>21.289999999999999</ele>
        <time>2023-08-26T09:17:11Z</time>
      </trkpt>
      <trkpt lat="57.340706968680024" lon="-5.572216976433992">
        <ele>21.77</ele>
        <time>2023-08-26T09:17:13Z</time>
      </trkpt>
      <trkpt lat="57.340794978663325" lon="-5.572415040805936">
        <ele>21.77</ele>
        <time>2023-08-26T09:17:14Z</time>
      </trkpt>
      <trkpt lat="57.340863039717078" lon="-5.572631964460015">
        <ele>22.25</ele>
        <time>2023-08-26T09:17:15Z</time>
      </trkpt>
      <trkpt lat="57.340906038880348" lon="-5.572859030216932">
        <ele>22.25</ele>
        <time>2023-08-26T09:17:16Z</time>
      </trkpt>
      <trkpt lat="57.340935040265322" lon="-5.573093974962831">
        <ele>22.73</ele>
        <time>2023-08-26T09:17:17Z</time>
      </trkpt>
      <trkpt lat="57.340948032215238" lon="-5.573319029062986">
        <ele>22.73</ele>
        <time>2023-08-26T09:17:18Z</time>
      </trkpt>
      <trkpt lat="57.340939985588193" lon="-5.573552967980504">
        <ele>22.73</ele>
        <time>2023-08-26T09:17:19Z</time>
      </trkpt>
      <trkpt lat="57.34093202278018" lon="-5.573787996545434">
        <ele>22.73</ele>
        <time>2023-08-26T09:17:20Z</time>
      </trkpt>
      <trkpt lat="57.340908972546458" lon="-5.57444698177278">
        <ele>21.289999999999999</ele>
        <time>2023-08-26T09:17:23Z</time>
      </trkpt>
      <trkpt lat="57.340858010575175" lon="-5.574656026437879">
        <ele>20.809999999999999</ele>
        <time>2023-08-26T09:17:24Z</time>
      </trkpt>
      <trkpt lat="57.340703029185534" lon="-5.575288021937013">
        <ele>18.879999999999999</ele>
        <time>2023-08-26T09:17:27Z</time>
      </trkpt>
      <trkpt lat="57.340630022808909" lon="-5.575452977791429">
        <ele>18.399999999999999</ele>
        <time>2023-08-26T09:17:28Z</time>
      </trkpt>
      <trkpt lat="57.34054503031075" lon="-5.575622962787747">
        <ele>17.920000000000002</ele>
        <time>2023-08-26T09:17:29Z</time>
      </trkpt>
      <trkpt lat="57.340225009247661" lon="-5.576263004913926">
        <ele>15.039999999999999</ele>
        <time>2023-08-26T09:17:33Z</time>
      </trkpt>
      <trkpt lat="57.340182010084391" lon="-5.576383033767343">
        <ele>14.56</ele>
        <time>2023-08-26T09:17:34Z</time>
      </trkpt>
      <trkpt lat="57.340192990377545" lon="-5.57650800794363">
        <ele>14.08</ele>
        <time>2023-08-26T09:17:35Z</time>
      </trkpt>
      <trkpt lat="57.340215034782887" lon="-5.576631976291537">
        <ele>14.08</ele>
        <time>2023-08-26T09:17:36Z</time>
      </trkpt>
      <trkpt lat="57.340264990925789" lon="-5.576775977388024">
        <ele>13.6</ele>
        <time>2023-08-26T09:17:37Z</time>
      </trkpt>
      <trkpt lat="57.340361969545484" lon="-5.577156012877822">
        <ele>13.6</ele>
        <time>2023-08-26T09:17:39Z</time>
      </trkpt>
      <trkpt lat="57.340377978980541" lon="-5.577354999259114">
        <ele>13.6</ele>
        <time>2023-08-26T09:17:40Z</time>
      </trkpt>
      <trkpt lat="57.340393988415599" lon="-5.577555997297168">
        <ele>13.6</ele>
        <time>2023-08-26T09:17:41Z</time>
      </trkpt>
      <trkpt lat="57.340411003679037" lon="-5.577762024477124">
        <ele>13.6</ele>
        <time>2023-08-26T09:17:42Z</time>
      </trkpt>
      <trkpt lat="57.340454002842307" lon="-5.577957993373275">
        <ele>13.6</ele>
        <time>2023-08-26T09:17:43Z</time>
      </trkpt>
      <trkpt lat="57.340508988127112" lon="-5.578157985582948">
        <ele>13.6</ele>
        <time>2023-08-26T09:17:44Z</time>
      </trkpt>
      <trkpt lat="57.340564979240298" lon="-5.578363006934524">
        <ele>13.119999999999999</ele>
        <time>2023-08-26T09:17:45Z</time>
      </trkpt>
      <trkpt lat="57.340621976181865" lon="-5.57857196778059">
        <ele>13.6</ele>
        <time>2023-08-26T09:17:46Z</time>
      </trkpt>
      <trkpt lat="57.340737981721759" lon="-5.578997014090419">
        <ele>13.6</ele>
        <time>2023-08-26T09:17:48Z</time>
      </trkpt>
      <trkpt lat="57.340919030830264" lon="-5.579600008204579">
        <ele>13.119999999999999</ele>
        <time>2023-08-26T09:17:51Z</time>
      </trkpt>
      <trkpt lat="57.340983990579844" lon="-5.579803017899394">
        <ele>12.630000000000001</ele>
        <time>2023-08-26T09:17:52Z</time>
      </trkpt>
      <trkpt lat="57.341050961986184" lon="-5.580011978745461">
        <ele>12.630000000000001</ele>
        <time>2023-08-26T09:17:53Z</time>
      </trkpt>
      <trkpt lat="57.341122962534428" lon="-5.580238960683346">
        <ele>12.15</ele>
        <time>2023-08-26T09:17:54Z</time>
      </trkpt>
      <trkpt lat="57.341206027194858" lon="-5.580411041155458">
        <ele>12.630000000000001</ele>
        <time>2023-08-26T09:17:55Z</time>
      </trkpt>
      <trkpt lat="57.341293031349778" lon="-5.58058999478817">
        <ele>12.630000000000001</ele>
        <time>2023-08-26T09:17:56Z</time>
      </trkpt>
      <trkpt lat="57.341725034639239" lon="-5.581481996923685">
        <ele>12.15</ele>
        <time>2023-08-26T09:18:01Z</time>
      </trkpt>
      <trkpt lat="57.341815978288651" lon="-5.581695986911655">
        <ele>12.15</ele>
        <time>2023-08-26T09:18:02Z</time>
      </trkpt>
      <trkpt lat="57.341887978836894" lon="-5.581916011869907">
        <ele>12.15</ele>
        <time>2023-08-26T09:18:03Z</time>
      </trkpt>
      <trkpt lat="57.342597004026175" lon="-5.583901014178991">
        <ele>13.6</ele>
        <time>2023-08-26T09:18:12Z</time>
      </trkpt>
      <trkpt lat="57.342985002323985" lon="-5.585362985730171">
        <ele>15.039999999999999</ele>
        <time>2023-08-26T09:18:18Z</time>
      </trkpt>
      <trkpt lat="57.343216007575393" lon="-5.586355989798904">
        <ele>18.399999999999999</ele>
        <time>2023-08-26T09:18:22Z</time>
      </trkpt>
      <trkpt lat="57.343493029475212" lon="-5.587920974940062">
        <ele>21.289999999999999</ele>
        <time>2023-08-26T09:18:28Z</time>
      </trkpt>
      <trkpt lat="57.343514990061522" lon="-5.588178969919682">
        <ele>21.77</ele>
        <time>2023-08-26T09:18:29Z</time>
      </trkpt>
      <trkpt lat="57.343535022810102" lon="-5.588425984606147">
        <ele>22.25</ele>
        <time>2023-08-26T09:18:30Z</time>
      </trkpt>
      <trkpt lat="57.34355497173965" lon="-5.588657995685935">
        <ele>22.73</ele>
        <time>2023-08-26T09:18:31Z</time>
      </trkpt>
      <trkpt lat="57.343573998659849" lon="-5.58888397179544">
        <ele>23.210000000000001</ele>
        <time>2023-08-26T09:18:32Z</time>
      </trkpt>
      <trkpt lat="57.343591013923287" lon="-5.589080024510622">
        <ele>24.170000000000002</ele>
        <time>2023-08-26T09:18:33Z</time>
      </trkpt>
      <trkpt lat="57.343586990609765" lon="-5.589317986741662">
        <ele>25.129999999999999</ele>
        <time>2023-08-26T09:18:34Z</time>
      </trkpt>
      <trkpt lat="57.343579027801752" lon="-5.589717971161008">
        <ele>28.02</ele>
        <time>2023-08-26T09:18:36Z</time>
      </trkpt>
      <trkpt lat="57.343587996438146" lon="-5.59051500633359">
        <ele>32.340000000000003</ele>
        <time>2023-08-26T09:18:40Z</time>
      </trkpt>
      <trkpt lat="57.343611968681216" lon="-5.59083896689117">
        <ele>34.259999999999998</ele>
        <time>2023-08-26T09:18:42Z</time>
      </trkpt>
      <trkpt lat="57.343582967296243" lon="-5.590971987694502">
        <ele>34.740000000000002</ele>
        <time>2023-08-26T09:18:43Z</time>
      </trkpt>
      <trkpt lat="57.343515995889902" lon="-5.591280022636056">
        <ele>36.189999999999998</ele>
        <time>2023-08-26T09:18:45Z</time>
      </trkpt>
      <trkpt lat="57.34344600699842" lon="-5.591597026214004">
        <ele>37.149999999999999</ele>
        <time>2023-08-26T09:18:47Z</time>
      </trkpt>
      <trkpt lat="57.343417005613446" lon="-5.591723006218672">
        <ele>37.630000000000003</ele>
        <time>2023-08-26T09:18:48Z</time>
      </trkpt>
      <trkpt lat="57.343348022550344" lon="-5.591856027022004">
        <ele>38.109999999999999</ele>
        <time>2023-08-26T09:18:49Z</time>
      </trkpt>
      <trkpt lat="57.343119028955698" lon="-5.59229901060462">
        <ele>39.07</ele>
        <time>2023-08-26T09:18:52Z</time>
      </trkpt>
      <trkpt lat="57.343078963458538" lon="-5.59240504167974">
        <ele>39.07</ele>
        <time>2023-08-26T09:18:53Z</time>
      </trkpt>
      <trkpt lat="57.342957006767392" lon="-5.59272900223732">
        <ele>40.030000000000001</ele>
        <time>2023-08-26T09:18:55Z</time>
      </trkpt>
      <trkpt lat="57.342907972633839" lon="-5.592928994446993">
        <ele>40.509999999999998</ele>
        <time>2023-08-26T09:18:56Z</time>
      </trkpt>
      <trkpt lat="57.342878971248865" lon="-5.593113983049989">
        <ele>40.990000000000002</ele>
        <time>2023-08-26T09:18:57Z</time>
      </trkpt>
      <trkpt lat="57.342849969863892" lon="-5.593299977481365">
        <ele>40.990000000000002</ele>
        <time>2023-08-26T09:18:58Z</time>
      </trkpt>
      <trkpt lat="57.342819040641189" lon="-5.593496030196548">
        <ele>41.469999999999999</ele>
        <time>2023-08-26T09:18:59Z</time>
      </trkpt>
      <trkpt lat="57.342834966257215" lon="-5.59414504095912">
        <ele>42.439999999999998</ele>
        <time>2023-08-26T09:19:02Z</time>
      </trkpt>
      <trkpt lat="57.342839995399117" lon="-5.594345033168793">
        <ele>42.920000000000002</ele>
        <time>2023-08-26T09:19:03Z</time>
      </trkpt>
      <trkpt lat="57.342851981520653" lon="-5.594778964295983">
        <ele>43.880000000000003</ele>
        <time>2023-08-26T09:19:05Z</time>
      </trkpt>
      <trkpt lat="57.342876037582755" lon="-5.595700973644853">
        <ele>46.759999999999998</ele>
        <time>2023-08-26T09:19:09Z</time>
      </trkpt>
      <trkpt lat="57.342894980683923" lon="-5.59644402936101">
        <ele>47.719999999999999</ele>
        <time>2023-08-26T09:19:12Z</time>
      </trkpt>
      <trkpt lat="57.342901015654206" lon="-5.596696995198727">
        <ele>48.200000000000003</ele>
        <time>2023-08-26T09:19:13Z</time>
      </trkpt>
      <trkpt lat="57.342889029532671" lon="-5.596943004056811">
        <ele>48.200000000000003</ele>
        <time>2023-08-26T09:19:14Z</time>
      </trkpt>
      <trkpt lat="57.342860028147697" lon="-5.59719798155129">
        <ele>48.200000000000003</ele>
        <time>2023-08-26T09:19:15Z</time>
      </trkpt>
      <trkpt lat="57.342831026762724" lon="-5.597452959045768">
        <ele>48.68</ele>
        <time>2023-08-26T09:19:16Z</time>
      </trkpt>
      <trkpt lat="57.34280101954937" lon="-5.59771103784442">
        <ele>48.68</ele>
        <time>2023-08-26T09:19:17Z</time>
      </trkpt>
      <trkpt lat="57.342773023992777" lon="-5.597962997853756">
        <ele>48.68</ele>
        <time>2023-08-26T09:19:18Z</time>
      </trkpt>
      <trkpt lat="57.342606978490949" lon="-5.599424969404936">
        <ele>47.719999999999999</ele>
        <time>2023-08-26T09:19:25Z</time>
      </trkpt>
      <trkpt lat="57.342519974336028" lon="-5.599931990727782">
        <ele>46.280000000000001</ele>
        <time>2023-08-26T09:19:28Z</time>
      </trkpt>
      <trkpt lat="57.342468006536365" lon="-5.600107004866004">
        <ele>45.799999999999997</ele>
        <time>2023-08-26T09:19:29Z</time>
      </trkpt>
      <trkpt lat="57.342405980452895" lon="-5.600244970992208">
        <ele>45.799999999999997</ele>
        <time>2023-08-26T09:19:30Z</time>
      </trkpt>
      <trkpt lat="57.342247981578112" lon="-5.600557029247284">
        <ele>44.359999999999999</ele>
        <time>2023-08-26T09:19:32Z</time>
      </trkpt>
      <trkpt lat="57.341975988820195" lon="-5.600880989804864">
        <ele>42.920000000000002</ele>
        <time>2023-08-26T09:19:35Z</time>
      </trkpt>
      <trkpt lat="57.341888984665275" lon="-5.600985009223223">
        <ele>41.950000000000003</ele>
        <time>2023-08-26T09:19:36Z</time>
      </trkpt>
      <trkpt lat="57.341823019087315" lon="-5.601073019206524">
        <ele>40.509999999999998</ele>
        <time>2023-08-26T09:19:37Z</time>
      </trkpt>
      <trkpt lat="57.341756969690323" lon="-5.601233029738069">
        <ele>39.549999999999997</ele>
        <time>2023-08-26T09:19:38Z</time>
      </trkpt>
      <trkpt lat="57.341691004112363" lon="-5.601393040269613">
        <ele>38.590000000000003</ele>
        <time>2023-08-26T09:19:39Z</time>
      </trkpt>
      <trkpt lat="57.341624032706022" lon="-5.601555984467268">
        <ele>37.630000000000003</ele>
        <time>2023-08-26T09:19:40Z</time>
      </trkpt>
      <trkpt lat="57.341554965823889" lon="-5.601722029969096">
        <ele>36.670000000000002</ele>
        <time>2023-08-26T09:19:41Z</time>
      </trkpt>
      <trkpt lat="57.341481959447265" lon="-5.601898971945047">
        <ele>35.229999999999997</ele>
        <time>2023-08-26T09:19:42Z</time>
      </trkpt>
      <trkpt lat="57.341056996956468" lon="-5.603323979303241">
        <ele>28.98</ele>
        <time>2023-08-26T09:19:49Z</time>
      </trkpt>
      <trkpt lat="57.340885000303388" lon="-5.603972990065813">
        <ele>27.050000000000001</ele>
        <time>2023-08-26T09:19:52Z</time>
      </trkpt>
      <trkpt lat="57.340589035302401" lon="-5.604680003598332">
        <ele>24.170000000000002</ele>
        <time>2023-08-26T09:19:56Z</time>
      </trkpt>
      <trkpt lat="57.340503958985209" lon="-5.604867003858089">
        <ele>23.210000000000001</ele>
        <time>2023-08-26T09:19:57Z</time>
      </trkpt>
      <trkpt lat="57.340174969285727" lon="-5.605524983257055">
        <ele>20.32</ele>
        <time>2023-08-26T09:20:01Z</time>
      </trkpt>
      <trkpt lat="57.340089976787567" lon="-5.605694968253374">
        <ele>19.84</ele>
        <time>2023-08-26T09:20:02Z</time>
      </trkpt>
      <trkpt lat="57.340029962360859" lon="-5.605865959078074">
        <ele>18.879999999999999</ele>
        <time>2023-08-26T09:20:03Z</time>
      </trkpt>
      <trkpt lat="57.33992300927639" lon="-5.606240965425968">
        <ele>17.920000000000002</ele>
        <time>2023-08-26T09:20:05Z</time>
      </trkpt>
      <trkpt lat="57.339761992916465" lon="-5.6081129796803">
        <ele>12.15</ele>
        <time>2023-08-26T09:20:13Z</time>
      </trkpt>
      <trkpt lat="57.339743971824646" lon="-5.608369968831539">
        <ele>11.19</ele>
        <time>2023-08-26T09:20:14Z</time>
      </trkpt>
      <trkpt lat="57.339656967669725" lon="-5.609539998695254">
        <ele>7.35</ele>
        <time>2023-08-26T09:20:19Z</time>
      </trkpt>
      <trkpt lat="57.339585972949862" lon="-5.609648963436484">
        <ele>6.39</ele>
        <time>2023-08-26T09:20:20Z</time>
      </trkpt>
      <trkpt lat="57.339511960744858" lon="-5.609763041138649">
        <ele>5.42</ele>
        <time>2023-08-26T09:20:21Z</time>
      </trkpt>
      <trkpt lat="57.339376006275415" lon="-5.609969990327954">
        <ele>3.5</ele>
        <time>2023-08-26T09:20:23Z</time>
      </trkpt>
      <trkpt lat="57.339298976585269" lon="-5.610087001696229">
        <ele>2.54</ele>
        <time>2023-08-26T09:20:24Z</time>
      </trkpt>
      <trkpt lat="57.339290007948875" lon="-5.610152967274189">
        <ele>1.58</ele>
        <time>2023-08-26T09:20:25Z</time>
      </trkpt>
      <trkpt lat="57.339270981028676" lon="-5.61028397642076">
        <ele>0.14</ele>
        <time>2023-08-26T09:20:26Z</time>
      </trkpt>
      <trkpt lat="57.339247008785605" lon="-5.610445998609066">
        <ele>-0.82</ele>
        <time>2023-08-26T09:20:27Z</time>
      </trkpt>
      <trkpt lat="57.339219013229012" lon="-5.610639033839107">
        <ele>-2.27</ele>
        <time>2023-08-26T09:20:28Z</time>
      </trkpt>
      <trkpt lat="57.339123040437698" lon="-5.611306987702847">
        <ele>-5.63</ele>
        <time>2023-08-26T09:20:31Z</time>
      </trkpt>
      <trkpt lat="57.3390849865973" lon="-5.611568000167608">
        <ele>-6.59</ele>
        <time>2023-08-26T09:20:32Z</time>
      </trkpt>
      <trkpt lat="57.338734958320856" lon="-5.61253703199327">
        <ele>-11.880000000000001</ele>
        <time>2023-08-26T09:20:37Z</time>
      </trkpt>
      <trkpt lat="57.338665975257754" lon="-5.612725960090756">
        <ele>-12.84</ele>
        <time>2023-08-26T09:20:38Z</time>
      </trkpt>
      <trkpt lat="57.338149985298514" lon="-5.614143004640937">
        <ele>-16.690000000000001</ele>
        <time>2023-08-26T09:20:45Z</time>
      </trkpt>
      <trkpt lat="57.338078990578651" lon="-5.61427703127265">
        <ele>-16.690000000000001</ele>
        <time>2023-08-26T09:20:46Z</time>
      </trkpt>
      <trkpt lat="57.337975976988673" lon="-5.614470988512039">
        <ele>-17.649999999999999</ele>
        <time>2023-08-26T09:20:51Z</time>
      </trkpt>
      <trkpt lat="57.337802974507213" lon="-5.614787992089987">
        <ele>-15.720000000000001</ele>
        <time>2023-08-26T09:20:58Z</time>
      </trkpt>
      <trkpt lat="57.337660985067487" lon="-5.615004999563098">
        <ele>-15.720000000000001</ele>
        <time>2023-08-26T09:21:00Z</time>
      </trkpt>
      <trkpt lat="57.337309028953314" lon="-5.615664990618825">
        <ele>-14.76</ele>
        <time>2023-08-26T09:21:05Z</time>
      </trkpt>
      <trkpt lat="57.33710803091526" lon="-5.616391031071544">
        <ele>-12.84</ele>
        <time>2023-08-26T09:21:09Z</time>
      </trkpt>
      <trkpt lat="57.337009962648153" lon="-5.616744998842478">
        <ele>-11.880000000000001</ele>
        <time>2023-08-26T09:21:11Z</time>
      </trkpt>
      <trkpt lat="57.336950032040477" lon="-5.616891011595726">
        <ele>-10.92</ele>
        <time>2023-08-26T09:21:12Z</time>
      </trkpt>
      <trkpt lat="57.336877025663853" lon="-5.616994025185704">
        <ele>-9.960000000000001</ele>
        <time>2023-08-26T09:21:13Z</time>
      </trkpt>
      <trkpt lat="57.33680997043848" lon="-5.617088992148638">
        <ele>-9.48</ele>
        <time>2023-08-26T09:21:14Z</time>
      </trkpt>
      <trkpt lat="57.33672397211194" lon="-5.617211032658815">
        <ele>-9</ele>
        <time>2023-08-26T09:21:15Z</time>
      </trkpt>
      <trkpt lat="57.336639985442162" lon="-5.617249002680183">
        <ele>-9</ele>
        <time>2023-08-26T09:21:16Z</time>
      </trkpt>
      <trkpt lat="57.336476035416126" lon="-5.617323014885187">
        <ele>-9</ele>
        <time>2023-08-26T09:21:18Z</time>
      </trkpt>
      <trkpt lat="57.336407974362373" lon="-5.617353022098541">
        <ele>-9.48</ele>
        <time>2023-08-26T09:21:19Z</time>
      </trkpt>
      <trkpt lat="57.336294986307621" lon="-5.617403984069824">
        <ele>-9.960000000000001</ele>
        <time>2023-08-26T09:21:20Z</time>
      </trkpt>
      <trkpt lat="57.336290962994099" lon="-5.617429967969656">
        <ele>-10.44</ele>
        <time>2023-08-26T09:21:21Z</time>
      </trkpt>
      <trkpt lat="57.33627101406455" lon="-5.617557037621737">
        <ele>-10.44</ele>
        <time>2023-08-26T09:21:22Z</time>
      </trkpt>
      <trkpt lat="57.336248969659209" lon="-5.61769500374794">
        <ele>-10.44</ele>
        <time>2023-08-26T09:21:23Z</time>
      </trkpt>
      <trkpt lat="57.336252992972732" lon="-5.617869012057781">
        <ele>-10.44</ele>
        <time>2023-08-26T09:21:24Z</time>
      </trkpt>
      <trkpt lat="57.336337985470891" lon="-5.618090964853764">
        <ele>-9.48</ele>
        <time>2023-08-26T09:21:25Z</time>
      </trkpt>
      <trkpt lat="57.336349971592426" lon="-5.618177969008684">
        <ele>-8.51</ele>
        <time>2023-08-26T09:21:26Z</time>
      </trkpt>
      <trkpt lat="57.336403029039502" lon="-5.618583988398314">
        <ele>-7.55</ele>
        <time>2023-08-26T09:21:28Z</time>
      </trkpt>
      <trkpt lat="57.336396994069219" lon="-5.618731006979942">
        <ele>-7.07</ele>
        <time>2023-08-26T09:21:29Z</time>
      </trkpt>
      <trkpt lat="57.336390959098935" lon="-5.6188989803195">
        <ele>-7.07</ele>
        <time>2023-08-26T09:21:30Z</time>
      </trkpt>
      <trkpt lat="57.336384002119303" lon="-5.619067037478089">
        <ele>-7.07</ele>
        <time>2023-08-26T09:21:31Z</time>
      </trkpt>
      <trkpt lat="57.336358018219471" lon="-5.61924297362566">
        <ele>-7.07</ele>
        <time>2023-08-26T09:21:32Z</time>
      </trkpt>
      <trkpt lat="57.336324993520975" lon="-5.619386974722147">
        <ele>-6.59</ele>
        <time>2023-08-26T09:21:33Z</time>
      </trkpt>
      <trkpt lat="57.33629297465086" lon="-5.619528964161873">
        <ele>-6.59</ele>
        <time>2023-08-26T09:21:34Z</time>
      </trkpt>
      <trkpt lat="57.336274031549692" lon="-5.619614040479064">
        <ele>-6.11</ele>
        <time>2023-08-26T09:21:35Z</time>
      </trkpt>
      <trkpt lat="57.336219968274236" lon="-5.619827024638653">
        <ele>-5.63</ele>
        <time>2023-08-26T09:21:36Z</time>
      </trkpt>
      <trkpt lat="57.336180992424488" lon="-5.619981000199914">
        <ele>-5.15</ele>
        <time>2023-08-26T09:21:37Z</time>
      </trkpt>
      <trkpt lat="57.336102034896612" lon="-5.620291968807578">
        <ele>-4.67</ele>
        <time>2023-08-26T09:21:39Z</time>
      </trkpt>
      <trkpt lat="57.336059035733342" lon="-5.620458014309406">
        <ele>-4.19</ele>
        <time>2023-08-26T09:21:40Z</time>
      </trkpt>
      <trkpt lat="57.33601301908493" lon="-5.620641997084022">
        <ele>-4.19</ele>
        <time>2023-08-26T09:21:41Z</time>
      </trkpt>
      <trkpt lat="57.335844961926341" lon="-5.621416987851262">
        <ele>-1.79</ele>
        <time>2023-08-26T09:21:45Z</time>
      </trkpt>
      <trkpt lat="57.335836999118328" lon="-5.621558977290988">
        <ele>-1.3</ele>
        <time>2023-08-26T09:21:46Z</time>
      </trkpt>
      <trkpt lat="57.335830964148045" lon="-5.621838010847569">
        <ele>-0.34</ele>
        <time>2023-08-26T09:21:47Z</time>
      </trkpt>
      <trkpt lat="57.335866000503302" lon="-5.62201302498579">
        <ele>0.14</ele>
        <time>2023-08-26T09:21:48Z</time>
      </trkpt>
      <trkpt lat="57.335904976353049" lon="-5.622202036902309">
        <ele>0.62</ele>
        <time>2023-08-26T09:21:49Z</time>
      </trkpt>
      <trkpt lat="57.335945963859558" lon="-5.622396999970079">
        <ele>1.58</ele>
        <time>2023-08-26T09:21:50Z</time>
      </trkpt>
      <trkpt lat="57.335973037406802" lon="-5.622532032430172">
        <ele>2.54</ele>
        <time>2023-08-26T09:21:51Z</time>
      </trkpt>
      <trkpt lat="57.335960967466235" lon="-5.622968981042504">
        <ele>5.42</ele>
        <time>2023-08-26T09:21:54Z</time>
      </trkpt>
      <trkpt lat="57.335954010486603" lon="-5.623329989612103">
        <ele>6.39</ele>
        <time>2023-08-26T09:21:55Z</time>
      </trkpt>
      <trkpt lat="57.336003966629505" lon="-5.623834999278188">
        <ele>7.83</ele>
        <time>2023-08-26T09:21:57Z</time>
      </trkpt>
      <trkpt lat="57.336029028519988" lon="-5.624080002307892">
        <ele>8.789999999999999</ele>
        <time>2023-08-26T09:21:58Z</time>
      </trkpt>
      <trkpt lat="57.336051994934678" lon="-5.624316958710551">
        <ele>9.75</ele>
        <time>2023-08-26T09:21:59Z</time>
      </trkpt>
      <trkpt lat="57.336151991039515" lon="-5.62566502019763">
        <ele>13.6</ele>
        <time>2023-08-26T09:22:05Z</time>
      </trkpt>
      <trkpt lat="57.336155008524656" lon="-5.625857971608639">
        <ele>14.08</ele>
        <time>2023-08-26T09:22:06Z</time>
      </trkpt>
      <trkpt lat="57.336162971332669" lon="-5.626272037625313">
        <ele>15.039999999999999</ele>
        <time>2023-08-26T09:22:08Z</time>
      </trkpt>
      <trkpt lat="57.336122989654541" lon="-5.62689196318388">
        <ele>15.52</ele>
        <time>2023-08-26T09:22:11Z</time>
      </trkpt>
      <trkpt lat="57.336097005754709" lon="-5.627120034769177">
        <ele>15.52</ele>
        <time>2023-08-26T09:22:12Z</time>
      </trkpt>
      <trkpt lat="57.335849991068244" lon="-5.628488967195153">
        <ele>16.48</ele>
        <time>2023-08-26T09:22:18Z</time>
      </trkpt>
      <trkpt lat="57.335302988067269" lon="-5.630382020026445">
        <ele>17.920000000000002</ele>
        <time>2023-08-26T09:22:26Z</time>
      </trkpt>
      <trkpt lat="57.335230987519026" lon="-5.630573965609074">
        <ele>17.920000000000002</ele>
        <time>2023-08-26T09:22:27Z</time>
      </trkpt>
      <trkpt lat="57.335158986970782" lon="-5.630765995010734">
        <ele>17.920000000000002</ele>
        <time>2023-08-26T09:22:28Z</time>
      </trkpt>
      <trkpt lat="57.335105007514358" lon="-5.630913013592362">
        <ele>17.920000000000002</ele>
        <time>2023-08-26T09:22:29Z</time>
      </trkpt>
      <trkpt lat="57.335064020007849" lon="-5.631022984161973">
        <ele>17.440000000000001</ele>
        <time>2023-08-26T09:22:30Z</time>
      </trkpt>
      <trkpt lat="57.335024960339069" lon="-5.63112298026681">
        <ele>17.440000000000001</ele>
        <time>2023-08-26T09:22:31Z</time>
      </trkpt>
      <trkpt lat="57.334997970610857" lon="-5.631174026057124">
        <ele>17.440000000000001</ele>
        <time>2023-08-26T09:22:32Z</time>
      </trkpt>
      <trkpt lat="57.334983972832561" lon="-5.631200009956956">
        <ele>17.440000000000001</ele>
        <time>2023-08-26T09:22:33Z</time>
      </trkpt>
      <trkpt lat="57.334952037781477" lon="-5.631260024383664">
        <ele>17.920000000000002</ele>
        <time>2023-08-26T09:22:37Z</time>
      </trkpt>
      <trkpt lat="57.334914989769459" lon="-5.631329007446766">
        <ele>17.920000000000002</ele>
        <time>2023-08-26T09:22:38Z</time>
      </trkpt>
      <trkpt lat="57.334866961464286" lon="-5.631420034915209">
        <ele>17.440000000000001</ele>
        <time>2023-08-26T09:22:39Z</time>
      </trkpt>
      <trkpt lat="57.334812982007861" lon="-5.631519025191665">
        <ele>16.960000000000001</ele>
        <time>2023-08-26T09:22:40Z</time>
      </trkpt>
      <trkpt lat="57.334754979237914" lon="-5.631628995761275">
        <ele>16.960000000000001</ele>
        <time>2023-08-26T09:22:41Z</time>
      </trkpt>
      <trkpt lat="57.334687002003193" lon="-5.631756987422705">
        <ele>16.48</ele>
        <time>2023-08-26T09:22:42Z</time>
      </trkpt>
      <trkpt lat="57.334309983998537" lon="-5.632558967918158">
        <ele>16.960000000000001</ele>
        <time>2023-08-26T09:22:47Z</time>
      </trkpt>
      <trkpt lat="57.334258016198874" lon="-5.632753008976579">
        <ele>16.960000000000001</ele>
        <time>2023-08-26T09:22:48Z</time>
      </trkpt>
      <trkpt lat="57.334214011207223" lon="-5.632917964830995">
        <ele>17.440000000000001</ele>
        <time>2023-08-26T09:22:49Z</time>
      </trkpt>
      <trkpt lat="57.334172017872334" lon="-5.633353991433978">
        <ele>17.920000000000002</ele>
        <time>2023-08-26T09:22:51Z</time>
      </trkpt>
      <trkpt lat="57.334179980680346" lon="-5.633492963388562">
        <ele>18.399999999999999</ele>
        <time>2023-08-26T09:22:52Z</time>
      </trkpt>
      <trkpt lat="57.334195990115404" lon="-5.633722962811589">
        <ele>19.359999999999999</ele>
        <time>2023-08-26T09:22:53Z</time>
      </trkpt>
      <trkpt lat="57.334164977073669" lon="-5.634426036849618">
        <ele>19.84</ele>
        <time>2023-08-26T09:22:56Z</time>
      </trkpt>
      <trkpt lat="57.334128012880683" lon="-5.634762989357114">
        <ele>19.359999999999999</ele>
        <time>2023-08-26T09:22:58Z</time>
      </trkpt>
      <trkpt lat="57.334128012880683" lon="-5.634762989357114">
        <ele>18.879999999999999</ele>
        <time>2023-08-26T09:22:59Z</time>
      </trkpt>
      <trkpt lat="57.334159025922418" lon="-5.635044034570456">
        <ele>18.399999999999999</ele>
        <time>2023-08-26T09:23:00Z</time>
      </trkpt>
      <trkpt lat="57.334171012043953" lon="-5.635149981826544">
        <ele>17.920000000000002</ele>
        <time>2023-08-26T09:23:01Z</time>
      </trkpt>
      <trkpt lat="57.334202025085688" lon="-5.635366989299655">
        <ele>17.440000000000001</ele>
        <time>2023-08-26T09:23:02Z</time>
      </trkpt>
      <trkpt lat="57.334234965965152" lon="-5.63595799729228">
        <ele>16</ele>
        <time>2023-08-26T09:23:05Z</time>
      </trkpt>
      <trkpt lat="57.334234965965152" lon="-5.636352030560374">
        <ele>16.48</ele>
        <time>2023-08-26T09:23:07Z</time>
      </trkpt>
      <trkpt lat="57.334219962358475" lon="-5.637265993282199">
        <ele>20.809999999999999</ele>
        <time>2023-08-26T09:23:11Z</time>
      </trkpt>
      <trkpt lat="57.334176041185856" lon="-5.63748300075531">
        <ele>21.289999999999999</ele>
        <time>2023-08-26T09:23:12Z</time>
      </trkpt>
      <trkpt lat="57.334132036194205" lon="-5.637703025713563">
        <ele>22.25</ele>
        <time>2023-08-26T09:23:13Z</time>
      </trkpt>
      <trkpt lat="57.334074033424258" lon="-5.637921039015055">
        <ele>23.210000000000001</ele>
        <time>2023-08-26T09:23:14Z</time>
      </trkpt>
      <trkpt lat="57.334004966542125" lon="-5.638113990426064">
        <ele>24.170000000000002</ele>
        <time>2023-08-26T09:23:15Z</time>
      </trkpt>
      <trkpt lat="57.333796005696058" lon="-5.638648001477122">
        <ele>27.530000000000001</ele>
        <time>2023-08-26T09:23:18Z</time>
      </trkpt>
      <trkpt lat="57.333705984055996" lon="-5.638771969825029">
        <ele>28.5</ele>
        <time>2023-08-26T09:23:19Z</time>
      </trkpt>
      <trkpt lat="57.333522001281381" lon="-5.639027031138539">
        <ele>29.460000000000001</ele>
        <time>2023-08-26T09:23:21Z</time>
      </trkpt>
      <trkpt lat="57.333321003243327" lon="-5.639304975047708">
        <ele>30.899999999999999</ele>
        <time>2023-08-26T09:23:23Z</time>
      </trkpt>
      <trkpt lat="57.332502007484436" lon="-5.640569971874356">
        <ele>33.780000000000001</ele>
        <time>2023-08-26T09:23:31Z</time>
      </trkpt>
      <trkpt lat="57.332418020814657" lon="-5.640737023204565">
        <ele>34.259999999999998</ele>
        <time>2023-08-26T09:23:32Z</time>
      </trkpt>
      <trkpt lat="57.332190033048391" lon="-5.641301963478327">
        <ele>34.740000000000002</ele>
        <time>2023-08-26T09:23:35Z</time>
      </trkpt>
      <trkpt lat="57.332120966166258" lon="-5.641493992879987">
        <ele>34.740000000000002</ele>
        <time>2023-08-26T09:23:36Z</time>
      </trkpt>
      <trkpt lat="57.331753000617027" lon="-5.642522033303976">
        <ele>37.149999999999999</ele>
        <time>2023-08-26T09:23:42Z</time>
      </trkpt>
      <trkpt lat="57.331702960655093" lon="-5.64265999943018">
        <ele>37.630000000000003</ele>
        <time>2023-08-26T09:23:43Z</time>
      </trkpt>
      <trkpt lat="57.331627020612359" lon="-5.642707021906972">
        <ele>37.630000000000003</ele>
        <time>2023-08-26T09:23:44Z</time>
      </trkpt>
      <trkpt lat="57.33154496178031" lon="-5.642758989706636">
        <ele>37.630000000000003</ele>
        <time>2023-08-26T09:23:45Z</time>
      </trkpt>
      <trkpt lat="57.33145896345377" lon="-5.642756978049874">
        <ele>37.630000000000003</ele>
        <time>2023-08-26T09:23:46Z</time>
      </trkpt>
      <trkpt lat="57.33137296512723" lon="-5.642738034948707">
        <ele>37.630000000000003</ele>
        <time>2023-08-26T09:23:47Z</time>
      </trkpt>
      <trkpt lat="57.331304987892509" lon="-5.64268003217876">
        <ele>37.149999999999999</ele>
        <time>2023-08-26T09:23:48Z</time>
      </trkpt>
      <trkpt lat="57.331256037577987" lon="-5.64263803884387">
        <ele>37.149999999999999</ele>
        <time>2023-08-26T09:23:49Z</time>
      </trkpt>
      <trkpt lat="57.331230975687504" lon="-5.64261700026691">
        <ele>37.149999999999999</ele>
        <time>2023-08-26T09:23:50Z</time>
      </trkpt>
      <trkpt lat="57.331230975687504" lon="-5.64261700026691">
        <ele>36.670000000000002</ele>
        <time>2023-08-26T09:23:51Z</time>
      </trkpt>
      <trkpt lat="57.331211026757956" lon="-5.642739962786436">
        <ele>35.710000000000001</ele>
        <time>2023-08-26T09:23:58Z</time>
      </trkpt>
      <trkpt lat="57.331193005666137" lon="-5.642848005518317">
        <ele>35.710000000000001</ele>
        <time>2023-08-26T09:23:59Z</time>
      </trkpt>
      <trkpt lat="57.331187976524234" lon="-5.642978008836508">
        <ele>35.710000000000001</ele>
        <time>2023-08-26T09:24:00Z</time>
      </trkpt>
      <trkpt lat="57.331187976524234" lon="-5.64315302297473">
        <ele>36.670000000000002</ele>
        <time>2023-08-26T09:24:01Z</time>
      </trkpt>
      <trkpt lat="57.331207003444433" lon="-5.643293000757694">
        <ele>38.590000000000003</ele>
        <time>2023-08-26T09:24:02Z</time>
      </trkpt>
      <trkpt lat="57.331264000386" lon="-5.643456028774381">
        <ele>39.549999999999997</ele>
        <time>2023-08-26T09:24:03Z</time>
      </trkpt>
      <trkpt lat="57.331326026469469" lon="-5.643632970750332">
        <ele>40.990000000000002</ele>
        <time>2023-08-26T09:24:04Z</time>
      </trkpt>
      <trkpt lat="57.331390986219049" lon="-5.643818965181708">
        <ele>41.950000000000003</ele>
        <time>2023-08-26T09:24:05Z</time>
      </trkpt>
      <trkpt lat="57.331506991758943" lon="-5.644289022311568">
        <ele>43.399999999999999</ele>
        <time>2023-08-26T09:24:07Z</time>
      </trkpt>
      <trkpt lat="57.331526018679142" lon="-5.644502006471157">
        <ele>44.359999999999999</ele>
        <time>2023-08-26T09:24:08Z</time>
      </trkpt>
      <trkpt lat="57.33154496178031" lon="-5.644705016165972">
        <ele>44.840000000000003</ele>
        <time>2023-08-26T09:24:09Z</time>
      </trkpt>
      <trkpt lat="57.331562982872128" lon="-5.644897967576981">
        <ele>45.799999999999997</ele>
        <time>2023-08-26T09:24:10Z</time>
      </trkpt>
      <trkpt lat="57.331570023670793" lon="-5.645122015848756">
        <ele>47.240000000000002</ele>
        <time>2023-08-26T09:24:11Z</time>
      </trkpt>
      <trkpt lat="57.331559965386987" lon="-5.645313039422035">
        <ele>48.68</ele>
        <time>2023-08-26T09:24:12Z</time>
      </trkpt>
      <trkpt lat="57.331300964578986" lon="-5.6471729837358">
        <ele>64.069999999999993</ele>
        <time>2023-08-26T09:24:21Z</time>
      </trkpt>
      <trkpt lat="57.331145983189344" lon="-5.648043025285006">
        <ele>69.349999999999994</ele>
        <time>2023-08-26T09:24:25Z</time>
      </trkpt>
      <trkpt lat="57.330911960452795" lon="-5.650209998711944">
        <ele>71.760000000000005</ele>
        <time>2023-08-26T09:24:34Z</time>
      </trkpt>
      <trkpt lat="57.330739041790366" lon="-5.651850001886487">
        <ele>68.390000000000001</ele>
        <time>2023-08-26T09:24:41Z</time>
      </trkpt>
      <trkpt lat="57.330459002405405" lon="-5.652912994846702">
        <ele>63.579999999999998</ele>
        <time>2023-08-26T09:24:46Z</time>
      </trkpt>
      <trkpt lat="57.330381972715259" lon="-5.653064958751202">
        <ele>62.619999999999997</ele>
        <time>2023-08-26T09:24:47Z</time>
      </trkpt>
      <trkpt lat="57.330304021015763" lon="-5.653217006474733">
        <ele>61.18</ele>
        <time>2023-08-26T09:24:48Z</time>
      </trkpt>
      <trkpt lat="57.32991099357605" lon="-5.654077995568514">
        <ele>54.450000000000003</ele>
        <time>2023-08-26T09:24:53Z</time>
      </trkpt>
      <trkpt lat="57.329865982756019" lon="-5.654287040233612">
        <ele>53.009999999999998</ele>
        <time>2023-08-26T09:24:54Z</time>
      </trkpt>
      <trkpt lat="57.329821977764368" lon="-5.654493989422917">
        <ele>51.090000000000003</ele>
        <time>2023-08-26T09:24:55Z</time>
      </trkpt>
      <trkpt lat="57.329660961404443" lon="-5.655244002118707">
        <ele>43.880000000000003</ele>
        <time>2023-08-26T09:25:00Z</time>
      </trkpt>
      <trkpt lat="57.329647969454527" lon="-5.655304016545415">
        <ele>42.920000000000002</ele>
        <time>2023-08-26T09:25:01Z</time>
      </trkpt>
      <trkpt lat="57.329634977504611" lon="-5.655362019315362">
        <ele>41.950000000000003</ele>
        <time>2023-08-26T09:25:02Z</time>
      </trkpt>
      <trkpt lat="57.329617040231824" lon="-5.655449023470283">
        <ele>40.509999999999998</ele>
        <time>2023-08-26T09:25:03Z</time>
      </trkpt>
      <trkpt lat="57.32958996668458" lon="-5.655571985989809">
        <ele>39.07</ele>
        <time>2023-08-26T09:25:04Z</time>
      </trkpt>
      <trkpt lat="57.329561971127987" lon="-5.655705006793141">
        <ele>38.109999999999999</ele>
        <time>2023-08-26T09:25:05Z</time>
      </trkpt>
      <trkpt lat="57.329491982236505" lon="-5.656029973179102">
        <ele>35.229999999999997</ele>
        <time>2023-08-26T09:25:07Z</time>
      </trkpt>
      <trkpt lat="57.329403972253203" lon="-5.656441021710634">
        <ele>31.859999999999999</ele>
        <time>2023-08-26T09:25:09Z</time>
      </trkpt>
      <trkpt lat="57.329358039423823" lon="-5.656655011698604">
        <ele>30.420000000000002</ele>
        <time>2023-08-26T09:25:10Z</time>
      </trkpt>
      <trkpt lat="57.32931001111865" lon="-5.656875036656857">
        <ele>28.5</ele>
        <time>2023-08-26T09:25:11Z</time>
      </trkpt>
      <trkpt lat="57.329163998365402" lon="-5.657509965822101">
        <ele>24.170000000000002</ele>
        <time>2023-08-26T09:25:14Z</time>
      </trkpt>
      <trkpt lat="57.328884964808822" lon="-5.658346982672811">
        <ele>17.440000000000001</ele>
        <time>2023-08-26T09:25:19Z</time>
      </trkpt>
      <trkpt lat="57.328831991180778" lon="-5.658503975719214">
        <ele>16.48</ele>
        <time>2023-08-26T09:25:20Z</time>
      </trkpt>
      <trkpt lat="57.328834002837539" lon="-5.658685024827719">
        <ele>16</ele>
        <time>2023-08-26T09:25:21Z</time>
      </trkpt>
      <trkpt lat="57.328840037807822" lon="-5.658874958753586">
        <ele>15.52</ele>
        <time>2023-08-26T09:25:22Z</time>
      </trkpt>
      <trkpt lat="57.328845988959074" lon="-5.659071011468768">
        <ele>15.039999999999999</ele>
        <time>2023-08-26T09:25:23Z</time>
      </trkpt>
      <trkpt lat="57.328853029757738" lon="-5.659276032820344">
        <ele>14.56</ele>
        <time>2023-08-26T09:25:24Z</time>
      </trkpt>
      <trkpt lat="57.32885898090899" lon="-5.659855976700783">
        <ele>14.08</ele>
        <time>2023-08-26T09:25:27Z</time>
      </trkpt>
      <trkpt lat="57.328822016716003" lon="-5.66002101637423">
        <ele>14.08</ele>
        <time>2023-08-26T09:25:28Z</time>
      </trkpt>
      <trkpt lat="57.328737024217844" lon="-5.660393005236983">
        <ele>13.119999999999999</ele>
        <time>2023-08-26T09:25:30Z</time>
      </trkpt>
      <trkpt lat="57.328688995912671" lon="-5.66060297191143">
        <ele>13.119999999999999</ele>
        <time>2023-08-26T09:25:31Z</time>
      </trkpt>
      <trkpt lat="57.328483974561095" lon="-5.66199897788465">
        <ele>10.710000000000001</ele>
        <time>2023-08-26T09:25:37Z</time>
      </trkpt>
      <trkpt lat="57.328324969857931" lon="-5.663146963343024">
        <ele>8.789999999999999</ele>
        <time>2023-08-26T09:25:42Z</time>
      </trkpt>
      <trkpt lat="57.328293034806848" lon="-5.663380986079574">
        <ele>8.310000000000001</ele>
        <time>2023-08-26T09:25:43Z</time>
      </trkpt>
      <trkpt lat="57.328261015936732" lon="-5.66360897384584">
        <ele>8.310000000000001</ele>
        <time>2023-08-26T09:25:44Z</time>
      </trkpt>
      <trkpt lat="57.328138975426555" lon="-5.664493013173342">
        <ele>9.27</ele>
        <time>2023-08-26T09:25:48Z</time>
      </trkpt>
      <trkpt lat="57.328097987920046" lon="-5.664695017039776">
        <ele>9.27</ele>
        <time>2023-08-26T09:25:49Z</time>
      </trkpt>
      <trkpt lat="57.328036967664957" lon="-5.664870031177998">
        <ele>9.27</ele>
        <time>2023-08-26T09:25:50Z</time>
      </trkpt>
      <trkpt lat="57.327977037057281" lon="-5.665041022002697">
        <ele>8.789999999999999</ele>
        <time>2023-08-26T09:25:51Z</time>
      </trkpt>
      <trkpt lat="57.327914005145431" lon="-5.665221987292171">
        <ele>8.789999999999999</ele>
        <time>2023-08-26T09:25:52Z</time>
      </trkpt>
      <trkpt lat="57.32784703373909" lon="-5.665416028350592">
        <ele>8.310000000000001</ele>
        <time>2023-08-26T09:25:53Z</time>
      </trkpt>
      <trkpt lat="57.327797999605536" lon="-5.665555000305176">
        <ele>7.83</ele>
        <time>2023-08-26T09:25:54Z</time>
      </trkpt>
      <trkpt lat="57.327744020149112" lon="-5.665818024426699">
        <ele>6.87</ele>
        <time>2023-08-26T09:25:55Z</time>
      </trkpt>
      <trkpt lat="57.327652992680669" lon="-5.666252039372921">
        <ele>4.46</ele>
        <time>2023-08-26T09:25:57Z</time>
      </trkpt>
      <trkpt lat="57.327609993517399" lon="-5.666463011875749">
        <ele>3.02</ele>
        <time>2023-08-26T09:25:58Z</time>
      </trkpt>
      <trkpt lat="57.327475966885686" lon="-5.668108966201544">
        <ele>-2.27</ele>
        <time>2023-08-26T09:26:06Z</time>
      </trkpt>
      <trkpt lat="57.327531035989523" lon="-5.668383976444602">
        <ele>-2.27</ele>
        <time>2023-08-26T09:26:07Z</time>
      </trkpt>
      <trkpt lat="57.327568000182509" lon="-5.668569970875979">
        <ele>-2.27</ele>
        <time>2023-08-26T09:26:08Z</time>
      </trkpt>
      <trkpt lat="57.327603036537766" lon="-5.668740039691329">
        <ele>-1.79</ele>
        <time>2023-08-26T09:26:09Z</time>
      </trkpt>
      <trkpt lat="57.327632959932089" lon="-5.668895021080971">
        <ele>-1.3</ele>
        <time>2023-08-26T09:26:10Z</time>
      </trkpt>
      <trkpt lat="57.327647963538766" lon="-5.668967021629214">
        <ele>-0.82</ele>
        <time>2023-08-26T09:26:11Z</time>
      </trkpt>
      <trkpt lat="57.327728010714054" lon="-5.669126026332378">
        <ele>-0.82</ele>
        <time>2023-08-26T09:26:12Z</time>
      </trkpt>
      <trkpt lat="57.327795987948775" lon="-5.669262986630201">
        <ele>-0.82</ele>
        <time>2023-08-26T09:26:13Z</time>
      </trkpt>
      <trkpt lat="57.327926997095346" lon="-5.669525004923344">
        <ele>-0.82</ele>
        <time>2023-08-26T09:26:15Z</time>
      </trkpt>
      <trkpt lat="57.327949041500688" lon="-5.669884001836181">
        <ele>-0.82</ele>
        <time>2023-08-26T09:26:17Z</time>
      </trkpt>
      <trkpt lat="57.327954992651939" lon="-5.66998902708292">
        <ele>-0.34</ele>
        <time>2023-08-26T09:26:18Z</time>
      </trkpt>
      <trkpt lat="57.327959015965462" lon="-5.67005499266088">
        <ele>0.14</ele>
        <time>2023-08-26T09:26:19Z</time>
      </trkpt>
      <trkpt lat="57.327961027622223" lon="-5.670086005702615">
        <ele>0.62</ele>
        <time>2023-08-26T09:26:20Z</time>
      </trkpt>
      <trkpt lat="57.327963961288333" lon="-5.670133028179407">
        <ele>2.54</ele>
        <time>2023-08-26T09:26:25Z</time>
      </trkpt>
      <trkpt lat="57.327966978773475" lon="-5.67018399015069">
        <ele>3.02</ele>
        <time>2023-08-26T09:26:26Z</time>
      </trkpt>
      <trkpt lat="57.327969996258616" lon="-5.670233024284244">
        <ele>3.98</ele>
        <time>2023-08-26T09:26:27Z</time>
      </trkpt>
      <trkpt lat="57.328036967664957" lon="-5.670316005125642">
        <ele>3.98</ele>
        <time>2023-08-26T09:26:28Z</time>
      </trkpt>
      <trkpt lat="57.328104022890329" lon="-5.67037601955235">
        <ele>4.46</ele>
        <time>2023-08-26T09:26:29Z</time>
      </trkpt>
      <trkpt lat="57.328189015388489" lon="-5.670438967645168">
        <ele>4.94</ele>
        <time>2023-08-26T09:26:30Z</time>
      </trkpt>
      <trkpt lat="57.328285994008183" lon="-5.670509962365031">
        <ele>5.42</ele>
        <time>2023-08-26T09:26:31Z</time>
      </trkpt>
      <trkpt lat="57.328391019254923" lon="-5.670586992055178">
        <ele>5.91</ele>
        <time>2023-08-26T09:26:32Z</time>
      </trkpt>
      <trkpt lat="57.328496966511011" lon="-5.670646000653505">
        <ele>6.39</ele>
        <time>2023-08-26T09:26:33Z</time>
      </trkpt>
      <trkpt lat="57.328625964000821" lon="-5.670667961239815">
        <ele>6.87</ele>
        <time>2023-08-26T09:26:34Z</time>
      </trkpt>
      <trkpt lat="57.328755967319012" lon="-5.670688999816775">
        <ele>7.35</ele>
        <time>2023-08-26T09:26:35Z</time>
      </trkpt>
      <trkpt lat="57.328885970637202" lon="-5.670695034787059">
        <ele>7.83</ele>
        <time>2023-08-26T09:26:36Z</time>
      </trkpt>
      <trkpt lat="57.329015973955393" lon="-5.670657986775041">
        <ele>8.789999999999999</ele>
        <time>2023-08-26T09:26:37Z</time>
      </trkpt>
      <trkpt lat="57.329150000587106" lon="-5.670619010925293">
        <ele>9.27</ele>
        <time>2023-08-26T09:26:38Z</time>
      </trkpt>
      <trkpt lat="57.330159014090896" lon="-5.66996798850596">
        <ele>11.19</ele>
        <time>2023-08-26T09:26:46Z</time>
      </trkpt>
      <trkpt lat="57.330252975225449" lon="-5.669810995459557">
        <ele>11.19</ele>
        <time>2023-08-26T09:26:47Z</time>
      </trkpt>
      <trkpt lat="57.331245979294181" lon="-5.668164035305381">
        <ele>8.310000000000001</ele>
        <time>2023-08-26T09:26:57Z</time>
      </trkpt>
      <trkpt lat="57.332132030278444" lon="-5.666693011298776">
        <ele>13.6</ele>
        <time>2023-08-26T09:27:08Z</time>
      </trkpt>
      <trkpt lat="57.332221968099475" lon="-5.666618999093771">
        <ele>14.08</ele>
        <time>2023-08-26T09:27:09Z</time>
      </trkpt>
      <trkpt lat="57.332308972254395" lon="-5.666548004373908">
        <ele>15.039999999999999</ele>
        <time>2023-08-26T09:27:10Z</time>
      </trkpt>
      <trkpt lat="57.333252020180225" lon="-5.665773013606668">
        <ele>18.879999999999999</ele>
        <time>2023-08-26T09:27:20Z</time>
      </trkpt>
      <trkpt lat="57.333397027105093" lon="-5.665603028610349">
        <ele>17.920000000000002</ele>
        <time>2023-08-26T09:27:22Z</time>
      </trkpt>
      <trkpt lat="57.333457041531801" lon="-5.665506972000003">
        <ele>17.920000000000002</ele>
        <time>2023-08-26T09:27:23Z</time>
      </trkpt>
      <trkpt lat="57.333613028749824" lon="-5.665255011990666">
        <ele>16.48</ele>
        <time>2023-08-26T09:27:26Z</time>
      </trkpt>
      <trkpt lat="57.333703972399235" lon="-5.665225004777312">
        <ele>16.48</ele>
        <time>2023-08-26T09:27:27Z</time>
      </trkpt>
      <trkpt lat="57.334123989567161" lon="-5.665014032274485">
        <ele>16</ele>
        <time>2023-08-26T09:27:34Z</time>
      </trkpt>
      <trkpt lat="57.334178974851966" lon="-5.664930967614055">
        <ele>15.52</ele>
        <time>2023-08-26T09:27:35Z</time>
      </trkpt>
      <trkpt lat="57.334223985671997" lon="-5.664828037843108">
        <ele>15.52</ele>
        <time>2023-08-26T09:27:36Z</time>
      </trkpt>
      <trkpt lat="57.334273019805551" lon="-5.664699040353298">
        <ele>15.039999999999999</ele>
        <time>2023-08-26T09:27:37Z</time>
      </trkpt>
      <trkpt lat="57.334323981776834" lon="-5.664563002064824">
        <ele>14.08</ele>
        <time>2023-08-26T09:27:38Z</time>
      </trkpt>
      <trkpt lat="57.334375027567148" lon="-5.66442696377635">
        <ele>13.6</ele>
        <time>2023-08-26T09:27:39Z</time>
      </trkpt>
      <trkpt lat="57.33483100309968" lon="-5.663418034091592">
        <ele>7.83</ele>
        <time>2023-08-26T09:27:48Z</time>
      </trkpt>
      <trkpt lat="57.334889005869627" lon="-5.66326598636806">
        <ele>6.87</ele>
        <time>2023-08-26T09:27:49Z</time>
      </trkpt>
      <trkpt lat="57.334965029731393" lon="-5.663065994158387">
        <ele>6.39</ele>
        <time>2023-08-26T09:27:50Z</time>
      </trkpt>
      <trkpt lat="57.33502596616745" lon="-5.662717977538705">
        <ele>4.46</ele>
        <time>2023-08-26T09:27:52Z</time>
      </trkpt>
      <trkpt lat="57.335063014179468" lon="-5.662503987550736">
        <ele>3.5</ele>
        <time>2023-08-26T09:27:53Z</time>
      </trkpt>
      <trkpt lat="57.335349004715681" lon="-5.660864990204573">
        <ele>-0.82</ele>
        <time>2023-08-26T09:28:02Z</time>
      </trkpt>
      <trkpt lat="57.335372976958752" lon="-5.660727024078369">
        <ele>-1.3</ele>
        <time>2023-08-26T09:28:03Z</time>
      </trkpt>
      <trkpt lat="57.335456041619182" lon="-5.660582017153502">
        <ele>-1.79</ele>
        <time>2023-08-26T09:28:04Z</time>
      </trkpt>
      <trkpt lat="57.335524018853903" lon="-5.660463999956846">
        <ele>-1.79</ele>
        <time>2023-08-26T09:28:05Z</time>
      </trkpt>
      <trkpt lat="57.335594007745385" lon="-5.660342965275049">
        <ele>-1.79</ele>
        <time>2023-08-26T09:28:06Z</time>
      </trkpt>
      <trkpt lat="57.33612198382616" lon="-5.659293970093131">
        <ele>-1.79</ele>
        <time>2023-08-26T09:28:14Z</time>
      </trkpt>
      <trkpt lat="57.336171017959714" lon="-5.659120967611671">
        <ele>-1.79</ele>
        <time>2023-08-26T09:28:15Z</time>
      </trkpt>
      <trkpt lat="57.336191972717643" lon="-5.658921981230378">
        <ele>-1.3</ele>
        <time>2023-08-26T09:28:16Z</time>
      </trkpt>
      <trkpt lat="57.336208987981081" lon="-5.65875300206244">
        <ele>-1.3</ele>
        <time>2023-08-26T09:28:17Z</time>
      </trkpt>
      <trkpt lat="57.336194990202785" lon="-5.658525014296174">
        <ele>-1.3</ele>
        <time>2023-08-26T09:28:18Z</time>
      </trkpt>
      <trkpt lat="57.336181998252869" lon="-5.658318987116218">
        <ele>-0.82</ele>
        <time>2023-08-26T09:28:19Z</time>
      </trkpt>
      <trkpt lat="57.336176969110966" lon="-5.657378034666181">
        <ele>1.58</ele>
        <time>2023-08-26T09:28:24Z</time>
      </trkpt>
      <trkpt lat="57.336223991587758" lon="-5.656876964494586">
        <ele>3.5</ele>
        <time>2023-08-26T09:28:27Z</time>
      </trkpt>
      <trkpt lat="57.336454996839166" lon="-5.655245007947087">
        <ele>-2.27</ele>
        <time>2023-08-26T09:28:36Z</time>
      </trkpt>
      <trkpt lat="57.33665800653398" lon="-5.65415502525866">
        <ele>-5.15</ele>
        <time>2023-08-26T09:28:45Z</time>
      </trkpt>
      <trkpt lat="57.336689019575715" lon="-5.654018986970186">
        <ele>-5.15</ele>
        <time>2023-08-26T09:28:46Z</time>
      </trkpt>
      <trkpt lat="57.336822962388396" lon="-5.653755040839315">
        <ele>-5.15</ele>
        <time>2023-08-26T09:28:49Z</time>
      </trkpt>
      <trkpt lat="57.337012980133295" lon="-5.653384979814291">
        <ele>-5.63</ele>
        <time>2023-08-26T09:28:54Z</time>
      </trkpt>
      <trkpt lat="57.337054973468184" lon="-5.653301998972893">
        <ele>-6.11</ele>
        <time>2023-08-26T09:28:55Z</time>
      </trkpt>
      <trkpt lat="57.337095038965344" lon="-5.653223041445017">
        <ele>-6.11</ele>
        <time>2023-08-26T09:28:56Z</time>
      </trkpt>
      <trkpt lat="57.337175002321601" lon="-5.653066970407963">
        <ele>-6.59</ele>
        <time>2023-08-26T09:28:58Z</time>
      </trkpt>
      <trkpt lat="57.337243985384703" lon="-5.652935961261392">
        <ele>-7.07</ele>
        <time>2023-08-26T09:29:00Z</time>
      </trkpt>
      <trkpt lat="57.337273992598057" lon="-5.652877958491445">
        <ele>-7.07</ele>
        <time>2023-08-26T09:29:01Z</time>
      </trkpt>
      <trkpt lat="57.337305005639791" lon="-5.652819033712149">
        <ele>-7.55</ele>
        <time>2023-08-26T09:29:02Z</time>
      </trkpt>
      <trkpt lat="57.33732596039772" lon="-5.652777962386608">
        <ele>-7.55</ele>
        <time>2023-08-26T09:29:03Z</time>
      </trkpt>
      <trkpt lat="57.337342975661159" lon="-5.652747033163905">
        <ele>-7.55</ele>
        <time>2023-08-26T09:29:04Z</time>
      </trkpt>
      <trkpt lat="57.337358985096216" lon="-5.65271501429379">
        <ele>-7.55</ele>
        <time>2023-08-26T09:29:16Z</time>
      </trkpt>
      <trkpt lat="57.33756098896265" lon="-5.652316035702825">
        <ele>-8.029999999999999</ele>
        <time>2023-08-26T09:29:24Z</time>
      </trkpt>
      <trkpt lat="57.337584961205721" lon="-5.652270019054413">
        <ele>-8.029999999999999</ele>
        <time>2023-08-26T09:29:25Z</time>
      </trkpt>
      <trkpt lat="57.337657967582345" lon="-5.652132974937558">
        <ele>-8.029999999999999</ele>
        <time>2023-08-26T09:29:27Z</time>
      </trkpt>
      <trkpt lat="57.338022999465466" lon="-5.651445994153619">
        <ele>-10.44</ele>
        <time>2023-08-26T09:29:39Z</time>
      </trkpt>
      <trkpt lat="57.338186027482152" lon="-5.651269974187017">
        <ele>-10.92</ele>
        <time>2023-08-26T09:29:48Z</time>
      </trkpt>
      <trkpt lat="57.338230032473803" lon="-5.651272991672158">
        <ele>-10.92</ele>
        <time>2023-08-26T09:29:49Z</time>
      </trkpt>
      <trkpt lat="57.338275965303183" lon="-5.651277014985681">
        <ele>-11.4</ele>
        <time>2023-08-26T09:29:50Z</time>
      </trkpt>
      <trkpt lat="57.338661029934883" lon="-5.651308028027415">
        <ele>-12.359999999999999</ele>
        <time>2023-08-26T09:29:59Z</time>
      </trkpt>
      <trkpt lat="57.338889017701149" lon="-5.651326971128583">
        <ele>-12.359999999999999</ele>
        <time>2023-08-26T09:30:03Z</time>
      </trkpt>
      <trkpt lat="57.338947020471096" lon="-5.651313979178667">
        <ele>-11.880000000000001</ele>
        <time>2023-08-26T09:30:04Z</time>
      </trkpt>
      <trkpt lat="57.339005023241043" lon="-5.651289001107216">
        <ele>-11.880000000000001</ele>
        <time>2023-08-26T09:30:05Z</time>
      </trkpt>
      <trkpt lat="57.3390659596771" lon="-5.651263017207384">
        <ele>-11.4</ele>
        <time>2023-08-26T09:30:06Z</time>
      </trkpt>
      <trkpt lat="57.339123040437698" lon="-5.651238961145282">
        <ele>-11.4</ele>
        <time>2023-08-26T09:30:07Z</time>
      </trkpt>
      <trkpt lat="57.339292019605637" lon="-5.651121027767658">
        <ele>-10.92</ele>
        <time>2023-08-26T09:30:10Z</time>
      </trkpt>
      <trkpt lat="57.339805997908115" lon="-5.650341007858515">
        <ele>-8.51</ele>
        <time>2023-08-26T09:30:22Z</time>
      </trkpt>
      <trkpt lat="57.340090982615948" lon="-5.64988000318408">
        <ele>-7.07</ele>
        <time>2023-08-26T09:30:29Z</time>
      </trkpt>
      <trkpt lat="57.340128030627966" lon="-5.649830969050527">
        <ele>-7.07</ele>
        <time>2023-08-26T09:30:30Z</time>
      </trkpt>
      <trkpt lat="57.340169018134475" lon="-5.649777995422483">
        <ele>-6.59</ele>
        <time>2023-08-26T09:30:31Z</time>
      </trkpt>
      <trkpt lat="57.340212017297745" lon="-5.649720998480916">
        <ele>-6.59</ele>
        <time>2023-08-26T09:30:32Z</time>
      </trkpt>
      <trkpt lat="57.340258033946157" lon="-5.649660984054208">
        <ele>-6.11</ele>
        <time>2023-08-26T09:30:33Z</time>
      </trkpt>
      <trkpt lat="57.340307990089059" lon="-5.649594012647867">
        <ele>-6.11</ele>
        <time>2023-08-26T09:30:34Z</time>
      </trkpt>
      <trkpt lat="57.340427013114095" lon="-5.649438025429845">
        <ele>-4.67</ele>
        <time>2023-08-26T09:30:40Z</time>
      </trkpt>
      <trkpt lat="57.340427013114095" lon="-5.649438025429845">
        <ele>-3.71</ele>
        <time>2023-08-26T09:30:55Z</time>
      </trkpt>
      <trkpt lat="57.340477975085378" lon="-5.649369964376092">
        <ele>-3.23</ele>
        <time>2023-08-26T09:31:08Z</time>
      </trkpt>
      <trkpt lat="57.340487027540803" lon="-5.649357978254557">
        <ele>-2.75</ele>
        <time>2023-08-26T09:31:09Z</time>
      </trkpt>
      <trkpt lat="57.340487027540803" lon="-5.649357978254557">
        <ele>-2.75</ele>
        <time>2023-08-26T09:31:21Z</time>
      </trkpt>
      <trkpt lat="57.340487027540803" lon="-5.649357978254557">
        <ele>-2.75</ele>
        <time>2023-08-26T09:31:49Z</time>
      </trkpt>
      <trkpt lat="57.340542012825608" lon="-5.649284971877933">
        <ele>2.54</ele>
        <time>2023-08-26T09:32:09Z</time>
      </trkpt>
      <trkpt lat="57.340377978980541" lon="-5.649004010483623">
        <ele>-0.34</ele>
        <time>2023-08-26T09:32:18Z</time>
      </trkpt>
      <trkpt lat="57.340350989252329" lon="-5.648545017465949">
        <ele>-5.63</ele>
        <time>2023-08-26T09:32:31Z</time>
      </trkpt>
      <trkpt lat="57.340350989252329" lon="-5.64841702580452">
        <ele>-6.11</ele>
        <time>2023-08-26T09:32:42Z</time>
      </trkpt>
      <trkpt lat="57.340350989252329" lon="-5.64841702580452">
        <ele>-6.11</ele>
        <time>2023-08-26T09:33:31Z</time>
      </trkpt>
      <trkpt lat="57.340350989252329" lon="-5.64841702580452">
        <ele>-5.63</ele>
        <time>2023-08-26T09:34:28Z</time>
      </trkpt>
      <trkpt lat="57.340350989252329" lon="-5.64841702580452">
        <ele>-4.19</ele>
        <time>2023-08-26T09:34:54Z</time>
      </trkpt>
      <trkpt lat="57.340350989252329" lon="-5.648389030247927">
        <ele>-1.3</ele>
        <time>2023-08-26T09:34:58Z</time>
      </trkpt>
      <trkpt lat="57.340393988415599" lon="-5.649038963019848">
        <ele>1.1</ele>
        <time>2023-08-26T09:35:08Z</time>
      </trkpt>
      <trkpt lat="57.340506976470351" lon="-5.649280026555061">
        <ele>1.58</ele>
        <time>2023-08-26T09:35:17Z</time>
      </trkpt>
      <trkpt lat="57.340506976470351" lon="-5.649280026555061">
        <ele>1.58</ele>
        <time>2023-08-26T09:35:21Z</time>
      </trkpt>
      <trkpt lat="57.340498007833958" lon="-5.64934398047626">
        <ele>1.58</ele>
        <time>2023-08-26T09:35:22Z</time>
      </trkpt>
      <trkpt lat="57.340487027540803" lon="-5.649357978254557">
        <ele>2.06</ele>
        <time>2023-08-26T09:35:23Z</time>
      </trkpt>
      <trkpt lat="57.340435981750488" lon="-5.64942603930831">
        <ele>2.06</ele>
        <time>2023-08-26T09:35:36Z</time>
      </trkpt>
      <trkpt lat="57.340435981750488" lon="-5.64942603930831">
        <ele>2.06</ele>
        <time>2023-08-26T09:36:18Z</time>
      </trkpt>
      <trkpt lat="57.340435981750488" lon="-5.64942603930831">
        <ele>2.54</ele>
        <time>2023-08-26T09:37:04Z</time>
      </trkpt>
      <trkpt lat="57.340435981750488" lon="-5.64942603930831">
        <ele>2.54</ele>
        <time>2023-08-26T09:37:52Z</time>
      </trkpt>
      <trkpt lat="57.340370016172528" lon="-5.64951203763485">
        <ele>2.54</ele>
        <time>2023-08-26T09:38:08Z</time>
      </trkpt>
      <trkpt lat="57.340328022837639" lon="-5.649567022919655">
        <ele>2.54</ele>
        <time>2023-08-26T09:38:09Z</time>
      </trkpt>
      <trkpt lat="57.339984029531479" lon="-5.650044037029147">
        <ele>3.02</ele>
        <time>2023-08-26T09:38:17Z</time>
      </trkpt>
      <trkpt lat="57.339546997100115" lon="-5.650774016976357">
        <ele>-1.79</ele>
        <time>2023-08-26T09:38:29Z</time>
      </trkpt>
      <trkpt lat="57.339096972718835" lon="-5.651250025257468">
        <ele>-4.67</ele>
        <time>2023-08-26T09:38:41Z</time>
      </trkpt>
      <trkpt lat="57.338959006592631" lon="-5.651309033855796">
        <ele>-4.67</ele>
        <time>2023-08-26T09:38:45Z</time>
      </trkpt>
      <trkpt lat="57.338866973295808" lon="-5.651324959471822">
        <ele>-4.67</ele>
        <time>2023-08-26T09:38:47Z</time>
      </trkpt>
      <trkpt lat="57.338492972776294" lon="-5.651295036077499">
        <ele>-4.19</ele>
        <time>2023-08-26T09:38:57Z</time>
      </trkpt>
      <trkpt lat="57.338127018883824" lon="-5.651265028864145">
        <ele>-2.27</ele>
        <time>2023-08-26T09:39:07Z</time>
      </trkpt>
      <trkpt lat="57.338071027770638" lon="-5.651264023035765">
        <ele>-1.79</ele>
        <time>2023-08-26T09:39:11Z</time>
      </trkpt>
      <trkpt lat="57.338057029992342" lon="-5.651264023035765">
        <ele>-1.79</ele>
        <time>2023-08-26T09:39:12Z</time>
      </trkpt>
      <trkpt lat="57.337857037782669" lon="-5.651264023035765">
        <ele>-0.82</ele>
        <time>2023-08-26T09:39:22Z</time>
      </trkpt>
      <trkpt lat="57.337814960628748" lon="-5.651264023035765">
        <ele>-0.34</ele>
        <time>2023-08-26T09:39:27Z</time>
      </trkpt>
      <trkpt lat="57.337748995050788" lon="-5.651264023035765">
        <ele>0.62</ele>
        <time>2023-08-26T09:39:37Z</time>
      </trkpt>
      <trkpt lat="57.337748995050788" lon="-5.651264023035765">
        <ele>1.58</ele>
        <time>2023-08-26T09:40:30Z</time>
      </trkpt>
      <trkpt lat="57.337748995050788" lon="-5.651264023035765">
        <ele>2.54</ele>
        <time>2023-08-26T09:41:14Z</time>
      </trkpt>
      <trkpt lat="57.337748995050788" lon="-5.651264023035765">
        <ele>3.5</ele>
        <time>2023-08-26T09:41:22Z</time>
      </trkpt>
      <trkpt lat="57.337716976180673" lon="-5.651264023035765">
        <ele>3.98</ele>
        <time>2023-08-26T09:41:23Z</time>
      </trkpt>
      <trkpt lat="57.337993998080492" lon="-5.651264023035765">
        <ele>4.94</ele>
        <time>2023-08-26T09:41:30Z</time>
      </trkpt>
      <trkpt lat="57.338112015277147" lon="-5.651264023035765">
        <ele>5.42</ele>
        <time>2023-08-26T09:41:34Z</time>
      </trkpt>
      <trkpt lat="57.33815903775394" lon="-5.651267040520906">
        <ele>5.42</ele>
        <time>2023-08-26T09:41:35Z</time>
      </trkpt>
      <trkpt lat="57.33820497058332" lon="-5.651270980015397">
        <ele>5.42</ele>
        <time>2023-08-26T09:41:36Z</time>
      </trkpt>
      <trkpt lat="57.338251993060112" lon="-5.651275003328919">
        <ele>5.42</ele>
        <time>2023-08-26T09:41:37Z</time>
      </trkpt>
      <trkpt lat="57.338297003880143" lon="-5.651279026642442">
        <ele>5.42</ele>
        <time>2023-08-26T09:41:38Z</time>
      </trkpt>
      <trkpt lat="57.338332962244749" lon="-5.651281038299203">
        <ele>5.42</ele>
        <time>2023-08-26T09:41:39Z</time>
      </trkpt>
      <trkpt lat="57.338363975286484" lon="-5.651283971965313">
        <ele>4.94</ele>
        <time>2023-08-26T09:41:40Z</time>
      </trkpt>
      <trkpt lat="57.338389959186316" lon="-5.651285983622074">
        <ele>5.42</ele>
        <time>2023-08-26T09:41:41Z</time>
      </trkpt>
      <trkpt lat="57.338412003591657" lon="-5.651287995278835">
        <ele>5.42</ele>
        <time>2023-08-26T09:41:42Z</time>
      </trkpt>
      <trkpt lat="57.338429018855095" lon="-5.651289001107216">
        <ele>5.91</ele>
        <time>2023-08-26T09:41:43Z</time>
      </trkpt>
      <trkpt lat="57.338429018855095" lon="-5.651289001107216">
        <ele>6.39</ele>
        <time>2023-08-26T09:41:55Z</time>
      </trkpt>
      <trkpt lat="57.338429018855095" lon="-5.651289001107216">
        <ele>7.35</ele>
        <time>2023-08-26T09:42:37Z</time>
      </trkpt>
      <trkpt lat="57.338429018855095" lon="-5.651289001107216">
        <ele>7.35</ele>
        <time>2023-08-26T09:43:27Z</time>
      </trkpt>
      <trkpt lat="57.338429018855095" lon="-5.651289001107216">
        <ele>6.87</ele>
        <time>2023-08-26T09:44:00Z</time>
      </trkpt>
      <trkpt lat="57.338429018855095" lon="-5.651289001107216">
        <ele>6.87</ele>
        <time>2023-08-26T09:44:09Z</time>
      </trkpt>
      <trkpt lat="57.338135987520218" lon="-5.651266034692526">
        <ele>7.35</ele>
        <time>2023-08-26T09:44:18Z</time>
      </trkpt>
      <trkpt lat="57.338117966428399" lon="-5.651266034692526">
        <ele>7.35</ele>
        <time>2023-08-26T09:44:19Z</time>
      </trkpt>
      <trkpt lat="57.338089970871806" lon="-5.65131900832057">
        <ele>6.87</ele>
        <time>2023-08-26T09:44:20Z</time>
      </trkpt>
      <trkpt lat="57.338055018335581" lon="-5.65138497389853">
        <ele>6.87</ele>
        <time>2023-08-26T09:44:21Z</time>
      </trkpt>
      <trkpt lat="57.337728040292859" lon="-5.652001965790987">
        <ele>6.39</ele>
        <time>2023-08-26T09:44:31Z</time>
      </trkpt>
      <trkpt lat="57.337728040292859" lon="-5.652001965790987">
        <ele>5.91</ele>
        <time>2023-08-26T09:44:39Z</time>
      </trkpt>
      <trkpt lat="57.337596025317907" lon="-5.652249986305833">
        <ele>6.87</ele>
        <time>2023-08-26T09:44:50Z</time>
      </trkpt>
      <trkpt lat="57.33756098896265" lon="-5.652316035702825">
        <ele>7.35</ele>
        <time>2023-08-26T09:44:59Z</time>
      </trkpt>
      <trkpt lat="57.337558977305889" lon="-5.652320981025696">
        <ele>7.83</ele>
        <time>2023-08-26T09:45:00Z</time>
      </trkpt>
      <trkpt lat="57.337549002841115" lon="-5.652341013774276">
        <ele>7.83</ele>
        <time>2023-08-26T09:45:01Z</time>
      </trkpt>
      <trkpt lat="57.337549002841115" lon="-5.652341013774276">
        <ele>8.789999999999999</ele>
        <time>2023-08-26T09:45:16Z</time>
      </trkpt>
      <trkpt lat="57.337549002841115" lon="-5.652341013774276">
        <ele>8.789999999999999</ele>
        <time>2023-08-26T09:46:14Z</time>
      </trkpt>
      <trkpt lat="57.337549002841115" lon="-5.652341013774276">
        <ele>8.789999999999999</ele>
        <time>2023-08-26T09:47:07Z</time>
      </trkpt>
      <trkpt lat="57.337479013949633" lon="-5.652480991557241">
        <ele>10.710000000000001</ele>
        <time>2023-08-26T09:47:11Z</time>
      </trkpt>
      <trkpt lat="57.337445989251137" lon="-5.652546035125852">
        <ele>11.19</ele>
        <time>2023-08-26T09:47:12Z</time>
      </trkpt>
      <trkpt lat="57.33715002425015" lon="-5.653114998713136">
        <ele>12.15</ele>
        <time>2023-08-26T09:47:19Z</time>
      </trkpt>
      <trkpt lat="57.337052961811423" lon="-5.653305016458035">
        <ele>12.15</ele>
        <time>2023-08-26T09:47:22Z</time>
      </trkpt>
      <trkpt lat="57.336716009303927" lon="-5.653964001685381">
        <ele>12.15</ele>
        <time>2023-08-26T09:47:31Z</time>
      </trkpt>
      <trkpt lat="57.336675021797419" lon="-5.654067015275359">
        <ele>11.67</ele>
        <time>2023-08-26T09:47:32Z</time>
      </trkpt>
      <trkpt lat="57.336625987663865" lon="-5.654315035790205">
        <ele>11.67</ele>
        <time>2023-08-26T09:47:34Z</time>
      </trkpt>
      <trkpt lat="57.336598997935653" lon="-5.65445601940155">
        <ele>11.19</ele>
        <time>2023-08-26T09:47:35Z</time>
      </trkpt>
      <trkpt lat="57.336425995454192" lon="-5.65542496740818">
        <ele>12.630000000000001</ele>
        <time>2023-08-26T09:47:42Z</time>
      </trkpt>
      <trkpt lat="57.336405962705612" lon="-5.655546002089977">
        <ele>13.6</ele>
        <time>2023-08-26T09:47:43Z</time>
      </trkpt>
      <trkpt lat="57.336362041532993" lon="-5.655815983191133">
        <ele>15.039999999999999</ele>
        <time>2023-08-26T09:47:45Z</time>
      </trkpt>
      <trkpt lat="57.336337985470891" lon="-5.655960990116">
        <ele>16</ele>
        <time>2023-08-26T09:47:46Z</time>
      </trkpt>
      <trkpt lat="57.336160037666559" lon="-5.657968958839774">
        <ele>25.129999999999999</ele>
        <time>2023-08-26T09:47:57Z</time>
      </trkpt>
      <trkpt lat="57.33620697632432" lon="-5.658777980133891">
        <ele>22.73</ele>
        <time>2023-08-26T09:48:01Z</time>
      </trkpt>
      <trkpt lat="57.336171017959714" lon="-5.659122979268432">
        <ele>22.25</ele>
        <time>2023-08-26T09:48:03Z</time>
      </trkpt>
      <trkpt lat="57.33612097799778" lon="-5.659295981749892">
        <ele>21.289999999999999</ele>
        <time>2023-08-26T09:48:04Z</time>
      </trkpt>
      <trkpt lat="57.336070016026497" lon="-5.659450963139534">
        <ele>20.809999999999999</ele>
        <time>2023-08-26T09:48:05Z</time>
      </trkpt>
      <trkpt lat="57.336015030741692" lon="-5.65961399115622">
        <ele>19.84</ele>
        <time>2023-08-26T09:48:06Z</time>
      </trkpt>
      <trkpt lat="57.335944036021829" lon="-5.659736031666398">
        <ele>19.359999999999999</ele>
        <time>2023-08-26T09:48:07Z</time>
      </trkpt>
      <trkpt lat="57.335870023816824" lon="-5.659865029156208">
        <ele>18.879999999999999</ele>
        <time>2023-08-26T09:48:08Z</time>
      </trkpt>
      <trkpt lat="57.335489988327026" lon="-5.660524014383555">
        <ele>15.039999999999999</ele>
        <time>2023-08-26T09:48:13Z</time>
      </trkpt>
      <trkpt lat="57.33541295863688" lon="-5.660658041015267">
        <ele>14.56</ele>
        <time>2023-08-26T09:48:14Z</time>
      </trkpt>
      <trkpt lat="57.335355039685965" lon="-5.660828026011586">
        <ele>13.6</ele>
        <time>2023-08-26T09:48:15Z</time>
      </trkpt>
      <trkpt lat="57.335323020815849" lon="-5.661012008786202">
        <ele>13.6</ele>
        <time>2023-08-26T09:48:16Z</time>
      </trkpt>
      <trkpt lat="57.335289996117353" lon="-5.66120102070272">
        <ele>13.119999999999999</ele>
        <time>2023-08-26T09:48:17Z</time>
      </trkpt>
      <trkpt lat="57.335256971418858" lon="-5.661391038447619">
        <ele>13.119999999999999</ele>
        <time>2023-08-26T09:48:18Z</time>
      </trkpt>
      <trkpt lat="57.334927981719375" lon="-5.663162972778082">
        <ele>14.56</ele>
        <time>2023-08-26T09:48:28Z</time>
      </trkpt>
      <trkpt lat="57.334881965070963" lon="-5.66328501328826">
        <ele>14.56</ele>
        <time>2023-08-26T09:48:29Z</time>
      </trkpt>
      <trkpt lat="57.334838965907693" lon="-5.663398001343012">
        <ele>15.52</ele>
        <time>2023-08-26T09:48:30Z</time>
      </trkpt>
      <trkpt lat="57.334523973986506" lon="-5.664034020155668">
        <ele>20.32</ele>
        <time>2023-08-26T09:48:37Z</time>
      </trkpt>
      <trkpt lat="57.334490027278662" lon="-5.664124041795731">
        <ele>20.809999999999999</ele>
        <time>2023-08-26T09:48:38Z</time>
      </trkpt>
      <trkpt lat="57.334198001772165" lon="-5.66489702090621">
        <ele>25.609999999999999</ele>
        <time>2023-08-26T09:48:46Z</time>
      </trkpt>
      <trkpt lat="57.334151985123754" lon="-5.664971033111215">
        <ele>26.57</ele>
        <time>2023-08-26T09:48:47Z</time>
      </trkpt>
      <trkpt lat="57.334105968475342" lon="-5.665041022002697">
        <ele>27.050000000000001</ele>
        <time>2023-08-26T09:48:48Z</time>
      </trkpt>
      <trkpt lat="57.334052994847298" lon="-5.665107993409038">
        <ele>27.530000000000001</ele>
        <time>2023-08-26T09:48:49Z</time>
      </trkpt>
      <trkpt lat="57.333990968763828" lon="-5.665129031985998">
        <ele>28.98</ele>
        <time>2023-08-26T09:48:50Z</time>
      </trkpt>
      <trkpt lat="57.333919974043965" lon="-5.665151998400688">
        <ele>29.940000000000001</ele>
        <time>2023-08-26T09:48:51Z</time>
      </trkpt>
      <trkpt lat="57.333595007658005" lon="-5.66528401337564">
        <ele>31.859999999999999</ele>
        <time>2023-08-26T09:48:55Z</time>
      </trkpt>
      <trkpt lat="57.333527030423284" lon="-5.665393983945251">
        <ele>31.859999999999999</ele>
        <time>2023-08-26T09:48:56Z</time>
      </trkpt>
      <trkpt lat="57.333298036828637" lon="-5.665734959766269">
        <ele>31.859999999999999</ele>
        <time>2023-08-26T09:48:59Z</time>
      </trkpt>
      <trkpt lat="57.332245018333197" lon="-5.666599972173572">
        <ele>29.940000000000001</ele>
        <time>2023-08-26T09:49:10Z</time>
      </trkpt>
      <trkpt lat="57.331469021737576" lon="-5.667793974280357">
        <ele>25.609999999999999</ele>
        <time>2023-08-26T09:49:19Z</time>
      </trkpt>
      <trkpt lat="57.33051398769021" lon="-5.669377986341715">
        <ele>20.32</ele>
        <time>2023-08-26T09:49:30Z</time>
      </trkpt>
      <trkpt lat="57.330005038529634" lon="-5.670138979330659">
        <ele>22.25</ele>
        <time>2023-08-26T09:49:35Z</time>
      </trkpt>
      <trkpt lat="57.329887021332979" lon="-5.670239981263876">
        <ele>22.73</ele>
        <time>2023-08-26T09:49:36Z</time>
      </trkpt>
      <trkpt lat="57.329763974994421" lon="-5.670303013175726">
        <ele>23.210000000000001</ele>
        <time>2023-08-26T09:49:37Z</time>
      </trkpt>
      <trkpt lat="57.328989990055561" lon="-5.670665027573705">
        <ele>23.690000000000001</ele>
        <time>2023-08-26T09:49:43Z</time>
      </trkpt>
      <trkpt lat="57.328850012272596" lon="-5.670705009251833">
        <ele>23.210000000000001</ele>
        <time>2023-08-26T09:49:44Z</time>
      </trkpt>
      <trkpt lat="57.328703999519348" lon="-5.670681037008762">
        <ele>22.25</ele>
        <time>2023-08-26T09:49:45Z</time>
      </trkpt>
      <trkpt lat="57.328564021736383" lon="-5.67065698094666">
        <ele>21.77</ele>
        <time>2023-08-26T09:49:46Z</time>
      </trkpt>
      <trkpt lat="57.328433012589812" lon="-5.670618005096912">
        <ele>20.32</ele>
        <time>2023-08-26T09:49:47Z</time>
      </trkpt>
      <trkpt lat="57.328307032585144" lon="-5.670525971800089">
        <ele>19.359999999999999</ele>
        <time>2023-08-26T09:49:48Z</time>
      </trkpt>
      <trkpt lat="57.328189015388489" lon="-5.670437961816788">
        <ele>17.920000000000002</ele>
        <time>2023-08-26T09:49:49Z</time>
      </trkpt>
      <trkpt lat="57.327852984890342" lon="-5.670055998489261">
        <ele>13.119999999999999</ele>
        <time>2023-08-26T09:49:52Z</time>
      </trkpt>
      <trkpt lat="57.327747959643602" lon="-5.669894982129335">
        <ele>11.67</ele>
        <time>2023-08-26T09:49:53Z</time>
      </trkpt>
      <trkpt lat="57.327642012387514" lon="-5.66973295994103">
        <ele>10.710000000000001</ele>
        <time>2023-08-26T09:49:54Z</time>
      </trkpt>
      <trkpt lat="57.326744981110096" lon="-5.668590003624558">
        <ele>4.94</ele>
        <time>2023-08-26T09:50:02Z</time>
      </trkpt>
      <trkpt lat="57.326637022197247" lon="-5.668524960055947">
        <ele>4.46</ele>
        <time>2023-08-26T09:50:03Z</time>
      </trkpt>
      <trkpt lat="57.326141986995935" lon="-5.668381964787841">
        <ele>6.39</ele>
        <time>2023-08-26T09:50:07Z</time>
      </trkpt>
      <trkpt lat="57.326015001162887" lon="-5.668345000594854">
        <ele>7.83</ele>
        <time>2023-08-26T09:50:08Z</time>
      </trkpt>
      <trkpt lat="57.325883992016315" lon="-5.668307030573487">
        <ele>8.310000000000001</ele>
        <time>2023-08-26T09:50:09Z</time>
      </trkpt>
      <trkpt lat="57.325756000354886" lon="-5.668269982561469">
        <ele>9.27</ele>
        <time>2023-08-26T09:50:10Z</time>
      </trkpt>
      <trkpt lat="57.325611999258399" lon="-5.668175015598536">
        <ele>10.23</ele>
        <time>2023-08-26T09:50:11Z</time>
      </trkpt>
      <trkpt lat="57.325498005375266" lon="-5.668083988130093">
        <ele>11.19</ele>
        <time>2023-08-26T09:50:12Z</time>
      </trkpt>
      <trkpt lat="57.325384011492133" lon="-5.66799296066165">
        <ele>12.630000000000001</ele>
        <time>2023-08-26T09:50:13Z</time>
      </trkpt>
      <trkpt lat="57.325270017609" lon="-5.667901011183858">
        <ele>14.08</ele>
        <time>2023-08-26T09:50:14Z</time>
      </trkpt>
      <trkpt lat="57.325158035382628" lon="-5.667811995372176">
        <ele>15.52</ele>
        <time>2023-08-26T09:50:15Z</time>
      </trkpt>
      <trkpt lat="57.325064996257424" lon="-5.667743012309074">
        <ele>16.960000000000001</ele>
        <time>2023-08-26T09:50:16Z</time>
      </trkpt>
      <trkpt lat="57.324809012934566" lon="-5.667718034237623">
        <ele>19.84</ele>
        <time>2023-08-26T09:50:18Z</time>
      </trkpt>
      <trkpt lat="57.323691034689546" lon="-5.66760596819222">
        <ele>28.5</ele>
        <time>2023-08-26T09:50:26Z</time>
      </trkpt>
      <trkpt lat="57.323556002229452" lon="-5.667604962363839">
        <ele>29.460000000000001</ele>
        <time>2023-08-26T09:50:27Z</time>
      </trkpt>
      <trkpt lat="57.323434967547655" lon="-5.667703030630946">
        <ele>30.420000000000002</ele>
        <time>2023-08-26T09:50:28Z</time>
      </trkpt>
      <trkpt lat="57.323312005028129" lon="-5.667828004807234">
        <ele>31.859999999999999</ele>
        <time>2023-08-26T09:50:29Z</time>
      </trkpt>
      <trkpt lat="57.323200022801757" lon="-5.667983992025256">
        <ele>32.82</ele>
        <time>2023-08-26T09:50:30Z</time>
      </trkpt>
      <trkpt lat="57.323086028918624" lon="-5.668156994506717">
        <ele>33.299999999999997</ele>
        <time>2023-08-26T09:50:31Z</time>
      </trkpt>
      <trkpt lat="57.322973040863872" lon="-5.668340977281332">
        <ele>34.259999999999998</ele>
        <time>2023-08-26T09:50:32Z</time>
      </trkpt>
      <trkpt lat="57.321716006845236" lon="-5.670395968481898">
        <ele>41.469999999999999</ele>
        <time>2023-08-26T09:50:42Z</time>
      </trkpt>
      <trkpt lat="57.320022024214268" lon="-5.673165014013648">
        <ele>51.090000000000003</ele>
        <time>2023-08-26T09:50:55Z</time>
      </trkpt>
      <trkpt lat="57.318597016856074" lon="-5.675606997683644">
        <ele>48.68</ele>
        <time>2023-08-26T09:51:07Z</time>
      </trkpt>
      <trkpt lat="57.318213963881135" lon="-5.676296995952725">
        <ele>44.359999999999999</ele>
        <time>2023-08-26T09:51:13Z</time>
      </trkpt>
      <trkpt lat="57.318128971382976" lon="-5.676374025642872">
        <ele>43.399999999999999</ele>
        <time>2023-08-26T09:51:15Z</time>
      </trkpt>
      <trkpt lat="57.318064011633396" lon="-5.676403027027845">
        <ele>42.920000000000002</ele>
        <time>2023-08-26T09:51:16Z</time>
      </trkpt>
      <trkpt lat="57.317775003612041" lon="-5.676533030346036">
        <ele>42.439999999999998</ele>
        <time>2023-08-26T09:51:21Z</time>
      </trkpt>
      <trkpt lat="57.317755976691842" lon="-5.676540993154049">
        <ele>42.920000000000002</ele>
        <time>2023-08-26T09:51:22Z</time>
      </trkpt>
      <trkpt lat="57.317755976691842" lon="-5.676540993154049">
        <ele>42.439999999999998</ele>
        <time>2023-08-26T09:51:23Z</time>
      </trkpt>
      <trkpt lat="57.317780032753944" lon="-5.67664803005755">
        <ele>42.439999999999998</ele>
        <time>2023-08-26T09:51:24Z</time>
      </trkpt>
      <trkpt lat="57.317791013047099" lon="-5.676699997857213">
        <ele>42.439999999999998</ele>
        <time>2023-08-26T09:51:25Z</time>
      </trkpt>
      <trkpt lat="57.317810039967299" lon="-5.676783984526992">
        <ele>41.950000000000003</ele>
        <time>2023-08-26T09:51:26Z</time>
      </trkpt>
      <trkpt lat="57.31783501803875" lon="-5.676897978410125">
        <ele>41.950000000000003</ele>
        <time>2023-08-26T09:51:27Z</time>
      </trkpt>
      <trkpt lat="57.318117991089821" lon="-5.678178984671831">
        <ele>37.149999999999999</ele>
        <time>2023-08-26T09:51:35Z</time>
      </trkpt>
      <trkpt lat="57.318238019943237" lon="-5.678721964359283">
        <ele>36.189999999999998</ele>
        <time>2023-08-26T09:51:39Z</time>
      </trkpt>
      <trkpt lat="57.318315971642733" lon="-5.679106023162603">
        <ele>36.189999999999998</ele>
        <time>2023-08-26T09:51:42Z</time>
      </trkpt>
      <trkpt lat="57.318445974960923" lon="-5.679868021979928">
        <ele>35.229999999999997</ele>
        <time>2023-08-26T09:51:48Z</time>
      </trkpt>
      <trkpt lat="57.318461984395981" lon="-5.680012023076415">
        <ele>35.229999999999997</ele>
        <time>2023-08-26T09:51:49Z</time>
      </trkpt>
      <trkpt lat="57.31845703907311" lon="-5.680133979767561">
        <ele>34.740000000000002</ele>
        <time>2023-08-26T09:51:50Z</time>
      </trkpt>
      <trkpt lat="57.318452009931207" lon="-5.680263983085752">
        <ele>34.740000000000002</ele>
        <time>2023-08-26T09:51:51Z</time>
      </trkpt>
      <trkpt lat="57.318445974960923" lon="-5.680402033030987">
        <ele>34.259999999999998</ele>
        <time>2023-08-26T09:51:52Z</time>
      </trkpt>
      <trkpt lat="57.318440023809671" lon="-5.680551985278726">
        <ele>34.740000000000002</ele>
        <time>2023-08-26T09:51:53Z</time>
      </trkpt>
      <trkpt lat="57.318432983011007" lon="-5.680706966668367">
        <ele>34.740000000000002</ele>
        <time>2023-08-26T09:51:54Z</time>
      </trkpt>
      <trkpt lat="57.318427031859756" lon="-5.68086002022028">
        <ele>34.740000000000002</ele>
        <time>2023-08-26T09:51:55Z</time>
      </trkpt>
      <trkpt lat="57.318219998851418" lon="-5.682397009804845">
        <ele>34.740000000000002</ele>
        <time>2023-08-26T09:52:03Z</time>
      </trkpt>
      <trkpt lat="57.317966027185321" lon="-5.68331097252667">
        <ele>34.259999999999998</ele>
        <time>2023-08-26T09:52:07Z</time>
      </trkpt>
      <trkpt lat="57.317896960303187" lon="-5.683449022471905">
        <ele>34.259999999999998</ele>
        <time>2023-08-26T09:52:08Z</time>
      </trkpt>
      <trkpt lat="57.317829988896847" lon="-5.683557987213135">
        <ele>33.780000000000001</ele>
        <time>2023-08-26T09:52:09Z</time>
      </trkpt>
      <trkpt lat="57.317380970343947" lon="-5.684285033494234">
        <ele>31.379999999999999</ele>
        <time>2023-08-26T09:52:16Z</time>
      </trkpt>
      <trkpt lat="57.317326990887523" lon="-5.684372959658504">
        <ele>30.899999999999999</ele>
        <time>2023-08-26T09:52:17Z</time>
      </trkpt>
      <trkpt lat="57.317302012816072" lon="-5.684589967131615">
        <ele>30.899999999999999</ele>
        <time>2023-08-26T09:52:18Z</time>
      </trkpt>
      <trkpt lat="57.317282985895872" lon="-5.684755006805062">
        <ele>30.899999999999999</ele>
        <time>2023-08-26T09:52:19Z</time>
      </trkpt>
      <trkpt lat="57.317263036966324" lon="-5.684923985973001">
        <ele>30.420000000000002</ele>
        <time>2023-08-26T09:52:20Z</time>
      </trkpt>
      <trkpt lat="57.317244010046124" lon="-5.685092965140939">
        <ele>30.899999999999999</ele>
        <time>2023-08-26T09:52:21Z</time>
      </trkpt>
      <trkpt lat="57.317206040024757" lon="-5.685418015345931">
        <ele>31.379999999999999</ele>
        <time>2023-08-26T09:52:23Z</time>
      </trkpt>
      <trkpt lat="57.317050974816084" lon="-5.686420993879437">
        <ele>31.859999999999999</ele>
        <time>2023-08-26T09:52:30Z</time>
      </trkpt>
      <trkpt lat="57.316996995359659" lon="-5.686536999419332">
        <ele>31.859999999999999</ele>
        <time>2023-08-26T09:52:31Z</time>
      </trkpt>
      <trkpt lat="57.316936980932951" lon="-5.686661973595619">
        <ele>31.859999999999999</ele>
        <time>2023-08-26T09:52:32Z</time>
      </trkpt>
      <trkpt lat="57.316874032840133" lon="-5.68679197691381">
        <ele>31.379999999999999</ele>
        <time>2023-08-26T09:52:33Z</time>
      </trkpt>
      <trkpt lat="57.316811000928283" lon="-5.686922986060381">
        <ele>31.379999999999999</ele>
        <time>2023-08-26T09:52:34Z</time>
      </trkpt>
      <trkpt lat="57.316747969016433" lon="-5.687053995206952">
        <ele>31.379999999999999</ele>
        <time>2023-08-26T09:52:35Z</time>
      </trkpt>
      <trkpt lat="57.316665994003415" lon="-5.687127001583576">
        <ele>31.379999999999999</ele>
        <time>2023-08-26T09:52:36Z</time>
      </trkpt>
      <trkpt lat="57.316574966534972" lon="-5.687171006575227">
        <ele>31.379999999999999</ele>
        <time>2023-08-26T09:52:37Z</time>
      </trkpt>
      <trkpt lat="57.3164820112288" lon="-5.687216017395258">
        <ele>31.379999999999999</ele>
        <time>2023-08-26T09:52:38Z</time>
      </trkpt>
      <trkpt lat="57.316389977931976" lon="-5.687261028215289">
        <ele>31.379999999999999</ele>
        <time>2023-08-26T09:52:39Z</time>
      </trkpt>
      <trkpt lat="57.316199960187078" lon="-5.6873519718647">
        <ele>31.859999999999999</ele>
        <time>2023-08-26T09:52:41Z</time>
      </trkpt>
      <trkpt lat="57.316107004880905" lon="-5.687396982684732">
        <ele>31.859999999999999</ele>
        <time>2023-08-26T09:52:42Z</time>
      </trkpt>
      <trkpt lat="57.316027963533998" lon="-5.687547018751502">
        <ele>32.340000000000003</ele>
        <time>2023-08-26T09:52:43Z</time>
      </trkpt>
      <trkpt lat="57.315956968814135" lon="-5.687684984877706">
        <ele>32.340000000000003</ele>
        <time>2023-08-26T09:52:44Z</time>
      </trkpt>
      <trkpt lat="57.315885974094272" lon="-5.687823034822941">
        <ele>32.340000000000003</ele>
        <time>2023-08-26T09:52:45Z</time>
      </trkpt>
      <trkpt lat="57.315668966621161" lon="-5.688243974000216">
        <ele>32.82</ele>
        <time>2023-08-26T09:52:48Z</time>
      </trkpt>
      <trkpt lat="57.315581040456891" lon="-5.688370959833264">
        <ele>32.82</ele>
        <time>2023-08-26T09:52:49Z</time>
      </trkpt>
      <trkpt lat="57.31549303047359" lon="-5.688500041142106">
        <ele>32.82</ele>
        <time>2023-08-26T09:52:50Z</time>
      </trkpt>
      <trkpt lat="57.315396973863244" lon="-5.688619986176491">
        <ele>32.82</ele>
        <time>2023-08-26T09:52:51Z</time>
      </trkpt>
      <trkpt lat="57.31530100107193" lon="-5.688716964796186">
        <ele>33.299999999999997</ele>
        <time>2023-08-26T09:52:52Z</time>
      </trkpt>
      <trkpt lat="57.31506303884089" lon="-5.688955010846257">
        <ele>34.740000000000002</ele>
        <time>2023-08-26T09:52:55Z</time>
      </trkpt>
      <trkpt lat="57.314996989443898" lon="-5.68904796615243">
        <ele>34.740000000000002</ele>
        <time>2023-08-26T09:52:56Z</time>
      </trkpt>
      <trkpt lat="57.31495700776577" lon="-5.689184004440904">
        <ele>35.229999999999997</ele>
        <time>2023-08-26T09:52:57Z</time>
      </trkpt>
      <trkpt lat="57.314953990280628" lon="-5.689342003315687">
        <ele>35.229999999999997</ele>
        <time>2023-08-26T09:52:58Z</time>
      </trkpt>
      <trkpt lat="57.314966982230544" lon="-5.689513999968767">
        <ele>35.229999999999997</ele>
        <time>2023-08-26T09:52:59Z</time>
      </trkpt>
      <trkpt lat="57.314980980008841" lon="-5.689703011885285">
        <ele>35.229999999999997</ele>
        <time>2023-08-26T09:53:00Z</time>
      </trkpt>
      <trkpt lat="57.314995983615518" lon="-5.689898980781436">
        <ele>35.229999999999997</ele>
        <time>2023-08-26T09:53:01Z</time>
      </trkpt>
      <trkpt lat="57.31497704051435" lon="-5.690531982108951">
        <ele>33.780000000000001</ele>
        <time>2023-08-26T09:53:04Z</time>
      </trkpt>
      <trkpt lat="57.314962036907673" lon="-5.690738009288907">
        <ele>32.82</ele>
        <time>2023-08-26T09:53:05Z</time>
      </trkpt>
      <trkpt lat="57.314935969188809" lon="-5.691506965085864">
        <ele>28.02</ele>
        <time>2023-08-26T09:53:09Z</time>
      </trkpt>
      <trkpt lat="57.314944015815854" lon="-5.691681979224086">
        <ele>27.530000000000001</ele>
        <time>2023-08-26T09:53:10Z</time>
      </trkpt>
      <trkpt lat="57.314985003322363" lon="-5.691817011684179">
        <ele>26.57</ele>
        <time>2023-08-26T09:53:11Z</time>
      </trkpt>
      <trkpt lat="57.315028002485633" lon="-5.691955983638763">
        <ele>26.57</ele>
        <time>2023-08-26T09:53:12Z</time>
      </trkpt>
      <trkpt lat="57.315072007477283" lon="-5.692095039412379">
        <ele>26.09</ele>
        <time>2023-08-26T09:53:13Z</time>
      </trkpt>
      <trkpt lat="57.315116012468934" lon="-5.692235017195344">
        <ele>26.09</ele>
        <time>2023-08-26T09:53:14Z</time>
      </trkpt>
      <trkpt lat="57.315160017460585" lon="-5.692373989149928">
        <ele>25.609999999999999</ele>
        <time>2023-08-26T09:53:15Z</time>
      </trkpt>
      <trkpt lat="57.315180972218513" lon="-5.692525031045079">
        <ele>25.129999999999999</ele>
        <time>2023-08-26T09:53:16Z</time>
      </trkpt>
      <trkpt lat="57.315180972218513" lon="-5.69265796802938">
        <ele>25.129999999999999</ele>
        <time>2023-08-26T09:53:17Z</time>
      </trkpt>
      <trkpt lat="57.315180972218513" lon="-5.692773973569274">
        <ele>24.649999999999999</ele>
        <time>2023-08-26T09:53:18Z</time>
      </trkpt>
      <trkpt lat="57.315178960561752" lon="-5.69300296716392">
        <ele>23.210000000000001</ele>
        <time>2023-08-26T09:53:21Z</time>
      </trkpt>
      <trkpt lat="57.315146019682288" lon="-5.69306599907577">
        <ele>22.73</ele>
        <time>2023-08-26T09:53:22Z</time>
      </trkpt>
      <trkpt lat="57.315103020519018" lon="-5.693146968260407">
        <ele>22.73</ele>
        <time>2023-08-26T09:53:23Z</time>
      </trkpt>
      <trkpt lat="57.315052980557084" lon="-5.693242019042373">
        <ele>22.73</ele>
        <time>2023-08-26T09:53:24Z</time>
      </trkpt>
      <trkpt lat="57.314999001100659" lon="-5.69334402680397">
        <ele>23.210000000000001</ele>
        <time>2023-08-26T09:53:25Z</time>
      </trkpt>
      <trkpt lat="57.314928006380796" lon="-5.69342901930213">
        <ele>24.170000000000002</ele>
        <time>2023-08-26T09:53:26Z</time>
      </trkpt>
      <trkpt lat="57.314759027212858" lon="-5.693615013733506">
        <ele>26.09</ele>
        <time>2023-08-26T09:53:28Z</time>
      </trkpt>
      <trkpt lat="57.314666993916035" lon="-5.693716015666723">
        <ele>27.530000000000001</ele>
        <time>2023-08-26T09:53:29Z</time>
      </trkpt>
      <trkpt lat="57.314572026953101" lon="-5.693820035085082">
        <ele>28.5</ele>
        <time>2023-08-26T09:53:30Z</time>
      </trkpt>
      <trkpt lat="57.314457027241588" lon="-5.693870997056365">
        <ele>29.460000000000001</ele>
        <time>2023-08-26T09:53:31Z</time>
      </trkpt>
      <trkpt lat="57.314330963417888" lon="-5.693892035633326">
        <ele>29.940000000000001</ele>
        <time>2023-08-26T09:53:32Z</time>
      </trkpt>
      <trkpt lat="57.314195008948445" lon="-5.693915002048016">
        <ele>30.899999999999999</ele>
        <time>2023-08-26T09:53:33Z</time>
      </trkpt>
      <trkpt lat="57.313685975968838" lon="-5.693999994546175">
        <ele>35.710000000000001</ele>
        <time>2023-08-26T09:53:37Z</time>
      </trkpt>
      <trkpt lat="57.313586985692382" lon="-5.694016003981233">
        <ele>37.149999999999999</ele>
        <time>2023-08-26T09:53:38Z</time>
      </trkpt>
      <trkpt lat="57.313484977930784" lon="-5.694059003144503">
        <ele>37.630000000000003</ele>
        <time>2023-08-26T09:53:39Z</time>
      </trkpt>
      <trkpt lat="57.313398979604244" lon="-5.694174002856016">
        <ele>38.590000000000003</ele>
        <time>2023-08-26T09:53:40Z</time>
      </trkpt>
      <trkpt lat="57.31332597322762" lon="-5.694357985630631">
        <ele>39.07</ele>
        <time>2023-08-26T09:53:41Z</time>
      </trkpt>
      <trkpt lat="57.313263025134802" lon="-5.694549009203911">
        <ele>39.549999999999997</ele>
        <time>2023-08-26T09:53:42Z</time>
      </trkpt>
      <trkpt lat="57.313121035695076" lon="-5.694973971694708">
        <ele>41.469999999999999</ele>
        <time>2023-08-26T09:53:44Z</time>
      </trkpt>
      <trkpt lat="57.313038976863027" lon="-5.69506399333477">
        <ele>42.439999999999998</ele>
        <time>2023-08-26T09:53:45Z</time>
      </trkpt>
      <trkpt lat="57.31293898075819" lon="-5.695173963904381">
        <ele>43.880000000000003</ele>
        <time>2023-08-26T09:53:46Z</time>
      </trkpt>
      <trkpt lat="57.312822975218296" lon="-5.69525602273643">
        <ele>44.840000000000003</ele>
        <time>2023-08-26T09:53:47Z</time>
      </trkpt>
      <trkpt lat="57.31270101852715" lon="-5.695325005799532">
        <ele>45.799999999999997</ele>
        <time>2023-08-26T09:53:48Z</time>
      </trkpt>
      <trkpt lat="57.312573026865721" lon="-5.695398012176156">
        <ele>46.759999999999998</ele>
        <time>2023-08-26T09:53:49Z</time>
      </trkpt>
      <trkpt lat="57.312439000234008" lon="-5.695473030209541">
        <ele>47.240000000000002</ele>
        <time>2023-08-26T09:53:50Z</time>
      </trkpt>
      <trkpt lat="57.311768028885126" lon="-5.695704035460949">
        <ele>49.649999999999999</ele>
        <time>2023-08-26T09:53:55Z</time>
      </trkpt>
      <trkpt lat="57.311652023345232" lon="-5.69579397328198">
        <ele>50.130000000000003</ele>
        <time>2023-08-26T09:53:56Z</time>
      </trkpt>
      <trkpt lat="57.311540963128209" lon="-5.695916013792157">
        <ele>50.609999999999999</ele>
        <time>2023-08-26T09:53:57Z</time>
      </trkpt>
      <trkpt lat="57.311450019478798" lon="-5.696077030152082">
        <ele>51.090000000000003</ele>
        <time>2023-08-26T09:53:58Z</time>
      </trkpt>
      <trkpt lat="57.311361003667116" lon="-5.696236034855247">
        <ele>51.090000000000003</ele>
        <time>2023-08-26T09:53:59Z</time>
      </trkpt>
      <trkpt lat="57.311277016997337" lon="-5.696384981274605">
        <ele>51.57</ele>
        <time>2023-08-26T09:54:00Z</time>
      </trkpt>
      <trkpt lat="57.310861023142934" lon="-5.697240019217134">
        <ele>56.369999999999997</ele>
        <time>2023-08-26T09:54:06Z</time>
      </trkpt>
      <trkpt lat="57.31078902259469" lon="-5.697393994778395">
        <ele>56.859999999999999</ele>
        <time>2023-08-26T09:54:07Z</time>
      </trkpt>
      <trkpt lat="57.310695983469486" lon="-5.697590969502926">
        <ele>57.82</ele>
        <time>2023-08-26T09:54:08Z</time>
      </trkpt>
      <trkpt lat="57.310586012899876" lon="-5.697667999193072">
        <ele>58.780000000000001</ele>
        <time>2023-08-26T09:54:09Z</time>
      </trkpt>
      <trkpt lat="57.310473024845123" lon="-5.697746034711599">
        <ele>59.740000000000002</ele>
        <time>2023-08-26T09:54:10Z</time>
      </trkpt>
      <trkpt lat="57.310329023748636" lon="-5.697764977812767">
        <ele>60.219999999999999</ele>
        <time>2023-08-26T09:54:11Z</time>
      </trkpt>
      <trkpt lat="57.310207989066839" lon="-5.697737988084555">
        <ele>60.700000000000003</ele>
        <time>2023-08-26T09:54:12Z</time>
      </trkpt>
      <trkpt lat="57.310075974091887" lon="-5.697707980871201">
        <ele>60.700000000000003</ele>
        <time>2023-08-26T09:54:13Z</time>
      </trkpt>
      <trkpt lat="57.309938007965684" lon="-5.697676967829466">
        <ele>61.18</ele>
        <time>2023-08-26T09:54:14Z</time>
      </trkpt>
      <trkpt lat="57.309796018525958" lon="-5.697646038606763">
        <ele>61.18</ele>
        <time>2023-08-26T09:54:15Z</time>
      </trkpt>
      <trkpt lat="57.308879960328341" lon="-5.697441017255187">
        <ele>61.18</ele>
        <time>2023-08-26T09:54:21Z</time>
      </trkpt>
      <trkpt lat="57.308718021959066" lon="-5.697464989498258">
        <ele>61.18</ele>
        <time>2023-08-26T09:54:22Z</time>
      </trkpt>
      <trkpt lat="57.308571003377438" lon="-5.697560962289572">
        <ele>61.659999999999997</ele>
        <time>2023-08-26T09:54:23Z</time>
      </trkpt>
      <trkpt lat="57.308422978967428" lon="-5.697658024728298">
        <ele>61.659999999999997</ele>
        <time>2023-08-26T09:54:24Z</time>
      </trkpt>
      <trkpt lat="57.308271015062928" lon="-5.697758020833135">
        <ele>62.140000000000001</ele>
        <time>2023-08-26T09:54:25Z</time>
      </trkpt>
      <trkpt lat="57.30618903413415" lon="-5.699279000982642">
        <ele>69.829999999999998</ele>
        <time>2023-08-26T09:54:38Z</time>
      </trkpt>
      <trkpt lat="57.304980028420687" lon="-5.699643027037382">
        <ele>70.310000000000002</ele>
        <time>2023-08-26T09:54:45Z</time>
      </trkpt>
      <trkpt lat="57.304825969040394" lon="-5.699755009263754">
        <ele>69.829999999999998</ele>
        <time>2023-08-26T09:54:46Z</time>
      </trkpt>
      <trkpt lat="57.304674005135894" lon="-5.699903033673763">
        <ele>68.870000000000005</ele>
        <time>2023-08-26T09:54:47Z</time>
      </trkpt>
      <trkpt lat="57.304540984332561" lon="-5.70009196177125">
        <ele>67.430000000000007</ele>
        <time>2023-08-26T09:54:48Z</time>
      </trkpt>
      <trkpt lat="57.304422967135906" lon="-5.700329001992941">
        <ele>65.989999999999995</ele>
        <time>2023-08-26T09:54:49Z</time>
      </trkpt>
      <trkpt lat="57.304329006001353" lon="-5.700594037771225">
        <ele>64.549999999999997</ele>
        <time>2023-08-26T09:54:50Z</time>
      </trkpt>
      <trkpt lat="57.304239990189672" lon="-5.700873993337154">
        <ele>62.619999999999997</ele>
        <time>2023-08-26T09:54:51Z</time>
      </trkpt>
      <trkpt lat="57.30417100712657" lon="-5.701181022450328">
        <ele>60.700000000000003</ele>
        <time>2023-08-26T09:54:52Z</time>
      </trkpt>
      <trkpt lat="57.304100012406707" lon="-5.701495008543134">
        <ele>58.780000000000001</ele>
        <time>2023-08-26T09:54:53Z</time>
      </trkpt>
      <trkpt lat="57.303429963067174" lon="-5.704591032117605">
        <ele>40.990000000000002</ele>
        <time>2023-08-26T09:55:03Z</time>
      </trkpt>
      <trkpt lat="57.303113965317607" lon="-5.706578968092799">
        <ele>34.259999999999998</ele>
        <time>2023-08-26T09:55:11Z</time>
      </trkpt>
      <trkpt lat="57.302831998094916" lon="-5.70883696898818">
        <ele>30.899999999999999</ele>
        <time>2023-08-26T09:55:22Z</time>
      </trkpt>
      <trkpt lat="57.302427990362048" lon="-5.710806967690587">
        <ele>28.98</ele>
        <time>2023-08-26T09:55:29Z</time>
      </trkpt>
      <trkpt lat="57.302027000114322" lon="-5.712962038815022">
        <ele>29.460000000000001</ele>
        <time>2023-08-26T09:55:36Z</time>
      </trkpt>
      <trkpt lat="57.301987018436193" lon="-5.713190026581287">
        <ele>29.460000000000001</ele>
        <time>2023-08-26T09:55:37Z</time>
      </trkpt>
      <trkpt lat="57.301953993737698" lon="-5.71336998604238">
        <ele>29.460000000000001</ele>
        <time>2023-08-26T09:55:38Z</time>
      </trkpt>
      <trkpt lat="57.301914012059569" lon="-5.713595962151885">
        <ele>28.5</ele>
        <time>2023-08-26T09:55:40Z</time>
      </trkpt>
      <trkpt lat="57.301899008452892" lon="-5.713684977963567">
        <ele>26.57</ele>
        <time>2023-08-26T09:55:47Z</time>
      </trkpt>
      <trkpt lat="57.301899008452892" lon="-5.713684977963567">
        <ele>26.57</ele>
        <time>2023-08-26T09:56:11Z</time>
      </trkpt>
      <trkpt lat="57.30187201872468" lon="-5.713771982118487">
        <ele>25.609999999999999</ele>
        <time>2023-08-26T09:56:39Z</time>
      </trkpt>
      <trkpt lat="57.301874030381441" lon="-5.713765025138855">
        <ele>25.609999999999999</ele>
        <time>2023-08-26T09:56:40Z</time>
      </trkpt>
      <trkpt lat="57.301899008452892" lon="-5.713684977963567">
        <ele>25.609999999999999</ele>
        <time>2023-08-26T09:56:41Z</time>
      </trkpt>
      <trkpt lat="57.301899008452892" lon="-5.713684977963567">
        <ele>26.09</ele>
        <time>2023-08-26T09:56:42Z</time>
      </trkpt>
      <trkpt lat="57.301899008452892" lon="-5.713684977963567">
        <ele>26.57</ele>
        <time>2023-08-26T09:56:44Z</time>
      </trkpt>
      <trkpt lat="57.301899008452892" lon="-5.713684977963567">
        <ele>26.57</ele>
        <time>2023-08-26T09:56:45Z</time>
      </trkpt>
      <trkpt lat="57.301992969587445" lon="-5.713725965470076">
        <ele>26.57</ele>
        <time>2023-08-26T09:56:46Z</time>
      </trkpt>
      <trkpt lat="57.302050972357392" lon="-5.713752033188939">
        <ele>26.09</ele>
        <time>2023-08-26T09:56:47Z</time>
      </trkpt>
      <trkpt lat="57.302124984562397" lon="-5.71375303901732">
        <ele>26.57</ele>
        <time>2023-08-26T09:56:48Z</time>
      </trkpt>
      <trkpt lat="57.302191033959389" lon="-5.713719008490443">
        <ele>26.57</ele>
        <time>2023-08-26T09:56:49Z</time>
      </trkpt>
      <trkpt lat="57.302262028679252" lon="-5.713681960478425">
        <ele>26.57</ele>
        <time>2023-08-26T09:56:50Z</time>
      </trkpt>
      <trkpt lat="57.302333023399115" lon="-5.713644996285439">
        <ele>26.57</ele>
        <time>2023-08-26T09:56:51Z</time>
      </trkpt>
      <trkpt lat="57.302620019763708" lon="-5.713495966047049">
        <ele>26.09</ele>
        <time>2023-08-26T09:56:56Z</time>
      </trkpt>
      <trkpt lat="57.302661007270217" lon="-5.713517004624009">
        <ele>26.09</ele>
        <time>2023-08-26T09:56:57Z</time>
      </trkpt>
      <trkpt lat="57.302705012261868" lon="-5.713551035150886">
        <ele>26.09</ele>
        <time>2023-08-26T09:56:58Z</time>
      </trkpt>
      <trkpt lat="57.302749017253518" lon="-5.71358498185873">
        <ele>26.09</ele>
        <time>2023-08-26T09:56:59Z</time>
      </trkpt>
      <trkpt lat="57.302793022245169" lon="-5.713620018213987">
        <ele>26.09</ele>
        <time>2023-08-26T09:57:00Z</time>
      </trkpt>
      <trkpt lat="57.302831998094916" lon="-5.713693024590612">
        <ele>26.09</ele>
        <time>2023-08-26T09:57:01Z</time>
      </trkpt>
      <trkpt lat="57.302852030843496" lon="-5.713783968240023">
        <ele>26.09</ele>
        <time>2023-08-26T09:57:02Z</time>
      </trkpt>
      <trkpt lat="57.302872985601425" lon="-5.713881030678749">
        <ele>26.09</ele>
        <time>2023-08-26T09:57:03Z</time>
      </trkpt>
      <trkpt lat="57.302888995036483" lon="-5.713987983763218">
        <ele>26.09</ele>
        <time>2023-08-26T09:57:04Z</time>
      </trkpt>
      <trkpt lat="57.302898969501257" lon="-5.714101977646351">
        <ele>25.609999999999999</ele>
        <time>2023-08-26T09:57:05Z</time>
      </trkpt>
      <trkpt lat="57.302908021956682" lon="-5.714214965701103">
        <ele>25.609999999999999</ele>
        <time>2023-08-26T09:57:06Z</time>
      </trkpt>
      <trkpt lat="57.30292696505785" lon="-5.714455023407936">
        <ele>24.649999999999999</ele>
        <time>2023-08-26T09:57:08Z</time>
      </trkpt>
      <trkpt lat="57.302938029170036" lon="-5.714587960392237">
        <ele>24.170000000000002</ele>
        <time>2023-08-26T09:57:09Z</time>
      </trkpt>
      <trkpt lat="57.303029978647828" lon="-5.71573200635612">
        <ele>12.15</ele>
        <time>2023-08-26T09:57:20Z</time>
      </trkpt>
      <trkpt lat="57.30303299613297" lon="-5.715770982205868">
        <ele>11.67</ele>
        <time>2023-08-26T09:57:21Z</time>
      </trkpt>
      <trkpt lat="57.303036013618112" lon="-5.715809036046267">
        <ele>10.710000000000001</ele>
        <time>2023-08-26T09:57:22Z</time>
      </trkpt>
      <trkpt lat="57.303061997517943" lon="-5.715825967490673">
        <ele>9.75</ele>
        <time>2023-08-26T09:57:23Z</time>
      </trkpt>
      <trkpt lat="57.303082030266523" lon="-5.715838959440589">
        <ele>9.27</ele>
        <time>2023-08-26T09:57:24Z</time>
      </trkpt>
      <trkpt lat="57.303104996681213" lon="-5.715853963047266">
        <ele>8.310000000000001</ele>
        <time>2023-08-26T09:57:25Z</time>
      </trkpt>
      <trkpt lat="57.303137015551329" lon="-5.715873995795846">
        <ele>7.83</ele>
        <time>2023-08-26T09:57:26Z</time>
      </trkpt>
      <trkpt lat="57.303215973079205" lon="-5.71592596359551">
        <ele>6.39</ele>
        <time>2023-08-26T09:57:28Z</time>
      </trkpt>
      <trkpt lat="57.303260983899236" lon="-5.715953959152103">
        <ele>5.91</ele>
        <time>2023-08-26T09:57:29Z</time>
      </trkpt>
      <trkpt lat="57.303514033555984" lon="-5.716059990227222">
        <ele>3.5</ele>
        <time>2023-08-26T09:57:34Z</time>
      </trkpt>
      <trkpt lat="57.303722994402051" lon="-5.716087985783815">
        <ele>-0.34</ele>
        <time>2023-08-26T09:57:46Z</time>
      </trkpt>
      <trkpt lat="57.304067993536592" lon="-5.716301975771785">
        <ele>1.58</ele>
        <time>2023-08-26T09:57:57Z</time>
      </trkpt>
      <trkpt lat="57.304067993536592" lon="-5.716326031833887">
        <ele>3.02</ele>
        <time>2023-08-26T09:57:59Z</time>
      </trkpt>
      <trkpt lat="57.303994987159967" lon="-5.716305999085307">
        <ele>3.5</ele>
        <time>2023-08-26T09:58:04Z</time>
      </trkpt>
      <trkpt lat="57.303722994402051" lon="-5.716087985783815">
        <ele>3.5</ele>
        <time>2023-08-26T09:58:06Z</time>
      </trkpt>
      <trkpt lat="57.303722994402051" lon="-5.716087985783815">
        <ele>3.02</ele>
        <time>2023-08-26T09:58:09Z</time>
      </trkpt>
      <trkpt lat="57.303722994402051" lon="-5.716087985783815">
        <ele>3.02</ele>
        <time>2023-08-26T09:58:10Z</time>
      </trkpt>
      <trkpt lat="57.303684018552303" lon="-5.716083040460944">
        <ele>3.5</ele>
        <time>2023-08-26T09:58:11Z</time>
      </trkpt>
      <trkpt lat="57.303577987477183" lon="-5.716068958863616">
        <ele>3.5</ele>
        <time>2023-08-26T09:58:13Z</time>
      </trkpt>
      <trkpt lat="57.303528031334281" lon="-5.716062001883984">
        <ele>3.5</ele>
        <time>2023-08-26T09:58:14Z</time>
      </trkpt>
      <trkpt lat="57.303476985543966" lon="-5.71605496108532">
        <ele>3.5</ele>
        <time>2023-08-26T09:58:15Z</time>
      </trkpt>
      <trkpt lat="57.303111031651497" lon="-5.715857986360788">
        <ele>2.06</ele>
        <time>2023-08-26T09:58:23Z</time>
      </trkpt>
      <trkpt lat="57.303092004731297" lon="-5.715844994410873">
        <ele>2.06</ele>
        <time>2023-08-26T09:58:24Z</time>
      </trkpt>
      <trkpt lat="57.30307599529624" lon="-5.715835019946098">
        <ele>2.06</ele>
        <time>2023-08-26T09:58:25Z</time>
      </trkpt>
      <trkpt lat="57.303036013618112" lon="-5.715805012732744">
        <ele>2.06</ele>
        <time>2023-08-26T09:58:34Z</time>
      </trkpt>
      <trkpt lat="57.303028972819448" lon="-5.715723959729075">
        <ele>2.06</ele>
        <time>2023-08-26T09:58:35Z</time>
      </trkpt>
      <trkpt lat="57.302966024726629" lon="-5.714935977011919">
        <ele>3.5</ele>
        <time>2023-08-26T09:58:40Z</time>
      </trkpt>
      <trkpt lat="57.302848007529974" lon="-5.713767036795616">
        <ele>10.710000000000001</ele>
        <time>2023-08-26T09:58:47Z</time>
      </trkpt>
      <trkpt lat="57.302806014195085" lon="-5.713628986850381">
        <ele>11.67</ele>
        <time>2023-08-26T09:58:48Z</time>
      </trkpt>
      <trkpt lat="57.302735019475222" lon="-5.713575007393956">
        <ele>13.119999999999999</ele>
        <time>2023-08-26T09:58:49Z</time>
      </trkpt>
      <trkpt lat="57.302660001441836" lon="-5.713515998795629">
        <ele>14.08</ele>
        <time>2023-08-26T09:58:50Z</time>
      </trkpt>
      <trkpt lat="57.302571991458535" lon="-5.713521027937532">
        <ele>15.039999999999999</ele>
        <time>2023-08-26T09:58:51Z</time>
      </trkpt>
      <trkpt lat="57.302477024495602" lon="-5.713569978252053">
        <ele>16</ele>
        <time>2023-08-26T09:58:52Z</time>
      </trkpt>
      <trkpt lat="57.302375016734004" lon="-5.713623035699129">
        <ele>17.440000000000001</ele>
        <time>2023-08-26T09:58:53Z</time>
      </trkpt>
      <trkpt lat="57.302275020629168" lon="-5.713675003498793">
        <ele>18.399999999999999</ele>
        <time>2023-08-26T09:58:54Z</time>
      </trkpt>
      <trkpt lat="57.302096989005804" lon="-5.713767958804965">
        <ele>20.32</ele>
        <time>2023-08-26T09:58:56Z</time>
      </trkpt>
      <trkpt lat="57.302027000114322" lon="-5.713741974905133">
        <ele>21.289999999999999</ele>
        <time>2023-08-26T09:58:57Z</time>
      </trkpt>
      <trkpt lat="57.301927004009485" lon="-5.713696964085102">
        <ele>22.73</ele>
        <time>2023-08-26T09:59:00Z</time>
      </trkpt>
      <trkpt lat="57.301927004009485" lon="-5.713696964085102">
        <ele>23.690000000000001</ele>
        <time>2023-08-26T09:59:12Z</time>
      </trkpt>
      <trkpt lat="57.301910994574428" lon="-5.71369000710547">
        <ele>23.690000000000001</ele>
        <time>2023-08-26T09:59:32Z</time>
      </trkpt>
      <trkpt lat="57.301899008452892" lon="-5.713684977963567">
        <ele>24.649999999999999</ele>
        <time>2023-08-26T09:59:33Z</time>
      </trkpt>
      <trkpt lat="57.301865983754396" lon="-5.713790003210306">
        <ele>25.129999999999999</ele>
        <time>2023-08-26T09:59:34Z</time>
      </trkpt>
      <trkpt lat="57.301841005682945" lon="-5.713872984051704">
        <ele>25.609999999999999</ele>
        <time>2023-08-26T09:59:35Z</time>
      </trkpt>
      <trkpt lat="57.301812004297972" lon="-5.71396904066205">
        <ele>25.609999999999999</ele>
        <time>2023-08-26T09:59:36Z</time>
      </trkpt>
      <trkpt lat="57.301430962979794" lon="-5.715208975598216">
        <ele>24.649999999999999</ele>
        <time>2023-08-26T09:59:47Z</time>
      </trkpt>
      <trkpt lat="57.301404979079962" lon="-5.715293968096376">
        <ele>24.649999999999999</ele>
        <time>2023-08-26T09:59:48Z</time>
      </trkpt>
      <trkpt lat="57.301387041807175" lon="-5.715355994179845">
        <ele>24.649999999999999</ele>
        <time>2023-08-26T09:59:49Z</time>
      </trkpt>
      <trkpt lat="57.301370026543736" lon="-5.715413996949792">
        <ele>24.649999999999999</ele>
        <time>2023-08-26T09:59:50Z</time>
      </trkpt>
      <trkpt lat="57.301368014886975" lon="-5.715421037748456">
        <ele>24.170000000000002</ele>
        <time>2023-08-26T09:59:51Z</time>
      </trkpt>
      <trkpt lat="57.301461976021528" lon="-5.715382983908057">
        <ele>24.170000000000002</ele>
        <time>2023-08-26T09:59:52Z</time>
      </trkpt>
      <trkpt lat="57.301502963528037" lon="-5.715447021648288">
        <ele>23.690000000000001</ele>
        <time>2023-08-26T09:59:53Z</time>
      </trkpt>
      <trkpt lat="57.301771016791463" lon="-5.716316979378462">
        <ele>20.809999999999999</ele>
        <time>2023-08-26T10:00:02Z</time>
      </trkpt>
      <trkpt lat="57.301790965721011" lon="-5.716405995190144">
        <ele>19.84</ele>
        <time>2023-08-26T10:00:04Z</time>
      </trkpt>
      <trkpt lat="57.301790965721011" lon="-5.716410018503666">
        <ele>19.84</ele>
        <time>2023-08-26T10:00:05Z</time>
      </trkpt>
      <trkpt lat="57.301693987101316" lon="-5.716307004913688">
        <ele>19.359999999999999</ele>
        <time>2023-08-26T10:00:06Z</time>
      </trkpt>
      <trkpt lat="57.301693987101316" lon="-5.716307004913688">
        <ele>18.879999999999999</ele>
        <time>2023-08-26T10:00:21Z</time>
      </trkpt>
      <trkpt lat="57.301693987101316" lon="-5.716307004913688">
        <ele>18.399999999999999</ele>
        <time>2023-08-26T10:01:00Z</time>
      </trkpt>
      <trkpt lat="57.301693987101316" lon="-5.716307004913688">
        <ele>18.399999999999999</ele>
        <time>2023-08-26T10:01:04Z</time>
      </trkpt>
      <trkpt lat="57.301790965721011" lon="-5.716410018503666">
        <ele>17.920000000000002</ele>
        <time>2023-08-26T10:01:05Z</time>
      </trkpt>
      <trkpt lat="57.301747966557741" lon="-5.716216983273625">
        <ele>17.920000000000002</ele>
        <time>2023-08-26T10:01:06Z</time>
      </trkpt>
      <trkpt lat="57.301617041230202" lon="-5.715670986101031">
        <ele>21.289999999999999</ele>
        <time>2023-08-26T10:01:12Z</time>
      </trkpt>
      <trkpt lat="57.301450995728374" lon="-5.715364962816238">
        <ele>26.09</ele>
        <time>2023-08-26T10:01:20Z</time>
      </trkpt>
      <trkpt lat="57.301431968808174" lon="-5.715335961431265">
        <ele>27.050000000000001</ele>
        <time>2023-08-26T10:01:30Z</time>
      </trkpt>
      <trkpt lat="57.301374971866608" lon="-5.715395975857973">
        <ele>27.050000000000001</ele>
        <time>2023-08-26T10:01:31Z</time>
      </trkpt>
      <trkpt lat="57.301341025158763" lon="-5.715512987226248">
        <ele>27.530000000000001</ele>
        <time>2023-08-26T10:01:32Z</time>
      </trkpt>
      <trkpt lat="57.301296014338732" lon="-5.71566604077816">
        <ele>27.530000000000001</ele>
        <time>2023-08-26T10:01:33Z</time>
      </trkpt>
      <trkpt lat="57.301243040710688" lon="-5.715846000239253">
        <ele>27.530000000000001</ele>
        <time>2023-08-26T10:01:34Z</time>
      </trkpt>
      <trkpt lat="57.300803996622562" lon="-5.717535959556699">
        <ele>28.02</ele>
        <time>2023-08-26T10:01:41Z</time>
      </trkpt>
      <trkpt lat="57.300629988312721" lon="-5.718316985294223">
        <ele>28.5</ele>
        <time>2023-08-26T10:01:44Z</time>
      </trkpt>
      <trkpt lat="57.300558993592858" lon="-5.718550002202392">
        <ele>28.98</ele>
        <time>2023-08-26T10:01:45Z</time>
      </trkpt>
      <trkpt lat="57.300479030236602" lon="-5.718776984140277">
        <ele>29.460000000000001</ele>
        <time>2023-08-26T10:01:46Z</time>
      </trkpt>
      <trkpt lat="57.300391020253301" lon="-5.718951998278499">
        <ele>30.420000000000002</ele>
        <time>2023-08-26T10:01:47Z</time>
      </trkpt>
      <trkpt lat="57.300289012491703" lon="-5.719156013801694">
        <ele>31.859999999999999</ele>
        <time>2023-08-26T10:01:48Z</time>
      </trkpt>
      <trkpt lat="57.300202008336782" lon="-5.719262966886163">
        <ele>32.82</ele>
        <time>2023-08-26T10:01:49Z</time>
      </trkpt>
      <trkpt lat="57.300118021667004" lon="-5.719365980476141">
        <ele>34.259999999999998</ele>
        <time>2023-08-26T10:01:50Z</time>
      </trkpt>
      <trkpt lat="57.299900008365512" lon="-5.719631016254425">
        <ele>37.630000000000003</ele>
        <time>2023-08-26T10:01:53Z</time>
      </trkpt>
      <trkpt lat="57.299765981733799" lon="-5.719818016514182">
        <ele>38.590000000000003</ele>
        <time>2023-08-26T10:01:55Z</time>
      </trkpt>
      <trkpt lat="57.299186959862709" lon="-5.720956027507782">
        <ele>33.780000000000001</ele>
        <time>2023-08-26T10:02:03Z</time>
      </trkpt>
      <trkpt lat="57.298471983522177" lon="-5.722136031836271">
        <ele>32.340000000000003</ele>
        <time>2023-08-26T10:02:13Z</time>
      </trkpt>
      <trkpt lat="57.297654999420047" lon="-5.723119983449578">
        <ele>31.379999999999999</ele>
        <time>2023-08-26T10:02:24Z</time>
      </trkpt>
      <trkpt lat="57.297517033293843" lon="-5.723277982324362">
        <ele>30.420000000000002</ele>
        <time>2023-08-26T10:02:26Z</time>
      </trkpt>
      <trkpt lat="57.297459030523896" lon="-5.723383007571101">
        <ele>29.940000000000001</ele>
        <time>2023-08-26T10:02:27Z</time>
      </trkpt>
      <trkpt lat="57.296678004786372" lon="-5.725156031548977">
        <ele>29.940000000000001</ele>
        <time>2023-08-26T10:02:40Z</time>
      </trkpt>
      <trkpt lat="57.296266034245491" lon="-5.726012997329235">
        <ele>28.02</ele>
        <time>2023-08-26T10:02:47Z</time>
      </trkpt>
      <trkpt lat="57.29622202925384" lon="-5.726073011755943">
        <ele>27.530000000000001</ele>
        <time>2023-08-26T10:02:48Z</time>
      </trkpt>
      <trkpt lat="57.296167965978384" lon="-5.726106958463788">
        <ele>27.050000000000001</ele>
        <time>2023-08-26T10:02:49Z</time>
      </trkpt>
      <trkpt lat="57.296112980693579" lon="-5.726140988990665">
        <ele>27.050000000000001</ele>
        <time>2023-08-26T10:02:50Z</time>
      </trkpt>
      <trkpt lat="57.296062018722296" lon="-5.72617300786078">
        <ele>26.57</ele>
        <time>2023-08-26T10:02:51Z</time>
      </trkpt>
      <trkpt lat="57.295990018174052" lon="-5.726164039224386">
        <ele>26.09</ele>
        <time>2023-08-26T10:02:52Z</time>
      </trkpt>
      <trkpt lat="57.295915000140667" lon="-5.7261529751122">
        <ele>26.09</ele>
        <time>2023-08-26T10:02:53Z</time>
      </trkpt>
      <trkpt lat="57.295833025127649" lon="-5.726143000647426">
        <ele>26.09</ele>
        <time>2023-08-26T10:02:54Z</time>
      </trkpt>
      <trkpt lat="57.294915039092302" lon="-5.725828008726239">
        <ele>18.399999999999999</ele>
        <time>2023-08-26T10:03:04Z</time>
      </trkpt>
      <trkpt lat="57.294110963121057" lon="-5.725082019343972">
        <ele>17.440000000000001</ele>
        <time>2023-08-26T10:03:13Z</time>
      </trkpt>
      <trkpt lat="57.293285010382533" lon="-5.723881982266903">
        <ele>13.6</ele>
        <time>2023-08-26T10:03:23Z</time>
      </trkpt>
      <trkpt lat="57.293181996792555" lon="-5.72378802113235">
        <ele>13.119999999999999</ele>
        <time>2023-08-26T10:03:24Z</time>
      </trkpt>
      <trkpt lat="57.293080994859338" lon="-5.723694982007146">
        <ele>12.630000000000001</ele>
        <time>2023-08-26T10:03:25Z</time>
      </trkpt>
      <trkpt lat="57.292980998754501" lon="-5.723604038357735">
        <ele>12.15</ele>
        <time>2023-08-26T10:03:26Z</time>
      </trkpt>
      <trkpt lat="57.292876979336143" lon="-5.723547963425517">
        <ele>12.15</ele>
        <time>2023-08-26T10:03:27Z</time>
      </trkpt>
      <trkpt lat="57.292560981586576" lon="-5.723422989249229">
        <ele>11.19</ele>
        <time>2023-08-26T10:03:33Z</time>
      </trkpt>
      <trkpt lat="57.292541032657027" lon="-5.723415026441217">
        <ele>10.710000000000001</ele>
        <time>2023-08-26T10:03:45Z</time>
      </trkpt>
      <trkpt lat="57.292541032657027" lon="-5.723415026441217">
        <ele>11.19</ele>
        <time>2023-08-26T10:04:23Z</time>
      </trkpt>
      <trkpt lat="57.292541032657027" lon="-5.723415026441217">
        <ele>11.19</ele>
        <time>2023-08-26T10:05:13Z</time>
      </trkpt>
      <trkpt lat="57.292541032657027" lon="-5.723415026441217">
        <ele>11.19</ele>
        <time>2023-08-26T10:05:59Z</time>
      </trkpt>
      <trkpt lat="57.292445981875062" lon="-5.723461965098977">
        <ele>25.609999999999999</ele>
        <time>2023-08-26T10:06:48Z</time>
      </trkpt>
      <trkpt lat="57.292426032945514" lon="-5.723370015621185">
        <ele>12.630000000000001</ele>
        <time>2023-08-26T10:07:17Z</time>
      </trkpt>
      <trkpt lat="57.291793031617999" lon="-5.723044965416193">
        <ele>12.630000000000001</ele>
        <time>2023-08-26T10:07:24Z</time>
      </trkpt>
      <trkpt lat="57.291205963119864" lon="-5.722335018217564">
        <ele>14.08</ele>
        <time>2023-08-26T10:07:30Z</time>
      </trkpt>
      <trkpt lat="57.291142009198666" lon="-5.722189005464315">
        <ele>14.56</ele>
        <time>2023-08-26T10:07:31Z</time>
      </trkpt>
      <trkpt lat="57.291088029742241" lon="-5.722052967175841">
        <ele>15.52</ele>
        <time>2023-08-26T10:07:32Z</time>
      </trkpt>
      <trkpt lat="57.29097998701036" lon="-5.721784997731447">
        <ele>16.960000000000001</ele>
        <time>2023-08-26T10:07:34Z</time>
      </trkpt>
      <trkpt lat="57.290357965976" lon="-5.720238033682108">
        <ele>24.170000000000002</ele>
        <time>2023-08-26T10:07:43Z</time>
      </trkpt>
      <trkpt lat="57.289650030434132" lon="-5.718816965818405">
        <ele>28.5</ele>
        <time>2023-08-26T10:07:51Z</time>
      </trkpt>
      <trkpt lat="57.289539976045489" lon="-5.718706995248795">
        <ele>28.5</ele>
        <time>2023-08-26T10:07:52Z</time>
      </trkpt>
      <trkpt lat="57.28943302296102" lon="-5.718599958345294">
        <ele>28.5</ele>
        <time>2023-08-26T10:07:53Z</time>
      </trkpt>
      <trkpt lat="57.289323974400759" lon="-5.718490993604064">
        <ele>28.5</ele>
        <time>2023-08-26T10:07:54Z</time>
      </trkpt>
      <trkpt lat="57.289205035194755" lon="-5.718476995825768">
        <ele>28.5</ele>
        <time>2023-08-26T10:07:55Z</time>
      </trkpt>
      <trkpt lat="57.289082994684577" lon="-5.718462998047471">
        <ele>28.5</ele>
        <time>2023-08-26T10:07:56Z</time>
      </trkpt>
      <trkpt lat="57.288151010870934" lon="-5.718407006934285">
        <ele>28.02</ele>
        <time>2023-08-26T10:08:06Z</time>
      </trkpt>
      <trkpt lat="57.287731999531388" lon="-5.718369036912918">
        <ele>27.050000000000001</ele>
        <time>2023-08-26T10:08:12Z</time>
      </trkpt>
      <trkpt lat="57.287608031183481" lon="-5.718341041356325">
        <ele>27.050000000000001</ele>
        <time>2023-08-26T10:08:14Z</time>
      </trkpt>
      <trkpt lat="57.287544999271631" lon="-5.718256970867515">
        <ele>27.050000000000001</ele>
        <time>2023-08-26T10:08:15Z</time>
      </trkpt>
      <trkpt lat="57.287485990673304" lon="-5.718178013339639">
        <ele>26.57</ele>
        <time>2023-08-26T10:08:16Z</time>
      </trkpt>
      <trkpt lat="57.287414995953441" lon="-5.718082962557674">
        <ele>25.609999999999999</ele>
        <time>2023-08-26T10:08:17Z</time>
      </trkpt>
      <trkpt lat="57.287388006225228" lon="-5.717976009473205">
        <ele>25.129999999999999</ele>
        <time>2023-08-26T10:08:18Z</time>
      </trkpt>
      <trkpt lat="57.287371996790171" lon="-5.71783896535635">
        <ele>24.649999999999999</ele>
        <time>2023-08-26T10:08:19Z</time>
      </trkpt>
      <trkpt lat="57.287371996790171" lon="-5.717697981745005">
        <ele>24.649999999999999</ele>
        <time>2023-08-26T10:08:20Z</time>
      </trkpt>
      <trkpt lat="57.287389012053609" lon="-5.717562027275562">
        <ele>24.649999999999999</ele>
        <time>2023-08-26T10:08:21Z</time>
      </trkpt>
      <trkpt lat="57.287418013438582" lon="-5.717411991208792">
        <ele>24.649999999999999</ele>
        <time>2023-08-26T10:08:22Z</time>
      </trkpt>
      <trkpt lat="57.287449026480317" lon="-5.717251980677247">
        <ele>24.649999999999999</ele>
        <time>2023-08-26T10:08:23Z</time>
      </trkpt>
      <trkpt lat="57.287635020911694" lon="-5.716276997700334">
        <ele>27.050000000000001</ele>
        <time>2023-08-26T10:08:30Z</time>
      </trkpt>
      <trkpt lat="57.287642983719707" lon="-5.716171972453594">
        <ele>27.050000000000001</ele>
        <time>2023-08-26T10:08:31Z</time>
      </trkpt>
      <trkpt lat="57.287614988163114" lon="-5.716086979955435">
        <ele>27.530000000000001</ele>
        <time>2023-08-26T10:08:32Z</time>
      </trkpt>
      <trkpt lat="57.287583975121379" lon="-5.715996036306024">
        <ele>27.530000000000001</ele>
        <time>2023-08-26T10:08:33Z</time>
      </trkpt>
      <trkpt lat="57.287529995664954" lon="-5.715906014665961">
        <ele>28.02</ele>
        <time>2023-08-26T10:08:34Z</time>
      </trkpt>
      <trkpt lat="57.287467969581485" lon="-5.715848011896014">
        <ele>28.02</ele>
        <time>2023-08-26T10:08:35Z</time>
      </trkpt>
      <trkpt lat="57.287407033145428" lon="-5.715791014954448">
        <ele>28.02</ele>
        <time>2023-08-26T10:08:36Z</time>
      </trkpt>
      <trkpt lat="57.286771014332771" lon="-5.71532397530973">
        <ele>29.460000000000001</ele>
        <time>2023-08-26T10:08:46Z</time>
      </trkpt>
      <trkpt lat="57.286630030721426" lon="-5.71523797698319">
        <ele>31.379999999999999</ele>
        <time>2023-08-26T10:08:48Z</time>
      </trkpt>
      <trkpt lat="57.286343034356833" lon="-5.715124988928437">
        <ele>31.859999999999999</ele>
        <time>2023-08-26T10:08:52Z</time>
      </trkpt>
      <trkpt lat="57.28627203963697" lon="-5.715096993371844">
        <ele>32.340000000000003</ele>
        <time>2023-08-26T10:08:53Z</time>
      </trkpt>
      <trkpt lat="57.285395041108131" lon="-5.714684017002583">
        <ele>30.420000000000002</ele>
        <time>2023-08-26T10:09:05Z</time>
      </trkpt>
      <trkpt lat="57.28532899171114" lon="-5.714644035324454">
        <ele>29.940000000000001</ele>
        <time>2023-08-26T10:09:06Z</time>
      </trkpt>
      <trkpt lat="57.285216003656387" lon="-5.71448695845902">
        <ele>29.940000000000001</ele>
        <time>2023-08-26T10:09:08Z</time>
      </trkpt>
      <trkpt lat="57.284736977890134" lon="-5.713824033737183">
        <ele>27.530000000000001</ele>
        <time>2023-08-26T10:09:16Z</time>
      </trkpt>
      <trkpt lat="57.284564981237054" lon="-5.71358498185873">
        <ele>27.050000000000001</ele>
        <time>2023-08-26T10:09:19Z</time>
      </trkpt>
      <trkpt lat="57.284388961270452" lon="-5.713340984657407">
        <ele>25.129999999999999</ele>
        <time>2023-08-26T10:09:22Z</time>
      </trkpt>
      <trkpt lat="57.283780016005039" lon="-5.713062034919858">
        <ele>17.440000000000001</ele>
        <time>2023-08-26T10:09:30Z</time>
      </trkpt>
      <trkpt lat="57.283702986314893" lon="-5.713040996342897">
        <ele>16.48</ele>
        <time>2023-08-26T10:09:31Z</time>
      </trkpt>
      <trkpt lat="57.283635009080172" lon="-5.713086007162929">
        <ele>15.52</ele>
        <time>2023-08-26T10:09:32Z</time>
      </trkpt>
      <trkpt lat="57.28356703184545" lon="-5.71313202381134">
        <ele>15.039999999999999</ele>
        <time>2023-08-26T10:09:33Z</time>
      </trkpt>
      <trkpt lat="57.283495031297207" lon="-5.71319698356092">
        <ele>14.08</ele>
        <time>2023-08-26T10:09:34Z</time>
      </trkpt>
      <trkpt lat="57.28343996219337" lon="-5.713297985494137">
        <ele>13.6</ele>
        <time>2023-08-26T10:09:35Z</time>
      </trkpt>
      <trkpt lat="57.283128993585706" lon="-5.713871978223324">
        <ele>10.23</ele>
        <time>2023-08-26T10:09:41Z</time>
      </trkpt>
      <trkpt lat="57.283028997480869" lon="-5.714055960997939">
        <ele>9.75</ele>
        <time>2023-08-26T10:09:43Z</time>
      </trkpt>
      <trkpt lat="57.28298700414598" lon="-5.714133996516466">
        <ele>9.27</ele>
        <time>2023-08-26T10:09:44Z</time>
      </trkpt>
      <trkpt lat="57.282940987497568" lon="-5.714202979579568">
        <ele>9.27</ele>
        <time>2023-08-26T10:09:45Z</time>
      </trkpt>
      <trkpt lat="57.282890025526285" lon="-5.714223012328148">
        <ele>8.789999999999999</ele>
        <time>2023-08-26T10:09:46Z</time>
      </trkpt>
      <trkpt lat="57.282840991392732" lon="-5.714242039248347">
        <ele>8.789999999999999</ele>
        <time>2023-08-26T10:09:47Z</time>
      </trkpt>
      <trkpt lat="57.282777959480882" lon="-5.714266011491418">
        <ele>8.310000000000001</ele>
        <time>2023-08-26T10:09:48Z</time>
      </trkpt>
      <trkpt lat="57.282575033605099" lon="-5.714343041181564">
        <ele>7.83</ele>
        <time>2023-08-26T10:09:51Z</time>
      </trkpt>
      <trkpt lat="57.282499009743333" lon="-5.714369025081396">
        <ele>7.83</ele>
        <time>2023-08-26T10:09:52Z</time>
      </trkpt>
      <trkpt lat="57.282446036115289" lon="-5.71431596763432">
        <ele>7.35</ele>
        <time>2023-08-26T10:09:53Z</time>
      </trkpt>
      <trkpt lat="57.282391972839832" lon="-5.714262994006276">
        <ele>7.35</ele>
        <time>2023-08-26T10:09:54Z</time>
      </trkpt>
      <trkpt lat="57.282335981726646" lon="-5.71420599706471">
        <ele>6.87</ele>
        <time>2023-08-26T10:09:55Z</time>
      </trkpt>
      <trkpt lat="57.282275967299938" lon="-5.714145982638001">
        <ele>6.39</ele>
        <time>2023-08-26T10:09:56Z</time>
      </trkpt>
      <trkpt lat="57.282178988680243" lon="-5.714049004018307">
        <ele>5.91</ele>
        <time>2023-08-26T10:09:57Z</time>
      </trkpt>
      <trkpt lat="57.281819991767406" lon="-5.713852029293776">
        <ele>6.39</ele>
        <time>2023-08-26T10:10:02Z</time>
      </trkpt>
      <trkpt lat="57.281753020361066" lon="-5.713767036795616">
        <ele>6.39</ele>
        <time>2023-08-26T10:10:03Z</time>
      </trkpt>
      <trkpt lat="57.281683031469584" lon="-5.713677015155554">
        <ele>6.87</ele>
        <time>2023-08-26T10:10:04Z</time>
      </trkpt>
      <trkpt lat="57.281617987900972" lon="-5.713587999343872">
        <ele>6.87</ele>
        <time>2023-08-26T10:10:05Z</time>
      </trkpt>
      <trkpt lat="57.281573982909322" lon="-5.713456990197301">
        <ele>6.87</ele>
        <time>2023-08-26T10:10:06Z</time>
      </trkpt>
      <trkpt lat="57.281529977917671" lon="-5.713323969393969">
        <ele>6.87</ele>
        <time>2023-08-26T10:10:07Z</time>
      </trkpt>
      <trkpt lat="57.281399974599481" lon="-5.712934965267777">
        <ele>6.39</ele>
        <time>2023-08-26T10:10:10Z</time>
      </trkpt>
      <trkpt lat="57.281240969896317" lon="-5.712458034977317">
        <ele>6.39</ele>
        <time>2023-08-26T10:10:15Z</time>
      </trkpt>
      <trkpt lat="57.28120400570333" lon="-5.712416041642427">
        <ele>6.39</ele>
        <time>2023-08-26T10:10:16Z</time>
      </trkpt>
      <trkpt lat="57.281129993498325" lon="-5.712358960881829">
        <ele>5.91</ele>
        <time>2023-08-26T10:10:19Z</time>
      </trkpt>
      <trkpt lat="57.281061010435224" lon="-5.712153017520905">
        <ele>5.91</ele>
        <time>2023-08-26T10:10:24Z</time>
      </trkpt>
      <trkpt lat="57.281074002385139" lon="-5.712067019194365">
        <ele>5.91</ele>
        <time>2023-08-26T10:10:25Z</time>
      </trkpt>
      <trkpt lat="57.281089005991817" lon="-5.711958976462483">
        <ele>5.91</ele>
        <time>2023-08-26T10:10:26Z</time>
      </trkpt>
      <trkpt lat="57.281127981841564" lon="-5.711688995361328">
        <ele>5.91</ele>
        <time>2023-08-26T10:10:32Z</time>
      </trkpt>
      <trkpt lat="57.281127981841564" lon="-5.711688995361328">
        <ele>5.91</ele>
        <time>2023-08-26T10:10:47Z</time>
      </trkpt>
      <trkpt lat="57.281765006482601" lon="-5.715651959180832">
        <ele>25.129999999999999</ele>
        <time>2023-08-26T10:30:29Z</time>
      </trkpt>
      <trkpt lat="57.281728964298964" lon="-5.715660005807877">
        <ele>21.77</ele>
        <time>2023-08-26T10:30:58Z</time>
      </trkpt>
      <trkpt lat="57.281743967905641" lon="-5.715648019686341">
        <ele>18.879999999999999</ele>
        <time>2023-08-26T10:31:14Z</time>
      </trkpt>
      <trkpt lat="57.282027024775743" lon="-5.715544000267983">
        <ele>17.920000000000002</ele>
        <time>2023-08-26T10:31:22Z</time>
      </trkpt>
      <trkpt lat="57.282101958990097" lon="-5.715417014434934">
        <ele>17.440000000000001</ele>
        <time>2023-08-26T10:31:24Z</time>
      </trkpt>
      <trkpt lat="57.282133977860212" lon="-5.71534501388669">
        <ele>16.960000000000001</ele>
        <time>2023-08-26T10:31:25Z</time>
      </trkpt>
      <trkpt lat="57.282285019755363" lon="-5.714951986446977">
        <ele>16</ele>
        <time>2023-08-26T10:31:30Z</time>
      </trkpt>
      <trkpt lat="57.282315026968718" lon="-5.71487101726234">
        <ele>16</ele>
        <time>2023-08-26T10:31:31Z</time>
      </trkpt>
      <trkpt lat="57.282346962019801" lon="-5.71478602476418">
        <ele>16</ele>
        <time>2023-08-26T10:31:32Z</time>
      </trkpt>
      <trkpt lat="57.282501021400094" lon="-5.714371036738157">
        <ele>15.52</ele>
        <time>2023-08-26T10:31:39Z</time>
      </trkpt>
      <trkpt lat="57.282489035278559" lon="-5.71435896679759">
        <ele>15.039999999999999</ele>
        <time>2023-08-26T10:31:40Z</time>
      </trkpt>
      <trkpt lat="57.282444024458528" lon="-5.71431496180594">
        <ele>14.56</ele>
        <time>2023-08-26T10:31:41Z</time>
      </trkpt>
      <trkpt lat="57.282388033345342" lon="-5.714258970692754">
        <ele>14.56</ele>
        <time>2023-08-26T10:31:42Z</time>
      </trkpt>
      <trkpt lat="57.282331036403775" lon="-5.714200967922807">
        <ele>14.08</ele>
        <time>2023-08-26T10:31:43Z</time>
      </trkpt>
      <trkpt lat="57.282272027805448" lon="-5.714141959324479">
        <ele>13.6</ele>
        <time>2023-08-26T10:31:44Z</time>
      </trkpt>
      <trkpt lat="57.282210001721978" lon="-5.714081022888422">
        <ele>13.6</ele>
        <time>2023-08-26T10:31:45Z</time>
      </trkpt>
      <trkpt lat="57.282145963981748" lon="-5.71403400041163">
        <ele>13.6</ele>
        <time>2023-08-26T10:31:46Z</time>
      </trkpt>
      <trkpt lat="57.281714966520667" lon="-5.713718002662063">
        <ele>13.6</ele>
        <time>2023-08-26T10:31:52Z</time>
      </trkpt>
      <trkpt lat="57.281652018427849" lon="-5.713638961315155">
        <ele>14.08</ele>
        <time>2023-08-26T10:31:53Z</time>
      </trkpt>
      <trkpt lat="57.281600972637534" lon="-5.713537959381938">
        <ele>14.08</ele>
        <time>2023-08-26T10:31:54Z</time>
      </trkpt>
      <trkpt lat="57.281557973474264" lon="-5.713410973548889">
        <ele>14.08</ele>
        <time>2023-08-26T10:31:55Z</time>
      </trkpt>
      <trkpt lat="57.281514974310994" lon="-5.713280970230699">
        <ele>14.08</ele>
        <time>2023-08-26T10:31:56Z</time>
      </trkpt>
      <trkpt lat="57.281471975147724" lon="-5.713149961084127">
        <ele>14.08</ele>
        <time>2023-08-26T10:31:57Z</time>
      </trkpt>
      <trkpt lat="57.281427970156074" lon="-5.713020963594317">
        <ele>14.08</ele>
        <time>2023-08-26T10:31:58Z</time>
      </trkpt>
      <trkpt lat="57.281287992373109" lon="-5.712600024417043">
        <ele>14.56</ele>
        <time>2023-08-26T10:32:02Z</time>
      </trkpt>
      <trkpt lat="57.281194031238556" lon="-5.712409000843763">
        <ele>16</ele>
        <time>2023-08-26T10:32:09Z</time>
      </trkpt>
      <trkpt lat="57.28114097379148" lon="-5.712367007508874">
        <ele>17.920000000000002</ele>
        <time>2023-08-26T10:32:19Z</time>
      </trkpt>
      <trkpt lat="57.281041983515024" lon="-5.712289977818728">
        <ele>17.440000000000001</ele>
        <time>2023-08-26T10:32:23Z</time>
      </trkpt>
      <trkpt lat="57.281035026535392" lon="-5.712430039420724">
        <ele>16.960000000000001</ele>
        <time>2023-08-26T10:32:24Z</time>
      </trkpt>
      <trkpt lat="57.281029997393489" lon="-5.712511008605361">
        <ele>16.960000000000001</ele>
        <time>2023-08-26T10:32:25Z</time>
      </trkpt>
      <trkpt lat="57.281024968251586" lon="-5.712611004710197">
        <ele>16.48</ele>
        <time>2023-08-26T10:32:26Z</time>
      </trkpt>
      <trkpt lat="57.281019017100334" lon="-5.712729021906853">
        <ele>16.48</ele>
        <time>2023-08-26T10:32:27Z</time>
      </trkpt>
      <trkpt lat="57.280979035422206" lon="-5.713493032380939">
        <ele>14.08</ele>
        <time>2023-08-26T10:32:33Z</time>
      </trkpt>
      <trkpt lat="57.280973000451922" lon="-5.713618006557226">
        <ele>14.08</ele>
        <time>2023-08-26T10:32:34Z</time>
      </trkpt>
      <trkpt lat="57.280961014330387" lon="-5.713844988495112">
        <ele>13.6</ele>
        <time>2023-08-26T10:32:36Z</time>
      </trkpt>
      <trkpt lat="57.280955985188484" lon="-5.713942972943187">
        <ele>13.6</ele>
        <time>2023-08-26T10:32:37Z</time>
      </trkpt>
      <trkpt lat="57.280934024602175" lon="-5.714495005086064">
        <ele>12.630000000000001</ele>
        <time>2023-08-26T10:32:47Z</time>
      </trkpt>
      <trkpt lat="57.280919020995498" lon="-5.714892977848649">
        <ele>11.67</ele>
        <time>2023-08-26T10:33:05Z</time>
      </trkpt>
      <trkpt lat="57.280893959105015" lon="-5.715520028024912">
        <ele>12.630000000000001</ele>
        <time>2023-08-26T10:33:15Z</time>
      </trkpt>
      <trkpt lat="57.280928995460272" lon="-5.716103995218873">
        <ele>13.119999999999999</ele>
        <time>2023-08-26T10:33:25Z</time>
      </trkpt>
      <trkpt lat="57.2809689771384" lon="-5.717005971819162">
        <ele>13.119999999999999</ele>
        <time>2023-08-26T10:33:31Z</time>
      </trkpt>
      <trkpt lat="57.280942993238568" lon="-5.717186015099287">
        <ele>12.630000000000001</ele>
        <time>2023-08-26T10:33:32Z</time>
      </trkpt>
      <trkpt lat="57.280917009338737" lon="-5.717368992045522">
        <ele>12.630000000000001</ele>
        <time>2023-08-26T10:33:33Z</time>
      </trkpt>
      <trkpt lat="57.280891025438905" lon="-5.717550041154027">
        <ele>12.630000000000001</ele>
        <time>2023-08-26T10:33:34Z</time>
      </trkpt>
      <trkpt lat="57.28086001239717" lon="-5.71773000061512">
        <ele>12.630000000000001</ele>
        <time>2023-08-26T10:33:35Z</time>
      </trkpt>
      <trkpt lat="57.280805027112365" lon="-5.717913983389735">
        <ele>13.119999999999999</ele>
        <time>2023-08-26T10:33:36Z</time>
      </trkpt>
      <trkpt lat="57.280747024342418" lon="-5.718107018619776">
        <ele>13.6</ele>
        <time>2023-08-26T10:33:37Z</time>
      </trkpt>
      <trkpt lat="57.280115028843284" lon="-5.720452023670077">
        <ele>14.56</ele>
        <time>2023-08-26T10:33:48Z</time>
      </trkpt>
      <trkpt lat="57.28002299554646" lon="-5.721591040492058">
        <ele>13.119999999999999</ele>
        <time>2023-08-26T10:33:52Z</time>
      </trkpt>
      <trkpt lat="57.280018972232938" lon="-5.721880970522761">
        <ele>12.630000000000001</ele>
        <time>2023-08-26T10:33:53Z</time>
      </trkpt>
      <trkpt lat="57.280149981379509" lon="-5.723048988729715">
        <ele>12.630000000000001</ele>
        <time>2023-08-26T10:33:57Z</time>
      </trkpt>
      <trkpt lat="57.280213013291359" lon="-5.723316036164761">
        <ele>13.119999999999999</ele>
        <time>2023-08-26T10:33:58Z</time>
      </trkpt>
      <trkpt lat="57.280606040731072" lon="-5.724438037723303">
        <ele>13.6</ele>
        <time>2023-08-26T10:34:03Z</time>
      </trkpt>
      <trkpt lat="57.280700001865625" lon="-5.724634006619453">
        <ele>14.08</ele>
        <time>2023-08-26T10:34:04Z</time>
      </trkpt>
      <trkpt lat="57.281602984294295" lon="-5.726763010025024">
        <ele>15.039999999999999</ele>
        <time>2023-08-26T10:34:14Z</time>
      </trkpt>
      <trkpt lat="57.281836001202464" lon="-5.728788999840617">
        <ele>15.039999999999999</ele>
        <time>2023-08-26T10:34:21Z</time>
      </trkpt>
      <trkpt lat="57.281615976244211" lon="-5.730621032416821">
        <ele>15.52</ele>
        <time>2023-08-26T10:34:27Z</time>
      </trkpt>
      <trkpt lat="57.280696984380484" lon="-5.73489798232913">
        <ele>13.119999999999999</ele>
        <time>2023-08-26T10:34:41Z</time>
      </trkpt>
      <trkpt lat="57.279719989746809" lon="-5.739093041047454">
        <ele>12.15</ele>
        <time>2023-08-26T10:34:55Z</time>
      </trkpt>
      <trkpt lat="57.279026973992586" lon="-5.740602035075426">
        <ele>17.440000000000001</ele>
        <time>2023-08-26T10:35:02Z</time>
      </trkpt>
      <trkpt lat="57.27890501730144" lon="-5.740738995373249">
        <ele>18.879999999999999</ele>
        <time>2023-08-26T10:35:03Z</time>
      </trkpt>
      <trkpt lat="57.278244020417333" lon="-5.741350958123803">
        <ele>28.98</ele>
        <time>2023-08-26T10:35:10Z</time>
      </trkpt>
      <trkpt lat="57.277295021340251" lon="-5.74209300801158">
        <ele>42.439999999999998</ele>
        <time>2023-08-26T10:35:23Z</time>
      </trkpt>
      <trkpt lat="57.276976006105542" lon="-5.742341028526425">
        <ele>47.719999999999999</ele>
        <time>2023-08-26T10:35:33Z</time>
      </trkpt>
      <trkpt lat="57.276429003104568" lon="-5.742766996845603">
        <ele>50.130000000000003</ele>
        <time>2023-08-26T10:35:40Z</time>
      </trkpt>
      <trkpt lat="57.275616964325309" lon="-5.743398992344737">
        <ele>49.159999999999997</ele>
        <time>2023-08-26T10:35:51Z</time>
      </trkpt>
      <trkpt lat="57.27460996247828" lon="-5.744183035567403">
        <ele>40.990000000000002</ele>
        <time>2023-08-26T10:36:03Z</time>
      </trkpt>
      <trkpt lat="57.273785015568137" lon="-5.744789969176054">
        <ele>34.740000000000002</ele>
        <time>2023-08-26T10:36:12Z</time>
      </trkpt>
      <trkpt lat="57.273325016722083" lon="-5.744947968050838">
        <ele>29.940000000000001</ele>
        <time>2023-08-26T10:36:21Z</time>
      </trkpt>
      <trkpt lat="57.27291296236217" lon="-5.744941011071205">
        <ele>27.530000000000001</ele>
        <time>2023-08-26T10:36:29Z</time>
      </trkpt>
      <trkpt lat="57.272832999005914" lon="-5.744903963059187">
        <ele>27.050000000000001</ele>
        <time>2023-08-26T10:36:31Z</time>
      </trkpt>
      <trkpt lat="57.272758986800909" lon="-5.744869010522962">
        <ele>26.57</ele>
        <time>2023-08-26T10:36:33Z</time>
      </trkpt>
      <trkpt lat="57.272643987089396" lon="-5.744777983054519">
        <ele>26.57</ele>
        <time>2023-08-26T10:36:34Z</time>
      </trkpt>
      <trkpt lat="57.272647004574537" lon="-5.744368024170399">
        <ele>26.57</ele>
        <time>2023-08-26T10:36:37Z</time>
      </trkpt>
      <trkpt lat="57.272667037323117" lon="-5.744249001145363">
        <ele>26.57</ele>
        <time>2023-08-26T10:36:38Z</time>
      </trkpt>
      <trkpt lat="57.272687992081046" lon="-5.744130983948708">
        <ele>26.09</ele>
        <time>2023-08-26T10:36:39Z</time>
      </trkpt>
      <trkpt lat="57.272710036486387" lon="-5.744003998115659">
        <ele>25.609999999999999</ele>
        <time>2023-08-26T10:36:40Z</time>
      </trkpt>
      <trkpt lat="57.272735014557838" lon="-5.743863014504314">
        <ele>25.129999999999999</ele>
        <time>2023-08-26T10:36:41Z</time>
      </trkpt>
      <trkpt lat="57.27275999262929" lon="-5.743718007579446">
        <ele>24.649999999999999</ele>
        <time>2023-08-26T10:36:42Z</time>
      </trkpt>
      <trkpt lat="57.272871974855661" lon="-5.743077965453267">
        <ele>23.690000000000001</ele>
        <time>2023-08-26T10:36:46Z</time>
      </trkpt>
      <trkpt lat="57.272936012595892" lon="-5.742731038480997">
        <ele>23.210000000000001</ele>
        <time>2023-08-26T10:36:48Z</time>
      </trkpt>
      <trkpt lat="57.2729960270226" lon="-5.742637999355793">
        <ele>22.73</ele>
        <time>2023-08-26T10:36:49Z</time>
      </trkpt>
      <trkpt lat="57.273053023964167" lon="-5.742547977715731">
        <ele>22.73</ele>
        <time>2023-08-26T10:36:50Z</time>
      </trkpt>
      <trkpt lat="57.273751990869641" lon="-5.741460006684065">
        <ele>19.359999999999999</ele>
        <time>2023-08-26T10:37:00Z</time>
      </trkpt>
      <trkpt lat="57.273823991417885" lon="-5.741349030286074">
        <ele>18.879999999999999</ele>
        <time>2023-08-26T10:37:01Z</time>
      </trkpt>
      <trkpt lat="57.27394100278616" lon="-5.741072008386254">
        <ele>18.399999999999999</ele>
        <time>2023-08-26T10:37:03Z</time>
      </trkpt>
      <trkpt lat="57.27398400194943" lon="-5.74091300368309">
        <ele>17.920000000000002</ele>
        <time>2023-08-26T10:37:04Z</time>
      </trkpt>
      <trkpt lat="57.274024989455938" lon="-5.740759028121829">
        <ele>17.440000000000001</ele>
        <time>2023-08-26T10:37:05Z</time>
      </trkpt>
      <trkpt lat="57.274063965305686" lon="-5.740617038682103">
        <ele>16.960000000000001</ele>
        <time>2023-08-26T10:37:06Z</time>
      </trkpt>
      <trkpt lat="57.274110987782478" lon="-5.740442024543881">
        <ele>16.48</ele>
        <time>2023-08-26T10:37:07Z</time>
      </trkpt>
      <trkpt lat="57.274110987782478" lon="-5.740314032882452">
        <ele>16</ele>
        <time>2023-08-26T10:37:08Z</time>
      </trkpt>
      <trkpt lat="57.274110987782478" lon="-5.740153016522527">
        <ele>15.52</ele>
        <time>2023-08-26T10:37:09Z</time>
      </trkpt>
      <trkpt lat="57.274110987782478" lon="-5.739994011819363">
        <ele>15.52</ele>
        <time>2023-08-26T10:37:10Z</time>
      </trkpt>
      <trkpt lat="57.274100007489324" lon="-5.739827966317534">
        <ele>15.039999999999999</ele>
        <time>2023-08-26T10:37:11Z</time>
      </trkpt>
      <trkpt lat="57.274077041074634" lon="-5.739678014069796">
        <ele>14.56</ele>
        <time>2023-08-26T10:37:12Z</time>
      </trkpt>
      <trkpt lat="57.273950977250934" lon="-5.738825993612409">
        <ele>13.119999999999999</ele>
        <time>2023-08-26T10:37:21Z</time>
      </trkpt>
      <trkpt lat="57.273950977250934" lon="-5.738825993612409">
        <ele>13.119999999999999</ele>
        <time>2023-08-26T10:37:25Z</time>
      </trkpt>
      <trkpt lat="57.273943014442921" lon="-5.738772014155984">
        <ele>13.119999999999999</ele>
        <time>2023-08-26T10:37:26Z</time>
      </trkpt>
      <trkpt lat="57.273848969489336" lon="-5.73880503885448">
        <ele>13.119999999999999</ele>
        <time>2023-08-26T10:37:28Z</time>
      </trkpt>
      <trkpt lat="57.273467006161809" lon="-5.739068984985352">
        <ele>12.15</ele>
        <time>2023-08-26T10:37:39Z</time>
      </trkpt>
      <trkpt lat="57.273515034466982" lon="-5.739111984148622">
        <ele>10.23</ele>
        <time>2023-08-26T10:37:48Z</time>
      </trkpt>
      <trkpt lat="57.273691976442933" lon="-5.738972006365657">
        <ele>11.19</ele>
        <time>2023-08-26T10:37:56Z</time>
      </trkpt>
      <trkpt lat="57.273711003363132" lon="-5.738992039114237">
        <ele>11.67</ele>
        <time>2023-08-26T10:38:09Z</time>
      </trkpt>
      <trkpt lat="57.273702034726739" lon="-5.738987009972334">
        <ele>12.630000000000001</ele>
        <time>2023-08-26T10:39:12Z</time>
      </trkpt>
      <trkpt lat="57.273701028898358" lon="-5.738991033285856">
        <ele>12.630000000000001</ele>
        <time>2023-08-26T10:40:13Z</time>
      </trkpt>
      <trkpt lat="57.273818962275982" lon="-5.738852983340621">
        <ele>14.08</ele>
        <time>2023-08-26T10:40:18Z</time>
      </trkpt>
      <trkpt lat="57.273943014442921" lon="-5.738772014155984">
        <ele>12.630000000000001</ele>
        <time>2023-08-26T10:40:24Z</time>
      </trkpt>
      <trkpt lat="57.273933039978147" lon="-5.738706970587373">
        <ele>12.630000000000001</ele>
        <time>2023-08-26T10:40:25Z</time>
      </trkpt>
      <trkpt lat="57.273918958380818" lon="-5.73861300945282">
        <ele>12.15</ele>
        <time>2023-08-26T10:40:26Z</time>
      </trkpt>
      <trkpt lat="57.273903032764792" lon="-5.738503038883209">
        <ele>12.15</ele>
        <time>2023-08-26T10:40:27Z</time>
      </trkpt>
      <trkpt lat="57.273886017501354" lon="-5.738391978666186">
        <ele>11.67</ele>
        <time>2023-08-26T10:40:28Z</time>
      </trkpt>
      <trkpt lat="57.273686025291681" lon="-5.736999996006489">
        <ele>10.710000000000001</ele>
        <time>2023-08-26T10:40:39Z</time>
      </trkpt>
      <trkpt lat="57.273557027801871" lon="-5.736129032447934">
        <ele>10.23</ele>
        <time>2023-08-26T10:40:48Z</time>
      </trkpt>
      <trkpt lat="57.273514028638601" lon="-5.735837006941438">
        <ele>10.23</ele>
        <time>2023-08-26T10:40:53Z</time>
      </trkpt>
      <trkpt lat="57.273507993668318" lon="-5.735799036920071">
        <ele>10.23</ele>
        <time>2023-08-26T10:40:54Z</time>
      </trkpt>
      <trkpt lat="57.273503970354795" lon="-5.735772969201207">
        <ele>10.23</ele>
        <time>2023-08-26T10:40:55Z</time>
      </trkpt>
      <trkpt lat="57.27340498007834" lon="-5.735818985849619">
        <ele>10.23</ele>
        <time>2023-08-26T10:40:57Z</time>
      </trkpt>
      <trkpt lat="57.27331998758018" lon="-5.73592996224761">
        <ele>10.23</ele>
        <time>2023-08-26T10:41:08Z</time>
      </trkpt>
      <trkpt lat="57.273343037813902" lon="-5.735980002209544">
        <ele>22.73</ele>
        <time>2023-08-26T10:48:19Z</time>
      </trkpt>
      <trkpt lat="57.273305989801884" lon="-5.735977990552783">
        <ele>16.960000000000001</ele>
        <time>2023-08-26T10:48:34Z</time>
      </trkpt>
      <trkpt lat="57.273500030860305" lon="-5.735747991129756">
        <ele>15.52</ele>
        <time>2023-08-26T10:48:37Z</time>
      </trkpt>
      <trkpt lat="57.273497013375163" lon="-5.735724018886685">
        <ele>15.039999999999999</ele>
        <time>2023-08-26T10:48:38Z</time>
      </trkpt>
      <trkpt lat="57.273487960919738" lon="-5.735665010288358">
        <ele>14.56</ele>
        <time>2023-08-26T10:48:40Z</time>
      </trkpt>
      <trkpt lat="57.273478992283344" lon="-5.735601978376508">
        <ele>14.56</ele>
        <time>2023-08-26T10:48:41Z</time>
      </trkpt>
      <trkpt lat="57.273463988676667" lon="-5.735506005585194">
        <ele>14.56</ele>
        <time>2023-08-26T10:48:42Z</time>
      </trkpt>
      <trkpt lat="57.27344797924161" lon="-5.735397040843964">
        <ele>14.56</ele>
        <time>2023-08-26T10:48:43Z</time>
      </trkpt>
      <trkpt lat="57.273431969806552" lon="-5.735285980626941">
        <ele>14.56</ele>
        <time>2023-08-26T10:48:44Z</time>
      </trkpt>
      <trkpt lat="57.273371033370495" lon="-5.734866969287396">
        <ele>14.56</ele>
        <time>2023-08-26T10:48:48Z</time>
      </trkpt>
      <trkpt lat="57.273346977308393" lon="-5.734693966805935">
        <ele>14.56</ele>
        <time>2023-08-26T10:48:50Z</time>
      </trkpt>
      <trkpt lat="57.273338008671999" lon="-5.734622972086072">
        <ele>14.56</ele>
        <time>2023-08-26T10:48:51Z</time>
      </trkpt>
      <trkpt lat="57.273329962044954" lon="-5.734564969316125">
        <ele>14.56</ele>
        <time>2023-08-26T10:48:52Z</time>
      </trkpt>
      <trkpt lat="57.273323005065322" lon="-5.734506966546178">
        <ele>14.56</ele>
        <time>2023-08-26T10:48:53Z</time>
      </trkpt>
      <trkpt lat="57.273312024772167" lon="-5.734431026503444">
        <ele>14.56</ele>
        <time>2023-08-26T10:48:54Z</time>
      </trkpt>
      <trkpt lat="57.273176992312074" lon="-5.73343500494957">
        <ele>15.039999999999999</ele>
        <time>2023-08-26T10:49:05Z</time>
      </trkpt>
      <trkpt lat="57.273037014529109" lon="-5.732781970873475">
        <ele>14.56</ele>
        <time>2023-08-26T10:49:16Z</time>
      </trkpt>
      <trkpt lat="57.273015975952148" lon="-5.7327910233289">
        <ele>14.08</ele>
        <time>2023-08-26T10:49:17Z</time>
      </trkpt>
      <trkpt lat="57.272997032850981" lon="-5.732799991965294">
        <ele>14.08</ele>
        <time>2023-08-26T10:49:18Z</time>
      </trkpt>
      <trkpt lat="57.272982029244304" lon="-5.732808038592339">
        <ele>13.6</ele>
        <time>2023-08-26T10:49:19Z</time>
      </trkpt>
      <trkpt lat="57.272958979010582" lon="-5.732819018885493">
        <ele>13.6</ele>
        <time>2023-08-26T10:49:20Z</time>
      </trkpt>
      <trkpt lat="57.272938024252653" lon="-5.732828993350267">
        <ele>13.119999999999999</ele>
        <time>2023-08-26T10:49:21Z</time>
      </trkpt>
      <trkpt lat="57.272913968190551" lon="-5.732839973643422">
        <ele>12.630000000000001</ele>
        <time>2023-08-26T10:49:22Z</time>
      </trkpt>
      <trkpt lat="57.272896030917764" lon="-5.732849026098847">
        <ele>12.15</ele>
        <time>2023-08-26T10:49:23Z</time>
      </trkpt>
      <trkpt lat="57.272896030917764" lon="-5.732849026098847">
        <ele>11.67</ele>
        <time>2023-08-26T10:49:24Z</time>
      </trkpt>
      <trkpt lat="57.272896030917764" lon="-5.732849026098847">
        <ele>11.67</ele>
        <time>2023-08-26T10:49:25Z</time>
      </trkpt>
      <trkpt lat="57.272896030917764" lon="-5.732849026098847">
        <ele>9.75</ele>
        <time>2023-08-26T10:49:41Z</time>
      </trkpt>
      <trkpt lat="57.272896030917764" lon="-5.732849026098847">
        <ele>10.23</ele>
        <time>2023-08-26T10:50:35Z</time>
      </trkpt>
      <trkpt lat="57.272896030917764" lon="-5.732849026098847">
        <ele>10.23</ele>
        <time>2023-08-26T10:51:01Z</time>
      </trkpt>
      <trkpt lat="57.272896030917764" lon="-5.732849026098847">
        <ele>9.75</ele>
        <time>2023-08-26T10:51:24Z</time>
      </trkpt>
      <trkpt lat="57.272926960140467" lon="-5.73283402249217">
        <ele>8.310000000000001</ele>
        <time>2023-08-26T10:51:29Z</time>
      </trkpt>
      <trkpt lat="57.273027962073684" lon="-5.732785994186997">
        <ele>7.35</ele>
        <time>2023-08-26T10:51:40Z</time>
      </trkpt>
      <trkpt lat="57.273079007863998" lon="-5.732745006680489">
        <ele>7.35</ele>
        <time>2023-08-26T10:51:41Z</time>
      </trkpt>
      <trkpt lat="57.273069033399224" lon="-5.73268499225378">
        <ele>7.35</ele>
        <time>2023-08-26T10:51:42Z</time>
      </trkpt>
      <trkpt lat="57.273055035620928" lon="-5.732593964785337">
        <ele>7.35</ele>
        <time>2023-08-26T10:51:43Z</time>
      </trkpt>
      <trkpt lat="57.27303802035749" lon="-5.732482988387346">
        <ele>7.35</ele>
        <time>2023-08-26T10:51:44Z</time>
      </trkpt>
      <trkpt lat="57.273019999265671" lon="-5.732373017817736">
        <ele>7.35</ele>
        <time>2023-08-26T10:51:45Z</time>
      </trkpt>
      <trkpt lat="57.272942969575524" lon="-5.731877982616425">
        <ele>7.35</ele>
        <time>2023-08-26T10:51:50Z</time>
      </trkpt>
      <trkpt lat="57.272928971797228" lon="-5.731791984289885">
        <ele>7.83</ele>
        <time>2023-08-26T10:51:51Z</time>
      </trkpt>
      <trkpt lat="57.272751023992896" lon="-5.730460016056895">
        <ele>6.39</ele>
        <time>2023-08-26T10:52:03Z</time>
      </trkpt>
      <trkpt lat="57.27265203371644" lon="-5.729035008698702">
        <ele>8.310000000000001</ele>
        <time>2023-08-26T10:52:14Z</time>
      </trkpt>
      <trkpt lat="57.27265203371644" lon="-5.728897964581847">
        <ele>8.789999999999999</ele>
        <time>2023-08-26T10:52:15Z</time>
      </trkpt>
      <trkpt lat="57.272628983482718" lon="-5.72830100543797">
        <ele>9.27</ele>
        <time>2023-08-26T10:52:22Z</time>
      </trkpt>
      <trkpt lat="57.272601993754506" lon="-5.728304022923112">
        <ele>8.789999999999999</ele>
        <time>2023-08-26T10:52:23Z</time>
      </trkpt>
      <trkpt lat="57.272576009854674" lon="-5.728306034579873">
        <ele>8.789999999999999</ele>
        <time>2023-08-26T10:52:24Z</time>
      </trkpt>
      <trkpt lat="57.272552959620953" lon="-5.728307962417603">
        <ele>8.310000000000001</ele>
        <time>2023-08-26T10:52:25Z</time>
      </trkpt>
      <trkpt lat="57.272528987377882" lon="-5.728309974074364">
        <ele>8.310000000000001</ele>
        <time>2023-08-26T10:52:26Z</time>
      </trkpt>
      <trkpt lat="57.272513983771205" lon="-5.728311985731125">
        <ele>8.310000000000001</ele>
        <time>2023-08-26T10:52:27Z</time>
      </trkpt>
      <trkpt lat="57.27243703790009" lon="-5.728319026529789">
        <ele>8.310000000000001</ele>
        <time>2023-08-26T10:52:28Z</time>
      </trkpt>
      <trkpt lat="57.27243703790009" lon="-5.728319026529789">
        <ele>8.310000000000001</ele>
        <time>2023-08-26T10:52:29Z</time>
      </trkpt>
      <trkpt lat="57.272521024569869" lon="-5.728310979902744">
        <ele>8.310000000000001</ele>
        <time>2023-08-26T10:52:33Z</time>
      </trkpt>
      <trkpt lat="57.272536028176546" lon="-5.728309974074364">
        <ele>7.83</ele>
        <time>2023-08-26T10:52:34Z</time>
      </trkpt>
      <trkpt lat="57.272549020126462" lon="-5.728308968245983">
        <ele>7.83</ele>
        <time>2023-08-26T10:52:35Z</time>
      </trkpt>
      <trkpt lat="57.272556982934475" lon="-5.728307962417603">
        <ele>7.35</ele>
        <time>2023-08-26T10:52:36Z</time>
      </trkpt>
      <trkpt lat="57.272556982934475" lon="-5.728307962417603">
        <ele>7.35</ele>
        <time>2023-08-26T10:52:37Z</time>
      </trkpt>
      <trkpt lat="57.272556982934475" lon="-5.728307962417603">
        <ele>6.87</ele>
        <time>2023-08-26T10:52:57Z</time>
      </trkpt>
      <trkpt lat="57.272672988474369" lon="-5.728296982124448">
        <ele>7.83</ele>
        <time>2023-08-26T10:53:03Z</time>
      </trkpt>
      <trkpt lat="57.272672988474369" lon="-5.728296982124448">
        <ele>8.310000000000001</ele>
        <time>2023-08-26T10:53:04Z</time>
      </trkpt>
      <trkpt lat="57.272668965160847" lon="-5.728379040956497">
        <ele>9.27</ele>
        <time>2023-08-26T10:53:07Z</time>
      </trkpt>
      <trkpt lat="57.272665025666356" lon="-5.728462021797895">
        <ele>9.75</ele>
        <time>2023-08-26T10:53:08Z</time>
      </trkpt>
      <trkpt lat="57.272658990696073" lon="-5.728564029559493">
        <ele>8.789999999999999</ele>
        <time>2023-08-26T10:53:09Z</time>
      </trkpt>
      <trkpt lat="57.272653039544821" lon="-5.728676011785865">
        <ele>8.789999999999999</ele>
        <time>2023-08-26T10:53:10Z</time>
      </trkpt>
      <trkpt lat="57.27265203371644" lon="-5.728785982355475">
        <ele>8.310000000000001</ele>
        <time>2023-08-26T10:53:11Z</time>
      </trkpt>
      <trkpt lat="57.27265203371644" lon="-5.728997038677335">
        <ele>6.87</ele>
        <time>2023-08-26T10:53:13Z</time>
      </trkpt>
      <trkpt lat="57.27265203371644" lon="-5.729348994791508">
        <ele>5.42</ele>
        <time>2023-08-26T10:53:16Z</time>
      </trkpt>
      <trkpt lat="57.272666031494737" lon="-5.729510011151433">
        <ele>3.02</ele>
        <time>2023-08-26T10:53:24Z</time>
      </trkpt>
      <trkpt lat="57.272666031494737" lon="-5.729510011151433">
        <ele>3.02</ele>
        <time>2023-08-26T10:53:57Z</time>
      </trkpt>
      <trkpt lat="57.272666031494737" lon="-5.729510011151433">
        <ele>2.54</ele>
        <time>2023-08-26T10:54:37Z</time>
      </trkpt>
      <trkpt lat="57.272666031494737" lon="-5.729510011151433">
        <ele>3.02</ele>
        <time>2023-08-26T10:55:21Z</time>
      </trkpt>
      <trkpt lat="57.27267500013113" lon="-5.729615958407521">
        <ele>3.5</ele>
        <time>2023-08-26T10:55:45Z</time>
      </trkpt>
      <trkpt lat="57.272679023444653" lon="-5.729671027511358">
        <ele>3.5</ele>
        <time>2023-08-26T10:55:46Z</time>
      </trkpt>
      <trkpt lat="57.272710958495736" lon="-5.730037987232208">
        <ele>3.5</ele>
        <time>2023-08-26T10:55:49Z</time>
      </trkpt>
      <trkpt lat="57.27280299179256" lon="-5.730987992137671">
        <ele>4.46</ele>
        <time>2023-08-26T10:55:56Z</time>
      </trkpt>
      <trkpt lat="57.273025028407574" lon="-5.73240403085947">
        <ele>6.87</ele>
        <time>2023-08-26T10:56:07Z</time>
      </trkpt>
      <trkpt lat="57.273267013952136" lon="-5.734087033197284">
        <ele>8.789999999999999</ele>
        <time>2023-08-26T10:56:18Z</time>
      </trkpt>
      <trkpt lat="57.27366297505796" lon="-5.736843002960086">
        <ele>10.23</ele>
        <time>2023-08-26T10:56:33Z</time>
      </trkpt>
      <trkpt lat="57.27404996752739" lon="-5.73949403129518">
        <ele>11.19</ele>
        <time>2023-08-26T10:56:47Z</time>
      </trkpt>
      <trkpt lat="57.274110987782478" lon="-5.740098031237721">
        <ele>11.67</ele>
        <time>2023-08-26T10:56:50Z</time>
      </trkpt>
      <trkpt lat="57.274110987782478" lon="-5.740305986255407">
        <ele>12.15</ele>
        <time>2023-08-26T10:56:51Z</time>
      </trkpt>
      <trkpt lat="57.274089027196169" lon="-5.740523999556899">
        <ele>12.15</ele>
        <time>2023-08-26T10:56:52Z</time>
      </trkpt>
      <trkpt lat="57.274037981405854" lon="-5.740712005645037">
        <ele>12.630000000000001</ele>
        <time>2023-08-26T10:56:53Z</time>
      </trkpt>
      <trkpt lat="57.273987019434571" lon="-5.740902023389936">
        <ele>12.630000000000001</ele>
        <time>2023-08-26T10:56:54Z</time>
      </trkpt>
      <trkpt lat="57.273934967815876" lon="-5.741092963144183">
        <ele>13.119999999999999</ele>
        <time>2023-08-26T10:56:55Z</time>
      </trkpt>
      <trkpt lat="57.273873025551438" lon="-5.741273006424308">
        <ele>13.119999999999999</ele>
        <time>2023-08-26T10:56:56Z</time>
      </trkpt>
      <trkpt lat="57.273781998082995" lon="-5.741413990035653">
        <ele>13.119999999999999</ele>
        <time>2023-08-26T10:56:57Z</time>
      </trkpt>
      <trkpt lat="57.273688036948442" lon="-5.741561008617282">
        <ele>13.6</ele>
        <time>2023-08-26T10:56:58Z</time>
      </trkpt>
      <trkpt lat="57.273586029186845" lon="-5.741719007492065">
        <ele>14.08</ele>
        <time>2023-08-26T10:56:59Z</time>
      </trkpt>
      <trkpt lat="57.273488966748118" lon="-5.741870971396565">
        <ele>14.56</ele>
        <time>2023-08-26T10:57:00Z</time>
      </trkpt>
      <trkpt lat="57.272930983453989" lon="-5.74273799546063">
        <ele>17.920000000000002</ele>
        <time>2023-08-26T10:57:07Z</time>
      </trkpt>
      <trkpt lat="57.272838028147817" lon="-5.743269994854927">
        <ele>19.359999999999999</ele>
        <time>2023-08-26T10:57:10Z</time>
      </trkpt>
      <trkpt lat="57.272811960428953" lon="-5.743421958759427">
        <ele>19.84</ele>
        <time>2023-08-26T10:57:11Z</time>
      </trkpt>
      <trkpt lat="57.272786982357502" lon="-5.743562020361424">
        <ele>20.32</ele>
        <time>2023-08-26T10:57:12Z</time>
      </trkpt>
      <trkpt lat="57.272763010114431" lon="-5.743699986487627">
        <ele>20.809999999999999</ele>
        <time>2023-08-26T10:57:13Z</time>
      </trkpt>
      <trkpt lat="57.27273995988071" lon="-5.743830995634198">
        <ele>21.289999999999999</ele>
        <time>2023-08-26T10:57:14Z</time>
      </trkpt>
      <trkpt lat="57.2727179992944" lon="-5.743958987295628">
        <ele>21.77</ele>
        <time>2023-08-26T10:57:15Z</time>
      </trkpt>
      <trkpt lat="57.272666031494737" lon="-5.744254030287266">
        <ele>23.690000000000001</ele>
        <time>2023-08-26T10:57:18Z</time>
      </trkpt>
      <trkpt lat="57.27254499681294" lon="-5.744561981409788">
        <ele>25.609999999999999</ele>
        <time>2023-08-26T10:57:22Z</time>
      </trkpt>
      <trkpt lat="57.272526975721121" lon="-5.744588971138001">
        <ele>27.530000000000001</ele>
        <time>2023-08-26T10:57:25Z</time>
      </trkpt>
      <trkpt lat="57.272252971306443" lon="-5.744603974744678">
        <ele>30.420000000000002</ele>
        <time>2023-08-26T10:57:33Z</time>
      </trkpt>
      <trkpt lat="57.272237967699766" lon="-5.744598023593426">
        <ele>30.899999999999999</ele>
        <time>2023-08-26T10:57:46Z</time>
      </trkpt>
      <trkpt lat="57.272230004891753" lon="-5.744595006108284">
        <ele>30.899999999999999</ele>
        <time>2023-08-26T10:57:50Z</time>
      </trkpt>
      <trkpt lat="57.272360008209944" lon="-5.744648985564709">
        <ele>30.420000000000002</ele>
        <time>2023-08-26T10:57:58Z</time>
      </trkpt>
      <trkpt lat="57.272360008209944" lon="-5.744648985564709">
        <ele>29.940000000000001</ele>
        <time>2023-08-26T10:58:37Z</time>
      </trkpt>
      <trkpt lat="57.27248196490109" lon="-5.744808996096253">
        <ele>29.940000000000001</ele>
        <time>2023-08-26T10:59:02Z</time>
      </trkpt>
      <trkpt lat="57.27250199764967" lon="-5.744905974715948">
        <ele>29.940000000000001</ele>
        <time>2023-08-26T10:59:03Z</time>
      </trkpt>
      <trkpt lat="57.272540973499417" lon="-5.744925001636148">
        <ele>29.940000000000001</ele>
        <time>2023-08-26T10:59:04Z</time>
      </trkpt>
      <trkpt lat="57.272584978491068" lon="-5.744946962222457">
        <ele>29.460000000000001</ele>
        <time>2023-08-26T10:59:05Z</time>
      </trkpt>
      <trkpt lat="57.272612974047661" lon="-5.744897006079555">
        <ele>28.98</ele>
        <time>2023-08-26T10:59:06Z</time>
      </trkpt>
      <trkpt lat="57.272642981261015" lon="-5.744837997481227">
        <ele>28.98</ele>
        <time>2023-08-26T10:59:07Z</time>
      </trkpt>
      <trkpt lat="57.272639041766524" lon="-5.744747975841165">
        <ele>28.5</ele>
        <time>2023-08-26T10:59:08Z</time>
      </trkpt>
      <trkpt lat="57.272614985704422" lon="-5.744616966694593">
        <ele>28.5</ele>
        <time>2023-08-26T10:59:09Z</time>
      </trkpt>
      <trkpt lat="57.272839033976197" lon="-5.743263037875295">
        <ele>25.129999999999999</ele>
        <time>2023-08-26T10:59:18Z</time>
      </trkpt>
      <trkpt lat="57.272940035909414" lon="-5.742725003510714">
        <ele>24.170000000000002</ele>
        <time>2023-08-26T10:59:21Z</time>
      </trkpt>
      <trkpt lat="57.273016981780529" lon="-5.742603968828917">
        <ele>23.690000000000001</ele>
        <time>2023-08-26T10:59:22Z</time>
      </trkpt>
      <trkpt lat="57.273098034784198" lon="-5.742478994652629">
        <ele>23.690000000000001</ele>
        <time>2023-08-26T10:59:23Z</time>
      </trkpt>
      <trkpt lat="57.273678984493017" lon="-5.741575006395578">
        <ele>23.210000000000001</ele>
        <time>2023-08-26T10:59:30Z</time>
      </trkpt>
      <trkpt lat="57.273765988647938" lon="-5.741438968107104">
        <ele>22.73</ele>
        <time>2023-08-26T10:59:31Z</time>
      </trkpt>
      <trkpt lat="57.273859027773142" lon="-5.741293961182237">
        <ele>22.25</ele>
        <time>2023-08-26T10:59:32Z</time>
      </trkpt>
      <trkpt lat="57.273979978635907" lon="-5.740928007289767">
        <ele>20.809999999999999</ele>
        <time>2023-08-26T10:59:34Z</time>
      </trkpt>
      <trkpt lat="57.274031024426222" lon="-5.740736983716488">
        <ele>20.32</ele>
        <time>2023-08-26T10:59:35Z</time>
      </trkpt>
      <trkpt lat="57.274081986397505" lon="-5.740550989285111">
        <ele>19.84</ele>
        <time>2023-08-26T10:59:36Z</time>
      </trkpt>
      <trkpt lat="57.274110987782478" lon="-5.740147987380624">
        <ele>18.879999999999999</ele>
        <time>2023-08-26T10:59:38Z</time>
      </trkpt>
      <trkpt lat="57.274110987782478" lon="-5.739906001836062">
        <ele>18.399999999999999</ele>
        <time>2023-08-26T10:59:39Z</time>
      </trkpt>
      <trkpt lat="57.273793984204531" lon="-5.737770041450858">
        <ele>15.52</ele>
        <time>2023-08-26T10:59:51Z</time>
      </trkpt>
      <trkpt lat="57.273583011701703" lon="-5.736304968595505">
        <ele>14.56</ele>
        <time>2023-08-26T11:00:01Z</time>
      </trkpt>
      <trkpt lat="57.273338008671999" lon="-5.734621966257691">
        <ele>15.039999999999999</ele>
        <time>2023-08-26T11:00:14Z</time>
      </trkpt>
      <trkpt lat="57.27331998758018" lon="-5.73448701761663">
        <ele>15.039999999999999</ele>
        <time>2023-08-26T11:00:15Z</time>
      </trkpt>
      <trkpt lat="57.273300960659981" lon="-5.734348967671394">
        <ele>14.56</ele>
        <time>2023-08-26T11:00:16Z</time>
      </trkpt>
      <trkpt lat="57.273057969287038" lon="-5.732611985877156">
        <ele>14.08</ele>
        <time>2023-08-26T11:00:29Z</time>
      </trkpt>
      <trkpt lat="57.272981023415923" lon="-5.732120973989368">
        <ele>13.6</ele>
        <time>2023-08-26T11:00:33Z</time>
      </trkpt>
      <trkpt lat="57.272912040352821" lon="-5.731684025377035">
        <ele>12.630000000000001</ele>
        <time>2023-08-26T11:00:37Z</time>
      </trkpt>
      <trkpt lat="57.272898964583874" lon="-5.731595009565353">
        <ele>12.15</ele>
        <time>2023-08-26T11:00:38Z</time>
      </trkpt>
      <trkpt lat="57.272884966805577" lon="-5.731512028723955">
        <ele>12.15</ele>
        <time>2023-08-26T11:00:39Z</time>
      </trkpt>
      <trkpt lat="57.272856971248984" lon="-5.731332991272211">
        <ele>12.15</ele>
        <time>2023-08-26T11:00:41Z</time>
      </trkpt>
      <trkpt lat="57.272844985127449" lon="-5.731251016259193">
        <ele>12.15</ele>
        <time>2023-08-26T11:00:42Z</time>
      </trkpt>
      <trkpt lat="57.272831993177533" lon="-5.731171974912286">
        <ele>12.15</ele>
        <time>2023-08-26T11:00:43Z</time>
      </trkpt>
      <trkpt lat="57.272821012884378" lon="-5.731097962707281">
        <ele>11.67</ele>
        <time>2023-08-26T11:00:44Z</time>
      </trkpt>
      <trkpt lat="57.272801985964179" lon="-5.730980029329658">
        <ele>11.67</ele>
        <time>2023-08-26T11:00:45Z</time>
      </trkpt>
      <trkpt lat="57.272801985964179" lon="-5.730980029329658">
        <ele>11.19</ele>
        <time>2023-08-26T11:00:46Z</time>
      </trkpt>
      <trkpt lat="57.272801985964179" lon="-5.730980029329658">
        <ele>10.710000000000001</ele>
        <time>2023-08-26T11:00:47Z</time>
      </trkpt>
      <trkpt lat="57.272793017327785" lon="-5.730977011844516">
        <ele>10.710000000000001</ele>
        <time>2023-08-26T11:00:48Z</time>
      </trkpt>
      <trkpt lat="57.272793017327785" lon="-5.730977011844516">
        <ele>10.23</ele>
        <time>2023-08-26T11:01:01Z</time>
      </trkpt>
      <trkpt lat="57.272793017327785" lon="-5.730977011844516">
        <ele>10.710000000000001</ele>
        <time>2023-08-26T11:01:45Z</time>
      </trkpt>
      <trkpt lat="57.272785976529121" lon="-5.730975000187755">
        <ele>11.19</ele>
        <time>2023-08-26T11:02:10Z</time>
      </trkpt>
      <trkpt lat="57.272801985964179" lon="-5.730980029329658">
        <ele>11.19</ele>
        <time>2023-08-26T11:02:11Z</time>
      </trkpt>
      <trkpt lat="57.272822018712759" lon="-5.731106009334326">
        <ele>11.19</ele>
        <time>2023-08-26T11:02:12Z</time>
      </trkpt>
      <trkpt lat="57.272838028147817" lon="-5.731211034581065">
        <ele>10.710000000000001</ele>
        <time>2023-08-26T11:02:13Z</time>
      </trkpt>
      <trkpt lat="57.272856971248984" lon="-5.731329973787069">
        <ele>10.710000000000001</ele>
        <time>2023-08-26T11:02:14Z</time>
      </trkpt>
      <trkpt lat="57.272877003997564" lon="-5.731460982933641">
        <ele>10.710000000000001</ele>
        <time>2023-08-26T11:02:15Z</time>
      </trkpt>
      <trkpt lat="57.272899970412254" lon="-5.731606995686889">
        <ele>10.710000000000001</ele>
        <time>2023-08-26T11:02:16Z</time>
      </trkpt>
      <trkpt lat="57.273094011470675" lon="-5.732849026098847">
        <ele>9.75</ele>
        <time>2023-08-26T11:02:26Z</time>
      </trkpt>
      <trkpt lat="57.273301966488361" lon="-5.734356008470058">
        <ele>9.75</ele>
        <time>2023-08-26T11:02:36Z</time>
      </trkpt>
      <trkpt lat="57.273633973672986" lon="-5.736646028235555">
        <ele>12.15</ele>
        <time>2023-08-26T11:02:50Z</time>
      </trkpt>
      <trkpt lat="57.273974027484655" lon="-5.738986004143953">
        <ele>14.08</ele>
        <time>2023-08-26T11:03:05Z</time>
      </trkpt>
      <trkpt lat="57.274110987782478" lon="-5.74033297598362">
        <ele>15.039999999999999</ele>
        <time>2023-08-26T11:03:13Z</time>
      </trkpt>
      <trkpt lat="57.274089027196169" lon="-5.74052500538528">
        <ele>15.039999999999999</ele>
        <time>2023-08-26T11:03:14Z</time>
      </trkpt>
      <trkpt lat="57.274043010547757" lon="-5.740694990381599">
        <ele>15.52</ele>
        <time>2023-08-26T11:03:15Z</time>
      </trkpt>
      <trkpt lat="57.273996993899345" lon="-5.740862041711807">
        <ele>15.52</ele>
        <time>2023-08-26T11:03:16Z</time>
      </trkpt>
      <trkpt lat="57.273953994736075" lon="-5.741023980081081">
        <ele>16</ele>
        <time>2023-08-26T11:03:17Z</time>
      </trkpt>
      <trkpt lat="57.273895991966128" lon="-5.74123595841229">
        <ele>16</ele>
        <time>2023-08-26T11:03:18Z</time>
      </trkpt>
      <trkpt lat="57.273837989196181" lon="-5.741326985880733">
        <ele>16.48</ele>
        <time>2023-08-26T11:03:19Z</time>
      </trkpt>
      <trkpt lat="57.273763976991177" lon="-5.741441985592246">
        <ele>16.960000000000001</ele>
        <time>2023-08-26T11:03:20Z</time>
      </trkpt>
      <trkpt lat="57.273689964786172" lon="-5.74155799113214">
        <ele>16.960000000000001</ele>
        <time>2023-08-26T11:03:21Z</time>
      </trkpt>
      <trkpt lat="57.273612013086677" lon="-5.741678019985557">
        <ele>17.440000000000001</ele>
        <time>2023-08-26T11:03:22Z</time>
      </trkpt>
      <trkpt lat="57.273539006710052" lon="-5.74179201386869">
        <ele>17.440000000000001</ele>
        <time>2023-08-26T11:03:23Z</time>
      </trkpt>
      <trkpt lat="57.273464994505048" lon="-5.741907013580203">
        <ele>17.920000000000002</ele>
        <time>2023-08-26T11:03:24Z</time>
      </trkpt>
      <trkpt lat="57.273098034784198" lon="-5.742477988824248">
        <ele>18.399999999999999</ele>
        <time>2023-08-26T11:03:29Z</time>
      </trkpt>
      <trkpt lat="57.273027040064335" lon="-5.742587959393859">
        <ele>18.399999999999999</ele>
        <time>2023-08-26T11:03:30Z</time>
      </trkpt>
      <trkpt lat="57.272961996495724" lon="-5.742689967155457">
        <ele>18.399999999999999</ele>
        <time>2023-08-26T11:03:31Z</time>
      </trkpt>
      <trkpt lat="57.272864012047648" lon="-5.743119036778808">
        <ele>18.399999999999999</ele>
        <time>2023-08-26T11:03:34Z</time>
      </trkpt>
      <trkpt lat="57.272809026762843" lon="-5.743437968194485">
        <ele>18.879999999999999</ele>
        <time>2023-08-26T11:03:36Z</time>
      </trkpt>
      <trkpt lat="57.27278103120625" lon="-5.74359898455441">
        <ele>18.879999999999999</ele>
        <time>2023-08-26T11:03:37Z</time>
      </trkpt>
      <trkpt lat="57.272682040929794" lon="-5.744164008647203">
        <ele>20.32</ele>
        <time>2023-08-26T11:03:41Z</time>
      </trkpt>
      <trkpt lat="57.272665025666356" lon="-5.74426400475204">
        <ele>20.32</ele>
        <time>2023-08-26T11:03:42Z</time>
      </trkpt>
      <trkpt lat="57.27265396155417" lon="-5.74432703666389">
        <ele>20.809999999999999</ele>
        <time>2023-08-26T11:03:43Z</time>
      </trkpt>
      <trkpt lat="57.27265396155417" lon="-5.74432703666389">
        <ele>21.289999999999999</ele>
        <time>2023-08-26T11:03:44Z</time>
      </trkpt>
      <trkpt lat="57.27254499681294" lon="-5.744561981409788">
        <ele>23.210000000000001</ele>
        <time>2023-08-26T11:03:53Z</time>
      </trkpt>
      <trkpt lat="57.27260903455317" lon="-5.744584025815129">
        <ele>24.170000000000002</ele>
        <time>2023-08-26T11:03:59Z</time>
      </trkpt>
      <trkpt lat="57.27260903455317" lon="-5.744584025815129">
        <ele>24.649999999999999</ele>
        <time>2023-08-26T11:04:00Z</time>
      </trkpt>
      <trkpt lat="57.272480959072709" lon="-5.744802039116621">
        <ele>25.129999999999999</ele>
        <time>2023-08-26T11:04:01Z</time>
      </trkpt>
      <trkpt lat="57.272497974336147" lon="-5.744889965280891">
        <ele>25.129999999999999</ele>
        <time>2023-08-26T11:04:02Z</time>
      </trkpt>
      <trkpt lat="57.27250199764967" lon="-5.744905974715948">
        <ele>25.129999999999999</ele>
        <time>2023-08-26T11:04:03Z</time>
      </trkpt>
      <trkpt lat="57.272586990147829" lon="-5.744947968050838">
        <ele>25.129999999999999</ele>
        <time>2023-08-26T11:04:04Z</time>
      </trkpt>
      <trkpt lat="57.272604005411267" lon="-5.744916032999754">
        <ele>25.129999999999999</ele>
        <time>2023-08-26T11:04:05Z</time>
      </trkpt>
      <trkpt lat="57.272633006796241" lon="-5.744858030229807">
        <ele>25.129999999999999</ele>
        <time>2023-08-26T11:04:06Z</time>
      </trkpt>
      <trkpt lat="57.27265203371644" lon="-5.744819976389408">
        <ele>24.649999999999999</ele>
        <time>2023-08-26T11:04:07Z</time>
      </trkpt>
      <trkpt lat="57.272637030109763" lon="-5.744735989719629">
        <ele>24.649999999999999</ele>
        <time>2023-08-26T11:04:08Z</time>
      </trkpt>
      <trkpt lat="57.272736020386219" lon="-5.743853040039539">
        <ele>23.690000000000001</ele>
        <time>2023-08-26T11:04:16Z</time>
      </trkpt>
      <trkpt lat="57.272747000679374" lon="-5.74379101395607">
        <ele>23.690000000000001</ele>
        <time>2023-08-26T11:04:17Z</time>
      </trkpt>
      <trkpt lat="57.272754963487387" lon="-5.743747008964419">
        <ele>23.210000000000001</ele>
        <time>2023-08-26T11:04:18Z</time>
      </trkpt>
      <trkpt lat="57.272403007373214" lon="-5.743582975119352">
        <ele>21.77</ele>
        <time>2023-08-26T11:04:25Z</time>
      </trkpt>
      <trkpt lat="57.272383980453014" lon="-5.743623040616512">
        <ele>21.289999999999999</ele>
        <time>2023-08-26T11:04:35Z</time>
      </trkpt>
      <trkpt lat="57.272378029301763" lon="-5.743636032566428">
        <ele>21.77</ele>
        <time>2023-08-26T11:05:19Z</time>
      </trkpt>
      <trkpt lat="57.272364031523466" lon="-5.743654975667596">
        <ele>22.25</ele>
        <time>2023-08-26T11:06:07Z</time>
      </trkpt>
      <trkpt lat="57.272357996553183" lon="-5.743660004809499">
        <ele>23.210000000000001</ele>
        <time>2023-08-26T11:06:55Z</time>
      </trkpt>
      <trkpt lat="57.272354979068041" lon="-5.743663022294641">
        <ele>23.210000000000001</ele>
        <time>2023-08-26T11:07:46Z</time>
      </trkpt>
      <trkpt lat="57.272359002381563" lon="-5.743664028123021">
        <ele>23.690000000000001</ele>
        <time>2023-08-26T11:08:39Z</time>
      </trkpt>
      <trkpt lat="57.27235003374517" lon="-5.743522038683295">
        <ele>24.649999999999999</ele>
        <time>2023-08-26T11:08:46Z</time>
      </trkpt>
      <trkpt lat="57.272637030109763" lon="-5.743698980659246">
        <ele>24.649999999999999</ele>
        <time>2023-08-26T11:08:55Z</time>
      </trkpt>
      <trkpt lat="57.272735014557838" lon="-5.743859997019172">
        <ele>24.170000000000002</ele>
        <time>2023-08-26T11:08:56Z</time>
      </trkpt>
      <trkpt lat="57.272711964324117" lon="-5.743991006165743">
        <ele>24.170000000000002</ele>
        <time>2023-08-26T11:08:57Z</time>
      </trkpt>
      <trkpt lat="57.272685980424285" lon="-5.744143975898624">
        <ele>24.170000000000002</ele>
        <time>2023-08-26T11:08:58Z</time>
      </trkpt>
      <trkpt lat="57.272659996524453" lon="-5.744294011965394">
        <ele>24.649999999999999</ele>
        <time>2023-08-26T11:08:59Z</time>
      </trkpt>
      <trkpt lat="57.272636024281383" lon="-5.744429966434836">
        <ele>25.129999999999999</ele>
        <time>2023-08-26T11:09:00Z</time>
      </trkpt>
      <trkpt lat="57.27254499681294" lon="-5.744561981409788">
        <ele>25.609999999999999</ele>
        <time>2023-08-26T11:09:01Z</time>
      </trkpt>
      <trkpt lat="57.272480959072709" lon="-5.744658038020134">
        <ele>26.09</ele>
        <time>2023-08-26T11:09:02Z</time>
      </trkpt>
      <trkpt lat="57.272032024338841" lon="-5.746599035337567">
        <ele>30.899999999999999</ele>
        <time>2023-08-26T11:09:12Z</time>
      </trkpt>
      <trkpt lat="57.271437998861074" lon="-5.749487020075321">
        <ele>33.299999999999997</ele>
        <time>2023-08-26T11:09:24Z</time>
      </trkpt>
      <trkpt lat="57.27065596729517" lon="-5.752001004293561">
        <ele>32.82</ele>
        <time>2023-08-26T11:09:34Z</time>
      </trkpt>
      <trkpt lat="57.269770000129938" lon="-5.754113998264074">
        <ele>32.340000000000003</ele>
        <time>2023-08-26T11:09:42Z</time>
      </trkpt>
      <trkpt lat="57.268405007198453" lon="-5.756334029138088">
        <ele>33.780000000000001</ele>
        <time>2023-08-26T11:09:52Z</time>
      </trkpt>
      <trkpt lat="57.267427006736398" lon="-5.758239990100265">
        <ele>34.740000000000002</ele>
        <time>2023-08-26T11:10:00Z</time>
      </trkpt>
      <trkpt lat="57.26682904176414" lon="-5.760753974318504">
        <ele>36.189999999999998</ele>
        <time>2023-08-26T11:10:08Z</time>
      </trkpt>
      <trkpt lat="57.266698032617569" lon="-5.763210039585829">
        <ele>36.189999999999998</ele>
        <time>2023-08-26T11:10:15Z</time>
      </trkpt>
      <trkpt lat="57.267031967639923" lon="-5.766354007646442">
        <ele>35.710000000000001</ele>
        <time>2023-08-26T11:10:24Z</time>
      </trkpt>
      <trkpt lat="57.267308989539742" lon="-5.770378997549415">
        <ele>35.229999999999997</ele>
        <time>2023-08-26T11:10:35Z</time>
      </trkpt>
      <trkpt lat="57.267092987895012" lon="-5.773617010563612">
        <ele>32.340000000000003</ele>
        <time>2023-08-26T11:10:43Z</time>
      </trkpt>
      <trkpt lat="57.266440959647298" lon="-5.777163980528712">
        <ele>26.57</ele>
        <time>2023-08-26T11:10:52Z</time>
      </trkpt>
      <trkpt lat="57.265624981373549" lon="-5.780751015990973">
        <ele>26.09</ele>
        <time>2023-08-26T11:11:01Z</time>
      </trkpt>
      <trkpt lat="57.264796011149883" lon="-5.784124983474612">
        <ele>25.129999999999999</ele>
        <time>2023-08-26T11:11:10Z</time>
      </trkpt>
      <trkpt lat="57.263552974909544" lon="-5.788231026381254">
        <ele>22.25</ele>
        <time>2023-08-26T11:11:21Z</time>
      </trkpt>
      <trkpt lat="57.262532981112599" lon="-5.791237028315663">
        <ele>18.879999999999999</ele>
        <time>2023-08-26T11:11:29Z</time>
      </trkpt>
      <trkpt lat="57.261206964030862" lon="-5.795145006850362">
        <ele>19.359999999999999</ele>
        <time>2023-08-26T11:11:40Z</time>
      </trkpt>
      <trkpt lat="57.260561976581812" lon="-5.796833038330078">
        <ele>20.809999999999999</ele>
        <time>2023-08-26T11:11:45Z</time>
      </trkpt>
      <trkpt lat="57.260425016283989" lon="-5.797180971130729">
        <ele>21.77</ele>
        <time>2023-08-26T11:11:46Z</time>
      </trkpt>
      <trkpt lat="57.259355988353491" lon="-5.79982697032392">
        <ele>27.050000000000001</ele>
        <time>2023-08-26T11:11:54Z</time>
      </trkpt>
      <trkpt lat="57.258363990113139" lon="-5.801982041448355">
        <ele>29.940000000000001</ele>
        <time>2023-08-26T11:12:01Z</time>
      </trkpt>
      <trkpt lat="57.25673102773726" lon="-5.805392973124981">
        <ele>28.5</ele>
        <time>2023-08-26T11:12:12Z</time>
      </trkpt>
      <trkpt lat="57.255209963768721" lon="-5.809221994131804">
        <ele>27.050000000000001</ele>
        <time>2023-08-26T11:12:24Z</time>
      </trkpt>
      <trkpt lat="57.254186030477285" lon="-5.812421031296253">
        <ele>26.09</ele>
        <time>2023-08-26T11:12:33Z</time>
      </trkpt>
      <trkpt lat="57.253390001133084" lon="-5.815024031326175">
        <ele>26.09</ele>
        <time>2023-08-26T11:12:40Z</time>
      </trkpt>
      <trkpt lat="57.252603024244308" lon="-5.817323019728065">
        <ele>23.210000000000001</ele>
        <time>2023-08-26T11:12:48Z</time>
      </trkpt>
      <trkpt lat="57.251671040430665" lon="-5.81982996314764">
        <ele>21.289999999999999</ele>
        <time>2023-08-26T11:12:56Z</time>
      </trkpt>
      <trkpt lat="57.250704020261765" lon="-5.822257027029991">
        <ele>23.690000000000001</ele>
        <time>2023-08-26T11:13:04Z</time>
      </trkpt>
      <trkpt lat="57.249931041151285" lon="-5.82395302131772">
        <ele>27.530000000000001</ele>
        <time>2023-08-26T11:13:12Z</time>
      </trkpt>
      <trkpt lat="57.249138029292226" lon="-5.825462015345693">
        <ele>29.460000000000001</ele>
        <time>2023-08-26T11:13:22Z</time>
      </trkpt>
      <trkpt lat="57.248201016336679" lon="-5.827244007959962">
        <ele>30.420000000000002</ele>
        <time>2023-08-26T11:13:33Z</time>
      </trkpt>
      <trkpt lat="57.246777014806867" lon="-5.829914985224605">
        <ele>30.899999999999999</ele>
        <time>2023-08-26T11:13:48Z</time>
      </trkpt>
      <trkpt lat="57.246003029868007" lon="-5.831650039181113">
        <ele>30.899999999999999</ele>
        <time>2023-08-26T11:13:58Z</time>
      </trkpt>
      <trkpt lat="57.245247988030314" lon="-5.833358019590378">
        <ele>30.420000000000002</ele>
        <time>2023-08-26T11:14:06Z</time>
      </trkpt>
      <trkpt lat="57.244647005572915" lon="-5.835432037711144">
        <ele>32.340000000000003</ele>
        <time>2023-08-26T11:14:16Z</time>
      </trkpt>
      <trkpt lat="57.243790039792657" lon="-5.838454971089959">
        <ele>33.780000000000001</ele>
        <time>2023-08-26T11:14:28Z</time>
      </trkpt>
      <trkpt lat="57.243470018729568" lon="-5.839463984593749">
        <ele>34.740000000000002</ele>
        <time>2023-08-26T11:14:33Z</time>
      </trkpt>
      <trkpt lat="57.243335992097855" lon="-5.839778976514936">
        <ele>35.229999999999997</ele>
        <time>2023-08-26T11:14:37Z</time>
      </trkpt>
      <trkpt lat="57.243307996541262" lon="-5.839835973456502">
        <ele>35.710000000000001</ele>
        <time>2023-08-26T11:14:38Z</time>
      </trkpt>
      <trkpt lat="57.243280000984669" lon="-5.839890958741307">
        <ele>35.710000000000001</ele>
        <time>2023-08-26T11:14:39Z</time>
      </trkpt>
      <trkpt lat="57.242799969390035" lon="-5.840461011976004">
        <ele>35.710000000000001</ele>
        <time>2023-08-26T11:14:48Z</time>
      </trkpt>
      <trkpt lat="57.242040988057852" lon="-5.841356031596661">
        <ele>37.630000000000003</ele>
        <time>2023-08-26T11:14:57Z</time>
      </trkpt>
      <trkpt lat="57.240987969562411" lon="-5.842356998473406">
        <ele>40.990000000000002</ele>
        <time>2023-08-26T11:15:08Z</time>
      </trkpt>
      <trkpt lat="57.240110971033573" lon="-5.843524010851979">
        <ele>42.439999999999998</ele>
        <time>2023-08-26T11:15:18Z</time>
      </trkpt>
      <trkpt lat="57.239984991028905" lon="-5.843846965581179">
        <ele>42.920000000000002</ele>
        <time>2023-08-26T11:15:20Z</time>
      </trkpt>
      <trkpt lat="57.23986797966063" lon="-5.844148965552449">
        <ele>42.920000000000002</ele>
        <time>2023-08-26T11:15:22Z</time>
      </trkpt>
      <trkpt lat="57.239829003810883" lon="-5.844302019104362">
        <ele>42.920000000000002</ele>
        <time>2023-08-26T11:15:23Z</time>
      </trkpt>
      <trkpt lat="57.23980201408267" lon="-5.844474015757442">
        <ele>42.920000000000002</ele>
        <time>2023-08-26T11:15:24Z</time>
      </trkpt>
      <trkpt lat="57.239776030182838" lon="-5.844646012410522">
        <ele>42.920000000000002</ele>
        <time>2023-08-26T11:15:25Z</time>
      </trkpt>
      <trkpt lat="57.239749040454626" lon="-5.844821026548743">
        <ele>42.920000000000002</ele>
        <time>2023-08-26T11:15:26Z</time>
      </trkpt>
      <trkpt lat="57.239720039069653" lon="-5.845005009323359">
        <ele>42.920000000000002</ele>
        <time>2023-08-26T11:15:27Z</time>
      </trkpt>
      <trkpt lat="57.239400018006563" lon="-5.847150022163987">
        <ele>40.990000000000002</ele>
        <time>2023-08-26T11:15:36Z</time>
      </trkpt>
      <trkpt lat="57.238891990855336" lon="-5.849953014403582">
        <ele>40.990000000000002</ele>
        <time>2023-08-26T11:15:47Z</time>
      </trkpt>
      <trkpt lat="57.238587979227304" lon="-5.851766020059586">
        <ele>39.07</ele>
        <time>2023-08-26T11:15:55Z</time>
      </trkpt>
      <trkpt lat="57.238274998962879" lon="-5.854614023119211">
        <ele>34.259999999999998</ele>
        <time>2023-08-26T11:16:06Z</time>
      </trkpt>
      <trkpt lat="57.237940980121493" lon="-5.857597980648279">
        <ele>30.899999999999999</ele>
        <time>2023-08-26T11:16:18Z</time>
      </trkpt>
      <trkpt lat="57.237635040655732" lon="-5.859979027882218">
        <ele>28.98</ele>
        <time>2023-08-26T11:16:27Z</time>
      </trkpt>
      <trkpt lat="57.237303033471107" lon="-5.862555038183928">
        <ele>24.649999999999999</ele>
        <time>2023-08-26T11:16:38Z</time>
      </trkpt>
      <trkpt lat="57.237011007964611" lon="-5.864819996058941">
        <ele>25.129999999999999</ele>
        <time>2023-08-26T11:16:49Z</time>
      </trkpt>
      <trkpt lat="57.236755024641752" lon="-5.866801980882883">
        <ele>24.649999999999999</ele>
        <time>2023-08-26T11:16:58Z</time>
      </trkpt>
      <trkpt lat="57.236431986093521" lon="-5.869309008121491">
        <ele>21.77</ele>
        <time>2023-08-26T11:17:07Z</time>
      </trkpt>
      <trkpt lat="57.236045999452472" lon="-5.872301012277603">
        <ele>24.649999999999999</ele>
        <time>2023-08-26T11:17:20Z</time>
      </trkpt>
      <trkpt lat="57.236001994460821" lon="-5.872642993927002">
        <ele>25.609999999999999</ele>
        <time>2023-08-26T11:17:22Z</time>
      </trkpt>
      <trkpt lat="57.236040970310569" lon="-5.872883973643184">
        <ele>25.609999999999999</ele>
        <time>2023-08-26T11:17:23Z</time>
      </trkpt>
      <trkpt lat="57.236072989180684" lon="-5.873081032186747">
        <ele>25.609999999999999</ele>
        <time>2023-08-26T11:17:24Z</time>
      </trkpt>
      <trkpt lat="57.236105008050799" lon="-5.873283036053181">
        <ele>26.09</ele>
        <time>2023-08-26T11:17:25Z</time>
      </trkpt>
      <trkpt lat="57.236168961971998" lon="-5.873456038534641">
        <ele>26.09</ele>
        <time>2023-08-26T11:17:26Z</time>
      </trkpt>
      <trkpt lat="57.236244985833764" lon="-5.873643038794398">
        <ele>26.09</ele>
        <time>2023-08-26T11:17:27Z</time>
      </trkpt>
      <trkpt lat="57.236844962462783" lon="-5.875329980626702">
        <ele>22.73</ele>
        <time>2023-08-26T11:17:36Z</time>
      </trkpt>
      <trkpt lat="57.23685703240335" lon="-5.875512035563588">
        <ele>22.73</ele>
        <time>2023-08-26T11:17:37Z</time>
      </trkpt>
      <trkpt lat="57.236869018524885" lon="-5.875686965882778">
        <ele>22.25</ele>
        <time>2023-08-26T11:17:38Z</time>
      </trkpt>
      <trkpt lat="57.236882010474801" lon="-5.875883018597961">
        <ele>22.25</ele>
        <time>2023-08-26T11:17:39Z</time>
      </trkpt>
      <trkpt lat="57.236873963847756" lon="-5.876010004431009">
        <ele>22.25</ele>
        <time>2023-08-26T11:17:40Z</time>
      </trkpt>
      <trkpt lat="57.236757036298513" lon="-5.8779860381037">
        <ele>20.809999999999999</ele>
        <time>2023-08-26T11:17:50Z</time>
      </trkpt>
      <trkpt lat="57.236756030470133" lon="-5.878836968913674">
        <ele>20.32</ele>
        <time>2023-08-26T11:17:54Z</time>
      </trkpt>
      <trkpt lat="57.236786037683487" lon="-5.879021035507321">
        <ele>19.84</ele>
        <time>2023-08-26T11:17:55Z</time>
      </trkpt>
      <trkpt lat="57.23681503906846" lon="-5.879194037988782">
        <ele>19.84</ele>
        <time>2023-08-26T11:17:56Z</time>
      </trkpt>
      <trkpt lat="57.236866001039743" lon="-5.879335021600127">
        <ele>19.359999999999999</ele>
        <time>2023-08-26T11:17:57Z</time>
      </trkpt>
      <trkpt lat="57.236918974667788" lon="-5.879473993554711">
        <ele>18.879999999999999</ele>
        <time>2023-08-26T11:17:58Z</time>
      </trkpt>
      <trkpt lat="57.236974965780973" lon="-5.879619000479579">
        <ele>18.399999999999999</ele>
        <time>2023-08-26T11:17:59Z</time>
      </trkpt>
      <trkpt lat="57.237039003521204" lon="-5.879775993525982">
        <ele>18.399999999999999</ele>
        <time>2023-08-26T11:18:00Z</time>
      </trkpt>
      <trkpt lat="57.237130030989647" lon="-5.879896022379398">
        <ele>17.920000000000002</ele>
        <time>2023-08-26T11:18:01Z</time>
      </trkpt>
      <trkpt lat="57.23722499795258" lon="-5.880020996555686">
        <ele>17.440000000000001</ele>
        <time>2023-08-26T11:18:02Z</time>
      </trkpt>
      <trkpt lat="57.237322982400656" lon="-5.880150999873877">
        <ele>17.440000000000001</ele>
        <time>2023-08-26T11:18:03Z</time>
      </trkpt>
      <trkpt lat="57.23808498121798" lon="-5.881477016955614">
        <ele>13.6</ele>
        <time>2023-08-26T11:18:12Z</time>
      </trkpt>
      <trkpt lat="57.238138038665056" lon="-5.881656976416707">
        <ele>13.119999999999999</ele>
        <time>2023-08-26T11:18:13Z</time>
      </trkpt>
      <trkpt lat="57.2381910122931" lon="-5.881840037181974">
        <ele>12.630000000000001</ele>
        <time>2023-08-26T11:18:14Z</time>
      </trkpt>
      <trkpt lat="57.23823401145637" lon="-5.882029971107841">
        <ele>12.630000000000001</ele>
        <time>2023-08-26T11:18:15Z</time>
      </trkpt>
      <trkpt lat="57.238259995356202" lon="-5.882233986631036">
        <ele>12.15</ele>
        <time>2023-08-26T11:18:16Z</time>
      </trkpt>
      <trkpt lat="57.238272987306118" lon="-5.882444959133863">
        <ele>12.15</ele>
        <time>2023-08-26T11:18:17Z</time>
      </trkpt>
      <trkpt lat="57.238285979256034" lon="-5.882660038769245">
        <ele>12.15</ele>
        <time>2023-08-26T11:18:18Z</time>
      </trkpt>
      <trkpt lat="57.238297965377569" lon="-5.882857013493776">
        <ele>12.15</ele>
        <time>2023-08-26T11:18:19Z</time>
      </trkpt>
      <trkpt lat="57.23827701061964" lon="-5.883072009310126">
        <ele>12.15</ele>
        <time>2023-08-26T11:18:20Z</time>
      </trkpt>
      <trkpt lat="57.23825697787106" lon="-5.883264960721135">
        <ele>11.67</ele>
        <time>2023-08-26T11:18:21Z</time>
      </trkpt>
      <trkpt lat="57.238239040598273" lon="-5.883450033143163">
        <ele>11.67</ele>
        <time>2023-08-26T11:18:22Z</time>
      </trkpt>
      <trkpt lat="57.237808965146542" lon="-5.885283993557096">
        <ele>8.789999999999999</ele>
        <time>2023-08-26T11:18:33Z</time>
      </trkpt>
      <trkpt lat="57.23773998208344" lon="-5.887036984786391">
        <ele>8.789999999999999</ele>
        <time>2023-08-26T11:18:41Z</time>
      </trkpt>
      <trkpt lat="57.237892029806972" lon="-5.88933203369379">
        <ele>9.27</ele>
        <time>2023-08-26T11:18:51Z</time>
      </trkpt>
      <trkpt lat="57.237950032576919" lon="-5.890978993847966">
        <ele>9.75</ele>
        <time>2023-08-26T11:19:01Z</time>
      </trkpt>
      <trkpt lat="57.237952966243029" lon="-5.891063986346126">
        <ele>9.27</ele>
        <time>2023-08-26T11:19:03Z</time>
      </trkpt>
      <trkpt lat="57.237952966243029" lon="-5.891063986346126">
        <ele>9.27</ele>
        <time>2023-08-26T11:19:04Z</time>
      </trkpt>
      <trkpt lat="57.237972998991609" lon="-5.891634039580822">
        <ele>8.789999999999999</ele>
        <time>2023-08-26T11:19:12Z</time>
      </trkpt>
      <trkpt lat="57.238032007589936" lon="-5.893377978354693">
        <ele>10.23</ele>
        <time>2023-08-26T11:19:22Z</time>
      </trkpt>
      <trkpt lat="57.2380839753896" lon="-5.895195007324219">
        <ele>12.630000000000001</ele>
        <time>2023-08-26T11:19:32Z</time>
      </trkpt>
      <trkpt lat="57.238189000636339" lon="-5.895628016442061">
        <ele>13.119999999999999</ele>
        <time>2023-08-26T11:19:34Z</time>
      </trkpt>
      <trkpt lat="57.238240968436003" lon="-5.895846029743552">
        <ele>13.6</ele>
        <time>2023-08-26T11:19:35Z</time>
      </trkpt>
      <trkpt lat="57.239083014428616" lon="-5.898274015635252">
        <ele>12.15</ele>
        <time>2023-08-26T11:19:47Z</time>
      </trkpt>
      <trkpt lat="57.239980967715383" lon="-5.900470996275544">
        <ele>11.19</ele>
        <time>2023-08-26T11:19:56Z</time>
      </trkpt>
      <trkpt lat="57.240433003753424" lon="-5.902104964479804">
        <ele>13.6</ele>
        <time>2023-08-26T11:20:03Z</time>
      </trkpt>
      <trkpt lat="57.240710025653243" lon="-5.903738010674715">
        <ele>13.6</ele>
        <time>2023-08-26T11:20:13Z</time>
      </trkpt>
      <trkpt lat="57.240732992067933" lon="-5.90389802120626">
        <ele>13.119999999999999</ele>
        <time>2023-08-26T11:20:14Z</time>
      </trkpt>
      <trkpt lat="57.240814967080951" lon="-5.90454401448369">
        <ele>12.15</ele>
        <time>2023-08-26T11:20:18Z</time>
      </trkpt>
      <trkpt lat="57.240834999829531" lon="-5.904703019186854">
        <ele>11.67</ele>
        <time>2023-08-26T11:20:19Z</time>
      </trkpt>
      <trkpt lat="57.241017976775765" lon="-5.906178988516331">
        <ele>7.83</ele>
        <time>2023-08-26T11:20:30Z</time>
      </trkpt>
      <trkpt lat="57.241157032549381" lon="-5.907603995874524">
        <ele>6.87</ele>
        <time>2023-08-26T11:20:40Z</time>
      </trkpt>
      <trkpt lat="57.241288041695952" lon="-5.908852983266115">
        <ele>4.94</ele>
        <time>2023-08-26T11:20:49Z</time>
      </trkpt>
      <trkpt lat="57.241351995617151" lon="-5.909348018467426">
        <ele>4.46</ele>
        <time>2023-08-26T11:20:54Z</time>
      </trkpt>
      <trkpt lat="57.241376973688602" lon="-5.909490007907152">
        <ele>3.98</ele>
        <time>2023-08-26T11:20:55Z</time>
      </trkpt>
      <trkpt lat="57.241861028596759" lon="-5.911308964714408">
        <ele>3.02</ele>
        <time>2023-08-26T11:21:07Z</time>
      </trkpt>
      <trkpt lat="57.242483971640468" lon="-5.912683010101318">
        <ele>3.98</ele>
        <time>2023-08-26T11:21:15Z</time>
      </trkpt>
      <trkpt lat="57.242942964658141" lon="-5.913528995588422">
        <ele>5.42</ele>
        <time>2023-08-26T11:21:20Z</time>
      </trkpt>
      <trkpt lat="57.243623994290829" lon="-5.915640983730555">
        <ele>6.87</ele>
        <time>2023-08-26T11:21:30Z</time>
      </trkpt>
      <trkpt lat="57.244081981480122" lon="-5.91812102124095">
        <ele>8.310000000000001</ele>
        <time>2023-08-26T11:21:38Z</time>
      </trkpt>
      <trkpt lat="57.244664020836353" lon="-5.921392980962992">
        <ele>11.19</ele>
        <time>2023-08-26T11:21:49Z</time>
      </trkpt>
      <trkpt lat="57.245429959148169" lon="-5.925050005316734">
        <ele>17.920000000000002</ele>
        <time>2023-08-26T11:22:01Z</time>
      </trkpt>
      <trkpt lat="57.246426986530423" lon="-5.927641019225121">
        <ele>21.289999999999999</ele>
        <time>2023-08-26T11:22:10Z</time>
      </trkpt>
      <trkpt lat="57.248150976374745" lon="-5.93075699172914">
        <ele>21.289999999999999</ele>
        <time>2023-08-26T11:22:22Z</time>
      </trkpt>
      <trkpt lat="57.250543003901839" lon="-5.934643009677529">
        <ele>26.09</ele>
        <time>2023-08-26T11:22:38Z</time>
      </trkpt>
      <trkpt lat="57.252303035929799" lon="-5.936569003388286">
        <ele>28.98</ele>
        <time>2023-08-26T11:22:48Z</time>
      </trkpt>
      <trkpt lat="57.254650974646211" lon="-5.938458032906056">
        <ele>31.379999999999999</ele>
        <time>2023-08-26T11:23:00Z</time>
      </trkpt>
      <trkpt lat="57.257481040433049" lon="-5.94081100076437">
        <ele>30.420000000000002</ele>
        <time>2023-08-26T11:23:15Z</time>
      </trkpt>
      <trkpt lat="57.259269990026951" lon="-5.942663988098502">
        <ele>26.57</ele>
        <time>2023-08-26T11:23:25Z</time>
      </trkpt>
      <trkpt lat="57.260579997673631" lon="-5.944669023156166">
        <ele>21.77</ele>
        <time>2023-08-26T11:23:33Z</time>
      </trkpt>
      <trkpt lat="57.262109024450183" lon="-5.947390962392092">
        <ele>15.52</ele>
        <time>2023-08-26T11:23:43Z</time>
      </trkpt>
      <trkpt lat="57.263107979670167" lon="-5.950641967356205">
        <ele>13.119999999999999</ele>
        <time>2023-08-26T11:23:52Z</time>
      </trkpt>
      <trkpt lat="57.263732012361288" lon="-5.953789036720991">
        <ele>11.67</ele>
        <time>2023-08-26T11:24:00Z</time>
      </trkpt>
      <trkpt lat="57.264733985066414" lon="-5.957650998607278">
        <ele>11.67</ele>
        <time>2023-08-26T11:24:10Z</time>
      </trkpt>
      <trkpt lat="57.265803012996912" lon="-5.961533999070525">
        <ele>11.67</ele>
        <time>2023-08-26T11:24:20Z</time>
      </trkpt>
      <trkpt lat="57.267338996753097" lon="-5.966252004727721">
        <ele>10.23</ele>
        <time>2023-08-26T11:24:33Z</time>
      </trkpt>
      <trkpt lat="57.268509026616812" lon="-5.970242964103818">
        <ele>8.789999999999999</ele>
        <time>2023-08-26T11:24:44Z</time>
      </trkpt>
      <trkpt lat="57.268799040466547" lon="-5.973352985456586">
        <ele>9.27</ele>
        <time>2023-08-26T11:24:52Z</time>
      </trkpt>
      <trkpt lat="57.268770039081573" lon="-5.974052036181092">
        <ele>9.27</ele>
        <time>2023-08-26T11:24:54Z</time>
      </trkpt>
      <trkpt lat="57.268739026039839" lon="-5.974382031708956">
        <ele>9.27</ele>
        <time>2023-08-26T11:24:55Z</time>
      </trkpt>
      <trkpt lat="57.268686974421144" lon="-5.974700963124633">
        <ele>9.27</ele>
        <time>2023-08-26T11:24:56Z</time>
      </trkpt>
      <trkpt lat="57.268611034378409" lon="-5.975016038864851">
        <ele>8.789999999999999</ele>
        <time>2023-08-26T11:24:57Z</time>
      </trkpt>
      <trkpt lat="57.268511960282922" lon="-5.97531502135098">
        <ele>8.789999999999999</ele>
        <time>2023-08-26T11:24:58Z</time>
      </trkpt>
      <trkpt lat="57.268397966399789" lon="-5.975604029372335">
        <ele>8.310000000000001</ele>
        <time>2023-08-26T11:24:59Z</time>
      </trkpt>
      <trkpt lat="57.268258994445205" lon="-5.975873004645109">
        <ele>8.310000000000001</ele>
        <time>2023-08-26T11:25:00Z</time>
      </trkpt>
      <trkpt lat="57.268117005005479" lon="-5.976149020716548">
        <ele>7.83</ele>
        <time>2023-08-26T11:25:01Z</time>
      </trkpt>
      <trkpt lat="57.267564972862601" lon="-5.977359032258391">
        <ele>7.35</ele>
        <time>2023-08-26T11:25:05Z</time>
      </trkpt>
      <trkpt lat="57.267458019778132" lon="-5.977699002251029">
        <ele>7.35</ele>
        <time>2023-08-26T11:25:06Z</time>
      </trkpt>
      <trkpt lat="57.267365986481309" lon="-5.978057999163866">
        <ele>7.35</ele>
        <time>2023-08-26T11:25:07Z</time>
      </trkpt>
      <trkpt lat="57.267289040610194" lon="-5.978418001905084">
        <ele>7.83</ele>
        <time>2023-08-26T11:25:08Z</time>
      </trkpt>
      <trkpt lat="57.267234977334738" lon="-5.978797031566501">
        <ele>7.35</ele>
        <time>2023-08-26T11:25:09Z</time>
      </trkpt>
      <trkpt lat="57.267222991213202" lon="-5.979185029864311">
        <ele>7.35</ele>
        <time>2023-08-26T11:25:10Z</time>
      </trkpt>
      <trkpt lat="57.267222991213202" lon="-5.979571016505361">
        <ele>7.35</ele>
        <time>2023-08-26T11:25:11Z</time>
      </trkpt>
      <trkpt lat="57.267222991213202" lon="-5.979959014803171">
        <ele>7.35</ele>
        <time>2023-08-26T11:25:12Z</time>
      </trkpt>
      <trkpt lat="57.267248975113034" lon="-5.980335026979446">
        <ele>7.83</ele>
        <time>2023-08-26T11:25:13Z</time>
      </trkpt>
      <trkpt lat="57.267285017296672" lon="-5.98070802167058">
        <ele>7.83</ele>
        <time>2023-08-26T11:25:14Z</time>
      </trkpt>
      <trkpt lat="57.267680978402495" lon="-5.984022980555892">
        <ele>8.789999999999999</ele>
        <time>2023-08-26T11:25:23Z</time>
      </trkpt>
      <trkpt lat="57.267781980335712" lon="-5.984343001618981">
        <ele>9.27</ele>
        <time>2023-08-26T11:25:24Z</time>
      </trkpt>
      <trkpt lat="57.267897985875607" lon="-5.984650030732155">
        <ele>9.27</ele>
        <time>2023-08-26T11:25:25Z</time>
      </trkpt>
      <trkpt lat="57.269320981577039" lon="-5.987565005198121">
        <ele>11.67</ele>
        <time>2023-08-26T11:25:35Z</time>
      </trkpt>
      <trkpt lat="57.269789027050138" lon="-5.988795971497893">
        <ele>11.19</ele>
        <time>2023-08-26T11:25:39Z</time>
      </trkpt>
      <trkpt lat="57.269879970699549" lon="-5.989123033359647">
        <ele>11.19</ele>
        <time>2023-08-26T11:25:40Z</time>
      </trkpt>
      <trkpt lat="57.269929004833102" lon="-5.989472977817059">
        <ele>10.710000000000001</ele>
        <time>2023-08-26T11:25:41Z</time>
      </trkpt>
      <trkpt lat="57.269976027309895" lon="-5.989820994436741">
        <ele>10.710000000000001</ele>
        <time>2023-08-26T11:25:42Z</time>
      </trkpt>
      <trkpt lat="57.269997987896204" lon="-5.990176973864436">
        <ele>10.710000000000001</ele>
        <time>2023-08-26T11:25:43Z</time>
      </trkpt>
      <trkpt lat="57.270007040351629" lon="-5.990532031282783">
        <ele>10.710000000000001</ele>
        <time>2023-08-26T11:25:44Z</time>
      </trkpt>
      <trkpt lat="57.270008968189359" lon="-5.990889016538858">
        <ele>10.710000000000001</ele>
        <time>2023-08-26T11:25:45Z</time>
      </trkpt>
      <trkpt lat="57.269976027309895" lon="-5.992670003324747">
        <ele>10.710000000000001</ele>
        <time>2023-08-26T11:25:51Z</time>
      </trkpt>
      <trkpt lat="57.270033024251461" lon="-5.993714975193143">
        <ele>10.710000000000001</ele>
        <time>2023-08-26T11:25:55Z</time>
      </trkpt>
      <trkpt lat="57.270089015364647" lon="-5.993953021243215">
        <ele>10.710000000000001</ele>
        <time>2023-08-26T11:25:56Z</time>
      </trkpt>
      <trkpt lat="57.270145006477833" lon="-5.994182014837861">
        <ele>10.710000000000001</ele>
        <time>2023-08-26T11:25:57Z</time>
      </trkpt>
      <trkpt lat="57.270199991762638" lon="-5.994410002604127">
        <ele>10.710000000000001</ele>
        <time>2023-08-26T11:25:58Z</time>
      </trkpt>
      <trkpt lat="57.270261012017727" lon="-5.994641007855535">
        <ele>10.710000000000001</ele>
        <time>2023-08-26T11:25:59Z</time>
      </trkpt>
      <trkpt lat="57.270338963717222" lon="-5.994837982580066">
        <ele>10.710000000000001</ele>
        <time>2023-08-26T11:26:00Z</time>
      </trkpt>
      <trkpt lat="57.271082019433379" lon="-5.996510004624724">
        <ele>9.75</ele>
        <time>2023-08-26T11:26:09Z</time>
      </trkpt>
      <trkpt lat="57.272397978231311" lon="-5.998631967231631">
        <ele>11.67</ele>
        <time>2023-08-26T11:26:20Z</time>
      </trkpt>
      <trkpt lat="57.273182021453977" lon="-5.999827980995178">
        <ele>13.119999999999999</ele>
        <time>2023-08-26T11:26:26Z</time>
      </trkpt>
      <trkpt lat="57.273311018943787" lon="-5.999950021505356">
        <ele>13.119999999999999</ele>
        <time>2023-08-26T11:26:27Z</time>
      </trkpt>
      <trkpt lat="57.274134960025549" lon="-6.000606995075941">
        <ele>13.119999999999999</ele>
        <time>2023-08-26T11:26:33Z</time>
      </trkpt>
      <trkpt lat="57.275208011269569" lon="-6.001879032701254">
        <ele>15.52</ele>
        <time>2023-08-26T11:26:40Z</time>
      </trkpt>
      <trkpt lat="57.276415005326271" lon="-6.003962019458413">
        <ele>20.809999999999999</ele>
        <time>2023-08-26T11:26:49Z</time>
      </trkpt>
      <trkpt lat="57.277332991361618" lon="-6.005944004282355">
        <ele>26.57</ele>
        <time>2023-08-26T11:26:58Z</time>
      </trkpt>
      <trkpt lat="57.278519030660391" lon="-6.007643016055226">
        <ele>28.02</ele>
        <time>2023-08-26T11:27:07Z</time>
      </trkpt>
      <trkpt lat="57.280294988304377" lon="-6.010352969169617">
        <ele>24.170000000000002</ele>
        <time>2023-08-26T11:27:20Z</time>
      </trkpt>
      <trkpt lat="57.282135989516973" lon="-6.013116985559464">
        <ele>26.09</ele>
        <time>2023-08-26T11:27:32Z</time>
      </trkpt>
      <trkpt lat="57.283682031556964" lon="-6.01493502035737">
        <ele>27.050000000000001</ele>
        <time>2023-08-26T11:27:42Z</time>
      </trkpt>
      <trkpt lat="57.285001007840037" lon="-6.016946006566286">
        <ele>30.899999999999999</ele>
        <time>2023-08-26T11:27:51Z</time>
      </trkpt>
      <trkpt lat="57.286266004666686" lon="-6.019813036546111">
        <ele>32.82</ele>
        <time>2023-08-26T11:28:01Z</time>
      </trkpt>
      <trkpt lat="57.286537997424603" lon="-6.02193902246654">
        <ele>30.899999999999999</ele>
        <time>2023-08-26T11:28:08Z</time>
      </trkpt>
      <trkpt lat="57.286587031558156" lon="-6.023135036230087">
        <ele>29.940000000000001</ele>
        <time>2023-08-26T11:28:12Z</time>
      </trkpt>
      <trkpt lat="57.286598011851311" lon="-6.023435024544597">
        <ele>29.460000000000001</ele>
        <time>2023-08-26T11:28:13Z</time>
      </trkpt>
      <trkpt lat="57.286560963839293" lon="-6.023716991767287">
        <ele>29.460000000000001</ele>
        <time>2023-08-26T11:28:14Z</time>
      </trkpt>
      <trkpt lat="57.286525005474687" lon="-6.023992002010346">
        <ele>28.98</ele>
        <time>2023-08-26T11:28:15Z</time>
      </trkpt>
      <trkpt lat="57.286482006311417" lon="-6.024272041395307">
        <ele>28.98</ele>
        <time>2023-08-26T11:28:16Z</time>
      </trkpt>
      <trkpt lat="57.286401959136128" lon="-6.024521989747882">
        <ele>28.5</ele>
        <time>2023-08-26T11:28:17Z</time>
      </trkpt>
      <trkpt lat="57.286319984123111" lon="-6.024777973070741">
        <ele>28.5</ele>
        <time>2023-08-26T11:28:18Z</time>
      </trkpt>
      <trkpt lat="57.286213031038642" lon="-6.025039991363883">
        <ele>28.5</ele>
        <time>2023-08-26T11:28:19Z</time>
      </trkpt>
      <trkpt lat="57.286101970821619" lon="-6.025310978293419">
        <ele>28.02</ele>
        <time>2023-08-26T11:28:20Z</time>
      </trkpt>
      <trkpt lat="57.285985965281725" lon="-6.025595040991902">
        <ele>28.02</ele>
        <time>2023-08-26T11:28:21Z</time>
      </trkpt>
      <trkpt lat="57.285142997279763" lon="-6.027939040213823">
        <ele>23.690000000000001</ele>
        <time>2023-08-26T11:28:28Z</time>
      </trkpt>
      <trkpt lat="57.283411966636777" lon="-6.033605961129069">
        <ele>18.879999999999999</ele>
        <time>2023-08-26T11:28:43Z</time>
      </trkpt>
      <trkpt lat="57.282103970646858" lon="-6.036617998033762">
        <ele>15.039999999999999</ele>
        <time>2023-08-26T11:28:52Z</time>
      </trkpt>
      <trkpt lat="57.280825981870294" lon="-6.03773295879364">
        <ele>13.6</ele>
        <time>2023-08-26T11:28:58Z</time>
      </trkpt>
      <trkpt lat="57.279652012512088" lon="-6.039052018895745">
        <ele>13.119999999999999</ele>
        <time>2023-08-26T11:29:04Z</time>
      </trkpt>
      <trkpt lat="57.278639981523156" lon="-6.040362026542425">
        <ele>12.630000000000001</ele>
        <time>2023-08-26T11:29:11Z</time>
      </trkpt>
      <trkpt lat="57.277418989688158" lon="-6.041498025879264">
        <ele>13.6</ele>
        <time>2023-08-26T11:29:21Z</time>
      </trkpt>
      <trkpt lat="57.276685992255807" lon="-6.042502010241151">
        <ele>12.630000000000001</ele>
        <time>2023-08-26T11:29:27Z</time>
      </trkpt>
      <trkpt lat="57.276581972837448" lon="-6.042708959430456">
        <ele>12.630000000000001</ele>
        <time>2023-08-26T11:29:28Z</time>
      </trkpt>
      <trkpt lat="57.276512989774346" lon="-6.042967960238457">
        <ele>12.15</ele>
        <time>2023-08-26T11:29:29Z</time>
      </trkpt>
      <trkpt lat="57.276452975347638" lon="-6.043250011280179">
        <ele>11.67</ele>
        <time>2023-08-26T11:29:30Z</time>
      </trkpt>
      <trkpt lat="57.276403019204736" lon="-6.043548993766308">
        <ele>11.67</ele>
        <time>2023-08-26T11:29:31Z</time>
      </trkpt>
      <trkpt lat="57.27639002725482" lon="-6.043857028707862">
        <ele>11.67</ele>
        <time>2023-08-26T11:29:32Z</time>
      </trkpt>
      <trkpt lat="57.276377035304904" lon="-6.044150982052088">
        <ele>11.67</ele>
        <time>2023-08-26T11:29:33Z</time>
      </trkpt>
      <trkpt lat="57.276363959535956" lon="-6.04443303309381">
        <ele>11.67</ele>
        <time>2023-08-26T11:29:34Z</time>
      </trkpt>
      <trkpt lat="57.2764359600842" lon="-6.046535968780518">
        <ele>16.48</ele>
        <time>2023-08-26T11:29:43Z</time>
      </trkpt>
      <trkpt lat="57.276449035853148" lon="-6.049338961020112">
        <ele>25.609999999999999</ele>
        <time>2023-08-26T11:29:52Z</time>
      </trkpt>
      <trkpt lat="57.275922987610102" lon="-6.051979009062052">
        <ele>30.899999999999999</ele>
        <time>2023-08-26T11:30:00Z</time>
      </trkpt>
      <trkpt lat="57.274648016318679" lon="-6.05534803122282">
        <ele>27.050000000000001</ele>
        <time>2023-08-26T11:30:11Z</time>
      </trkpt>
      <trkpt lat="57.273526014760137" lon="-6.058641029521823">
        <ele>28.02</ele>
        <time>2023-08-26T11:30:21Z</time>
      </trkpt>
      <trkpt lat="57.2721809707582" lon="-6.061588022857904">
        <ele>18.399999999999999</ele>
        <time>2023-08-26T11:30:31Z</time>
      </trkpt>
      <trkpt lat="57.270365031436086" lon="-6.064855959266424">
        <ele>10.710000000000001</ele>
        <time>2023-08-26T11:30:43Z</time>
      </trkpt>
      <trkpt lat="57.268574992194772" lon="-6.066969959065318">
        <ele>11.19</ele>
        <time>2023-08-26T11:30:53Z</time>
      </trkpt>
      <trkpt lat="57.267199018970132" lon="-6.068812971934676">
        <ele>12.15</ele>
        <time>2023-08-26T11:31:01Z</time>
      </trkpt>
      <trkpt lat="57.267073038965464" lon="-6.069102985784411">
        <ele>12.15</ele>
        <time>2023-08-26T11:31:02Z</time>
      </trkpt>
      <trkpt lat="57.26695996709168" lon="-6.069414038211107">
        <ele>12.630000000000001</ele>
        <time>2023-08-26T11:31:03Z</time>
      </trkpt>
      <trkpt lat="57.26687204092741" lon="-6.069734981283546">
        <ele>12.630000000000001</ele>
        <time>2023-08-26T11:31:04Z</time>
      </trkpt>
      <trkpt lat="57.266794005408883" lon="-6.070072017610073">
        <ele>12.630000000000001</ele>
        <time>2023-08-26T11:31:05Z</time>
      </trkpt>
      <trkpt lat="57.266708007082343" lon="-6.070439983159304">
        <ele>12.15</ele>
        <time>2023-08-26T11:31:06Z</time>
      </trkpt>
      <trkpt lat="57.266664002090693" lon="-6.070780958980322">
        <ele>12.15</ele>
        <time>2023-08-26T11:31:07Z</time>
      </trkpt>
      <trkpt lat="57.265974003821611" lon="-6.075319005176425">
        <ele>9.27</ele>
        <time>2023-08-26T11:31:19Z</time>
      </trkpt>
      <trkpt lat="57.264968007802963" lon="-6.079508028924465">
        <ele>16.960000000000001</ele>
        <time>2023-08-26T11:31:31Z</time>
      </trkpt>
      <trkpt lat="57.26414599455893" lon="-6.08169000595808">
        <ele>20.809999999999999</ele>
        <time>2023-08-26T11:31:39Z</time>
      </trkpt>
      <trkpt lat="57.263181991875172" lon="-6.084088990464807">
        <ele>19.359999999999999</ele>
        <time>2023-08-26T11:31:46Z</time>
      </trkpt>
      <trkpt lat="57.262398032471538" lon="-6.086180023849011">
        <ele>17.920000000000002</ele>
        <time>2023-08-26T11:31:53Z</time>
      </trkpt>
      <trkpt lat="57.262328965589404" lon="-6.086453022435308">
        <ele>18.399999999999999</ele>
        <time>2023-08-26T11:31:54Z</time>
      </trkpt>
      <trkpt lat="57.262273980304599" lon="-6.086728032678366">
        <ele>18.399999999999999</ele>
        <time>2023-08-26T11:31:55Z</time>
      </trkpt>
      <trkpt lat="57.262238021939993" lon="-6.08701896853745">
        <ele>18.879999999999999</ele>
        <time>2023-08-26T11:31:56Z</time>
      </trkpt>
      <trkpt lat="57.262202985584736" lon="-6.087300013750792">
        <ele>18.879999999999999</ele>
        <time>2023-08-26T11:31:57Z</time>
      </trkpt>
      <trkpt lat="57.262201979756355" lon="-6.087584998458624">
        <ele>19.359999999999999</ele>
        <time>2023-08-26T11:31:58Z</time>
      </trkpt>
      <trkpt lat="57.262203991413116" lon="-6.087878029793501">
        <ele>19.84</ele>
        <time>2023-08-26T11:31:59Z</time>
      </trkpt>
      <trkpt lat="57.262218995019794" lon="-6.088173994794488">
        <ele>19.84</ele>
        <time>2023-08-26T11:32:00Z</time>
      </trkpt>
      <trkpt lat="57.262264005839825" lon="-6.088446993380785">
        <ele>20.32</ele>
        <time>2023-08-26T11:32:01Z</time>
      </trkpt>
      <trkpt lat="57.262317985296249" lon="-6.088712029159069">
        <ele>20.32</ele>
        <time>2023-08-26T11:32:02Z</time>
      </trkpt>
      <trkpt lat="57.262370958924294" lon="-6.088968012481928">
        <ele>20.809999999999999</ele>
        <time>2023-08-26T11:32:03Z</time>
      </trkpt>
      <trkpt lat="57.262440025806427" lon="-6.089190971106291">
        <ele>21.289999999999999</ele>
        <time>2023-08-26T11:32:04Z</time>
      </trkpt>
      <trkpt lat="57.262528035789728" lon="-6.089393980801106">
        <ele>21.289999999999999</ele>
        <time>2023-08-26T11:32:05Z</time>
      </trkpt>
      <trkpt lat="57.262615961953998" lon="-6.089599002152681">
        <ele>21.77</ele>
        <time>2023-08-26T11:32:06Z</time>
      </trkpt>
      <trkpt lat="57.26270598359406" lon="-6.089807040989399">
        <ele>22.25</ele>
        <time>2023-08-26T11:32:07Z</time>
      </trkpt>
      <trkpt lat="57.262802962213755" lon="-6.090031005442143">
        <ele>22.25</ele>
        <time>2023-08-26T11:32:08Z</time>
      </trkpt>
      <trkpt lat="57.262916034087539" lon="-6.09019503928721">
        <ele>22.73</ele>
        <time>2023-08-26T11:32:09Z</time>
      </trkpt>
      <trkpt lat="57.263034973293543" lon="-6.090366030111909">
        <ele>23.210000000000001</ele>
        <time>2023-08-26T11:32:10Z</time>
      </trkpt>
      <trkpt lat="57.263150978833437" lon="-6.090532997623086">
        <ele>23.690000000000001</ele>
        <time>2023-08-26T11:32:11Z</time>
      </trkpt>
      <trkpt lat="57.263274025171995" lon="-6.090651014819741">
        <ele>23.690000000000001</ele>
        <time>2023-08-26T11:32:12Z</time>
      </trkpt>
      <trkpt lat="57.263400005176663" lon="-6.090743970125914">
        <ele>24.649999999999999</ele>
        <time>2023-08-26T11:32:13Z</time>
      </trkpt>
      <trkpt lat="57.26352003403008" lon="-6.090832985937595">
        <ele>25.129999999999999</ele>
        <time>2023-08-26T11:32:14Z</time>
      </trkpt>
      <trkpt lat="57.263635033741593" lon="-6.090900963172317">
        <ele>25.609999999999999</ele>
        <time>2023-08-26T11:32:15Z</time>
      </trkpt>
      <trkpt lat="57.263755984604359" lon="-6.090937005355954">
        <ele>26.09</ele>
        <time>2023-08-26T11:32:16Z</time>
      </trkpt>
      <trkpt lat="57.264304999262094" lon="-6.091039013117552">
        <ele>28.98</ele>
        <time>2023-08-26T11:32:20Z</time>
      </trkpt>
      <trkpt lat="57.264452017843723" lon="-6.090988973155618">
        <ele>29.940000000000001</ele>
        <time>2023-08-26T11:32:21Z</time>
      </trkpt>
      <trkpt lat="57.26569002494216" lon="-6.090554036200047">
        <ele>36.189999999999998</ele>
        <time>2023-08-26T11:32:27Z</time>
      </trkpt>
      <trkpt lat="57.267176974564791" lon="-6.089887004345655">
        <ele>45.799999999999997</ele>
        <time>2023-08-26T11:32:34Z</time>
      </trkpt>
      <trkpt lat="57.268582032993436" lon="-6.089075971394777">
        <ele>56.859999999999999</ele>
        <time>2023-08-26T11:32:42Z</time>
      </trkpt>
      <trkpt lat="57.268753023818135" lon="-6.089031966403127">
        <ele>58.299999999999997</ele>
        <time>2023-08-26T11:32:43Z</time>
      </trkpt>
      <trkpt lat="57.268920997157693" lon="-6.089012017473579">
        <ele>59.259999999999998</ele>
        <time>2023-08-26T11:32:44Z</time>
      </trkpt>
      <trkpt lat="57.269090982154012" lon="-6.089005982503295">
        <ele>60.700000000000003</ele>
        <time>2023-08-26T11:32:45Z</time>
      </trkpt>
      <trkpt lat="57.269256021827459" lon="-6.089047975838184">
        <ele>61.659999999999997</ele>
        <time>2023-08-26T11:32:46Z</time>
      </trkpt>
      <trkpt lat="57.269419971853495" lon="-6.089088041335344">
        <ele>63.100000000000001</ele>
        <time>2023-08-26T11:32:47Z</time>
      </trkpt>
      <trkpt lat="57.271485021337867" lon="-6.089729005470872">
        <ele>76.079999999999998</ele>
        <time>2023-08-26T11:32:59Z</time>
      </trkpt>
      <trkpt lat="57.27304195985198" lon="-6.090635005384684">
        <ele>85.689999999999998</ele>
        <time>2023-08-26T11:33:08Z</time>
      </trkpt>
      <trkpt lat="57.273892974480987" lon="-6.09178701415658">
        <ele>92.420000000000002</ele>
        <time>2023-08-26T11:33:15Z</time>
      </trkpt>
      <trkpt lat="57.273979978635907" lon="-6.091978959739208">
        <ele>93.390000000000001</ele>
        <time>2023-08-26T11:33:16Z</time>
      </trkpt>
      <trkpt lat="57.274066982790828" lon="-6.092170989140868">
        <ele>94.349999999999994</ele>
        <time>2023-08-26T11:33:17Z</time>
      </trkpt>
      <trkpt lat="57.274131020531058" lon="-6.092394031584263">
        <ele>95.310000000000002</ele>
        <time>2023-08-26T11:33:18Z</time>
      </trkpt>
      <trkpt lat="57.274186005815864" lon="-6.092627970501781">
        <ele>96.269999999999996</ele>
        <time>2023-08-26T11:33:19Z</time>
      </trkpt>
      <trkpt lat="57.274239985272288" lon="-6.092860987409949">
        <ele>97.230000000000004</ele>
        <time>2023-08-26T11:33:20Z</time>
      </trkpt>
      <trkpt lat="57.274276027455926" lon="-6.093101967126131">
        <ele>98.189999999999998</ele>
        <time>2023-08-26T11:33:21Z</time>
      </trkpt>
      <trkpt lat="57.274299999698997" lon="-6.093353005126119">
        <ele>99.150000000000006</ele>
        <time>2023-08-26T11:33:22Z</time>
      </trkpt>
      <trkpt lat="57.274323971942067" lon="-6.093602031469345">
        <ele>100.11</ele>
        <time>2023-08-26T11:33:23Z</time>
      </trkpt>
      <trkpt lat="57.274311985820532" lon="-6.093857008963823">
        <ele>101.08</ele>
        <time>2023-08-26T11:33:24Z</time>
      </trkpt>
      <trkpt lat="57.274296982213855" lon="-6.094115003943443">
        <ele>102.04000000000001</ele>
        <time>2023-08-26T11:33:25Z</time>
      </trkpt>
      <trkpt lat="57.274282984435558" lon="-6.09436503611505">
        <ele>103.48</ele>
        <time>2023-08-26T11:33:26Z</time>
      </trkpt>
      <trkpt lat="57.274239985272288" lon="-6.09462596476078">
        <ele>104.44</ele>
        <time>2023-08-26T11:33:27Z</time>
      </trkpt>
      <trkpt lat="57.274198997765779" lon="-6.094879014417529">
        <ele>105.40000000000001</ele>
        <time>2023-08-26T11:33:28Z</time>
      </trkpt>
      <trkpt lat="57.274158010259271" lon="-6.095134997740388">
        <ele>106.36</ele>
        <time>2023-08-26T11:33:29Z</time>
      </trkpt>
      <trkpt lat="57.273685019463301" lon="-6.097035007551312">
        <ele>111.65000000000001</ele>
        <time>2023-08-26T11:33:37Z</time>
      </trkpt>
      <trkpt lat="57.273650988936424" lon="-6.09726500697434">
        <ele>112.61</ele>
        <time>2023-08-26T11:33:38Z</time>
      </trkpt>
      <trkpt lat="57.273650988936424" lon="-6.097483020275831">
        <ele>113.56999999999999</ele>
        <time>2023-08-26T11:33:39Z</time>
      </trkpt>
      <trkpt lat="57.273671021685004" lon="-6.097712013870478">
        <ele>114.05</ele>
        <time>2023-08-26T11:33:40Z</time>
      </trkpt>
      <trkpt lat="57.273690970614552" lon="-6.097940001636744">
        <ele>115.01000000000001</ele>
        <time>2023-08-26T11:33:41Z</time>
      </trkpt>
      <trkpt lat="57.273730030283332" lon="-6.098153991624713">
        <ele>115.5</ele>
        <time>2023-08-26T11:33:42Z</time>
      </trkpt>
      <trkpt lat="57.273800019174814" lon="-6.098352978006005">
        <ele>116.45999999999999</ele>
        <time>2023-08-26T11:33:43Z</time>
      </trkpt>
      <trkpt lat="57.27387897670269" lon="-6.098540984094143">
        <ele>117.42</ele>
        <time>2023-08-26T11:33:44Z</time>
      </trkpt>
      <trkpt lat="57.273981990292668" lon="-6.098678028210998">
        <ele>117.90000000000001</ele>
        <time>2023-08-26T11:33:45Z</time>
      </trkpt>
      <trkpt lat="57.274100007489324" lon="-6.098795961588621">
        <ele>118.86</ele>
        <time>2023-08-26T11:33:46Z</time>
      </trkpt>
      <trkpt lat="57.274224981665611" lon="-6.098857987672091">
        <ele>119.81999999999999</ele>
        <time>2023-08-26T11:33:47Z</time>
      </trkpt>
      <trkpt lat="57.274363031610847" lon="-6.098872991278768">
        <ele>120.3</ele>
        <time>2023-08-26T11:33:48Z</time>
      </trkpt>
      <trkpt lat="57.274505021050572" lon="-6.098889000713825">
        <ele>121.26000000000001</ele>
        <time>2023-08-26T11:33:49Z</time>
      </trkpt>
      <trkpt lat="57.274638963863254" lon="-6.09883401542902">
        <ele>122.22</ele>
        <time>2023-08-26T11:33:50Z</time>
      </trkpt>
      <trkpt lat="57.274782964959741" lon="-6.098747011274099">
        <ele>123.19</ele>
        <time>2023-08-26T11:33:51Z</time>
      </trkpt>
      <trkpt lat="57.274924032390118" lon="-6.098642991855741">
        <ele>124.15000000000001</ele>
        <time>2023-08-26T11:33:52Z</time>
      </trkpt>
      <trkpt lat="57.275068033486605" lon="-6.098510976880789">
        <ele>124.63</ele>
        <time>2023-08-26T11:33:53Z</time>
      </trkpt>
      <trkpt lat="57.276128008961678" lon="-6.097536999732256">
        <ele>129.43000000000001</ele>
        <time>2023-08-26T11:33:59Z</time>
      </trkpt>
      <trkpt lat="57.277504988014698" lon="-6.096268985420466">
        <ele>133.75999999999999</ele>
        <time>2023-08-26T11:34:06Z</time>
      </trkpt>
      <trkpt lat="57.279578000307083" lon="-6.094882031902671">
        <ele>139.53</ele>
        <time>2023-08-26T11:34:18Z</time>
      </trkpt>
      <trkpt lat="57.281686970964074" lon="-6.094290018081665">
        <ele>136.63999999999999</ele>
        <time>2023-08-26T11:34:29Z</time>
      </trkpt>
      <trkpt lat="57.283210968598723" lon="-6.093908976763487">
        <ele>129.91999999999999</ele>
        <time>2023-08-26T11:34:35Z</time>
      </trkpt>
      <trkpt lat="57.285139979794621" lon="-6.093798000365496">
        <ele>119.34</ele>
        <time>2023-08-26T11:34:43Z</time>
      </trkpt>
      <trkpt lat="57.286934964358807" lon="-6.093925992026925">
        <ele>108.29000000000001</ele>
        <time>2023-08-26T11:34:51Z</time>
      </trkpt>
      <trkpt lat="57.288072975352407" lon="-6.093418970704079">
        <ele>99.629999999999995</ele>
        <time>2023-08-26T11:34:57Z</time>
      </trkpt>
      <trkpt lat="57.289367979392409" lon="-6.091874018311501">
        <ele>89.540000000000006</ele>
        <time>2023-08-26T11:35:05Z</time>
      </trkpt>
      <trkpt lat="57.290813019499183" lon="-6.090708011761308">
        <ele>79.450000000000003</ele>
        <time>2023-08-26T11:35:13Z</time>
      </trkpt>
      <trkpt lat="57.291929991915822" lon="-6.089800000190735">
        <ele>72.239999999999995</ele>
        <time>2023-08-26T11:35:18Z</time>
      </trkpt>
      <trkpt lat="57.293507969006896" lon="-6.088223028928042">
        <ele>63.100000000000001</ele>
        <time>2023-08-26T11:35:25Z</time>
      </trkpt>
      <trkpt lat="57.293928992003202" lon="-6.087953969836235">
        <ele>60.700000000000003</ele>
        <time>2023-08-26T11:35:27Z</time>
      </trkpt>
      <trkpt lat="57.294141976162791" lon="-6.08785699121654">
        <ele>59.740000000000002</ele>
        <time>2023-08-26T11:35:28Z</time>
      </trkpt>
      <trkpt lat="57.294362001121044" lon="-6.087805023416877">
        <ele>58.299999999999997</ele>
        <time>2023-08-26T11:35:29Z</time>
      </trkpt>
      <trkpt lat="57.29611599817872" lon="-6.087507968768477">
        <ele>48.68</ele>
        <time>2023-08-26T11:35:36Z</time>
      </trkpt>
      <trkpt lat="57.297477973625064" lon="-6.087906025350094">
        <ele>40.030000000000001</ele>
        <time>2023-08-26T11:35:42Z</time>
      </trkpt>
      <trkpt lat="57.299091992899776" lon="-6.089246040210128">
        <ele>30.899999999999999</ele>
        <time>2023-08-26T11:35:50Z</time>
      </trkpt>
      <trkpt lat="57.300937017425895" lon="-6.089847022667527">
        <ele>27.530000000000001</ele>
        <time>2023-08-26T11:35:58Z</time>
      </trkpt>
      <trkpt lat="57.304295981302857" lon="-6.090761991217732">
        <ele>24.649999999999999</ele>
        <time>2023-08-26T11:36:13Z</time>
      </trkpt>
      <trkpt lat="57.306623971089721" lon="-6.091814003884792">
        <ele>29.940000000000001</ele>
        <time>2023-08-26T11:36:24Z</time>
      </trkpt>
      <trkpt lat="57.308445023372769" lon="-6.093500023707748">
        <ele>29.940000000000001</ele>
        <time>2023-08-26T11:36:33Z</time>
      </trkpt>
      <trkpt lat="57.310132971033454" lon="-6.095894984900951">
        <ele>27.530000000000001</ele>
        <time>2023-08-26T11:36:43Z</time>
      </trkpt>
      <trkpt lat="57.311195963993669" lon="-6.097527025267482">
        <ele>25.609999999999999</ele>
        <time>2023-08-26T11:36:51Z</time>
      </trkpt>
      <trkpt lat="57.313080970197916" lon="-6.100329011678696">
        <ele>18.399999999999999</ele>
        <time>2023-08-26T11:37:05Z</time>
      </trkpt>
      <trkpt lat="57.313976995646954" lon="-6.10229498706758">
        <ele>14.56</ele>
        <time>2023-08-26T11:37:14Z</time>
      </trkpt>
      <trkpt lat="57.314178999513388" lon="-6.103479014709592">
        <ele>11.67</ele>
        <time>2023-08-26T11:37:18Z</time>
      </trkpt>
      <trkpt lat="57.314198026433587" lon="-6.103802975267172">
        <ele>10.710000000000001</ele>
        <time>2023-08-26T11:37:19Z</time>
      </trkpt>
      <trkpt lat="57.314203977584839" lon="-6.104131964966655">
        <ele>9.75</ele>
        <time>2023-08-26T11:37:20Z</time>
      </trkpt>
      <trkpt lat="57.314211018383503" lon="-6.104461038485169">
        <ele>8.789999999999999</ele>
        <time>2023-08-26T11:37:21Z</time>
      </trkpt>
      <trkpt lat="57.314204983413219" lon="-6.10480603761971">
        <ele>8.310000000000001</ele>
        <time>2023-08-26T11:37:22Z</time>
      </trkpt>
      <trkpt lat="57.314170030876994" lon="-6.105133015662432">
        <ele>7.83</ele>
        <time>2023-08-26T11:37:23Z</time>
      </trkpt>
      <trkpt lat="57.314133988693357" lon="-6.105462005361915">
        <ele>7.35</ele>
        <time>2023-08-26T11:37:24Z</time>
      </trkpt>
      <trkpt lat="57.313769962638617" lon="-6.10845903865993">
        <ele>6.87</ele>
        <time>2023-08-26T11:37:34Z</time>
      </trkpt>
      <trkpt lat="57.313350029289722" lon="-6.110797002911568">
        <ele>7.83</ele>
        <time>2023-08-26T11:37:43Z</time>
      </trkpt>
      <trkpt lat="57.313033025711775" lon="-6.113190036267042">
        <ele>6.39</ele>
        <time>2023-08-26T11:37:52Z</time>
      </trkpt>
      <trkpt lat="57.313047023490071" lon="-6.116271978244185">
        <ele>8.789999999999999</ele>
        <time>2023-08-26T11:38:01Z</time>
      </trkpt>
      <trkpt lat="57.31293797492981" lon="-6.118142986670137">
        <ele>16</ele>
        <time>2023-08-26T11:38:07Z</time>
      </trkpt>
      <trkpt lat="57.312391977757215" lon="-6.120177023112774">
        <ele>24.649999999999999</ele>
        <time>2023-08-26T11:38:14Z</time>
      </trkpt>
      <trkpt lat="57.31128397397697" lon="-6.122393030673266">
        <ele>28.98</ele>
        <time>2023-08-26T11:38:22Z</time>
      </trkpt>
      <trkpt lat="57.309943959116936" lon="-6.125256959348917">
        <ele>29.940000000000001</ele>
        <time>2023-08-26T11:38:32Z</time>
      </trkpt>
      <trkpt lat="57.308821035549045" lon="-6.127843027934432">
        <ele>31.379999999999999</ele>
        <time>2023-08-26T11:38:41Z</time>
      </trkpt>
      <trkpt lat="57.307827025651932" lon="-6.129651004448533">
        <ele>32.82</ele>
        <time>2023-08-26T11:38:49Z</time>
      </trkpt>
      <trkpt lat="57.306114016100764" lon="-6.132085025310516">
        <ele>33.780000000000001</ele>
        <time>2023-08-26T11:39:00Z</time>
      </trkpt>
      <trkpt lat="57.304483987390995" lon="-6.135216001421213">
        <ele>32.82</ele>
        <time>2023-08-26T11:39:12Z</time>
      </trkpt>
      <trkpt lat="57.303862972185016" lon="-6.136574959382415">
        <ele>33.299999999999997</ele>
        <time>2023-08-26T11:39:20Z</time>
      </trkpt>
      <trkpt lat="57.303620986640453" lon="-6.137316003441811">
        <ele>32.340000000000003</ele>
        <time>2023-08-26T11:39:29Z</time>
      </trkpt>
      <trkpt lat="57.303554015234113" lon="-6.137561006471515">
        <ele>31.379999999999999</ele>
        <time>2023-08-26T11:39:40Z</time>
      </trkpt>
      <trkpt lat="57.303540017455816" lon="-6.137613980099559">
        <ele>31.859999999999999</ele>
        <time>2023-08-26T11:39:42Z</time>
      </trkpt>
      <trkpt lat="57.3035270255059" lon="-6.137661002576351">
        <ele>31.379999999999999</ele>
        <time>2023-08-26T11:39:43Z</time>
      </trkpt>
      <trkpt lat="57.303510010242462" lon="-6.137725040316582">
        <ele>31.379999999999999</ele>
        <time>2023-08-26T11:39:44Z</time>
      </trkpt>
      <trkpt lat="57.303427029401064" lon="-6.138121001422405">
        <ele>31.859999999999999</ele>
        <time>2023-08-26T11:39:53Z</time>
      </trkpt>
      <trkpt lat="57.30329099111259" lon="-6.138772023841739">
        <ele>32.82</ele>
        <time>2023-08-26T11:40:06Z</time>
      </trkpt>
      <trkpt lat="57.303207004442811" lon="-6.139177959412336">
        <ele>34.740000000000002</ele>
        <time>2023-08-26T11:40:18Z</time>
      </trkpt>
      <trkpt lat="57.303102985024452" lon="-6.139680035412312">
        <ele>36.189999999999998</ele>
        <time>2023-08-26T11:40:27Z</time>
      </trkpt>
      <trkpt lat="57.302766032516956" lon="-6.141295982524753">
        <ele>38.109999999999999</ele>
        <time>2023-08-26T11:40:36Z</time>
      </trkpt>
      <trkpt lat="57.302110986784101" lon="-6.143035981804133">
        <ele>35.229999999999997</ele>
        <time>2023-08-26T11:40:44Z</time>
      </trkpt>
      <trkpt lat="57.301139021292329" lon="-6.144540030509234">
        <ele>29.460000000000001</ele>
        <time>2023-08-26T11:40:50Z</time>
      </trkpt>
      <trkpt lat="57.299410002306104" lon="-6.147255012765527">
        <ele>25.129999999999999</ele>
        <time>2023-08-26T11:41:00Z</time>
      </trkpt>
      <trkpt lat="57.298756968230009" lon="-6.149149993434548">
        <ele>23.210000000000001</ele>
        <time>2023-08-26T11:41:06Z</time>
      </trkpt>
      <trkpt lat="57.298179036006331" lon="-6.151651991531253">
        <ele>20.809999999999999</ele>
        <time>2023-08-26T11:41:14Z</time>
      </trkpt>
      <trkpt lat="57.297471016645432" lon="-6.153713017702103">
        <ele>19.359999999999999</ele>
        <time>2023-08-26T11:41:20Z</time>
      </trkpt>
      <trkpt lat="57.297016968950629" lon="-6.155023025348783">
        <ele>17.920000000000002</ele>
        <time>2023-08-26T11:41:25Z</time>
      </trkpt>
      <trkpt lat="57.296539032831788" lon="-6.156780039891601">
        <ele>16.48</ele>
        <time>2023-08-26T11:41:34Z</time>
      </trkpt>
      <trkpt lat="57.296453034505248" lon="-6.158745009452105">
        <ele>16</ele>
        <time>2023-08-26T11:41:42Z</time>
      </trkpt>
      <trkpt lat="57.296342980116606" lon="-6.161229992285371">
        <ele>15.52</ele>
        <time>2023-08-26T11:41:52Z</time>
      </trkpt>
      <trkpt lat="57.295864038169384" lon="-6.162791959941387">
        <ele>14.08</ele>
        <time>2023-08-26T11:42:00Z</time>
      </trkpt>
      <trkpt lat="57.295030960813165" lon="-6.164155025035143">
        <ele>13.119999999999999</ele>
        <time>2023-08-26T11:42:07Z</time>
      </trkpt>
      <trkpt lat="57.293677031993866" lon="-6.166011029854417">
        <ele>13.6</ele>
        <time>2023-08-26T11:42:15Z</time>
      </trkpt>
      <trkpt lat="57.292976975440979" lon="-6.167268985882402">
        <ele>14.56</ele>
        <time>2023-08-26T11:42:21Z</time>
      </trkpt>
      <trkpt lat="57.291995035484433" lon="-6.168849980458617">
        <ele>14.08</ele>
        <time>2023-08-26T11:42:30Z</time>
      </trkpt>
      <trkpt lat="57.290759040042758" lon="-6.170793995261192">
        <ele>14.56</ele>
        <time>2023-08-26T11:42:38Z</time>
      </trkpt>
      <trkpt lat="57.290539015084505" lon="-6.171288024634123">
        <ele>14.56</ele>
        <time>2023-08-26T11:42:40Z</time>
      </trkpt>
      <trkpt lat="57.29044497013092" lon="-6.171519029885531">
        <ele>15.039999999999999</ele>
        <time>2023-08-26T11:42:41Z</time>
      </trkpt>
      <trkpt lat="57.290366012603045" lon="-6.171782976016402">
        <ele>15.039999999999999</ele>
        <time>2023-08-26T11:42:42Z</time>
      </trkpt>
      <trkpt lat="57.290308009833097" lon="-6.172068966552615">
        <ele>15.52</ele>
        <time>2023-08-26T11:42:43Z</time>
      </trkpt>
      <trkpt lat="57.290268028154969" lon="-6.172348000109196">
        <ele>15.52</ele>
        <time>2023-08-26T11:42:44Z</time>
      </trkpt>
      <trkpt lat="57.290242966264486" lon="-6.172614963725209">
        <ele>15.52</ele>
        <time>2023-08-26T11:42:45Z</time>
      </trkpt>
      <trkpt lat="57.290233997628093" lon="-6.172881005331874">
        <ele>15.52</ele>
        <time>2023-08-26T11:42:46Z</time>
      </trkpt>
      <trkpt lat="57.29022603482008" lon="-6.173135982826352">
        <ele>16</ele>
        <time>2023-08-26T11:42:47Z</time>
      </trkpt>
      <trkpt lat="57.290242966264486" lon="-6.173420967534185">
        <ele>16</ele>
        <time>2023-08-26T11:42:48Z</time>
      </trkpt>
      <trkpt lat="57.290260987356305" lon="-6.173697989434004">
        <ele>16</ele>
        <time>2023-08-26T11:42:49Z</time>
      </trkpt>
      <trkpt lat="57.290300969034433" lon="-6.173965036869049">
        <ele>16</ele>
        <time>2023-08-26T11:42:50Z</time>
      </trkpt>
      <trkpt lat="57.290361989289522" lon="-6.17422697134316">
        <ele>16.48</ele>
        <time>2023-08-26T11:42:51Z</time>
      </trkpt>
      <trkpt lat="57.290423009544611" lon="-6.174494018778205">
        <ele>16.48</ele>
        <time>2023-08-26T11:42:52Z</time>
      </trkpt>
      <trkpt lat="57.290486041456461" lon="-6.17476399987936">
        <ele>16.48</ele>
        <time>2023-08-26T11:42:53Z</time>
      </trkpt>
      <trkpt lat="57.290562987327576" lon="-6.175032975152135">
        <ele>16.960000000000001</ele>
        <time>2023-08-26T11:42:54Z</time>
      </trkpt>
      <trkpt lat="57.290661977604032" lon="-6.175284013152123">
        <ele>17.440000000000001</ele>
        <time>2023-08-26T11:42:55Z</time>
      </trkpt>
      <trkpt lat="57.291915994137526" lon="-6.177813000977039">
        <ele>21.289999999999999</ele>
        <time>2023-08-26T11:43:05Z</time>
      </trkpt>
      <trkpt lat="57.292253030464053" lon="-6.178213991224766">
        <ele>22.73</ele>
        <time>2023-08-26T11:43:07Z</time>
      </trkpt>
      <trkpt lat="57.292430978268385" lon="-6.178378025069833">
        <ele>23.690000000000001</ele>
        <time>2023-08-26T11:43:08Z</time>
      </trkpt>
      <trkpt lat="57.292624013498425" lon="-6.178495036438108">
        <ele>25.129999999999999</ele>
        <time>2023-08-26T11:43:09Z</time>
      </trkpt>
      <trkpt lat="57.295171022415161" lon="-6.180137973278761">
        <ele>40.030000000000001</ele>
        <time>2023-08-26T11:43:22Z</time>
      </trkpt>
      <trkpt lat="57.296100994572043" lon="-6.180819002911449">
        <ele>45.32</ele>
        <time>2023-08-26T11:43:27Z</time>
      </trkpt>
      <trkpt lat="57.296281037852168" lon="-6.180952023714781">
        <ele>46.759999999999998</ele>
        <time>2023-08-26T11:43:28Z</time>
      </trkpt>
      <trkpt lat="57.29643702507019" lon="-6.181162996217609">
        <ele>47.719999999999999</ele>
        <time>2023-08-26T11:43:29Z</time>
      </trkpt>
      <trkpt lat="57.297057034447789" lon="-6.181977968662977">
        <ele>52.049999999999997</ele>
        <time>2023-08-26T11:43:33Z</time>
      </trkpt>
      <trkpt lat="57.29723003692925" lon="-6.182117024436593">
        <ele>53.009999999999998</ele>
        <time>2023-08-26T11:43:34Z</time>
      </trkpt>
      <trkpt lat="57.297416031360626" lon="-6.182194976136088">
        <ele>53.969999999999999</ele>
        <time>2023-08-26T11:43:35Z</time>
      </trkpt>
      <trkpt lat="57.297604959458113" lon="-6.182267982512713">
        <ele>54.93</ele>
        <time>2023-08-26T11:43:36Z</time>
      </trkpt>
      <trkpt lat="57.297796988859773" lon="-6.182343000546098">
        <ele>55.890000000000001</ele>
        <time>2023-08-26T11:43:37Z</time>
      </trkpt>
      <trkpt lat="57.29918503202498" lon="-6.182866031304002">
        <ele>63.100000000000001</ele>
        <time>2023-08-26T11:43:44Z</time>
      </trkpt>
      <trkpt lat="57.29935996234417" lon="-6.183019001036882">
        <ele>64.069999999999993</ele>
        <time>2023-08-26T11:43:45Z</time>
      </trkpt>
      <trkpt lat="57.300871973857284" lon="-6.184579962864518">
        <ele>74.640000000000001</ele>
        <time>2023-08-26T11:43:54Z</time>
      </trkpt>
      <trkpt lat="57.302780030295253" lon="-6.186598995700479">
        <ele>79.450000000000003</ele>
        <time>2023-08-26T11:44:05Z</time>
      </trkpt>
      <trkpt lat="57.304764026775956" lon="-6.187541959807277">
        <ele>84.25</ele>
        <time>2023-08-26T11:44:15Z</time>
      </trkpt>
      <trkpt lat="57.30619297362864" lon="-6.188183007761836">
        <ele>88.579999999999998</ele>
        <time>2023-08-26T11:44:23Z</time>
      </trkpt>
      <trkpt lat="57.307626027613878" lon="-6.189138041809201">
        <ele>92.420000000000002</ele>
        <time>2023-08-26T11:44:31Z</time>
      </trkpt>
      <trkpt lat="57.308902004733682" lon="-6.190406978130341">
        <ele>99.629999999999995</ele>
        <time>2023-08-26T11:44:38Z</time>
      </trkpt>
      <trkpt lat="57.309043994173408" lon="-6.190654998645186">
        <ele>100.59999999999999</ele>
        <time>2023-08-26T11:44:39Z</time>
      </trkpt>
      <trkpt lat="57.309167962521315" lon="-6.190930008888245">
        <ele>101.56</ele>
        <time>2023-08-26T11:44:40Z</time>
      </trkpt>
      <trkpt lat="57.309268964454532" lon="-6.191228991374373">
        <ele>102.52</ele>
        <time>2023-08-26T11:44:41Z</time>
      </trkpt>
      <trkpt lat="57.309363009408116" lon="-6.191527973860502">
        <ele>103.48</ele>
        <time>2023-08-26T11:44:42Z</time>
      </trkpt>
      <trkpt lat="57.30973700992763" lon="-6.19272499345243">
        <ele>104.44</ele>
        <time>2023-08-26T11:44:46Z</time>
      </trkpt>
      <trkpt lat="57.309828037396073" lon="-6.193019030615687">
        <ele>104.44</ele>
        <time>2023-08-26T11:44:47Z</time>
      </trkpt>
      <trkpt lat="57.309970026835799" lon="-6.193242995068431">
        <ele>104.44</ele>
        <time>2023-08-26T11:44:48Z</time>
      </trkpt>
      <trkpt lat="57.310116961598396" lon="-6.193457990884781">
        <ele>104.44</ele>
        <time>2023-08-26T11:44:49Z</time>
      </trkpt>
      <trkpt lat="57.310266997665167" lon="-6.193680027499795">
        <ele>104.44</ele>
        <time>2023-08-26T11:44:50Z</time>
      </trkpt>
      <trkpt lat="57.312104981392622" lon="-6.196299958974123">
        <ele>104.92</ele>
        <time>2023-08-26T11:45:01Z</time>
      </trkpt>
      <trkpt lat="57.314168019220233" lon="-6.199026005342603">
        <ele>109.25</ele>
        <time>2023-08-26T11:45:13Z</time>
      </trkpt>
      <trkpt lat="57.316256035119295" lon="-6.201066998764873">
        <ele>112.61</ele>
        <time>2023-08-26T11:45:24Z</time>
      </trkpt>
      <trkpt lat="57.318661976605654" lon="-6.203250987455249">
        <ele>113.56999999999999</ele>
        <time>2023-08-26T11:45:36Z</time>
      </trkpt>
      <trkpt lat="57.3200480081141" lon="-6.204510033130646">
        <ele>115.01000000000001</ele>
        <time>2023-08-26T11:45:43Z</time>
      </trkpt>
      <trkpt lat="57.32075703330338" lon="-6.205053012818098">
        <ele>116.45999999999999</ele>
        <time>2023-08-26T11:45:47Z</time>
      </trkpt>
      <trkpt lat="57.320918971672654" lon="-6.205102968961">
        <ele>116.45999999999999</ele>
        <time>2023-08-26T11:45:48Z</time>
      </trkpt>
      <trkpt lat="57.321095997467637" lon="-6.205084025859833">
        <ele>116.94</ele>
        <time>2023-08-26T11:45:49Z</time>
      </trkpt>
      <trkpt lat="57.321280986070633" lon="-6.205064998939633">
        <ele>117.42</ele>
        <time>2023-08-26T11:45:50Z</time>
      </trkpt>
      <trkpt lat="57.321474021300673" lon="-6.205043960362673">
        <ele>117.42</ele>
        <time>2023-08-26T11:45:51Z</time>
      </trkpt>
      <trkpt lat="57.323536975309253" lon="-6.204728968441486">
        <ele>115.98</ele>
        <time>2023-08-26T11:46:01Z</time>
      </trkpt>
      <trkpt lat="57.325060972943902" lon="-6.203989014029503">
        <ele>113.56999999999999</ele>
        <time>2023-08-26T11:46:08Z</time>
      </trkpt>
      <trkpt lat="57.327584009617567" lon="-6.202853014692664">
        <ele>109.73</ele>
        <time>2023-08-26T11:46:19Z</time>
      </trkpt>
      <trkpt lat="57.327797999605536" lon="-6.202816972509027">
        <ele>109.73</ele>
        <time>2023-08-26T11:46:20Z</time>
      </trkpt>
      <trkpt lat="57.328015007078648" lon="-6.202860977500677">
        <ele>109.73</ele>
        <time>2023-08-26T11:46:21Z</time>
      </trkpt>
      <trkpt lat="57.328863004222512" lon="-6.202927026897669">
        <ele>108.77</ele>
        <time>2023-08-26T11:46:25Z</time>
      </trkpt>
      <trkpt lat="57.329078000038862" lon="-6.202905988320708">
        <ele>108.29000000000001</ele>
        <time>2023-08-26T11:46:26Z</time>
      </trkpt>
      <trkpt lat="57.329290984198451" lon="-6.202812027186155">
        <ele>107.81</ele>
        <time>2023-08-26T11:46:27Z</time>
      </trkpt>
      <trkpt lat="57.329500028863549" lon="-6.202684035524726">
        <ele>107.31999999999999</ele>
        <time>2023-08-26T11:46:28Z</time>
      </trkpt>
      <trkpt lat="57.329702032729983" lon="-6.202520001679659">
        <ele>106.84</ele>
        <time>2023-08-26T11:46:29Z</time>
      </trkpt>
      <trkpt lat="57.332232026383281" lon="-6.200260994955897">
        <ele>102.52</ele>
        <time>2023-08-26T11:46:41Z</time>
      </trkpt>
      <trkpt lat="57.334045032039285" lon="-6.198647981509566">
        <ele>104.44</ele>
        <time>2023-08-26T11:46:50Z</time>
      </trkpt>
      <trkpt lat="57.334862016141415" lon="-6.198319997638464">
        <ele>104.44</ele>
        <time>2023-08-26T11:46:54Z</time>
      </trkpt>
      <trkpt lat="57.33506896533072" lon="-6.198318991810083">
        <ele>104.44</ele>
        <time>2023-08-26T11:46:55Z</time>
      </trkpt>
      <trkpt lat="57.335278009995818" lon="-6.198344975709915">
        <ele>103.95999999999999</ele>
        <time>2023-08-26T11:46:56Z</time>
      </trkpt>
      <trkpt lat="57.337381029501557" lon="-6.199035979807377">
        <ele>101.08</ele>
        <time>2023-08-26T11:47:06Z</time>
      </trkpt>
      <trkpt lat="57.339885961264372" lon="-6.198943024501205">
        <ele>94.829999999999998</ele>
        <time>2023-08-26T11:47:17Z</time>
      </trkpt>
      <trkpt lat="57.341561000794172" lon="-6.198312034830451">
        <ele>91.459999999999994</ele>
        <time>2023-08-26T11:47:25Z</time>
      </trkpt>
      <trkpt lat="57.343581039458513" lon="-6.197333028540015">
        <ele>82.810000000000002</ele>
        <time>2023-08-26T11:47:35Z</time>
      </trkpt>
      <trkpt lat="57.34376703388989" lon="-6.19732397608459">
        <ele>82.810000000000002</ele>
        <time>2023-08-26T11:47:36Z</time>
      </trkpt>
      <trkpt lat="57.343954034149647" lon="-6.197374016046524">
        <ele>82.329999999999998</ele>
        <time>2023-08-26T11:47:37Z</time>
      </trkpt>
      <trkpt lat="57.344129970297217" lon="-6.197464959695935">
        <ele>81.849999999999994</ele>
        <time>2023-08-26T11:47:38Z</time>
      </trkpt>
      <trkpt lat="57.3443069960922" lon="-6.197557998821139">
        <ele>81.849999999999994</ele>
        <time>2023-08-26T11:47:39Z</time>
      </trkpt>
      <trkpt lat="57.344846036285162" lon="-6.197680961340666">
        <ele>82.329999999999998</ele>
        <time>2023-08-26T11:47:42Z</time>
      </trkpt>
      <trkpt lat="57.345031024888158" lon="-6.197623964399099">
        <ele>82.810000000000002</ele>
        <time>2023-08-26T11:47:43Z</time>
      </trkpt>
      <trkpt lat="57.346869008615613" lon="-6.196921980008483">
        <ele>82.329999999999998</ele>
        <time>2023-08-26T11:47:52Z</time>
      </trkpt>
      <trkpt lat="57.348240958526731" lon="-6.196840004995465">
        <ele>81.849999999999994</ele>
        <time>2023-08-26T11:47:58Z</time>
      </trkpt>
      <trkpt lat="57.349708965048194" lon="-6.196806980296969">
        <ele>79.450000000000003</ele>
        <time>2023-08-26T11:48:05Z</time>
      </trkpt>
      <trkpt lat="57.349869981408119" lon="-6.196710001677275">
        <ele>78.969999999999999</ele>
        <time>2023-08-26T11:48:06Z</time>
      </trkpt>
      <trkpt lat="57.350025968626142" lon="-6.196604976430535">
        <ele>78</ele>
        <time>2023-08-26T11:48:07Z</time>
      </trkpt>
      <trkpt lat="57.350179022178054" lon="-6.19648402556777">
        <ele>77.519999999999996</ele>
        <time>2023-08-26T11:48:08Z</time>
      </trkpt>
      <trkpt lat="57.350327968597412" lon="-6.196365002542734">
        <ele>76.560000000000002</ele>
        <time>2023-08-26T11:48:09Z</time>
      </trkpt>
      <trkpt lat="57.350612031295896" lon="-6.196154030039907">
        <ele>75.120000000000005</ele>
        <time>2023-08-26T11:48:11Z</time>
      </trkpt>
      <trkpt lat="57.350756032392383" lon="-6.196117987856269">
        <ele>74.159999999999997</ele>
        <time>2023-08-26T11:48:12Z</time>
      </trkpt>
      <trkpt lat="57.350897016003728" lon="-6.196152018383145">
        <ele>72.719999999999999</ele>
        <time>2023-08-26T11:48:13Z</time>
      </trkpt>
      <trkpt lat="57.351044034585357" lon="-6.196189988404512">
        <ele>71.760000000000005</ele>
        <time>2023-08-26T11:48:14Z</time>
      </trkpt>
      <trkpt lat="57.35120496712625" lon="-6.196229970082641">
        <ele>70.790000000000006</ele>
        <time>2023-08-26T11:48:15Z</time>
      </trkpt>
      <trkpt lat="57.353041023015976" lon="-6.196692986413837">
        <ele>66.950000000000003</ele>
        <time>2023-08-26T11:48:25Z</time>
      </trkpt>
      <trkpt lat="57.353586014360189" lon="-6.196961039677262">
        <ele>65.989999999999995</ele>
        <time>2023-08-26T11:48:28Z</time>
      </trkpt>
      <trkpt lat="57.354176016524434" lon="-6.19734400883317">
        <ele>65.989999999999995</ele>
        <time>2023-08-26T11:48:32Z</time>
      </trkpt>
      <trkpt lat="57.354308031499386" lon="-6.197402011603117">
        <ele>65.989999999999995</ele>
        <time>2023-08-26T11:48:33Z</time>
      </trkpt>
      <trkpt lat="57.354442980140448" lon="-6.197405029088259">
        <ele>65.989999999999995</ele>
        <time>2023-08-26T11:48:34Z</time>
      </trkpt>
      <trkpt lat="57.354591004550457" lon="-6.197365969419479">
        <ele>65.989999999999995</ele>
        <time>2023-08-26T11:48:35Z</time>
      </trkpt>
      <trkpt lat="57.354764007031918" lon="-6.197277959436178">
        <ele>65.989999999999995</ele>
        <time>2023-08-26T11:48:36Z</time>
      </trkpt>
      <trkpt lat="57.354959975928068" lon="-6.197124989703298">
        <ele>65.989999999999995</ele>
        <time>2023-08-26T11:48:37Z</time>
      </trkpt>
      <trkpt lat="57.355367001146078" lon="-6.196872023865581">
        <ele>65.510000000000005</ele>
        <time>2023-08-26T11:48:39Z</time>
      </trkpt>
      <trkpt lat="57.355576967820525" lon="-6.19680798612535">
        <ele>65.030000000000001</ele>
        <time>2023-08-26T11:48:40Z</time>
      </trkpt>
      <trkpt lat="57.355797998607159" lon="-6.196826007217169">
        <ele>65.030000000000001</ele>
        <time>2023-08-26T11:48:41Z</time>
      </trkpt>
      <trkpt lat="57.357801022008061" lon="-6.197010995820165">
        <ele>62.140000000000001</ele>
        <time>2023-08-26T11:48:49Z</time>
      </trkpt>
      <trkpt lat="57.358871977776289" lon="-6.197479963302612">
        <ele>59.740000000000002</ele>
        <time>2023-08-26T11:48:54Z</time>
      </trkpt>
      <trkpt lat="57.35906501300633" lon="-6.197573002427816">
        <ele>59.259999999999998</ele>
        <time>2023-08-26T11:48:55Z</time>
      </trkpt>
      <trkpt lat="57.359261987730861" lon="-6.197625976055861">
        <ele>58.780000000000001</ele>
        <time>2023-08-26T11:48:56Z</time>
      </trkpt>
      <trkpt lat="57.359463991597295" lon="-6.19762203656137">
        <ele>58.299999999999997</ele>
        <time>2023-08-26T11:48:57Z</time>
      </trkpt>
      <trkpt lat="57.361025037243962" lon="-6.197162959724665">
        <ele>53.490000000000002</ele>
        <time>2023-08-26T11:49:04Z</time>
      </trkpt>
      <trkpt lat="57.362981038168073" lon="-6.195805007591844">
        <ele>52.049999999999997</ele>
        <time>2023-08-26T11:49:13Z</time>
      </trkpt>
      <trkpt lat="57.363397032022476" lon="-6.195396976545453">
        <ele>51.090000000000003</ele>
        <time>2023-08-26T11:49:15Z</time>
      </trkpt>
      <trkpt lat="57.363612027838826" lon="-6.195207964628935">
        <ele>50.609999999999999</ele>
        <time>2023-08-26T11:49:16Z</time>
      </trkpt>
      <trkpt lat="57.364991018548608" lon="-6.194244967773557">
        <ele>49.159999999999997</ele>
        <time>2023-08-26T11:49:23Z</time>
      </trkpt>
      <trkpt lat="57.366682989522815" lon="-6.193313989788294">
        <ele>47.240000000000002</ele>
        <time>2023-08-26T11:49:34Z</time>
      </trkpt>
      <trkpt lat="57.366992030292749" lon="-6.193367969244719">
        <ele>46.759999999999998</ele>
        <time>2023-08-26T11:49:36Z</time>
      </trkpt>
      <trkpt lat="57.367142988368869" lon="-6.193394036963582">
        <ele>46.280000000000001</ele>
        <time>2023-08-26T11:49:37Z</time>
      </trkpt>
      <trkpt lat="57.367286989465356" lon="-6.193432006984949">
        <ele>46.280000000000001</ele>
        <time>2023-08-26T11:49:38Z</time>
      </trkpt>
      <trkpt lat="57.368044964969158" lon="-6.193931987509131">
        <ele>45.799999999999997</ele>
        <time>2023-08-26T11:49:44Z</time>
      </trkpt>
      <trkpt lat="57.368162982165813" lon="-6.19399200193584">
        <ele>45.799999999999997</ele>
        <time>2023-08-26T11:49:45Z</time>
      </trkpt>
      <trkpt lat="57.368310000747442" lon="-6.193986972793937">
        <ele>45.799999999999997</ele>
        <time>2023-08-26T11:49:46Z</time>
      </trkpt>
      <trkpt lat="57.369495034217834" lon="-6.193960988894105">
        <ele>43.399999999999999</ele>
        <time>2023-08-26T11:49:52Z</time>
      </trkpt>
      <trkpt lat="57.37129395827651" lon="-6.194185959175229">
        <ele>37.630000000000003</ele>
        <time>2023-08-26T11:50:01Z</time>
      </trkpt>
      <trkpt lat="57.372878976166248" lon="-6.194534981623292">
        <ele>34.259999999999998</ele>
        <time>2023-08-26T11:50:07Z</time>
      </trkpt>
      <trkpt lat="57.373381974175572" lon="-6.19467998854816">
        <ele>33.780000000000001</ele>
        <time>2023-08-26T11:50:09Z</time>
      </trkpt>
      <trkpt lat="57.37363301217556" lon="-6.194683006033301">
        <ele>33.299999999999997</ele>
        <time>2023-08-26T11:50:10Z</time>
      </trkpt>
      <trkpt lat="57.375496979802847" lon="-6.194694992154837">
        <ele>30.899999999999999</ele>
        <time>2023-08-26T11:50:18Z</time>
      </trkpt>
      <trkpt lat="57.376199970021844" lon="-6.194693986326456">
        <ele>28.5</ele>
        <time>2023-08-26T11:50:22Z</time>
      </trkpt>
      <trkpt lat="57.376347994431853" lon="-6.194760035723448">
        <ele>28.02</ele>
        <time>2023-08-26T11:50:23Z</time>
      </trkpt>
      <trkpt lat="57.376476991921663" lon="-6.194817032665014">
        <ele>27.050000000000001</ele>
        <time>2023-08-26T11:50:24Z</time>
      </trkpt>
      <trkpt lat="57.376575982198119" lon="-6.194899007678032">
        <ele>26.09</ele>
        <time>2023-08-26T11:50:25Z</time>
      </trkpt>
      <trkpt lat="57.376657035201788" lon="-6.194979976862669">
        <ele>25.609999999999999</ele>
        <time>2023-08-26T11:50:26Z</time>
      </trkpt>
      <trkpt lat="57.376701040193439" lon="-6.195057006552815">
        <ele>25.129999999999999</ele>
        <time>2023-08-26T11:50:27Z</time>
      </trkpt>
      <trkpt lat="57.376733981072903" lon="-6.195114003494382">
        <ele>24.649999999999999</ele>
        <time>2023-08-26T11:50:28Z</time>
      </trkpt>
      <trkpt lat="57.376760970801115" lon="-6.195163037627935">
        <ele>24.170000000000002</ele>
        <time>2023-08-26T11:50:29Z</time>
      </trkpt>
      <trkpt lat="57.37685602158308" lon="-6.195249035954475">
        <ele>23.690000000000001</ele>
        <time>2023-08-26T11:50:30Z</time>
      </trkpt>
      <trkpt lat="57.376891979947686" lon="-6.195206958800554">
        <ele>23.210000000000001</ele>
        <time>2023-08-26T11:50:31Z</time>
      </trkpt>
      <trkpt lat="57.376928022131324" lon="-6.195164965465665">
        <ele>22.73</ele>
        <time>2023-08-26T11:50:32Z</time>
      </trkpt>
      <trkpt lat="57.376958029344678" lon="-6.19513001292944">
        <ele>22.25</ele>
        <time>2023-08-26T11:50:33Z</time>
      </trkpt>
      <trkpt lat="57.376989964395761" lon="-6.195122972130776">
        <ele>21.77</ele>
        <time>2023-08-26T11:50:34Z</time>
      </trkpt>
      <trkpt lat="57.37707101739943" lon="-6.195105034857988">
        <ele>20.809999999999999</ele>
        <time>2023-08-26T11:50:36Z</time>
      </trkpt>
      <trkpt lat="57.377116028219461" lon="-6.195094976574183">
        <ele>20.32</ele>
        <time>2023-08-26T11:50:37Z</time>
      </trkpt>
      <trkpt lat="57.37769203260541" lon="-6.195009984076023">
        <ele>19.84</ele>
        <time>2023-08-26T11:50:45Z</time>
      </trkpt>
      <trkpt lat="57.378731975331903" lon="-6.194941001012921">
        <ele>21.289999999999999</ele>
        <time>2023-08-26T11:50:55Z</time>
      </trkpt>
      <trkpt lat="57.379520041868091" lon="-6.194991962984204">
        <ele>22.25</ele>
        <time>2023-08-26T11:51:03Z</time>
      </trkpt>
      <trkpt lat="57.379590030759573" lon="-6.194996992126107">
        <ele>22.25</ele>
        <time>2023-08-26T11:51:09Z</time>
      </trkpt>
      <trkpt lat="57.379598999395967" lon="-6.194997997954488">
        <ele>22.25</ele>
        <time>2023-08-26T11:51:16Z</time>
      </trkpt>
      <trkpt lat="57.379611991345882" lon="-6.194997997954488">
        <ele>22.73</ele>
        <time>2023-08-26T11:51:33Z</time>
      </trkpt>
      <trkpt lat="57.379696983844042" lon="-6.194992968812585">
        <ele>23.210000000000001</ele>
        <time>2023-08-26T11:51:39Z</time>
      </trkpt>
      <trkpt lat="57.379746017977595" lon="-6.19498198851943">
        <ele>23.210000000000001</ele>
        <time>2023-08-26T11:51:40Z</time>
      </trkpt>
      <trkpt lat="57.379807038232684" lon="-6.194967990741134">
        <ele>23.210000000000001</ele>
        <time>2023-08-26T11:51:41Z</time>
      </trkpt>
      <trkpt lat="57.379878032952547" lon="-6.194951981306076">
        <ele>23.690000000000001</ele>
        <time>2023-08-26T11:51:42Z</time>
      </trkpt>
      <trkpt lat="57.37995196133852" lon="-6.194934966042638">
        <ele>23.690000000000001</ele>
        <time>2023-08-26T11:51:43Z</time>
      </trkpt>
      <trkpt lat="57.380025973543525" lon="-6.194919040426612">
        <ele>23.210000000000001</ele>
        <time>2023-08-26T11:51:44Z</time>
      </trkpt>
      <trkpt lat="57.380866007879376" lon="-6.194713013246656">
        <ele>21.77</ele>
        <time>2023-08-26T11:51:52Z</time>
      </trkpt>
      <trkpt lat="57.381465984508395" lon="-6.194631038233638">
        <ele>22.25</ele>
        <time>2023-08-26T11:51:57Z</time>
      </trkpt>
      <trkpt lat="57.382143996655941" lon="-6.194582004100084">
        <ele>24.170000000000002</ele>
        <time>2023-08-26T11:52:03Z</time>
      </trkpt>
      <trkpt lat="57.383460039272904" lon="-6.194796999916434">
        <ele>26.09</ele>
        <time>2023-08-26T11:52:14Z</time>
      </trkpt>
      <trkpt lat="57.384889991953969" lon="-6.194949969649315">
        <ele>31.859999999999999</ele>
        <time>2023-08-26T11:52:26Z</time>
      </trkpt>
      <trkpt lat="57.385662971064448" lon="-6.195121966302395">
        <ele>35.229999999999997</ele>
        <time>2023-08-26T11:52:34Z</time>
      </trkpt>
      <trkpt lat="57.385709993541241" lon="-6.195136969909072">
        <ele>35.229999999999997</ele>
        <time>2023-08-26T11:52:35Z</time>
      </trkpt>
      <trkpt lat="57.385770007967949" lon="-6.195120038464665">
        <ele>35.229999999999997</ele>
        <time>2023-08-26T11:52:36Z</time>
      </trkpt>
      <trkpt lat="57.3857949860394" lon="-6.19506698101759">
        <ele>35.710000000000001</ele>
        <time>2023-08-26T11:52:37Z</time>
      </trkpt>
      <trkpt lat="57.385818036273122" lon="-6.195017024874687">
        <ele>35.710000000000001</ele>
        <time>2023-08-26T11:52:38Z</time>
      </trkpt>
      <trkpt lat="57.38583798520267" lon="-6.194975031539798">
        <ele>35.710000000000001</ele>
        <time>2023-08-26T11:52:39Z</time>
      </trkpt>
      <trkpt lat="57.385851982980967" lon="-6.194945024326444">
        <ele>36.189999999999998</ele>
        <time>2023-08-26T11:52:48Z</time>
      </trkpt>
      <trkpt lat="57.385905040428042" lon="-6.19483002461493">
        <ele>37.149999999999999</ele>
        <time>2023-08-26T11:52:51Z</time>
      </trkpt>
      <trkpt lat="57.38594401627779" lon="-6.194861037656665">
        <ele>36.670000000000002</ele>
        <time>2023-08-26T11:52:52Z</time>
      </trkpt>
      <trkpt lat="57.386004030704498" lon="-6.194907976314426">
        <ele>36.670000000000002</ele>
        <time>2023-08-26T11:52:53Z</time>
      </trkpt>
      <trkpt lat="57.386169992387295" lon="-6.195038985460997">
        <ele>36.189999999999998</ele>
        <time>2023-08-26T11:52:55Z</time>
      </trkpt>
      <trkpt lat="57.38626797683537" lon="-6.195116015151143">
        <ele>35.710000000000001</ele>
        <time>2023-08-26T11:52:56Z</time>
      </trkpt>
      <trkpt lat="57.386376019567251" lon="-6.195146022364497">
        <ele>35.229999999999997</ele>
        <time>2023-08-26T11:52:57Z</time>
      </trkpt>
      <trkpt lat="57.386494958773255" lon="-6.195134958252311">
        <ele>34.259999999999998</ele>
        <time>2023-08-26T11:52:58Z</time>
      </trkpt>
      <trkpt lat="57.386616999283433" lon="-6.195122972130776">
        <ele>33.780000000000001</ele>
        <time>2023-08-26T11:52:59Z</time>
      </trkpt>
      <trkpt lat="57.387088984251022" lon="-6.195077961310744">
        <ele>29.940000000000001</ele>
        <time>2023-08-26T11:53:05Z</time>
      </trkpt>
      <trkpt lat="57.387145981192589" lon="-6.195073015987873">
        <ele>26.09</ele>
        <time>2023-08-26T11:53:16Z</time>
      </trkpt>
      <trkpt lat="57.387185040861368" lon="-6.195068992674351">
        <ele>24.649999999999999</ele>
        <time>2023-08-26T11:53:26Z</time>
      </trkpt>
      <trkpt lat="57.387201972305775" lon="-6.19506698101759">
        <ele>24.170000000000002</ele>
        <time>2023-08-26T11:53:27Z</time>
      </trkpt>
      <trkpt lat="57.38721395842731" lon="-6.195065975189209">
        <ele>24.170000000000002</ele>
        <time>2023-08-26T11:53:29Z</time>
      </trkpt>
      <trkpt lat="57.38721395842731" lon="-6.195065975189209">
        <ele>23.690000000000001</ele>
        <time>2023-08-26T11:53:30Z</time>
      </trkpt>
      <trkpt lat="57.387593993917108" lon="-6.194651992991567">
        <ele>22.73</ele>
        <time>2023-08-26T11:53:39Z</time>
      </trkpt>
      <trkpt lat="57.387256035581231" lon="-6.194344041869044">
        <ele>22.73</ele>
        <time>2023-08-26T11:53:45Z</time>
      </trkpt>
      <trkpt lat="57.387257041409612" lon="-6.194315040484071">
        <ele>22.73</ele>
        <time>2023-08-26T11:53:46Z</time>
      </trkpt>
      <trkpt lat="57.387384027242661" lon="-6.194140026345849">
        <ele>22.73</ele>
        <time>2023-08-26T11:53:47Z</time>
      </trkpt>
      <trkpt lat="57.387392995879054" lon="-6.194126028567553">
        <ele>22.73</ele>
        <time>2023-08-26T11:53:48Z</time>
      </trkpt>
      <trkpt lat="57.387397019192576" lon="-6.19412200525403">
        <ele>22.73</ele>
        <time>2023-08-26T11:53:49Z</time>
      </trkpt>
      <trkpt lat="57.387544959783554" lon="-6.194483013823628">
        <ele>23.210000000000001</ele>
        <time>2023-08-26T11:53:52Z</time>
      </trkpt>
      <trkpt lat="57.38721395842731" lon="-6.195065975189209">
        <ele>22.73</ele>
        <time>2023-08-26T11:54:00Z</time>
      </trkpt>
      <trkpt lat="57.38721395842731" lon="-6.195065975189209">
        <ele>22.25</ele>
        <time>2023-08-26T11:54:01Z</time>
      </trkpt>
      <trkpt lat="57.38721395842731" lon="-6.195065975189209">
        <ele>22.25</ele>
        <time>2023-08-26T11:54:02Z</time>
      </trkpt>
      <trkpt lat="57.38721395842731" lon="-6.195065975189209">
        <ele>21.77</ele>
        <time>2023-08-26T11:54:03Z</time>
      </trkpt>
      <trkpt lat="57.38721395842731" lon="-6.195065975189209">
        <ele>21.77</ele>
        <time>2023-08-26T11:54:04Z</time>
      </trkpt>
      <trkpt lat="57.387205995619297" lon="-6.19506698101759">
        <ele>21.77</ele>
        <time>2023-08-26T11:54:05Z</time>
      </trkpt>
      <trkpt lat="57.38721395842731" lon="-6.195065975189209">
        <ele>21.77</ele>
        <time>2023-08-26T11:54:06Z</time>
      </trkpt>
      <trkpt lat="57.387228962033987" lon="-6.194804962724447">
        <ele>21.77</ele>
        <time>2023-08-26T11:54:07Z</time>
      </trkpt>
      <trkpt lat="57.387237008661032" lon="-6.194677976891398">
        <ele>21.77</ele>
        <time>2023-08-26T11:54:08Z</time>
      </trkpt>
      <trkpt lat="57.387243965640664" lon="-6.194537999108434">
        <ele>22.25</ele>
        <time>2023-08-26T11:54:09Z</time>
      </trkpt>
      <trkpt lat="57.387253018096089" lon="-6.194396009668708">
        <ele>22.73</ele>
        <time>2023-08-26T11:54:10Z</time>
      </trkpt>
      <trkpt lat="57.387257041409612" lon="-6.194315040484071">
        <ele>23.210000000000001</ele>
        <time>2023-08-26T11:54:11Z</time>
      </trkpt>
      <trkpt lat="57.387288976460695" lon="-6.19427103549242">
        <ele>23.690000000000001</ele>
        <time>2023-08-26T11:54:12Z</time>
      </trkpt>
      <trkpt lat="57.387354020029306" lon="-6.194181013852358">
        <ele>24.649999999999999</ele>
        <time>2023-08-26T11:54:13Z</time>
      </trkpt>
      <trkpt lat="57.387425014749169" lon="-6.194082023575902">
        <ele>25.129999999999999</ele>
        <time>2023-08-26T11:54:14Z</time>
      </trkpt>
      <trkpt lat="57.387962965294719" lon="-6.193380039185286">
        <ele>27.050000000000001</ele>
        <time>2023-08-26T11:54:21Z</time>
      </trkpt>
      <trkpt lat="57.388057010248303" lon="-6.193350031971932">
        <ele>27.050000000000001</ele>
        <time>2023-08-26T11:54:22Z</time>
      </trkpt>
      <trkpt lat="57.388154994696379" lon="-6.193319018930197">
        <ele>26.57</ele>
        <time>2023-08-26T11:54:23Z</time>
      </trkpt>
      <trkpt lat="57.388355992734432" lon="-6.193269984796643">
        <ele>26.57</ele>
        <time>2023-08-26T11:54:25Z</time>
      </trkpt>
      <trkpt lat="57.389085972681642" lon="-6.193535020574927">
        <ele>23.690000000000001</ele>
        <time>2023-08-26T11:54:33Z</time>
      </trkpt>
      <trkpt lat="57.389183035120368" lon="-6.193586988374591">
        <ele>23.690000000000001</ele>
        <time>2023-08-26T11:54:34Z</time>
      </trkpt>
      <trkpt lat="57.389281019568443" lon="-6.193639962002635">
        <ele>23.690000000000001</ele>
        <time>2023-08-26T11:54:35Z</time>
      </trkpt>
      <trkpt lat="57.389371041208506" lon="-6.19367097504437">
        <ele>23.690000000000001</ele>
        <time>2023-08-26T11:54:36Z</time>
      </trkpt>
      <trkpt lat="57.389474976807833" lon="-6.19367097504437">
        <ele>23.690000000000001</ele>
        <time>2023-08-26T11:54:37Z</time>
      </trkpt>
      <trkpt lat="57.389573967084289" lon="-6.193663012236357">
        <ele>24.170000000000002</ele>
        <time>2023-08-26T11:54:38Z</time>
      </trkpt>
      <trkpt lat="57.389677986502647" lon="-6.193624036386609">
        <ele>24.170000000000002</ele>
        <time>2023-08-26T11:54:39Z</time>
      </trkpt>
      <trkpt lat="57.390188025310636" lon="-6.193356988951564">
        <ele>25.129999999999999</ele>
        <time>2023-08-26T11:54:44Z</time>
      </trkpt>
      <trkpt lat="57.390278968960047" lon="-6.193285994231701">
        <ele>25.609999999999999</ele>
        <time>2023-08-26T11:54:45Z</time>
      </trkpt>
      <trkpt lat="57.39039002917707" lon="-6.19319899007678">
        <ele>25.609999999999999</ele>
        <time>2023-08-26T11:54:46Z</time>
      </trkpt>
      <trkpt lat="57.390441996976733" lon="-6.193099999800324">
        <ele>25.609999999999999</ele>
        <time>2023-08-26T11:54:47Z</time>
      </trkpt>
      <trkpt lat="57.390505028888583" lon="-6.192977959290147">
        <ele>25.609999999999999</ele>
        <time>2023-08-26T11:54:48Z</time>
      </trkpt>
      <trkpt lat="57.390568982809782" lon="-6.19285499677062">
        <ele>25.609999999999999</ele>
        <time>2023-08-26T11:54:49Z</time>
      </trkpt>
      <trkpt lat="57.390633020550013" lon="-6.192730022594333">
        <ele>25.609999999999999</ele>
        <time>2023-08-26T11:54:50Z</time>
      </trkpt>
      <trkpt lat="57.390704015269876" lon="-6.192605970427394">
        <ele>25.609999999999999</ele>
        <time>2023-08-26T11:54:51Z</time>
      </trkpt>
      <trkpt lat="57.390792025253177" lon="-6.192518966272473">
        <ele>25.609999999999999</ele>
        <time>2023-08-26T11:54:52Z</time>
      </trkpt>
      <trkpt lat="57.39088598638773" lon="-6.192454006522894">
        <ele>26.09</ele>
        <time>2023-08-26T11:54:53Z</time>
      </trkpt>
      <trkpt lat="57.390984976664186" lon="-6.192418970167637">
        <ele>26.09</ele>
        <time>2023-08-26T11:54:54Z</time>
      </trkpt>
      <trkpt lat="57.391087990254164" lon="-6.192383011803031">
        <ele>26.09</ele>
        <time>2023-08-26T11:54:55Z</time>
      </trkpt>
      <trkpt lat="57.391285970807076" lon="-6.192314028739929">
        <ele>26.09</ele>
        <time>2023-08-26T11:54:57Z</time>
      </trkpt>
      <trkpt lat="57.391373980790377" lon="-6.192283015698195">
        <ele>26.09</ele>
        <time>2023-08-26T11:54:58Z</time>
      </trkpt>
      <trkpt lat="57.391455033794045" lon="-6.192255020141602">
        <ele>26.09</ele>
        <time>2023-08-26T11:54:59Z</time>
      </trkpt>
      <trkpt lat="57.391536002978683" lon="-6.192226018756628">
        <ele>26.09</ele>
        <time>2023-08-26T11:55:00Z</time>
      </trkpt>
      <trkpt lat="57.391619989648461" lon="-6.192197017371655">
        <ele>26.09</ele>
        <time>2023-08-26T11:55:01Z</time>
      </trkpt>
      <trkpt lat="57.391726020723581" lon="-6.19210003875196">
        <ele>26.09</ele>
        <time>2023-08-26T11:55:02Z</time>
      </trkpt>
      <trkpt lat="57.391787962988019" lon="-6.191942039877176">
        <ele>26.09</ele>
        <time>2023-08-26T11:55:03Z</time>
      </trkpt>
      <trkpt lat="57.391854012385011" lon="-6.191770965233445">
        <ele>26.57</ele>
        <time>2023-08-26T11:55:04Z</time>
      </trkpt>
      <trkpt lat="57.391925007104874" lon="-6.191589999943972">
        <ele>26.57</ele>
        <time>2023-08-26T11:55:05Z</time>
      </trkpt>
      <trkpt lat="57.392634032294154" lon="-6.189773976802826">
        <ele>30.420000000000002</ele>
        <time>2023-08-26T11:55:16Z</time>
      </trkpt>
      <trkpt lat="57.392693040892482" lon="-6.189623018726707">
        <ele>31.859999999999999</ele>
        <time>2023-08-26T11:55:18Z</time>
      </trkpt>
      <trkpt lat="57.392914993688464" lon="-6.189041985198855">
        <ele>34.740000000000002</ele>
        <time>2023-08-26T11:55:28Z</time>
      </trkpt>
      <trkpt lat="57.393021024763584" lon="-6.189021030440927">
        <ele>34.740000000000002</ele>
        <time>2023-08-26T11:55:30Z</time>
      </trkpt>
      <trkpt lat="57.393079027533531" lon="-6.189033016562462">
        <ele>34.740000000000002</ele>
        <time>2023-08-26T11:55:31Z</time>
      </trkpt>
      <trkpt lat="57.393129989504814" lon="-6.189064029604197">
        <ele>34.740000000000002</ele>
        <time>2023-08-26T11:55:32Z</time>
      </trkpt>
      <trkpt lat="57.393183968961239" lon="-6.189097976312041">
        <ele>34.740000000000002</ele>
        <time>2023-08-26T11:55:33Z</time>
      </trkpt>
      <trkpt lat="57.393238032236695" lon="-6.189132006838918">
        <ele>34.740000000000002</ele>
        <time>2023-08-26T11:55:34Z</time>
      </trkpt>
      <trkpt lat="57.39348697476089" lon="-6.189355971291661">
        <ele>34.740000000000002</ele>
        <time>2023-08-26T11:55:39Z</time>
      </trkpt>
      <trkpt lat="57.393531985580921" lon="-6.18941699154675">
        <ele>35.229999999999997</ele>
        <time>2023-08-26T11:55:40Z</time>
      </trkpt>
      <trkpt lat="57.393573978915811" lon="-6.189474994316697">
        <ele>35.229999999999997</ele>
        <time>2023-08-26T11:55:41Z</time>
      </trkpt>
      <trkpt lat="57.393697025254369" lon="-6.189718991518021">
        <ele>35.710000000000001</ele>
        <time>2023-08-26T11:55:44Z</time>
      </trkpt>
      <trkpt lat="57.393733989447355" lon="-6.189810018986464">
        <ele>35.710000000000001</ele>
        <time>2023-08-26T11:55:45Z</time>
      </trkpt>
      <trkpt lat="57.393767014145851" lon="-6.189894005656242">
        <ele>36.189999999999998</ele>
        <time>2023-08-26T11:55:46Z</time>
      </trkpt>
      <trkpt lat="57.393792998045683" lon="-6.189957959577441">
        <ele>36.189999999999998</ele>
        <time>2023-08-26T11:55:47Z</time>
      </trkpt>
      <trkpt lat="57.393801966682076" lon="-6.189981009811163">
        <ele>36.189999999999998</ele>
        <time>2023-08-26T11:55:48Z</time>
      </trkpt>
      <trkpt lat="57.393801966682076" lon="-6.189981009811163">
        <ele>36.189999999999998</ele>
        <time>2023-08-26T11:55:49Z</time>
      </trkpt>
      <trkpt lat="57.393801966682076" lon="-6.189981009811163">
        <ele>36.189999999999998</ele>
        <time>2023-08-26T11:55:50Z</time>
      </trkpt>
      <trkpt lat="57.393801966682076" lon="-6.189981009811163">
        <ele>36.670000000000002</ele>
        <time>2023-08-26T11:55:54Z</time>
      </trkpt>
      <trkpt lat="57.393801966682076" lon="-6.189981009811163">
        <ele>37.149999999999999</ele>
        <time>2023-08-26T11:55:55Z</time>
      </trkpt>
      <trkpt lat="57.393970023840666" lon="-6.190879968926311">
        <ele>36.189999999999998</ele>
        <time>2023-08-26T11:56:00Z</time>
      </trkpt>
      <trkpt lat="57.394355004653335" lon="-6.19134902022779">
        <ele>32.82</ele>
        <time>2023-08-26T11:56:10Z</time>
      </trkpt>
      <trkpt lat="57.394466986879706" lon="-6.191280959174037">
        <ele>30.899999999999999</ele>
        <time>2023-08-26T11:56:14Z</time>
      </trkpt>
      <trkpt lat="57.394544016569853" lon="-6.191295040771365">
        <ele>27.530000000000001</ele>
        <time>2023-08-26T11:56:29Z</time>
      </trkpt>
      <trkpt lat="57.394773010164499" lon="-6.191750010475516">
        <ele>25.129999999999999</ele>
        <time>2023-08-26T11:56:35Z</time>
      </trkpt>
      <trkpt lat="57.395216999575496" lon="-6.192534975707531">
        <ele>17.920000000000002</ele>
        <time>2023-08-26T11:56:47Z</time>
      </trkpt>
      <trkpt lat="57.395316995680332" lon="-6.192782996222377">
        <ele>13.119999999999999</ele>
        <time>2023-08-26T11:56:58Z</time>
      </trkpt>
      <trkpt lat="57.395316995680332" lon="-6.192782996222377">
        <ele>13.119999999999999</ele>
        <time>2023-08-26T11:57:09Z</time>
      </trkpt>
      <trkpt lat="57.395214987918735" lon="-6.192503962665796">
        <ele>9.27</ele>
        <time>2023-08-26T11:57:18Z</time>
      </trkpt>
      <trkpt lat="57.395164025947452" lon="-6.192420981824398">
        <ele>9.27</ele>
        <time>2023-08-26T11:57:19Z</time>
      </trkpt>
      <trkpt lat="57.394669996574521" lon="-6.191482041031122">
        <ele>13.6</ele>
        <time>2023-08-26T11:57:29Z</time>
      </trkpt>
      <trkpt lat="57.39460302516818" lon="-6.191340973600745">
        <ele>15.039999999999999</ele>
        <time>2023-08-26T11:57:31Z</time>
      </trkpt>
      <trkpt lat="57.394527001306415" lon="-6.191203007474542">
        <ele>16.960000000000001</ele>
        <time>2023-08-26T11:57:34Z</time>
      </trkpt>
      <trkpt lat="57.394546028226614" lon="-6.191104017198086">
        <ele>20.809999999999999</ele>
        <time>2023-08-26T11:57:39Z</time>
      </trkpt>
      <trkpt lat="57.394909970462322" lon="-6.191724026575685">
        <ele>24.170000000000002</ele>
        <time>2023-08-26T11:57:52Z</time>
      </trkpt>
      <trkpt lat="57.39535597153008" lon="-6.192176984623075">
        <ele>21.289999999999999</ele>
        <time>2023-08-26T11:58:05Z</time>
      </trkpt>
      <trkpt lat="57.395392013713717" lon="-6.192212020978332">
        <ele>21.289999999999999</ele>
        <time>2023-08-26T11:58:06Z</time>
      </trkpt>
      <trkpt lat="57.395685967057943" lon="-6.192469010129571">
        <ele>16.48</ele>
        <time>2023-08-26T11:58:18Z</time>
      </trkpt>
      <trkpt lat="57.395867016166449" lon="-6.192369014024735">
        <ele>11.67</ele>
        <time>2023-08-26T11:58:27Z</time>
      </trkpt>
      <trkpt lat="57.395860981196165" lon="-6.192308999598026">
        <ele>9.75</ele>
        <time>2023-08-26T11:58:44Z</time>
      </trkpt>
      <trkpt lat="57.395842038094997" lon="-6.192304976284504">
        <ele>10.23</ele>
        <time>2023-08-26T11:59:05Z</time>
      </trkpt>
      <trkpt lat="57.395840026438236" lon="-6.192305982112885">
        <ele>10.23</ele>
        <time>2023-08-26T12:00:12Z</time>
      </trkpt>
      <trkpt lat="57.395836003124714" lon="-6.192303970456123">
        <ele>10.710000000000001</ele>
        <time>2023-08-26T12:01:22Z</time>
      </trkpt>
      <trkpt lat="57.395820999518037" lon="-6.19229500181973">
        <ele>10.23</ele>
        <time>2023-08-26T12:01:58Z</time>
      </trkpt>
      <trkpt lat="57.395757967606187" lon="-6.192477978765965">
        <ele>9.75</ele>
        <time>2023-08-26T12:02:03Z</time>
      </trkpt>
      <trkpt lat="57.395573984831572" lon="-6.192367002367973">
        <ele>10.23</ele>
        <time>2023-08-26T12:02:07Z</time>
      </trkpt>
      <trkpt lat="57.39542000927031" lon="-6.192221995443106">
        <ele>10.710000000000001</ele>
        <time>2023-08-26T12:02:09Z</time>
      </trkpt>
      <trkpt lat="57.395229991525412" lon="-6.192025020718575">
        <ele>11.67</ele>
        <time>2023-08-26T12:02:12Z</time>
      </trkpt>
      <trkpt lat="57.394965961575508" lon="-6.191813964396715">
        <ele>13.6</ele>
        <time>2023-08-26T12:02:18Z</time>
      </trkpt>
      <trkpt lat="57.394586009904742" lon="-6.191082978621125">
        <ele>19.359999999999999</ele>
        <time>2023-08-26T12:02:30Z</time>
      </trkpt>
      <trkpt lat="57.394575029611588" lon="-6.1910480260849">
        <ele>19.84</ele>
        <time>2023-08-26T12:02:42Z</time>
      </trkpt>
      <trkpt lat="57.394571006298065" lon="-6.191044002771378">
        <ele>20.32</ele>
        <time>2023-08-26T12:03:29Z</time>
      </trkpt>
      <trkpt lat="57.394567988812923" lon="-6.191045008599758">
        <ele>20.32</ele>
        <time>2023-08-26T12:04:31Z</time>
      </trkpt>
      <trkpt lat="57.394568994641304" lon="-6.191040985286236">
        <ele>20.32</ele>
        <time>2023-08-26T12:05:25Z</time>
      </trkpt>
      <trkpt lat="57.394564971327782" lon="-6.191036961972714">
        <ele>20.32</ele>
        <time>2023-08-26T12:06:24Z</time>
      </trkpt>
      <trkpt lat="57.394565977156162" lon="-6.191035034134984">
        <ele>19.84</ele>
        <time>2023-08-26T12:07:23Z</time>
      </trkpt>
      <trkpt lat="57.394565977156162" lon="-6.191031010821462">
        <ele>19.359999999999999</ele>
        <time>2023-08-26T12:08:30Z</time>
      </trkpt>
      <trkpt lat="57.394572012126446" lon="-6.191032016649842">
        <ele>18.879999999999999</ele>
        <time>2023-08-26T12:09:38Z</time>
      </trkpt>
      <trkpt lat="57.394574023783207" lon="-6.191032016649842">
        <ele>18.879999999999999</ele>
        <time>2023-08-26T12:10:46Z</time>
      </trkpt>
      <trkpt lat="57.394573017954826" lon="-6.191032016649842">
        <ele>18.879999999999999</ele>
        <time>2023-08-26T12:11:49Z</time>
      </trkpt>
      <trkpt lat="57.394568994641304" lon="-6.191030004993081">
        <ele>18.879999999999999</ele>
        <time>2023-08-26T12:12:47Z</time>
      </trkpt>
      <trkpt lat="57.394567988812923" lon="-6.191031010821462">
        <ele>18.399999999999999</ele>
        <time>2023-08-26T12:13:43Z</time>
      </trkpt>
      <trkpt lat="57.394563965499401" lon="-6.191024975851178">
        <ele>18.879999999999999</ele>
        <time>2023-08-26T12:14:40Z</time>
      </trkpt>
      <trkpt lat="57.394561031833291" lon="-6.191025981679559">
        <ele>18.879999999999999</ele>
        <time>2023-08-26T12:15:32Z</time>
      </trkpt>
      <trkpt lat="57.394562037661672" lon="-6.191028999164701">
        <ele>18.399999999999999</ele>
        <time>2023-08-26T12:16:25Z</time>
      </trkpt>
      <trkpt lat="57.39456002600491" lon="-6.19102799333632">
        <ele>18.399999999999999</ele>
        <time>2023-08-26T12:17:22Z</time>
      </trkpt>
      <trkpt lat="57.39456002600491" lon="-6.191022964194417">
        <ele>17.920000000000002</ele>
        <time>2023-08-26T12:18:24Z</time>
      </trkpt>
      <trkpt lat="57.394561031833291" lon="-6.191018018871546">
        <ele>17.920000000000002</ele>
        <time>2023-08-26T12:19:26Z</time>
      </trkpt>
      <trkpt lat="57.394561031833291" lon="-6.191013995558024">
        <ele>17.920000000000002</ele>
        <time>2023-08-26T12:20:06Z</time>
      </trkpt>
      <trkpt lat="57.394561031833291" lon="-6.191013995558024">
        <ele>17.440000000000001</ele>
        <time>2023-08-26T12:20:54Z</time>
      </trkpt>
      <trkpt lat="57.39456002600491" lon="-6.191009972244501">
        <ele>17.440000000000001</ele>
        <time>2023-08-26T12:21:15Z</time>
      </trkpt>
      <trkpt lat="57.394488025456667" lon="-6.19109395891428">
        <ele>18.879999999999999</ele>
        <time>2023-08-26T12:21:19Z</time>
      </trkpt>
      <trkpt lat="57.394142020493746" lon="-6.191202001646161">
        <ele>18.879999999999999</ele>
        <time>2023-08-26T12:21:26Z</time>
      </trkpt>
      <trkpt lat="57.393942028284073" lon="-6.190725993365049">
        <ele>18.399999999999999</ele>
        <time>2023-08-26T12:21:31Z</time>
      </trkpt>
      <trkpt lat="57.393801966682076" lon="-6.189981009811163">
        <ele>20.809999999999999</ele>
        <time>2023-08-26T12:21:34Z</time>
      </trkpt>
      <trkpt lat="57.393801966682076" lon="-6.189981009811163">
        <ele>21.77</ele>
        <time>2023-08-26T12:21:35Z</time>
      </trkpt>
      <trkpt lat="57.393774976953864" lon="-6.189913032576442">
        <ele>24.170000000000002</ele>
        <time>2023-08-26T12:21:37Z</time>
      </trkpt>
      <trkpt lat="57.393733989447355" lon="-6.189811024814844">
        <ele>25.609999999999999</ele>
        <time>2023-08-26T12:21:38Z</time>
      </trkpt>
      <trkpt lat="57.393454033881426" lon="-6.18931096047163">
        <ele>31.859999999999999</ele>
        <time>2023-08-26T12:21:44Z</time>
      </trkpt>
      <trkpt lat="57.393399970605969" lon="-6.189237032085657">
        <ele>32.340000000000003</ele>
        <time>2023-08-26T12:21:45Z</time>
      </trkpt>
      <trkpt lat="57.393342973664403" lon="-6.189197972416878">
        <ele>32.82</ele>
        <time>2023-08-26T12:21:46Z</time>
      </trkpt>
      <trkpt lat="57.393165025860071" lon="-6.189085990190506">
        <ele>32.82</ele>
        <time>2023-08-26T12:21:49Z</time>
      </trkpt>
      <trkpt lat="57.393111968412995" lon="-6.18905296549201">
        <ele>32.82</ele>
        <time>2023-08-26T12:21:50Z</time>
      </trkpt>
      <trkpt lat="57.393054971471429" lon="-6.189018012955785">
        <ele>32.82</ele>
        <time>2023-08-26T12:21:51Z</time>
      </trkpt>
      <trkpt lat="57.393008032813668" lon="-6.189022958278656">
        <ele>32.82</ele>
        <time>2023-08-26T12:21:52Z</time>
      </trkpt>
      <trkpt lat="57.392952041700482" lon="-6.189035028219223">
        <ele>32.82</ele>
        <time>2023-08-26T12:21:53Z</time>
      </trkpt>
      <trkpt lat="57.392896972596645" lon="-6.189046008512378">
        <ele>32.82</ele>
        <time>2023-08-26T12:21:54Z</time>
      </trkpt>
      <trkpt lat="57.392855985090137" lon="-6.189053971320391">
        <ele>32.82</ele>
        <time>2023-08-26T12:21:55Z</time>
      </trkpt>
      <trkpt lat="57.392836036160588" lon="-6.189057994633913">
        <ele>32.82</ele>
        <time>2023-08-26T12:21:56Z</time>
      </trkpt>
      <trkpt lat="57.392836036160588" lon="-6.189057994633913">
        <ele>32.340000000000003</ele>
        <time>2023-08-26T12:21:57Z</time>
      </trkpt>
      <trkpt lat="57.392810974270105" lon="-6.189170982688665">
        <ele>32.340000000000003</ele>
        <time>2023-08-26T12:21:58Z</time>
      </trkpt>
      <trkpt lat="57.392485002055764" lon="-6.190155018121004">
        <ele>33.780000000000001</ele>
        <time>2023-08-26T12:22:04Z</time>
      </trkpt>
      <trkpt lat="57.391971023753285" lon="-6.191472988575697">
        <ele>33.780000000000001</ele>
        <time>2023-08-26T12:22:13Z</time>
      </trkpt>
      <trkpt lat="57.391734989359975" lon="-6.192077994346619">
        <ele>34.740000000000002</ele>
        <time>2023-08-26T12:22:18Z</time>
      </trkpt>
      <trkpt lat="57.391671035438776" lon="-6.192178996279836">
        <ele>34.740000000000002</ele>
        <time>2023-08-26T12:22:19Z</time>
      </trkpt>
      <trkpt lat="57.391601968556643" lon="-6.192202968522906">
        <ele>34.740000000000002</ele>
        <time>2023-08-26T12:22:20Z</time>
      </trkpt>
      <trkpt lat="57.391522005200386" lon="-6.192230964079499">
        <ele>34.740000000000002</ele>
        <time>2023-08-26T12:22:21Z</time>
      </trkpt>
      <trkpt lat="57.391433995217085" lon="-6.192261977121234">
        <ele>34.740000000000002</ele>
        <time>2023-08-26T12:22:22Z</time>
      </trkpt>
      <trkpt lat="57.391340034082532" lon="-6.19229500181973">
        <ele>34.259999999999998</ele>
        <time>2023-08-26T12:22:23Z</time>
      </trkpt>
      <trkpt lat="57.391240959987044" lon="-6.192330038174987">
        <ele>33.780000000000001</ele>
        <time>2023-08-26T12:22:24Z</time>
      </trkpt>
      <trkpt lat="57.391136018559337" lon="-6.192365996539593">
        <ele>33.299999999999997</ele>
        <time>2023-08-26T12:22:25Z</time>
      </trkpt>
      <trkpt lat="57.390948012471199" lon="-6.192431962117553">
        <ele>32.340000000000003</ele>
        <time>2023-08-26T12:22:27Z</time>
      </trkpt>
      <trkpt lat="57.390865031629801" lon="-6.192460963502526">
        <ele>32.340000000000003</ele>
        <time>2023-08-26T12:22:28Z</time>
      </trkpt>
      <trkpt lat="57.390791019424796" lon="-6.192519972100854">
        <ele>32.340000000000003</ele>
        <time>2023-08-26T12:22:29Z</time>
      </trkpt>
      <trkpt lat="57.390718013048172" lon="-6.192591972649097">
        <ele>31.859999999999999</ele>
        <time>2023-08-26T12:22:30Z</time>
      </trkpt>
      <trkpt lat="57.39069102331996" lon="-6.19261996820569">
        <ele>31.859999999999999</ele>
        <time>2023-08-26T12:22:31Z</time>
      </trkpt>
      <trkpt lat="57.390596978366375" lon="-6.192799005657435">
        <ele>31.859999999999999</ele>
        <time>2023-08-26T12:22:32Z</time>
      </trkpt>
      <trkpt lat="57.390534030273557" lon="-6.19292096234858">
        <ele>31.859999999999999</ele>
        <time>2023-08-26T12:22:33Z</time>
      </trkpt>
      <trkpt lat="57.390320040285587" lon="-6.193252969533205">
        <ele>31.859999999999999</ele>
        <time>2023-08-26T12:22:36Z</time>
      </trkpt>
      <trkpt lat="57.390237981453538" lon="-6.193317007273436">
        <ele>31.859999999999999</ele>
        <time>2023-08-26T12:22:37Z</time>
      </trkpt>
      <trkpt lat="57.39015500061214" lon="-6.193381967023015">
        <ele>31.859999999999999</ele>
        <time>2023-08-26T12:22:38Z</time>
      </trkpt>
      <trkpt lat="57.389775970950723" lon="-6.19358598254621">
        <ele>30.899999999999999</ele>
        <time>2023-08-26T12:22:42Z</time>
      </trkpt>
      <trkpt lat="57.389471959322691" lon="-6.19367097504437">
        <ele>28.98</ele>
        <time>2023-08-26T12:22:45Z</time>
      </trkpt>
      <trkpt lat="57.389375986531377" lon="-6.19367097504437">
        <ele>27.530000000000001</ele>
        <time>2023-08-26T12:22:46Z</time>
      </trkpt>
      <trkpt lat="57.38927498459816" lon="-6.193637028336525">
        <ele>27.050000000000001</ele>
        <time>2023-08-26T12:22:47Z</time>
      </trkpt>
      <trkpt lat="57.389174988493323" lon="-6.193582965061069">
        <ele>26.57</ele>
        <time>2023-08-26T12:22:48Z</time>
      </trkpt>
      <trkpt lat="57.389073986560106" lon="-6.193528985604644">
        <ele>25.609999999999999</ele>
        <time>2023-08-26T12:22:49Z</time>
      </trkpt>
      <trkpt lat="57.388971978798509" lon="-6.193474000319839">
        <ele>25.129999999999999</ele>
        <time>2023-08-26T12:22:50Z</time>
      </trkpt>
      <trkpt lat="57.38886795938015" lon="-6.193418009206653">
        <ele>24.170000000000002</ele>
        <time>2023-08-26T12:22:51Z</time>
      </trkpt>
      <trkpt lat="57.388781039044261" lon="-6.19337098672986">
        <ele>23.690000000000001</ele>
        <time>2023-08-26T12:22:52Z</time>
      </trkpt>
      <trkpt lat="57.38835004158318" lon="-6.193268978968263">
        <ele>22.25</ele>
        <time>2023-08-26T12:22:56Z</time>
      </trkpt>
      <trkpt lat="57.388258008286357" lon="-6.193285994231701">
        <ele>22.25</ele>
        <time>2023-08-26T12:22:57Z</time>
      </trkpt>
      <trkpt lat="57.388161029666662" lon="-6.193317007273436">
        <ele>21.77</ele>
        <time>2023-08-26T12:22:58Z</time>
      </trkpt>
      <trkpt lat="57.388058016076684" lon="-6.193350031971932">
        <ele>22.25</ele>
        <time>2023-08-26T12:22:59Z</time>
      </trkpt>
      <trkpt lat="57.387961037456989" lon="-6.193380039185286">
        <ele>22.25</ele>
        <time>2023-08-26T12:23:00Z</time>
      </trkpt>
      <trkpt lat="57.387887025251985" lon="-6.193440975621343">
        <ele>23.210000000000001</ele>
        <time>2023-08-26T12:23:01Z</time>
      </trkpt>
      <trkpt lat="57.387816030532122" lon="-6.193540971726179">
        <ele>23.210000000000001</ele>
        <time>2023-08-26T12:23:02Z</time>
      </trkpt>
      <trkpt lat="57.387325018644333" lon="-6.194220995530486">
        <ele>24.649999999999999</ele>
        <time>2023-08-26T12:23:08Z</time>
      </trkpt>
      <trkpt lat="57.387265004217625" lon="-6.194303976371884">
        <ele>24.649999999999999</ele>
        <time>2023-08-26T12:23:09Z</time>
      </trkpt>
      <trkpt lat="57.387257041409612" lon="-6.194315040484071">
        <ele>24.649999999999999</ele>
        <time>2023-08-26T12:23:10Z</time>
      </trkpt>
      <trkpt lat="57.387244971469045" lon="-6.19452802464366">
        <ele>24.170000000000002</ele>
        <time>2023-08-26T12:23:11Z</time>
      </trkpt>
      <trkpt lat="57.387238014489412" lon="-6.194646963849664">
        <ele>24.170000000000002</ele>
        <time>2023-08-26T12:23:12Z</time>
      </trkpt>
      <trkpt lat="57.387231979519129" lon="-6.194761041551828">
        <ele>24.170000000000002</ele>
        <time>2023-08-26T12:23:13Z</time>
      </trkpt>
      <trkpt lat="57.387227034196258" lon="-6.19485299102962">
        <ele>24.170000000000002</ele>
        <time>2023-08-26T12:23:14Z</time>
      </trkpt>
      <trkpt lat="57.38721395842731" lon="-6.195065975189209">
        <ele>23.690000000000001</ele>
        <time>2023-08-26T12:23:15Z</time>
      </trkpt>
      <trkpt lat="57.38721395842731" lon="-6.195065975189209">
        <ele>23.690000000000001</ele>
        <time>2023-08-26T12:23:16Z</time>
      </trkpt>
      <trkpt lat="57.387268021702766" lon="-6.195278959348798">
        <ele>23.690000000000001</ele>
        <time>2023-08-26T12:23:19Z</time>
      </trkpt>
      <trkpt lat="57.387300040572882" lon="-6.195408962666988">
        <ele>23.690000000000001</ele>
        <time>2023-08-26T12:23:20Z</time>
      </trkpt>
      <trkpt lat="57.387292999774218" lon="-6.195574002340436">
        <ele>23.690000000000001</ele>
        <time>2023-08-26T12:23:21Z</time>
      </trkpt>
      <trkpt lat="57.387195015326142" lon="-6.197766037657857">
        <ele>16.960000000000001</ele>
        <time>2023-08-26T12:23:32Z</time>
      </trkpt>
      <trkpt lat="57.387095019221306" lon="-6.200067959725857">
        <ele>5.91</ele>
        <time>2023-08-26T12:23:42Z</time>
      </trkpt>
      <trkpt lat="57.386998040601611" lon="-6.202293019741774">
        <ele>3.5</ele>
        <time>2023-08-26T12:23:53Z</time>
      </trkpt>
      <trkpt lat="57.387004997581244" lon="-6.203324999660254">
        <ele>5.42</ele>
        <time>2023-08-26T12:23:58Z</time>
      </trkpt>
      <trkpt lat="57.387021007016301" lon="-6.203413009643555">
        <ele>5.91</ele>
        <time>2023-08-26T12:23:59Z</time>
      </trkpt>
      <trkpt lat="57.387093007564545" lon="-6.203499007970095">
        <ele>6.39</ele>
        <time>2023-08-26T12:24:00Z</time>
      </trkpt>
      <trkpt lat="57.387164002284408" lon="-6.203584000468254">
        <ele>6.87</ele>
        <time>2023-08-26T12:24:01Z</time>
      </trkpt>
      <trkpt lat="57.387242959812284" lon="-6.203678967431188">
        <ele>7.83</ele>
        <time>2023-08-26T12:24:02Z</time>
      </trkpt>
      <trkpt lat="57.387343039736152" lon="-6.203798996284604">
        <ele>8.310000000000001</ele>
        <time>2023-08-26T12:24:03Z</time>
      </trkpt>
      <trkpt lat="57.387518975883722" lon="-6.20396101847291">
        <ele>11.67</ele>
        <time>2023-08-26T12:24:08Z</time>
      </trkpt>
      <trkpt lat="57.387564992532134" lon="-6.20400401763618">
        <ele>15.039999999999999</ele>
        <time>2023-08-26T12:24:16Z</time>
      </trkpt>
      <trkpt lat="57.387601034715772" lon="-6.204036958515644">
        <ele>15.52</ele>
        <time>2023-08-26T12:24:17Z</time>
      </trkpt>
      <trkpt lat="57.387653002515435" lon="-6.20406998321414">
        <ele>16</ele>
        <time>2023-08-26T12:24:18Z</time>
      </trkpt>
      <trkpt lat="57.38772802054882" lon="-6.204103007912636">
        <ele>16</ele>
        <time>2023-08-26T12:24:19Z</time>
      </trkpt>
      <trkpt lat="57.387821981683373" lon="-6.204143995419145">
        <ele>16</ele>
        <time>2023-08-26T12:24:20Z</time>
      </trkpt>
      <trkpt lat="57.388762012124062" lon="-6.204552026465535">
        <ele>16</ele>
        <time>2023-08-26T12:24:27Z</time>
      </trkpt>
      <trkpt lat="57.390589015558362" lon="-6.205198019742966">
        <ele>19.359999999999999</ele>
        <time>2023-08-26T12:24:38Z</time>
      </trkpt>
      <trkpt lat="57.390754977241158" lon="-6.205200031399727">
        <ele>19.359999999999999</ele>
        <time>2023-08-26T12:24:39Z</time>
      </trkpt>
      <trkpt lat="57.390925968065858" lon="-6.205138005316258">
        <ele>19.84</ele>
        <time>2023-08-26T12:24:40Z</time>
      </trkpt>
      <trkpt lat="57.393038040027022" lon="-6.204275004565716">
        <ele>21.289999999999999</ele>
        <time>2023-08-26T12:24:51Z</time>
      </trkpt>
      <trkpt lat="57.395172994583845" lon="-6.203179992735386">
        <ele>19.359999999999999</ele>
        <time>2023-08-26T12:25:01Z</time>
      </trkpt>
      <trkpt lat="57.396533964201808" lon="-6.202494017779827">
        <ele>18.399999999999999</ele>
        <time>2023-08-26T12:25:08Z</time>
      </trkpt>
      <trkpt lat="57.398068020120263" lon="-6.201368998736143">
        <ele>16.48</ele>
        <time>2023-08-26T12:25:17Z</time>
      </trkpt>
      <trkpt lat="57.399129001423717" lon="-6.200630972161889">
        <ele>17.440000000000001</ele>
        <time>2023-08-26T12:25:25Z</time>
      </trkpt>
      <trkpt lat="57.399254981428385" lon="-6.200611023232341">
        <ele>17.440000000000001</ele>
        <time>2023-08-26T12:25:26Z</time>
      </trkpt>
      <trkpt lat="57.399380961433053" lon="-6.200590990483761">
        <ele>17.920000000000002</ele>
        <time>2023-08-26T12:25:27Z</time>
      </trkpt>
      <trkpt lat="57.400625003501773" lon="-6.200815960764885">
        <ele>22.25</ele>
        <time>2023-08-26T12:25:37Z</time>
      </trkpt>
      <trkpt lat="57.400864977389574" lon="-6.200770027935505">
        <ele>22.25</ele>
        <time>2023-08-26T12:25:39Z</time>
      </trkpt>
      <trkpt lat="57.402411019429564" lon="-6.2004370149225">
        <ele>24.649999999999999</ele>
        <time>2023-08-26T12:25:51Z</time>
      </trkpt>
      <trkpt lat="57.403929987922311" lon="-6.200518989935517">
        <ele>25.129999999999999</ele>
        <time>2023-08-26T12:26:04Z</time>
      </trkpt>
      <trkpt lat="57.405273020267487" lon="-6.200843034312129">
        <ele>26.09</ele>
        <time>2023-08-26T12:26:15Z</time>
      </trkpt>
      <trkpt lat="57.405393971130252" lon="-6.200875975191593">
        <ele>26.57</ele>
        <time>2023-08-26T12:26:16Z</time>
      </trkpt>
      <trkpt lat="57.407041015103459" lon="-6.201395988464356">
        <ele>25.129999999999999</ele>
        <time>2023-08-26T12:26:29Z</time>
      </trkpt>
      <trkpt lat="57.408458981662989" lon="-6.201922036707401">
        <ele>20.809999999999999</ele>
        <time>2023-08-26T12:26:41Z</time>
      </trkpt>
      <trkpt lat="57.409545024856925" lon="-6.202265024185181">
        <ele>18.879999999999999</ele>
        <time>2023-08-26T12:26:50Z</time>
      </trkpt>
      <trkpt lat="57.409667987376451" lon="-6.202231999486685">
        <ele>18.879999999999999</ele>
        <time>2023-08-26T12:26:51Z</time>
      </trkpt>
      <trkpt lat="57.410869030281901" lon="-6.201660018414259">
        <ele>15.52</ele>
        <time>2023-08-26T12:27:01Z</time>
      </trkpt>
      <trkpt lat="57.41189799271524" lon="-6.201121984049678">
        <ele>12.630000000000001</ele>
        <time>2023-08-26T12:27:11Z</time>
      </trkpt>
      <trkpt lat="57.412007041275501" lon="-6.201090971007943">
        <ele>12.630000000000001</ele>
        <time>2023-08-26T12:27:12Z</time>
      </trkpt>
      <trkpt lat="57.412121035158634" lon="-6.201079990714788">
        <ele>12.15</ele>
        <time>2023-08-26T12:27:13Z</time>
      </trkpt>
      <trkpt lat="57.412829976528883" lon="-6.201044032350183">
        <ele>9.27</ele>
        <time>2023-08-26T12:27:20Z</time>
      </trkpt>
      <trkpt lat="57.412867024540901" lon="-6.201046966016293">
        <ele>8.789999999999999</ele>
        <time>2023-08-26T12:27:21Z</time>
      </trkpt>
      <trkpt lat="57.412964003160596" lon="-6.201053000986576">
        <ele>7.83</ele>
        <time>2023-08-26T12:27:23Z</time>
      </trkpt>
      <trkpt lat="57.412995016202331" lon="-6.201084014028311">
        <ele>7.35</ele>
        <time>2023-08-26T12:27:24Z</time>
      </trkpt>
      <trkpt lat="57.413063999265432" lon="-6.201152997091413">
        <ele>7.35</ele>
        <time>2023-08-26T12:27:25Z</time>
      </trkpt>
      <trkpt lat="57.413142034783959" lon="-6.20123497210443">
        <ele>6.87</ele>
        <time>2023-08-26T12:27:26Z</time>
      </trkpt>
      <trkpt lat="57.413215963169932" lon="-6.201346032321453">
        <ele>7.35</ele>
        <time>2023-08-26T12:27:27Z</time>
      </trkpt>
      <trkpt lat="57.413373962044716" lon="-6.201582988724113">
        <ele>7.83</ele>
        <time>2023-08-26T12:27:29Z</time>
      </trkpt>
      <trkpt lat="57.413830021396279" lon="-6.202515978366137">
        <ele>12.15</ele>
        <time>2023-08-26T12:27:35Z</time>
      </trkpt>
      <trkpt lat="57.413887018337846" lon="-6.202685963362455">
        <ele>13.119999999999999</ele>
        <time>2023-08-26T12:27:36Z</time>
      </trkpt>
      <trkpt lat="57.413925994187593" lon="-6.202883021906018">
        <ele>14.08</ele>
        <time>2023-08-26T12:27:37Z</time>
      </trkpt>
      <trkpt lat="57.413950972259045" lon="-6.203072033822537">
        <ele>14.56</ele>
        <time>2023-08-26T12:27:38Z</time>
      </trkpt>
      <trkpt lat="57.413977961987257" lon="-6.203260039910674">
        <ele>15.52</ele>
        <time>2023-08-26T12:27:39Z</time>
      </trkpt>
      <trkpt lat="57.414301000535488" lon="-6.205479986965656">
        <ele>20.32</ele>
        <time>2023-08-26T12:27:50Z</time>
      </trkpt>
      <trkpt lat="57.414346011355519" lon="-6.205667993053794">
        <ele>20.32</ele>
        <time>2023-08-26T12:27:51Z</time>
      </trkpt>
      <trkpt lat="57.414389010518789" lon="-6.205846024677157">
        <ele>20.809999999999999</ele>
        <time>2023-08-26T12:27:52Z</time>
      </trkpt>
      <trkpt lat="57.414436032995582" lon="-6.206019027158618">
        <ele>20.809999999999999</ele>
        <time>2023-08-26T12:27:53Z</time>
      </trkpt>
      <trkpt lat="57.415086971595883" lon="-6.207250999286771">
        <ele>20.32</ele>
        <time>2023-08-26T12:28:02Z</time>
      </trkpt>
      <trkpt lat="57.41595902480185" lon="-6.208632001653314">
        <ele>20.32</ele>
        <time>2023-08-26T12:28:13Z</time>
      </trkpt>
      <trkpt lat="57.41628197953105" lon="-6.209066016599536">
        <ele>20.809999999999999</ele>
        <time>2023-08-26T12:28:17Z</time>
      </trkpt>
      <trkpt lat="57.416890002787113" lon="-6.209680996835232">
        <ele>21.77</ele>
        <time>2023-08-26T12:28:25Z</time>
      </trkpt>
      <trkpt lat="57.41696803830564" lon="-6.209900015965104">
        <ele>21.77</ele>
        <time>2023-08-26T12:28:27Z</time>
      </trkpt>
      <trkpt lat="57.417008019983768" lon="-6.209919964894652">
        <ele>21.77</ele>
        <time>2023-08-26T12:28:28Z</time>
      </trkpt>
      <trkpt lat="57.417087983340025" lon="-6.209873026236892">
        <ele>21.77</ele>
        <time>2023-08-26T12:28:29Z</time>
      </trkpt>
      <trkpt lat="57.417121008038521" lon="-6.209775963798165">
        <ele>21.289999999999999</ele>
        <time>2023-08-26T12:28:30Z</time>
      </trkpt>
      <trkpt lat="57.417137017473578" lon="-6.209707986563444">
        <ele>21.289999999999999</ele>
        <time>2023-08-26T12:28:31Z</time>
      </trkpt>
      <trkpt lat="57.417087983340025" lon="-6.209573959931731">
        <ele>21.289999999999999</ele>
        <time>2023-08-26T12:28:32Z</time>
      </trkpt>
      <trkpt lat="57.417049007490277" lon="-6.209518974646926">
        <ele>20.809999999999999</ele>
        <time>2023-08-26T12:28:33Z</time>
      </trkpt>
      <trkpt lat="57.417040960863233" lon="-6.209506988525391">
        <ele>20.809999999999999</ele>
        <time>2023-08-26T12:28:34Z</time>
      </trkpt>
      <trkpt lat="57.416890002787113" lon="-6.209680996835232">
        <ele>20.809999999999999</ele>
        <time>2023-08-26T12:28:35Z</time>
      </trkpt>
      <trkpt lat="57.416833005845547" lon="-6.209632968530059">
        <ele>20.809999999999999</ele>
        <time>2023-08-26T12:28:36Z</time>
      </trkpt>
      <trkpt lat="57.416764022782445" lon="-6.209574965760112">
        <ele>20.32</ele>
        <time>2023-08-26T12:28:37Z</time>
      </trkpt>
      <trkpt lat="57.416686993092299" lon="-6.209509000182152">
        <ele>20.32</ele>
        <time>2023-08-26T12:28:38Z</time>
      </trkpt>
      <trkpt lat="57.41660300642252" lon="-6.209436999633908">
        <ele>20.32</ele>
        <time>2023-08-26T12:28:39Z</time>
      </trkpt>
      <trkpt lat="57.416513990610838" lon="-6.209361981600523">
        <ele>20.32</ele>
        <time>2023-08-26T12:28:40Z</time>
      </trkpt>
      <trkpt lat="57.416424974799156" lon="-6.209257040172815">
        <ele>20.32</ele>
        <time>2023-08-26T12:28:41Z</time>
      </trkpt>
      <trkpt lat="57.415482010692358" lon="-6.207926999777556">
        <ele>17.440000000000001</ele>
        <time>2023-08-26T12:28:52Z</time>
      </trkpt>
      <trkpt lat="57.41533700376749" lon="-6.207681996747851">
        <ele>18.399999999999999</ele>
        <time>2023-08-26T12:28:54Z</time>
      </trkpt>
      <trkpt lat="57.415109016001225" lon="-6.207297015935183">
        <ele>18.879999999999999</ele>
        <time>2023-08-26T12:28:59Z</time>
      </trkpt>
      <trkpt lat="57.415081020444632" lon="-6.207343032583594">
        <ele>18.879999999999999</ele>
        <time>2023-08-26T12:29:00Z</time>
      </trkpt>
      <trkpt lat="57.415042966604233" lon="-6.207403969019651">
        <ele>18.879999999999999</ele>
        <time>2023-08-26T12:29:01Z</time>
      </trkpt>
      <trkpt lat="57.414995022118092" lon="-6.207480998709798">
        <ele>18.879999999999999</ele>
        <time>2023-08-26T12:29:02Z</time>
      </trkpt>
      <trkpt lat="57.414937019348145" lon="-6.207574037835002">
        <ele>18.879999999999999</ele>
        <time>2023-08-26T12:29:03Z</time>
      </trkpt>
      <trkpt lat="57.414872981607914" lon="-6.207677973434329">
        <ele>18.879999999999999</ele>
        <time>2023-08-26T12:29:04Z</time>
      </trkpt>
      <trkpt lat="57.414492024108768" lon="-6.208417005836964">
        <ele>19.84</ele>
        <time>2023-08-26T12:29:09Z</time>
      </trkpt>
      <trkpt lat="57.414409965276718" lon="-6.208619009703398">
        <ele>20.809999999999999</ele>
        <time>2023-08-26T12:29:10Z</time>
      </trkpt>
      <trkpt lat="57.413974022492766" lon="-6.210272004827857">
        <ele>28.02</ele>
        <time>2023-08-26T12:29:17Z</time>
      </trkpt>
      <trkpt lat="57.413700018078089" lon="-6.21195500716567">
        <ele>34.259999999999998</ele>
        <time>2023-08-26T12:29:26Z</time>
      </trkpt>
      <trkpt lat="57.413665987551212" lon="-6.212248960509896">
        <ele>34.259999999999998</ele>
        <time>2023-08-26T12:29:28Z</time>
      </trkpt>
      <trkpt lat="57.413654001429677" lon="-6.212410982698202">
        <ele>34.740000000000002</ele>
        <time>2023-08-26T12:29:29Z</time>
      </trkpt>
      <trkpt lat="57.413674034178257" lon="-6.21257996186614">
        <ele>35.229999999999997</ele>
        <time>2023-08-26T12:29:30Z</time>
      </trkpt>
      <trkpt lat="57.413695994764566" lon="-6.212769979611039">
        <ele>36.189999999999998</ele>
        <time>2023-08-26T12:29:31Z</time>
      </trkpt>
      <trkpt lat="57.413718961179256" lon="-6.212967038154602">
        <ele>36.189999999999998</ele>
        <time>2023-08-26T12:29:32Z</time>
      </trkpt>
      <trkpt lat="57.413764977827668" lon="-6.213354030624032">
        <ele>38.109999999999999</ele>
        <time>2023-08-26T12:29:34Z</time>
      </trkpt>
      <trkpt lat="57.414186000823975" lon="-6.214890014380217">
        <ele>47.719999999999999</ele>
        <time>2023-08-26T12:29:43Z</time>
      </trkpt>
      <trkpt lat="57.414813973009586" lon="-6.216448964551091">
        <ele>52.530000000000001</ele>
        <time>2023-08-26T12:29:52Z</time>
      </trkpt>
      <trkpt lat="57.414872981607914" lon="-6.216588020324707">
        <ele>53.969999999999999</ele>
        <time>2023-08-26T12:29:53Z</time>
      </trkpt>
      <trkpt lat="57.414891002699733" lon="-6.216816008090973">
        <ele>54.450000000000003</ele>
        <time>2023-08-26T12:29:54Z</time>
      </trkpt>
      <trkpt lat="57.414908017963171" lon="-6.217033015564084">
        <ele>55.409999999999997</ele>
        <time>2023-08-26T12:29:55Z</time>
      </trkpt>
      <trkpt lat="57.414925033226609" lon="-6.217263014987111">
        <ele>56.369999999999997</ele>
        <time>2023-08-26T12:29:56Z</time>
      </trkpt>
      <trkpt lat="57.414942970499396" lon="-6.217497037723661">
        <ele>56.859999999999999</ele>
        <time>2023-08-26T12:29:57Z</time>
      </trkpt>
      <trkpt lat="57.414958979934454" lon="-6.217703986912966">
        <ele>58.299999999999997</ele>
        <time>2023-08-26T12:29:58Z</time>
      </trkpt>
      <trkpt lat="57.415004996582866" lon="-6.217986037954688">
        <ele>59.259999999999998</ele>
        <time>2023-08-26T12:29:59Z</time>
      </trkpt>
      <trkpt lat="57.415046989917755" lon="-6.218248978257179">
        <ele>59.740000000000002</ele>
        <time>2023-08-26T12:30:00Z</time>
      </trkpt>
      <trkpt lat="57.415103986859322" lon="-6.218503033742309">
        <ele>60.219999999999999</ele>
        <time>2023-08-26T12:30:01Z</time>
      </trkpt>
      <trkpt lat="57.415173975750804" lon="-6.218755999580026">
        <ele>60.700000000000003</ele>
        <time>2023-08-26T12:30:02Z</time>
      </trkpt>
      <trkpt lat="57.415715027600527" lon="-6.22089397162199">
        <ele>63.579999999999998</ele>
        <time>2023-08-26T12:30:10Z</time>
      </trkpt>
      <trkpt lat="57.415961036458611" lon="-6.222048997879028">
        <ele>64.069999999999993</ele>
        <time>2023-08-26T12:30:16Z</time>
      </trkpt>
      <trkpt lat="57.415987020358443" lon="-6.222171960398555">
        <ele>64.069999999999993</ele>
        <time>2023-08-26T12:30:17Z</time>
      </trkpt>
      <trkpt lat="57.416015015915036" lon="-6.222306992858648">
        <ele>64.069999999999993</ele>
        <time>2023-08-26T12:30:18Z</time>
      </trkpt>
      <trkpt lat="57.416049968451262" lon="-6.222471026703715">
        <ele>64.069999999999993</ele>
        <time>2023-08-26T12:30:19Z</time>
      </trkpt>
      <trkpt lat="57.416154993698001" lon="-6.223117019981146">
        <ele>64.069999999999993</ele>
        <time>2023-08-26T12:30:22Z</time>
      </trkpt>
      <trkpt lat="57.416341993957758" lon="-6.224772026762366">
        <ele>67.430000000000007</ele>
        <time>2023-08-26T12:30:29Z</time>
      </trkpt>
      <trkpt lat="57.416450958698988" lon="-6.225524973124266">
        <ele>70.790000000000006</ele>
        <time>2023-08-26T12:30:33Z</time>
      </trkpt>
      <trkpt lat="57.416492030024529" lon="-6.225725971162319">
        <ele>71.760000000000005</ele>
        <time>2023-08-26T12:30:34Z</time>
      </trkpt>
      <trkpt lat="57.416911963373423" lon="-6.22778900898993">
        <ele>71.760000000000005</ele>
        <time>2023-08-26T12:30:42Z</time>
      </trkpt>
      <trkpt lat="57.417200971394777" lon="-6.230195034295321">
        <ele>69.349999999999994</ele>
        <time>2023-08-26T12:30:51Z</time>
      </trkpt>
      <trkpt lat="57.41756902076304" lon="-6.232578009366989">
        <ele>64.549999999999997</ele>
        <time>2023-08-26T12:31:00Z</time>
      </trkpt>
      <trkpt lat="57.41802298463881" lon="-6.235210010781884">
        <ele>61.659999999999997</ele>
        <time>2023-08-26T12:31:10Z</time>
      </trkpt>
      <trkpt lat="57.41847200319171" lon="-6.237233988940716">
        <ele>63.579999999999998</ele>
        <time>2023-08-26T12:31:17Z</time>
      </trkpt>
      <trkpt lat="57.419212041422725" lon="-6.23939199373126">
        <ele>68.390000000000001</ele>
        <time>2023-08-26T12:31:26Z</time>
      </trkpt>
      <trkpt lat="57.419874966144562" lon="-6.241158982738853">
        <ele>68.870000000000005</ele>
        <time>2023-08-26T12:31:34Z</time>
      </trkpt>
      <trkpt lat="57.420489024370909" lon="-6.243456965312362">
        <ele>71.760000000000005</ele>
        <time>2023-08-26T12:31:43Z</time>
      </trkpt>
      <trkpt lat="57.420909963548183" lon="-6.245747990906239">
        <ele>72.239999999999995</ele>
        <time>2023-08-26T12:31:51Z</time>
      </trkpt>
      <trkpt lat="57.421118002384901" lon="-6.2481779884547">
        <ele>76.560000000000002</ele>
        <time>2023-08-26T12:31:59Z</time>
      </trkpt>
      <trkpt lat="57.421181034296751" lon="-6.248941998928785">
        <ele>78.480000000000004</ele>
        <time>2023-08-26T12:32:02Z</time>
      </trkpt>
      <trkpt lat="57.421111967414618" lon="-6.251474004238844">
        <ele>86.180000000000007</ele>
        <time>2023-08-26T12:32:11Z</time>
      </trkpt>
      <trkpt lat="57.421097969636321" lon="-6.253551039844751">
        <ele>90.019999999999996</ele>
        <time>2023-08-26T12:32:19Z</time>
      </trkpt>
      <trkpt lat="57.42096696048975" lon="-6.256495015695691">
        <ele>86.659999999999997</ele>
        <time>2023-08-26T12:32:29Z</time>
      </trkpt>
      <trkpt lat="57.420842992141843" lon="-6.258215988054872">
        <ele>83.769999999999996</ele>
        <time>2023-08-26T12:32:36Z</time>
      </trkpt>
      <trkpt lat="57.420670995488763" lon="-6.259775022044778">
        <ele>85.689999999999998</ele>
        <time>2023-08-26T12:32:42Z</time>
      </trkpt>
      <trkpt lat="57.420683987438679" lon="-6.25999404117465">
        <ele>85.689999999999998</ele>
        <time>2023-08-26T12:32:43Z</time>
      </trkpt>
      <trkpt lat="57.420717012137175" lon="-6.260200990363956">
        <ele>86.180000000000007</ele>
        <time>2023-08-26T12:32:44Z</time>
      </trkpt>
      <trkpt lat="57.420754982158542" lon="-6.260430989786983">
        <ele>86.180000000000007</ele>
        <time>2023-08-26T12:32:45Z</time>
      </trkpt>
      <trkpt lat="57.420839974656701" lon="-6.260614972561598">
        <ele>86.180000000000007</ele>
        <time>2023-08-26T12:32:46Z</time>
      </trkpt>
      <trkpt lat="57.420932007953525" lon="-6.260812031105161">
        <ele>85.689999999999998</ele>
        <time>2023-08-26T12:32:47Z</time>
      </trkpt>
      <trkpt lat="57.4210299924016" lon="-6.261021997779608">
        <ele>85.209999999999994</ele>
        <time>2023-08-26T12:32:48Z</time>
      </trkpt>
      <trkpt lat="57.421790985390544" lon="-6.262324964627624">
        <ele>85.209999999999994</ele>
        <time>2023-08-26T12:32:55Z</time>
      </trkpt>
      <trkpt lat="57.421883018687367" lon="-6.262495033442974">
        <ele>85.689999999999998</ele>
        <time>2023-08-26T12:32:56Z</time>
      </trkpt>
      <trkpt lat="57.421943033114076" lon="-6.262703994289041">
        <ele>86.180000000000007</ele>
        <time>2023-08-26T12:32:57Z</time>
      </trkpt>
      <trkpt lat="57.422005981206894" lon="-6.262926030904055">
        <ele>86.180000000000007</ele>
        <time>2023-08-26T12:32:58Z</time>
      </trkpt>
      <trkpt lat="57.422073958441615" lon="-6.263160975649953">
        <ele>86.180000000000007</ele>
        <time>2023-08-26T12:32:59Z</time>
      </trkpt>
      <trkpt lat="57.42246899753809" lon="-6.264546001330018">
        <ele>87.140000000000001</ele>
        <time>2023-08-26T12:33:05Z</time>
      </trkpt>
      <trkpt lat="57.422547033056617" lon="-6.264723027125001">
        <ele>86.659999999999997</ele>
        <time>2023-08-26T12:33:06Z</time>
      </trkpt>
      <trkpt lat="57.423708010464907" lon="-6.266912966966629">
        <ele>84.730000000000004</ele>
        <time>2023-08-26T12:33:17Z</time>
      </trkpt>
      <trkpt lat="57.4247030261904" lon="-6.268512988463044">
        <ele>83.769999999999996</ele>
        <time>2023-08-26T12:33:26Z</time>
      </trkpt>
      <trkpt lat="57.424807967618108" lon="-6.268594963476062">
        <ele>83.290000000000006</ele>
        <time>2023-08-26T12:33:27Z</time>
      </trkpt>
      <trkpt lat="57.424908969551325" lon="-6.26867501065135">
        <ele>82.810000000000002</ele>
        <time>2023-08-26T12:33:28Z</time>
      </trkpt>
      <trkpt lat="57.425015000626445" lon="-6.268750028684735">
        <ele>82.329999999999998</ele>
        <time>2023-08-26T12:33:29Z</time>
      </trkpt>
      <trkpt lat="57.425996018573642" lon="-6.269341036677361">
        <ele>80.409999999999997</ele>
        <time>2023-08-26T12:33:38Z</time>
      </trkpt>
      <trkpt lat="57.426171032711864" lon="-6.269500041380525">
        <ele>80.409999999999997</ele>
        <time>2023-08-26T12:33:40Z</time>
      </trkpt>
      <trkpt lat="57.426246972754598" lon="-6.269624009728432">
        <ele>79.930000000000007</ele>
        <time>2023-08-26T12:33:41Z</time>
      </trkpt>
      <trkpt lat="57.426328025758266" lon="-6.269758036360145">
        <ele>79.450000000000003</ele>
        <time>2023-08-26T12:33:42Z</time>
      </trkpt>
      <trkpt lat="57.426778972148895" lon="-6.270446022972465">
        <ele>76.079999999999998</ele>
        <time>2023-08-26T12:33:47Z</time>
      </trkpt>
      <trkpt lat="57.426886009052396" lon="-6.270572002977133">
        <ele>75.599999999999994</ele>
        <time>2023-08-26T12:33:48Z</time>
      </trkpt>
      <trkpt lat="57.427955036982894" lon="-6.271866001188755">
        <ele>72.719999999999999</ele>
        <time>2023-08-26T12:33:58Z</time>
      </trkpt>
      <trkpt lat="57.429097993299365" lon="-6.273381030187011">
        <ele>66.950000000000003</ele>
        <time>2023-08-26T12:34:07Z</time>
      </trkpt>
      <trkpt lat="57.430390985682607" lon="-6.274804025888443">
        <ele>58.780000000000001</ele>
        <time>2023-08-26T12:34:17Z</time>
      </trkpt>
      <trkpt lat="57.431398993358016" lon="-6.275484971702099">
        <ele>53.490000000000002</ele>
        <time>2023-08-26T12:34:25Z</time>
      </trkpt>
      <trkpt lat="57.431523967534304" lon="-6.275617992505431">
        <ele>53.490000000000002</ele>
        <time>2023-08-26T12:34:26Z</time>
      </trkpt>
      <trkpt lat="57.432311028242111" lon="-6.277020033448935">
        <ele>55.409999999999997</ele>
        <time>2023-08-26T12:34:34Z</time>
      </trkpt>
      <trkpt lat="57.433043019846082" lon="-6.278863968327642">
        <ele>60.219999999999999</ele>
        <time>2023-08-26T12:34:43Z</time>
      </trkpt>
      <trkpt lat="57.433707034215331" lon="-6.280386038124561">
        <ele>64.069999999999993</ele>
        <time>2023-08-26T12:34:51Z</time>
      </trkpt>
      <trkpt lat="57.433747015893459" lon="-6.280594998970628">
        <ele>64.069999999999993</ele>
        <time>2023-08-26T12:34:52Z</time>
      </trkpt>
      <trkpt lat="57.433764031156898" lon="-6.280797002837062">
        <ele>64.549999999999997</ele>
        <time>2023-08-26T12:34:53Z</time>
      </trkpt>
      <trkpt lat="57.433922030031681" lon="-6.282851994037628">
        <ele>64.069999999999993</ele>
        <time>2023-08-26T12:35:02Z</time>
      </trkpt>
      <trkpt lat="57.433933010324836" lon="-6.283106971532106">
        <ele>63.579999999999998</ele>
        <time>2023-08-26T12:35:03Z</time>
      </trkpt>
      <trkpt lat="57.43400702252984" lon="-6.284920983016491">
        <ele>62.619999999999997</ele>
        <time>2023-08-26T12:35:11Z</time>
      </trkpt>
      <trkpt lat="57.434113975614309" lon="-6.285972995683551">
        <ele>60.700000000000003</ele>
        <time>2023-08-26T12:35:16Z</time>
      </trkpt>
      <trkpt lat="57.434513960033655" lon="-6.287618027999997">
        <ele>57.82</ele>
        <time>2023-08-26T12:35:25Z</time>
      </trkpt>
      <trkpt lat="57.434593001380563" lon="-6.288149021565914">
        <ele>53.969999999999999</ele>
        <time>2023-08-26T12:35:34Z</time>
      </trkpt>
      <trkpt lat="57.434721998870373" lon="-6.288321018218994">
        <ele>50.130000000000003</ele>
        <time>2023-08-26T12:35:45Z</time>
      </trkpt>
      <trkpt lat="57.434938000515103" lon="-6.289198016747832">
        <ele>49.649999999999999</ele>
        <time>2023-08-26T12:35:57Z</time>
      </trkpt>
      <trkpt lat="57.434961972758174" lon="-6.289217965677381">
        <ele>49.649999999999999</ele>
        <time>2023-08-26T12:36:12Z</time>
      </trkpt>
      <trkpt lat="57.43497496470809" lon="-6.289225006476045">
        <ele>49.649999999999999</ele>
        <time>2023-08-26T12:36:20Z</time>
      </trkpt>
      <trkpt lat="57.434971025213599" lon="-6.289144959300757">
        <ele>46.280000000000001</ele>
        <time>2023-08-26T13:00:30Z</time>
      </trkpt>
      <trkpt lat="57.434983011335135" lon="-6.289221988990903">
        <ele>51.090000000000003</ele>
        <time>2023-08-26T13:01:12Z</time>
      </trkpt>
      <trkpt lat="57.434978988021612" lon="-6.289224000647664">
        <ele>52.530000000000001</ele>
        <time>2023-08-26T13:02:00Z</time>
      </trkpt>
      <trkpt lat="57.434985022991896" lon="-6.289218971505761">
        <ele>51.57</ele>
        <time>2023-08-26T13:02:45Z</time>
      </trkpt>
      <trkpt lat="57.434969013556838" lon="-6.289259037002921">
        <ele>52.049999999999997</ele>
        <time>2023-08-26T13:02:52Z</time>
      </trkpt>
      <trkpt lat="57.43488997220993" lon="-6.289134984835982">
        <ele>51.090000000000003</ele>
        <time>2023-08-26T13:02:57Z</time>
      </trkpt>
      <trkpt lat="57.434593001380563" lon="-6.288149021565914">
        <ele>53.009999999999998</ele>
        <time>2023-08-26T13:03:11Z</time>
      </trkpt>
      <trkpt lat="57.434593001380563" lon="-6.288149021565914">
        <ele>53.490000000000002</ele>
        <time>2023-08-26T13:03:12Z</time>
      </trkpt>
      <trkpt lat="57.434721998870373" lon="-6.288321018218994">
        <ele>53.009999999999998</ele>
        <time>2023-08-26T13:03:13Z</time>
      </trkpt>
      <trkpt lat="57.434721998870373" lon="-6.288321018218994">
        <ele>53.009999999999998</ele>
        <time>2023-08-26T13:03:14Z</time>
      </trkpt>
      <trkpt lat="57.434721998870373" lon="-6.288321018218994">
        <ele>52.530000000000001</ele>
        <time>2023-08-26T13:03:15Z</time>
      </trkpt>
      <trkpt lat="57.43497203104198" lon="-6.288250023499131">
        <ele>52.530000000000001</ele>
        <time>2023-08-26T13:03:19Z</time>
      </trkpt>
      <trkpt lat="57.435062974691391" lon="-6.288190009072423">
        <ele>52.530000000000001</ele>
        <time>2023-08-26T13:03:20Z</time>
      </trkpt>
      <trkpt lat="57.435132963582873" lon="-6.288110967725515">
        <ele>52.530000000000001</ele>
        <time>2023-08-26T13:03:21Z</time>
      </trkpt>
      <trkpt lat="57.435205969959497" lon="-6.288027986884117">
        <ele>52.049999999999997</ele>
        <time>2023-08-26T13:03:22Z</time>
      </trkpt>
      <trkpt lat="57.43527595885098" lon="-6.287950035184622">
        <ele>52.049999999999997</ele>
        <time>2023-08-26T13:03:23Z</time>
      </trkpt>
      <trkpt lat="57.435344019904733" lon="-6.287874011322856">
        <ele>52.049999999999997</ele>
        <time>2023-08-26T13:03:24Z</time>
      </trkpt>
      <trkpt lat="57.435410991311073" lon="-6.287819026038051">
        <ele>51.57</ele>
        <time>2023-08-26T13:03:25Z</time>
      </trkpt>
      <trkpt lat="57.435702010989189" lon="-6.28762498497963">
        <ele>51.57</ele>
        <time>2023-08-26T13:03:29Z</time>
      </trkpt>
      <trkpt lat="57.435751967132092" lon="-6.287591960281134">
        <ele>51.57</ele>
        <time>2023-08-26T13:03:30Z</time>
      </trkpt>
      <trkpt lat="57.435818016529083" lon="-6.287609981372953">
        <ele>51.090000000000003</ele>
        <time>2023-08-26T13:03:31Z</time>
      </trkpt>
      <trkpt lat="57.435888005420566" lon="-6.287630014121532">
        <ele>51.090000000000003</ele>
        <time>2023-08-26T13:03:32Z</time>
      </trkpt>
      <trkpt lat="57.435951959341764" lon="-6.287672007456422">
        <ele>51.090000000000003</ele>
        <time>2023-08-26T13:03:33Z</time>
      </trkpt>
      <trkpt lat="57.436103001236916" lon="-6.287784995511174">
        <ele>51.57</ele>
        <time>2023-08-26T13:03:35Z</time>
      </trkpt>
      <trkpt lat="57.436369964852929" lon="-6.287962021306157">
        <ele>50.609999999999999</ele>
        <time>2023-08-26T13:03:38Z</time>
      </trkpt>
      <trkpt lat="57.436467027291656" lon="-6.287976019084454">
        <ele>50.130000000000003</ele>
        <time>2023-08-26T13:03:39Z</time>
      </trkpt>
      <trkpt lat="57.436771038919687" lon="-6.288092024624348">
        <ele>48.200000000000003</ele>
        <time>2023-08-26T13:03:42Z</time>
      </trkpt>
      <trkpt lat="57.436857959255576" lon="-6.288168970495462">
        <ele>47.719999999999999</ele>
        <time>2023-08-26T13:03:43Z</time>
      </trkpt>
      <trkpt lat="57.436938006430864" lon="-6.288268966600299">
        <ele>47.240000000000002</ele>
        <time>2023-08-26T13:03:44Z</time>
      </trkpt>
      <trkpt lat="57.437012018635869" lon="-6.288362005725503">
        <ele>46.759999999999998</ele>
        <time>2023-08-26T13:03:45Z</time>
      </trkpt>
      <trkpt lat="57.437082007527351" lon="-6.288450015708804">
        <ele>46.280000000000001</ele>
        <time>2023-08-26T13:03:46Z</time>
      </trkpt>
      <trkpt lat="57.437140010297298" lon="-6.288561997935176">
        <ele>45.799999999999997</ele>
        <time>2023-08-26T13:03:47Z</time>
      </trkpt>
      <trkpt lat="57.437198013067245" lon="-6.288674985989928">
        <ele>45.32</ele>
        <time>2023-08-26T13:03:48Z</time>
      </trkpt>
      <trkpt lat="57.437453996390104" lon="-6.28917396068573">
        <ele>42.920000000000002</ele>
        <time>2023-08-26T13:03:52Z</time>
      </trkpt>
      <trkpt lat="57.437523985281587" lon="-6.28925702534616">
        <ele>41.950000000000003</ele>
        <time>2023-08-26T13:03:53Z</time>
      </trkpt>
      <trkpt lat="57.437592968344688" lon="-6.289326008409262">
        <ele>41.469999999999999</ele>
        <time>2023-08-26T13:03:54Z</time>
      </trkpt>
      <trkpt lat="57.437662035226822" lon="-6.289301030337811">
        <ele>40.509999999999998</ele>
        <time>2023-08-26T13:03:55Z</time>
      </trkpt>
      <trkpt lat="57.43774401023984" lon="-6.289263982325792">
        <ele>40.030000000000001</ele>
        <time>2023-08-26T13:03:56Z</time>
      </trkpt>
      <trkpt lat="57.437834031879902" lon="-6.289224000647664">
        <ele>39.549999999999997</ele>
        <time>2023-08-26T13:03:57Z</time>
      </trkpt>
      <trkpt lat="57.437926987186074" lon="-6.289182007312775">
        <ele>39.07</ele>
        <time>2023-08-26T13:03:58Z</time>
      </trkpt>
      <trkpt lat="57.438123039901257" lon="-6.289093997329474">
        <ele>38.109999999999999</ele>
        <time>2023-08-26T13:04:00Z</time>
      </trkpt>
      <trkpt lat="57.438219012692571" lon="-6.289050998166204">
        <ele>37.630000000000003</ele>
        <time>2023-08-26T13:04:01Z</time>
      </trkpt>
      <trkpt lat="57.438332000747323" lon="-6.289097014814615">
        <ele>37.149999999999999</ele>
        <time>2023-08-26T13:04:02Z</time>
      </trkpt>
      <trkpt lat="57.43843300268054" lon="-6.289139008149505">
        <ele>36.670000000000002</ele>
        <time>2023-08-26T13:04:03Z</time>
      </trkpt>
      <trkpt lat="57.438525035977364" lon="-6.289176978170872">
        <ele>36.670000000000002</ele>
        <time>2023-08-26T13:04:04Z</time>
      </trkpt>
      <trkpt lat="57.438924014568329" lon="-6.289294995367527">
        <ele>33.780000000000001</ele>
        <time>2023-08-26T13:04:09Z</time>
      </trkpt>
      <trkpt lat="57.439002972096205" lon="-6.289282003417611">
        <ele>33.299999999999997</ele>
        <time>2023-08-26T13:04:10Z</time>
      </trkpt>
      <trkpt lat="57.440033024176955" lon="-6.289116963744164">
        <ele>28.5</ele>
        <time>2023-08-26T13:04:20Z</time>
      </trkpt>
      <trkpt lat="57.441244963556528" lon="-6.288922000676394">
        <ele>24.170000000000002</ele>
        <time>2023-08-26T13:04:31Z</time>
      </trkpt>
      <trkpt lat="57.441852986812592" lon="-6.288972040638328">
        <ele>22.25</ele>
        <time>2023-08-26T13:04:37Z</time>
      </trkpt>
      <trkpt lat="57.441945020109415" lon="-6.289025014266372">
        <ele>21.77</ele>
        <time>2023-08-26T13:04:38Z</time>
      </trkpt>
      <trkpt lat="57.442029006779194" lon="-6.289110006764531">
        <ele>21.77</ele>
        <time>2023-08-26T13:04:39Z</time>
      </trkpt>
      <trkpt lat="57.442115005105734" lon="-6.289202040061355">
        <ele>21.77</ele>
        <time>2023-08-26T13:04:40Z</time>
      </trkpt>
      <trkpt lat="57.442205026745796" lon="-6.289298012852669">
        <ele>21.289999999999999</ele>
        <time>2023-08-26T13:04:41Z</time>
      </trkpt>
      <trkpt lat="57.443249998614192" lon="-6.290231002494693">
        <ele>18.879999999999999</ele>
        <time>2023-08-26T13:04:51Z</time>
      </trkpt>
      <trkpt lat="57.443444961681962" lon="-6.290364023298025">
        <ele>17.920000000000002</ele>
        <time>2023-08-26T13:04:53Z</time>
      </trkpt>
      <trkpt lat="57.443528026342392" lon="-6.29037600941956">
        <ele>17.920000000000002</ele>
        <time>2023-08-26T13:04:54Z</time>
      </trkpt>
      <trkpt lat="57.443602960556746" lon="-6.290294034406543">
        <ele>17.440000000000001</ele>
        <time>2023-08-26T13:04:55Z</time>
      </trkpt>
      <trkpt lat="57.443647971376777" lon="-6.290198983624578">
        <ele>17.440000000000001</ele>
        <time>2023-08-26T13:04:56Z</time>
      </trkpt>
      <trkpt lat="57.443698011338711" lon="-6.290091024711728">
        <ele>16.960000000000001</ele>
        <time>2023-08-26T13:04:57Z</time>
      </trkpt>
      <trkpt lat="57.443754002451897" lon="-6.289970995858312">
        <ele>16.48</ele>
        <time>2023-08-26T13:04:58Z</time>
      </trkpt>
      <trkpt lat="57.444208972156048" lon="-6.288939015939832">
        <ele>15.52</ele>
        <time>2023-08-26T13:05:05Z</time>
      </trkpt>
      <trkpt lat="57.444248031824827" lon="-6.288758972659707">
        <ele>15.52</ele>
        <time>2023-08-26T13:05:06Z</time>
      </trkpt>
      <trkpt lat="57.444729991257191" lon="-6.286801965907216">
        <ele>14.56</ele>
        <time>2023-08-26T13:05:17Z</time>
      </trkpt>
      <trkpt lat="57.444874998182058" lon="-6.286512035876513">
        <ele>14.56</ele>
        <time>2023-08-26T13:05:19Z</time>
      </trkpt>
      <trkpt lat="57.444944987073541" lon="-6.286383960396051">
        <ele>14.08</ele>
        <time>2023-08-26T13:05:20Z</time>
      </trkpt>
      <trkpt lat="57.445030985400081" lon="-6.286330986768007">
        <ele>14.56</ele>
        <time>2023-08-26T13:05:21Z</time>
      </trkpt>
      <trkpt lat="57.445120001211762" lon="-6.286277007311583">
        <ele>14.56</ele>
        <time>2023-08-26T13:05:22Z</time>
      </trkpt>
      <trkpt lat="57.445218991488218" lon="-6.286217998713255">
        <ele>14.08</ele>
        <time>2023-08-26T13:05:23Z</time>
      </trkpt>
      <trkpt lat="57.446019966155291" lon="-6.286220010370016">
        <ele>12.630000000000001</ele>
        <time>2023-08-26T13:05:30Z</time>
      </trkpt>
      <trkpt lat="57.446128008887172" lon="-6.28627197816968">
        <ele>12.630000000000001</ele>
        <time>2023-08-26T13:05:31Z</time>
      </trkpt>
      <trkpt lat="57.446235967800021" lon="-6.286324029788375">
        <ele>12.630000000000001</ele>
        <time>2023-08-26T13:05:32Z</time>
      </trkpt>
      <trkpt lat="57.446343004703522" lon="-6.286374991759658">
        <ele>12.630000000000001</ele>
        <time>2023-08-26T13:05:33Z</time>
      </trkpt>
      <trkpt lat="57.4464460182935" lon="-6.286383038386703">
        <ele>12.630000000000001</ele>
        <time>2023-08-26T13:05:34Z</time>
      </trkpt>
      <trkpt lat="57.446552971377969" lon="-6.286373985931277">
        <ele>12.630000000000001</ele>
        <time>2023-08-26T13:05:35Z</time>
      </trkpt>
      <trkpt lat="57.446646010503173" lon="-6.286343978717923">
        <ele>12.630000000000001</ele>
        <time>2023-08-26T13:05:36Z</time>
      </trkpt>
      <trkpt lat="57.446731003001332" lon="-6.286287987604737">
        <ele>12.630000000000001</ele>
        <time>2023-08-26T13:05:37Z</time>
      </trkpt>
      <trkpt lat="57.446801997721195" lon="-6.286239959299564">
        <ele>12.15</ele>
        <time>2023-08-26T13:05:38Z</time>
      </trkpt>
      <trkpt lat="57.446959996595979" lon="-6.28599101677537">
        <ele>12.15</ele>
        <time>2023-08-26T13:05:40Z</time>
      </trkpt>
      <trkpt lat="57.447687964886427" lon="-6.28483003936708">
        <ele>13.119999999999999</ele>
        <time>2023-08-26T13:05:50Z</time>
      </trkpt>
      <trkpt lat="57.448496986180544" lon="-6.283106971532106">
        <ele>16</ele>
        <time>2023-08-26T13:06:02Z</time>
      </trkpt>
      <trkpt lat="57.448562029749155" lon="-6.283023990690708">
        <ele>16</ele>
        <time>2023-08-26T13:06:03Z</time>
      </trkpt>
      <trkpt lat="57.448662025853992" lon="-6.282914020121098">
        <ele>16.48</ele>
        <time>2023-08-26T13:06:04Z</time>
      </trkpt>
      <trkpt lat="57.448749030008912" lon="-6.282914020121098">
        <ele>16.48</ele>
        <time>2023-08-26T13:06:05Z</time>
      </trkpt>
      <trkpt lat="57.448833016678691" lon="-6.282914020121098">
        <ele>16.960000000000001</ele>
        <time>2023-08-26T13:06:06Z</time>
      </trkpt>
      <trkpt lat="57.448926977813244" lon="-6.282980991527438">
        <ele>17.440000000000001</ele>
        <time>2023-08-26T13:06:07Z</time>
      </trkpt>
      <trkpt lat="57.448991015553474" lon="-6.283081993460655">
        <ele>17.920000000000002</ele>
        <time>2023-08-26T13:06:08Z</time>
      </trkpt>
      <trkpt lat="57.449059998616576" lon="-6.283189030364156">
        <ele>18.399999999999999</ele>
        <time>2023-08-26T13:06:09Z</time>
      </trkpt>
      <trkpt lat="57.449599960818887" lon="-6.284008026123047">
        <ele>20.809999999999999</ele>
        <time>2023-08-26T13:06:16Z</time>
      </trkpt>
      <trkpt lat="57.449694005772471" lon="-6.284076003357768">
        <ele>21.289999999999999</ele>
        <time>2023-08-26T13:06:17Z</time>
      </trkpt>
      <trkpt lat="57.449788972735405" lon="-6.28414498642087">
        <ele>21.77</ele>
        <time>2023-08-26T13:06:18Z</time>
      </trkpt>
      <trkpt lat="57.449885029345751" lon="-6.284213969483972">
        <ele>22.25</ele>
        <time>2023-08-26T13:06:19Z</time>
      </trkpt>
      <trkpt lat="57.449981002137065" lon="-6.284267026931047">
        <ele>22.73</ele>
        <time>2023-08-26T13:06:20Z</time>
      </trkpt>
      <trkpt lat="57.45009801350534" lon="-6.284272978082299">
        <ele>23.210000000000001</ele>
        <time>2023-08-26T13:06:21Z</time>
      </trkpt>
      <trkpt lat="57.450217958539724" lon="-6.284279013052583">
        <ele>23.210000000000001</ele>
        <time>2023-08-26T13:06:22Z</time>
      </trkpt>
      <trkpt lat="57.450344022363424" lon="-6.284284964203835">
        <ele>23.690000000000001</ele>
        <time>2023-08-26T13:06:23Z</time>
      </trkpt>
      <trkpt lat="57.451062016189098" lon="-6.284055970609188">
        <ele>26.09</ele>
        <time>2023-08-26T13:06:30Z</time>
      </trkpt>
      <trkpt lat="57.451171986758709" lon="-6.284018000587821">
        <ele>27.050000000000001</ele>
        <time>2023-08-26T13:06:33Z</time>
      </trkpt>
      <trkpt lat="57.451210962608457" lon="-6.284160995855928">
        <ele>27.530000000000001</ele>
        <time>2023-08-26T13:06:34Z</time>
      </trkpt>
      <trkpt lat="57.451218003407121" lon="-6.28427498973906">
        <ele>28.02</ele>
        <time>2023-08-26T13:06:35Z</time>
      </trkpt>
      <trkpt lat="57.451227977871895" lon="-6.28442301414907">
        <ele>28.02</ele>
        <time>2023-08-26T13:06:36Z</time>
      </trkpt>
      <trkpt lat="57.45123895816505" lon="-6.284600039944053">
        <ele>28.5</ele>
        <time>2023-08-26T13:06:37Z</time>
      </trkpt>
      <trkpt lat="57.451251028105617" lon="-6.284792991355062">
        <ele>28.5</ele>
        <time>2023-08-26T13:06:38Z</time>
      </trkpt>
      <trkpt lat="57.451380025595427" lon="-6.287080999463797">
        <ele>28.5</ele>
        <time>2023-08-26T13:06:48Z</time>
      </trkpt>
      <trkpt lat="57.451639026403427" lon="-6.289116041734815">
        <ele>27.050000000000001</ele>
        <time>2023-08-26T13:06:58Z</time>
      </trkpt>
      <trkpt lat="57.451782021671534" lon="-6.289785001426935">
        <ele>25.609999999999999</ele>
        <time>2023-08-26T13:07:07Z</time>
      </trkpt>
      <trkpt lat="57.451791996136308" lon="-6.289832023903728">
        <ele>25.609999999999999</ele>
        <time>2023-08-26T13:07:24Z</time>
      </trkpt>
      <trkpt lat="57.451826026663184" lon="-6.289984993636608">
        <ele>26.09</ele>
        <time>2023-08-26T13:07:26Z</time>
      </trkpt>
      <trkpt lat="57.451852010563016" lon="-6.290100999176502">
        <ele>26.09</ele>
        <time>2023-08-26T13:07:27Z</time>
      </trkpt>
      <trkpt lat="57.45188201777637" lon="-6.290237959474325">
        <ele>25.609999999999999</ele>
        <time>2023-08-26T13:07:28Z</time>
      </trkpt>
      <trkpt lat="57.452284013852477" lon="-6.291565988212824">
        <ele>22.25</ele>
        <time>2023-08-26T13:07:35Z</time>
      </trkpt>
      <trkpt lat="57.452904023230076" lon="-6.293465998023748">
        <ele>19.359999999999999</ele>
        <time>2023-08-26T13:07:45Z</time>
      </trkpt>
      <trkpt lat="57.453519003465772" lon="-6.29604603163898">
        <ele>16</ele>
        <time>2023-08-26T13:07:56Z</time>
      </trkpt>
      <trkpt lat="57.453506011515856" lon="-6.297403983771801">
        <ele>15.52</ele>
        <time>2023-08-26T13:08:01Z</time>
      </trkpt>
      <trkpt lat="57.453486984595656" lon="-6.297695003449917">
        <ele>15.52</ele>
        <time>2023-08-26T13:08:02Z</time>
      </trkpt>
      <trkpt lat="57.45345002040267" lon="-6.297988034784794">
        <ele>15.039999999999999</ele>
        <time>2023-08-26T13:08:03Z</time>
      </trkpt>
      <trkpt lat="57.453390005975962" lon="-6.298264972865582">
        <ele>15.52</ele>
        <time>2023-08-26T13:08:04Z</time>
      </trkpt>
      <trkpt lat="57.453329991549253" lon="-6.298545012250543">
        <ele>15.52</ele>
        <time>2023-08-26T13:08:05Z</time>
      </trkpt>
      <trkpt lat="57.453252961859107" lon="-6.298823039978743">
        <ele>15.039999999999999</ele>
        <time>2023-08-26T13:08:06Z</time>
      </trkpt>
      <trkpt lat="57.453165035694838" lon="-6.299095032736659">
        <ele>15.039999999999999</ele>
        <time>2023-08-26T13:08:07Z</time>
      </trkpt>
      <trkpt lat="57.453066967427731" lon="-6.29935797303915">
        <ele>15.039999999999999</ele>
        <time>2023-08-26T13:08:08Z</time>
      </trkpt>
      <trkpt lat="57.452951967716217" lon="-6.299600964412093">
        <ele>15.039999999999999</ele>
        <time>2023-08-26T13:08:09Z</time>
      </trkpt>
      <trkpt lat="57.451919987797737" lon="-6.30219298414886">
        <ele>12.630000000000001</ele>
        <time>2023-08-26T13:08:19Z</time>
      </trkpt>
      <trkpt lat="57.451579011976719" lon="-6.304933028295636">
        <ele>14.08</ele>
        <time>2023-08-26T13:08:28Z</time>
      </trkpt>
      <trkpt lat="57.451766012236476" lon="-6.307573998346925">
        <ele>15.039999999999999</ele>
        <time>2023-08-26T13:08:36Z</time>
      </trkpt>
      <trkpt lat="57.452533962205052" lon="-6.310882000252605">
        <ele>14.08</ele>
        <time>2023-08-26T13:08:46Z</time>
      </trkpt>
      <trkpt lat="57.453699968755245" lon="-6.315213013440371">
        <ele>12.630000000000001</ele>
        <time>2023-08-26T13:09:00Z</time>
      </trkpt>
      <trkpt lat="57.45482699945569" lon="-6.318702986463904">
        <ele>8.310000000000001</ele>
        <time>2023-08-26T13:09:12Z</time>
      </trkpt>
      <trkpt lat="57.455757977440953" lon="-6.321798004209995">
        <ele>4.94</ele>
        <time>2023-08-26T13:09:23Z</time>
      </trkpt>
      <trkpt lat="57.456547971814871" lon="-6.324478033930063">
        <ele>3.5</ele>
        <time>2023-08-26T13:09:32Z</time>
      </trkpt>
      <trkpt lat="57.457395968958735" lon="-6.326291961595416">
        <ele>2.54</ele>
        <time>2023-08-26T13:09:39Z</time>
      </trkpt>
      <trkpt lat="57.458682004362345" lon="-6.327970018610358">
        <ele>3.98</ele>
        <time>2023-08-26T13:09:48Z</time>
      </trkpt>
      <trkpt lat="57.460258975625038" lon="-6.329410029575229">
        <ele>12.15</ele>
        <time>2023-08-26T13:09:57Z</time>
      </trkpt>
      <trkpt lat="57.462231991812587" lon="-6.331267040222883">
        <ele>21.289999999999999</ele>
        <time>2023-08-26T13:10:08Z</time>
      </trkpt>
      <trkpt lat="57.46389102190733" lon="-6.333234021440148">
        <ele>30.899999999999999</ele>
        <time>2023-08-26T13:10:19Z</time>
      </trkpt>
      <trkpt lat="57.465413007885218" lon="-6.334212021902204">
        <ele>33.299999999999997</ele>
        <time>2023-08-26T13:10:28Z</time>
      </trkpt>
      <trkpt lat="57.467723982408643" lon="-6.335673993453383">
        <ele>32.82</ele>
        <time>2023-08-26T13:10:40Z</time>
      </trkpt>
      <trkpt lat="57.470484981313348" lon="-6.337683973833919">
        <ele>32.82</ele>
        <time>2023-08-26T13:10:55Z</time>
      </trkpt>
      <trkpt lat="57.472632005810738" lon="-6.33964198641479">
        <ele>36.670000000000002</ele>
        <time>2023-08-26T13:11:07Z</time>
      </trkpt>
      <trkpt lat="57.47437896206975" lon="-6.340980995446444">
        <ele>33.780000000000001</ele>
        <time>2023-08-26T13:11:16Z</time>
      </trkpt>
      <trkpt lat="57.476774007081985" lon="-6.34221900254488">
        <ele>20.809999999999999</ele>
        <time>2023-08-26T13:11:28Z</time>
      </trkpt>
      <trkpt lat="57.478091977536678" lon="-6.343468995764852">
        <ele>14.08</ele>
        <time>2023-08-26T13:11:35Z</time>
      </trkpt>
      <trkpt lat="57.479357980191708" lon="-6.3454420119524">
        <ele>10.710000000000001</ele>
        <time>2023-08-26T13:11:43Z</time>
      </trkpt>
      <trkpt lat="57.479536011815071" lon="-6.34563596919179">
        <ele>10.23</ele>
        <time>2023-08-26T13:11:44Z</time>
      </trkpt>
      <trkpt lat="57.479717982932925" lon="-6.34580503217876">
        <ele>9.75</ele>
        <time>2023-08-26T13:11:45Z</time>
      </trkpt>
      <trkpt lat="57.481675995513797" lon="-6.347244959324598">
        <ele>6.39</ele>
        <time>2023-08-26T13:11:55Z</time>
      </trkpt>
      <trkpt lat="57.484163995832205" lon="-6.34907397441566">
        <ele>7.35</ele>
        <time>2023-08-26T13:12:08Z</time>
      </trkpt>
      <trkpt lat="57.486170958727598" lon="-6.351065011695027">
        <ele>16</ele>
        <time>2023-08-26T13:12:19Z</time>
      </trkpt>
      <trkpt lat="57.48842996545136" lon="-6.353273978456855">
        <ele>25.609999999999999</ele>
        <time>2023-08-26T13:12:31Z</time>
      </trkpt>
      <trkpt lat="57.490916959941387" lon="-6.356060961261392">
        <ele>40.030000000000001</ele>
        <time>2023-08-26T13:12:45Z</time>
      </trkpt>
      <trkpt lat="57.492001997306943" lon="-6.358236987143755">
        <ele>46.280000000000001</ele>
        <time>2023-08-26T13:12:53Z</time>
      </trkpt>
      <trkpt lat="57.493072031065822" lon="-6.361025981605053">
        <ele>53.009999999999998</ele>
        <time>2023-08-26T13:13:02Z</time>
      </trkpt>
      <trkpt lat="57.494549006223679" lon="-6.364426016807556">
        <ele>56.859999999999999</ele>
        <time>2023-08-26T13:13:13Z</time>
      </trkpt>
      <trkpt lat="57.495618034154177" lon="-6.367129012942314">
        <ele>51.57</ele>
        <time>2023-08-26T13:13:22Z</time>
      </trkpt>
      <trkpt lat="57.49594702385366" lon="-6.368698021396995">
        <ele>46.759999999999998</ele>
        <time>2023-08-26T13:13:27Z</time>
      </trkpt>
      <trkpt lat="57.495974013581872" lon="-6.369052994996309">
        <ele>45.32</ele>
        <time>2023-08-26T13:13:28Z</time>
      </trkpt>
      <trkpt lat="57.495999997481704" lon="-6.369408974424005">
        <ele>44.359999999999999</ele>
        <time>2023-08-26T13:13:29Z</time>
      </trkpt>
      <trkpt lat="57.495977031067014" lon="-6.369740981608629">
        <ele>42.920000000000002</ele>
        <time>2023-08-26T13:13:30Z</time>
      </trkpt>
      <trkpt lat="57.495939983054996" lon="-6.37008598074317">
        <ele>41.469999999999999</ele>
        <time>2023-08-26T13:13:31Z</time>
      </trkpt>
      <trkpt lat="57.49590402469039" lon="-6.37043097987771">
        <ele>39.549999999999997</ele>
        <time>2023-08-26T13:13:32Z</time>
      </trkpt>
      <trkpt lat="57.49586395919323" lon="-6.370760975405574">
        <ele>37.630000000000003</ele>
        <time>2023-08-26T13:13:33Z</time>
      </trkpt>
      <trkpt lat="57.495590960606933" lon="-6.372396033257246">
        <ele>28.98</ele>
        <time>2023-08-26T13:13:38Z</time>
      </trkpt>
      <trkpt lat="57.495542010292411" lon="-6.372733991593123">
        <ele>27.530000000000001</ele>
        <time>2023-08-26T13:13:39Z</time>
      </trkpt>
      <trkpt lat="57.495538992807269" lon="-6.373082008212805">
        <ele>26.09</ele>
        <time>2023-08-26T13:13:40Z</time>
      </trkpt>
      <trkpt lat="57.495546033605933" lon="-6.373432036489248">
        <ele>25.129999999999999</ele>
        <time>2023-08-26T13:13:41Z</time>
      </trkpt>
      <trkpt lat="57.495552990585566" lon="-6.373778963461518">
        <ele>23.690000000000001</ele>
        <time>2023-08-26T13:13:42Z</time>
      </trkpt>
      <trkpt lat="57.495591966435313" lon="-6.374114993959665">
        <ele>22.73</ele>
        <time>2023-08-26T13:13:43Z</time>
      </trkpt>
      <trkpt lat="57.495648041367531" lon="-6.374439960345626">
        <ele>22.25</ele>
        <time>2023-08-26T13:13:44Z</time>
      </trkpt>
      <trkpt lat="57.495704032480717" lon="-6.374753024429083">
        <ele>21.289999999999999</ele>
        <time>2023-08-26T13:13:45Z</time>
      </trkpt>
      <trkpt lat="57.495785001665354" lon="-6.375045971944928">
        <ele>20.809999999999999</ele>
        <time>2023-08-26T13:13:46Z</time>
      </trkpt>
      <trkpt lat="57.49586102552712" lon="-6.375320982187986">
        <ele>20.32</ele>
        <time>2023-08-26T13:13:47Z</time>
      </trkpt>
      <trkpt lat="57.495951969176531" lon="-6.37554201297462">
        <ele>19.84</ele>
        <time>2023-08-26T13:13:48Z</time>
      </trkpt>
      <trkpt lat="57.496046014130116" lon="-6.375748962163925">
        <ele>19.359999999999999</ele>
        <time>2023-08-26T13:13:49Z</time>
      </trkpt>
      <trkpt lat="57.496138969436288" lon="-6.37595297768712">
        <ele>18.879999999999999</ele>
        <time>2023-08-26T13:13:50Z</time>
      </trkpt>
      <trkpt lat="57.496234020218253" lon="-6.376131009310484">
        <ele>18.399999999999999</ele>
        <time>2023-08-26T13:13:51Z</time>
      </trkpt>
      <trkpt lat="57.496354971081018" lon="-6.37629303149879">
        <ele>18.399999999999999</ele>
        <time>2023-08-26T13:13:52Z</time>
      </trkpt>
      <trkpt lat="57.496480029076338" lon="-6.376458993181586">
        <ele>18.399999999999999</ele>
        <time>2023-08-26T13:13:53Z</time>
      </trkpt>
      <trkpt lat="57.497739996761084" lon="-6.377848964184523">
        <ele>22.25</ele>
        <time>2023-08-26T13:14:02Z</time>
      </trkpt>
      <trkpt lat="57.499181013554335" lon="-6.379974028095603">
        <ele>28.5</ele>
        <time>2023-08-26T13:14:13Z</time>
      </trkpt>
      <trkpt lat="57.500232020393014" lon="-6.382686998695135">
        <ele>36.670000000000002</ele>
        <time>2023-08-26T13:14:23Z</time>
      </trkpt>
      <trkpt lat="57.50089100562036" lon="-6.385846976190805">
        <ele>41.469999999999999</ele>
        <time>2023-08-26T13:14:33Z</time>
      </trkpt>
      <trkpt lat="57.50106300227344" lon="-6.388757005333901">
        <ele>42.439999999999998</ele>
        <time>2023-08-26T13:14:42Z</time>
      </trkpt>
      <trkpt lat="57.50082696788013" lon="-6.392059978097677">
        <ele>41.469999999999999</ele>
        <time>2023-08-26T13:14:52Z</time>
      </trkpt>
      <trkpt lat="57.500108974054456" lon="-6.396110029891133">
        <ele>45.799999999999997</ele>
        <time>2023-08-26T13:15:05Z</time>
      </trkpt>
      <trkpt lat="57.499620979651809" lon="-6.399875013157725">
        <ele>39.549999999999997</ele>
        <time>2023-08-26T13:15:16Z</time>
      </trkpt>
      <trkpt lat="57.499114964157343" lon="-6.403629016131163">
        <ele>26.09</ele>
        <time>2023-08-26T13:15:27Z</time>
      </trkpt>
      <trkpt lat="57.498324969783425" lon="-6.406569974496961">
        <ele>19.359999999999999</ele>
        <time>2023-08-26T13:15:36Z</time>
      </trkpt>
      <trkpt lat="57.497125016525388" lon="-6.409507999196649">
        <ele>25.609999999999999</ele>
        <time>2023-08-26T13:15:46Z</time>
      </trkpt>
      <trkpt lat="57.495648041367531" lon="-6.413085982203484">
        <ele>37.149999999999999</ele>
        <time>2023-08-26T13:15:58Z</time>
      </trkpt>
      <trkpt lat="57.494194032624364" lon="-6.417407020926476">
        <ele>42.920000000000002</ele>
        <time>2023-08-26T13:16:11Z</time>
      </trkpt>
      <trkpt lat="57.493271017447114" lon="-6.420045979321003">
        <ele>47.240000000000002</ele>
        <time>2023-08-26T13:16:20Z</time>
      </trkpt>
      <trkpt lat="57.492237025871873" lon="-6.421797964721918">
        <ele>49.159999999999997</ele>
        <time>2023-08-26T13:16:28Z</time>
      </trkpt>
      <trkpt lat="57.491205967962742" lon="-6.423459006473422">
        <ele>43.399999999999999</ele>
        <time>2023-08-26T13:16:36Z</time>
      </trkpt>
      <trkpt lat="57.490730965510011" lon="-6.424692990258336">
        <ele>38.590000000000003</ele>
        <time>2023-08-26T13:16:41Z</time>
      </trkpt>
      <trkpt lat="57.490610014647245" lon="-6.424905974417925">
        <ele>37.630000000000003</ele>
        <time>2023-08-26T13:16:42Z</time>
      </trkpt>
      <trkpt lat="57.490249006077647" lon="-6.42551701515913">
        <ele>35.229999999999997</ele>
        <time>2023-08-26T13:16:45Z</time>
      </trkpt>
      <trkpt lat="57.48894302174449" lon="-6.427030032500625">
        <ele>30.420000000000002</ele>
        <time>2023-08-26T13:16:55Z</time>
      </trkpt>
      <trkpt lat="57.487802999094129" lon="-6.428105011582375">
        <ele>27.530000000000001</ele>
        <time>2023-08-26T13:17:01Z</time>
      </trkpt>
      <trkpt lat="57.485940959304571" lon="-6.429777033627033">
        <ele>22.73</ele>
        <time>2023-08-26T13:17:10Z</time>
      </trkpt>
      <trkpt lat="57.484042039141059" lon="-6.431178990751505">
        <ele>28.02</ele>
        <time>2023-08-26T13:17:20Z</time>
      </trkpt>
      <trkpt lat="57.482268009334803" lon="-6.431434974074364">
        <ele>30.899999999999999</ele>
        <time>2023-08-26T13:17:28Z</time>
      </trkpt>
      <trkpt lat="57.479208027943969" lon="-6.431042030453682">
        <ele>27.050000000000001</ele>
        <time>2023-08-26T13:17:42Z</time>
      </trkpt>
      <trkpt lat="57.477354034781456" lon="-6.431023003533483">
        <ele>20.809999999999999</ele>
        <time>2023-08-26T13:17:51Z</time>
      </trkpt>
      <trkpt lat="57.47394897043705" lon="-6.431087041273713">
        <ele>6.87</ele>
        <time>2023-08-26T13:18:06Z</time>
      </trkpt>
      <trkpt lat="57.472225986421108" lon="-6.430657971650362">
        <ele>3.98</ele>
        <time>2023-08-26T13:18:14Z</time>
      </trkpt>
      <trkpt lat="57.471672026440501" lon="-6.430607009679079">
        <ele>3.5</ele>
        <time>2023-08-26T13:18:17Z</time>
      </trkpt>
      <trkpt lat="57.471486032009125" lon="-6.430707005783916">
        <ele>3.02</ele>
        <time>2023-08-26T13:18:18Z</time>
      </trkpt>
      <trkpt lat="57.471313029527664" lon="-6.430800966918469">
        <ele>3.02</ele>
        <time>2023-08-26T13:18:19Z</time>
      </trkpt>
      <trkpt lat="57.471147989854217" lon="-6.430898029357195">
        <ele>3.02</ele>
        <time>2023-08-26T13:18:20Z</time>
      </trkpt>
      <trkpt lat="57.471007006242871" lon="-6.431088969111443">
        <ele>3.02</ele>
        <time>2023-08-26T13:18:21Z</time>
      </trkpt>
      <trkpt lat="57.470860993489623" lon="-6.431287033483386">
        <ele>3.02</ele>
        <time>2023-08-26T13:18:22Z</time>
      </trkpt>
      <trkpt lat="57.470727972686291" lon="-6.431513009592891">
        <ele>3.02</ele>
        <time>2023-08-26T13:18:23Z</time>
      </trkpt>
      <trkpt lat="57.470602998510003" lon="-6.431771004572511">
        <ele>2.54</ele>
        <time>2023-08-26T13:18:24Z</time>
      </trkpt>
      <trkpt lat="57.470492022112012" lon="-6.432002009823918">
        <ele>2.54</ele>
        <time>2023-08-26T13:18:25Z</time>
      </trkpt>
      <trkpt lat="57.470411974936724" lon="-6.432354971766472">
        <ele>2.06</ele>
        <time>2023-08-26T13:18:26Z</time>
      </trkpt>
      <trkpt lat="57.4703389685601" lon="-6.432682033628225">
        <ele>2.06</ele>
        <time>2023-08-26T13:18:27Z</time>
      </trkpt>
      <trkpt lat="57.470289012417197" lon="-6.43301596865058">
        <ele>1.58</ele>
        <time>2023-08-26T13:18:28Z</time>
      </trkpt>
      <trkpt lat="57.470268979668617" lon="-6.433373037725687">
        <ele>1.58</ele>
        <time>2023-08-26T13:18:29Z</time>
      </trkpt>
      <trkpt lat="57.470263028517365" lon="-6.433716025203466">
        <ele>1.58</ele>
        <time>2023-08-26T13:18:30Z</time>
      </trkpt>
      <trkpt lat="57.470294963568449" lon="-6.434058006852865">
        <ele>1.58</ele>
        <time>2023-08-26T13:18:31Z</time>
      </trkpt>
      <trkpt lat="57.470320025458932" lon="-6.434319019317627">
        <ele>2.06</ele>
        <time>2023-08-26T13:18:32Z</time>
      </trkpt>
      <trkpt lat="57.470411974936724" lon="-6.434679022058845">
        <ele>2.54</ele>
        <time>2023-08-26T13:18:33Z</time>
      </trkpt>
      <trkpt lat="57.470493027940392" lon="-6.434996025636792">
        <ele>3.5</ele>
        <time>2023-08-26T13:18:34Z</time>
      </trkpt>
      <trkpt lat="57.47057500295341" lon="-6.435318980365992">
        <ele>4.46</ele>
        <time>2023-08-26T13:18:35Z</time>
      </trkpt>
      <trkpt lat="57.471525007858872" lon="-6.439358973875642">
        <ele>15.039999999999999</ele>
        <time>2023-08-26T13:18:47Z</time>
      </trkpt>
      <trkpt lat="57.472192039713264" lon="-6.444039009511471">
        <ele>29.460000000000001</ele>
        <time>2023-08-26T13:19:00Z</time>
      </trkpt>
      <trkpt lat="57.472471995279193" lon="-6.448652995750308">
        <ele>42.920000000000002</ele>
        <time>2023-08-26T13:19:12Z</time>
      </trkpt>
      <trkpt lat="57.472356995567679" lon="-6.453075036406517">
        <ele>50.609999999999999</ele>
        <time>2023-08-26T13:19:23Z</time>
      </trkpt>
      <trkpt lat="57.471856009215117" lon="-6.458454038947821">
        <ele>55.890000000000001</ele>
        <time>2023-08-26T13:19:36Z</time>
      </trkpt>
      <trkpt lat="57.471367008984089" lon="-6.464535025879741">
        <ele>62.619999999999997</ele>
        <time>2023-08-26T13:19:51Z</time>
      </trkpt>
      <trkpt lat="57.471095016226172" lon="-6.468867966905236">
        <ele>55.890000000000001</ele>
        <time>2023-08-26T13:20:02Z</time>
      </trkpt>
      <trkpt lat="57.470736019313335" lon="-6.47151798941195">
        <ele>51.57</ele>
        <time>2023-08-26T13:20:10Z</time>
      </trkpt>
      <trkpt lat="57.470093965530396" lon="-6.474000960588455">
        <ele>52.530000000000001</ele>
        <time>2023-08-26T13:20:18Z</time>
      </trkpt>
      <trkpt lat="57.469100961461663" lon="-6.476246975362301">
        <ele>58.780000000000001</ele>
        <time>2023-08-26T13:20:25Z</time>
      </trkpt>
      <trkpt lat="57.467562966048717" lon="-6.478466000407934">
        <ele>69.829999999999998</ele>
        <time>2023-08-26T13:20:33Z</time>
      </trkpt>
      <trkpt lat="57.466650009155273" lon="-6.480606989935041">
        <ele>77.040000000000006</ele>
        <time>2023-08-26T13:20:39Z</time>
      </trkpt>
      <trkpt lat="57.465131962671876" lon="-6.484947977587581">
        <ele>92.900000000000006</ele>
        <time>2023-08-26T13:20:52Z</time>
      </trkpt>
      <trkpt lat="57.464282037690282" lon="-6.488171992823482">
        <ele>103.48</ele>
        <time>2023-08-26T13:21:01Z</time>
      </trkpt>
      <trkpt lat="57.46402001939714" lon="-6.491334987804294">
        <ele>113.56999999999999</ele>
        <time>2023-08-26T13:21:09Z</time>
      </trkpt>
      <trkpt lat="57.463988000527024" lon="-6.495655020698905">
        <ele>127.98999999999999</ele>
        <time>2023-08-26T13:21:20Z</time>
      </trkpt>
      <trkpt lat="57.463424988090992" lon="-6.498715002089739">
        <ele>139.05000000000001</ele>
        <time>2023-08-26T13:21:28Z</time>
      </trkpt>
      <trkpt lat="57.463217033073306" lon="-6.501162014901638">
        <ele>146.25999999999999</ele>
        <time>2023-08-26T13:21:34Z</time>
      </trkpt>
      <trkpt lat="57.463518027216196" lon="-6.503544989973307">
        <ele>153.47</ele>
        <time>2023-08-26T13:21:40Z</time>
      </trkpt>
      <trkpt lat="57.464350014925003" lon="-6.506402967497706">
        <ele>160.19999999999999</ele>
        <time>2023-08-26T13:21:48Z</time>
      </trkpt>
      <trkpt lat="57.466358989477158" lon="-6.512886034324765">
        <ele>171.25</ele>
        <time>2023-08-26T13:22:06Z</time>
      </trkpt>
      <trkpt lat="57.467658016830683" lon="-6.517634969204664">
        <ele>170.77000000000001</ele>
        <time>2023-08-26T13:22:19Z</time>
      </trkpt>
      <trkpt lat="57.468381961807609" lon="-6.521454015746713">
        <ele>164.03999999999999</ele>
        <time>2023-08-26T13:22:29Z</time>
      </trkpt>
      <trkpt lat="57.469182014465332" lon="-6.526860008016229">
        <ele>153.47</ele>
        <time>2023-08-26T13:22:43Z</time>
      </trkpt>
      <trkpt lat="57.469145972281694" lon="-6.530040018260479">
        <ele>145.78</ele>
        <time>2023-08-26T13:22:51Z</time>
      </trkpt>
      <trkpt lat="57.468912033364177" lon="-6.533497972413898">
        <ele>133.75999999999999</ele>
        <time>2023-08-26T13:23:00Z</time>
      </trkpt>
      <trkpt lat="57.469238005578518" lon="-6.535824034363031">
        <ele>123.19</ele>
        <time>2023-08-26T13:23:06Z</time>
      </trkpt>
      <trkpt lat="57.469361973926425" lon="-6.536530964076519">
        <ele>119.34</ele>
        <time>2023-08-26T13:23:08Z</time>
      </trkpt>
      <trkpt lat="57.469415031373501" lon="-6.53687302954495">
        <ele>117.42</ele>
        <time>2023-08-26T13:23:09Z</time>
      </trkpt>
      <trkpt lat="57.469440009444952" lon="-6.537226997315884">
        <ele>115.5</ele>
        <time>2023-08-26T13:23:10Z</time>
      </trkpt>
      <trkpt lat="57.469440009444952" lon="-6.537951026111841">
        <ele>112.61</ele>
        <time>2023-08-26T13:23:12Z</time>
      </trkpt>
      <trkpt lat="57.469401033595204" lon="-6.538312034681439">
        <ele>111.17</ele>
        <time>2023-08-26T13:23:13Z</time>
      </trkpt>
      <trkpt lat="57.469338001683354" lon="-6.538667008280754">
        <ele>109.25</ele>
        <time>2023-08-26T13:23:14Z</time>
      </trkpt>
      <trkpt lat="57.469274969771504" lon="-6.539027011021972">
        <ele>108.29000000000001</ele>
        <time>2023-08-26T13:23:15Z</time>
      </trkpt>
      <trkpt lat="57.469186037778854" lon="-6.539359018206596">
        <ele>107.31999999999999</ele>
        <time>2023-08-26T13:23:16Z</time>
      </trkpt>
      <trkpt lat="57.469073971733451" lon="-6.539679039269686">
        <ele>106.36</ele>
        <time>2023-08-26T13:23:17Z</time>
      </trkpt>
      <trkpt lat="57.468960983678699" lon="-6.540001993998885">
        <ele>105.88</ele>
        <time>2023-08-26T13:23:18Z</time>
      </trkpt>
      <trkpt lat="57.468824023380876" lon="-6.540289996191859">
        <ele>105.40000000000001</ele>
        <time>2023-08-26T13:23:19Z</time>
      </trkpt>
      <trkpt lat="57.468679016456008" lon="-6.540555031970143">
        <ele>105.40000000000001</ele>
        <time>2023-08-26T13:23:20Z</time>
      </trkpt>
      <trkpt lat="57.46853300370276" lon="-6.540801040828228">
        <ele>104.92</ele>
        <time>2023-08-26T13:23:21Z</time>
      </trkpt>
      <trkpt lat="57.468363018706441" lon="-6.540984017774463">
        <ele>104.92</ele>
        <time>2023-08-26T13:23:22Z</time>
      </trkpt>
      <trkpt lat="57.468183981254697" lon="-6.541135981678963">
        <ele>105.40000000000001</ele>
        <time>2023-08-26T13:23:23Z</time>
      </trkpt>
      <trkpt lat="57.46799798682332" lon="-6.541271014139056">
        <ele>105.88</ele>
        <time>2023-08-26T13:23:24Z</time>
      </trkpt>
      <trkpt lat="57.467807969078422" lon="-6.541399005800486">
        <ele>106.36</ele>
        <time>2023-08-26T13:23:25Z</time>
      </trkpt>
      <trkpt lat="57.467604037374258" lon="-6.541459020227194">
        <ele>106.84</ele>
        <time>2023-08-26T13:23:26Z</time>
      </trkpt>
      <trkpt lat="57.467397004365921" lon="-6.541519034653902">
        <ele>107.81</ele>
        <time>2023-08-26T13:23:27Z</time>
      </trkpt>
      <trkpt lat="57.467188965529203" lon="-6.541578965261579">
        <ele>108.77</ele>
        <time>2023-08-26T13:23:28Z</time>
      </trkpt>
      <trkpt lat="57.464768020436168" lon="-6.542023038491607">
        <ele>119.81999999999999</ele>
        <time>2023-08-26T13:23:39Z</time>
      </trkpt>
      <trkpt lat="57.462628958746791" lon="-6.542474990710616">
        <ele>125.11</ele>
        <time>2023-08-26T13:23:48Z</time>
      </trkpt>
      <trkpt lat="57.461131028831005" lon="-6.541894963011146">
        <ele>124.63</ele>
        <time>2023-08-26T13:23:55Z</time>
      </trkpt>
      <trkpt lat="57.459405027329922" lon="-6.541531020775437">
        <ele>120.3</ele>
        <time>2023-08-26T13:24:03Z</time>
      </trkpt>
      <trkpt lat="57.457073014229536" lon="-6.54201096855104">
        <ele>114.53</ele>
        <time>2023-08-26T13:24:14Z</time>
      </trkpt>
      <trkpt lat="57.454259041696787" lon="-6.542886039242148">
        <ele>108.77</ele>
        <time>2023-08-26T13:24:27Z</time>
      </trkpt>
      <trkpt lat="57.452113023027778" lon="-6.543568996712565">
        <ele>103.48</ele>
        <time>2023-08-26T13:24:37Z</time>
      </trkpt>
      <trkpt lat="57.44962896220386" lon="-6.543699000030756">
        <ele>94.829999999999998</ele>
        <time>2023-08-26T13:24:48Z</time>
      </trkpt>
      <trkpt lat="57.448176965117455" lon="-6.542960973456502">
        <ele>93.390000000000001</ele>
        <time>2023-08-26T13:24:55Z</time>
      </trkpt>
      <trkpt lat="57.447148002684116" lon="-6.542388992384076">
        <ele>91.939999999999998</ele>
        <time>2023-08-26T13:25:00Z</time>
      </trkpt>
      <trkpt lat="57.446049973368645" lon="-6.54239896684885">
        <ele>89.060000000000002</ele>
        <time>2023-08-26T13:25:05Z</time>
      </trkpt>
      <trkpt lat="57.444159016013145" lon="-6.543017970398068">
        <ele>80.409999999999997</ele>
        <time>2023-08-26T13:25:14Z</time>
      </trkpt>
      <trkpt lat="57.442049039527774" lon="-6.543882982805371">
        <ele>68.870000000000005</ele>
        <time>2023-08-26T13:25:24Z</time>
      </trkpt>
      <trkpt lat="57.44101395830512" lon="-6.54527697712183">
        <ele>64.549999999999997</ele>
        <time>2023-08-26T13:25:30Z</time>
      </trkpt>
      <trkpt lat="57.440427979454398" lon="-6.546976994723082">
        <ele>63.100000000000001</ele>
        <time>2023-08-26T13:25:35Z</time>
      </trkpt>
      <trkpt lat="57.440362013876438" lon="-6.547365998849273">
        <ele>63.100000000000001</ele>
        <time>2023-08-26T13:25:36Z</time>
      </trkpt>
      <trkpt lat="57.439429024234414" lon="-6.552877016365528">
        <ele>61.659999999999997</ele>
        <time>2023-08-26T13:25:50Z</time>
      </trkpt>
      <trkpt lat="57.438844973221421" lon="-6.557606002315879">
        <ele>58.299999999999997</ele>
        <time>2023-08-26T13:26:02Z</time>
      </trkpt>
      <trkpt lat="57.439015964046121" lon="-6.559982020407915">
        <ele>57.82</ele>
        <time>2023-08-26T13:26:09Z</time>
      </trkpt>
      <trkpt lat="57.439017975702882" lon="-6.562192998826504">
        <ele>56.859999999999999</ele>
        <time>2023-08-26T13:26:16Z</time>
      </trkpt>
      <trkpt lat="57.438554037362337" lon="-6.564445970579982">
        <ele>53.009999999999998</ele>
        <time>2023-08-26T13:26:23Z</time>
      </trkpt>
      <trkpt lat="57.4380689766258" lon="-6.566582014784217">
        <ele>49.649999999999999</ele>
        <time>2023-08-26T13:26:31Z</time>
      </trkpt>
      <trkpt lat="57.437535971403122" lon="-6.569581981748343">
        <ele>47.719999999999999</ele>
        <time>2023-08-26T13:26:44Z</time>
      </trkpt>
      <trkpt lat="57.437190972268581" lon="-6.571843000128865">
        <ele>41.469999999999999</ele>
        <time>2023-08-26T13:26:56Z</time>
      </trkpt>
      <trkpt lat="57.436914034187794" lon="-6.573705039918423">
        <ele>38.109999999999999</ele>
        <time>2023-08-26T13:27:06Z</time>
      </trkpt>
      <trkpt lat="57.43688696064055" lon="-6.573887011036277">
        <ele>38.109999999999999</ele>
        <time>2023-08-26T13:27:07Z</time>
      </trkpt>
      <trkpt lat="57.4366270378232" lon="-6.575851980596781">
        <ele>34.740000000000002</ele>
        <time>2023-08-26T13:27:18Z</time>
      </trkpt>
      <trkpt lat="57.436511032283306" lon="-6.578231016173959">
        <ele>29.460000000000001</ele>
        <time>2023-08-26T13:27:30Z</time>
      </trkpt>
      <trkpt lat="57.436570962890983" lon="-6.580258011817932">
        <ele>20.809999999999999</ele>
        <time>2023-08-26T13:27:40Z</time>
      </trkpt>
      <trkpt lat="57.43680096231401" lon="-6.581362998113036">
        <ele>16</ele>
        <time>2023-08-26T13:27:48Z</time>
      </trkpt>
      <trkpt lat="57.436989974230528" lon="-6.581845041364431">
        <ele>15.039999999999999</ele>
        <time>2023-08-26T13:27:52Z</time>
      </trkpt>
      <trkpt lat="57.437054011970758" lon="-6.581969009712338">
        <ele>15.039999999999999</ele>
        <time>2023-08-26T13:27:53Z</time>
      </trkpt>
      <trkpt lat="57.437407979741693" lon="-6.582545014098287">
        <ele>15.52</ele>
        <time>2023-08-26T13:27:58Z</time>
      </trkpt>
      <trkpt lat="57.438484970480204" lon="-6.583553021773696">
        <ele>16.960000000000001</ele>
        <time>2023-08-26T13:28:09Z</time>
      </trkpt>
      <trkpt lat="57.439671009778976" lon="-6.584753980860114">
        <ele>17.440000000000001</ele>
        <time>2023-08-26T13:28:19Z</time>
      </trkpt>
      <trkpt lat="57.439762959256768" lon="-6.584951961413026">
        <ele>17.440000000000001</ele>
        <time>2023-08-26T13:28:20Z</time>
      </trkpt>
      <trkpt lat="57.439854992553592" lon="-6.58515103161335">
        <ele>16.960000000000001</ele>
        <time>2023-08-26T13:28:21Z</time>
      </trkpt>
      <trkpt lat="57.440863000229001" lon="-6.587223960086703">
        <ele>16.960000000000001</ele>
        <time>2023-08-26T13:28:31Z</time>
      </trkpt>
      <trkpt lat="57.442119028419256" lon="-6.588959014043212">
        <ele>15.039999999999999</ele>
        <time>2023-08-26T13:28:40Z</time>
      </trkpt>
      <trkpt lat="57.443043971434236" lon="-6.589884962886572">
        <ele>15.52</ele>
        <time>2023-08-26T13:28:46Z</time>
      </trkpt>
      <trkpt lat="57.443184033036232" lon="-6.589993005618453">
        <ele>16</ele>
        <time>2023-08-26T13:28:47Z</time>
      </trkpt>
      <trkpt lat="57.443341026082635" lon="-6.590082021430135">
        <ele>16.48</ele>
        <time>2023-08-26T13:28:48Z</time>
      </trkpt>
      <trkpt lat="57.443966986611485" lon="-6.590253012254834">
        <ele>17.920000000000002</ele>
        <time>2023-08-26T13:28:52Z</time>
      </trkpt>
      <trkpt lat="57.444128002971411" lon="-6.590229962021112">
        <ele>17.920000000000002</ele>
        <time>2023-08-26T13:28:53Z</time>
      </trkpt>
      <trkpt lat="57.444291030988097" lon="-6.590192997828126">
        <ele>17.920000000000002</ele>
        <time>2023-08-26T13:28:54Z</time>
      </trkpt>
      <trkpt lat="57.444893019273877" lon="-6.58970701508224">
        <ele>18.879999999999999</ele>
        <time>2023-08-26T13:28:58Z</time>
      </trkpt>
      <trkpt lat="57.445037020370364" lon="-6.589551027864218">
        <ele>19.359999999999999</ele>
        <time>2023-08-26T13:28:59Z</time>
      </trkpt>
      <trkpt lat="57.445161994546652" lon="-6.589345000684261">
        <ele>19.359999999999999</ele>
        <time>2023-08-26T13:29:00Z</time>
      </trkpt>
      <trkpt lat="57.445934973657131" lon="-6.587766017764807">
        <ele>18.879999999999999</ele>
        <time>2023-08-26T13:29:08Z</time>
      </trkpt>
      <trkpt lat="57.446020971983671" lon="-6.587583962827921">
        <ele>18.879999999999999</ele>
        <time>2023-08-26T13:29:09Z</time>
      </trkpt>
      <trkpt lat="57.446103030815721" lon="-6.587409032508731">
        <ele>18.879999999999999</ele>
        <time>2023-08-26T13:29:10Z</time>
      </trkpt>
      <trkpt lat="57.446190034970641" lon="-6.587246004492044">
        <ele>19.359999999999999</ele>
        <time>2023-08-26T13:29:11Z</time>
      </trkpt>
      <trkpt lat="57.446391033008695" lon="-6.58698096871376">
        <ele>20.32</ele>
        <time>2023-08-26T13:29:13Z</time>
      </trkpt>
      <trkpt lat="57.446614997461438" lon="-6.586802015081048">
        <ele>20.809999999999999</ele>
        <time>2023-08-26T13:29:15Z</time>
      </trkpt>
      <trkpt lat="57.446725973859429" lon="-6.58674200065434">
        <ele>21.289999999999999</ele>
        <time>2023-08-26T13:29:16Z</time>
      </trkpt>
      <trkpt lat="57.446836028248072" lon="-6.586716016754508">
        <ele>20.809999999999999</ele>
        <time>2023-08-26T13:29:17Z</time>
      </trkpt>
      <trkpt lat="57.44694197550416" lon="-6.586691038683057">
        <ele>21.289999999999999</ele>
        <time>2023-08-26T13:29:18Z</time>
      </trkpt>
      <trkpt lat="57.447038032114506" lon="-6.586668994277716">
        <ele>21.289999999999999</ele>
        <time>2023-08-26T13:29:19Z</time>
      </trkpt>
      <trkpt lat="57.447139034047723" lon="-6.586668994277716">
        <ele>21.77</ele>
        <time>2023-08-26T13:29:20Z</time>
      </trkpt>
      <trkpt lat="57.447232995182276" lon="-6.586668994277716">
        <ele>22.25</ele>
        <time>2023-08-26T13:29:21Z</time>
      </trkpt>
      <trkpt lat="57.447321005165577" lon="-6.586668994277716">
        <ele>22.25</ele>
        <time>2023-08-26T13:29:22Z</time>
      </trkpt>
      <trkpt lat="57.447399962693453" lon="-6.586677962914109">
        <ele>22.25</ele>
        <time>2023-08-26T13:29:23Z</time>
      </trkpt>
      <trkpt lat="57.44747900404036" lon="-6.586697995662689">
        <ele>22.73</ele>
        <time>2023-08-26T13:29:24Z</time>
      </trkpt>
      <trkpt lat="57.447555027902126" lon="-6.586717022582889">
        <ele>23.210000000000001</ele>
        <time>2023-08-26T13:29:25Z</time>
      </trkpt>
      <trkpt lat="57.447629040107131" lon="-6.586735965684056">
        <ele>23.690000000000001</ele>
        <time>2023-08-26T13:29:26Z</time>
      </trkpt>
      <trkpt lat="57.447697017341852" lon="-6.586752980947495">
        <ele>23.690000000000001</ele>
        <time>2023-08-26T13:29:27Z</time>
      </trkpt>
      <trkpt lat="57.447748985141516" lon="-6.58676597289741">
        <ele>23.690000000000001</ele>
        <time>2023-08-26T13:29:28Z</time>
      </trkpt>
      <trkpt lat="57.447787960991263" lon="-6.586775025352836">
        <ele>24.170000000000002</ele>
        <time>2023-08-26T13:29:29Z</time>
      </trkpt>
      <trkpt lat="57.447818974032998" lon="-6.586782988160849">
        <ele>24.170000000000002</ele>
        <time>2023-08-26T13:29:30Z</time>
      </trkpt>
      <trkpt lat="57.4478430300951" lon="-6.586789023131132">
        <ele>24.170000000000002</ele>
        <time>2023-08-26T13:29:31Z</time>
      </trkpt>
      <trkpt lat="57.447874965146184" lon="-6.586796985939145">
        <ele>24.170000000000002</ele>
        <time>2023-08-26T13:29:32Z</time>
      </trkpt>
      <trkpt lat="57.447881000116467" lon="-6.586797991767526">
        <ele>24.170000000000002</ele>
        <time>2023-08-26T13:29:33Z</time>
      </trkpt>
      <trkpt lat="57.447890974581242" lon="-6.586800003424287">
        <ele>24.170000000000002</ele>
        <time>2023-08-26T13:29:34Z</time>
      </trkpt>
      <trkpt lat="57.447890974581242" lon="-6.586800003424287">
        <ele>23.690000000000001</ele>
        <time>2023-08-26T13:29:43Z</time>
      </trkpt>
      <trkpt lat="57.447872031480074" lon="-6.586495991796255">
        <ele>24.170000000000002</ele>
        <time>2023-08-26T13:29:48Z</time>
      </trkpt>
      <trkpt lat="57.447890974581242" lon="-6.586800003424287">
        <ele>23.690000000000001</ele>
        <time>2023-08-26T13:29:50Z</time>
      </trkpt>
      <trkpt lat="57.447984013706446" lon="-6.586815007030964">
        <ele>22.73</ele>
        <time>2023-08-26T13:30:00Z</time>
      </trkpt>
      <trkpt lat="57.447984013706446" lon="-6.586815007030964">
        <ele>22.25</ele>
        <time>2023-08-26T13:30:21Z</time>
      </trkpt>
      <trkpt lat="57.447984013706446" lon="-6.586815007030964">
        <ele>22.25</ele>
        <time>2023-08-26T13:30:22Z</time>
      </trkpt>
      <trkpt lat="57.447974039241672" lon="-6.586814001202583">
        <ele>21.77</ele>
        <time>2023-08-26T13:30:27Z</time>
      </trkpt>
      <trkpt lat="57.44795199483633" lon="-6.586809977889061">
        <ele>21.77</ele>
        <time>2023-08-26T13:30:28Z</time>
      </trkpt>
      <trkpt lat="57.447642032057047" lon="-6.586738983169198">
        <ele>17.440000000000001</ele>
        <time>2023-08-26T13:30:42Z</time>
      </trkpt>
      <trkpt lat="57.44737003929913" lon="-6.586671005934477">
        <ele>15.039999999999999</ele>
        <time>2023-08-26T13:30:50Z</time>
      </trkpt>
      <trkpt lat="57.447359981015325" lon="-6.586668994277716">
        <ele>15.039999999999999</ele>
        <time>2023-08-26T13:30:51Z</time>
      </trkpt>
      <trkpt lat="57.447359981015325" lon="-6.586668994277716">
        <ele>14.56</ele>
        <time>2023-08-26T13:30:52Z</time>
      </trkpt>
      <trkpt lat="57.447359981015325" lon="-6.586668994277716">
        <ele>14.56</ele>
        <time>2023-08-26T13:30:53Z</time>
      </trkpt>
      <trkpt lat="57.447359981015325" lon="-6.586668994277716">
        <ele>14.08</ele>
        <time>2023-08-26T13:30:54Z</time>
      </trkpt>
      <trkpt lat="57.447359981015325" lon="-6.586668994277716">
        <ele>14.08</ele>
        <time>2023-08-26T13:30:55Z</time>
      </trkpt>
      <trkpt lat="57.447359981015325" lon="-6.586668994277716">
        <ele>14.08</ele>
        <time>2023-08-26T13:30:56Z</time>
      </trkpt>
      <trkpt lat="57.447359981015325" lon="-6.586668994277716">
        <ele>13.6</ele>
        <time>2023-08-26T13:30:57Z</time>
      </trkpt>
      <trkpt lat="57.447231989353895" lon="-6.586668994277716">
        <ele>13.6</ele>
        <time>2023-08-26T13:30:58Z</time>
      </trkpt>
      <trkpt lat="57.446999978274107" lon="-6.586677962914109">
        <ele>13.6</ele>
        <time>2023-08-26T13:31:09Z</time>
      </trkpt>
      <trkpt lat="57.447038032114506" lon="-6.586668994277716">
        <ele>14.08</ele>
        <time>2023-08-26T13:31:22Z</time>
      </trkpt>
      <trkpt lat="57.446901993826032" lon="-6.585264019668102">
        <ele>38.590000000000003</ele>
        <time>2023-08-26T13:43:07Z</time>
      </trkpt>
      <trkpt lat="57.44692001491785" lon="-6.5853660274297">
        <ele>29.940000000000001</ele>
        <time>2023-08-26T13:43:27Z</time>
      </trkpt>
      <trkpt lat="57.446908028796315" lon="-6.585310958325863">
        <ele>28.02</ele>
        <time>2023-08-26T13:43:33Z</time>
      </trkpt>
      <trkpt lat="57.446971982717514" lon="-6.585223032161593">
        <ele>25.129999999999999</ele>
        <time>2023-08-26T13:43:39Z</time>
      </trkpt>
      <trkpt lat="57.447158982977271" lon="-6.585610024631023">
        <ele>23.210000000000001</ele>
        <time>2023-08-26T13:43:46Z</time>
      </trkpt>
      <trkpt lat="57.44728303514421" lon="-6.586126014590263">
        <ele>22.25</ele>
        <time>2023-08-26T13:43:52Z</time>
      </trkpt>
      <trkpt lat="57.447132999077439" lon="-6.586668994277716">
        <ele>19.84</ele>
        <time>2023-08-26T13:44:00Z</time>
      </trkpt>
      <trkpt lat="57.446994027122855" lon="-6.58667896874249">
        <ele>19.84</ele>
        <time>2023-08-26T13:44:02Z</time>
      </trkpt>
      <trkpt lat="57.446896964684129" lon="-6.586702018976212">
        <ele>19.359999999999999</ele>
        <time>2023-08-26T13:44:03Z</time>
      </trkpt>
      <trkpt lat="57.446785988286138" lon="-6.586728002876043">
        <ele>18.879999999999999</ele>
        <time>2023-08-26T13:44:04Z</time>
      </trkpt>
      <trkpt lat="57.446563029661775" lon="-6.586843002587557">
        <ele>18.399999999999999</ele>
        <time>2023-08-26T13:44:06Z</time>
      </trkpt>
      <trkpt lat="57.446447024121881" lon="-6.586936041712761">
        <ele>17.920000000000002</ele>
        <time>2023-08-26T13:44:07Z</time>
      </trkpt>
      <trkpt lat="57.446351973339915" lon="-6.587011981755495">
        <ele>17.920000000000002</ele>
        <time>2023-08-26T13:44:08Z</time>
      </trkpt>
      <trkpt lat="57.446272009983659" lon="-6.587126981467009">
        <ele>17.440000000000001</ele>
        <time>2023-08-26T13:44:09Z</time>
      </trkpt>
      <trkpt lat="57.446191040799022" lon="-6.587243992835283">
        <ele>16.960000000000001</ele>
        <time>2023-08-26T13:44:10Z</time>
      </trkpt>
      <trkpt lat="57.446123985573649" lon="-6.5873640216887">
        <ele>16.48</ele>
        <time>2023-08-26T13:44:11Z</time>
      </trkpt>
      <trkpt lat="57.445541024208069" lon="-6.588603034615517">
        <ele>15.52</ele>
        <time>2023-08-26T13:44:19Z</time>
      </trkpt>
      <trkpt lat="57.445468017831445" lon="-6.588758016005158">
        <ele>15.52</ele>
        <time>2023-08-26T13:44:20Z</time>
      </trkpt>
      <trkpt lat="57.445129975676537" lon="-6.589397974312306">
        <ele>15.52</ele>
        <time>2023-08-26T13:44:24Z</time>
      </trkpt>
      <trkpt lat="57.445042971521616" lon="-6.589543987065554">
        <ele>15.52</ele>
        <time>2023-08-26T13:44:25Z</time>
      </trkpt>
      <trkpt lat="57.444925960153341" lon="-6.589670972898603">
        <ele>15.52</ele>
        <time>2023-08-26T13:44:26Z</time>
      </trkpt>
      <trkpt lat="57.444815989583731" lon="-6.589791001752019">
        <ele>15.52</ele>
        <time>2023-08-26T13:44:27Z</time>
      </trkpt>
      <trkpt lat="57.444695038720965" lon="-6.589885968714953">
        <ele>15.52</ele>
        <time>2023-08-26T13:44:28Z</time>
      </trkpt>
      <trkpt lat="57.444567969068885" lon="-6.589983031153679">
        <ele>15.52</ele>
        <time>2023-08-26T13:44:29Z</time>
      </trkpt>
      <trkpt lat="57.443994982168078" lon="-6.590247983112931">
        <ele>16.960000000000001</ele>
        <time>2023-08-26T13:44:33Z</time>
      </trkpt>
      <trkpt lat="57.44384603574872" lon="-6.590270027518272">
        <ele>17.440000000000001</ele>
        <time>2023-08-26T13:44:34Z</time>
      </trkpt>
      <trkpt lat="57.44369599968195" lon="-6.59024303779006">
        <ele>16.960000000000001</ele>
        <time>2023-08-26T13:44:35Z</time>
      </trkpt>
      <trkpt lat="57.443543029949069" lon="-6.590198026970029">
        <ele>16.960000000000001</ele>
        <time>2023-08-26T13:44:36Z</time>
      </trkpt>
      <trkpt lat="57.443391988053918" lon="-6.590112028643489">
        <ele>16.960000000000001</ele>
        <time>2023-08-26T13:44:37Z</time>
      </trkpt>
      <trkpt lat="57.442954033613205" lon="-6.589794019237161">
        <ele>16.960000000000001</ele>
        <time>2023-08-26T13:44:40Z</time>
      </trkpt>
      <trkpt lat="57.441762965172529" lon="-6.588523993268609">
        <ele>16.960000000000001</ele>
        <time>2023-08-26T13:44:48Z</time>
      </trkpt>
      <trkpt lat="57.440553959459066" lon="-6.586663965135813">
        <ele>16.48</ele>
        <time>2023-08-26T13:44:57Z</time>
      </trkpt>
      <trkpt lat="57.439692970365286" lon="-6.584801003336906">
        <ele>15.52</ele>
        <time>2023-08-26T13:45:06Z</time>
      </trkpt>
      <trkpt lat="57.439063992351294" lon="-6.584062976762652">
        <ele>15.52</ele>
        <time>2023-08-26T13:45:13Z</time>
      </trkpt>
      <trkpt lat="57.438212977722287" lon="-6.58332696184516">
        <ele>16.960000000000001</ele>
        <time>2023-08-26T13:45:22Z</time>
      </trkpt>
      <trkpt lat="57.437439998611808" lon="-6.582586001604796">
        <ele>15.039999999999999</ele>
        <time>2023-08-26T13:45:34Z</time>
      </trkpt>
      <trkpt lat="57.437332961708307" lon="-6.582446023821831">
        <ele>14.08</ele>
        <time>2023-08-26T13:45:42Z</time>
      </trkpt>
      <trkpt lat="57.437332961708307" lon="-6.582446023821831">
        <ele>14.08</ele>
        <time>2023-08-26T13:45:59Z</time>
      </trkpt>
      <trkpt lat="57.437332961708307" lon="-6.582446023821831">
        <ele>14.08</ele>
        <time>2023-08-26T13:46:22Z</time>
      </trkpt>
      <trkpt lat="57.43720798753202" lon="-6.582404030486941">
        <ele>12.15</ele>
        <time>2023-08-26T14:29:12Z</time>
      </trkpt>
      <trkpt lat="57.437216034159064" lon="-6.582443006336689">
        <ele>-2.27</ele>
        <time>2023-08-26T14:29:51Z</time>
      </trkpt>
      <trkpt lat="57.437259033322334" lon="-6.582489022985101">
        <ele>-0.34</ele>
        <time>2023-08-26T14:30:35Z</time>
      </trkpt>
      <trkpt lat="57.437241012230515" lon="-6.582448035478592">
        <ele>3.02</ele>
        <time>2023-08-26T14:31:24Z</time>
      </trkpt>
      <trkpt lat="57.43723195977509" lon="-6.582313003018498">
        <ele>3.5</ele>
        <time>2023-08-26T14:31:26Z</time>
      </trkpt>
      <trkpt lat="57.437217039987445" lon="-6.582282995805144">
        <ele>3.5</ele>
        <time>2023-08-26T14:31:27Z</time>
      </trkpt>
      <trkpt lat="57.436986034736037" lon="-6.581836994737387">
        <ele>2.54</ele>
        <time>2023-08-26T14:31:31Z</time>
      </trkpt>
      <trkpt lat="57.436937000602484" lon="-6.581742027774453">
        <ele>2.54</ele>
        <time>2023-08-26T14:31:32Z</time>
      </trkpt>
      <trkpt lat="57.436872040852904" lon="-6.581669021397829">
        <ele>2.54</ele>
        <time>2023-08-26T14:31:33Z</time>
      </trkpt>
      <trkpt lat="57.436716975644231" lon="-6.581583023071289">
        <ele>3.02</ele>
        <time>2023-08-26T14:31:35Z</time>
      </trkpt>
      <trkpt lat="57.435966040939093" lon="-6.580400001257658">
        <ele>4.94</ele>
        <time>2023-08-26T14:31:48Z</time>
      </trkpt>
      <trkpt lat="57.435328010469675" lon="-6.579404985532165">
        <ele>3.5</ele>
        <time>2023-08-26T14:31:57Z</time>
      </trkpt>
      <trkpt lat="57.435247041285038" lon="-6.579280011355877">
        <ele>3.5</ele>
        <time>2023-08-26T14:31:58Z</time>
      </trkpt>
      <trkpt lat="57.434412958100438" lon="-6.577646965160966">
        <ele>4.46</ele>
        <time>2023-08-26T14:32:10Z</time>
      </trkpt>
      <trkpt lat="57.433477034792304" lon="-6.575885005295277">
        <ele>4.94</ele>
        <time>2023-08-26T14:32:23Z</time>
      </trkpt>
      <trkpt lat="57.432388979941607" lon="-6.574096977710724">
        <ele>1.58</ele>
        <time>2023-08-26T14:32:36Z</time>
      </trkpt>
      <trkpt lat="57.431596973910928" lon="-6.572614973410964">
        <ele>3.5</ele>
        <time>2023-08-26T14:32:47Z</time>
      </trkpt>
      <trkpt lat="57.431317018344998" lon="-6.572239967063069">
        <ele>4.46</ele>
        <time>2023-08-26T14:32:52Z</time>
      </trkpt>
      <trkpt lat="57.431250968948007" lon="-6.572158997878432">
        <ele>4.94</ele>
        <time>2023-08-26T14:32:53Z</time>
      </trkpt>
      <trkpt lat="57.431047037243843" lon="-6.571923969313502">
        <ele>5.91</ele>
        <time>2023-08-26T14:32:56Z</time>
      </trkpt>
      <trkpt lat="57.430987022817135" lon="-6.571855992078781">
        <ele>5.91</ele>
        <time>2023-08-26T14:32:57Z</time>
      </trkpt>
      <trkpt lat="57.430930025875568" lon="-6.571792038157582">
        <ele>6.39</ele>
        <time>2023-08-26T14:32:58Z</time>
      </trkpt>
      <trkpt lat="57.430879985913634" lon="-6.571735963225365">
        <ele>6.39</ele>
        <time>2023-08-26T14:32:59Z</time>
      </trkpt>
      <trkpt lat="57.430859031155705" lon="-6.571712996810675">
        <ele>6.87</ele>
        <time>2023-08-26T14:33:00Z</time>
      </trkpt>
      <trkpt lat="57.430789964273572" lon="-6.571655999869108">
        <ele>7.83</ele>
        <time>2023-08-26T14:33:07Z</time>
      </trkpt>
      <trkpt lat="57.430789964273572" lon="-6.571655999869108">
        <ele>8.310000000000001</ele>
        <time>2023-08-26T14:33:28Z</time>
      </trkpt>
      <trkpt lat="57.430789964273572" lon="-6.571655999869108">
        <ele>9.27</ele>
        <time>2023-08-26T14:34:07Z</time>
      </trkpt>
      <trkpt lat="57.430744031444192" lon="-6.571618029847741">
        <ele>9.27</ele>
        <time>2023-08-26T14:34:08Z</time>
      </trkpt>
      <trkpt lat="57.430703965947032" lon="-6.571586010977626">
        <ele>10.23</ele>
        <time>2023-08-26T14:34:09Z</time>
      </trkpt>
      <trkpt lat="57.430645041167736" lon="-6.571536976844072">
        <ele>10.23</ele>
        <time>2023-08-26T14:34:10Z</time>
      </trkpt>
      <trkpt lat="57.430571028962731" lon="-6.571476962417364">
        <ele>10.23</ele>
        <time>2023-08-26T14:34:11Z</time>
      </trkpt>
      <trkpt lat="57.429805006831884" lon="-6.570872040465474">
        <ele>10.710000000000001</ele>
        <time>2023-08-26T14:34:19Z</time>
      </trkpt>
      <trkpt lat="57.428703038021922" lon="-6.569710979238153">
        <ele>15.52</ele>
        <time>2023-08-26T14:34:30Z</time>
      </trkpt>
      <trkpt lat="57.428628019988537" lon="-6.569525990635157">
        <ele>16</ele>
        <time>2023-08-26T14:34:31Z</time>
      </trkpt>
      <trkpt lat="57.428554007783532" lon="-6.5693389903754">
        <ele>16.48</ele>
        <time>2023-08-26T14:34:32Z</time>
      </trkpt>
      <trkpt lat="57.428478989750147" lon="-6.569151990115643">
        <ele>16.960000000000001</ele>
        <time>2023-08-26T14:34:33Z</time>
      </trkpt>
      <trkpt lat="57.428424004465342" lon="-6.568935988470912">
        <ele>17.920000000000002</ele>
        <time>2023-08-26T14:34:34Z</time>
      </trkpt>
      <trkpt lat="57.42837798781693" lon="-6.568705989047885">
        <ele>18.399999999999999</ele>
        <time>2023-08-26T14:34:35Z</time>
      </trkpt>
      <trkpt lat="57.428327025845647" lon="-6.568451011553407">
        <ele>18.879999999999999</ele>
        <time>2023-08-26T14:34:36Z</time>
      </trkpt>
      <trkpt lat="57.428309004753828" lon="-6.568229980766773">
        <ele>19.84</ele>
        <time>2023-08-26T14:34:37Z</time>
      </trkpt>
      <trkpt lat="57.427936010062695" lon="-6.564610004425049">
        <ele>26.57</ele>
        <time>2023-08-26T14:34:51Z</time>
      </trkpt>
      <trkpt lat="57.427164036780596" lon="-6.560105988755822">
        <ele>28.5</ele>
        <time>2023-08-26T14:35:07Z</time>
      </trkpt>
      <trkpt lat="57.426380999386311" lon="-6.555560985580087">
        <ele>29.460000000000001</ele>
        <time>2023-08-26T14:35:24Z</time>
      </trkpt>
      <trkpt lat="57.425598967820406" lon="-6.551704974845052">
        <ele>32.340000000000003</ele>
        <time>2023-08-26T14:35:39Z</time>
      </trkpt>
      <trkpt lat="57.425006031990051" lon="-6.549395006150007">
        <ele>37.149999999999999</ele>
        <time>2023-08-26T14:35:50Z</time>
      </trkpt>
      <trkpt lat="57.42485398426652" lon="-6.548802992329001">
        <ele>39.549999999999997</ele>
        <time>2023-08-26T14:35:56Z</time>
      </trkpt>
      <trkpt lat="57.424840992316604" lon="-6.548753036186099">
        <ele>40.990000000000002</ele>
        <time>2023-08-26T14:36:03Z</time>
      </trkpt>
      <trkpt lat="57.424857001751661" lon="-6.548815984278917">
        <ele>40.990000000000002</ele>
        <time>2023-08-26T14:36:06Z</time>
      </trkpt>
      <trkpt lat="57.424876028671861" lon="-6.548887984827161">
        <ele>40.990000000000002</ele>
        <time>2023-08-26T14:36:07Z</time>
      </trkpt>
      <trkpt lat="57.424904024228454" lon="-6.548998961225152">
        <ele>40.990000000000002</ele>
        <time>2023-08-26T14:36:08Z</time>
      </trkpt>
      <trkpt lat="57.425232008099556" lon="-6.550275022163987">
        <ele>38.109999999999999</ele>
        <time>2023-08-26T14:36:15Z</time>
      </trkpt>
      <trkpt lat="57.425803989171982" lon="-6.552526988089085">
        <ele>32.340000000000003</ele>
        <time>2023-08-26T14:36:25Z</time>
      </trkpt>
      <trkpt lat="57.426071958616376" lon="-6.553793996572495">
        <ele>28.98</ele>
        <time>2023-08-26T14:36:33Z</time>
      </trkpt>
      <trkpt lat="57.426186958327889" lon="-6.554417023435235">
        <ele>27.050000000000001</ele>
        <time>2023-08-26T14:36:37Z</time>
      </trkpt>
      <trkpt lat="57.42620799690485" lon="-6.554535962641239">
        <ele>26.57</ele>
        <time>2023-08-26T14:36:38Z</time>
      </trkpt>
      <trkpt lat="57.426202967762947" lon="-6.554789012297988">
        <ele>26.09</ele>
        <time>2023-08-26T14:36:39Z</time>
      </trkpt>
      <trkpt lat="57.426148988306522" lon="-6.554851960390806">
        <ele>25.609999999999999</ele>
        <time>2023-08-26T14:36:40Z</time>
      </trkpt>
      <trkpt lat="57.426090985536575" lon="-6.554919015616179">
        <ele>25.129999999999999</ele>
        <time>2023-08-26T14:36:41Z</time>
      </trkpt>
      <trkpt lat="57.426049998030066" lon="-6.55496503226459">
        <ele>24.649999999999999</ele>
        <time>2023-08-26T14:36:42Z</time>
      </trkpt>
      <trkpt lat="57.426029965281487" lon="-6.554989004507661">
        <ele>24.170000000000002</ele>
        <time>2023-08-26T14:36:43Z</time>
      </trkpt>
      <trkpt lat="57.426029965281487" lon="-6.554989004507661">
        <ele>23.210000000000001</ele>
        <time>2023-08-26T14:36:53Z</time>
      </trkpt>
      <trkpt lat="57.426002975553274" lon="-6.555020017549396">
        <ele>22.73</ele>
        <time>2023-08-26T14:37:19Z</time>
      </trkpt>
      <trkpt lat="57.425967017188668" lon="-6.555061005055904">
        <ele>22.25</ele>
        <time>2023-08-26T14:37:20Z</time>
      </trkpt>
      <trkpt lat="57.425635010004044" lon="-6.555882012471557">
        <ele>19.84</ele>
        <time>2023-08-26T14:37:27Z</time>
      </trkpt>
      <trkpt lat="57.425180962309241" lon="-6.556966966018081">
        <ele>19.84</ele>
        <time>2023-08-26T14:37:34Z</time>
      </trkpt>
      <trkpt lat="57.425122037529945" lon="-6.557072997093201">
        <ele>19.84</ele>
        <time>2023-08-26T14:37:35Z</time>
      </trkpt>
      <trkpt lat="57.425063028931618" lon="-6.557181039825082">
        <ele>19.359999999999999</ele>
        <time>2023-08-26T14:37:36Z</time>
      </trkpt>
      <trkpt lat="57.425002008676529" lon="-6.557291010394692">
        <ele>18.879999999999999</ele>
        <time>2023-08-26T14:37:37Z</time>
      </trkpt>
      <trkpt lat="57.42414303123951" lon="-6.558609986677766">
        <ele>14.56</ele>
        <time>2023-08-26T14:37:48Z</time>
      </trkpt>
      <trkpt lat="57.422698996961117" lon="-6.560669001191855">
        <ele>14.08</ele>
        <time>2023-08-26T14:38:01Z</time>
      </trkpt>
      <trkpt lat="57.421110039576888" lon="-6.562935970723629">
        <ele>14.56</ele>
        <time>2023-08-26T14:38:13Z</time>
      </trkpt>
      <trkpt lat="57.420619027689099" lon="-6.563599985092878">
        <ele>18.399999999999999</ele>
        <time>2023-08-26T14:38:19Z</time>
      </trkpt>
      <trkpt lat="57.420323984697461" lon="-6.564000975340605">
        <ele>19.84</ele>
        <time>2023-08-26T14:38:23Z</time>
      </trkpt>
      <trkpt lat="57.420281991362572" lon="-6.564113041386008">
        <ele>19.84</ele>
        <time>2023-08-26T14:38:24Z</time>
      </trkpt>
      <trkpt lat="57.420280985534191" lon="-6.564211025834084">
        <ele>19.84</ele>
        <time>2023-08-26T14:38:25Z</time>
      </trkpt>
      <trkpt lat="57.420280985534191" lon="-6.564374975860119">
        <ele>20.32</ele>
        <time>2023-08-26T14:38:26Z</time>
      </trkpt>
      <trkpt lat="57.420280985534191" lon="-6.564564993605018">
        <ele>20.32</ele>
        <time>2023-08-26T14:38:27Z</time>
      </trkpt>
      <trkpt lat="57.420284003019333" lon="-6.564771020784974">
        <ele>20.32</ele>
        <time>2023-08-26T14:38:28Z</time>
      </trkpt>
      <trkpt lat="57.420604024082422" lon="-6.56749002635479">
        <ele>19.359999999999999</ele>
        <time>2023-08-26T14:38:38Z</time>
      </trkpt>
      <trkpt lat="57.421239959076047" lon="-6.571754990145564">
        <ele>17.920000000000002</ele>
        <time>2023-08-26T14:38:53Z</time>
      </trkpt>
      <trkpt lat="57.421458978205919" lon="-6.572856958955526">
        <ele>17.440000000000001</ele>
        <time>2023-08-26T14:38:59Z</time>
      </trkpt>
      <trkpt lat="57.42154698818922" lon="-6.573302038013935">
        <ele>17.920000000000002</ele>
        <time>2023-08-26T14:39:09Z</time>
      </trkpt>
      <trkpt lat="57.42158898152411" lon="-6.573510998860002">
        <ele>17.920000000000002</ele>
        <time>2023-08-26T14:39:11Z</time>
      </trkpt>
      <trkpt lat="57.421607002615929" lon="-6.573662962764502">
        <ele>17.920000000000002</ele>
        <time>2023-08-26T14:39:12Z</time>
      </trkpt>
      <trkpt lat="57.421590993180871" lon="-6.573818027973175">
        <ele>17.920000000000002</ele>
        <time>2023-08-26T14:39:13Z</time>
      </trkpt>
      <trkpt lat="57.421580012887716" lon="-6.57393503934145">
        <ele>17.920000000000002</ele>
        <time>2023-08-26T14:39:14Z</time>
      </trkpt>
      <trkpt lat="57.421568026766181" lon="-6.574050961062312">
        <ele>17.920000000000002</ele>
        <time>2023-08-26T14:39:15Z</time>
      </trkpt>
      <trkpt lat="57.421550005674362" lon="-6.574122039601207">
        <ele>17.440000000000001</ele>
        <time>2023-08-26T14:39:16Z</time>
      </trkpt>
      <trkpt lat="57.421268038451672" lon="-6.575371026992798">
        <ele>16</ele>
        <time>2023-08-26T14:39:23Z</time>
      </trkpt>
      <trkpt lat="57.421225039288402" lon="-6.575821973383427">
        <ele>15.039999999999999</ele>
        <time>2023-08-26T14:39:25Z</time>
      </trkpt>
      <trkpt lat="57.421220010146499" lon="-6.577358040958643">
        <ele>12.630000000000001</ele>
        <time>2023-08-26T14:39:32Z</time>
      </trkpt>
      <trkpt lat="57.421295028179884" lon="-6.577745033428073">
        <ele>11.19</ele>
        <time>2023-08-26T14:39:34Z</time>
      </trkpt>
      <trkpt lat="57.421340038999915" lon="-6.577942008152604">
        <ele>10.710000000000001</ele>
        <time>2023-08-26T14:39:35Z</time>
      </trkpt>
      <trkpt lat="57.421446992084384" lon="-6.578355990350246">
        <ele>8.789999999999999</ele>
        <time>2023-08-26T14:39:37Z</time>
      </trkpt>
      <trkpt lat="57.421476999297738" lon="-6.578586995601654">
        <ele>7.35</ele>
        <time>2023-08-26T14:39:38Z</time>
      </trkpt>
      <trkpt lat="57.421499965712428" lon="-6.5788350161165">
        <ele>6.39</ele>
        <time>2023-08-26T14:39:39Z</time>
      </trkpt>
      <trkpt lat="57.421499965712428" lon="-6.579085970297456">
        <ele>4.94</ele>
        <time>2023-08-26T14:39:40Z</time>
      </trkpt>
      <trkpt lat="57.421495020389557" lon="-6.579344971105456">
        <ele>3.98</ele>
        <time>2023-08-26T14:39:41Z</time>
      </trkpt>
      <trkpt lat="57.421319000422955" lon="-6.581918969750404">
        <ele>-2.27</ele>
        <time>2023-08-26T14:39:51Z</time>
      </trkpt>
      <trkpt lat="57.421282958239317" lon="-6.583339031785727">
        <ele>0.14</ele>
        <time>2023-08-26T14:39:57Z</time>
      </trkpt>
      <trkpt lat="57.421246999874711" lon="-6.583554027602077">
        <ele>0.62</ele>
        <time>2023-08-26T14:39:58Z</time>
      </trkpt>
      <trkpt lat="57.421191008761525" lon="-6.583752008154988">
        <ele>0.62</ele>
        <time>2023-08-26T14:39:59Z</time>
      </trkpt>
      <trkpt lat="57.421106016263366" lon="-6.583917969837785">
        <ele>1.1</ele>
        <time>2023-08-26T14:40:00Z</time>
      </trkpt>
      <trkpt lat="57.421017000451684" lon="-6.584089966490865">
        <ele>1.1</ele>
        <time>2023-08-26T14:40:01Z</time>
      </trkpt>
      <trkpt lat="57.420928990468383" lon="-6.584261963143945">
        <ele>1.1</ele>
        <time>2023-08-26T14:40:02Z</time>
      </trkpt>
      <trkpt lat="57.420784989371896" lon="-6.584606962278485">
        <ele>1.1</ele>
        <time>2023-08-26T14:40:04Z</time>
      </trkpt>
      <trkpt lat="57.420752970501781" lon="-6.584736965596676">
        <ele>1.1</ele>
        <time>2023-08-26T14:40:05Z</time>
      </trkpt>
      <trkpt lat="57.420736961066723" lon="-6.584992026910186">
        <ele>0.62</ele>
        <time>2023-08-26T14:40:06Z</time>
      </trkpt>
      <trkpt lat="57.420723969116807" lon="-6.585210962221026">
        <ele>0.14</ele>
        <time>2023-08-26T14:40:07Z</time>
      </trkpt>
      <trkpt lat="57.420709971338511" lon="-6.585444984957576">
        <ele>-0.34</ele>
        <time>2023-08-26T14:40:08Z</time>
      </trkpt>
      <trkpt lat="57.420725980773568" lon="-6.58566702157259">
        <ele>-0.34</ele>
        <time>2023-08-26T14:40:09Z</time>
      </trkpt>
      <trkpt lat="57.420741990208626" lon="-6.585901966318488">
        <ele>-0.34</ele>
        <time>2023-08-26T14:40:10Z</time>
      </trkpt>
      <trkpt lat="57.420777026563883" lon="-6.58612098544836">
        <ele>0.14</ele>
        <time>2023-08-26T14:40:11Z</time>
      </trkpt>
      <trkpt lat="57.420841986313462" lon="-6.586319971829653">
        <ele>0.14</ele>
        <time>2023-08-26T14:40:12Z</time>
      </trkpt>
      <trkpt lat="57.420909041538835" lon="-6.586523987352848">
        <ele>0.62</ele>
        <time>2023-08-26T14:40:13Z</time>
      </trkpt>
      <trkpt lat="57.420977018773556" lon="-6.586733032017946">
        <ele>1.1</ele>
        <time>2023-08-26T14:40:14Z</time>
      </trkpt>
      <trkpt lat="57.421785034239292" lon="-6.589354975149036">
        <ele>4.94</ele>
        <time>2023-08-26T14:40:25Z</time>
      </trkpt>
      <trkpt lat="57.422894965857267" lon="-6.593013005331159">
        <ele>8.789999999999999</ele>
        <time>2023-08-26T14:40:38Z</time>
      </trkpt>
      <trkpt lat="57.424193993210793" lon="-6.596056977286935">
        <ele>15.039999999999999</ele>
        <time>2023-08-26T14:40:50Z</time>
      </trkpt>
      <trkpt lat="57.424801010638475" lon="-6.598212970420718">
        <ele>21.289999999999999</ele>
        <time>2023-08-26T14:40:58Z</time>
      </trkpt>
      <trkpt lat="57.424888014793396" lon="-6.598483035340905">
        <ele>21.77</ele>
        <time>2023-08-26T14:40:59Z</time>
      </trkpt>
      <trkpt lat="57.425002008676529" lon="-6.598727032542229">
        <ele>22.25</ele>
        <time>2023-08-26T14:41:00Z</time>
      </trkpt>
      <trkpt lat="57.425221027806401" lon="-6.599200023338199">
        <ele>23.690000000000001</ele>
        <time>2023-08-26T14:41:02Z</time>
      </trkpt>
      <trkpt lat="57.425311971455812" lon="-6.599453995004296">
        <ele>24.170000000000002</ele>
        <time>2023-08-26T14:41:03Z</time>
      </trkpt>
      <trkpt lat="57.425383972004056" lon="-6.599735962226987">
        <ele>24.170000000000002</ele>
        <time>2023-08-26T14:41:04Z</time>
      </trkpt>
      <trkpt lat="57.425528978928924" lon="-6.600301992148161">
        <ele>25.129999999999999</ele>
        <time>2023-08-26T14:41:06Z</time>
      </trkpt>
      <trkpt lat="57.425651019439101" lon="-6.600540038198233">
        <ele>25.609999999999999</ele>
        <time>2023-08-26T14:41:07Z</time>
      </trkpt>
      <trkpt lat="57.425779011100531" lon="-6.600767020136118">
        <ele>25.609999999999999</ele>
        <time>2023-08-26T14:41:08Z</time>
      </trkpt>
      <trkpt lat="57.426030971109867" lon="-6.601216960698366">
        <ele>25.609999999999999</ele>
        <time>2023-08-26T14:41:10Z</time>
      </trkpt>
      <trkpt lat="57.426145970821381" lon="-6.601483002305031">
        <ele>25.609999999999999</ele>
        <time>2023-08-26T14:41:11Z</time>
      </trkpt>
      <trkpt lat="57.426483007147908" lon="-6.602270985022187">
        <ele>25.609999999999999</ele>
        <time>2023-08-26T14:41:16Z</time>
      </trkpt>
      <trkpt lat="57.426569005474448" lon="-6.602471983060241">
        <ele>25.609999999999999</ele>
        <time>2023-08-26T14:41:20Z</time>
      </trkpt>
      <trkpt lat="57.426600018516183" lon="-6.602544989436865">
        <ele>25.609999999999999</ele>
        <time>2023-08-26T14:41:21Z</time>
      </trkpt>
      <trkpt lat="57.426635976880789" lon="-6.602627970278263">
        <ele>26.09</ele>
        <time>2023-08-26T14:41:22Z</time>
      </trkpt>
      <trkpt lat="57.426934959366918" lon="-6.603645030409098">
        <ele>27.530000000000001</ele>
        <time>2023-08-26T14:41:29Z</time>
      </trkpt>
      <trkpt lat="57.427077032625675" lon="-6.604070998728275">
        <ele>28.5</ele>
        <time>2023-08-26T14:41:31Z</time>
      </trkpt>
      <trkpt lat="57.427169987931848" lon="-6.604277025908232">
        <ele>28.5</ele>
        <time>2023-08-26T14:41:32Z</time>
      </trkpt>
      <trkpt lat="57.427264032885432" lon="-6.604486992582679">
        <ele>28.98</ele>
        <time>2023-08-26T14:41:33Z</time>
      </trkpt>
      <trkpt lat="57.427355982363224" lon="-6.604690002277494">
        <ele>29.460000000000001</ele>
        <time>2023-08-26T14:41:34Z</time>
      </trkpt>
      <trkpt lat="57.427443992346525" lon="-6.604883959516883">
        <ele>29.460000000000001</ele>
        <time>2023-08-26T14:41:35Z</time>
      </trkpt>
      <trkpt lat="57.427529990673065" lon="-6.605074983090162">
        <ele>29.940000000000001</ele>
        <time>2023-08-26T14:41:36Z</time>
      </trkpt>
      <trkpt lat="57.427619006484747" lon="-6.605272041633725">
        <ele>29.940000000000001</ele>
        <time>2023-08-26T14:41:37Z</time>
      </trkpt>
      <trkpt lat="57.428108006715775" lon="-6.606820011511445">
        <ele>30.420000000000002</ele>
        <time>2023-08-26T14:41:44Z</time>
      </trkpt>
      <trkpt lat="57.428200962021947" lon="-6.606954960152507">
        <ele>29.940000000000001</ele>
        <time>2023-08-26T14:41:45Z</time>
      </trkpt>
      <trkpt lat="57.428296012803912" lon="-6.607093010097742">
        <ele>29.460000000000001</ele>
        <time>2023-08-26T14:41:46Z</time>
      </trkpt>
      <trkpt lat="57.428392991423607" lon="-6.607232987880707">
        <ele>29.460000000000001</ele>
        <time>2023-08-26T14:41:47Z</time>
      </trkpt>
      <trkpt lat="57.428492987528443" lon="-6.607377994805574">
        <ele>28.98</ele>
        <time>2023-08-26T14:41:48Z</time>
      </trkpt>
      <trkpt lat="57.428575968369842" lon="-6.607575975358486">
        <ele>28.5</ele>
        <time>2023-08-26T14:41:49Z</time>
      </trkpt>
      <trkpt lat="57.428652998059988" lon="-6.607794994488359">
        <ele>28.5</ele>
        <time>2023-08-26T14:41:50Z</time>
      </trkpt>
      <trkpt lat="57.428732039406896" lon="-6.608020970597863">
        <ele>28.02</ele>
        <time>2023-08-26T14:41:51Z</time>
      </trkpt>
      <trkpt lat="57.428903030231595" lon="-6.608466971665621">
        <ele>27.530000000000001</ele>
        <time>2023-08-26T14:41:53Z</time>
      </trkpt>
      <trkpt lat="57.429169993847609" lon="-6.609137021005154">
        <ele>27.530000000000001</ele>
        <time>2023-08-26T14:41:56Z</time>
      </trkpt>
      <trkpt lat="57.429227996617556" lon="-6.609384035691619">
        <ele>27.530000000000001</ele>
        <time>2023-08-26T14:41:57Z</time>
      </trkpt>
      <trkpt lat="57.429333021864295" lon="-6.609830036759377">
        <ele>27.530000000000001</ele>
        <time>2023-08-26T14:41:59Z</time>
      </trkpt>
      <trkpt lat="57.429357999935746" lon="-6.610042015090585">
        <ele>27.530000000000001</ele>
        <time>2023-08-26T14:42:00Z</time>
      </trkpt>
      <trkpt lat="57.429375015199184" lon="-6.610251981765032">
        <ele>27.530000000000001</ele>
        <time>2023-08-26T14:42:01Z</time>
      </trkpt>
      <trkpt lat="57.429342996329069" lon="-6.610465971753001">
        <ele>27.530000000000001</ele>
        <time>2023-08-26T14:42:02Z</time>
      </trkpt>
      <trkpt lat="57.429308965802193" lon="-6.610690020024777">
        <ele>27.530000000000001</ele>
        <time>2023-08-26T14:42:03Z</time>
      </trkpt>
      <trkpt lat="57.429274013265967" lon="-6.610917001962662">
        <ele>27.050000000000001</ele>
        <time>2023-08-26T14:42:04Z</time>
      </trkpt>
      <trkpt lat="57.42923897691071" lon="-6.611147001385689">
        <ele>26.57</ele>
        <time>2023-08-26T14:42:05Z</time>
      </trkpt>
      <trkpt lat="57.429232019931078" lon="-6.611383035778999">
        <ele>26.09</ele>
        <time>2023-08-26T14:42:06Z</time>
      </trkpt>
      <trkpt lat="57.429236965253949" lon="-6.611632984131575">
        <ele>26.09</ele>
        <time>2023-08-26T14:42:07Z</time>
      </trkpt>
      <trkpt lat="57.429241994395852" lon="-6.611888967454433">
        <ele>25.609999999999999</ele>
        <time>2023-08-26T14:42:08Z</time>
      </trkpt>
      <trkpt lat="57.429248029366136" lon="-6.612152997404337">
        <ele>24.649999999999999</ele>
        <time>2023-08-26T14:42:09Z</time>
      </trkpt>
      <trkpt lat="57.429547011852264" lon="-6.614124001935124">
        <ele>18.879999999999999</ele>
        <time>2023-08-26T14:42:17Z</time>
      </trkpt>
      <trkpt lat="57.429785979911685" lon="-6.616024011746049">
        <ele>11.67</ele>
        <time>2023-08-26T14:42:25Z</time>
      </trkpt>
      <trkpt lat="57.429785979911685" lon="-6.616265997290611">
        <ele>10.710000000000001</ele>
        <time>2023-08-26T14:42:26Z</time>
      </trkpt>
      <trkpt lat="57.429785979911685" lon="-6.616738988086581">
        <ele>8.789999999999999</ele>
        <time>2023-08-26T14:42:28Z</time>
      </trkpt>
      <trkpt lat="57.429785979911685" lon="-6.617009975016117">
        <ele>8.310000000000001</ele>
        <time>2023-08-26T14:42:29Z</time>
      </trkpt>
      <trkpt lat="57.429825961589813" lon="-6.617193035781384">
        <ele>7.35</ele>
        <time>2023-08-26T14:42:30Z</time>
      </trkpt>
      <trkpt lat="57.429873989894986" lon="-6.617411971092224">
        <ele>6.39</ele>
        <time>2023-08-26T14:42:31Z</time>
      </trkpt>
      <trkpt lat="57.429937021806836" lon="-6.617629984393716">
        <ele>5.91</ele>
        <time>2023-08-26T14:42:32Z</time>
      </trkpt>
      <trkpt lat="57.43001002818346" lon="-6.617847997695208">
        <ele>5.42</ele>
        <time>2023-08-26T14:42:33Z</time>
      </trkpt>
      <trkpt lat="57.43089297786355" lon="-6.620459966361523">
        <ele>2.06</ele>
        <time>2023-08-26T14:42:44Z</time>
      </trkpt>
      <trkpt lat="57.430976964533329" lon="-6.620885012671351">
        <ele>2.54</ele>
        <time>2023-08-26T14:42:46Z</time>
      </trkpt>
      <trkpt lat="57.430990040302277" lon="-6.621109982952476">
        <ele>2.06</ele>
        <time>2023-08-26T14:42:47Z</time>
      </trkpt>
      <trkpt lat="57.430993979796767" lon="-6.621344005689025">
        <ele>2.06</ele>
        <time>2023-08-26T14:42:48Z</time>
      </trkpt>
      <trkpt lat="57.431007977575064" lon="-6.622269032523036">
        <ele>1.58</ele>
        <time>2023-08-26T14:42:52Z</time>
      </trkpt>
      <trkpt lat="57.431034967303276" lon="-6.622478999197483">
        <ele>1.58</ele>
        <time>2023-08-26T14:42:53Z</time>
      </trkpt>
      <trkpt lat="57.431078972294927" lon="-6.622693995013833">
        <ele>1.58</ele>
        <time>2023-08-26T14:42:54Z</time>
      </trkpt>
      <trkpt lat="57.431207969784737" lon="-6.623334037140012">
        <ele>1.58</ele>
        <time>2023-08-26T14:42:57Z</time>
      </trkpt>
      <trkpt lat="57.431409973651171" lon="-6.624410022050142">
        <ele>3.98</ele>
        <time>2023-08-26T14:43:04Z</time>
      </trkpt>
      <trkpt lat="57.431450039148331" lon="-6.624498032033444">
        <ele>3.98</ele>
        <time>2023-08-26T14:43:05Z</time>
      </trkpt>
      <trkpt lat="57.431460013613105" lon="-6.624519992619753">
        <ele>4.46</ele>
        <time>2023-08-26T14:43:06Z</time>
      </trkpt>
      <trkpt lat="57.431530002504587" lon="-6.624553017318249">
        <ele>4.94</ele>
        <time>2023-08-26T14:43:07Z</time>
      </trkpt>
      <trkpt lat="57.431575013324618" lon="-6.624573972076178">
        <ele>5.42</ele>
        <time>2023-08-26T14:43:08Z</time>
      </trkpt>
      <trkpt lat="57.431618012487888" lon="-6.624595010653138">
        <ele>5.91</ele>
        <time>2023-08-26T14:43:09Z</time>
      </trkpt>
      <trkpt lat="57.432097960263491" lon="-6.624821992591023">
        <ele>8.310000000000001</ele>
        <time>2023-08-26T14:43:16Z</time>
      </trkpt>
      <trkpt lat="57.432942017912865" lon="-6.625181995332241">
        <ele>6.39</ele>
        <time>2023-08-26T14:43:25Z</time>
      </trkpt>
      <trkpt lat="57.433762019500136" lon="-6.625495981425047">
        <ele>4.46</ele>
        <time>2023-08-26T14:43:32Z</time>
      </trkpt>
      <trkpt lat="57.43398698978126" lon="-6.625578962266445">
        <ele>4.46</ele>
        <time>2023-08-26T14:43:39Z</time>
      </trkpt>
      <trkpt lat="57.434772960841656" lon="-6.625857995823026">
        <ele>4.46</ele>
        <time>2023-08-26T14:43:47Z</time>
      </trkpt>
      <trkpt lat="57.436170978471637" lon="-6.626622006297112">
        <ele>3.02</ele>
        <time>2023-08-26T14:43:58Z</time>
      </trkpt>
      <trkpt lat="57.436416987329721" lon="-6.626815963536501">
        <ele>2.54</ele>
        <time>2023-08-26T14:44:01Z</time>
      </trkpt>
      <trkpt lat="57.436498962342739" lon="-6.626990977674723">
        <ele>2.54</ele>
        <time>2023-08-26T14:44:02Z</time>
      </trkpt>
      <trkpt lat="57.436573980376124" lon="-6.627151994034648">
        <ele>2.54</ele>
        <time>2023-08-26T14:44:03Z</time>
      </trkpt>
      <trkpt lat="57.43750898167491" lon="-6.629146970808506">
        <ele>1.1</ele>
        <time>2023-08-26T14:44:13Z</time>
      </trkpt>
      <trkpt lat="57.437897985801101" lon="-6.630188003182411">
        <ele>2.54</ele>
        <time>2023-08-26T14:44:18Z</time>
      </trkpt>
      <trkpt lat="57.437923969700933" lon="-6.630397969856858">
        <ele>3.02</ele>
        <time>2023-08-26T14:44:19Z</time>
      </trkpt>
      <trkpt lat="57.437950037419796" lon="-6.630605002865195">
        <ele>3.5</ele>
        <time>2023-08-26T14:44:20Z</time>
      </trkpt>
      <trkpt lat="57.437962023541331" lon="-6.630812035873532">
        <ele>3.98</ele>
        <time>2023-08-26T14:44:21Z</time>
      </trkpt>
      <trkpt lat="57.437962023541331" lon="-6.631014039739966">
        <ele>4.46</ele>
        <time>2023-08-26T14:44:22Z</time>
      </trkpt>
      <trkpt lat="57.437962023541331" lon="-6.631206991150975">
        <ele>4.94</ele>
        <time>2023-08-26T14:44:23Z</time>
      </trkpt>
      <trkpt lat="57.437940984964371" lon="-6.631388962268829">
        <ele>4.94</ele>
        <time>2023-08-26T14:44:24Z</time>
      </trkpt>
      <trkpt lat="57.437913995236158" lon="-6.631565988063812">
        <ele>4.94</ele>
        <time>2023-08-26T14:44:25Z</time>
      </trkpt>
      <trkpt lat="57.437888011336327" lon="-6.63173396140337">
        <ele>4.94</ele>
        <time>2023-08-26T14:44:26Z</time>
      </trkpt>
      <trkpt lat="57.437863033264875" lon="-6.631891960278153">
        <ele>5.42</ele>
        <time>2023-08-26T14:44:27Z</time>
      </trkpt>
      <trkpt lat="57.437838977202773" lon="-6.632047025486827">
        <ele>5.42</ele>
        <time>2023-08-26T14:44:28Z</time>
      </trkpt>
      <trkpt lat="57.437811987474561" lon="-6.632222961634398">
        <ele>5.91</ele>
        <time>2023-08-26T14:44:29Z</time>
      </trkpt>
      <trkpt lat="57.437835037708282" lon="-6.632394036278129">
        <ele>5.91</ele>
        <time>2023-08-26T14:44:30Z</time>
      </trkpt>
      <trkpt lat="57.438195962458849" lon="-6.634066980332136">
        <ele>7.35</ele>
        <time>2023-08-26T14:44:38Z</time>
      </trkpt>
      <trkpt lat="57.438654033467174" lon="-6.636043014004827">
        <ele>8.789999999999999</ele>
        <time>2023-08-26T14:44:47Z</time>
      </trkpt>
      <trkpt lat="57.438700972124934" lon="-6.636190032586455">
        <ele>9.75</ele>
        <time>2023-08-26T14:44:48Z</time>
      </trkpt>
      <trkpt lat="57.438749000430107" lon="-6.636339984834194">
        <ele>10.23</ele>
        <time>2023-08-26T14:44:49Z</time>
      </trkpt>
      <trkpt lat="57.438815971836448" lon="-6.636487003415823">
        <ele>11.19</ele>
        <time>2023-08-26T14:44:50Z</time>
      </trkpt>
      <trkpt lat="57.438911022618413" lon="-6.636629998683929">
        <ele>11.67</ele>
        <time>2023-08-26T14:44:51Z</time>
      </trkpt>
      <trkpt lat="57.439018981531262" lon="-6.636792020872235">
        <ele>11.67</ele>
        <time>2023-08-26T14:44:52Z</time>
      </trkpt>
      <trkpt lat="57.440050039440393" lon="-6.637983005493879">
        <ele>12.15</ele>
        <time>2023-08-26T14:44:59Z</time>
      </trkpt>
      <trkpt lat="57.441027034074068" lon="-6.638578958809376">
        <ele>12.15</ele>
        <time>2023-08-26T14:45:06Z</time>
      </trkpt>
      <trkpt lat="57.441230965778232" lon="-6.63869496434927">
        <ele>12.15</ele>
        <time>2023-08-26T14:45:11Z</time>
      </trkpt>
      <trkpt lat="57.441230965778232" lon="-6.63869496434927">
        <ele>12.15</ele>
        <time>2023-08-26T14:45:28Z</time>
      </trkpt>
      <trkpt lat="57.441310007125139" lon="-6.638791020959616">
        <ele>11.67</ele>
        <time>2023-08-26T14:45:38Z</time>
      </trkpt>
      <trkpt lat="57.441346971318126" lon="-6.638840977102518">
        <ele>11.67</ele>
        <time>2023-08-26T14:45:39Z</time>
      </trkpt>
      <trkpt lat="57.441809987649322" lon="-6.639462998136878">
        <ele>10.710000000000001</ele>
        <time>2023-08-26T14:45:46Z</time>
      </trkpt>
      <trkpt lat="57.44275001809001" lon="-6.640704022720456">
        <ele>7.83</ele>
        <time>2023-08-26T14:45:55Z</time>
      </trkpt>
      <trkpt lat="57.443793984130025" lon="-6.641983017325401">
        <ele>-0.82</ele>
        <time>2023-08-26T14:46:06Z</time>
      </trkpt>
      <trkpt lat="57.445225026458502" lon="-6.64365503937006">
        <ele>-1.79</ele>
        <time>2023-08-26T14:46:19Z</time>
      </trkpt>
      <trkpt lat="57.446049973368645" lon="-6.644618958234787">
        <ele>0.62</ele>
        <time>2023-08-26T14:46:26Z</time>
      </trkpt>
      <trkpt lat="57.446621032431722" lon="-6.645285990089178">
        <ele>6.39</ele>
        <time>2023-08-26T14:46:33Z</time>
      </trkpt>
      <trkpt lat="57.447374984622002" lon="-6.646218979731202">
        <ele>10.23</ele>
        <time>2023-08-26T14:46:41Z</time>
      </trkpt>
      <trkpt lat="57.447447990998626" lon="-6.646330961957574">
        <ele>10.23</ele>
        <time>2023-08-26T14:46:42Z</time>
      </trkpt>
      <trkpt lat="57.44752099737525" lon="-6.646443028002977">
        <ele>10.710000000000001</ele>
        <time>2023-08-26T14:46:43Z</time>
      </trkpt>
      <trkpt lat="57.447577994316816" lon="-6.646587029099464">
        <ele>10.710000000000001</ele>
        <time>2023-08-26T14:46:44Z</time>
      </trkpt>
      <trkpt lat="57.447620993480086" lon="-6.646757014095783">
        <ele>11.19</ele>
        <time>2023-08-26T14:46:45Z</time>
      </trkpt>
      <trkpt lat="57.447663992643356" lon="-6.646921969950199">
        <ele>11.67</ele>
        <time>2023-08-26T14:46:46Z</time>
      </trkpt>
      <trkpt lat="57.447712020948529" lon="-6.647110981866717">
        <ele>13.119999999999999</ele>
        <time>2023-08-26T14:46:50Z</time>
      </trkpt>
      <trkpt lat="57.447819979861379" lon="-6.647530999034643">
        <ele>14.08</ele>
        <time>2023-08-26T14:46:57Z</time>
      </trkpt>
      <trkpt lat="57.44818702340126" lon="-6.649038987234235">
        <ele>15.039999999999999</ele>
        <time>2023-08-26T14:47:04Z</time>
      </trkpt>
      <trkpt lat="57.448348039761186" lon="-6.649537039920688">
        <ele>15.52</ele>
        <time>2023-08-26T14:47:06Z</time>
      </trkpt>
      <trkpt lat="57.448438983410597" lon="-6.64975899271667">
        <ele>16</ele>
        <time>2023-08-26T14:47:07Z</time>
      </trkpt>
      <trkpt lat="57.448540991172194" lon="-6.649946998804808">
        <ele>16.48</ele>
        <time>2023-08-26T14:47:08Z</time>
      </trkpt>
      <trkpt lat="57.44898296892643" lon="-6.65083103813231">
        <ele>19.84</ele>
        <time>2023-08-26T14:47:14Z</time>
      </trkpt>
      <trkpt lat="57.449048012495041" lon="-6.651034969836474">
        <ele>19.359999999999999</ele>
        <time>2023-08-26T14:47:15Z</time>
      </trkpt>
      <trkpt lat="57.449114983901381" lon="-6.651247031986713">
        <ele>18.879999999999999</ele>
        <time>2023-08-26T14:47:16Z</time>
      </trkpt>
      <trkpt lat="57.44926200248301" lon="-6.651693033054471">
        <ele>18.399999999999999</ele>
        <time>2023-08-26T14:47:18Z</time>
      </trkpt>
      <trkpt lat="57.449355963617563" lon="-6.651904005557299">
        <ele>18.399999999999999</ele>
        <time>2023-08-26T14:47:19Z</time>
      </trkpt>
      <trkpt lat="57.45014201849699" lon="-6.653901999816299">
        <ele>22.25</ele>
        <time>2023-08-26T14:47:28Z</time>
      </trkpt>
      <trkpt lat="57.450544014573097" lon="-6.65497999638319">
        <ele>28.5</ele>
        <time>2023-08-26T14:47:33Z</time>
      </trkpt>
      <trkpt lat="57.451713960617781" lon="-6.657010009512305">
        <ele>40.030000000000001</ele>
        <time>2023-08-26T14:47:44Z</time>
      </trkpt>
      <trkpt lat="57.452342016622424" lon="-6.65828799828887">
        <ele>46.280000000000001</ele>
        <time>2023-08-26T14:47:51Z</time>
      </trkpt>
      <trkpt lat="57.45237504132092" lon="-6.658397968858481">
        <ele>46.759999999999998</ele>
        <time>2023-08-26T14:47:52Z</time>
      </trkpt>
      <trkpt lat="57.452395996078849" lon="-6.658468963578343">
        <ele>47.240000000000002</ele>
        <time>2023-08-26T14:47:53Z</time>
      </trkpt>
      <trkpt lat="57.452410999685526" lon="-6.658520009368658">
        <ele>47.719999999999999</ele>
        <time>2023-08-26T14:47:54Z</time>
      </trkpt>
      <trkpt lat="57.452422985807061" lon="-6.658558985218406">
        <ele>48.200000000000003</ele>
        <time>2023-08-26T14:47:55Z</time>
      </trkpt>
      <trkpt lat="57.452579978853464" lon="-6.659089978784323">
        <ele>50.609999999999999</ele>
        <time>2023-08-26T14:48:03Z</time>
      </trkpt>
      <trkpt lat="57.452832022681832" lon="-6.660468969494104">
        <ele>52.530000000000001</ele>
        <time>2023-08-26T14:48:11Z</time>
      </trkpt>
      <trkpt lat="57.452832022681832" lon="-6.660656975582242">
        <ele>52.530000000000001</ele>
        <time>2023-08-26T14:48:12Z</time>
      </trkpt>
      <trkpt lat="57.452832022681832" lon="-6.660850010812283">
        <ele>52.530000000000001</ele>
        <time>2023-08-26T14:48:13Z</time>
      </trkpt>
      <trkpt lat="57.452826993539929" lon="-6.661069029942155">
        <ele>52.530000000000001</ele>
        <time>2023-08-26T14:48:14Z</time>
      </trkpt>
      <trkpt lat="57.452792041003704" lon="-6.661271033808589">
        <ele>52.530000000000001</ele>
        <time>2023-08-26T14:48:15Z</time>
      </trkpt>
      <trkpt lat="57.452755998820066" lon="-6.661474965512753">
        <ele>52.530000000000001</ele>
        <time>2023-08-26T14:48:16Z</time>
      </trkpt>
      <trkpt lat="57.452689027413726" lon="-6.661670012399554">
        <ele>52.530000000000001</ele>
        <time>2023-08-26T14:48:17Z</time>
      </trkpt>
      <trkpt lat="57.452618032693863" lon="-6.661838991567493">
        <ele>52.530000000000001</ele>
        <time>2023-08-26T14:48:18Z</time>
      </trkpt>
      <trkpt lat="57.452547959983349" lon="-6.66200595907867">
        <ele>53.009999999999998</ele>
        <time>2023-08-26T14:48:19Z</time>
      </trkpt>
      <trkpt lat="57.452071029692888" lon="-6.662931991741061">
        <ele>52.049999999999997</ele>
        <time>2023-08-26T14:48:25Z</time>
      </trkpt>
      <trkpt lat="57.451973967254162" lon="-6.663023019209504">
        <ele>51.57</ele>
        <time>2023-08-26T14:48:26Z</time>
      </trkpt>
      <trkpt lat="57.451858967542648" lon="-6.663066018372774">
        <ele>51.57</ele>
        <time>2023-08-26T14:48:27Z</time>
      </trkpt>
      <trkpt lat="57.451733993366361" lon="-6.663107005879283">
        <ele>51.090000000000003</ele>
        <time>2023-08-26T14:48:28Z</time>
      </trkpt>
      <trkpt lat="57.451604995876551" lon="-6.663145981729031">
        <ele>51.090000000000003</ele>
        <time>2023-08-26T14:48:29Z</time>
      </trkpt>
      <trkpt lat="57.451081965118647" lon="-6.663305992260575">
        <ele>51.090000000000003</ele>
        <time>2023-08-26T14:48:33Z</time>
      </trkpt>
      <trkpt lat="57.450954979285598" lon="-6.663415962830186">
        <ele>51.090000000000003</ele>
        <time>2023-08-26T14:48:34Z</time>
      </trkpt>
      <trkpt lat="57.450833022594452" lon="-6.663544960319996">
        <ele>51.090000000000003</ele>
        <time>2023-08-26T14:48:35Z</time>
      </trkpt>
      <trkpt lat="57.450718022882938" lon="-6.663665995001793">
        <ele>50.609999999999999</ele>
        <time>2023-08-26T14:48:36Z</time>
      </trkpt>
      <trkpt lat="57.450643004849553" lon="-6.663745036348701">
        <ele>50.609999999999999</ele>
        <time>2023-08-26T14:48:37Z</time>
      </trkpt>
      <trkpt lat="57.450591959059238" lon="-6.663978975266218">
        <ele>50.130000000000003</ele>
        <time>2023-08-26T14:48:38Z</time>
      </trkpt>
      <trkpt lat="57.450554994866252" lon="-6.664149966090918">
        <ele>50.130000000000003</ele>
        <time>2023-08-26T14:48:39Z</time>
      </trkpt>
      <trkpt lat="57.450542002916336" lon="-6.66430301964283">
        <ele>49.649999999999999</ele>
        <time>2023-08-26T14:48:40Z</time>
      </trkpt>
      <trkpt lat="57.450562035664916" lon="-6.664502006024122">
        <ele>50.130000000000003</ele>
        <time>2023-08-26T14:48:41Z</time>
      </trkpt>
      <trkpt lat="57.450583996251225" lon="-6.664717001840472">
        <ele>50.609999999999999</ele>
        <time>2023-08-26T14:48:42Z</time>
      </trkpt>
      <trkpt lat="57.450606962665915" lon="-6.66494800709188">
        <ele>51.090000000000003</ele>
        <time>2023-08-26T14:48:43Z</time>
      </trkpt>
      <trkpt lat="57.450639987364411" lon="-6.665178006514907">
        <ele>51.57</ele>
        <time>2023-08-26T14:48:44Z</time>
      </trkpt>
      <trkpt lat="57.450691033154726" lon="-6.665410017594695">
        <ele>52.530000000000001</ele>
        <time>2023-08-26T14:48:45Z</time>
      </trkpt>
      <trkpt lat="57.451078025624156" lon="-6.667598029598594">
        <ele>60.700000000000003</ele>
        <time>2023-08-26T14:48:54Z</time>
      </trkpt>
      <trkpt lat="57.451278017833829" lon="-6.669252030551434">
        <ele>68.870000000000005</ele>
        <time>2023-08-26T14:49:01Z</time>
      </trkpt>
      <trkpt lat="57.451267959550023" lon="-6.669466020539403">
        <ele>70.310000000000002</ele>
        <time>2023-08-26T14:49:02Z</time>
      </trkpt>
      <trkpt lat="57.451224960386753" lon="-6.669682022184134">
        <ele>71.760000000000005</ele>
        <time>2023-08-26T14:49:03Z</time>
      </trkpt>
      <trkpt lat="57.45117399841547" lon="-6.669894000515342">
        <ele>73.200000000000003</ele>
        <time>2023-08-26T14:49:04Z</time>
      </trkpt>
      <trkpt lat="57.451121024787426" lon="-6.670113019645214">
        <ele>75.120000000000005</ele>
        <time>2023-08-26T14:49:05Z</time>
      </trkpt>
      <trkpt lat="57.450610985979438" lon="-6.672537988051772">
        <ele>92.900000000000006</ele>
        <time>2023-08-26T14:49:15Z</time>
      </trkpt>
      <trkpt lat="57.44982099160552" lon="-6.67540904134512">
        <ele>104.44</ele>
        <time>2023-08-26T14:49:26Z</time>
      </trkpt>
      <trkpt lat="57.449326040223241" lon="-6.677423967048526">
        <ele>110.20999999999999</ele>
        <time>2023-08-26T14:49:35Z</time>
      </trkpt>
      <trkpt lat="57.449229983612895" lon="-6.677836021408439">
        <ele>112.61</ele>
        <time>2023-08-26T14:49:42Z</time>
      </trkpt>
      <trkpt lat="57.449055975303054" lon="-6.678585028275847">
        <ele>115.98</ele>
        <time>2023-08-26T14:49:50Z</time>
      </trkpt>
      <trkpt lat="57.44880803860724" lon="-6.679652966558933">
        <ele>118.38</ele>
        <time>2023-08-26T14:49:59Z</time>
      </trkpt>
      <trkpt lat="57.448521964251995" lon="-6.68114704079926">
        <ele>124.63</ele>
        <time>2023-08-26T14:50:09Z</time>
      </trkpt>
      <trkpt lat="57.447997005656362" lon="-6.68288997374475">
        <ele>124.63</ele>
        <time>2023-08-26T14:50:19Z</time>
      </trkpt>
      <trkpt lat="57.447869013994932" lon="-6.683287024497986">
        <ele>120.78</ele>
        <time>2023-08-26T14:50:24Z</time>
      </trkpt>
      <trkpt lat="57.447849987074733" lon="-6.683370005339384">
        <ele>118.38</ele>
        <time>2023-08-26T14:50:31Z</time>
      </trkpt>
      <trkpt lat="57.447772035375237" lon="-6.683763032779098">
        <ele>116.45999999999999</ele>
        <time>2023-08-26T14:50:35Z</time>
      </trkpt>
      <trkpt lat="57.447682013735175" lon="-6.685089971870184">
        <ele>110.69</ele>
        <time>2023-08-26T14:50:43Z</time>
      </trkpt>
      <trkpt lat="57.447663992643356" lon="-6.687261974439025">
        <ele>97.709999999999994</ele>
        <time>2023-08-26T14:50:53Z</time>
      </trkpt>
      <trkpt lat="57.447672039270401" lon="-6.687373034656048">
        <ele>96.269999999999996</ele>
        <time>2023-08-26T14:50:54Z</time>
      </trkpt>
      <trkpt lat="57.447675978764892" lon="-6.687437994405627">
        <ele>94.829999999999998</ele>
        <time>2023-08-26T14:50:55Z</time>
      </trkpt>
      <trkpt lat="57.447678996250033" lon="-6.687476970255375">
        <ele>93.870000000000005</ele>
        <time>2023-08-26T14:50:56Z</time>
      </trkpt>
      <trkpt lat="57.447678996250033" lon="-6.687476970255375">
        <ele>93.390000000000001</ele>
        <time>2023-08-26T14:51:08Z</time>
      </trkpt>
      <trkpt lat="57.447678996250033" lon="-6.687476970255375">
        <ele>92.900000000000006</ele>
        <time>2023-08-26T14:51:56Z</time>
      </trkpt>
      <trkpt lat="57.44769399985671" lon="-6.687691966071725">
        <ele>90.5</ele>
        <time>2023-08-26T14:52:05Z</time>
      </trkpt>
      <trkpt lat="57.447703974321485" lon="-6.687820041552186">
        <ele>89.540000000000006</ele>
        <time>2023-08-26T14:52:06Z</time>
      </trkpt>
      <trkpt lat="57.447954006493092" lon="-6.68916198424995">
        <ele>82.329999999999998</ele>
        <time>2023-08-26T14:52:12Z</time>
      </trkpt>
      <trkpt lat="57.448266986757517" lon="-6.690594032406807">
        <ele>73.200000000000003</ele>
        <time>2023-08-26T14:52:18Z</time>
      </trkpt>
      <trkpt lat="57.448343010619283" lon="-6.690787989646196">
        <ele>71.760000000000005</ele>
        <time>2023-08-26T14:52:19Z</time>
      </trkpt>
      <trkpt lat="57.448433032259345" lon="-6.691016983240843">
        <ele>69.829999999999998</ele>
        <time>2023-08-26T14:52:20Z</time>
      </trkpt>
      <trkpt lat="57.449306007474661" lon="-6.692563025280833">
        <ele>58.299999999999997</ele>
        <time>2023-08-26T14:52:29Z</time>
      </trkpt>
      <trkpt lat="57.450079992413521" lon="-6.694095991551876">
        <ele>49.649999999999999</ele>
        <time>2023-08-26T14:52:37Z</time>
      </trkpt>
      <trkpt lat="57.450126009061933" lon="-6.694330014288425">
        <ele>48.68</ele>
        <time>2023-08-26T14:52:38Z</time>
      </trkpt>
      <trkpt lat="57.450171019881964" lon="-6.694579040631652">
        <ele>47.240000000000002</ele>
        <time>2023-08-26T14:52:39Z</time>
      </trkpt>
      <trkpt lat="57.450180994346738" lon="-6.694798981770873">
        <ele>45.799999999999997</ele>
        <time>2023-08-26T14:52:40Z</time>
      </trkpt>
      <trkpt lat="57.450192980468273" lon="-6.695039039477706">
        <ele>44.359999999999999</ele>
        <time>2023-08-26T14:52:41Z</time>
      </trkpt>
      <trkpt lat="57.450216030701995" lon="-6.695514963939786">
        <ele>41.469999999999999</ele>
        <time>2023-08-26T14:52:43Z</time>
      </trkpt>
      <trkpt lat="57.450255006551743" lon="-6.695748986676335">
        <ele>40.030000000000001</ele>
        <time>2023-08-26T14:52:44Z</time>
      </trkpt>
      <trkpt lat="57.45037897489965" lon="-6.696491036564112">
        <ele>35.710000000000001</ele>
        <time>2023-08-26T14:52:47Z</time>
      </trkpt>
      <trkpt lat="57.450404036790133" lon="-6.696750959381461">
        <ele>33.780000000000001</ele>
        <time>2023-08-26T14:52:48Z</time>
      </trkpt>
      <trkpt lat="57.450394984334707" lon="-6.697015995159745">
        <ele>31.859999999999999</ele>
        <time>2023-08-26T14:52:49Z</time>
      </trkpt>
      <trkpt lat="57.450381992384791" lon="-6.697287987917662">
        <ele>30.420000000000002</ele>
        <time>2023-08-26T14:52:50Z</time>
      </trkpt>
      <trkpt lat="57.450347961857915" lon="-6.697554029524326">
        <ele>28.98</ele>
        <time>2023-08-26T14:52:51Z</time>
      </trkpt>
      <trkpt lat="57.450085021555424" lon="-6.699579013511539">
        <ele>17.440000000000001</ele>
        <time>2023-08-26T14:52:59Z</time>
      </trkpt>
      <trkpt lat="57.449997011572123" lon="-6.699771964922547">
        <ele>16</ele>
        <time>2023-08-26T14:53:00Z</time>
      </trkpt>
      <trkpt lat="57.449928028509021" lon="-6.699923006817699">
        <ele>15.039999999999999</ele>
        <time>2023-08-26T14:53:01Z</time>
      </trkpt>
      <trkpt lat="57.449857033789158" lon="-6.70007798820734">
        <ele>13.6</ele>
        <time>2023-08-26T14:53:02Z</time>
      </trkpt>
      <trkpt lat="57.449783021584153" lon="-6.700241016224027">
        <ele>12.15</ele>
        <time>2023-08-26T14:53:03Z</time>
      </trkpt>
      <trkpt lat="57.449732981622219" lon="-6.700413012877107">
        <ele>10.23</ele>
        <time>2023-08-26T14:53:04Z</time>
      </trkpt>
      <trkpt lat="57.449708003550768" lon="-6.700654998421669">
        <ele>8.310000000000001</ele>
        <time>2023-08-26T14:53:05Z</time>
      </trkpt>
      <trkpt lat="57.449682019650936" lon="-6.700910981744528">
        <ele>6.87</ele>
        <time>2023-08-26T14:53:06Z</time>
      </trkpt>
      <trkpt lat="57.449655029922724" lon="-6.701169982552528">
        <ele>5.42</ele>
        <time>2023-08-26T14:53:07Z</time>
      </trkpt>
      <trkpt lat="57.449480015784502" lon="-6.70280696824193">
        <ele>-1.79</ele>
        <time>2023-08-26T14:53:15Z</time>
      </trkpt>
      <trkpt lat="57.449446991086006" lon="-6.702969996258616">
        <ele>-2.27</ele>
        <time>2023-08-26T14:53:16Z</time>
      </trkpt>
      <trkpt lat="57.449412038549781" lon="-6.703123971819878">
        <ele>-2.27</ele>
        <time>2023-08-26T14:53:17Z</time>
      </trkpt>
      <trkpt lat="57.449020016938448" lon="-6.704307999461889">
        <ele>-3.71</ele>
        <time>2023-08-26T14:53:26Z</time>
      </trkpt>
      <trkpt lat="57.448996966704726" lon="-6.704376982524991">
        <ele>-3.71</ele>
        <time>2023-08-26T14:53:27Z</time>
      </trkpt>
      <trkpt lat="57.448678035289049" lon="-6.705339979380369">
        <ele>-4.67</ele>
        <time>2023-08-26T14:53:34Z</time>
      </trkpt>
      <trkpt lat="57.448351979255676" lon="-6.706730034202337">
        <ele>-5.15</ele>
        <time>2023-08-26T14:53:41Z</time>
      </trkpt>
      <trkpt lat="57.448339993134141" lon="-6.706943018361926">
        <ele>-5.15</ele>
        <time>2023-08-26T14:53:42Z</time>
      </trkpt>
      <trkpt lat="57.448329012840986" lon="-6.707142004743218">
        <ele>-4.67</ele>
        <time>2023-08-26T14:53:43Z</time>
      </trkpt>
      <trkpt lat="57.448348039761186" lon="-6.707315007224679">
        <ele>-4.67</ele>
        <time>2023-08-26T14:53:44Z</time>
      </trkpt>
      <trkpt lat="57.44838198646903" lon="-6.707493960857391">
        <ele>-4.19</ele>
        <time>2023-08-26T14:53:45Z</time>
      </trkpt>
      <trkpt lat="57.448416016995907" lon="-6.707670986652374">
        <ele>-3.71</ele>
        <time>2023-08-26T14:53:46Z</time>
      </trkpt>
      <trkpt lat="57.448476031422615" lon="-6.708063008263707">
        <ele>-2.75</ele>
        <time>2023-08-26T14:53:48Z</time>
      </trkpt>
      <trkpt lat="57.448477037250996" lon="-6.708256965503097">
        <ele>-2.27</ele>
        <time>2023-08-26T14:53:49Z</time>
      </trkpt>
      <trkpt lat="57.448477959260345" lon="-6.708442959934473">
        <ele>-2.27</ele>
        <time>2023-08-26T14:53:50Z</time>
      </trkpt>
      <trkpt lat="57.448478965088725" lon="-6.70871302485466">
        <ele>-1.79</ele>
        <time>2023-08-26T14:53:55Z</time>
      </trkpt>
      <trkpt lat="57.448481982573867" lon="-6.709290035068989">
        <ele>-1.3</ele>
        <time>2023-08-26T14:54:02Z</time>
      </trkpt>
      <trkpt lat="57.448491035029292" lon="-6.711262967437506">
        <ele>1.1</ele>
        <time>2023-08-26T14:54:10Z</time>
      </trkpt>
      <trkpt lat="57.448625983670354" lon="-6.714212978258729">
        <ele>7.83</ele>
        <time>2023-08-26T14:54:21Z</time>
      </trkpt>
      <trkpt lat="57.448610980063677" lon="-6.714476002380252">
        <ele>8.310000000000001</ele>
        <time>2023-08-26T14:54:22Z</time>
      </trkpt>
      <trkpt lat="57.448575021699071" lon="-6.71468697488308">
        <ele>8.789999999999999</ele>
        <time>2023-08-26T14:54:23Z</time>
      </trkpt>
      <trkpt lat="57.448521964251995" lon="-6.714881015941501">
        <ele>9.27</ele>
        <time>2023-08-26T14:54:24Z</time>
      </trkpt>
      <trkpt lat="57.448468990623951" lon="-6.71507396735251">
        <ele>9.75</ele>
        <time>2023-08-26T14:54:25Z</time>
      </trkpt>
      <trkpt lat="57.448411993682384" lon="-6.715286029502749">
        <ele>10.23</ele>
        <time>2023-08-26T14:54:26Z</time>
      </trkpt>
      <trkpt lat="57.448218036442995" lon="-6.715850969776511">
        <ele>11.67</ele>
        <time>2023-08-26T14:54:29Z</time>
      </trkpt>
      <trkpt lat="57.448152992874384" lon="-6.71604098752141">
        <ele>12.630000000000001</ele>
        <time>2023-08-26T14:54:30Z</time>
      </trkpt>
      <trkpt lat="57.44806095957756" lon="-6.716199992224574">
        <ele>13.119999999999999</ele>
        <time>2023-08-26T14:54:31Z</time>
      </trkpt>
      <trkpt lat="57.447960963472724" lon="-6.716337036341429">
        <ele>14.08</ele>
        <time>2023-08-26T14:54:32Z</time>
      </trkpt>
      <trkpt lat="57.447863984853029" lon="-6.716498974710703">
        <ele>15.039999999999999</ele>
        <time>2023-08-26T14:54:33Z</time>
      </trkpt>
      <trkpt lat="57.447678996250033" lon="-6.716808015480638">
        <ele>16.48</ele>
        <time>2023-08-26T14:54:35Z</time>
      </trkpt>
      <trkpt lat="57.447609007358551" lon="-6.71696400269866">
        <ele>17.440000000000001</ele>
        <time>2023-08-26T14:54:36Z</time>
      </trkpt>
      <trkpt lat="57.44754396378994" lon="-6.71715896576643">
        <ele>17.920000000000002</ele>
        <time>2023-08-26T14:54:37Z</time>
      </trkpt>
      <trkpt lat="57.447382025420666" lon="-6.717646038159728">
        <ele>19.84</ele>
        <time>2023-08-26T14:54:39Z</time>
      </trkpt>
      <trkpt lat="57.447097962722182" lon="-6.719579994678497">
        <ele>24.170000000000002</ele>
        <time>2023-08-26T14:54:47Z</time>
      </trkpt>
      <trkpt lat="57.446706024929881" lon="-6.72117498703301">
        <ele>22.73</ele>
        <time>2023-08-26T14:54:54Z</time>
      </trkpt>
      <trkpt lat="57.446639975532889" lon="-6.721372967585921">
        <ele>22.73</ele>
        <time>2023-08-26T14:54:55Z</time>
      </trkpt>
      <trkpt lat="57.446565963327885" lon="-6.721564996987581">
        <ele>22.73</ele>
        <time>2023-08-26T14:54:56Z</time>
      </trkpt>
      <trkpt lat="57.446469990536571" lon="-6.721714027225971">
        <ele>22.73</ele>
        <time>2023-08-26T14:54:57Z</time>
      </trkpt>
      <trkpt lat="57.446181988343596" lon="-6.722167991101742">
        <ele>24.170000000000002</ele>
        <time>2023-08-26T14:55:00Z</time>
      </trkpt>
      <trkpt lat="57.446104036644101" lon="-6.722374018281698">
        <ele>25.609999999999999</ele>
        <time>2023-08-26T14:55:01Z</time>
      </trkpt>
      <trkpt lat="57.445759959518909" lon="-6.723701963201165">
        <ele>31.859999999999999</ele>
        <time>2023-08-26T14:55:07Z</time>
      </trkpt>
      <trkpt lat="57.445699023082852" lon="-6.723849987611175">
        <ele>32.340000000000003</ele>
        <time>2023-08-26T14:55:08Z</time>
      </trkpt>
      <trkpt lat="57.445634985342622" lon="-6.72396800480783">
        <ele>32.82</ele>
        <time>2023-08-26T14:55:09Z</time>
      </trkpt>
      <trkpt lat="57.44554596953094" lon="-6.724072024226189">
        <ele>33.299999999999997</ele>
        <time>2023-08-26T14:55:10Z</time>
      </trkpt>
      <trkpt lat="57.445453014224768" lon="-6.724179983139038">
        <ele>33.780000000000001</ele>
        <time>2023-08-26T14:55:11Z</time>
      </trkpt>
      <trkpt lat="57.444945992901921" lon="-6.724821031093597">
        <ele>36.670000000000002</ele>
        <time>2023-08-26T14:55:17Z</time>
      </trkpt>
      <trkpt lat="57.444909028708935" lon="-6.724896971136332">
        <ele>37.149999999999999</ele>
        <time>2023-08-26T14:55:18Z</time>
      </trkpt>
      <trkpt lat="57.444868963211775" lon="-6.724981963634491">
        <ele>37.149999999999999</ele>
        <time>2023-08-26T14:55:19Z</time>
      </trkpt>
      <trkpt lat="57.444820012897253" lon="-6.72508698888123">
        <ele>37.630000000000003</ele>
        <time>2023-08-26T14:55:20Z</time>
      </trkpt>
      <trkpt lat="57.444762010127306" lon="-6.725209029391408">
        <ele>38.109999999999999</ele>
        <time>2023-08-26T14:55:21Z</time>
      </trkpt>
      <trkpt lat="57.444139989092946" lon="-6.726595982909203">
        <ele>40.509999999999998</ele>
        <time>2023-08-26T14:55:29Z</time>
      </trkpt>
      <trkpt lat="57.443717960268259" lon="-6.727588986977935">
        <ele>42.920000000000002</ele>
        <time>2023-08-26T14:55:35Z</time>
      </trkpt>
      <trkpt lat="57.443666998296976" lon="-6.72770700417459">
        <ele>43.399999999999999</ele>
        <time>2023-08-26T14:55:36Z</time>
      </trkpt>
      <trkpt lat="57.44365300051868" lon="-6.727859973907471">
        <ele>43.880000000000003</ele>
        <time>2023-08-26T14:55:37Z</time>
      </trkpt>
      <trkpt lat="57.443660963326693" lon="-6.72802995890379">
        <ele>44.359999999999999</ele>
        <time>2023-08-26T14:55:38Z</time>
      </trkpt>
      <trkpt lat="57.443669009953737" lon="-6.728226011618972">
        <ele>44.359999999999999</ele>
        <time>2023-08-26T14:55:39Z</time>
      </trkpt>
      <trkpt lat="57.44380203075707" lon="-6.730461968109012">
        <ele>47.719999999999999</ele>
        <time>2023-08-26T14:55:48Z</time>
      </trkpt>
      <trkpt lat="57.443860033527017" lon="-6.730690039694309">
        <ele>48.200000000000003</ele>
        <time>2023-08-26T14:55:49Z</time>
      </trkpt>
      <trkpt lat="57.443941002711654" lon="-6.730902018025518">
        <ele>48.68</ele>
        <time>2023-08-26T14:55:50Z</time>
      </trkpt>
      <trkpt lat="57.444024989381433" lon="-6.73112103715539">
        <ele>49.159999999999997</ele>
        <time>2023-08-26T14:55:51Z</time>
      </trkpt>
      <trkpt lat="57.444109981879592" lon="-6.731345001608133">
        <ele>49.159999999999997</ele>
        <time>2023-08-26T14:55:52Z</time>
      </trkpt>
      <trkpt lat="57.445149002596736" lon="-6.733881030231714">
        <ele>53.969999999999999</ele>
        <time>2023-08-26T14:56:03Z</time>
      </trkpt>
      <trkpt lat="57.445184960961342" lon="-6.734089991077781">
        <ele>54.450000000000003</ele>
        <time>2023-08-26T14:56:04Z</time>
      </trkpt>
      <trkpt lat="57.445204993709922" lon="-6.73432300798595">
        <ele>54.450000000000003</ele>
        <time>2023-08-26T14:56:05Z</time>
      </trkpt>
      <trkpt lat="57.445225026458502" lon="-6.734565999358892">
        <ele>54.450000000000003</ele>
        <time>2023-08-26T14:56:06Z</time>
      </trkpt>
      <trkpt lat="57.44524497538805" lon="-6.734800022095442">
        <ele>54.93</ele>
        <time>2023-08-26T14:56:07Z</time>
      </trkpt>
      <trkpt lat="57.445271965116262" lon="-6.735023986548185">
        <ele>55.409999999999997</ele>
        <time>2023-08-26T14:56:08Z</time>
      </trkpt>
      <trkpt lat="57.445312030613422" lon="-6.735255997627974">
        <ele>54.93</ele>
        <time>2023-08-26T14:56:09Z</time>
      </trkpt>
      <trkpt lat="57.445510011166334" lon="-6.736490987241268">
        <ele>49.159999999999997</ele>
        <time>2023-08-26T14:56:14Z</time>
      </trkpt>
      <trkpt lat="57.445534989237785" lon="-6.736761974170804">
        <ele>47.240000000000002</ele>
        <time>2023-08-26T14:56:15Z</time>
      </trkpt>
      <trkpt lat="57.445520991459489" lon="-6.737560015171766">
        <ele>42.439999999999998</ele>
        <time>2023-08-26T14:56:18Z</time>
      </trkpt>
      <trkpt lat="57.445517973974347" lon="-6.737748021259904">
        <ele>40.990000000000002</ele>
        <time>2023-08-26T14:56:19Z</time>
      </trkpt>
      <trkpt lat="57.445532977581024" lon="-6.737943990156055">
        <ele>39.549999999999997</ele>
        <time>2023-08-26T14:56:20Z</time>
      </trkpt>
      <trkpt lat="57.4455860350281" lon="-6.73806301318109">
        <ele>38.590000000000003</ele>
        <time>2023-08-26T14:56:21Z</time>
      </trkpt>
      <trkpt lat="57.445657029747963" lon="-6.738166026771069">
        <ele>37.149999999999999</ele>
        <time>2023-08-26T14:56:22Z</time>
      </trkpt>
      <trkpt lat="57.445730958133936" lon="-6.738258982077241">
        <ele>36.189999999999998</ele>
        <time>2023-08-26T14:56:23Z</time>
      </trkpt>
      <trkpt lat="57.445804970338941" lon="-6.738353027030826">
        <ele>35.229999999999997</ele>
        <time>2023-08-26T14:56:24Z</time>
      </trkpt>
      <trkpt lat="57.44601896032691" lon="-6.7386220023036">
        <ele>32.82</ele>
        <time>2023-08-26T14:56:28Z</time>
      </trkpt>
      <trkpt lat="57.446049973368645" lon="-6.738661983981729">
        <ele>32.340000000000003</ele>
        <time>2023-08-26T14:56:29Z</time>
      </trkpt>
      <trkpt lat="57.44606195949018" lon="-6.738805985078216">
        <ele>32.340000000000003</ele>
        <time>2023-08-26T14:56:30Z</time>
      </trkpt>
      <trkpt lat="57.446036981418729" lon="-6.738875973969698">
        <ele>32.340000000000003</ele>
        <time>2023-08-26T14:56:31Z</time>
      </trkpt>
      <trkpt lat="57.446012003347278" lon="-6.738945040851831">
        <ele>31.859999999999999</ele>
        <time>2023-08-26T14:56:32Z</time>
      </trkpt>
      <trkpt lat="57.445986019447446" lon="-6.739015029743314">
        <ele>31.859999999999999</ele>
        <time>2023-08-26T14:56:33Z</time>
      </trkpt>
      <trkpt lat="57.44595299474895" lon="-6.739106979221106">
        <ele>31.859999999999999</ele>
        <time>2023-08-26T14:56:34Z</time>
      </trkpt>
      <trkpt lat="57.445589974522591" lon="-6.740109035745263">
        <ele>38.590000000000003</ele>
        <time>2023-08-26T14:56:41Z</time>
      </trkpt>
      <trkpt lat="57.445542030036449" lon="-6.740269968286157">
        <ele>40.030000000000001</ele>
        <time>2023-08-26T14:56:42Z</time>
      </trkpt>
      <trkpt lat="57.445497019216418" lon="-6.740466021001339">
        <ele>41.469999999999999</ele>
        <time>2023-08-26T14:56:43Z</time>
      </trkpt>
      <trkpt lat="57.445452008396387" lon="-6.740666013211012">
        <ele>42.920000000000002</ele>
        <time>2023-08-26T14:56:44Z</time>
      </trkpt>
      <trkpt lat="57.445409009233117" lon="-6.740859970450401">
        <ele>43.880000000000003</ele>
        <time>2023-08-26T14:56:45Z</time>
      </trkpt>
      <trkpt lat="57.445305995643139" lon="-6.741013024002314">
        <ele>45.32</ele>
        <time>2023-08-26T14:56:46Z</time>
      </trkpt>
      <trkpt lat="57.445217985659838" lon="-6.741143027320504">
        <ele>46.759999999999998</ele>
        <time>2023-08-26T14:56:47Z</time>
      </trkpt>
      <trkpt lat="57.445130981504917" lon="-6.741272024810314">
        <ele>47.719999999999999</ele>
        <time>2023-08-26T14:56:48Z</time>
      </trkpt>
      <trkpt lat="57.445048000663519" lon="-6.74139398150146">
        <ele>49.649999999999999</ele>
        <time>2023-08-26T14:56:49Z</time>
      </trkpt>
      <trkpt lat="57.444980023428798" lon="-6.741494983434677">
        <ele>51.090000000000003</ele>
        <time>2023-08-26T14:56:50Z</time>
      </trkpt>
      <trkpt lat="57.444956973195076" lon="-6.741529013961554">
        <ele>52.049999999999997</ele>
        <time>2023-08-26T14:56:51Z</time>
      </trkpt>
      <trkpt lat="57.444939035922289" lon="-6.741610988974571">
        <ele>53.490000000000002</ele>
        <time>2023-08-26T14:56:52Z</time>
      </trkpt>
      <trkpt lat="57.444909028708935" lon="-6.741750966757536">
        <ele>61.18</ele>
        <time>2023-08-26T14:56:59Z</time>
      </trkpt>
      <trkpt lat="57.444894025102258" lon="-6.74184400588274">
        <ele>66.950000000000003</ele>
        <time>2023-08-26T14:57:08Z</time>
      </trkpt>
      <trkpt lat="57.444894025102258" lon="-6.74184400588274">
        <ele>66.469999999999999</ele>
        <time>2023-08-26T14:57:59Z</time>
      </trkpt>
      <trkpt lat="57.444938030093908" lon="-6.742218006402254">
        <ele>64.549999999999997</ele>
        <time>2023-08-26T14:58:24Z</time>
      </trkpt>
      <trkpt lat="57.444972982630134" lon="-6.742514977231622">
        <ele>63.579999999999998</ele>
        <time>2023-08-26T14:58:27Z</time>
      </trkpt>
      <trkpt lat="57.444976000115275" lon="-6.74259502440691">
        <ele>63.579999999999998</ele>
        <time>2023-08-26T14:58:28Z</time>
      </trkpt>
      <trkpt lat="57.444966025650501" lon="-6.74278998747468">
        <ele>62.619999999999997</ele>
        <time>2023-08-26T14:58:30Z</time>
      </trkpt>
      <trkpt lat="57.444959990680218" lon="-6.742895012721419">
        <ele>62.140000000000001</ele>
        <time>2023-08-26T14:58:31Z</time>
      </trkpt>
      <trkpt lat="57.444946998730302" lon="-6.742970030754805">
        <ele>62.140000000000001</ele>
        <time>2023-08-26T14:58:32Z</time>
      </trkpt>
      <trkpt lat="57.444913974031806" lon="-6.743049994111061">
        <ele>61.659999999999997</ele>
        <time>2023-08-26T14:58:33Z</time>
      </trkpt>
      <trkpt lat="57.444876004010439" lon="-6.743144039064646">
        <ele>61.659999999999997</ele>
        <time>2023-08-26T14:58:34Z</time>
      </trkpt>
      <trkpt lat="57.444837028160691" lon="-6.74324001185596">
        <ele>61.659999999999997</ele>
        <time>2023-08-26T14:58:35Z</time>
      </trkpt>
      <trkpt lat="57.444793023169041" lon="-6.743347970768809">
        <ele>61.659999999999997</ele>
        <time>2023-08-26T14:58:36Z</time>
      </trkpt>
      <trkpt lat="57.4444480240345" lon="-6.744552031159401">
        <ele>62.619999999999997</ele>
        <time>2023-08-26T14:58:45Z</time>
      </trkpt>
      <trkpt lat="57.44429798796773" lon="-6.74515200778842">
        <ele>63.100000000000001</ele>
        <time>2023-08-26T14:58:49Z</time>
      </trkpt>
      <trkpt lat="57.444222969934344" lon="-6.745284022763372">
        <ele>63.579999999999998</ele>
        <time>2023-08-26T14:58:50Z</time>
      </trkpt>
      <trkpt lat="57.444142000749707" lon="-6.745408996939659">
        <ele>64.549999999999997</ele>
        <time>2023-08-26T14:58:51Z</time>
      </trkpt>
      <trkpt lat="57.4440629594028" lon="-6.745532965287566">
        <ele>65.510000000000005</ele>
        <time>2023-08-26T14:58:52Z</time>
      </trkpt>
      <trkpt lat="57.443992970511317" lon="-6.745643019676209">
        <ele>66.469999999999999</ele>
        <time>2023-08-26T14:58:53Z</time>
      </trkpt>
      <trkpt lat="57.443384025245905" lon="-6.74659201875329">
        <ele>71.269999999999996</ele>
        <time>2023-08-26T14:59:03Z</time>
      </trkpt>
      <trkpt lat="57.442909022793174" lon="-6.747131980955601">
        <ele>74.640000000000001</ele>
        <time>2023-08-26T14:59:13Z</time>
      </trkpt>
      <trkpt lat="57.442747000604868" lon="-6.74727899953723">
        <ele>75.599999999999994</ele>
        <time>2023-08-26T14:59:15Z</time>
      </trkpt>
      <trkpt lat="57.441862961277366" lon="-6.747606983408332">
        <ele>81.849999999999994</ele>
        <time>2023-08-26T14:59:23Z</time>
      </trkpt>
      <trkpt lat="57.441588034853339" lon="-6.747707985341549">
        <ele>83.769999999999996</ele>
        <time>2023-08-26T14:59:26Z</time>
      </trkpt>
      <trkpt lat="57.441475968807936" lon="-6.747864978387952">
        <ele>84.730000000000004</ele>
        <time>2023-08-26T14:59:27Z</time>
      </trkpt>
      <trkpt lat="57.441392987966537" lon="-6.747981989756227">
        <ele>85.689999999999998</ele>
        <time>2023-08-26T14:59:28Z</time>
      </trkpt>
      <trkpt lat="57.441322999075055" lon="-6.74809598363936">
        <ele>87.140000000000001</ele>
        <time>2023-08-26T14:59:29Z</time>
      </trkpt>
      <trkpt lat="57.441257033497095" lon="-6.748210983350873">
        <ele>88.099999999999994</ele>
        <time>2023-08-26T14:59:30Z</time>
      </trkpt>
      <trkpt lat="57.441188972443342" lon="-6.748326988890767">
        <ele>89.060000000000002</ele>
        <time>2023-08-26T14:59:31Z</time>
      </trkpt>
      <trkpt lat="57.440665019676089" lon="-6.749231982976198">
        <ele>92.420000000000002</ele>
        <time>2023-08-26T14:59:38Z</time>
      </trkpt>
      <trkpt lat="57.440611040219665" lon="-6.749415965750814">
        <ele>92.900000000000006</ele>
        <time>2023-08-26T14:59:39Z</time>
      </trkpt>
      <trkpt lat="57.440557982772589" lon="-6.749597014859319">
        <ele>92.900000000000006</ele>
        <time>2023-08-26T14:59:40Z</time>
      </trkpt>
      <trkpt lat="57.440515989437699" lon="-6.749800024554133">
        <ele>93.390000000000001</ele>
        <time>2023-08-26T14:59:41Z</time>
      </trkpt>
      <trkpt lat="57.440472990274429" lon="-6.750015020370483">
        <ele>93.390000000000001</ele>
        <time>2023-08-26T14:59:42Z</time>
      </trkpt>
      <trkpt lat="57.440235028043389" lon="-6.751177003607154">
        <ele>95.310000000000002</ele>
        <time>2023-08-26T14:59:49Z</time>
      </trkpt>
      <trkpt lat="57.439806964248419" lon="-6.752964025363326">
        <ele>96.75</ele>
        <time>2023-08-26T14:59:59Z</time>
      </trkpt>
      <trkpt lat="57.43978600949049" lon="-6.753134010359645">
        <ele>97.230000000000004</ele>
        <time>2023-08-26T15:00:00Z</time>
      </trkpt>
      <trkpt lat="57.43978600949049" lon="-6.753296032547951">
        <ele>97.709999999999994</ele>
        <time>2023-08-26T15:00:01Z</time>
      </trkpt>
      <trkpt lat="57.43978600949049" lon="-6.753415977582336">
        <ele>98.189999999999998</ele>
        <time>2023-08-26T15:00:02Z</time>
      </trkpt>
      <trkpt lat="57.439811993390322" lon="-6.753622004762292">
        <ele>99.150000000000006</ele>
        <time>2023-08-26T15:00:03Z</time>
      </trkpt>
      <trkpt lat="57.439834959805012" lon="-6.753800036385655">
        <ele>99.629999999999995</ele>
        <time>2023-08-26T15:00:04Z</time>
      </trkpt>
      <trkpt lat="57.439912995323539" lon="-6.754730008542538">
        <ele>105.88</ele>
        <time>2023-08-26T15:00:11Z</time>
      </trkpt>
      <trkpt lat="57.439966974779963" lon="-6.75604697316885">
        <ele>105.40000000000001</ele>
        <time>2023-08-26T15:00:18Z</time>
      </trkpt>
      <trkpt lat="57.439975021407008" lon="-6.756243025884032">
        <ele>104.44</ele>
        <time>2023-08-26T15:00:19Z</time>
      </trkpt>
      <trkpt lat="57.439978960901499" lon="-6.756333969533444">
        <ele>103.48</ele>
        <time>2023-08-26T15:00:20Z</time>
      </trkpt>
      <trkpt lat="57.43989204056561" lon="-6.756532033905387">
        <ele>102.04000000000001</ele>
        <time>2023-08-26T15:00:21Z</time>
      </trkpt>
      <trkpt lat="57.439834959805012" lon="-6.756662037223578">
        <ele>100.59999999999999</ele>
        <time>2023-08-26T15:00:22Z</time>
      </trkpt>
      <trkpt lat="57.439781986176968" lon="-6.756780976429582">
        <ele>99.629999999999995</ele>
        <time>2023-08-26T15:00:23Z</time>
      </trkpt>
      <trkpt lat="57.439709985628724" lon="-6.757057998329401">
        <ele>97.709999999999994</ele>
        <time>2023-08-26T15:00:25Z</time>
      </trkpt>
      <trkpt lat="57.439690958708525" lon="-6.757168974727392">
        <ele>96.269999999999996</ele>
        <time>2023-08-26T15:00:26Z</time>
      </trkpt>
      <trkpt lat="57.43965701200068" lon="-6.757367039099336">
        <ele>91.939999999999998</ele>
        <time>2023-08-26T15:00:33Z</time>
      </trkpt>
      <trkpt lat="57.439634967595339" lon="-6.757771968841553">
        <ele>83.290000000000006</ele>
        <time>2023-08-26T15:00:53Z</time>
      </trkpt>
      <trkpt lat="57.439773017540574" lon="-6.75834403373301">
        <ele>78.969999999999999</ele>
        <time>2023-08-26T15:01:01Z</time>
      </trkpt>
      <trkpt lat="57.439863039180636" lon="-6.758714010939002">
        <ele>76.560000000000002</ele>
        <time>2023-08-26T15:01:12Z</time>
      </trkpt>
      <trkpt lat="57.439979966729879" lon="-6.759155988693237">
        <ele>75.120000000000005</ele>
        <time>2023-08-26T15:01:18Z</time>
      </trkpt>
      <trkpt lat="57.440095972269773" lon="-6.7595240380615">
        <ele>72.239999999999995</ele>
        <time>2023-08-26T15:01:27Z</time>
      </trkpt>
      <trkpt lat="57.440119022503495" lon="-6.759593021124601">
        <ele>71.760000000000005</ele>
        <time>2023-08-26T15:01:28Z</time>
      </trkpt>
      <trkpt lat="57.440398978069425" lon="-6.760479994118214">
        <ele>69.349999999999994</ele>
        <time>2023-08-26T15:01:35Z</time>
      </trkpt>
      <trkpt lat="57.44073199108243" lon="-6.761532006785274">
        <ele>66.469999999999999</ele>
        <time>2023-08-26T15:01:45Z</time>
      </trkpt>
      <trkpt lat="57.4407559633255" lon="-6.761616999283433">
        <ele>65.989999999999995</ele>
        <time>2023-08-26T15:01:54Z</time>
      </trkpt>
      <trkpt lat="57.440822012722492" lon="-6.761978007853031">
        <ele>65.030000000000001</ele>
        <time>2023-08-26T15:02:09Z</time>
      </trkpt>
      <trkpt lat="57.44053803384304" lon="-6.762332981452346">
        <ele>61.659999999999997</ele>
        <time>2023-08-26T15:02:17Z</time>
      </trkpt>
      <trkpt lat="57.439842000603676" lon="-6.762830028310418">
        <ele>56.369999999999997</ele>
        <time>2023-08-26T15:02:28Z</time>
      </trkpt>
      <trkpt lat="57.439112020656466" lon="-6.763190031051636">
        <ele>58.299999999999997</ele>
        <time>2023-08-26T15:02:36Z</time>
      </trkpt>
      <trkpt lat="57.438429985195398" lon="-6.763955969363451">
        <ele>64.069999999999993</ele>
        <time>2023-08-26T15:02:45Z</time>
      </trkpt>
      <trkpt lat="57.437966968864202" lon="-6.764566004276276">
        <ele>63.100000000000001</ele>
        <time>2023-08-26T15:02:50Z</time>
      </trkpt>
      <trkpt lat="57.437101034447551" lon="-6.765282992273569">
        <ele>66.469999999999999</ele>
        <time>2023-08-26T15:02:59Z</time>
      </trkpt>
      <trkpt lat="57.436031000688672" lon="-6.766570033505559">
        <ele>69.349999999999994</ele>
        <time>2023-08-26T15:03:10Z</time>
      </trkpt>
      <trkpt lat="57.435892028734088" lon="-6.766682015731931">
        <ele>69.829999999999998</ele>
        <time>2023-08-26T15:03:11Z</time>
      </trkpt>
      <trkpt lat="57.435778034850955" lon="-6.766773965209723">
        <ele>70.310000000000002</ele>
        <time>2023-08-26T15:03:12Z</time>
      </trkpt>
      <trkpt lat="57.435672003775835" lon="-6.766859963536263">
        <ele>71.269999999999996</ele>
        <time>2023-08-26T15:03:13Z</time>
      </trkpt>
      <trkpt lat="57.435001032426953" lon="-6.767553985118866">
        <ele>78.480000000000004</ele>
        <time>2023-08-26T15:03:21Z</time>
      </trkpt>
      <trkpt lat="57.434020014479756" lon="-6.768383039161563">
        <ele>82.329999999999998</ele>
        <time>2023-08-26T15:03:32Z</time>
      </trkpt>
      <trkpt lat="57.433434035629034" lon="-6.768890982493758">
        <ele>86.180000000000007</ele>
        <time>2023-08-26T15:03:40Z</time>
      </trkpt>
      <trkpt lat="57.43278200738132" lon="-6.769570000469685">
        <ele>82.329999999999998</ele>
        <time>2023-08-26T15:03:50Z</time>
      </trkpt>
      <trkpt lat="57.43261001072824" lon="-6.769782984629273">
        <ele>78.969999999999999</ele>
        <time>2023-08-26T15:03:58Z</time>
      </trkpt>
      <trkpt lat="57.432482019066811" lon="-6.769940983504057">
        <ele>77.519999999999996</ele>
        <time>2023-08-26T15:04:10Z</time>
      </trkpt>
      <trkpt lat="57.432249002158642" lon="-6.770229991525412">
        <ele>75.599999999999994</ele>
        <time>2023-08-26T15:04:21Z</time>
      </trkpt>
      <trkpt lat="57.432212037965655" lon="-6.770275002345443">
        <ele>75.120000000000005</ele>
        <time>2023-08-26T15:04:22Z</time>
      </trkpt>
      <trkpt lat="57.432189993560314" lon="-6.770302997902036">
        <ele>74.640000000000001</ele>
        <time>2023-08-26T15:04:23Z</time>
      </trkpt>
      <trkpt lat="57.432138025760651" lon="-6.7702910117805">
        <ele>74.640000000000001</ele>
        <time>2023-08-26T15:04:24Z</time>
      </trkpt>
      <trkpt lat="57.432103995233774" lon="-6.770281959325075">
        <ele>74.159999999999997</ele>
        <time>2023-08-26T15:04:25Z</time>
      </trkpt>
      <trkpt lat="57.432082034647465" lon="-6.770241977646947">
        <ele>74.159999999999997</ele>
        <time>2023-08-26T15:04:26Z</time>
      </trkpt>
      <trkpt lat="57.43205102160573" lon="-6.770187998190522">
        <ele>74.159999999999997</ele>
        <time>2023-08-26T15:04:27Z</time>
      </trkpt>
      <trkpt lat="57.432020008563995" lon="-6.770133012905717">
        <ele>73.680000000000007</ele>
        <time>2023-08-26T15:04:28Z</time>
      </trkpt>
      <trkpt lat="57.431957982480526" lon="-6.770023964345455">
        <ele>73.200000000000003</ele>
        <time>2023-08-26T15:04:30Z</time>
      </trkpt>
      <trkpt lat="57.431928981095552" lon="-6.769969984889031">
        <ele>72.719999999999999</ele>
        <time>2023-08-26T15:04:31Z</time>
      </trkpt>
      <trkpt lat="57.431896040216088" lon="-6.769940983504057">
        <ele>72.239999999999995</ele>
        <time>2023-08-26T15:04:32Z</time>
      </trkpt>
      <trkpt lat="57.431861003860831" lon="-6.76994701847434">
        <ele>72.239999999999995</ele>
        <time>2023-08-26T15:04:33Z</time>
      </trkpt>
      <trkpt lat="57.431821022182703" lon="-6.769952969625592">
        <ele>71.760000000000005</ele>
        <time>2023-08-26T15:04:34Z</time>
      </trkpt>
      <trkpt lat="57.431781962513924" lon="-6.769960010424256">
        <ele>71.269999999999996</ele>
        <time>2023-08-26T15:04:35Z</time>
      </trkpt>
      <trkpt lat="57.431749021634459" lon="-6.770010972395539">
        <ele>70.790000000000006</ele>
        <time>2023-08-26T15:04:36Z</time>
      </trkpt>
      <trkpt lat="57.431723959743977" lon="-6.770050032064319">
        <ele>70.790000000000006</ele>
        <time>2023-08-26T15:04:37Z</time>
      </trkpt>
      <trkpt lat="57.431699987500906" lon="-6.770086996257305">
        <ele>70.310000000000002</ele>
        <time>2023-08-26T15:04:38Z</time>
      </trkpt>
      <trkpt lat="57.43132196366787" lon="-6.770672975108028">
        <ele>70.790000000000006</ele>
        <time>2023-08-26T15:04:47Z</time>
      </trkpt>
      <trkpt lat="57.430928014218807" lon="-6.771284015849233">
        <ele>76.079999999999998</ele>
        <time>2023-08-26T15:04:53Z</time>
      </trkpt>
      <trkpt lat="57.430901024490595" lon="-6.771458024159074">
        <ele>77.040000000000006</ele>
        <time>2023-08-26T15:04:54Z</time>
      </trkpt>
      <trkpt lat="57.430878980085254" lon="-6.771611999720335">
        <ele>77.519999999999996</ele>
        <time>2023-08-26T15:04:55Z</time>
      </trkpt>
      <trkpt lat="57.430787030607462" lon="-6.772282971069217">
        <ele>80.890000000000001</ele>
        <time>2023-08-26T15:05:02Z</time>
      </trkpt>
      <trkpt lat="57.430782001465559" lon="-6.772313984110951">
        <ele>81.370000000000005</ele>
        <time>2023-08-26T15:05:13Z</time>
      </trkpt>
      <trkpt lat="57.430708995088935" lon="-6.772845983505249">
        <ele>83.769999999999996</ele>
        <time>2023-08-26T15:05:22Z</time>
      </trkpt>
      <trkpt lat="57.430565999820828" lon="-6.773584010079503">
        <ele>86.659999999999997</ele>
        <time>2023-08-26T15:05:33Z</time>
      </trkpt>
      <trkpt lat="57.430400038138032" lon="-6.774294041097164">
        <ele>88.579999999999998</ele>
        <time>2023-08-26T15:05:41Z</time>
      </trkpt>
      <trkpt lat="57.430323008447886" lon="-6.774624036625028">
        <ele>89.060000000000002</ele>
        <time>2023-08-26T15:05:44Z</time>
      </trkpt>
      <trkpt lat="57.430304987356067" lon="-6.774702994152904">
        <ele>89.060000000000002</ele>
        <time>2023-08-26T15:05:45Z</time>
      </trkpt>
      <trkpt lat="57.43029098957777" lon="-6.77475999109447">
        <ele>89.060000000000002</ele>
        <time>2023-08-26T15:05:46Z</time>
      </trkpt>
      <trkpt lat="57.430279003456235" lon="-6.774896029382944">
        <ele>88.099999999999994</ele>
        <time>2023-08-26T15:05:58Z</time>
      </trkpt>
      <trkpt lat="57.430271040648222" lon="-6.775422999635339">
        <ele>86.180000000000007</ele>
        <time>2023-08-26T15:06:17Z</time>
      </trkpt>
      <trkpt lat="57.430269028991461" lon="-6.775556020438671">
        <ele>85.689999999999998</ele>
        <time>2023-08-26T15:06:23Z</time>
      </trkpt>
      <trkpt lat="57.430265005677938" lon="-6.775866989046335">
        <ele>85.209999999999994</ele>
        <time>2023-08-26T15:06:50Z</time>
      </trkpt>
      <trkpt lat="57.430251007899642" lon="-6.776375016197562">
        <ele>84.730000000000004</ele>
        <time>2023-08-26T15:06:55Z</time>
      </trkpt>
      <trkpt lat="57.430229969322681" lon="-6.776482975110412">
        <ele>84.730000000000004</ele>
        <time>2023-08-26T15:06:56Z</time>
      </trkpt>
      <trkpt lat="57.430211026221514" lon="-6.776584982872009">
        <ele>84.730000000000004</ele>
        <time>2023-08-26T15:06:57Z</time>
      </trkpt>
      <trkpt lat="57.430188981816173" lon="-6.776689002290368">
        <ele>84.730000000000004</ele>
        <time>2023-08-26T15:06:58Z</time>
      </trkpt>
      <trkpt lat="57.430156040936708" lon="-6.776764020323753">
        <ele>84.730000000000004</ele>
        <time>2023-08-26T15:06:59Z</time>
      </trkpt>
      <trkpt lat="57.430126033723354" lon="-6.776830991730094">
        <ele>84.730000000000004</ele>
        <time>2023-08-26T15:07:00Z</time>
      </trkpt>
      <trkpt lat="57.430097032338381" lon="-6.776897963136435">
        <ele>84.730000000000004</ele>
        <time>2023-08-26T15:07:01Z</time>
      </trkpt>
      <trkpt lat="57.430066019296646" lon="-6.776968035846949">
        <ele>85.209999999999994</ele>
        <time>2023-08-26T15:07:02Z</time>
      </trkpt>
      <trkpt lat="57.429968034848571" lon="-6.777397021651268">
        <ele>85.209999999999994</ele>
        <time>2023-08-26T15:07:11Z</time>
      </trkpt>
      <trkpt lat="57.429968034848571" lon="-6.777397021651268">
        <ele>85.209999999999994</ele>
        <time>2023-08-26T15:07:27Z</time>
      </trkpt>
      <trkpt lat="57.429955964908004" lon="-6.777463993057609">
        <ele>85.209999999999994</ele>
        <time>2023-08-26T15:07:28Z</time>
      </trkpt>
      <trkpt lat="57.429944984614849" lon="-6.777548985555768">
        <ele>85.689999999999998</ele>
        <time>2023-08-26T15:07:29Z</time>
      </trkpt>
      <trkpt lat="57.429929981008172" lon="-6.777667002752423">
        <ele>86.180000000000007</ele>
        <time>2023-08-26T15:07:30Z</time>
      </trkpt>
      <trkpt lat="57.429913971573114" lon="-6.777791976928711">
        <ele>86.180000000000007</ele>
        <time>2023-08-26T15:07:31Z</time>
      </trkpt>
      <trkpt lat="57.429843982681632" lon="-6.778332022950053">
        <ele>86.180000000000007</ele>
        <time>2023-08-26T15:07:36Z</time>
      </trkpt>
      <trkpt lat="57.429781034588814" lon="-6.778683979064226">
        <ele>86.180000000000007</ele>
        <time>2023-08-26T15:07:45Z</time>
      </trkpt>
      <trkpt lat="57.429781034588814" lon="-6.778683979064226">
        <ele>85.209999999999994</ele>
        <time>2023-08-26T15:07:56Z</time>
      </trkpt>
      <trkpt lat="57.429750021547079" lon="-6.778769977390766">
        <ele>85.209999999999994</ele>
        <time>2023-08-26T15:07:57Z</time>
      </trkpt>
      <trkpt lat="57.429735017940402" lon="-6.778814988210797">
        <ele>85.689999999999998</ele>
        <time>2023-08-26T15:07:58Z</time>
      </trkpt>
      <trkpt lat="57.429683972150087" lon="-6.778958989307284">
        <ele>85.209999999999994</ele>
        <time>2023-08-26T15:08:04Z</time>
      </trkpt>
      <trkpt lat="57.429683972150087" lon="-6.778958989307284">
        <ele>85.209999999999994</ele>
        <time>2023-08-26T15:08:05Z</time>
      </trkpt>
      <trkpt lat="57.429683972150087" lon="-6.778958989307284">
        <ele>85.209999999999994</ele>
        <time>2023-08-26T15:08:23Z</time>
      </trkpt>
      <trkpt lat="57.429683972150087" lon="-6.778958989307284">
        <ele>85.209999999999994</ele>
        <time>2023-08-26T15:08:55Z</time>
      </trkpt>
      <trkpt lat="57.429614989086986" lon="-6.77903400734067">
        <ele>93.870000000000005</ele>
        <time>2023-08-26T15:30:12Z</time>
      </trkpt>
      <trkpt lat="57.429652037099004" lon="-6.779073989018798">
        <ele>95.790000000000006</ele>
        <time>2023-08-26T15:31:00Z</time>
      </trkpt>
      <trkpt lat="57.429647007957101" lon="-6.779063008725643">
        <ele>96.75</ele>
        <time>2023-08-26T15:31:28Z</time>
      </trkpt>
      <trkpt lat="57.429681038483977" lon="-6.77896804176271">
        <ele>96.269999999999996</ele>
        <time>2023-08-26T15:31:33Z</time>
      </trkpt>
      <trkpt lat="57.429755972698331" lon="-6.778754973784089">
        <ele>95.790000000000006</ele>
        <time>2023-08-26T15:31:44Z</time>
      </trkpt>
      <trkpt lat="57.429755972698331" lon="-6.778754973784089">
        <ele>95.310000000000002</ele>
        <time>2023-08-26T15:32:30Z</time>
      </trkpt>
      <trkpt lat="57.429755972698331" lon="-6.778754973784089">
        <ele>94.829999999999998</ele>
        <time>2023-08-26T15:33:20Z</time>
      </trkpt>
      <trkpt lat="57.429826967418194" lon="-6.778458002954722">
        <ele>94.829999999999998</ele>
        <time>2023-08-26T15:33:44Z</time>
      </trkpt>
      <trkpt lat="57.429869966581464" lon="-6.778131024912">
        <ele>94.829999999999998</ele>
        <time>2023-08-26T15:33:48Z</time>
      </trkpt>
      <trkpt lat="57.429878013208508" lon="-6.778065981343389">
        <ele>94.829999999999998</ele>
        <time>2023-08-26T15:33:49Z</time>
      </trkpt>
      <trkpt lat="57.429885976016521" lon="-6.7780049610883">
        <ele>94.829999999999998</ele>
        <time>2023-08-26T15:33:50Z</time>
      </trkpt>
      <trkpt lat="57.429932998493314" lon="-6.777642024680972">
        <ele>93.870000000000005</ele>
        <time>2023-08-26T15:33:56Z</time>
      </trkpt>
      <trkpt lat="57.429968034848571" lon="-6.777398027479649">
        <ele>93.390000000000001</ele>
        <time>2023-08-26T15:34:01Z</time>
      </trkpt>
      <trkpt lat="57.429984966292977" lon="-6.777315968647599">
        <ele>93.390000000000001</ele>
        <time>2023-08-26T15:34:02Z</time>
      </trkpt>
      <trkpt lat="57.430002987384796" lon="-6.777224019169807">
        <ele>93.390000000000001</ele>
        <time>2023-08-26T15:34:03Z</time>
      </trkpt>
      <trkpt lat="57.430044980719686" lon="-6.77701598033309">
        <ele>93.390000000000001</ele>
        <time>2023-08-26T15:34:05Z</time>
      </trkpt>
      <trkpt lat="57.430197028443217" lon="-6.776658995077014">
        <ele>93.390000000000001</ele>
        <time>2023-08-26T15:34:09Z</time>
      </trkpt>
      <trkpt lat="57.430221000686288" lon="-6.776532009243965">
        <ele>93.390000000000001</ele>
        <time>2023-08-26T15:34:10Z</time>
      </trkpt>
      <trkpt lat="57.430245978757739" lon="-6.776399994269013">
        <ele>93.390000000000001</ele>
        <time>2023-08-26T15:34:11Z</time>
      </trkpt>
      <trkpt lat="57.430258970707655" lon="-6.776256999000907">
        <ele>93.870000000000005</ele>
        <time>2023-08-26T15:34:12Z</time>
      </trkpt>
      <trkpt lat="57.430260982364416" lon="-6.776118027046323">
        <ele>93.870000000000005</ele>
        <time>2023-08-26T15:34:13Z</time>
      </trkpt>
      <trkpt lat="57.430262994021177" lon="-6.775979977101088">
        <ele>94.829999999999998</ele>
        <time>2023-08-26T15:34:14Z</time>
      </trkpt>
      <trkpt lat="57.430279003456235" lon="-6.774873984977603">
        <ele>95.790000000000006</ele>
        <time>2023-08-26T15:34:22Z</time>
      </trkpt>
      <trkpt lat="57.430295012891293" lon="-6.774742975831032">
        <ele>95.790000000000006</ele>
        <time>2023-08-26T15:34:23Z</time>
      </trkpt>
      <trkpt lat="57.430327031761408" lon="-6.774607021361589">
        <ele>95.790000000000006</ele>
        <time>2023-08-26T15:34:24Z</time>
      </trkpt>
      <trkpt lat="57.430359972640872" lon="-6.774466959759593">
        <ele>95.790000000000006</ele>
        <time>2023-08-26T15:34:25Z</time>
      </trkpt>
      <trkpt lat="57.430394003167748" lon="-6.774323964491487">
        <ele>95.790000000000006</ele>
        <time>2023-08-26T15:34:26Z</time>
      </trkpt>
      <trkpt lat="57.430635988712311" lon="-6.773285027593374">
        <ele>93.870000000000005</ele>
        <time>2023-08-26T15:34:33Z</time>
      </trkpt>
      <trkpt lat="57.430878980085254" lon="-6.771615017205477">
        <ele>89.540000000000006</ele>
        <time>2023-08-26T15:34:43Z</time>
      </trkpt>
      <trkpt lat="57.430903036147356" lon="-6.771438997238874">
        <ele>89.060000000000002</ele>
        <time>2023-08-26T15:34:44Z</time>
      </trkpt>
      <trkpt lat="57.430940000340343" lon="-6.771264988929033">
        <ele>88.579999999999998</ele>
        <time>2023-08-26T15:34:45Z</time>
      </trkpt>
      <trkpt lat="57.431010995060205" lon="-6.771155018359423">
        <ele>88.099999999999994</ele>
        <time>2023-08-26T15:34:46Z</time>
      </trkpt>
      <trkpt lat="57.431082995608449" lon="-6.7710439581424">
        <ele>87.620000000000005</ele>
        <time>2023-08-26T15:34:47Z</time>
      </trkpt>
      <trkpt lat="57.431153990328312" lon="-6.770932981744409">
        <ele>87.140000000000001</ele>
        <time>2023-08-26T15:34:48Z</time>
      </trkpt>
      <trkpt lat="57.431691018864512" lon="-6.770100994035602">
        <ele>80.890000000000001</ele>
        <time>2023-08-26T15:34:55Z</time>
      </trkpt>
      <trkpt lat="57.431781962513924" lon="-6.769960010424256">
        <ele>79.930000000000007</ele>
        <time>2023-08-26T15:34:56Z</time>
      </trkpt>
      <trkpt lat="57.431842982769012" lon="-6.769950035959482">
        <ele>78.969999999999999</ele>
        <time>2023-08-26T15:34:57Z</time>
      </trkpt>
      <trkpt lat="57.431909032166004" lon="-6.769938971847296">
        <ele>78.480000000000004</ele>
        <time>2023-08-26T15:34:58Z</time>
      </trkpt>
      <trkpt lat="57.431967034935951" lon="-6.770038967952132">
        <ele>78</ele>
        <time>2023-08-26T15:34:59Z</time>
      </trkpt>
      <trkpt lat="57.432003999128938" lon="-6.770105017349124">
        <ele>77.519999999999996</ele>
        <time>2023-08-26T15:35:00Z</time>
      </trkpt>
      <trkpt lat="57.432037023827434" lon="-6.770164025947452">
        <ele>77.040000000000006</ele>
        <time>2023-08-26T15:35:01Z</time>
      </trkpt>
      <trkpt lat="57.432068958878517" lon="-6.770220017060638">
        <ele>77.040000000000006</ele>
        <time>2023-08-26T15:35:02Z</time>
      </trkpt>
      <trkpt lat="57.432103995233774" lon="-6.770281959325075">
        <ele>77.040000000000006</ele>
        <time>2023-08-26T15:35:03Z</time>
      </trkpt>
      <trkpt lat="57.432141965255141" lon="-6.7702910117805">
        <ele>76.560000000000002</ele>
        <time>2023-08-26T15:35:04Z</time>
      </trkpt>
      <trkpt lat="57.432203991338611" lon="-6.770285982638598">
        <ele>76.560000000000002</ele>
        <time>2023-08-26T15:35:05Z</time>
      </trkpt>
      <trkpt lat="57.432267023250461" lon="-6.770208030939102">
        <ele>76.560000000000002</ele>
        <time>2023-08-26T15:35:06Z</time>
      </trkpt>
      <trkpt lat="57.432341035455465" lon="-6.770115997642279">
        <ele>76.560000000000002</ele>
        <time>2023-08-26T15:35:07Z</time>
      </trkpt>
      <trkpt lat="57.433266984298825" lon="-6.769034983590245">
        <ele>84.730000000000004</ele>
        <time>2023-08-26T15:35:18Z</time>
      </trkpt>
      <trkpt lat="57.434242973104119" lon="-6.768190003931522">
        <ele>89.540000000000006</ele>
        <time>2023-08-26T15:35:29Z</time>
      </trkpt>
      <trkpt lat="57.434558970853686" lon="-6.767915999516845">
        <ele>89.060000000000002</ele>
        <time>2023-08-26T15:35:35Z</time>
      </trkpt>
      <trkpt lat="57.434615967795253" lon="-6.767866965383291">
        <ele>88.579999999999998</ele>
        <time>2023-08-26T15:35:37Z</time>
      </trkpt>
      <trkpt lat="57.434666007757187" lon="-6.767823966220021">
        <ele>88.579999999999998</ele>
        <time>2023-08-26T15:35:38Z</time>
      </trkpt>
      <trkpt lat="57.435126006603241" lon="-6.767462035641074">
        <ele>87.620000000000005</ele>
        <time>2023-08-26T15:35:44Z</time>
      </trkpt>
      <trkpt lat="57.435542000457644" lon="-6.76698099821806">
        <ele>86.180000000000007</ele>
        <time>2023-08-26T15:35:48Z</time>
      </trkpt>
      <trkpt lat="57.4356600176543" lon="-6.766870021820068">
        <ele>85.689999999999998</ele>
        <time>2023-08-26T15:35:49Z</time>
      </trkpt>
      <trkpt lat="57.435916000977159" lon="-6.766662988811731">
        <ele>83.769999999999996</ele>
        <time>2023-08-26T15:35:51Z</time>
      </trkpt>
      <trkpt lat="57.436043992638588" lon="-6.76655100658536">
        <ele>82.810000000000002</ele>
        <time>2023-08-26T15:35:52Z</time>
      </trkpt>
      <trkpt lat="57.436658972874284" lon="-6.765693034976721">
        <ele>79.930000000000007</ele>
        <time>2023-08-26T15:35:59Z</time>
      </trkpt>
      <trkpt lat="57.437502024695277" lon="-6.764950985088944">
        <ele>77.040000000000006</ele>
        <time>2023-08-26T15:36:08Z</time>
      </trkpt>
      <trkpt lat="57.438479019328952" lon="-6.763892015442252">
        <ele>74.640000000000001</ele>
        <time>2023-08-26T15:36:17Z</time>
      </trkpt>
      <trkpt lat="57.439062986522913" lon="-6.763212997466326">
        <ele>75.120000000000005</ele>
        <time>2023-08-26T15:36:24Z</time>
      </trkpt>
      <trkpt lat="57.439172035083175" lon="-6.763163041323423">
        <ele>74.640000000000001</ele>
        <time>2023-08-26T15:36:25Z</time>
      </trkpt>
      <trkpt lat="57.44023896753788" lon="-6.762545965611935">
        <ele>69.349999999999994</ele>
        <time>2023-08-26T15:36:34Z</time>
      </trkpt>
      <trkpt lat="57.44071296416223" lon="-6.762208007276058">
        <ele>69.349999999999994</ele>
        <time>2023-08-26T15:36:40Z</time>
      </trkpt>
      <trkpt lat="57.440794017165899" lon="-6.762148998677731">
        <ele>68.870000000000005</ele>
        <time>2023-08-26T15:36:41Z</time>
      </trkpt>
      <trkpt lat="57.440830981358886" lon="-6.762074986472726">
        <ele>69.829999999999998</ele>
        <time>2023-08-26T15:36:42Z</time>
      </trkpt>
      <trkpt lat="57.440801979973912" lon="-6.761868037283421">
        <ele>69.829999999999998</ele>
        <time>2023-08-26T15:36:43Z</time>
      </trkpt>
      <trkpt lat="57.440780019387603" lon="-6.761751025915146">
        <ele>70.310000000000002</ele>
        <time>2023-08-26T15:36:44Z</time>
      </trkpt>
      <trkpt lat="57.440755041316152" lon="-6.761613981798291">
        <ele>70.790000000000006</ele>
        <time>2023-08-26T15:36:45Z</time>
      </trkpt>
      <trkpt lat="57.440715981647372" lon="-6.76148003898561">
        <ele>70.790000000000006</ele>
        <time>2023-08-26T15:36:46Z</time>
      </trkpt>
      <trkpt lat="57.440674994140863" lon="-6.761349029839039">
        <ele>70.790000000000006</ele>
        <time>2023-08-26T15:36:47Z</time>
      </trkpt>
      <trkpt lat="57.44021600112319" lon="-6.759900972247124">
        <ele>74.159999999999997</ele>
        <time>2023-08-26T15:36:55Z</time>
      </trkpt>
      <trkpt lat="57.439692970365286" lon="-6.758009009063244">
        <ele>85.209999999999994</ele>
        <time>2023-08-26T15:37:04Z</time>
      </trkpt>
      <trkpt lat="57.439653994515538" lon="-6.757847992703319">
        <ele>87.140000000000001</ele>
        <time>2023-08-26T15:37:05Z</time>
      </trkpt>
      <trkpt lat="57.439634967595339" lon="-6.757664009928703">
        <ele>88.579999999999998</ele>
        <time>2023-08-26T15:37:06Z</time>
      </trkpt>
      <trkpt lat="57.439634967595339" lon="-6.757521014660597">
        <ele>90.5</ele>
        <time>2023-08-26T15:37:07Z</time>
      </trkpt>
      <trkpt lat="57.439634967595339" lon="-6.757493019104004">
        <ele>91.939999999999998</ele>
        <time>2023-08-26T15:37:08Z</time>
      </trkpt>
      <trkpt lat="57.439634967595339" lon="-6.757493019104004">
        <ele>97.230000000000004</ele>
        <time>2023-08-26T15:37:18Z</time>
      </trkpt>
      <trkpt lat="57.439668998122215" lon="-6.757298978045583">
        <ele>101.56</ele>
        <time>2023-08-26T15:37:25Z</time>
      </trkpt>
      <trkpt lat="57.439684001728892" lon="-6.757209962233901">
        <ele>102.52</ele>
        <time>2023-08-26T15:37:26Z</time>
      </trkpt>
      <trkpt lat="57.439701016992331" lon="-6.757113989442587">
        <ele>103.95999999999999</ele>
        <time>2023-08-26T15:37:27Z</time>
      </trkpt>
      <trkpt lat="57.439719038084149" lon="-6.757007036358118">
        <ele>104.92</ele>
        <time>2023-08-26T15:37:28Z</time>
      </trkpt>
      <trkpt lat="57.43974301032722" lon="-6.756870998069644">
        <ele>105.88</ele>
        <time>2023-08-26T15:37:29Z</time>
      </trkpt>
      <trkpt lat="57.439896985888481" lon="-6.75651996396482">
        <ele>108.29000000000001</ele>
        <time>2023-08-26T15:37:32Z</time>
      </trkpt>
      <trkpt lat="57.439949037507176" lon="-6.756403036415577">
        <ele>109.25</ele>
        <time>2023-08-26T15:37:33Z</time>
      </trkpt>
      <trkpt lat="57.439974015578628" lon="-6.756204972043634">
        <ele>110.20999999999999</ele>
        <time>2023-08-26T15:37:34Z</time>
      </trkpt>
      <trkpt lat="57.439965968951583" lon="-6.756034987047315">
        <ele>111.65000000000001</ele>
        <time>2023-08-26T15:37:35Z</time>
      </trkpt>
      <trkpt lat="57.439960017800331" lon="-6.755871037021279">
        <ele>112.61</ele>
        <time>2023-08-26T15:37:36Z</time>
      </trkpt>
      <trkpt lat="57.439952977001667" lon="-6.755710020661354">
        <ele>113.56999999999999</ele>
        <time>2023-08-26T15:37:37Z</time>
      </trkpt>
      <trkpt lat="57.439947025850415" lon="-6.75555101595819">
        <ele>114.53</ele>
        <time>2023-08-26T15:37:38Z</time>
      </trkpt>
      <trkpt lat="57.43989497423172" lon="-6.754293981939554">
        <ele>116.45999999999999</ele>
        <time>2023-08-26T15:37:46Z</time>
      </trkpt>
      <trkpt lat="57.43978600949049" lon="-6.753299972042441">
        <ele>113.09</ele>
        <time>2023-08-26T15:37:51Z</time>
      </trkpt>
      <trkpt lat="57.43978600949049" lon="-6.753106014803052">
        <ele>112.13</ele>
        <time>2023-08-26T15:37:52Z</time>
      </trkpt>
      <trkpt lat="57.439812999218702" lon="-6.752939969301224">
        <ele>111.17</ele>
        <time>2023-08-26T15:37:53Z</time>
      </trkpt>
      <trkpt lat="57.439852980896831" lon="-6.75277903676033">
        <ele>110.69</ele>
        <time>2023-08-26T15:37:54Z</time>
      </trkpt>
      <trkpt lat="57.439897991716862" lon="-6.752593964338303">
        <ele>109.73</ele>
        <time>2023-08-26T15:37:55Z</time>
      </trkpt>
      <trkpt lat="57.440253971144557" lon="-6.75108497031033">
        <ele>105.40000000000001</ele>
        <time>2023-08-26T15:38:03Z</time>
      </trkpt>
      <trkpt lat="57.440621014684439" lon="-6.74938403069973">
        <ele>102.52</ele>
        <time>2023-08-26T15:38:12Z</time>
      </trkpt>
      <trkpt lat="57.440687986090779" lon="-6.74919200129807">
        <ele>102.04000000000001</ele>
        <time>2023-08-26T15:38:13Z</time>
      </trkpt>
      <trkpt lat="57.440781025215983" lon="-6.749032996594906">
        <ele>102.04000000000001</ele>
        <time>2023-08-26T15:38:14Z</time>
      </trkpt>
      <trkpt lat="57.441508993506432" lon="-6.747819967567921">
        <ele>99.629999999999995</ele>
        <time>2023-08-26T15:38:22Z</time>
      </trkpt>
      <trkpt lat="57.441611001268029" lon="-6.747700022533536">
        <ele>98.670000000000002</ele>
        <time>2023-08-26T15:38:23Z</time>
      </trkpt>
      <trkpt lat="57.441738992929459" lon="-6.747651994228363">
        <ele>97.709999999999994</ele>
        <time>2023-08-26T15:38:24Z</time>
      </trkpt>
      <trkpt lat="57.441872013732791" lon="-6.74760296009481">
        <ele>97.230000000000004</ele>
        <time>2023-08-26T15:38:25Z</time>
      </trkpt>
      <trkpt lat="57.442006962373853" lon="-6.747554009780288">
        <ele>96.269999999999996</ele>
        <time>2023-08-26T15:38:26Z</time>
      </trkpt>
      <trkpt lat="57.442949004471302" lon="-6.747095016762614">
        <ele>90.019999999999996</ele>
        <time>2023-08-26T15:38:34Z</time>
      </trkpt>
      <trkpt lat="57.443277994170785" lon="-6.746757980436087">
        <ele>87.140000000000001</ele>
        <time>2023-08-26T15:38:37Z</time>
      </trkpt>
      <trkpt lat="57.443381007760763" lon="-6.746596964076161">
        <ele>86.180000000000007</ele>
        <time>2023-08-26T15:38:38Z</time>
      </trkpt>
      <trkpt lat="57.444206038489938" lon="-6.745311012491584">
        <ele>79.930000000000007</ele>
        <time>2023-08-26T15:38:46Z</time>
      </trkpt>
      <trkpt lat="57.444290025159717" lon="-6.745178997516632">
        <ele>78.969999999999999</ele>
        <time>2023-08-26T15:38:47Z</time>
      </trkpt>
      <trkpt lat="57.444338975474238" lon="-6.744987973943353">
        <ele>78</ele>
        <time>2023-08-26T15:38:48Z</time>
      </trkpt>
      <trkpt lat="57.444387003779411" lon="-6.744794016703963">
        <ele>77.519999999999996</ele>
        <time>2023-08-26T15:38:49Z</time>
      </trkpt>
      <trkpt lat="57.444436959922314" lon="-6.744595030322671">
        <ele>77.040000000000006</ele>
        <time>2023-08-26T15:38:50Z</time>
      </trkpt>
      <trkpt lat="57.444768967106938" lon="-6.743406979367137">
        <ele>74.640000000000001</ele>
        <time>2023-08-26T15:38:56Z</time>
      </trkpt>
      <trkpt lat="57.444839039817452" lon="-6.743234982714057">
        <ele>74.159999999999997</ele>
        <time>2023-08-26T15:38:57Z</time>
      </trkpt>
      <trkpt lat="57.444903999567032" lon="-6.743074972182512">
        <ele>74.159999999999997</ele>
        <time>2023-08-26T15:38:58Z</time>
      </trkpt>
      <trkpt lat="57.444956973195076" lon="-6.742944968864322">
        <ele>73.680000000000007</ele>
        <time>2023-08-26T15:38:59Z</time>
      </trkpt>
      <trkpt lat="57.444967031478882" lon="-6.74276702105999">
        <ele>73.680000000000007</ele>
        <time>2023-08-26T15:39:00Z</time>
      </trkpt>
      <trkpt lat="57.444978011772037" lon="-6.742558982223272">
        <ele>73.200000000000003</ele>
        <time>2023-08-26T15:39:01Z</time>
      </trkpt>
      <trkpt lat="57.444965019822121" lon="-6.742444988340139">
        <ele>73.680000000000007</ele>
        <time>2023-08-26T15:39:02Z</time>
      </trkpt>
      <trkpt lat="57.444945992901921" lon="-6.742281038314104">
        <ele>74.159999999999997</ele>
        <time>2023-08-26T15:39:03Z</time>
      </trkpt>
      <trkpt lat="57.444893019273877" lon="-6.741829002276063">
        <ele>74.159999999999997</ele>
        <time>2023-08-26T15:39:06Z</time>
      </trkpt>
      <trkpt lat="57.444926965981722" lon="-6.741667985916138">
        <ele>74.159999999999997</ele>
        <time>2023-08-26T15:39:07Z</time>
      </trkpt>
      <trkpt lat="57.444956973195076" lon="-6.741529013961554">
        <ele>73.680000000000007</ele>
        <time>2023-08-26T15:39:08Z</time>
      </trkpt>
      <trkpt lat="57.44500701315701" lon="-6.741455001756549">
        <ele>72.719999999999999</ele>
        <time>2023-08-26T15:39:09Z</time>
      </trkpt>
      <trkpt lat="57.445073984563351" lon="-6.741356011480093">
        <ele>71.760000000000005</ele>
        <time>2023-08-26T15:39:10Z</time>
      </trkpt>
      <trkpt lat="57.445147996768355" lon="-6.741246040910482">
        <ele>70.790000000000006</ele>
        <time>2023-08-26T15:39:11Z</time>
      </trkpt>
      <trkpt lat="57.445230977609754" lon="-6.741124000400305">
        <ele>69.829999999999998</ele>
        <time>2023-08-26T15:39:12Z</time>
      </trkpt>
      <trkpt lat="57.445322005078197" lon="-6.740988967940211">
        <ele>68.870000000000005</ele>
        <time>2023-08-26T15:39:13Z</time>
      </trkpt>
      <trkpt lat="57.445420995354652" lon="-6.740803979337215">
        <ele>67.909999999999997</ele>
        <time>2023-08-26T15:39:14Z</time>
      </trkpt>
      <trkpt lat="57.445469023659825" lon="-6.740589989349246">
        <ele>66.469999999999999</ele>
        <time>2023-08-26T15:39:15Z</time>
      </trkpt>
      <trkpt lat="57.445516968145967" lon="-6.74038102850318">
        <ele>65.510000000000005</ele>
        <time>2023-08-26T15:39:16Z</time>
      </trkpt>
      <trkpt lat="57.445558039471507" lon="-6.740197967737913">
        <ele>64.549999999999997</ele>
        <time>2023-08-26T15:39:17Z</time>
      </trkpt>
      <trkpt lat="57.445626016706228" lon="-6.740009039640427">
        <ele>63.579999999999998</ele>
        <time>2023-08-26T15:39:18Z</time>
      </trkpt>
      <trkpt lat="57.445690976455808" lon="-6.739830002188683">
        <ele>62.140000000000001</ele>
        <time>2023-08-26T15:39:19Z</time>
      </trkpt>
      <trkpt lat="57.446065982803702" lon="-6.73879399895668">
        <ele>51.57</ele>
        <time>2023-08-26T15:39:27Z</time>
      </trkpt>
      <trkpt lat="57.446086015552282" lon="-6.738740019500256">
        <ele>50.609999999999999</ele>
        <time>2023-08-26T15:39:28Z</time>
      </trkpt>
      <trkpt lat="57.446045028045774" lon="-6.738656032830477">
        <ele>50.130000000000003</ele>
        <time>2023-08-26T15:39:29Z</time>
      </trkpt>
      <trkpt lat="57.445999011397362" lon="-6.73859803006053">
        <ele>49.159999999999997</ele>
        <time>2023-08-26T15:39:30Z</time>
      </trkpt>
      <trkpt lat="57.445941008627415" lon="-6.738524017855525">
        <ele>48.200000000000003</ele>
        <time>2023-08-26T15:39:31Z</time>
      </trkpt>
      <trkpt lat="57.445876970887184" lon="-6.738442964851856">
        <ele>47.719999999999999</ele>
        <time>2023-08-26T15:39:32Z</time>
      </trkpt>
      <trkpt lat="57.445807987824082" lon="-6.738356966525316">
        <ele>47.240000000000002</ele>
        <time>2023-08-26T15:39:33Z</time>
      </trkpt>
      <trkpt lat="57.445590980350971" lon="-6.738073993474245">
        <ele>47.240000000000002</ele>
        <time>2023-08-26T15:39:36Z</time>
      </trkpt>
      <trkpt lat="57.445541024208069" lon="-6.737962011247873">
        <ele>47.719999999999999</ele>
        <time>2023-08-26T15:39:37Z</time>
      </trkpt>
      <trkpt lat="57.445516968145967" lon="-6.737797977402806">
        <ele>47.719999999999999</ele>
        <time>2023-08-26T15:39:38Z</time>
      </trkpt>
      <trkpt lat="57.445519985631108" lon="-6.737637966871262">
        <ele>48.200000000000003</ele>
        <time>2023-08-26T15:39:39Z</time>
      </trkpt>
      <trkpt lat="57.44552300311625" lon="-6.737464964389801">
        <ele>49.159999999999997</ele>
        <time>2023-08-26T15:39:40Z</time>
      </trkpt>
      <trkpt lat="57.445510011166334" lon="-6.736487969756126">
        <ele>53.969999999999999</ele>
        <time>2023-08-26T15:39:45Z</time>
      </trkpt>
      <trkpt lat="57.445484027266502" lon="-6.736281020566821">
        <ele>54.93</ele>
        <time>2023-08-26T15:39:46Z</time>
      </trkpt>
      <trkpt lat="57.445203987881541" lon="-6.734315967187285">
        <ele>66.469999999999999</ele>
        <time>2023-08-26T15:39:56Z</time>
      </trkpt>
      <trkpt lat="57.445188984274864" lon="-6.734133996069431">
        <ele>66.950000000000003</ele>
        <time>2023-08-26T15:39:57Z</time>
      </trkpt>
      <trkpt lat="57.445171969011426" lon="-6.733932998031378">
        <ele>66.950000000000003</ele>
        <time>2023-08-26T15:39:58Z</time>
      </trkpt>
      <trkpt lat="57.445111032575369" lon="-6.733796959742904">
        <ele>66.950000000000003</ele>
        <time>2023-08-26T15:39:59Z</time>
      </trkpt>
      <trkpt lat="57.445035008713603" lon="-6.733624963089824">
        <ele>66.950000000000003</ele>
        <time>2023-08-26T15:40:00Z</time>
      </trkpt>
      <trkpt lat="57.444952027872205" lon="-6.733437962830067">
        <ele>66.950000000000003</ele>
        <time>2023-08-26T15:40:01Z</time>
      </trkpt>
      <trkpt lat="57.444159016013145" lon="-6.731472993269563">
        <ele>64.069999999999993</ele>
        <time>2023-08-26T15:40:10Z</time>
      </trkpt>
      <trkpt lat="57.443819968029857" lon="-6.73058501444757">
        <ele>62.619999999999997</ele>
        <time>2023-08-26T15:40:14Z</time>
      </trkpt>
      <trkpt lat="57.443790966644883" lon="-6.730383010581136">
        <ele>62.140000000000001</ele>
        <time>2023-08-26T15:40:15Z</time>
      </trkpt>
      <trkpt lat="57.443755008280277" lon="-6.73013499006629">
        <ele>61.659999999999997</ele>
        <time>2023-08-26T15:40:16Z</time>
      </trkpt>
      <trkpt lat="57.443744027987123" lon="-6.729881018400192">
        <ele>61.18</ele>
        <time>2023-08-26T15:40:17Z</time>
      </trkpt>
      <trkpt lat="57.443732041865587" lon="-6.729611959308386">
        <ele>61.18</ele>
        <time>2023-08-26T15:40:18Z</time>
      </trkpt>
      <trkpt lat="57.443649983033538" lon="-6.727804988622665">
        <ele>57.340000000000003</ele>
        <time>2023-08-26T15:40:26Z</time>
      </trkpt>
      <trkpt lat="57.443679990246892" lon="-6.727675991132855">
        <ele>56.859999999999999</ele>
        <time>2023-08-26T15:40:34Z</time>
      </trkpt>
      <trkpt lat="57.443861961364746" lon="-6.727249016985297">
        <ele>55.890000000000001</ele>
        <time>2023-08-26T15:40:45Z</time>
      </trkpt>
      <trkpt lat="57.444465039297938" lon="-6.72583700157702">
        <ele>52.049999999999997</ele>
        <time>2023-08-26T15:40:53Z</time>
      </trkpt>
      <trkpt lat="57.44492000900209" lon="-6.724876016378403">
        <ele>49.159999999999997</ele>
        <time>2023-08-26T15:40:58Z</time>
      </trkpt>
      <trkpt lat="57.445617970079184" lon="-6.72398803755641">
        <ele>44.840000000000003</ele>
        <time>2023-08-26T15:41:06Z</time>
      </trkpt>
      <trkpt lat="57.445684019476175" lon="-6.723888963460922">
        <ele>44.359999999999999</ele>
        <time>2023-08-26T15:41:07Z</time>
      </trkpt>
      <trkpt lat="57.445734981447458" lon="-6.723763989284635">
        <ele>43.880000000000003</ele>
        <time>2023-08-26T15:41:08Z</time>
      </trkpt>
      <trkpt lat="57.445786027237773" lon="-6.723639015108347">
        <ele>43.399999999999999</ele>
        <time>2023-08-26T15:41:09Z</time>
      </trkpt>
      <trkpt lat="57.445833971723914" lon="-6.723493002355099">
        <ele>42.920000000000002</ele>
        <time>2023-08-26T15:41:10Z</time>
      </trkpt>
      <trkpt lat="57.445873031392694" lon="-6.723329974338412">
        <ele>42.920000000000002</ele>
        <time>2023-08-26T15:41:11Z</time>
      </trkpt>
      <trkpt lat="57.446199003607035" lon="-6.72214200720191">
        <ele>40.509999999999998</ele>
        <time>2023-08-26T15:41:18Z</time>
      </trkpt>
      <trkpt lat="57.446285001933575" lon="-6.722005968913436">
        <ele>39.549999999999997</ele>
        <time>2023-08-26T15:41:19Z</time>
      </trkpt>
      <trkpt lat="57.446559006348252" lon="-6.721574971452355">
        <ele>36.670000000000002</ele>
        <time>2023-08-26T15:41:22Z</time>
      </trkpt>
      <trkpt lat="57.446634024381638" lon="-6.721391994506121">
        <ele>35.710000000000001</ele>
        <time>2023-08-26T15:41:23Z</time>
      </trkpt>
      <trkpt lat="57.446695966646075" lon="-6.721204994246364">
        <ele>34.740000000000002</ele>
        <time>2023-08-26T15:41:24Z</time>
      </trkpt>
      <trkpt lat="57.446756986901164" lon="-6.721021011471748">
        <ele>34.259999999999998</ele>
        <time>2023-08-26T15:41:25Z</time>
      </trkpt>
      <trkpt lat="57.446823958307505" lon="-6.720822025090456">
        <ele>33.780000000000001</ele>
        <time>2023-08-26T15:41:26Z</time>
      </trkpt>
      <trkpt lat="57.447057981044054" lon="-6.719883000478149">
        <ele>32.82</ele>
        <time>2023-08-26T15:41:31Z</time>
      </trkpt>
      <trkpt lat="57.447103997692466" lon="-6.719529032707214">
        <ele>32.82</ele>
        <time>2023-08-26T15:41:33Z</time>
      </trkpt>
      <trkpt lat="57.447115983814001" lon="-6.719438005238771">
        <ele>33.299999999999997</ele>
        <time>2023-08-26T15:41:37Z</time>
      </trkpt>
      <trkpt lat="57.447164012119174" lon="-6.719059981405735">
        <ele>33.299999999999997</ele>
        <time>2023-08-26T15:41:47Z</time>
      </trkpt>
      <trkpt lat="57.447356041520834" lon="-6.717796996235848">
        <ele>32.82</ele>
        <time>2023-08-26T15:41:54Z</time>
      </trkpt>
      <trkpt lat="57.447401974350214" lon="-6.717584012076259">
        <ele>32.82</ele>
        <time>2023-08-26T15:41:55Z</time>
      </trkpt>
      <trkpt lat="57.44752200320363" lon="-6.717224009335041">
        <ele>32.340000000000003</ele>
        <time>2023-08-26T15:41:57Z</time>
      </trkpt>
      <trkpt lat="57.447581011801958" lon="-6.7170500010252">
        <ele>32.340000000000003</ele>
        <time>2023-08-26T15:41:58Z</time>
      </trkpt>
      <trkpt lat="57.44777999818325" lon="-6.716639036312699">
        <ele>32.82</ele>
        <time>2023-08-26T15:42:01Z</time>
      </trkpt>
      <trkpt lat="57.447859039530158" lon="-6.716508027166128">
        <ele>33.299999999999997</ele>
        <time>2023-08-26T15:42:02Z</time>
      </trkpt>
      <trkpt lat="57.44803698733449" lon="-6.71623301692307">
        <ele>32.340000000000003</ele>
        <time>2023-08-26T15:42:04Z</time>
      </trkpt>
      <trkpt lat="57.448129020631313" lon="-6.716106031090021">
        <ele>31.859999999999999</ele>
        <time>2023-08-26T15:42:05Z</time>
      </trkpt>
      <trkpt lat="57.44818601757288" lon="-6.715946020558476">
        <ele>31.859999999999999</ele>
        <time>2023-08-26T15:42:06Z</time>
      </trkpt>
      <trkpt lat="57.448247037827969" lon="-6.715768994763494">
        <ele>31.379999999999999</ele>
        <time>2023-08-26T15:42:07Z</time>
      </trkpt>
      <trkpt lat="57.448311997577548" lon="-6.715577971190214">
        <ele>30.899999999999999</ele>
        <time>2023-08-26T15:42:08Z</time>
      </trkpt>
      <trkpt lat="57.448541997000575" lon="-6.714807003736496">
        <ele>28.98</ele>
        <time>2023-08-26T15:42:12Z</time>
      </trkpt>
      <trkpt lat="57.448605028912425" lon="-6.71457801014185">
        <ele>28.5</ele>
        <time>2023-08-26T15:42:13Z</time>
      </trkpt>
      <trkpt lat="57.448613997548819" lon="-6.714422022923827">
        <ele>27.530000000000001</ele>
        <time>2023-08-26T15:42:14Z</time>
      </trkpt>
      <trkpt lat="57.448624977841973" lon="-6.714204009622335">
        <ele>27.530000000000001</ele>
        <time>2023-08-26T15:42:15Z</time>
      </trkpt>
      <trkpt lat="57.448605028912425" lon="-6.713979039341211">
        <ele>27.050000000000001</ele>
        <time>2023-08-26T15:42:16Z</time>
      </trkpt>
      <trkpt lat="57.448581978678703" lon="-6.713734958320856">
        <ele>26.57</ele>
        <time>2023-08-26T15:42:17Z</time>
      </trkpt>
      <trkpt lat="57.448491035029292" lon="-6.711384002119303">
        <ele>22.25</ele>
        <time>2023-08-26T15:42:26Z</time>
      </trkpt>
      <trkpt lat="57.448480976745486" lon="-6.709132036194205">
        <ele>16.960000000000001</ele>
        <time>2023-08-26T15:42:36Z</time>
      </trkpt>
      <trkpt lat="57.448477959260345" lon="-6.708516972139478">
        <ele>15.52</ele>
        <time>2023-08-26T15:42:40Z</time>
      </trkpt>
      <trkpt lat="57.448477959260345" lon="-6.708356039598584">
        <ele>15.52</ele>
        <time>2023-08-26T15:42:41Z</time>
      </trkpt>
      <trkpt lat="57.448477037250996" lon="-6.708184964954853">
        <ele>15.52</ele>
        <time>2023-08-26T15:42:42Z</time>
      </trkpt>
      <trkpt lat="57.448336975648999" lon="-6.707001021131873">
        <ele>12.630000000000001</ele>
        <time>2023-08-26T15:42:49Z</time>
      </trkpt>
      <trkpt lat="57.448347033932805" lon="-6.706817960366607">
        <ele>12.15</ele>
        <time>2023-08-26T15:42:50Z</time>
      </trkpt>
      <trkpt lat="57.44835801422596" lon="-6.706630038097501">
        <ele>11.67</ele>
        <time>2023-08-26T15:42:51Z</time>
      </trkpt>
      <trkpt lat="57.448368994519114" lon="-6.706444965675473">
        <ele>11.19</ele>
        <time>2023-08-26T15:42:52Z</time>
      </trkpt>
      <trkpt lat="57.448405036702752" lon="-6.706279003992677">
        <ele>10.710000000000001</ele>
        <time>2023-08-26T15:42:53Z</time>
      </trkpt>
      <trkpt lat="57.448442000895739" lon="-6.706107007339597">
        <ele>10.710000000000001</ele>
        <time>2023-08-26T15:42:54Z</time>
      </trkpt>
      <trkpt lat="57.448481982573867" lon="-6.705935010686517">
        <ele>10.23</ele>
        <time>2023-08-26T15:42:55Z</time>
      </trkpt>
      <trkpt lat="57.449167035520077" lon="-6.703861998394132">
        <ele>10.23</ele>
        <time>2023-08-26T15:43:08Z</time>
      </trkpt>
      <trkpt lat="57.449586968868971" lon="-6.701981015503407">
        <ele>13.119999999999999</ele>
        <time>2023-08-26T15:43:18Z</time>
      </trkpt>
      <trkpt lat="57.449735999107361" lon="-6.700387028977275">
        <ele>16.960000000000001</ele>
        <time>2023-08-26T15:43:25Z</time>
      </trkpt>
      <trkpt lat="57.449795007705688" lon="-6.700215032324195">
        <ele>17.920000000000002</ele>
        <time>2023-08-26T15:43:26Z</time>
      </trkpt>
      <trkpt lat="57.449870025739074" lon="-6.700049992650747">
        <ele>18.399999999999999</ele>
        <time>2023-08-26T15:43:27Z</time>
      </trkpt>
      <trkpt lat="57.449938002973795" lon="-6.699900962412357">
        <ele>19.359999999999999</ele>
        <time>2023-08-26T15:43:28Z</time>
      </trkpt>
      <trkpt lat="57.449998017400503" lon="-6.699770037084818">
        <ele>20.809999999999999</ele>
        <time>2023-08-26T15:43:29Z</time>
      </trkpt>
      <trkpt lat="57.450057025998831" lon="-6.699640033766627">
        <ele>22.25</ele>
        <time>2023-08-26T15:43:30Z</time>
      </trkpt>
      <trkpt lat="57.450057025998831" lon="-6.699640033766627">
        <ele>23.690000000000001</ele>
        <time>2023-08-26T15:43:31Z</time>
      </trkpt>
      <trkpt lat="57.45012198574841" lon="-6.699293022975326">
        <ele>24.649999999999999</ele>
        <time>2023-08-26T15:43:32Z</time>
      </trkpt>
      <trkpt lat="57.450145035982132" lon="-6.699115997180343">
        <ele>26.09</ele>
        <time>2023-08-26T15:43:33Z</time>
      </trkpt>
      <trkpt lat="57.450337987393141" lon="-6.697632987052202">
        <ele>33.299999999999997</ele>
        <time>2023-08-26T15:43:39Z</time>
      </trkpt>
      <trkpt lat="57.45040001347661" lon="-6.696867970749736">
        <ele>37.630000000000003</ele>
        <time>2023-08-26T15:43:42Z</time>
      </trkpt>
      <trkpt lat="57.45039900764823" lon="-6.696609975770116">
        <ele>39.549999999999997</ele>
        <time>2023-08-26T15:43:43Z</time>
      </trkpt>
      <trkpt lat="57.45035701431334" lon="-6.696362039074302">
        <ele>40.990000000000002</ele>
        <time>2023-08-26T15:43:44Z</time>
      </trkpt>
      <trkpt lat="57.450315020978451" lon="-6.696105971932411">
        <ele>42.920000000000002</ele>
        <time>2023-08-26T15:43:45Z</time>
      </trkpt>
      <trkpt lat="57.450273027643561" lon="-6.695854011923075">
        <ele>44.840000000000003</ele>
        <time>2023-08-26T15:43:46Z</time>
      </trkpt>
      <trkpt lat="57.450125003233552" lon="-6.694322973489761">
        <ele>55.890000000000001</ele>
        <time>2023-08-26T15:43:53Z</time>
      </trkpt>
      <trkpt lat="57.45009901933372" lon="-6.694178972393274">
        <ele>57.340000000000003</ele>
        <time>2023-08-26T15:43:54Z</time>
      </trkpt>
      <trkpt lat="57.44988402351737" lon="-6.693697012960911">
        <ele>62.619999999999997</ele>
        <time>2023-08-26T15:44:00Z</time>
      </trkpt>
      <trkpt lat="57.449299972504377" lon="-6.692552966997027">
        <ele>66.950000000000003</ele>
        <time>2023-08-26T15:44:07Z</time>
      </trkpt>
      <trkpt lat="57.448350973427296" lon="-6.690809028223157">
        <ele>74.159999999999997</ele>
        <time>2023-08-26T15:44:17Z</time>
      </trkpt>
      <trkpt lat="57.448290036991239" lon="-6.690653041005135">
        <ele>75.120000000000005</ele>
        <time>2023-08-26T15:44:18Z</time>
      </trkpt>
      <trkpt lat="57.448224993422627" lon="-6.690489007160068">
        <ele>76.079999999999998</ele>
        <time>2023-08-26T15:44:19Z</time>
      </trkpt>
      <trkpt lat="57.448169002309442" lon="-6.690283985808492">
        <ele>77.040000000000006</ele>
        <time>2023-08-26T15:44:20Z</time>
      </trkpt>
      <trkpt lat="57.447811011224985" lon="-6.688398979604244">
        <ele>91.459999999999994</ele>
        <time>2023-08-26T15:44:29Z</time>
      </trkpt>
      <trkpt lat="57.44765100069344" lon="-6.686329990625382">
        <ele>105.88</ele>
        <time>2023-08-26T15:44:37Z</time>
      </trkpt>
      <trkpt lat="57.447770023718476" lon="-6.683784993365407">
        <ele>125.59</ele>
        <time>2023-08-26T15:44:47Z</time>
      </trkpt>
      <trkpt lat="57.447803970426321" lon="-6.683572009205818">
        <ele>127.51000000000001</ele>
        <time>2023-08-26T15:44:48Z</time>
      </trkpt>
      <trkpt lat="57.447850992903113" lon="-6.683365982025862">
        <ele>129.43000000000001</ele>
        <time>2023-08-26T15:44:49Z</time>
      </trkpt>
      <trkpt lat="57.448516013100743" lon="-6.681179981678724">
        <ele>140.00999999999999</ele>
        <time>2023-08-26T15:44:59Z</time>
      </trkpt>
      <trkpt lat="57.44902404025197" lon="-6.678724000230432">
        <ele>133.75999999999999</ele>
        <time>2023-08-26T15:45:08Z</time>
      </trkpt>
      <trkpt lat="57.449767012149096" lon="-6.675612973049283">
        <ele>123.19</ele>
        <time>2023-08-26T15:45:20Z</time>
      </trkpt>
      <trkpt lat="57.450471008196473" lon="-6.673021959140897">
        <ele>113.56999999999999</ele>
        <time>2023-08-26T15:45:31Z</time>
      </trkpt>
      <trkpt lat="57.450855989009142" lon="-6.671331999823451">
        <ele>106.84</ele>
        <time>2023-08-26T15:45:39Z</time>
      </trkpt>
      <trkpt lat="57.451249016448855" lon="-6.669584959745407">
        <ele>94.349999999999994</ele>
        <time>2023-08-26T15:45:47Z</time>
      </trkpt>
      <trkpt lat="57.451271982863545" lon="-6.669382033869624">
        <ele>92.420000000000002</ele>
        <time>2023-08-26T15:45:48Z</time>
      </trkpt>
      <trkpt lat="57.451281035318971" lon="-6.669167038053274">
        <ele>90.5</ele>
        <time>2023-08-26T15:45:49Z</time>
      </trkpt>
      <trkpt lat="57.451273994520307" lon="-6.668951958417893">
        <ele>89.060000000000002</ele>
        <time>2023-08-26T15:45:50Z</time>
      </trkpt>
      <trkpt lat="57.451240969821811" lon="-6.668723970651627">
        <ele>87.140000000000001</ele>
        <time>2023-08-26T15:45:51Z</time>
      </trkpt>
      <trkpt lat="57.450934024527669" lon="-6.666662022471428">
        <ele>74.640000000000001</ele>
        <time>2023-08-26T15:46:00Z</time>
      </trkpt>
      <trkpt lat="57.450585002079606" lon="-6.664723958820105">
        <ele>65.989999999999995</ele>
        <time>2023-08-26T15:46:08Z</time>
      </trkpt>
      <trkpt lat="57.450560024008155" lon="-6.66447501629591">
        <ele>65.030000000000001</ele>
        <time>2023-08-26T15:46:09Z</time>
      </trkpt>
      <trkpt lat="57.450535967946053" lon="-6.664237976074219">
        <ele>63.579999999999998</ele>
        <time>2023-08-26T15:46:10Z</time>
      </trkpt>
      <trkpt lat="57.450579972937703" lon="-6.664035972207785">
        <ele>62.140000000000001</ele>
        <time>2023-08-26T15:46:11Z</time>
      </trkpt>
      <trkpt lat="57.450619032606483" lon="-6.663855006918311">
        <ele>61.18</ele>
        <time>2023-08-26T15:46:12Z</time>
      </trkpt>
      <trkpt lat="57.450675023719668" lon="-6.663711005821824">
        <ele>60.219999999999999</ele>
        <time>2023-08-26T15:46:13Z</time>
      </trkpt>
      <trkpt lat="57.450773008167744" lon="-6.663607992231846">
        <ele>59.259999999999998</ele>
        <time>2023-08-26T15:46:14Z</time>
      </trkpt>
      <trkpt lat="57.450879039242864" lon="-6.663497015833855">
        <ele>58.780000000000001</ele>
        <time>2023-08-26T15:46:15Z</time>
      </trkpt>
      <trkpt lat="57.450990015640855" lon="-6.66338000446558">
        <ele>58.780000000000001</ele>
        <time>2023-08-26T15:46:16Z</time>
      </trkpt>
      <trkpt lat="57.451111972332001" lon="-6.663297023624182">
        <ele>58.299999999999997</ele>
        <time>2023-08-26T15:46:17Z</time>
      </trkpt>
      <trkpt lat="57.451235018670559" lon="-6.663258969783783">
        <ele>58.299999999999997</ele>
        <time>2023-08-26T15:46:18Z</time>
      </trkpt>
      <trkpt lat="57.451357981190085" lon="-6.663222005590797">
        <ele>58.299999999999997</ele>
        <time>2023-08-26T15:46:19Z</time>
      </trkpt>
      <trkpt lat="57.451481027528644" lon="-6.663184035569429">
        <ele>57.82</ele>
        <time>2023-08-26T15:46:20Z</time>
      </trkpt>
      <trkpt lat="57.451940020546317" lon="-6.66303601115942">
        <ele>57.340000000000003</ele>
        <time>2023-08-26T15:46:24Z</time>
      </trkpt>
      <trkpt lat="57.452030964195728" lon="-6.662975996732712">
        <ele>57.82</ele>
        <time>2023-08-26T15:46:25Z</time>
      </trkpt>
      <trkpt lat="57.452116040512919" lon="-6.662883041426539">
        <ele>57.82</ele>
        <time>2023-08-26T15:46:26Z</time>
      </trkpt>
      <trkpt lat="57.452200027182698" lon="-6.662792013958097">
        <ele>57.82</ele>
        <time>2023-08-26T15:46:27Z</time>
      </trkpt>
      <trkpt lat="57.452274961397052" lon="-6.662652958184481">
        <ele>57.82</ele>
        <time>2023-08-26T15:46:28Z</time>
      </trkpt>
      <trkpt lat="57.452345034107566" lon="-6.662486996501684">
        <ele>57.82</ele>
        <time>2023-08-26T15:46:29Z</time>
      </trkpt>
      <trkpt lat="57.452621972188354" lon="-6.661829017102718">
        <ele>57.340000000000003</ele>
        <time>2023-08-26T15:46:33Z</time>
      </trkpt>
      <trkpt lat="57.452621972188354" lon="-6.661829017102718">
        <ele>57.340000000000003</ele>
        <time>2023-08-26T15:46:34Z</time>
      </trkpt>
      <trkpt lat="57.452754992991686" lon="-6.661485023796558">
        <ele>56.859999999999999</ele>
        <time>2023-08-26T15:46:35Z</time>
      </trkpt>
      <trkpt lat="57.452788017690182" lon="-6.661290982738137">
        <ele>57.340000000000003</ele>
        <time>2023-08-26T15:46:36Z</time>
      </trkpt>
      <trkpt lat="57.452822970226407" lon="-6.661093002185226">
        <ele>56.859999999999999</ele>
        <time>2023-08-26T15:46:37Z</time>
      </trkpt>
      <trkpt lat="57.452832022681832" lon="-6.660872977226973">
        <ele>56.859999999999999</ele>
        <time>2023-08-26T15:46:38Z</time>
      </trkpt>
      <trkpt lat="57.452832022681832" lon="-6.660663010552526">
        <ele>56.369999999999997</ele>
        <time>2023-08-26T15:46:39Z</time>
      </trkpt>
      <trkpt lat="57.452832022681832" lon="-6.660453965887427">
        <ele>56.369999999999997</ele>
        <time>2023-08-26T15:46:40Z</time>
      </trkpt>
      <trkpt lat="57.452822970226407" lon="-6.660238970071077">
        <ele>55.890000000000001</ele>
        <time>2023-08-26T15:46:41Z</time>
      </trkpt>
      <trkpt lat="57.452788017690182" lon="-6.660036966204643">
        <ele>55.890000000000001</ele>
        <time>2023-08-26T15:46:42Z</time>
      </trkpt>
      <trkpt lat="57.452750969678164" lon="-6.659826999530196">
        <ele>55.890000000000001</ele>
        <time>2023-08-26T15:46:43Z</time>
      </trkpt>
      <trkpt lat="57.452714005485177" lon="-6.659615021198988">
        <ele>55.409999999999997</ele>
        <time>2023-08-26T15:46:44Z</time>
      </trkpt>
      <trkpt lat="57.452289965003729" lon="-6.658110972493887">
        <ele>53.969999999999999</ele>
        <time>2023-08-26T15:46:52Z</time>
      </trkpt>
      <trkpt lat="57.452241014689207" lon="-6.657990021631122">
        <ele>53.969999999999999</ele>
        <time>2023-08-26T15:46:53Z</time>
      </trkpt>
      <trkpt lat="57.451774980872869" lon="-6.657107993960381">
        <ele>52.530000000000001</ele>
        <time>2023-08-26T15:47:00Z</time>
      </trkpt>
      <trkpt lat="57.450882978737354" lon="-6.65564401075244">
        <ele>48.68</ele>
        <time>2023-08-26T15:47:10Z</time>
      </trkpt>
      <trkpt lat="57.450145035982132" lon="-6.653909962624311">
        <ele>42.439999999999998</ele>
        <time>2023-08-26T15:47:19Z</time>
      </trkpt>
      <trkpt lat="57.449536006897688" lon="-6.652308013290167">
        <ele>34.259999999999998</ele>
        <time>2023-08-26T15:47:27Z</time>
      </trkpt>
      <trkpt lat="57.449446991086006" lon="-6.652108021080494">
        <ele>33.299999999999997</ele>
        <time>2023-08-26T15:47:28Z</time>
      </trkpt>
      <trkpt lat="57.449364010244608" lon="-6.651922026649118">
        <ele>32.340000000000003</ele>
        <time>2023-08-26T15:47:29Z</time>
      </trkpt>
      <trkpt lat="57.449285974726081" lon="-6.651748018339276">
        <ele>31.859999999999999</ele>
        <time>2023-08-26T15:47:30Z</time>
      </trkpt>
      <trkpt lat="57.449220009148121" lon="-6.651574010029435">
        <ele>30.899999999999999</ele>
        <time>2023-08-26T15:47:31Z</time>
      </trkpt>
      <trkpt lat="57.449163012206554" lon="-6.651394972577691">
        <ele>30.420000000000002</ele>
        <time>2023-08-26T15:47:32Z</time>
      </trkpt>
      <trkpt lat="57.44910903275013" lon="-6.651228005066514">
        <ele>29.940000000000001</ele>
        <time>2023-08-26T15:47:33Z</time>
      </trkpt>
      <trkpt lat="57.449061004444957" lon="-6.651076041162014">
        <ele>29.940000000000001</ele>
        <time>2023-08-26T15:47:34Z</time>
      </trkpt>
      <trkpt lat="57.449016999453306" lon="-6.650937991216779">
        <ele>29.460000000000001</ele>
        <time>2023-08-26T15:47:35Z</time>
      </trkpt>
      <trkpt lat="57.448972994461656" lon="-6.650801030918956">
        <ele>29.460000000000001</ele>
        <time>2023-08-26T15:47:36Z</time>
      </trkpt>
      <trkpt lat="57.448926977813244" lon="-6.650655018165708">
        <ele>29.460000000000001</ele>
        <time>2023-08-26T15:47:37Z</time>
      </trkpt>
      <trkpt lat="57.448857994750142" lon="-6.650529038161039">
        <ele>29.940000000000001</ele>
        <time>2023-08-26T15:47:38Z</time>
      </trkpt>
      <trkpt lat="57.448331024497747" lon="-6.649485994130373">
        <ele>28.5</ele>
        <time>2023-08-26T15:47:46Z</time>
      </trkpt>
      <trkpt lat="57.448285007849336" lon="-6.649344004690647">
        <ele>28.5</ele>
        <time>2023-08-26T15:47:47Z</time>
      </trkpt>
      <trkpt lat="57.448241002857685" lon="-6.649206038564444">
        <ele>28.02</ele>
        <time>2023-08-26T15:47:48Z</time>
      </trkpt>
      <trkpt lat="57.448097001761198" lon="-6.648688036948443">
        <ele>26.09</ele>
        <time>2023-08-26T15:47:52Z</time>
      </trkpt>
      <trkpt lat="57.448063977062702" lon="-6.648541018366814">
        <ele>25.609999999999999</ele>
        <time>2023-08-26T15:47:53Z</time>
      </trkpt>
      <trkpt lat="57.44788602925837" lon="-6.647785976529121">
        <ele>22.25</ele>
        <time>2023-08-26T15:47:57Z</time>
      </trkpt>
      <trkpt lat="57.447569025680423" lon="-6.646554004400969">
        <ele>15.52</ele>
        <time>2023-08-26T15:48:03Z</time>
      </trkpt>
      <trkpt lat="57.44749903678894" lon="-6.64640799164772">
        <ele>14.56</ele>
        <time>2023-08-26T15:48:04Z</time>
      </trkpt>
      <trkpt lat="57.44741203263402" lon="-6.646274970844388">
        <ele>13.6</ele>
        <time>2023-08-26T15:48:05Z</time>
      </trkpt>
      <trkpt lat="57.447315976023674" lon="-6.64612895809114">
        <ele>13.119999999999999</ele>
        <time>2023-08-26T15:48:06Z</time>
      </trkpt>
      <trkpt lat="57.447210028767586" lon="-6.645974982529879">
        <ele>12.15</ele>
        <time>2023-08-26T15:48:07Z</time>
      </trkpt>
      <trkpt lat="57.44709100574255" lon="-6.645836010575295">
        <ele>11.19</ele>
        <time>2023-08-26T15:48:08Z</time>
      </trkpt>
      <trkpt lat="57.446263041347265" lon="-6.644868990406394">
        <ele>7.83</ele>
        <time>2023-08-26T15:48:16Z</time>
      </trkpt>
      <trkpt lat="57.444994021207094" lon="-6.643384974449873">
        <ele>4.46</ele>
        <time>2023-08-26T15:48:28Z</time>
      </trkpt>
      <trkpt lat="57.443452002480626" lon="-6.641582027077675">
        <ele>5.42</ele>
        <time>2023-08-26T15:48:43Z</time>
      </trkpt>
      <trkpt lat="57.442377023398876" lon="-6.640226002782583">
        <ele>11.19</ele>
        <time>2023-08-26T15:48:54Z</time>
      </trkpt>
      <trkpt lat="57.441305983811617" lon="-6.638785991817713">
        <ele>14.56</ele>
        <time>2023-08-26T15:49:04Z</time>
      </trkpt>
      <trkpt lat="57.44118201546371" lon="-6.638667974621058">
        <ele>14.56</ele>
        <time>2023-08-26T15:49:05Z</time>
      </trkpt>
      <trkpt lat="57.441046983003616" lon="-6.638590022921562">
        <ele>14.56</ele>
        <time>2023-08-26T15:49:06Z</time>
      </trkpt>
      <trkpt lat="57.439961023628712" lon="-6.637908993288875">
        <ele>15.039999999999999</ele>
        <time>2023-08-26T15:49:15Z</time>
      </trkpt>
      <trkpt lat="57.439918024465442" lon="-6.637874040752649">
        <ele>15.52</ele>
        <time>2023-08-26T15:49:20Z</time>
      </trkpt>
      <trkpt lat="57.439832026138902" lon="-6.637802040204406">
        <ele>16</ele>
        <time>2023-08-26T15:49:26Z</time>
      </trkpt>
      <trkpt lat="57.439771005883813" lon="-6.637750994414091">
        <ele>16.48</ele>
        <time>2023-08-26T15:49:27Z</time>
      </trkpt>
      <trkpt lat="57.439070027321577" lon="-6.636867960914969">
        <ele>15.52</ele>
        <time>2023-08-26T15:49:36Z</time>
      </trkpt>
      <trkpt lat="57.438686974346638" lon="-6.636147033423185">
        <ele>14.08</ele>
        <time>2023-08-26T15:49:44Z</time>
      </trkpt>
      <trkpt lat="57.438640035688877" lon="-6.635999009013176">
        <ele>13.6</ele>
        <time>2023-08-26T15:49:45Z</time>
      </trkpt>
      <trkpt lat="57.438193028792739" lon="-6.634054994210601">
        <ele>7.83</ele>
        <time>2023-08-26T15:49:57Z</time>
      </trkpt>
      <trkpt lat="57.437935033813119" lon="-6.633080011233687">
        <ele>7.35</ele>
        <time>2023-08-26T15:50:04Z</time>
      </trkpt>
      <trkpt lat="57.43783101439476" lon="-6.63209899328649">
        <ele>7.83</ele>
        <time>2023-08-26T15:50:10Z</time>
      </trkpt>
      <trkpt lat="57.437854986637831" lon="-6.631940994411707">
        <ele>7.83</ele>
        <time>2023-08-26T15:50:11Z</time>
      </trkpt>
      <trkpt lat="57.437879964709282" lon="-6.631782995536923">
        <ele>7.83</ele>
        <time>2023-08-26T15:50:12Z</time>
      </trkpt>
      <trkpt lat="57.437962023541331" lon="-6.631176983937621">
        <ele>8.310000000000001</ele>
        <time>2023-08-26T15:50:16Z</time>
      </trkpt>
      <trkpt lat="57.437962023541331" lon="-6.631032982841134">
        <ele>8.310000000000001</ele>
        <time>2023-08-26T15:50:17Z</time>
      </trkpt>
      <trkpt lat="57.437962023541331" lon="-6.630882024765015">
        <ele>8.310000000000001</ele>
        <time>2023-08-26T15:50:18Z</time>
      </trkpt>
      <trkpt lat="57.437946014106274" lon="-6.630571978166699">
        <ele>9.27</ele>
        <time>2023-08-26T15:50:20Z</time>
      </trkpt>
      <trkpt lat="57.437926987186074" lon="-6.63042102009058">
        <ele>9.27</ele>
        <time>2023-08-26T15:50:21Z</time>
      </trkpt>
      <trkpt lat="57.437876025214791" lon="-6.630117008462548">
        <ele>8.310000000000001</ele>
        <time>2023-08-26T15:50:24Z</time>
      </trkpt>
      <trkpt lat="57.437849035486579" lon="-6.630026986822486">
        <ele>8.310000000000001</ele>
        <time>2023-08-26T15:50:25Z</time>
      </trkpt>
      <trkpt lat="57.437583999708295" lon="-6.62930597551167">
        <ele>5.42</ele>
        <time>2023-08-26T15:50:31Z</time>
      </trkpt>
      <trkpt lat="57.436682023108006" lon="-6.627381993457675">
        <ele>4.94</ele>
        <time>2023-08-26T15:50:41Z</time>
      </trkpt>
      <trkpt lat="57.436461998149753" lon="-6.626912020146847">
        <ele>5.42</ele>
        <time>2023-08-26T15:50:44Z</time>
      </trkpt>
      <trkpt lat="57.436398966237903" lon="-6.626800959929824">
        <ele>5.91</ele>
        <time>2023-08-26T15:50:45Z</time>
      </trkpt>
      <trkpt lat="57.436303999274969" lon="-6.626716973260045">
        <ele>6.39</ele>
        <time>2023-08-26T15:50:46Z</time>
      </trkpt>
      <trkpt lat="57.436194028705359" lon="-6.626636004075408">
        <ele>6.39</ele>
        <time>2023-08-26T15:50:47Z</time>
      </trkpt>
      <trkpt lat="57.4360709823668" lon="-6.626564003527165">
        <ele>6.39</ele>
        <time>2023-08-26T15:50:48Z</time>
      </trkpt>
      <trkpt lat="57.43594097904861" lon="-6.626486973837018">
        <ele>6.39</ele>
        <time>2023-08-26T15:50:49Z</time>
      </trkpt>
      <trkpt lat="57.434361996129155" lon="-6.62571701221168">
        <ele>7.83</ele>
        <time>2023-08-26T15:51:00Z</time>
      </trkpt>
      <trkpt lat="57.432666001841426" lon="-6.625068001449108">
        <ele>10.23</ele>
        <time>2023-08-26T15:51:10Z</time>
      </trkpt>
      <trkpt lat="57.43147199973464" lon="-6.624526027590036">
        <ele>12.15</ele>
        <time>2023-08-26T15:51:18Z</time>
      </trkpt>
      <trkpt lat="57.431404022499919" lon="-6.624396024271846">
        <ele>12.15</ele>
        <time>2023-08-26T15:51:19Z</time>
      </trkpt>
      <trkpt lat="57.431352976709604" lon="-6.624283958226442">
        <ele>12.15</ele>
        <time>2023-08-26T15:51:20Z</time>
      </trkpt>
      <trkpt lat="57.431323975324631" lon="-6.624092012643814">
        <ele>11.67</ele>
        <time>2023-08-26T15:51:21Z</time>
      </trkpt>
      <trkpt lat="57.431292962282896" lon="-6.623893026262522">
        <ele>11.19</ele>
        <time>2023-08-26T15:51:22Z</time>
      </trkpt>
      <trkpt lat="57.431033039465547" lon="-6.622466007247567">
        <ele>8.310000000000001</ele>
        <time>2023-08-26T15:51:28Z</time>
      </trkpt>
      <trkpt lat="57.431007977575064" lon="-6.622226033359766">
        <ele>7.83</ele>
        <time>2023-08-26T15:51:29Z</time>
      </trkpt>
      <trkpt lat="57.431004038080573" lon="-6.621968960389495">
        <ele>7.35</ele>
        <time>2023-08-26T15:51:30Z</time>
      </trkpt>
      <trkpt lat="57.431000014767051" lon="-6.621705014258623">
        <ele>6.87</ele>
        <time>2023-08-26T15:51:31Z</time>
      </trkpt>
      <trkpt lat="57.430994985625148" lon="-6.621438972651959">
        <ele>6.39</ele>
        <time>2023-08-26T15:51:32Z</time>
      </trkpt>
      <trkpt lat="57.430980987846851" lon="-6.620912002399564">
        <ele>6.87</ele>
        <time>2023-08-26T15:51:34Z</time>
      </trkpt>
      <trkpt lat="57.430941006168723" lon="-6.620659958571196">
        <ele>7.35</ele>
        <time>2023-08-26T15:51:35Z</time>
      </trkpt>
      <trkpt lat="57.430878980085254" lon="-6.620417973026633">
        <ele>7.35</ele>
        <time>2023-08-26T15:51:36Z</time>
      </trkpt>
      <trkpt lat="57.430797005072236" lon="-6.620175987482071">
        <ele>7.83</ele>
        <time>2023-08-26T15:51:37Z</time>
      </trkpt>
      <trkpt lat="57.430712012574077" lon="-6.619924027472735">
        <ele>7.83</ele>
        <time>2023-08-26T15:51:38Z</time>
      </trkpt>
      <trkpt lat="57.429805006831884" lon="-6.617094967514277">
        <ele>9.27</ele>
        <time>2023-08-26T15:51:49Z</time>
      </trkpt>
      <trkpt lat="57.429785979911685" lon="-6.616833033040166">
        <ele>9.27</ele>
        <time>2023-08-26T15:51:50Z</time>
      </trkpt>
      <trkpt lat="57.429785979911685" lon="-6.61656397394836">
        <ele>9.75</ele>
        <time>2023-08-26T15:51:51Z</time>
      </trkpt>
      <trkpt lat="57.429785979911685" lon="-6.616293992847204">
        <ele>10.710000000000001</ele>
        <time>2023-08-26T15:51:52Z</time>
      </trkpt>
      <trkpt lat="57.429785979911685" lon="-6.616027029231191">
        <ele>11.67</ele>
        <time>2023-08-26T15:51:53Z</time>
      </trkpt>
      <trkpt lat="57.429776005446911" lon="-6.61576702259481">
        <ele>12.15</ele>
        <time>2023-08-26T15:51:54Z</time>
      </trkpt>
      <trkpt lat="57.429750021547079" lon="-6.615506010130048">
        <ele>13.6</ele>
        <time>2023-08-26T15:51:55Z</time>
      </trkpt>
      <trkpt lat="57.429319024085999" lon="-6.612679967656732">
        <ele>24.170000000000002</ele>
        <time>2023-08-26T15:52:05Z</time>
      </trkpt>
      <trkpt lat="57.429247023537755" lon="-6.612097006291151">
        <ele>26.57</ele>
        <time>2023-08-26T15:52:07Z</time>
      </trkpt>
      <trkpt lat="57.429230008274317" lon="-6.611295025795698">
        <ele>29.460000000000001</ele>
        <time>2023-08-26T15:52:10Z</time>
      </trkpt>
      <trkpt lat="57.429250963032246" lon="-6.611067038029432">
        <ele>30.420000000000002</ele>
        <time>2023-08-26T15:52:11Z</time>
      </trkpt>
      <trkpt lat="57.429283987730742" lon="-6.610852964222431">
        <ele>30.899999999999999</ele>
        <time>2023-08-26T15:52:12Z</time>
      </trkpt>
      <trkpt lat="57.429342996329069" lon="-6.610466977581382">
        <ele>32.340000000000003</ele>
        <time>2023-08-26T15:52:14Z</time>
      </trkpt>
      <trkpt lat="57.429369986057281" lon="-6.610284000635147">
        <ele>32.340000000000003</ele>
        <time>2023-08-26T15:52:15Z</time>
      </trkpt>
      <trkpt lat="57.42936403490603" lon="-6.61009700037539">
        <ele>32.82</ele>
        <time>2023-08-26T15:52:16Z</time>
      </trkpt>
      <trkpt lat="57.429340984672308" lon="-6.609888039529324">
        <ele>32.82</ele>
        <time>2023-08-26T15:52:17Z</time>
      </trkpt>
      <trkpt lat="57.429295973852277" lon="-6.609672959893942">
        <ele>32.82</ele>
        <time>2023-08-26T15:52:18Z</time>
      </trkpt>
      <trkpt lat="57.429243000224233" lon="-6.609446983784437">
        <ele>32.82</ele>
        <time>2023-08-26T15:52:19Z</time>
      </trkpt>
      <trkpt lat="57.429187009111047" lon="-6.609211033210158">
        <ele>32.82</ele>
        <time>2023-08-26T15:52:20Z</time>
      </trkpt>
      <trkpt lat="57.429115008562803" lon="-6.608993019908667">
        <ele>32.82</ele>
        <time>2023-08-26T15:52:21Z</time>
      </trkpt>
      <trkpt lat="57.429028004407883" lon="-6.608778024092317">
        <ele>32.82</ele>
        <time>2023-08-26T15:52:22Z</time>
      </trkpt>
      <trkpt lat="57.42893798276782" lon="-6.608554981648922">
        <ele>33.299999999999997</ele>
        <time>2023-08-26T15:52:23Z</time>
      </trkpt>
      <trkpt lat="57.428758023306727" lon="-6.608092971146107">
        <ele>33.299999999999997</ele>
        <time>2023-08-26T15:52:25Z</time>
      </trkpt>
      <trkpt lat="57.428677976131439" lon="-6.607866995036602">
        <ele>33.299999999999997</ele>
        <time>2023-08-26T15:52:26Z</time>
      </trkpt>
      <trkpt lat="57.428531963378191" lon="-6.607451001182199">
        <ele>33.299999999999997</ele>
        <time>2023-08-26T15:52:28Z</time>
      </trkpt>
      <trkpt lat="57.428443031385541" lon="-6.607305994257331">
        <ele>33.299999999999997</ele>
        <time>2023-08-26T15:52:29Z</time>
      </trkpt>
      <trkpt lat="57.428341023623943" lon="-6.607157969847322">
        <ele>33.780000000000001</ele>
        <time>2023-08-26T15:52:30Z</time>
      </trkpt>
      <trkpt lat="57.428239015862346" lon="-6.607010029256344">
        <ele>33.780000000000001</ele>
        <time>2023-08-26T15:52:31Z</time>
      </trkpt>
      <trkpt lat="57.428137008100748" lon="-6.606862004846335">
        <ele>34.259999999999998</ele>
        <time>2023-08-26T15:52:32Z</time>
      </trkpt>
      <trkpt lat="57.428052015602589" lon="-6.606668969616294">
        <ele>34.740000000000002</ele>
        <time>2023-08-26T15:52:33Z</time>
      </trkpt>
      <trkpt lat="57.427984038367867" lon="-6.606450034305453">
        <ele>34.740000000000002</ele>
        <time>2023-08-26T15:52:34Z</time>
      </trkpt>
      <trkpt lat="57.427643984556198" lon="-6.605354016646743">
        <ele>34.740000000000002</ele>
        <time>2023-08-26T15:52:40Z</time>
      </trkpt>
      <trkpt lat="57.427485985681415" lon="-6.604976998642087">
        <ele>34.740000000000002</ele>
        <time>2023-08-26T15:52:41Z</time>
      </trkpt>
      <trkpt lat="57.427051970735192" lon="-6.60401601344347">
        <ele>34.740000000000002</ele>
        <time>2023-08-26T15:52:46Z</time>
      </trkpt>
      <trkpt lat="57.426992962136865" lon="-6.603851979598403">
        <ele>34.740000000000002</ele>
        <time>2023-08-26T15:52:47Z</time>
      </trkpt>
      <trkpt lat="57.426940994337201" lon="-6.603667996823788">
        <ele>34.740000000000002</ele>
        <time>2023-08-26T15:52:48Z</time>
      </trkpt>
      <trkpt lat="57.426691967993975" lon="-6.602778006345034">
        <ele>33.780000000000001</ele>
        <time>2023-08-26T15:52:52Z</time>
      </trkpt>
      <trkpt lat="57.426604963839054" lon="-6.602554963901639">
        <ele>33.780000000000001</ele>
        <time>2023-08-26T15:52:53Z</time>
      </trkpt>
      <trkpt lat="57.425731988623738" lon="-6.60068403929472">
        <ele>32.82</ele>
        <time>2023-08-26T15:53:02Z</time>
      </trkpt>
      <trkpt lat="57.425523027777672" lon="-6.600281037390232">
        <ele>32.82</ele>
        <time>2023-08-26T15:53:04Z</time>
      </trkpt>
      <trkpt lat="57.425463013350964" lon="-6.60004299134016">
        <ele>32.82</ele>
        <time>2023-08-26T15:53:05Z</time>
      </trkpt>
      <trkpt lat="57.425401993095875" lon="-6.59980502910912">
        <ele>32.340000000000003</ele>
        <time>2023-08-26T15:53:06Z</time>
      </trkpt>
      <trkpt lat="57.425280036404729" lon="-6.599329020828009">
        <ele>32.340000000000003</ele>
        <time>2023-08-26T15:53:08Z</time>
      </trkpt>
      <trkpt lat="57.425188003107905" lon="-6.599129028618336">
        <ele>31.859999999999999</ele>
        <time>2023-08-26T15:53:09Z</time>
      </trkpt>
      <trkpt lat="57.425096975639462" lon="-6.598931970074773">
        <ele>31.859999999999999</ele>
        <time>2023-08-26T15:53:10Z</time>
      </trkpt>
      <trkpt lat="57.424647035077214" lon="-6.597698992118239">
        <ele>29.940000000000001</ele>
        <time>2023-08-26T15:53:16Z</time>
      </trkpt>
      <trkpt lat="57.424590038135648" lon="-6.597475027665496">
        <ele>29.460000000000001</ele>
        <time>2023-08-26T15:53:17Z</time>
      </trkpt>
      <trkpt lat="57.42453102953732" lon="-6.597247961908579">
        <ele>28.5</ele>
        <time>2023-08-26T15:53:18Z</time>
      </trkpt>
      <trkpt lat="57.423867015168071" lon="-6.59529103897512">
        <ele>22.73</ele>
        <time>2023-08-26T15:53:26Z</time>
      </trkpt>
      <trkpt lat="57.422784995287657" lon="-6.5927570220083">
        <ele>15.039999999999999</ele>
        <time>2023-08-26T15:53:36Z</time>
      </trkpt>
      <trkpt lat="57.421841025352478" lon="-6.589551027864218">
        <ele>9.27</ele>
        <time>2023-08-26T15:53:47Z</time>
      </trkpt>
      <trkpt lat="57.420989004895091" lon="-6.586768990382552">
        <ele>9.27</ele>
        <time>2023-08-26T15:53:57Z</time>
      </trkpt>
      <trkpt lat="57.420768979936838" lon="-6.586095001548529">
        <ele>8.789999999999999</ele>
        <time>2023-08-26T15:54:00Z</time>
      </trkpt>
      <trkpt lat="57.420738972723484" lon="-6.585849998518825">
        <ele>7.83</ele>
        <time>2023-08-26T15:54:01Z</time>
      </trkpt>
      <trkpt lat="57.420721035450697" lon="-6.585600972175598">
        <ele>7.35</ele>
        <time>2023-08-26T15:54:02Z</time>
      </trkpt>
      <trkpt lat="57.420713994652033" lon="-6.585369966924191">
        <ele>6.87</ele>
        <time>2023-08-26T15:54:03Z</time>
      </trkpt>
      <trkpt lat="57.420727992430329" lon="-6.585137033835053">
        <ele>6.39</ele>
        <time>2023-08-26T15:54:04Z</time>
      </trkpt>
      <trkpt lat="57.420741990208626" lon="-6.58491600304842">
        <ele>6.87</ele>
        <time>2023-08-26T15:54:05Z</time>
      </trkpt>
      <trkpt lat="57.420759005472064" lon="-6.584711987525225">
        <ele>7.35</ele>
        <time>2023-08-26T15:54:06Z</time>
      </trkpt>
      <trkpt lat="57.420817008242011" lon="-6.584479976445437">
        <ele>7.35</ele>
        <time>2023-08-26T15:54:07Z</time>
      </trkpt>
      <trkpt lat="57.420864030718803" lon="-6.584388026967645">
        <ele>7.83</ele>
        <time>2023-08-26T15:54:08Z</time>
      </trkpt>
      <trkpt lat="57.42092496715486" lon="-6.584269003942609">
        <ele>7.83</ele>
        <time>2023-08-26T15:54:09Z</time>
      </trkpt>
      <trkpt lat="57.421123031526804" lon="-6.583885028958321">
        <ele>9.27</ele>
        <time>2023-08-26T15:54:12Z</time>
      </trkpt>
      <trkpt lat="57.421195032075047" lon="-6.583743039518595">
        <ele>9.27</ele>
        <time>2023-08-26T15:54:13Z</time>
      </trkpt>
      <trkpt lat="57.421248005703092" lon="-6.583545980975032">
        <ele>8.789999999999999</ele>
        <time>2023-08-26T15:54:14Z</time>
      </trkpt>
      <trkpt lat="57.421285975724459" lon="-6.583318999037147">
        <ele>9.27</ele>
        <time>2023-08-26T15:54:15Z</time>
      </trkpt>
      <trkpt lat="57.4213080201298" lon="-6.583055974915624">
        <ele>8.789999999999999</ele>
        <time>2023-08-26T15:54:16Z</time>
      </trkpt>
      <trkpt lat="57.421300979331136" lon="-6.582786999642849">
        <ele>8.789999999999999</ele>
        <time>2023-08-26T15:54:17Z</time>
      </trkpt>
      <trkpt lat="57.421293016523123" lon="-6.582493968307972">
        <ele>8.789999999999999</ele>
        <time>2023-08-26T15:54:18Z</time>
      </trkpt>
      <trkpt lat="57.421483034268022" lon="-6.579985013231635">
        <ele>6.39</ele>
        <time>2023-08-26T15:54:26Z</time>
      </trkpt>
      <trkpt lat="57.421466019004583" lon="-6.578462021425366">
        <ele>9.75</ele>
        <time>2023-08-26T15:54:31Z</time>
      </trkpt>
      <trkpt lat="57.421413967385888" lon="-6.578225987032056">
        <ele>10.710000000000001</ele>
        <time>2023-08-26T15:54:32Z</time>
      </trkpt>
      <trkpt lat="57.421356970444322" lon="-6.578006967902184">
        <ele>11.67</ele>
        <time>2023-08-26T15:54:33Z</time>
      </trkpt>
      <trkpt lat="57.421301985159516" lon="-6.577784009277821">
        <ele>12.630000000000001</ele>
        <time>2023-08-26T15:54:34Z</time>
      </trkpt>
      <trkpt lat="57.421258985996246" lon="-6.577558033168316">
        <ele>14.08</ele>
        <time>2023-08-26T15:54:35Z</time>
      </trkpt>
      <trkpt lat="57.421214981004596" lon="-6.57733297906816">
        <ele>15.52</ele>
        <time>2023-08-26T15:54:36Z</time>
      </trkpt>
      <trkpt lat="57.42120299488306" lon="-6.577080013230443">
        <ele>16.48</ele>
        <time>2023-08-26T15:54:37Z</time>
      </trkpt>
      <trkpt lat="57.42120299488306" lon="-6.576821012422442">
        <ele>17.920000000000002</ele>
        <time>2023-08-26T15:54:38Z</time>
      </trkpt>
      <trkpt lat="57.42120299488306" lon="-6.576550025492907">
        <ele>18.879999999999999</ele>
        <time>2023-08-26T15:54:39Z</time>
      </trkpt>
      <trkpt lat="57.421335009858012" lon="-6.574965007603169">
        <ele>23.210000000000001</ele>
        <time>2023-08-26T15:54:45Z</time>
      </trkpt>
      <trkpt lat="57.421398963779211" lon="-6.574716987088323">
        <ele>23.690000000000001</ele>
        <time>2023-08-26T15:54:46Z</time>
      </trkpt>
      <trkpt lat="57.421568026766181" lon="-6.574050961062312">
        <ele>25.129999999999999</ele>
        <time>2023-08-26T15:54:49Z</time>
      </trkpt>
      <trkpt lat="57.421591999009252" lon="-6.573811993002892">
        <ele>25.609999999999999</ele>
        <time>2023-08-26T15:54:50Z</time>
      </trkpt>
      <trkpt lat="57.421602979302406" lon="-6.573581993579865">
        <ele>25.609999999999999</ele>
        <time>2023-08-26T15:54:51Z</time>
      </trkpt>
      <trkpt lat="57.421558974310756" lon="-6.573362974449992">
        <ele>26.09</ele>
        <time>2023-08-26T15:54:52Z</time>
      </trkpt>
      <trkpt lat="57.421512035652995" lon="-6.573125012218952">
        <ele>26.57</ele>
        <time>2023-08-26T15:54:53Z</time>
      </trkpt>
      <trkpt lat="57.421461995691061" lon="-6.572870034724474">
        <ele>26.57</ele>
        <time>2023-08-26T15:54:54Z</time>
      </trkpt>
      <trkpt lat="57.420955980196595" lon="-6.570135019719601">
        <ele>28.02</ele>
        <time>2023-08-26T15:55:03Z</time>
      </trkpt>
      <trkpt lat="57.420460022985935" lon="-6.566356038674712">
        <ele>28.02</ele>
        <time>2023-08-26T15:55:15Z</time>
      </trkpt>
      <trkpt lat="57.420280985534191" lon="-6.564511014148593">
        <ele>28.5</ele>
        <time>2023-08-26T15:55:23Z</time>
      </trkpt>
      <trkpt lat="57.420280985534191" lon="-6.564387967810035">
        <ele>28.02</ele>
        <time>2023-08-26T15:55:24Z</time>
      </trkpt>
      <trkpt lat="57.420280985534191" lon="-6.564282020553947">
        <ele>28.5</ele>
        <time>2023-08-26T15:55:25Z</time>
      </trkpt>
      <trkpt lat="57.420280985534191" lon="-6.564185963943601">
        <ele>28.5</ele>
        <time>2023-08-26T15:55:26Z</time>
      </trkpt>
      <trkpt lat="57.420288026332855" lon="-6.564097031950951">
        <ele>28.5</ele>
        <time>2023-08-26T15:55:27Z</time>
      </trkpt>
      <trkpt lat="57.420313004404306" lon="-6.564028970897198">
        <ele>28.5</ele>
        <time>2023-08-26T15:55:28Z</time>
      </trkpt>
      <trkpt lat="57.420327002182603" lon="-6.563994018360972">
        <ele>28.5</ele>
        <time>2023-08-26T15:55:29Z</time>
      </trkpt>
      <trkpt lat="57.420391961932182" lon="-6.563885975629091">
        <ele>28.5</ele>
        <time>2023-08-26T15:55:35Z</time>
      </trkpt>
      <trkpt lat="57.420448958873749" lon="-6.563813975080848">
        <ele>28.5</ele>
        <time>2023-08-26T15:55:36Z</time>
      </trkpt>
      <trkpt lat="57.421128982678056" lon="-6.562907975167036">
        <ele>26.09</ele>
        <time>2023-08-26T15:55:43Z</time>
      </trkpt>
      <trkpt lat="57.42240303196013" lon="-6.561091030016542">
        <ele>22.73</ele>
        <time>2023-08-26T15:55:53Z</time>
      </trkpt>
      <trkpt lat="57.423089006915689" lon="-6.560113029554486">
        <ele>23.690000000000001</ele>
        <time>2023-08-26T15:56:01Z</time>
      </trkpt>
      <trkpt lat="57.423222027719021" lon="-6.559923011809588">
        <ele>24.649999999999999</ele>
        <time>2023-08-26T15:56:08Z</time>
      </trkpt>
      <trkpt lat="57.423237031325698" lon="-6.559901973232627">
        <ele>24.649999999999999</ele>
        <time>2023-08-26T15:56:14Z</time>
      </trkpt>
      <trkpt lat="57.423472981899977" lon="-6.559565020725131">
        <ele>25.129999999999999</ele>
        <time>2023-08-26T15:56:19Z</time>
      </trkpt>
      <trkpt lat="57.424371019005775" lon="-6.558285020291805">
        <ele>26.09</ele>
        <time>2023-08-26T15:56:30Z</time>
      </trkpt>
      <trkpt lat="57.425050958991051" lon="-6.557203000411391">
        <ele>29.940000000000001</ele>
        <time>2023-08-26T15:56:40Z</time>
      </trkpt>
      <trkpt lat="57.425718996673822" lon="-6.555672967806459">
        <ele>30.899999999999999</ele>
        <time>2023-08-26T15:56:50Z</time>
      </trkpt>
      <trkpt lat="57.425967017188668" lon="-6.555061005055904">
        <ele>30.420000000000002</ele>
        <time>2023-08-26T15:56:55Z</time>
      </trkpt>
      <trkpt lat="57.426024014130235" lon="-6.554995961487293">
        <ele>30.899999999999999</ele>
        <time>2023-08-26T15:56:56Z</time>
      </trkpt>
      <trkpt lat="57.426073970273137" lon="-6.554937036707997">
        <ele>30.899999999999999</ele>
        <time>2023-08-26T15:56:57Z</time>
      </trkpt>
      <trkpt lat="57.426115963608027" lon="-6.554889008402824">
        <ele>30.899999999999999</ele>
        <time>2023-08-26T15:56:58Z</time>
      </trkpt>
      <trkpt lat="57.426146976649761" lon="-6.554853972047567">
        <ele>30.899999999999999</ele>
        <time>2023-08-26T15:56:59Z</time>
      </trkpt>
      <trkpt lat="57.426245966926217" lon="-6.554739978164434">
        <ele>30.899999999999999</ele>
        <time>2023-08-26T15:57:03Z</time>
      </trkpt>
      <trkpt lat="57.426230041310191" lon="-6.554650962352753">
        <ele>30.899999999999999</ele>
        <time>2023-08-26T15:57:04Z</time>
      </trkpt>
      <trkpt lat="57.426204979419708" lon="-6.554518025368452">
        <ele>30.899999999999999</ele>
        <time>2023-08-26T15:57:05Z</time>
      </trkpt>
      <trkpt lat="57.426173966377974" lon="-6.554350974038243">
        <ele>30.899999999999999</ele>
        <time>2023-08-26T15:57:06Z</time>
      </trkpt>
      <trkpt lat="57.426139013841748" lon="-6.554158022627235">
        <ele>30.899999999999999</ele>
        <time>2023-08-26T15:57:07Z</time>
      </trkpt>
      <trkpt lat="57.425718996673822" lon="-6.552181988954544">
        <ele>33.299999999999997</ele>
        <time>2023-08-26T15:57:15Z</time>
      </trkpt>
      <trkpt lat="57.424968983978033" lon="-6.54924999922514">
        <ele>39.07</ele>
        <time>2023-08-26T15:57:25Z</time>
      </trkpt>
      <trkpt lat="57.423808006569743" lon="-6.545187039300799">
        <ele>39.07</ele>
        <time>2023-08-26T15:57:37Z</time>
      </trkpt>
      <trkpt lat="57.42266396060586" lon="-6.541696982458234">
        <ele>38.109999999999999</ele>
        <time>2023-08-26T15:57:48Z</time>
      </trkpt>
      <trkpt lat="57.421522010117769" lon="-6.539972992613912">
        <ele>38.109999999999999</ele>
        <time>2023-08-26T15:57:55Z</time>
      </trkpt>
      <trkpt lat="57.42010697722435" lon="-6.539107980206609">
        <ele>35.229999999999997</ele>
        <time>2023-08-26T15:58:02Z</time>
      </trkpt>
      <trkpt lat="57.417773958295584" lon="-6.538623003289104">
        <ele>28.98</ele>
        <time>2023-08-26T15:58:13Z</time>
      </trkpt>
      <trkpt lat="57.416212996467948" lon="-6.538269035518169">
        <ele>25.129999999999999</ele>
        <time>2023-08-26T15:58:21Z</time>
      </trkpt>
      <trkpt lat="57.414852026849985" lon="-6.537016024813056">
        <ele>22.73</ele>
        <time>2023-08-26T15:58:29Z</time>
      </trkpt>
      <trkpt lat="57.414754964411259" lon="-6.536821983754635">
        <ele>22.73</ele>
        <time>2023-08-26T15:58:30Z</time>
      </trkpt>
      <trkpt lat="57.414653962478042" lon="-6.53661897405982">
        <ele>22.25</ele>
        <time>2023-08-26T15:58:31Z</time>
      </trkpt>
      <trkpt lat="57.414551032707095" lon="-6.536413030698896">
        <ele>21.289999999999999</ele>
        <time>2023-08-26T15:58:32Z</time>
      </trkpt>
      <trkpt lat="57.414443995803595" lon="-6.536199040710926">
        <ele>20.809999999999999</ele>
        <time>2023-08-26T15:58:33Z</time>
      </trkpt>
      <trkpt lat="57.413404975086451" lon="-6.533723026514053">
        <ele>15.52</ele>
        <time>2023-08-26T15:58:42Z</time>
      </trkpt>
      <trkpt lat="57.412749007344246" lon="-6.532036000862718">
        <ele>16.48</ele>
        <time>2023-08-26T15:58:48Z</time>
      </trkpt>
      <trkpt lat="57.412689998745918" lon="-6.531769959256053">
        <ele>16.48</ele>
        <time>2023-08-26T15:58:49Z</time>
      </trkpt>
      <trkpt lat="57.412663009017706" lon="-6.531485980376601">
        <ele>16.960000000000001</ele>
        <time>2023-08-26T15:58:50Z</time>
      </trkpt>
      <trkpt lat="57.412663009017706" lon="-6.531208958476782">
        <ele>16.960000000000001</ele>
        <time>2023-08-26T15:58:51Z</time>
      </trkpt>
      <trkpt lat="57.412678012624383" lon="-6.530932020395994">
        <ele>17.440000000000001</ele>
        <time>2023-08-26T15:58:52Z</time>
      </trkpt>
      <trkpt lat="57.412728974595666" lon="-6.530668996274471">
        <ele>17.920000000000002</ele>
        <time>2023-08-26T15:58:53Z</time>
      </trkpt>
      <trkpt lat="57.412780020385981" lon="-6.530404966324568">
        <ele>17.920000000000002</ele>
        <time>2023-08-26T15:58:54Z</time>
      </trkpt>
      <trkpt lat="57.412878004834056" lon="-6.530184019356966">
        <ele>18.399999999999999</ele>
        <time>2023-08-26T15:58:55Z</time>
      </trkpt>
      <trkpt lat="57.412984035909176" lon="-6.529986960813403">
        <ele>18.879999999999999</ele>
        <time>2023-08-26T15:58:56Z</time>
      </trkpt>
      <trkpt lat="57.41310004144907" lon="-6.529798032715917">
        <ele>18.879999999999999</ele>
        <time>2023-08-26T15:58:57Z</time>
      </trkpt>
      <trkpt lat="57.413241025060415" lon="-6.52965696528554">
        <ele>19.359999999999999</ele>
        <time>2023-08-26T15:58:58Z</time>
      </trkpt>
      <trkpt lat="57.413385026156902" lon="-6.529512964189053">
        <ele>19.84</ele>
        <time>2023-08-26T15:58:59Z</time>
      </trkpt>
      <trkpt lat="57.41396295838058" lon="-6.528821038082242">
        <ele>20.809999999999999</ele>
        <time>2023-08-26T15:59:03Z</time>
      </trkpt>
      <trkpt lat="57.41409002803266" lon="-6.528614005073905">
        <ele>21.289999999999999</ele>
        <time>2023-08-26T15:59:04Z</time>
      </trkpt>
      <trkpt lat="57.414188012480736" lon="-6.5283880289644">
        <ele>21.77</ele>
        <time>2023-08-26T15:59:05Z</time>
      </trkpt>
      <trkpt lat="57.414277028292418" lon="-6.528156017884612">
        <ele>22.25</ele>
        <time>2023-08-26T15:59:06Z</time>
      </trkpt>
      <trkpt lat="57.414334025233984" lon="-6.527923000976443">
        <ele>22.73</ele>
        <time>2023-08-26T15:59:07Z</time>
      </trkpt>
      <trkpt lat="57.414386998862028" lon="-6.527677997946739">
        <ele>23.210000000000001</ele>
        <time>2023-08-26T15:59:08Z</time>
      </trkpt>
      <trkpt lat="57.414429998025298" lon="-6.527426037937403">
        <ele>24.170000000000002</ele>
        <time>2023-08-26T15:59:09Z</time>
      </trkpt>
      <trkpt lat="57.414453970268369" lon="-6.527153961360455">
        <ele>24.649999999999999</ele>
        <time>2023-08-26T15:59:10Z</time>
      </trkpt>
      <trkpt lat="57.414479032158852" lon="-6.526869982481003">
        <ele>25.609999999999999</ele>
        <time>2023-08-26T15:59:11Z</time>
      </trkpt>
      <trkpt lat="57.414468973875046" lon="-6.526567982509732">
        <ele>27.050000000000001</ele>
        <time>2023-08-26T15:59:12Z</time>
      </trkpt>
      <trkpt lat="57.414442989975214" lon="-6.526261037215591">
        <ele>28.02</ele>
        <time>2023-08-26T15:59:13Z</time>
      </trkpt>
      <trkpt lat="57.414416000247002" lon="-6.525941016152501">
        <ele>28.98</ele>
        <time>2023-08-26T15:59:14Z</time>
      </trkpt>
      <trkpt lat="57.414381969720125" lon="-6.525614960119128">
        <ele>30.420000000000002</ele>
        <time>2023-08-26T15:59:15Z</time>
      </trkpt>
      <trkpt lat="57.413731031119823" lon="-6.520524965599179">
        <ele>45.799999999999997</ele>
        <time>2023-08-26T15:59:31Z</time>
      </trkpt>
      <trkpt lat="57.413220992311835" lon="-6.518663009628654">
        <ele>48.200000000000003</ele>
        <time>2023-08-26T15:59:37Z</time>
      </trkpt>
      <trkpt lat="57.413081014528871" lon="-6.518374001607299">
        <ele>48.68</ele>
        <time>2023-08-26T15:59:38Z</time>
      </trkpt>
      <trkpt lat="57.412928966805339" lon="-6.518089016899467">
        <ele>48.68</ele>
        <time>2023-08-26T15:59:39Z</time>
      </trkpt>
      <trkpt lat="57.411182010546327" lon="-6.51541200466454">
        <ele>55.890000000000001</ele>
        <time>2023-08-26T15:59:49Z</time>
      </trkpt>
      <trkpt lat="57.410325966775417" lon="-6.513721039518714">
        <ele>57.82</ele>
        <time>2023-08-26T15:59:56Z</time>
      </trkpt>
      <trkpt lat="57.409755997359753" lon="-6.511598993092775">
        <ele>58.299999999999997</ele>
        <time>2023-08-26T16:00:03Z</time>
      </trkpt>
      <trkpt lat="57.40916901268065" lon="-6.508489977568388">
        <ele>60.219999999999999</ele>
        <time>2023-08-26T16:00:12Z</time>
      </trkpt>
      <trkpt lat="57.409070022404194" lon="-6.505729984492064">
        <ele>57.340000000000003</ele>
        <time>2023-08-26T16:00:20Z</time>
      </trkpt>
      <trkpt lat="57.408926021307707" lon="-6.504694987088442">
        <ele>54.93</ele>
        <time>2023-08-26T16:00:23Z</time>
      </trkpt>
      <trkpt lat="57.408838011324406" lon="-6.504374966025353">
        <ele>53.969999999999999</ele>
        <time>2023-08-26T16:00:24Z</time>
      </trkpt>
      <trkpt lat="57.408751007169485" lon="-6.504057962447405">
        <ele>53.490000000000002</ele>
        <time>2023-08-26T16:00:25Z</time>
      </trkpt>
      <trkpt lat="57.408666014671326" lon="-6.503749005496502">
        <ele>53.009999999999998</ele>
        <time>2023-08-26T16:00:27Z</time>
      </trkpt>
      <trkpt lat="57.407047972083092" lon="-6.499857036396861">
        <ele>50.130000000000003</ele>
        <time>2023-08-26T16:00:40Z</time>
      </trkpt>
      <trkpt lat="57.405869979411364" lon="-6.497937999665737">
        <ele>38.109999999999999</ele>
        <time>2023-08-26T16:00:49Z</time>
      </trkpt>
      <trkpt lat="57.405231026932597" lon="-6.497225034981966">
        <ele>30.420000000000002</ele>
        <time>2023-08-26T16:00:53Z</time>
      </trkpt>
      <trkpt lat="57.4051099922508" lon="-6.497018001973629">
        <ele>28.5</ele>
        <time>2023-08-26T16:00:54Z</time>
      </trkpt>
      <trkpt lat="57.405006978660822" lon="-6.49676101282239">
        <ele>26.57</ele>
        <time>2023-08-26T16:00:55Z</time>
      </trkpt>
      <trkpt lat="57.404922991991043" lon="-6.496509974822402">
        <ele>25.129999999999999</ele>
        <time>2023-08-26T16:00:56Z</time>
      </trkpt>
      <trkpt lat="57.404869012534618" lon="-6.496228007599711">
        <ele>23.210000000000001</ele>
        <time>2023-08-26T16:00:57Z</time>
      </trkpt>
      <trkpt lat="57.40482903085649" lon="-6.495937993749976">
        <ele>21.77</ele>
        <time>2023-08-26T16:00:58Z</time>
      </trkpt>
      <trkpt lat="57.404819978401065" lon="-6.495615961030126">
        <ele>19.84</ele>
        <time>2023-08-26T16:00:59Z</time>
      </trkpt>
      <trkpt lat="57.404810003936291" lon="-6.495276996865869">
        <ele>18.399999999999999</ele>
        <time>2023-08-26T16:01:00Z</time>
      </trkpt>
      <trkpt lat="57.404820984229445" lon="-6.494927974417806">
        <ele>16.48</ele>
        <time>2023-08-26T16:01:01Z</time>
      </trkpt>
      <trkpt lat="57.404833976179361" lon="-6.494564032182097">
        <ele>15.039999999999999</ele>
        <time>2023-08-26T16:01:02Z</time>
      </trkpt>
      <trkpt lat="57.404962973669171" lon="-6.490911031141877">
        <ele>12.15</ele>
        <time>2023-08-26T16:01:12Z</time>
      </trkpt>
      <trkpt lat="57.404968002811074" lon="-6.490262020379305">
        <ele>14.56</ele>
        <time>2023-08-26T16:01:14Z</time>
      </trkpt>
      <trkpt lat="57.404932966455817" lon="-6.489940993487835">
        <ele>15.52</ele>
        <time>2023-08-26T16:01:15Z</time>
      </trkpt>
      <trkpt lat="57.40489499643445" lon="-6.489593982696533">
        <ele>16.48</ele>
        <time>2023-08-26T16:01:16Z</time>
      </trkpt>
      <trkpt lat="57.404827019199729" lon="-6.489312015473843">
        <ele>16.960000000000001</ele>
        <time>2023-08-26T16:01:17Z</time>
      </trkpt>
      <trkpt lat="57.40474496036768" lon="-6.488971961662173">
        <ele>17.920000000000002</ele>
        <time>2023-08-26T16:01:18Z</time>
      </trkpt>
      <trkpt lat="57.404641024768353" lon="-6.488741962239146">
        <ele>18.399999999999999</ele>
        <time>2023-08-26T16:01:19Z</time>
      </trkpt>
      <trkpt lat="57.40453097037971" lon="-6.488499976694584">
        <ele>18.879999999999999</ele>
        <time>2023-08-26T16:01:20Z</time>
      </trkpt>
      <trkpt lat="57.404384035617113" lon="-6.488274000585079">
        <ele>19.359999999999999</ele>
        <time>2023-08-26T16:01:21Z</time>
      </trkpt>
      <trkpt lat="57.404252020642161" lon="-6.488070990890265">
        <ele>19.84</ele>
        <time>2023-08-26T16:01:22Z</time>
      </trkpt>
      <trkpt lat="57.404076000675559" lon="-6.487961020320654">
        <ele>20.32</ele>
        <time>2023-08-26T16:01:23Z</time>
      </trkpt>
      <trkpt lat="57.403911966830492" lon="-6.487859012559056">
        <ele>20.32</ele>
        <time>2023-08-26T16:01:24Z</time>
      </trkpt>
      <trkpt lat="57.403737036511302" lon="-6.487748958170414">
        <ele>20.32</ele>
        <time>2023-08-26T16:01:25Z</time>
      </trkpt>
      <trkpt lat="57.402072977274656" lon="-6.487304968759418">
        <ele>22.25</ele>
        <time>2023-08-26T16:01:34Z</time>
      </trkpt>
      <trkpt lat="57.399536026641726" lon="-6.486185984686017">
        <ele>25.129999999999999</ele>
        <time>2023-08-26T16:01:47Z</time>
      </trkpt>
      <trkpt lat="57.399376016110182" lon="-6.486013988032937">
        <ele>25.129999999999999</ele>
        <time>2023-08-26T16:01:48Z</time>
      </trkpt>
      <trkpt lat="57.399227991700172" lon="-6.485810978338122">
        <ele>25.609999999999999</ele>
        <time>2023-08-26T16:01:49Z</time>
      </trkpt>
      <trkpt lat="57.399079967290163" lon="-6.485606962814927">
        <ele>25.609999999999999</ele>
        <time>2023-08-26T16:01:50Z</time>
      </trkpt>
      <trkpt lat="57.398939989507198" lon="-6.485399007797241">
        <ele>26.09</ele>
        <time>2023-08-26T16:01:51Z</time>
      </trkpt>
      <trkpt lat="57.398832030594349" lon="-6.485117040574551">
        <ele>26.09</ele>
        <time>2023-08-26T16:01:52Z</time>
      </trkpt>
      <trkpt lat="57.398722982034087" lon="-6.484829960390925">
        <ele>26.09</ele>
        <time>2023-08-26T16:01:53Z</time>
      </trkpt>
      <trkpt lat="57.398614017292857" lon="-6.484541958197951">
        <ele>26.09</ele>
        <time>2023-08-26T16:01:54Z</time>
      </trkpt>
      <trkpt lat="57.397213988006115" lon="-6.480521997436881">
        <ele>18.399999999999999</ele>
        <time>2023-08-26T16:02:08Z</time>
      </trkpt>
      <trkpt lat="57.397100999951363" lon="-6.48030498996377">
        <ele>17.440000000000001</ele>
        <time>2023-08-26T16:02:09Z</time>
      </trkpt>
      <trkpt lat="57.396998992189765" lon="-6.480110026896">
        <ele>16.960000000000001</ele>
        <time>2023-08-26T16:02:10Z</time>
      </trkpt>
      <trkpt lat="57.396850967779756" lon="-6.479944987222552">
        <ele>16.48</ele>
        <time>2023-08-26T16:02:11Z</time>
      </trkpt>
      <trkpt lat="57.396704033017159" lon="-6.479841973632574">
        <ele>16</ele>
        <time>2023-08-26T16:02:12Z</time>
      </trkpt>
      <trkpt lat="57.396545028313994" lon="-6.479758992791176">
        <ele>15.52</ele>
        <time>2023-08-26T16:02:13Z</time>
      </trkpt>
      <trkpt lat="57.396382000297308" lon="-6.479672994464636">
        <ele>15.52</ele>
        <time>2023-08-26T16:02:14Z</time>
      </trkpt>
      <trkpt lat="57.396218972280622" lon="-6.479641981422901">
        <ele>15.52</ele>
        <time>2023-08-26T16:02:15Z</time>
      </trkpt>
      <trkpt lat="57.396061979234219" lon="-6.47968296892941">
        <ele>15.52</ele>
        <time>2023-08-26T16:02:16Z</time>
      </trkpt>
      <trkpt lat="57.395898029208183" lon="-6.479743989184499">
        <ele>16</ele>
        <time>2023-08-26T16:02:17Z</time>
      </trkpt>
      <trkpt lat="57.395748998969793" lon="-6.479839961975813">
        <ele>16.48</ele>
        <time>2023-08-26T16:02:18Z</time>
      </trkpt>
      <trkpt lat="57.395594017580152" lon="-6.479963008314371">
        <ele>16.960000000000001</ele>
        <time>2023-08-26T16:02:19Z</time>
      </trkpt>
      <trkpt lat="57.395448004826903" lon="-6.480115978047252">
        <ele>17.440000000000001</ele>
        <time>2023-08-26T16:02:20Z</time>
      </trkpt>
      <trkpt lat="57.395305009558797" lon="-6.480303984135389">
        <ele>18.399999999999999</ele>
        <time>2023-08-26T16:02:21Z</time>
      </trkpt>
      <trkpt lat="57.394096003845334" lon="-6.48155003786087">
        <ele>25.129999999999999</ele>
        <time>2023-08-26T16:02:29Z</time>
      </trkpt>
      <trkpt lat="57.393244989216328" lon="-6.481779031455517">
        <ele>28.98</ele>
        <time>2023-08-26T16:02:34Z</time>
      </trkpt>
      <trkpt lat="57.393076010048389" lon="-6.48176503367722">
        <ele>29.460000000000001</ele>
        <time>2023-08-26T16:02:35Z</time>
      </trkpt>
      <trkpt lat="57.391067035496235" lon="-6.481146030128002">
        <ele>33.299999999999997</ele>
        <time>2023-08-26T16:02:46Z</time>
      </trkpt>
      <trkpt lat="57.389630964025855" lon="-6.48116203956306">
        <ele>34.259999999999998</ele>
        <time>2023-08-26T16:02:53Z</time>
      </trkpt>
      <trkpt lat="57.388198999688029" lon="-6.481654979288578">
        <ele>34.259999999999998</ele>
        <time>2023-08-26T16:03:01Z</time>
      </trkpt>
      <trkpt lat="57.387830028310418" lon="-6.481605023145676">
        <ele>33.780000000000001</ele>
        <time>2023-08-26T16:03:03Z</time>
      </trkpt>
      <trkpt lat="57.387640010565519" lon="-6.481545008718967">
        <ele>33.780000000000001</ele>
        <time>2023-08-26T16:03:04Z</time>
      </trkpt>
      <trkpt lat="57.387452004477382" lon="-6.481438977643848">
        <ele>33.780000000000001</ele>
        <time>2023-08-26T16:03:05Z</time>
      </trkpt>
      <trkpt lat="57.387266010046005" lon="-6.481311991810799">
        <ele>33.780000000000001</ele>
        <time>2023-08-26T16:03:06Z</time>
      </trkpt>
      <trkpt lat="57.3870849609375" lon="-6.481160027906299">
        <ele>34.259999999999998</ele>
        <time>2023-08-26T16:03:07Z</time>
      </trkpt>
      <trkpt lat="57.386911036446691" lon="-6.480986019596458">
        <ele>34.740000000000002</ele>
        <time>2023-08-26T16:03:08Z</time>
      </trkpt>
      <trkpt lat="57.386741973459721" lon="-6.480800025165081">
        <ele>35.229999999999997</ele>
        <time>2023-08-26T16:03:09Z</time>
      </trkpt>
      <trkpt lat="57.386585986241698" lon="-6.480576982721686">
        <ele>36.189999999999998</ele>
        <time>2023-08-26T16:03:10Z</time>
      </trkpt>
      <trkpt lat="57.384652029722929" lon="-6.477973982691765">
        <ele>37.630000000000003</ele>
        <time>2023-08-26T16:03:22Z</time>
      </trkpt>
      <trkpt lat="57.38270197995007" lon="-6.475827964022756">
        <ele>27.530000000000001</ele>
        <time>2023-08-26T16:03:33Z</time>
      </trkpt>
      <trkpt lat="57.380834994837642" lon="-6.473218007013202">
        <ele>12.15</ele>
        <time>2023-08-26T16:03:45Z</time>
      </trkpt>
      <trkpt lat="57.378952000290155" lon="-6.470372015610337">
        <ele>4.94</ele>
        <time>2023-08-26T16:03:58Z</time>
      </trkpt>
      <trkpt lat="57.377724973484874" lon="-6.4676299598068">
        <ele>5.91</ele>
        <time>2023-08-26T16:04:08Z</time>
      </trkpt>
      <trkpt lat="57.376510016620159" lon="-6.464609038084745">
        <ele>8.310000000000001</ele>
        <time>2023-08-26T16:04:18Z</time>
      </trkpt>
      <trkpt lat="57.375292964279652" lon="-6.461811996996403">
        <ele>18.399999999999999</ele>
        <time>2023-08-26T16:04:28Z</time>
      </trkpt>
      <trkpt lat="57.373793022707105" lon="-6.459183013066649">
        <ele>30.899999999999999</ele>
        <time>2023-08-26T16:04:39Z</time>
      </trkpt>
      <trkpt lat="57.373462021350861" lon="-6.458794008940458">
        <ele>32.82</ele>
        <time>2023-08-26T16:04:41Z</time>
      </trkpt>
      <trkpt lat="57.373462021350861" lon="-6.458794008940458">
        <ele>33.780000000000001</ele>
        <time>2023-08-26T16:04:42Z</time>
      </trkpt>
      <trkpt lat="57.373087015002966" lon="-6.45849896594882">
        <ele>34.740000000000002</ele>
        <time>2023-08-26T16:04:43Z</time>
      </trkpt>
      <trkpt lat="57.372888028621674" lon="-6.458396958187223">
        <ele>35.710000000000001</ele>
        <time>2023-08-26T16:04:44Z</time>
      </trkpt>
      <trkpt lat="57.372676972299814" lon="-6.45832696929574">
        <ele>36.189999999999998</ele>
        <time>2023-08-26T16:04:45Z</time>
      </trkpt>
      <trkpt lat="57.371673993766308" lon="-6.457965960726142">
        <ele>38.109999999999999</ele>
        <time>2023-08-26T16:04:50Z</time>
      </trkpt>
      <trkpt lat="57.371514989063144" lon="-6.457825982943177">
        <ele>38.590000000000003</ele>
        <time>2023-08-26T16:04:51Z</time>
      </trkpt>
      <trkpt lat="57.37135699018836" lon="-6.457686005160213">
        <ele>38.590000000000003</ele>
        <time>2023-08-26T16:04:52Z</time>
      </trkpt>
      <trkpt lat="57.37120795994997" lon="-6.457522977143526">
        <ele>38.590000000000003</ele>
        <time>2023-08-26T16:04:53Z</time>
      </trkpt>
      <trkpt lat="57.371074017137289" lon="-6.457322984933853">
        <ele>39.07</ele>
        <time>2023-08-26T16:04:54Z</time>
      </trkpt>
      <trkpt lat="57.37094703130424" lon="-6.457088040187955">
        <ele>39.549999999999997</ele>
        <time>2023-08-26T16:04:55Z</time>
      </trkpt>
      <trkpt lat="57.370824990794063" lon="-6.456838008016348">
        <ele>39.07</ele>
        <time>2023-08-26T16:04:56Z</time>
      </trkpt>
      <trkpt lat="57.370729018002748" lon="-6.45654397085309">
        <ele>39.07</ele>
        <time>2023-08-26T16:04:57Z</time>
      </trkpt>
      <trkpt lat="57.370632961392403" lon="-6.456244988366962">
        <ele>39.07</ele>
        <time>2023-08-26T16:04:58Z</time>
      </trkpt>
      <trkpt lat="57.370571019127965" lon="-6.455912981182337">
        <ele>39.07</ele>
        <time>2023-08-26T16:04:59Z</time>
      </trkpt>
      <trkpt lat="57.370520979166031" lon="-6.455555995926261">
        <ele>39.07</ele>
        <time>2023-08-26T16:05:00Z</time>
      </trkpt>
      <trkpt lat="57.370471023023129" lon="-6.455198004841805">
        <ele>39.07</ele>
        <time>2023-08-26T16:05:01Z</time>
      </trkpt>
      <trkpt lat="57.370431963354349" lon="-6.454844959080219">
        <ele>39.549999999999997</ele>
        <time>2023-08-26T16:05:02Z</time>
      </trkpt>
      <trkpt lat="57.370422994717956" lon="-6.454476993530989">
        <ele>40.030000000000001</ele>
        <time>2023-08-26T16:05:03Z</time>
      </trkpt>
      <trkpt lat="57.370114037767053" lon="-6.451647011563182">
        <ele>45.799999999999997</ele>
        <time>2023-08-26T16:05:11Z</time>
      </trkpt>
      <trkpt lat="57.36920996569097" lon="-6.448467001318932">
        <ele>53.009999999999998</ele>
        <time>2023-08-26T16:05:21Z</time>
      </trkpt>
      <trkpt lat="57.368258032947779" lon="-6.445881016552448">
        <ele>49.649999999999999</ele>
        <time>2023-08-26T16:05:30Z</time>
      </trkpt>
      <trkpt lat="57.368200030177832" lon="-6.445566024631262">
        <ele>49.159999999999997</ele>
        <time>2023-08-26T16:05:31Z</time>
      </trkpt>
      <trkpt lat="57.368146972730756" lon="-6.445246003568173">
        <ele>48.68</ele>
        <time>2023-08-26T16:05:32Z</time>
      </trkpt>
      <trkpt lat="57.368139009922743" lon="-6.444908967241645">
        <ele>48.68</ele>
        <time>2023-08-26T16:05:33Z</time>
      </trkpt>
      <trkpt lat="57.368139009922743" lon="-6.444565979763866">
        <ele>48.200000000000003</ele>
        <time>2023-08-26T16:05:34Z</time>
      </trkpt>
      <trkpt lat="57.368172034621239" lon="-6.44422902725637">
        <ele>48.200000000000003</ele>
        <time>2023-08-26T16:05:35Z</time>
      </trkpt>
      <trkpt lat="57.368222996592522" lon="-6.443895008414984">
        <ele>47.719999999999999</ele>
        <time>2023-08-26T16:05:36Z</time>
      </trkpt>
      <trkpt lat="57.368273958563805" lon="-6.443559983745217">
        <ele>46.759999999999998</ele>
        <time>2023-08-26T16:05:37Z</time>
      </trkpt>
      <trkpt lat="57.368429023772478" lon="-6.442543007433415">
        <ele>45.799999999999997</ele>
        <time>2023-08-26T16:05:40Z</time>
      </trkpt>
      <trkpt lat="57.36845601350069" lon="-6.441457970067859">
        <ele>44.840000000000003</ele>
        <time>2023-08-26T16:05:43Z</time>
      </trkpt>
      <trkpt lat="57.368408991023898" lon="-6.441126968711615">
        <ele>44.359999999999999</ele>
        <time>2023-08-26T16:05:44Z</time>
      </trkpt>
      <trkpt lat="57.368361968547106" lon="-6.440795967355371">
        <ele>44.359999999999999</ele>
        <time>2023-08-26T16:05:45Z</time>
      </trkpt>
      <trkpt lat="57.368261972442269" lon="-6.440494973212481">
        <ele>44.359999999999999</ele>
        <time>2023-08-26T16:05:46Z</time>
      </trkpt>
      <trkpt lat="57.368156025186181" lon="-6.440216023474932">
        <ele>44.359999999999999</ele>
        <time>2023-08-26T16:05:47Z</time>
      </trkpt>
      <trkpt lat="57.36802501603961" lon="-6.439985018223524">
        <ele>44.840000000000003</ele>
        <time>2023-08-26T16:05:48Z</time>
      </trkpt>
      <trkpt lat="57.367880009114742" lon="-6.439781002700329">
        <ele>44.840000000000003</ele>
        <time>2023-08-26T16:05:49Z</time>
      </trkpt>
      <trkpt lat="57.367721004411578" lon="-6.439600959420204">
        <ele>45.32</ele>
        <time>2023-08-26T16:05:50Z</time>
      </trkpt>
      <trkpt lat="57.367544984444976" lon="-6.439456036314368">
        <ele>45.799999999999997</ele>
        <time>2023-08-26T16:05:51Z</time>
      </trkpt>
      <trkpt lat="57.367364019155502" lon="-6.439306000247598">
        <ele>46.280000000000001</ele>
        <time>2023-08-26T16:05:52Z</time>
      </trkpt>
      <trkpt lat="57.365184975787997" lon="-6.437875963747501">
        <ele>49.649999999999999</ele>
        <time>2023-08-26T16:06:03Z</time>
      </trkpt>
      <trkpt lat="57.363440031185746" lon="-6.436359006911516">
        <ele>53.969999999999999</ele>
        <time>2023-08-26T16:06:13Z</time>
      </trkpt>
      <trkpt lat="57.362079983577132" lon="-6.434294041246176">
        <ele>56.369999999999997</ele>
        <time>2023-08-26T16:06:22Z</time>
      </trkpt>
      <trkpt lat="57.360436040908098" lon="-6.431623985990882">
        <ele>59.740000000000002</ele>
        <time>2023-08-26T16:06:33Z</time>
      </trkpt>
      <trkpt lat="57.359513025730848" lon="-6.430175006389618">
        <ele>55.409999999999997</ele>
        <time>2023-08-26T16:06:40Z</time>
      </trkpt>
      <trkpt lat="57.35941001214087" lon="-6.429894967004657">
        <ele>54.93</ele>
        <time>2023-08-26T16:06:41Z</time>
      </trkpt>
      <trkpt lat="57.359305992722511" lon="-6.429611993953586">
        <ele>53.969999999999999</ele>
        <time>2023-08-26T16:06:42Z</time>
      </trkpt>
      <trkpt lat="57.359203984960914" lon="-6.429332960397005">
        <ele>53.009999999999998</ele>
        <time>2023-08-26T16:06:43Z</time>
      </trkpt>
      <trkpt lat="57.359133996069431" lon="-6.42902098596096">
        <ele>52.049999999999997</ele>
        <time>2023-08-26T16:06:44Z</time>
      </trkpt>
      <trkpt lat="57.358632003888488" lon="-6.42674395814538">
        <ele>48.68</ele>
        <time>2023-08-26T16:06:52Z</time>
      </trkpt>
      <trkpt lat="57.357905963435769" lon="-6.424472965300083">
        <ele>48.200000000000003</ele>
        <time>2023-08-26T16:07:00Z</time>
      </trkpt>
      <trkpt lat="57.356967022642493" lon="-6.422297023236752">
        <ele>46.759999999999998</ele>
        <time>2023-08-26T16:07:10Z</time>
      </trkpt>
      <trkpt lat="57.356342989951372" lon="-6.420072969049215">
        <ele>48.200000000000003</ele>
        <time>2023-08-26T16:07:21Z</time>
      </trkpt>
      <trkpt lat="57.356022968888283" lon="-6.417279029265046">
        <ele>51.090000000000003</ele>
        <time>2023-08-26T16:07:33Z</time>
      </trkpt>
      <trkpt lat="57.356224972754717" lon="-6.414762027561665">
        <ele>53.009999999999998</ele>
        <time>2023-08-26T16:07:43Z</time>
      </trkpt>
      <trkpt lat="57.356879012659192" lon="-6.412495980039239">
        <ele>52.049999999999997</ele>
        <time>2023-08-26T16:07:53Z</time>
      </trkpt>
      <trkpt lat="57.358097992837429" lon="-6.409712014719844">
        <ele>38.590000000000003</ele>
        <time>2023-08-26T16:08:06Z</time>
      </trkpt>
      <trkpt lat="57.359438007697463" lon="-6.407098034396768">
        <ele>26.57</ele>
        <time>2023-08-26T16:08:17Z</time>
      </trkpt>
      <trkpt lat="57.360522039234638" lon="-6.405028961598873">
        <ele>20.809999999999999</ele>
        <time>2023-08-26T16:08:25Z</time>
      </trkpt>
      <trkpt lat="57.361160991713405" lon="-6.402511037886143">
        <ele>19.84</ele>
        <time>2023-08-26T16:08:33Z</time>
      </trkpt>
      <trkpt lat="57.361314967274666" lon="-6.400067964568734">
        <ele>15.52</ele>
        <time>2023-08-26T16:08:40Z</time>
      </trkpt>
      <trkpt lat="57.361065018922091" lon="-6.39765297062695">
        <ele>15.52</ele>
        <time>2023-08-26T16:08:48Z</time>
      </trkpt>
      <trkpt lat="57.360813980922103" lon="-6.396945035085082">
        <ele>15.039999999999999</ele>
        <time>2023-08-26T16:08:51Z</time>
      </trkpt>
      <trkpt lat="57.360703004524112" lon="-6.396736996248364">
        <ele>15.039999999999999</ele>
        <time>2023-08-26T16:08:52Z</time>
      </trkpt>
      <trkpt lat="57.360584987327456" lon="-6.396551001816988">
        <ele>14.56</ele>
        <time>2023-08-26T16:08:53Z</time>
      </trkpt>
      <trkpt lat="57.360437968745828" lon="-6.396397026255727">
        <ele>14.56</ele>
        <time>2023-08-26T16:08:54Z</time>
      </trkpt>
      <trkpt lat="57.360293967649341" lon="-6.396244978532195">
        <ele>14.08</ele>
        <time>2023-08-26T16:08:55Z</time>
      </trkpt>
      <trkpt lat="57.360150972381234" lon="-6.396132996305823">
        <ele>14.08</ele>
        <time>2023-08-26T16:08:56Z</time>
      </trkpt>
      <trkpt lat="57.359984004870057" lon="-6.396089997142553">
        <ele>13.6</ele>
        <time>2023-08-26T16:08:57Z</time>
      </trkpt>
      <trkpt lat="57.359814019873738" lon="-6.396045992150903">
        <ele>13.119999999999999</ele>
        <time>2023-08-26T16:08:58Z</time>
      </trkpt>
      <trkpt lat="57.359641017392278" lon="-6.396000981330872">
        <ele>13.119999999999999</ele>
        <time>2023-08-26T16:08:59Z</time>
      </trkpt>
      <trkpt lat="57.359472960233688" lon="-6.396052027121186">
        <ele>12.630000000000001</ele>
        <time>2023-08-26T16:09:00Z</time>
      </trkpt>
      <trkpt lat="57.359288977459073" lon="-6.396122016012669">
        <ele>12.630000000000001</ele>
        <time>2023-08-26T16:09:01Z</time>
      </trkpt>
      <trkpt lat="57.359113041311502" lon="-6.396214971318841">
        <ele>12.15</ele>
        <time>2023-08-26T16:09:02Z</time>
      </trkpt>
      <trkpt lat="57.358940960839391" lon="-6.396358972415328">
        <ele>12.15</ele>
        <time>2023-08-26T16:09:03Z</time>
      </trkpt>
      <trkpt lat="57.358762007206678" lon="-6.39651102013886">
        <ele>11.67</ele>
        <time>2023-08-26T16:09:04Z</time>
      </trkpt>
      <trkpt lat="57.358620017766953" lon="-6.396728027611971">
        <ele>11.67</ele>
        <time>2023-08-26T16:09:05Z</time>
      </trkpt>
      <trkpt lat="57.358468975871801" lon="-6.396960038691759">
        <ele>11.19</ele>
        <time>2023-08-26T16:09:06Z</time>
      </trkpt>
      <trkpt lat="57.356782034039497" lon="-6.399784991517663">
        <ele>10.710000000000001</ele>
        <time>2023-08-26T16:09:17Z</time>
      </trkpt>
      <trkpt lat="57.355153011158109" lon="-6.402221024036408">
        <ele>11.67</ele>
        <time>2023-08-26T16:09:27Z</time>
      </trkpt>
      <trkpt lat="57.35489702783525" lon="-6.402756040915847">
        <ele>12.15</ele>
        <time>2023-08-26T16:09:29Z</time>
      </trkpt>
      <trkpt lat="57.354784039780498" lon="-6.403051000088453">
        <ele>12.15</ele>
        <time>2023-08-26T16:09:30Z</time>
      </trkpt>
      <trkpt lat="57.354021035134792" lon="-6.404708018526435">
        <ele>13.119999999999999</ele>
        <time>2023-08-26T16:09:36Z</time>
      </trkpt>
      <trkpt lat="57.353866975754499" lon="-6.404921002686024">
        <ele>13.119999999999999</ele>
        <time>2023-08-26T16:09:37Z</time>
      </trkpt>
      <trkpt lat="57.353699002414942" lon="-6.405100962147117">
        <ele>13.119999999999999</ele>
        <time>2023-08-26T16:09:38Z</time>
      </trkpt>
      <trkpt lat="57.353519964963198" lon="-6.4052589610219">
        <ele>13.119999999999999</ele>
        <time>2023-08-26T16:09:39Z</time>
      </trkpt>
      <trkpt lat="57.353148981928825" lon="-6.405491977930069">
        <ele>13.6</ele>
        <time>2023-08-26T16:09:41Z</time>
      </trkpt>
      <trkpt lat="57.352960975840688" lon="-6.405597003176808">
        <ele>13.6</ele>
        <time>2023-08-26T16:09:42Z</time>
      </trkpt>
      <trkpt lat="57.3512679990381" lon="-6.406299993395805">
        <ele>15.52</ele>
        <time>2023-08-26T16:09:51Z</time>
      </trkpt>
      <trkpt lat="57.351085022091866" lon="-6.406280966475606">
        <ele>15.52</ele>
        <time>2023-08-26T16:09:52Z</time>
      </trkpt>
      <trkpt lat="57.349650962278247" lon="-6.405908977612853">
        <ele>19.359999999999999</ele>
        <time>2023-08-26T16:10:00Z</time>
      </trkpt>
      <trkpt lat="57.348240958526731" lon="-6.406199997290969">
        <ele>27.530000000000001</ele>
        <time>2023-08-26T16:10:09Z</time>
      </trkpt>
      <trkpt lat="57.347074029967189" lon="-6.405946025624871">
        <ele>31.379999999999999</ele>
        <time>2023-08-26T16:10:16Z</time>
      </trkpt>
      <trkpt lat="57.346914019435644" lon="-6.405792972072959">
        <ele>31.859999999999999</ele>
        <time>2023-08-26T16:10:17Z</time>
      </trkpt>
      <trkpt lat="57.346599027514458" lon="-6.405462976545095">
        <ele>33.299999999999997</ele>
        <time>2023-08-26T16:10:19Z</time>
      </trkpt>
      <trkpt lat="57.346460977569222" lon="-6.405249992385507">
        <ele>34.259999999999998</ele>
        <time>2023-08-26T16:10:20Z</time>
      </trkpt>
      <trkpt lat="57.346327034756541" lon="-6.405026027932763">
        <ele>34.740000000000002</ele>
        <time>2023-08-26T16:10:21Z</time>
      </trkpt>
      <trkpt lat="57.346203988417983" lon="-6.40478597022593">
        <ele>35.710000000000001</ele>
        <time>2023-08-26T16:10:22Z</time>
      </trkpt>
      <trkpt lat="57.346094017848372" lon="-6.404523029923439">
        <ele>36.670000000000002</ele>
        <time>2023-08-26T16:10:23Z</time>
      </trkpt>
      <trkpt lat="57.345998967066407" lon="-6.404253970831633">
        <ele>37.630000000000003</ele>
        <time>2023-08-26T16:10:24Z</time>
      </trkpt>
      <trkpt lat="57.345914980396628" lon="-6.403966974467039">
        <ele>38.590000000000003</ele>
        <time>2023-08-26T16:10:25Z</time>
      </trkpt>
      <trkpt lat="57.34583199955523" lon="-6.403677966445684">
        <ele>39.07</ele>
        <time>2023-08-26T16:10:26Z</time>
      </trkpt>
      <trkpt lat="57.345418017357588" lon="-6.40096097253263">
        <ele>45.799999999999997</ele>
        <time>2023-08-26T16:10:35Z</time>
      </trkpt>
      <trkpt lat="57.345493035390973" lon="-6.398372976109386">
        <ele>52.049999999999997</ele>
        <time>2023-08-26T16:10:44Z</time>
      </trkpt>
      <trkpt lat="57.345623038709164" lon="-6.395746003836393">
        <ele>55.409999999999997</ele>
        <time>2023-08-26T16:10:53Z</time>
      </trkpt>
      <trkpt lat="57.345691015943885" lon="-6.392519976943731">
        <ele>57.82</ele>
        <time>2023-08-26T16:11:04Z</time>
      </trkpt>
      <trkpt lat="57.346401968970895" lon="-6.388925984501839">
        <ele>69.349999999999994</ele>
        <time>2023-08-26T16:11:16Z</time>
      </trkpt>
      <trkpt lat="57.346821986138821" lon="-6.386432033032179">
        <ele>78.480000000000004</ele>
        <time>2023-08-26T16:11:24Z</time>
      </trkpt>
      <trkpt lat="57.346831038594246" lon="-6.386115029454231">
        <ele>79.450000000000003</ele>
        <time>2023-08-26T16:11:25Z</time>
      </trkpt>
      <trkpt lat="57.346810000017285" lon="-6.385803977027535">
        <ele>80.409999999999997</ele>
        <time>2023-08-26T16:11:26Z</time>
      </trkpt>
      <trkpt lat="57.346759038046002" lon="-6.385501977056265">
        <ele>81.370000000000005</ele>
        <time>2023-08-26T16:11:27Z</time>
      </trkpt>
      <trkpt lat="57.346702041104436" lon="-6.385205006226897">
        <ele>82.329999999999998</ele>
        <time>2023-08-26T16:11:28Z</time>
      </trkpt>
      <trkpt lat="57.346625011414289" lon="-6.38490803539753">
        <ele>83.769999999999996</ele>
        <time>2023-08-26T16:11:29Z</time>
      </trkpt>
      <trkpt lat="57.346533983945847" lon="-6.384625984355807">
        <ele>84.730000000000004</ele>
        <time>2023-08-26T16:11:30Z</time>
      </trkpt>
      <trkpt lat="57.346403980627656" lon="-6.384353991597891">
        <ele>85.689999999999998</ele>
        <time>2023-08-26T16:11:31Z</time>
      </trkpt>
      <trkpt lat="57.346266014501452" lon="-6.384103037416935">
        <ele>86.180000000000007</ele>
        <time>2023-08-26T16:11:32Z</time>
      </trkpt>
      <trkpt lat="57.346116984263062" lon="-6.383851999416947">
        <ele>87.620000000000005</ele>
        <time>2023-08-26T16:11:33Z</time>
      </trkpt>
      <trkpt lat="57.344620982185006" lon="-6.381383026018739">
        <ele>98.189999999999998</ele>
        <time>2023-08-26T16:11:42Z</time>
      </trkpt>
      <trkpt lat="57.343194968998432" lon="-6.379240024834871">
        <ele>111.17</ele>
        <time>2023-08-26T16:11:49Z</time>
      </trkpt>
      <trkpt lat="57.341697039082646" lon="-6.377405980601907">
        <ele>116.94</ele>
        <time>2023-08-26T16:11:57Z</time>
      </trkpt>
      <trkpt lat="57.341181971132755" lon="-6.376740038394928">
        <ele>114.53</ele>
        <time>2023-08-26T16:12:00Z</time>
      </trkpt>
      <trkpt lat="57.341038975864649" lon="-6.376462010666728">
        <ele>113.56999999999999</ele>
        <time>2023-08-26T16:12:01Z</time>
      </trkpt>
      <trkpt lat="57.340552993118763" lon="-6.375230038538575">
        <ele>108.29000000000001</ele>
        <time>2023-08-26T16:12:05Z</time>
      </trkpt>
      <trkpt lat="57.340474035590887" lon="-6.374861989170313">
        <ele>106.84</ele>
        <time>2023-08-26T16:12:06Z</time>
      </trkpt>
      <trkpt lat="57.340414021164179" lon="-6.374500980600715">
        <ele>105.40000000000001</ele>
        <time>2023-08-26T16:12:07Z</time>
      </trkpt>
      <trkpt lat="57.340368004515767" lon="-6.374126980081201">
        <ele>103.95999999999999</ele>
        <time>2023-08-26T16:12:08Z</time>
      </trkpt>
      <trkpt lat="57.340329028666019" lon="-6.373807964846492">
        <ele>102.52</ele>
        <time>2023-08-26T16:12:09Z</time>
      </trkpt>
      <trkpt lat="57.340322993695736" lon="-6.373404962942004">
        <ele>101.08</ele>
        <time>2023-08-26T16:12:10Z</time>
      </trkpt>
      <trkpt lat="57.340316036716104" lon="-6.373032974079251">
        <ele>100.11</ele>
        <time>2023-08-26T16:12:11Z</time>
      </trkpt>
      <trkpt lat="57.34031000174582" lon="-6.372666014358401">
        <ele>98.670000000000002</ele>
        <time>2023-08-26T16:12:12Z</time>
      </trkpt>
      <trkpt lat="57.340340008959174" lon="-6.372329983860254">
        <ele>97.709999999999994</ele>
        <time>2023-08-26T16:12:13Z</time>
      </trkpt>
      <trkpt lat="57.340390970930457" lon="-6.371989008039236">
        <ele>96.75</ele>
        <time>2023-08-26T16:12:14Z</time>
      </trkpt>
      <trkpt lat="57.340443022549152" lon="-6.371645014733076">
        <ele>95.310000000000002</ele>
        <time>2023-08-26T16:12:15Z</time>
      </trkpt>
      <trkpt lat="57.340494990348816" lon="-6.371303033083677">
        <ele>94.829999999999998</ele>
        <time>2023-08-26T16:12:16Z</time>
      </trkpt>
      <trkpt lat="57.341068983078003" lon="-6.367492033168674">
        <ele>93.870000000000005</ele>
        <time>2023-08-26T16:12:27Z</time>
      </trkpt>
      <trkpt lat="57.341483971104026" lon="-6.364673031494021">
        <ele>92.420000000000002</ele>
        <time>2023-08-26T16:12:35Z</time>
      </trkpt>
      <trkpt lat="57.341497968882322" lon="-6.364315962418914">
        <ele>91.939999999999998</ele>
        <time>2023-08-26T16:12:36Z</time>
      </trkpt>
      <trkpt lat="57.341499980539083" lon="-6.363957971334457">
        <ele>91.459999999999994</ele>
        <time>2023-08-26T16:12:37Z</time>
      </trkpt>
      <trkpt lat="57.341449018567801" lon="-6.363608026877046">
        <ele>91.459999999999994</ele>
        <time>2023-08-26T16:12:38Z</time>
      </trkpt>
      <trkpt lat="57.341396966949105" lon="-6.363251963630319">
        <ele>90.980000000000004</ele>
        <time>2023-08-26T16:12:39Z</time>
      </trkpt>
      <trkpt lat="57.341396966949105" lon="-6.363251963630319">
        <ele>90.5</ele>
        <time>2023-08-26T16:12:40Z</time>
      </trkpt>
      <trkpt lat="57.341225976124406" lon="-6.362576968967915">
        <ele>90.019999999999996</ele>
        <time>2023-08-26T16:12:41Z</time>
      </trkpt>
      <trkpt lat="57.341120028868318" lon="-6.362252002581954">
        <ele>89.540000000000006</ele>
        <time>2023-08-26T16:12:42Z</time>
      </trkpt>
      <trkpt lat="57.341002011671662" lon="-6.361934999004006">
        <ele>89.540000000000006</ele>
        <time>2023-08-26T16:12:43Z</time>
      </trkpt>
      <trkpt lat="57.339410958811641" lon="-6.35766601189971">
        <ele>97.230000000000004</ele>
        <time>2023-08-26T16:12:56Z</time>
      </trkpt>
      <trkpt lat="57.338340003043413" lon="-6.355638010427356">
        <ele>104.92</ele>
        <time>2023-08-26T16:13:03Z</time>
      </trkpt>
      <trkpt lat="57.336373021826148" lon="-6.352886985987425">
        <ele>112.13</ele>
        <time>2023-08-26T16:13:13Z</time>
      </trkpt>
      <trkpt lat="57.334604021161795" lon="-6.350376019254327">
        <ele>115.98</ele>
        <time>2023-08-26T16:13:22Z</time>
      </trkpt>
      <trkpt lat="57.333170967176557" lon="-6.34780696593225">
        <ele>124.63</ele>
        <time>2023-08-26T16:13:31Z</time>
      </trkpt>
      <trkpt lat="57.33197595924139" lon="-6.344725023955107">
        <ele>126.06999999999999</ele>
        <time>2023-08-26T16:13:41Z</time>
      </trkpt>
      <trkpt lat="57.330714985728264" lon="-6.340553015470505">
        <ele>116.45999999999999</ele>
        <time>2023-08-26T16:13:51Z</time>
      </trkpt>
      <trkpt lat="57.329963967204094" lon="-6.338067026808858">
        <ele>110.69</ele>
        <time>2023-08-26T16:13:58Z</time>
      </trkpt>
      <trkpt lat="57.329136002808809" lon="-6.335249030962586">
        <ele>105.40000000000001</ele>
        <time>2023-08-26T16:14:06Z</time>
      </trkpt>
      <trkpt lat="57.329039024189115" lon="-6.334885004907847">
        <ele>104.44</ele>
        <time>2023-08-26T16:14:07Z</time>
      </trkpt>
      <trkpt lat="57.32890298590064" lon="-6.334583004936576">
        <ele>103.48</ele>
        <time>2023-08-26T16:14:08Z</time>
      </trkpt>
      <trkpt lat="57.328758984804153" lon="-6.334296008571982">
        <ele>103</ele>
        <time>2023-08-26T16:14:09Z</time>
      </trkpt>
      <trkpt lat="57.328611966222525" lon="-6.334048993885517">
        <ele>102.04000000000001</ele>
        <time>2023-08-26T16:14:10Z</time>
      </trkpt>
      <trkpt lat="57.328432006761432" lon="-6.333880014717579">
        <ele>101.56</ele>
        <time>2023-08-26T16:14:11Z</time>
      </trkpt>
      <trkpt lat="57.328252969309688" lon="-6.333736013621092">
        <ele>101.56</ele>
        <time>2023-08-26T16:14:12Z</time>
      </trkpt>
      <trkpt lat="57.328060017898679" lon="-6.333635011687875">
        <ele>101.56</ele>
        <time>2023-08-26T16:14:13Z</time>
      </trkpt>
      <trkpt lat="57.327852984890342" lon="-6.333578014746308">
        <ele>101.56</ele>
        <time>2023-08-26T16:14:14Z</time>
      </trkpt>
      <trkpt lat="57.327643018215895" lon="-6.333519006147981">
        <ele>101.56</ele>
        <time>2023-08-26T16:14:15Z</time>
      </trkpt>
      <trkpt lat="57.325340006500483" lon="-6.332524996250868">
        <ele>103.95999999999999</ele>
        <time>2023-08-26T16:14:26Z</time>
      </trkpt>
      <trkpt lat="57.324005020782351" lon="-6.331078028306365">
        <ele>106.36</ele>
        <time>2023-08-26T16:14:33Z</time>
      </trkpt>
      <trkpt lat="57.321623973548412" lon="-6.327680004760623">
        <ele>117.42</ele>
        <time>2023-08-26T16:14:46Z</time>
      </trkpt>
      <trkpt lat="57.320412034168839" lon="-6.325056971982122">
        <ele>126.06999999999999</ele>
        <time>2023-08-26T16:14:54Z</time>
      </trkpt>
      <trkpt lat="57.319022985175252" lon="-6.323100971058011">
        <ele>135.19999999999999</ele>
        <time>2023-08-26T16:15:02Z</time>
      </trkpt>
      <trkpt lat="57.31693496927619" lon="-6.321336999535561">
        <ele>147.22</ele>
        <time>2023-08-26T16:15:12Z</time>
      </trkpt>
      <trkpt lat="57.314939992502332" lon="-6.320203011855483">
        <ele>153.47</ele>
        <time>2023-08-26T16:15:21Z</time>
      </trkpt>
      <trkpt lat="57.312623988837004" lon="-6.319388961419463">
        <ele>152.03</ele>
        <time>2023-08-26T16:15:31Z</time>
      </trkpt>
      <trkpt lat="57.310839984565973" lon="-6.318555967882276">
        <ele>146.25999999999999</ele>
        <time>2023-08-26T16:15:39Z</time>
      </trkpt>
      <trkpt lat="57.309080036357045" lon="-6.317457016557455">
        <ele>137.13</ele>
        <time>2023-08-26T16:15:48Z</time>
      </trkpt>
      <trkpt lat="57.307828031480312" lon="-6.316290004178882">
        <ele>129.91999999999999</ele>
        <time>2023-08-26T16:15:55Z</time>
      </trkpt>
      <trkpt lat="57.306311996653676" lon="-6.314831972122192">
        <ele>121.26000000000001</ele>
        <time>2023-08-26T16:16:03Z</time>
      </trkpt>
      <trkpt lat="57.306132959201932" lon="-6.314619993790984">
        <ele>120.78</ele>
        <time>2023-08-26T16:16:04Z</time>
      </trkpt>
      <trkpt lat="57.30597797781229" lon="-6.314349006861448">
        <ele>119.81999999999999</ele>
        <time>2023-08-26T16:16:05Z</time>
      </trkpt>
      <trkpt lat="57.305827019736171" lon="-6.314066033810377">
        <ele>118.86</ele>
        <time>2023-08-26T16:16:06Z</time>
      </trkpt>
      <trkpt lat="57.305672960355878" lon="-6.313777025789022">
        <ele>117.90000000000001</ele>
        <time>2023-08-26T16:16:07Z</time>
      </trkpt>
      <trkpt lat="57.305534994229674" lon="-6.313466979190707">
        <ele>116.94</ele>
        <time>2023-08-26T16:16:08Z</time>
      </trkpt>
      <trkpt lat="57.305413959547877" lon="-6.313123991712928">
        <ele>115.98</ele>
        <time>2023-08-26T16:16:09Z</time>
      </trkpt>
      <trkpt lat="57.305303988978267" lon="-6.312771029770374">
        <ele>114.05</ele>
        <time>2023-08-26T16:16:10Z</time>
      </trkpt>
      <trkpt lat="57.305216984823346" lon="-6.31239702925086">
        <ele>112.61</ele>
        <time>2023-08-26T16:16:11Z</time>
      </trkpt>
      <trkpt lat="57.305164011195302" lon="-6.312008025124669">
        <ele>111.17</ele>
        <time>2023-08-26T16:16:12Z</time>
      </trkpt>
      <trkpt lat="57.305135009810328" lon="-6.311630001291633">
        <ele>109.73</ele>
        <time>2023-08-26T16:16:13Z</time>
      </trkpt>
      <trkpt lat="57.305108020082116" lon="-6.311271004378796">
        <ele>108.29000000000001</ele>
        <time>2023-08-26T16:16:14Z</time>
      </trkpt>
      <trkpt lat="57.305121012032032" lon="-6.310943020507693">
        <ele>106.36</ele>
        <time>2023-08-26T16:16:15Z</time>
      </trkpt>
      <trkpt lat="57.305170968174934" lon="-6.310619981959462">
        <ele>104.92</ele>
        <time>2023-08-26T16:16:16Z</time>
      </trkpt>
      <trkpt lat="57.305220002308488" lon="-6.310299960896373">
        <ele>103.48</ele>
        <time>2023-08-26T16:16:17Z</time>
      </trkpt>
      <trkpt lat="57.305319998413324" lon="-6.31001397036016">
        <ele>102.04000000000001</ele>
        <time>2023-08-26T16:16:18Z</time>
      </trkpt>
      <trkpt lat="57.305434998124838" lon="-6.309757987037301">
        <ele>100.59999999999999</ele>
        <time>2023-08-26T16:16:19Z</time>
      </trkpt>
      <trkpt lat="57.30556801892817" lon="-6.309521030634642">
        <ele>99.150000000000006</ele>
        <time>2023-08-26T16:16:20Z</time>
      </trkpt>
      <trkpt lat="57.305724006146193" lon="-6.309338975697756">
        <ele>98.189999999999998</ele>
        <time>2023-08-26T16:16:21Z</time>
      </trkpt>
      <trkpt lat="57.305882005020976" lon="-6.309152981266379">
        <ele>96.75</ele>
        <time>2023-08-26T16:16:22Z</time>
      </trkpt>
      <trkpt lat="57.306174030527472" lon="-6.308810999616981">
        <ele>94.349999999999994</ele>
        <time>2023-08-26T16:16:24Z</time>
      </trkpt>
      <trkpt lat="57.306262962520123" lon="-6.308611007407308">
        <ele>93.390000000000001</ele>
        <time>2023-08-26T16:16:25Z</time>
      </trkpt>
      <trkpt lat="57.306323982775211" lon="-6.308420989662409">
        <ele>92.420000000000002</ele>
        <time>2023-08-26T16:16:26Z</time>
      </trkpt>
      <trkpt lat="57.306334963068366" lon="-6.308232983574271">
        <ele>91.459999999999994</ele>
        <time>2023-08-26T16:16:27Z</time>
      </trkpt>
      <trkpt lat="57.306308979168534" lon="-6.308026034384966">
        <ele>90.5</ele>
        <time>2023-08-26T16:16:28Z</time>
      </trkpt>
      <trkpt lat="57.306252988055348" lon="-6.307844985276461">
        <ele>90.019999999999996</ele>
        <time>2023-08-26T16:16:29Z</time>
      </trkpt>
      <trkpt lat="57.30616900138557" lon="-6.307676006108522">
        <ele>89.060000000000002</ele>
        <time>2023-08-26T16:16:30Z</time>
      </trkpt>
      <trkpt lat="57.306042015552521" lon="-6.307650022208691">
        <ele>88.579999999999998</ele>
        <time>2023-08-26T16:16:31Z</time>
      </trkpt>
      <trkpt lat="57.305901031941175" lon="-6.307621020823717">
        <ele>88.099999999999994</ele>
        <time>2023-08-26T16:16:32Z</time>
      </trkpt>
      <trkpt lat="57.305744960904121" lon="-6.307587996125221">
        <ele>87.620000000000005</ele>
        <time>2023-08-26T16:16:33Z</time>
      </trkpt>
      <trkpt lat="57.305414965376258" lon="-6.307452041655779">
        <ele>86.180000000000007</ele>
        <time>2023-08-26T16:16:35Z</time>
      </trkpt>
      <trkpt lat="57.305251015350223" lon="-6.307334024459124">
        <ele>85.209999999999994</ele>
        <time>2023-08-26T16:16:36Z</time>
      </trkpt>
      <trkpt lat="57.30509796179831" lon="-6.307169990614057">
        <ele>84.730000000000004</ele>
        <time>2023-08-26T16:16:37Z</time>
      </trkpt>
      <trkpt lat="57.30496603064239" lon="-6.30696102976799">
        <ele>83.769999999999996</ele>
        <time>2023-08-26T16:16:38Z</time>
      </trkpt>
      <trkpt lat="57.304850025102496" lon="-6.306723989546299">
        <ele>82.810000000000002</ele>
        <time>2023-08-26T16:16:39Z</time>
      </trkpt>
      <trkpt lat="57.304747011512518" lon="-6.306461971253157">
        <ele>81.849999999999994</ele>
        <time>2023-08-26T16:16:40Z</time>
      </trkpt>
      <trkpt lat="57.304660007357597" lon="-6.306168017908931">
        <ele>80.890000000000001</ele>
        <time>2023-08-26T16:16:41Z</time>
      </trkpt>
      <trkpt lat="57.304583983495831" lon="-6.30586501210928">
        <ele>79.450000000000003</ele>
        <time>2023-08-26T16:16:42Z</time>
      </trkpt>
      <trkpt lat="57.304508965462446" lon="-6.305563012138009">
        <ele>78.480000000000004</ele>
        <time>2023-08-26T16:16:43Z</time>
      </trkpt>
      <trkpt lat="57.304474012926221" lon="-6.305233016610146">
        <ele>77.519999999999996</ele>
        <time>2023-08-26T16:16:44Z</time>
      </trkpt>
      <trkpt lat="57.30444903485477" lon="-6.304906960576773">
        <ele>77.040000000000006</ele>
        <time>2023-08-26T16:16:45Z</time>
      </trkpt>
      <trkpt lat="57.304424978792667" lon="-6.304581994190812">
        <ele>76.079999999999998</ele>
        <time>2023-08-26T16:16:46Z</time>
      </trkpt>
      <trkpt lat="57.304400000721216" lon="-6.304259961470962">
        <ele>75.120000000000005</ele>
        <time>2023-08-26T16:16:47Z</time>
      </trkpt>
      <trkpt lat="57.304395977407694" lon="-6.303934995085001">
        <ele>74.640000000000001</ele>
        <time>2023-08-26T16:16:48Z</time>
      </trkpt>
      <trkpt lat="57.304411986842752" lon="-6.303604999557138">
        <ele>74.159999999999997</ele>
        <time>2023-08-26T16:16:49Z</time>
      </trkpt>
      <trkpt lat="57.304786993190646" lon="-6.300977021455765">
        <ele>69.349999999999994</ele>
        <time>2023-08-26T16:16:57Z</time>
      </trkpt>
      <trkpt lat="57.304896041750908" lon="-6.30036698654294">
        <ele>67.909999999999997</ele>
        <time>2023-08-26T16:16:59Z</time>
      </trkpt>
      <trkpt lat="57.304910039529204" lon="-6.30008501932025">
        <ele>66.950000000000003</ele>
        <time>2023-08-26T16:17:00Z</time>
      </trkpt>
      <trkpt lat="57.304881038144231" lon="-6.299836998805404">
        <ele>65.989999999999995</ele>
        <time>2023-08-26T16:17:01Z</time>
      </trkpt>
      <trkpt lat="57.304849019274116" lon="-6.299628037959337">
        <ele>65.510000000000005</ele>
        <time>2023-08-26T16:17:02Z</time>
      </trkpt>
      <trkpt lat="57.304766038432717" lon="-6.299450006335974">
        <ele>64.549999999999997</ele>
        <time>2023-08-26T16:17:03Z</time>
      </trkpt>
      <trkpt lat="57.304663024842739" lon="-6.299296030774713">
        <ele>64.069999999999993</ele>
        <time>2023-08-26T16:17:04Z</time>
      </trkpt>
      <trkpt lat="57.304525980725884" lon="-6.299200979992747">
        <ele>63.100000000000001</ele>
        <time>2023-08-26T16:17:05Z</time>
      </trkpt>
      <trkpt lat="57.304389020428061" lon="-6.299179019406438">
        <ele>63.100000000000001</ele>
        <time>2023-08-26T16:17:06Z</time>
      </trkpt>
      <trkpt lat="57.304249964654446" lon="-6.299221012741327">
        <ele>62.619999999999997</ele>
        <time>2023-08-26T16:17:07Z</time>
      </trkpt>
      <trkpt lat="57.304098000749946" lon="-6.299309022724628">
        <ele>62.619999999999997</ele>
        <time>2023-08-26T16:17:08Z</time>
      </trkpt>
      <trkpt lat="57.303942013531923" lon="-6.29939996637404">
        <ele>62.619999999999997</ele>
        <time>2023-08-26T16:17:09Z</time>
      </trkpt>
      <trkpt lat="57.303783008828759" lon="-6.299491999670863">
        <ele>62.140000000000001</ele>
        <time>2023-08-26T16:17:10Z</time>
      </trkpt>
      <trkpt lat="57.303614029660821" lon="-6.299568023532629">
        <ele>62.140000000000001</ele>
        <time>2023-08-26T16:17:11Z</time>
      </trkpt>
      <trkpt lat="57.303443038836122" lon="-6.299582021310926">
        <ele>61.659999999999997</ele>
        <time>2023-08-26T16:17:12Z</time>
      </trkpt>
      <trkpt lat="57.3032680246979" lon="-6.299533993005753">
        <ele>61.18</ele>
        <time>2023-08-26T16:17:13Z</time>
      </trkpt>
      <trkpt lat="57.3030970338732" lon="-6.299454029649496">
        <ele>60.700000000000003</ele>
        <time>2023-08-26T16:17:14Z</time>
      </trkpt>
      <trkpt lat="57.302929982542992" lon="-6.29931497387588">
        <ele>60.219999999999999</ele>
        <time>2023-08-26T16:17:15Z</time>
      </trkpt>
      <trkpt lat="57.302769972011447" lon="-6.299124034121633">
        <ele>59.259999999999998</ele>
        <time>2023-08-26T16:17:16Z</time>
      </trkpt>
      <trkpt lat="57.302609039470553" lon="-6.298899985849857">
        <ele>58.299999999999997</ele>
        <time>2023-08-26T16:17:17Z</time>
      </trkpt>
      <trkpt lat="57.30245397426188" lon="-6.298636961728334">
        <ele>57.340000000000003</ele>
        <time>2023-08-26T16:17:18Z</time>
      </trkpt>
      <trkpt lat="57.300752028822899" lon="-6.295846039429307">
        <ele>46.280000000000001</ele>
        <time>2023-08-26T16:17:28Z</time>
      </trkpt>
      <trkpt lat="57.299796994775534" lon="-6.294566038995981">
        <ele>39.549999999999997</ele>
        <time>2023-08-26T16:17:35Z</time>
      </trkpt>
      <trkpt lat="57.298593018203974" lon="-6.291983993723989">
        <ele>33.780000000000001</ele>
        <time>2023-08-26T16:17:44Z</time>
      </trkpt>
      <trkpt lat="57.298064036294818" lon="-6.289604958146811">
        <ele>31.859999999999999</ele>
        <time>2023-08-26T16:17:51Z</time>
      </trkpt>
      <trkpt lat="57.297463975846767" lon="-6.285882974043489">
        <ele>35.229999999999997</ele>
        <time>2023-08-26T16:18:01Z</time>
      </trkpt>
      <trkpt lat="57.29701898060739" lon="-6.281836023554206">
        <ele>38.109999999999999</ele>
        <time>2023-08-26T16:18:12Z</time>
      </trkpt>
      <trkpt lat="57.296883026137948" lon="-6.278326017782092">
        <ele>33.299999999999997</ele>
        <time>2023-08-26T16:18:21Z</time>
      </trkpt>
      <trkpt lat="57.296915967017412" lon="-6.273287991061807">
        <ele>32.340000000000003</ele>
        <time>2023-08-26T16:18:34Z</time>
      </trkpt>
      <trkpt lat="57.297063991427422" lon="-6.267500035464764">
        <ele>37.630000000000003</ele>
        <time>2023-08-26T16:18:48Z</time>
      </trkpt>
      <trkpt lat="57.297557014971972" lon="-6.263580992817879">
        <ele>38.590000000000003</ele>
        <time>2023-08-26T16:18:58Z</time>
      </trkpt>
      <trkpt lat="57.298590000718832" lon="-6.259692963212729">
        <ele>40.509999999999998</ele>
        <time>2023-08-26T16:19:09Z</time>
      </trkpt>
      <trkpt lat="57.300380961969495" lon="-6.254499033093453">
        <ele>44.359999999999999</ele>
        <time>2023-08-26T16:19:25Z</time>
      </trkpt>
      <trkpt lat="57.302186004817486" lon="-6.249465029686689">
        <ele>48.68</ele>
        <time>2023-08-26T16:19:41Z</time>
      </trkpt>
      <trkpt lat="57.30374101549387" lon="-6.245211968198419">
        <ele>44.359999999999999</ele>
        <time>2023-08-26T16:19:54Z</time>
      </trkpt>
      <trkpt lat="57.304467977955937" lon="-6.241956017911434">
        <ele>42.920000000000002</ele>
        <time>2023-08-26T16:20:03Z</time>
      </trkpt>
      <trkpt lat="57.305157976225019" lon="-6.237409003078938">
        <ele>45.32</ele>
        <time>2023-08-26T16:20:15Z</time>
      </trkpt>
      <trkpt lat="57.305859960615635" lon="-6.232713963836432">
        <ele>49.649999999999999</ele>
        <time>2023-08-26T16:20:27Z</time>
      </trkpt>
      <trkpt lat="57.306262962520123" lon="-6.227646013721824">
        <ele>51.57</ele>
        <time>2023-08-26T16:20:40Z</time>
      </trkpt>
      <trkpt lat="57.30627603828907" lon="-6.224103989079595">
        <ele>52.530000000000001</ele>
        <time>2023-08-26T16:20:49Z</time>
      </trkpt>
      <trkpt lat="57.305795000866055" lon="-6.220062989741564">
        <ele>55.890000000000001</ele>
        <time>2023-08-26T16:20:59Z</time>
      </trkpt>
      <trkpt lat="57.304999977350235" lon="-6.21444501914084">
        <ele>65.989999999999995</ele>
        <time>2023-08-26T16:21:13Z</time>
      </trkpt>
      <trkpt lat="57.304357001557946" lon="-6.21229900047183">
        <ele>70.310000000000002</ele>
        <time>2023-08-26T16:21:19Z</time>
      </trkpt>
      <trkpt lat="57.302966024726629" lon="-6.209387965500355">
        <ele>76.560000000000002</ele>
        <time>2023-08-26T16:21:28Z</time>
      </trkpt>
      <trkpt lat="57.301203981041908" lon="-6.205421984195709">
        <ele>79.930000000000007</ele>
        <time>2023-08-26T16:21:40Z</time>
      </trkpt>
      <trkpt lat="57.300031017512083" lon="-6.203723978251219">
        <ele>80.409999999999997</ele>
        <time>2023-08-26T16:21:47Z</time>
      </trkpt>
      <trkpt lat="57.298812037333846" lon="-6.202966002747417">
        <ele>79.930000000000007</ele>
        <time>2023-08-26T16:21:53Z</time>
      </trkpt>
      <trkpt lat="57.298624031245708" lon="-6.202853014692664">
        <ele>79.930000000000007</ele>
        <time>2023-08-26T16:21:54Z</time>
      </trkpt>
      <trkpt lat="57.298438958823681" lon="-6.202714964747429">
        <ele>79.450000000000003</ele>
        <time>2023-08-26T16:21:55Z</time>
      </trkpt>
      <trkpt lat="57.298271991312504" lon="-6.20252201333642">
        <ele>79.450000000000003</ele>
        <time>2023-08-26T16:21:56Z</time>
      </trkpt>
      <trkpt lat="57.298116004094481" lon="-6.202296959236264">
        <ele>79.450000000000003</ele>
        <time>2023-08-26T16:21:57Z</time>
      </trkpt>
      <trkpt lat="57.297965968027711" lon="-6.202051034197211">
        <ele>79.450000000000003</ele>
        <time>2023-08-26T16:21:58Z</time>
      </trkpt>
      <trkpt lat="57.297834036871791" lon="-6.201776023954153">
        <ele>79.450000000000003</ele>
        <time>2023-08-26T16:21:59Z</time>
      </trkpt>
      <trkpt lat="57.297708978876472" lon="-6.201477041468024">
        <ele>78.969999999999999</ele>
        <time>2023-08-26T16:22:00Z</time>
      </trkpt>
      <trkpt lat="57.297582998871803" lon="-6.201175041496754">
        <ele>78.969999999999999</ele>
        <time>2023-08-26T16:22:01Z</time>
      </trkpt>
      <trkpt lat="57.296217000111938" lon="-6.198165016248822">
        <ele>79.450000000000003</ele>
        <time>2023-08-26T16:22:11Z</time>
      </trkpt>
      <trkpt lat="57.294984022155404" lon="-6.196098038926721">
        <ele>81.370000000000005</ele>
        <time>2023-08-26T16:22:19Z</time>
      </trkpt>
      <trkpt lat="57.294465014711022" lon="-6.193966018036008">
        <ele>81.370000000000005</ele>
        <time>2023-08-26T16:22:25Z</time>
      </trkpt>
      <trkpt lat="57.293824972584844" lon="-6.190958004444838">
        <ele>77.519999999999996</ele>
        <time>2023-08-26T16:22:33Z</time>
      </trkpt>
      <trkpt lat="57.292484035715461" lon="-6.188241010531783">
        <ele>72.239999999999995</ele>
        <time>2023-08-26T16:22:42Z</time>
      </trkpt>
      <trkpt lat="57.291105967015028" lon="-6.1867740098387">
        <ele>65.030000000000001</ele>
        <time>2023-08-26T16:22:49Z</time>
      </trkpt>
      <trkpt lat="57.289851028472185" lon="-6.185833979398012">
        <ele>57.82</ele>
        <time>2023-08-26T16:22:56Z</time>
      </trkpt>
      <trkpt lat="57.289008982479572" lon="-6.184552973136306">
        <ele>52.530000000000001</ele>
        <time>2023-08-26T16:23:04Z</time>
      </trkpt>
      <trkpt lat="57.288559963926673" lon="-6.182761006057262">
        <ele>47.719999999999999</ele>
        <time>2023-08-26T16:23:10Z</time>
      </trkpt>
      <trkpt lat="57.288276990875602" lon="-6.179886013269424">
        <ele>40.030000000000001</ele>
        <time>2023-08-26T16:23:18Z</time>
      </trkpt>
      <trkpt lat="57.288301968947053" lon="-6.179599016904831">
        <ele>39.07</ele>
        <time>2023-08-26T16:23:19Z</time>
      </trkpt>
      <trkpt lat="57.288335999473929" lon="-6.179329035803676">
        <ele>38.109999999999999</ele>
        <time>2023-08-26T16:23:20Z</time>
      </trkpt>
      <trkpt lat="57.288369024172425" lon="-6.179062994197011">
        <ele>36.670000000000002</ele>
        <time>2023-08-26T16:23:21Z</time>
      </trkpt>
      <trkpt lat="57.288401965051889" lon="-6.178800975903869">
        <ele>35.710000000000001</ele>
        <time>2023-08-26T16:23:22Z</time>
      </trkpt>
      <trkpt lat="57.288472959771752" lon="-6.178564019501209">
        <ele>34.740000000000002</ele>
        <time>2023-08-26T16:23:23Z</time>
      </trkpt>
      <trkpt lat="57.288548983633518" lon="-6.178313987329602">
        <ele>33.780000000000001</ele>
        <time>2023-08-26T16:23:24Z</time>
      </trkpt>
      <trkpt lat="57.288625007495284" lon="-6.178060015663505">
        <ele>32.82</ele>
        <time>2023-08-26T16:23:25Z</time>
      </trkpt>
      <trkpt lat="57.289161030203104" lon="-6.176035031676292">
        <ele>24.649999999999999</ele>
        <time>2023-08-26T16:23:34Z</time>
      </trkpt>
      <trkpt lat="57.28943302296102" lon="-6.174493012949824">
        <ele>17.920000000000002</ele>
        <time>2023-08-26T16:23:41Z</time>
      </trkpt>
      <trkpt lat="57.289492031559348" lon="-6.17433400824666">
        <ele>16.960000000000001</ele>
        <time>2023-08-26T16:23:42Z</time>
      </trkpt>
      <trkpt lat="57.289551040157676" lon="-6.174193024635315">
        <ele>16.48</ele>
        <time>2023-08-26T16:23:43Z</time>
      </trkpt>
      <trkpt lat="57.289623040705919" lon="-6.174096968024969">
        <ele>16</ele>
        <time>2023-08-26T16:23:44Z</time>
      </trkpt>
      <trkpt lat="57.289701998233795" lon="-6.174014993011951">
        <ele>15.52</ele>
        <time>2023-08-26T16:23:45Z</time>
      </trkpt>
      <trkpt lat="57.289781039580703" lon="-6.173962019383907">
        <ele>15.039999999999999</ele>
        <time>2023-08-26T16:23:46Z</time>
      </trkpt>
      <trkpt lat="57.289865026250482" lon="-6.173943998292089">
        <ele>14.56</ele>
        <time>2023-08-26T16:23:47Z</time>
      </trkpt>
      <trkpt lat="57.289945995435119" lon="-6.173934023827314">
        <ele>14.08</ele>
        <time>2023-08-26T16:23:48Z</time>
      </trkpt>
      <trkpt lat="57.290025958791375" lon="-6.173924971371889">
        <ele>13.6</ele>
        <time>2023-08-26T16:23:49Z</time>
      </trkpt>
      <trkpt lat="57.290160991251469" lon="-6.173908961936832">
        <ele>13.119999999999999</ele>
        <time>2023-08-26T16:23:53Z</time>
      </trkpt>
      <trkpt lat="57.29029200039804" lon="-6.17392597720027">
        <ele>13.6</ele>
        <time>2023-08-26T16:23:59Z</time>
      </trkpt>
      <trkpt lat="57.290316978469491" lon="-6.17403301410377">
        <ele>13.6</ele>
        <time>2023-08-26T16:24:00Z</time>
      </trkpt>
      <trkpt lat="57.290351008996367" lon="-6.174181960523129">
        <ele>14.08</ele>
        <time>2023-08-26T16:24:01Z</time>
      </trkpt>
      <trkpt lat="57.290426027029753" lon="-6.174503993242979">
        <ele>14.56</ele>
        <time>2023-08-26T16:24:03Z</time>
      </trkpt>
      <trkpt lat="57.290755016729236" lon="-6.175519041717053">
        <ele>16.48</ele>
        <time>2023-08-26T16:24:12Z</time>
      </trkpt>
      <trkpt lat="57.290763985365629" lon="-6.175544019788504">
        <ele>16.960000000000001</ele>
        <time>2023-08-26T16:24:13Z</time>
      </trkpt>
      <trkpt lat="57.290763985365629" lon="-6.175544019788504">
        <ele>17.440000000000001</ele>
        <time>2023-08-26T16:24:19Z</time>
      </trkpt>
      <trkpt lat="57.290733978152275" lon="-6.175673017278314">
        <ele>17.440000000000001</ele>
        <time>2023-08-26T16:24:20Z</time>
      </trkpt>
      <trkpt lat="57.290705982595682" lon="-6.175682991743088">
        <ele>17.440000000000001</ele>
        <time>2023-08-26T16:24:21Z</time>
      </trkpt>
      <trkpt lat="57.290673041716218" lon="-6.175694977864623">
        <ele>17.920000000000002</ele>
        <time>2023-08-26T16:24:22Z</time>
      </trkpt>
      <trkpt lat="57.290640017017722" lon="-6.175706963986158">
        <ele>17.440000000000001</ele>
        <time>2023-08-26T16:24:23Z</time>
      </trkpt>
      <trkpt lat="57.290569022297859" lon="-6.175733031705022">
        <ele>17.440000000000001</ele>
        <time>2023-08-26T16:24:24Z</time>
      </trkpt>
      <trkpt lat="57.290562987327576" lon="-6.175726996734738">
        <ele>16.960000000000001</ele>
        <time>2023-08-26T16:24:25Z</time>
      </trkpt>
      <trkpt lat="57.290562987327576" lon="-6.175726996734738">
        <ele>16.48</ele>
        <time>2023-08-26T16:24:39Z</time>
      </trkpt>
      <trkpt lat="57.290562987327576" lon="-6.175726996734738">
        <ele>16</ele>
        <time>2023-08-26T16:24:58Z</time>
      </trkpt>
      <trkpt lat="57.290562987327576" lon="-6.175726996734738">
        <ele>15.52</ele>
        <time>2023-08-26T16:25:30Z</time>
      </trkpt>
      <trkpt lat="57.290562987327576" lon="-6.175726996734738">
        <ele>16.48</ele>
        <time>2023-08-26T16:25:45Z</time>
      </trkpt>
      <trkpt lat="57.290501967072487" lon="-6.175803020596504">
        <ele>11.19</ele>
        <time>2023-08-26T17:34:23Z</time>
      </trkpt>
      <trkpt lat="57.290471037849784" lon="-6.175548965111375">
        <ele>16</ele>
        <time>2023-08-26T17:34:57Z</time>
      </trkpt>
      <trkpt lat="57.290468020364642" lon="-6.175571009516716">
        <ele>14.56</ele>
        <time>2023-08-26T17:35:36Z</time>
      </trkpt>
      <trkpt lat="57.290466008707881" lon="-6.175581989809871">
        <ele>13.119999999999999</ele>
        <time>2023-08-26T17:36:02Z</time>
      </trkpt>
      <trkpt lat="57.290460979565978" lon="-6.17566698230803">
        <ele>13.119999999999999</ele>
        <time>2023-08-26T17:36:05Z</time>
      </trkpt>
      <trkpt lat="57.290417980402708" lon="-6.175648039206862">
        <ele>14.08</ele>
        <time>2023-08-26T17:36:14Z</time>
      </trkpt>
      <trkpt lat="57.290468020364642" lon="-6.17562297731638">
        <ele>16</ele>
        <time>2023-08-26T17:36:21Z</time>
      </trkpt>
      <trkpt lat="57.290491992607713" lon="-6.175648961216211">
        <ele>15.52</ele>
        <time>2023-08-26T17:36:22Z</time>
      </trkpt>
      <trkpt lat="57.290524011477828" lon="-6.175683997571468">
        <ele>15.52</ele>
        <time>2023-08-26T17:36:23Z</time>
      </trkpt>
      <trkpt lat="57.290563993155956" lon="-6.175726996734738">
        <ele>15.52</ele>
        <time>2023-08-26T17:36:24Z</time>
      </trkpt>
      <trkpt lat="57.290627025067806" lon="-6.175711993128061">
        <ele>15.039999999999999</ele>
        <time>2023-08-26T17:36:25Z</time>
      </trkpt>
      <trkpt lat="57.290674969553947" lon="-6.175693972036243">
        <ele>15.039999999999999</ele>
        <time>2023-08-26T17:36:26Z</time>
      </trkpt>
      <trkpt lat="57.290710005909204" lon="-6.175680980086327">
        <ele>15.039999999999999</ele>
        <time>2023-08-26T17:36:27Z</time>
      </trkpt>
      <trkpt lat="57.290732972323895" lon="-6.175673017278314">
        <ele>15.52</ele>
        <time>2023-08-26T17:36:28Z</time>
      </trkpt>
      <trkpt lat="57.290754010900855" lon="-6.17566597647965">
        <ele>15.52</ele>
        <time>2023-08-26T17:36:29Z</time>
      </trkpt>
      <trkpt lat="57.290757028385997" lon="-6.175523987039924">
        <ele>15.039999999999999</ele>
        <time>2023-08-26T17:36:30Z</time>
      </trkpt>
      <trkpt lat="57.29072199203074" lon="-6.175436982885003">
        <ele>15.039999999999999</ele>
        <time>2023-08-26T17:36:31Z</time>
      </trkpt>
      <trkpt lat="57.290677987039089" lon="-6.17532298900187">
        <ele>15.039999999999999</ele>
        <time>2023-08-26T17:36:32Z</time>
      </trkpt>
      <trkpt lat="57.290627025067806" lon="-6.17519399151206">
        <ele>15.039999999999999</ele>
        <time>2023-08-26T17:36:33Z</time>
      </trkpt>
      <trkpt lat="57.290326030924916" lon="-6.174069978296757">
        <ele>14.56</ele>
        <time>2023-08-26T17:36:40Z</time>
      </trkpt>
      <trkpt lat="57.290303986519575" lon="-6.173977022990584">
        <ele>14.08</ele>
        <time>2023-08-26T17:36:41Z</time>
      </trkpt>
      <trkpt lat="57.290284959599376" lon="-6.173894964158535">
        <ele>14.08</ele>
        <time>2023-08-26T17:36:42Z</time>
      </trkpt>
      <trkpt lat="57.290160991251469" lon="-6.173908961936832">
        <ele>13.6</ele>
        <time>2023-08-26T17:36:43Z</time>
      </trkpt>
      <trkpt lat="57.290145987644792" lon="-6.173909967765212">
        <ele>13.119999999999999</ele>
        <time>2023-08-26T17:36:44Z</time>
      </trkpt>
      <trkpt lat="57.290066024288535" lon="-6.173920026049018">
        <ele>13.119999999999999</ele>
        <time>2023-08-26T17:36:45Z</time>
      </trkpt>
      <trkpt lat="57.289679031819105" lon="-6.174029996618629">
        <ele>11.19</ele>
        <time>2023-08-26T17:36:49Z</time>
      </trkpt>
      <trkpt lat="57.289593033492565" lon="-6.174137033522129">
        <ele>11.19</ele>
        <time>2023-08-26T17:36:50Z</time>
      </trkpt>
      <trkpt lat="57.289517009630799" lon="-6.174268964678049">
        <ele>11.67</ele>
        <time>2023-08-26T17:36:51Z</time>
      </trkpt>
      <trkpt lat="57.289450960233808" lon="-6.174444984644651">
        <ele>11.67</ele>
        <time>2023-08-26T17:36:52Z</time>
      </trkpt>
      <trkpt lat="57.289396980777383" lon="-6.174628967419267">
        <ele>12.15</ele>
        <time>2023-08-26T17:36:53Z</time>
      </trkpt>
      <trkpt lat="57.289362028241158" lon="-6.174841029569507">
        <ele>12.630000000000001</ele>
        <time>2023-08-26T17:36:54Z</time>
      </trkpt>
      <trkpt lat="57.289033038541675" lon="-6.176702985540032">
        <ele>16.48</ele>
        <time>2023-08-26T17:37:03Z</time>
      </trkpt>
      <trkpt lat="57.288415040820837" lon="-6.178757976740599">
        <ele>22.25</ele>
        <time>2023-08-26T17:37:12Z</time>
      </trkpt>
      <trkpt lat="57.288295011967421" lon="-6.17966003715992">
        <ele>24.649999999999999</ele>
        <time>2023-08-26T17:37:15Z</time>
      </trkpt>
      <trkpt lat="57.288284031674266" lon="-6.179969999939203">
        <ele>25.609999999999999</ele>
        <time>2023-08-26T17:37:16Z</time>
      </trkpt>
      <trkpt lat="57.288310015574098" lon="-6.180290021002293">
        <ele>26.57</ele>
        <time>2023-08-26T17:37:17Z</time>
      </trkpt>
      <trkpt lat="57.288335999473929" lon="-6.180614987388253">
        <ele>27.530000000000001</ele>
        <time>2023-08-26T17:37:18Z</time>
      </trkpt>
      <trkpt lat="57.288361983373761" lon="-6.180938025936484">
        <ele>28.5</ele>
        <time>2023-08-26T17:37:19Z</time>
      </trkpt>
      <trkpt lat="57.288650991395116" lon="-6.183383027091622">
        <ele>38.109999999999999</ele>
        <time>2023-08-26T17:37:28Z</time>
      </trkpt>
      <trkpt lat="57.289210986346006" lon="-6.18492697365582">
        <ele>44.359999999999999</ele>
        <time>2023-08-26T17:37:34Z</time>
      </trkpt>
      <trkpt lat="57.290113968774676" lon="-6.18610798381269">
        <ele>51.57</ele>
        <time>2023-08-26T17:37:40Z</time>
      </trkpt>
      <trkpt lat="57.29190300218761" lon="-6.187473982572556">
        <ele>63.100000000000001</ele>
        <time>2023-08-26T17:37:50Z</time>
      </trkpt>
      <trkpt lat="57.293160036206245" lon="-6.1893539596349">
        <ele>69.349999999999994</ele>
        <time>2023-08-26T17:37:58Z</time>
      </trkpt>
      <trkpt lat="57.294212970882654" lon="-6.192283015698195">
        <ele>74.640000000000001</ele>
        <time>2023-08-26T17:38:07Z</time>
      </trkpt>
      <trkpt lat="57.294689984992146" lon="-6.195168988779187">
        <ele>78.969999999999999</ele>
        <time>2023-08-26T17:38:15Z</time>
      </trkpt>
      <trkpt lat="57.295324997976422" lon="-6.196870012208819">
        <ele>80.409999999999997</ele>
        <time>2023-08-26T17:38:21Z</time>
      </trkpt>
      <trkpt lat="57.296478012576699" lon="-6.198616968467832">
        <ele>79.930000000000007</ele>
        <time>2023-08-26T17:38:29Z</time>
      </trkpt>
      <trkpt lat="57.297399016097188" lon="-6.200733985751867">
        <ele>77.519999999999996</ele>
        <time>2023-08-26T17:38:37Z</time>
      </trkpt>
      <trkpt lat="57.297950964421034" lon="-6.202024966478348">
        <ele>76.560000000000002</ele>
        <time>2023-08-26T17:38:42Z</time>
      </trkpt>
      <trkpt lat="57.298084991052747" lon="-6.202244991436601">
        <ele>76.560000000000002</ele>
        <time>2023-08-26T17:38:43Z</time>
      </trkpt>
      <trkpt lat="57.298223963007331" lon="-6.202466022223234">
        <ele>77.040000000000006</ele>
        <time>2023-08-26T17:38:44Z</time>
      </trkpt>
      <trkpt lat="57.298378022387624" lon="-6.202643970027566">
        <ele>77.040000000000006</ele>
        <time>2023-08-26T17:38:45Z</time>
      </trkpt>
      <trkpt lat="57.298535015434027" lon="-6.202798029407859">
        <ele>77.040000000000006</ele>
        <time>2023-08-26T17:38:46Z</time>
      </trkpt>
      <trkpt lat="57.298702988773584" lon="-6.202900037169457">
        <ele>77.040000000000006</ele>
        <time>2023-08-26T17:38:47Z</time>
      </trkpt>
      <trkpt lat="57.298870962113142" lon="-6.203001039102674">
        <ele>77.519999999999996</ele>
        <time>2023-08-26T17:38:48Z</time>
      </trkpt>
      <trkpt lat="57.29903600178659" lon="-6.203100029379129">
        <ele>77.519999999999996</ele>
        <time>2023-08-26T17:38:49Z</time>
      </trkpt>
      <trkpt lat="57.300471989437938" lon="-6.204191017895937">
        <ele>78</ele>
        <time>2023-08-26T17:38:58Z</time>
      </trkpt>
      <trkpt lat="57.301510004326701" lon="-6.206008968874812">
        <ele>77.519999999999996</ele>
        <time>2023-08-26T17:39:06Z</time>
      </trkpt>
      <trkpt lat="57.302635023370385" lon="-6.20858296751976">
        <ele>76.079999999999998</ele>
        <time>2023-08-26T17:39:16Z</time>
      </trkpt>
      <trkpt lat="57.304162038490176" lon="-6.211823998019099">
        <ele>71.760000000000005</ele>
        <time>2023-08-26T17:39:28Z</time>
      </trkpt>
      <trkpt lat="57.30490299873054" lon="-6.214036988094449">
        <ele>66.469999999999999</ele>
        <time>2023-08-26T17:39:35Z</time>
      </trkpt>
      <trkpt lat="57.305312035605311" lon="-6.216633031144738">
        <ele>61.659999999999997</ele>
        <time>2023-08-26T17:39:41Z</time>
      </trkpt>
      <trkpt lat="57.305846968665719" lon="-6.220431961119175">
        <ele>55.890000000000001</ele>
        <time>2023-08-26T17:39:49Z</time>
      </trkpt>
      <trkpt lat="57.306291041895747" lon="-6.224280009046197">
        <ele>50.609999999999999</ele>
        <time>2023-08-26T17:39:58Z</time>
      </trkpt>
      <trkpt lat="57.306231027469039" lon="-6.228314973413944">
        <ele>48.200000000000003</ele>
        <time>2023-08-26T17:40:07Z</time>
      </trkpt>
      <trkpt lat="57.305873958393931" lon="-6.23260198161006">
        <ele>45.32</ele>
        <time>2023-08-26T17:40:17Z</time>
      </trkpt>
      <trkpt lat="57.305316980928183" lon="-6.236363025382161">
        <ele>42.920000000000002</ele>
        <time>2023-08-26T17:40:26Z</time>
      </trkpt>
      <trkpt lat="57.304427996277809" lon="-6.242216024547815">
        <ele>38.109999999999999</ele>
        <time>2023-08-26T17:40:40Z</time>
      </trkpt>
      <trkpt lat="57.303703967481852" lon="-6.245328979566693">
        <ele>36.189999999999998</ele>
        <time>2023-08-26T17:40:48Z</time>
      </trkpt>
      <trkpt lat="57.302479958161712" lon="-6.248707976192236">
        <ele>35.710000000000001</ele>
        <time>2023-08-26T17:40:58Z</time>
      </trkpt>
      <trkpt lat="57.300984039902687" lon="-6.252748975530267">
        <ele>35.229999999999997</ele>
        <time>2023-08-26T17:41:10Z</time>
      </trkpt>
      <trkpt lat="57.299024015665054" lon="-6.258435007184744">
        <ele>31.859999999999999</ele>
        <time>2023-08-26T17:41:25Z</time>
      </trkpt>
      <trkpt lat="57.297779973596334" lon="-6.262576002627611">
        <ele>30.420000000000002</ele>
        <time>2023-08-26T17:41:36Z</time>
      </trkpt>
      <trkpt lat="57.2971479780972" lon="-6.26633201725781">
        <ele>27.530000000000001</ele>
        <time>2023-08-26T17:41:45Z</time>
      </trkpt>
      <trkpt lat="57.296933988109231" lon="-6.270580971613526">
        <ele>24.649999999999999</ele>
        <time>2023-08-26T17:41:55Z</time>
      </trkpt>
      <trkpt lat="57.2968889772892" lon="-6.277451030910015">
        <ele>19.359999999999999</ele>
        <time>2023-08-26T17:42:11Z</time>
      </trkpt>
      <trkpt lat="57.29708201251924" lon="-6.282401969656348">
        <ele>23.690000000000001</ele>
        <time>2023-08-26T17:42:23Z</time>
      </trkpt>
      <trkpt lat="57.29770696721971" lon="-6.287714000791311">
        <ele>28.98</ele>
        <time>2023-08-26T17:42:36Z</time>
      </trkpt>
      <trkpt lat="57.298315996304154" lon="-6.290947990491986">
        <ele>30.899999999999999</ele>
        <time>2023-08-26T17:42:44Z</time>
      </trkpt>
      <trkpt lat="57.298621013760567" lon="-6.29205197095871">
        <ele>31.379999999999999</ele>
        <time>2023-08-26T17:42:47Z</time>
      </trkpt>
      <trkpt lat="57.298753028735518" lon="-6.292371992021799">
        <ele>31.379999999999999</ele>
        <time>2023-08-26T17:42:48Z</time>
      </trkpt>
      <trkpt lat="57.300102012231946" lon="-6.29501698538661">
        <ele>36.189999999999998</ele>
        <time>2023-08-26T17:42:57Z</time>
      </trkpt>
      <trkpt lat="57.301337001845241" lon="-6.296739969402552">
        <ele>42.439999999999998</ele>
        <time>2023-08-26T17:43:04Z</time>
      </trkpt>
      <trkpt lat="57.302748011425138" lon="-6.299097966402769">
        <ele>51.57</ele>
        <time>2023-08-26T17:43:13Z</time>
      </trkpt>
      <trkpt lat="57.302892012521625" lon="-6.299269963055849">
        <ele>53.009999999999998</ele>
        <time>2023-08-26T17:43:14Z</time>
      </trkpt>
      <trkpt lat="57.30301396921277" lon="-6.299414969980717">
        <ele>54.450000000000003</ele>
        <time>2023-08-26T17:43:15Z</time>
      </trkpt>
      <trkpt lat="57.303199041634798" lon="-6.299501974135637">
        <ele>55.409999999999997</ele>
        <time>2023-08-26T17:43:16Z</time>
      </trkpt>
      <trkpt lat="57.30335502885282" lon="-6.299574980512261">
        <ele>56.859999999999999</ele>
        <time>2023-08-26T17:43:17Z</time>
      </trkpt>
      <trkpt lat="57.303510010242462" lon="-6.299575986340642">
        <ele>57.82</ele>
        <time>2023-08-26T17:43:18Z</time>
      </trkpt>
      <trkpt lat="57.303670020774007" lon="-6.299557965248823">
        <ele>58.780000000000001</ele>
        <time>2023-08-26T17:43:19Z</time>
      </trkpt>
      <trkpt lat="57.303833970800042" lon="-6.29946299828589">
        <ele>59.740000000000002</ele>
        <time>2023-08-26T17:43:20Z</time>
      </trkpt>
      <trkpt lat="57.304001022130251" lon="-6.299366019666195">
        <ele>60.700000000000003</ele>
        <time>2023-08-26T17:43:21Z</time>
      </trkpt>
      <trkpt lat="57.304159021005034" lon="-6.299273986369371">
        <ele>61.18</ele>
        <time>2023-08-26T17:43:22Z</time>
      </trkpt>
      <trkpt lat="57.304297992959619" lon="-6.299194023013115">
        <ele>61.659999999999997</ele>
        <time>2023-08-26T17:43:23Z</time>
      </trkpt>
      <trkpt lat="57.304421039298177" lon="-6.299179019406438">
        <ele>62.619999999999997</ele>
        <time>2023-08-26T17:43:24Z</time>
      </trkpt>
      <trkpt lat="57.304532015696168" lon="-6.299203997477889">
        <ele>63.100000000000001</ele>
        <time>2023-08-26T17:43:25Z</time>
      </trkpt>
      <trkpt lat="57.304638968780637" lon="-6.299279015511274">
        <ele>63.579999999999998</ele>
        <time>2023-08-26T17:43:26Z</time>
      </trkpt>
      <trkpt lat="57.3047099635005" lon="-6.299328971654177">
        <ele>64.069999999999993</ele>
        <time>2023-08-26T17:43:27Z</time>
      </trkpt>
      <trkpt lat="57.304805014282465" lon="-6.299532987177372">
        <ele>64.549999999999997</ele>
        <time>2023-08-26T17:43:28Z</time>
      </trkpt>
      <trkpt lat="57.304863017052412" lon="-6.29967899993062">
        <ele>65.030000000000001</ele>
        <time>2023-08-26T17:43:29Z</time>
      </trkpt>
      <trkpt lat="57.304889000952244" lon="-6.299903970211744">
        <ele>65.030000000000001</ele>
        <time>2023-08-26T17:43:30Z</time>
      </trkpt>
      <trkpt lat="57.304916996508837" lon="-6.30015098489821">
        <ele>65.510000000000005</ele>
        <time>2023-08-26T17:43:31Z</time>
      </trkpt>
      <trkpt lat="57.304890006780624" lon="-6.300402022898197">
        <ele>65.989999999999995</ele>
        <time>2023-08-26T17:43:32Z</time>
      </trkpt>
      <trkpt lat="57.30483703315258" lon="-6.300697987899184">
        <ele>65.989999999999995</ele>
        <time>2023-08-26T17:43:33Z</time>
      </trkpt>
      <trkpt lat="57.304780958220363" lon="-6.3010080344975">
        <ele>66.469999999999999</ele>
        <time>2023-08-26T17:43:34Z</time>
      </trkpt>
      <trkpt lat="57.304391032084823" lon="-6.304038008674979">
        <ele>71.269999999999996</ele>
        <time>2023-08-26T17:43:43Z</time>
      </trkpt>
      <trkpt lat="57.304563028737903" lon="-6.305782031267881">
        <ele>75.120000000000005</ele>
        <time>2023-08-26T17:43:48Z</time>
      </trkpt>
      <trkpt lat="57.30464500375092" lon="-6.306110015138984">
        <ele>76.079999999999998</ele>
        <time>2023-08-26T17:43:49Z</time>
      </trkpt>
      <trkpt lat="57.304734019562602" lon="-6.306429030373693">
        <ele>77.040000000000006</ele>
        <time>2023-08-26T17:43:50Z</time>
      </trkpt>
      <trkpt lat="57.304844995960593" lon="-6.306714015081525">
        <ele>78</ele>
        <time>2023-08-26T17:43:51Z</time>
      </trkpt>
      <trkpt lat="57.30496795848012" lon="-6.306963041424751">
        <ele>78.969999999999999</ele>
        <time>2023-08-26T17:43:52Z</time>
      </trkpt>
      <trkpt lat="57.30509796179831" lon="-6.307169990614057">
        <ele>79.930000000000007</ele>
        <time>2023-08-26T17:43:53Z</time>
      </trkpt>
      <trkpt lat="57.305235005915165" lon="-6.307322038337588">
        <ele>80.890000000000001</ele>
        <time>2023-08-26T17:43:54Z</time>
      </trkpt>
      <trkpt lat="57.305383030325174" lon="-6.307428991422057">
        <ele>81.849999999999994</ele>
        <time>2023-08-26T17:43:55Z</time>
      </trkpt>
      <trkpt lat="57.305526025593281" lon="-6.307532005012035">
        <ele>82.810000000000002</ele>
        <time>2023-08-26T17:43:56Z</time>
      </trkpt>
      <trkpt lat="57.305668015033007" lon="-6.307571986690164">
        <ele>84.25</ele>
        <time>2023-08-26T17:43:57Z</time>
      </trkpt>
      <trkpt lat="57.305806986987591" lon="-6.307600988075137">
        <ele>85.209999999999994</ele>
        <time>2023-08-26T17:43:58Z</time>
      </trkpt>
      <trkpt lat="57.305941013619304" lon="-6.30762898363173">
        <ele>86.180000000000007</ele>
        <time>2023-08-26T17:43:59Z</time>
      </trkpt>
      <trkpt lat="57.306061964482069" lon="-6.307653961703181">
        <ele>87.140000000000001</ele>
        <time>2023-08-26T17:44:00Z</time>
      </trkpt>
      <trkpt lat="57.306167995557189" lon="-6.307676006108522">
        <ele>87.620000000000005</ele>
        <time>2023-08-26T17:44:01Z</time>
      </trkpt>
      <trkpt lat="57.306236978620291" lon="-6.307811960577965">
        <ele>88.099999999999994</ele>
        <time>2023-08-26T17:44:02Z</time>
      </trkpt>
      <trkpt lat="57.306296993046999" lon="-6.307932995259762">
        <ele>88.579999999999998</ele>
        <time>2023-08-26T17:44:03Z</time>
      </trkpt>
      <trkpt lat="57.306319959461689" lon="-6.308113038539887">
        <ele>88.579999999999998</ele>
        <time>2023-08-26T17:44:04Z</time>
      </trkpt>
      <trkpt lat="57.306338986381888" lon="-6.308290986344218">
        <ele>89.060000000000002</ele>
        <time>2023-08-26T17:44:05Z</time>
      </trkpt>
      <trkpt lat="57.30631903745234" lon="-6.308470023795962">
        <ele>89.060000000000002</ele>
        <time>2023-08-26T17:44:06Z</time>
      </trkpt>
      <trkpt lat="57.306249970570207" lon="-6.308642020449042">
        <ele>89.540000000000006</ele>
        <time>2023-08-26T17:44:07Z</time>
      </trkpt>
      <trkpt lat="57.306171013042331" lon="-6.308815022930503">
        <ele>90.019999999999996</ele>
        <time>2023-08-26T17:44:08Z</time>
      </trkpt>
      <trkpt lat="57.306060958653688" lon="-6.308943014591932">
        <ele>90.5</ele>
        <time>2023-08-26T17:44:09Z</time>
      </trkpt>
      <trkpt lat="57.305946964770555" lon="-6.309077041223645">
        <ele>90.980000000000004</ele>
        <time>2023-08-26T17:44:10Z</time>
      </trkpt>
      <trkpt lat="57.305830037221313" lon="-6.309214001521468">
        <ele>91.459999999999994</ele>
        <time>2023-08-26T17:44:11Z</time>
      </trkpt>
      <trkpt lat="57.305583022534847" lon="-6.309503009542823">
        <ele>91.939999999999998</ele>
        <time>2023-08-26T17:44:13Z</time>
      </trkpt>
      <trkpt lat="57.305474979802966" lon="-6.309686992317438">
        <ele>92.420000000000002</ele>
        <time>2023-08-26T17:44:14Z</time>
      </trkpt>
      <trkpt lat="57.305369032546878" lon="-6.309879021719098">
        <ele>93.390000000000001</ele>
        <time>2023-08-26T17:44:15Z</time>
      </trkpt>
      <trkpt lat="57.305284040048718" lon="-6.310110026970506">
        <ele>93.870000000000005</ele>
        <time>2023-08-26T17:44:16Z</time>
      </trkpt>
      <trkpt lat="57.305212039500475" lon="-6.310357041656971">
        <ele>94.829999999999998</ele>
        <time>2023-08-26T17:44:17Z</time>
      </trkpt>
      <trkpt lat="57.305167028680444" lon="-6.310645965859294">
        <ele>95.790000000000006</ele>
        <time>2023-08-26T17:44:18Z</time>
      </trkpt>
      <trkpt lat="57.305120006203651" lon="-6.310952994972467">
        <ele>96.75</ele>
        <time>2023-08-26T17:44:19Z</time>
      </trkpt>
      <trkpt lat="57.305108020082116" lon="-6.311271004378796">
        <ele>97.709999999999994</ele>
        <time>2023-08-26T17:44:20Z</time>
      </trkpt>
      <trkpt lat="57.305132998153567" lon="-6.311599994078279">
        <ele>98.670000000000002</ele>
        <time>2023-08-26T17:44:21Z</time>
      </trkpt>
      <trkpt lat="57.305157976225019" lon="-6.311938958242536">
        <ele>99.629999999999995</ele>
        <time>2023-08-26T17:44:22Z</time>
      </trkpt>
      <trkpt lat="57.305191000923514" lon="-6.312286974862218">
        <ele>100.59999999999999</ele>
        <time>2023-08-26T17:44:23Z</time>
      </trkpt>
      <trkpt lat="57.30526702478528" lon="-6.312613030895591">
        <ele>101.56</ele>
        <time>2023-08-26T17:44:24Z</time>
      </trkpt>
      <trkpt lat="57.305350005626678" lon="-6.312943026423454">
        <ele>102.52</ele>
        <time>2023-08-26T17:44:25Z</time>
      </trkpt>
      <trkpt lat="57.305458970367908" lon="-6.313250977545977">
        <ele>103.95999999999999</ele>
        <time>2023-08-26T17:44:26Z</time>
      </trkpt>
      <trkpt lat="57.30556801892817" lon="-6.313560018315911">
        <ele>105.40000000000001</ele>
        <time>2023-08-26T17:44:27Z</time>
      </trkpt>
      <trkpt lat="57.305701039731503" lon="-6.313829999417067">
        <ele>106.36</ele>
        <time>2023-08-26T17:44:28Z</time>
      </trkpt>
      <trkpt lat="57.30584504082799" lon="-6.314099980518222">
        <ele>108.29000000000001</ele>
        <time>2023-08-26T17:44:29Z</time>
      </trkpt>
      <trkpt lat="57.305990969762206" lon="-6.3143739849329">
        <ele>109.73</ele>
        <time>2023-08-26T17:44:30Z</time>
      </trkpt>
      <trkpt lat="57.30614704079926" lon="-6.314636003226042">
        <ele>111.17</ele>
        <time>2023-08-26T17:44:31Z</time>
      </trkpt>
      <trkpt lat="57.306334041059017" lon="-6.314858039841056">
        <ele>113.09</ele>
        <time>2023-08-26T17:44:32Z</time>
      </trkpt>
      <trkpt lat="57.30653302744031" lon="-6.315068006515503">
        <ele>114.53</ele>
        <time>2023-08-26T17:44:33Z</time>
      </trkpt>
      <trkpt lat="57.308400012552738" lon="-6.316886963322759">
        <ele>128.47</ele>
        <time>2023-08-26T17:44:42Z</time>
      </trkpt>
      <trkpt lat="57.309871958568692" lon="-6.317950962111354">
        <ele>138.09</ele>
        <time>2023-08-26T17:44:49Z</time>
      </trkpt>
      <trkpt lat="57.312562968581915" lon="-6.319368006661534">
        <ele>152.99000000000001</ele>
        <time>2023-08-26T17:45:01Z</time>
      </trkpt>
      <trkpt lat="57.315520020201802" lon="-6.320489002391696">
        <ele>157.78999999999999</ele>
        <time>2023-08-26T17:45:14Z</time>
      </trkpt>
      <trkpt lat="57.317939959466457" lon="-6.322051975876093">
        <ele>155.38999999999999</ele>
        <time>2023-08-26T17:45:25Z</time>
      </trkpt>
      <trkpt lat="57.319772997871041" lon="-6.324037984013557">
        <ele>144.81999999999999</ele>
        <time>2023-08-26T17:45:34Z</time>
      </trkpt>
      <trkpt lat="57.320299968123436" lon="-6.324855973944068">
        <ele>141.44999999999999</ele>
        <time>2023-08-26T17:45:37Z</time>
      </trkpt>
      <trkpt lat="57.321453988552094" lon="-6.327354032546282">
        <ele>131.84</ele>
        <time>2023-08-26T17:45:45Z</time>
      </trkpt>
      <trkpt lat="57.322903973981738" lon="-6.329553024843335">
        <ele>122.70999999999999</ele>
        <time>2023-08-26T17:45:53Z</time>
      </trkpt>
      <trkpt lat="57.324980003759265" lon="-6.332257026806474">
        <ele>111.17</ele>
        <time>2023-08-26T17:46:04Z</time>
      </trkpt>
      <trkpt lat="57.326404005289078" lon="-6.33317400701344">
        <ele>106.36</ele>
        <time>2023-08-26T17:46:11Z</time>
      </trkpt>
      <trkpt lat="57.328164959326386" lon="-6.333686979487538">
        <ele>103.48</ele>
        <time>2023-08-26T17:46:20Z</time>
      </trkpt>
      <trkpt lat="57.328312983736396" lon="-6.333768032491207">
        <ele>103</ele>
        <time>2023-08-26T17:46:21Z</time>
      </trkpt>
      <trkpt lat="57.328485986217856" lon="-6.333929970860481">
        <ele>102.52</ele>
        <time>2023-08-26T17:46:22Z</time>
      </trkpt>
      <trkpt lat="57.328641973435879" lon="-6.33407698944211">
        <ele>102.52</ele>
        <time>2023-08-26T17:46:23Z</time>
      </trkpt>
      <trkpt lat="57.328764013946056" lon="-6.334304977208376">
        <ele>102.04000000000001</ele>
        <time>2023-08-26T17:46:24Z</time>
      </trkpt>
      <trkpt lat="57.328883958980441" lon="-6.334545034915209">
        <ele>102.04000000000001</ele>
        <time>2023-08-26T17:46:25Z</time>
      </trkpt>
      <trkpt lat="57.329005999490619" lon="-6.334790037944913">
        <ele>101.56</ele>
        <time>2023-08-26T17:46:26Z</time>
      </trkpt>
      <trkpt lat="57.329093003645539" lon="-6.335090026259422">
        <ele>101.56</ele>
        <time>2023-08-26T17:46:27Z</time>
      </trkpt>
      <trkpt lat="57.329174978658557" lon="-6.335394037887454">
        <ele>101.56</ele>
        <time>2023-08-26T17:46:28Z</time>
      </trkpt>
      <trkpt lat="57.329256031662226" lon="-6.335698971524835">
        <ele>101.08</ele>
        <time>2023-08-26T17:46:29Z</time>
      </trkpt>
      <trkpt lat="57.330175023525953" lon="-6.338645964860916">
        <ele>104.44</ele>
        <time>2023-08-26T17:46:39Z</time>
      </trkpt>
      <trkpt lat="57.330931993201375" lon="-6.341420961543918">
        <ele>108.77</ele>
        <time>2023-08-26T17:46:48Z</time>
      </trkpt>
      <trkpt lat="57.332135969772935" lon="-6.34518401697278">
        <ele>120.3</ele>
        <time>2023-08-26T17:47:00Z</time>
      </trkpt>
      <trkpt lat="57.333447989076376" lon="-6.348376013338566">
        <ele>126.06999999999999</ele>
        <time>2023-08-26T17:47:10Z</time>
      </trkpt>
      <trkpt lat="57.335072988644242" lon="-6.351068029180169">
        <ele>120.3</ele>
        <time>2023-08-26T17:47:20Z</time>
      </trkpt>
      <trkpt lat="57.337707001715899" lon="-6.354752965271473">
        <ele>112.13</ele>
        <time>2023-08-26T17:47:35Z</time>
      </trkpt>
      <trkpt lat="57.3393630143255" lon="-6.357556963339448">
        <ele>104.44</ele>
        <time>2023-08-26T17:47:45Z</time>
      </trkpt>
      <trkpt lat="57.341056996956468" lon="-6.362083023414016">
        <ele>89.060000000000002</ele>
        <time>2023-08-26T17:47:58Z</time>
      </trkpt>
      <trkpt lat="57.341342987492681" lon="-6.363005032762885">
        <ele>87.140000000000001</ele>
        <time>2023-08-26T17:48:01Z</time>
      </trkpt>
      <trkpt lat="57.341409958899021" lon="-6.363345002755523">
        <ele>86.659999999999997</ele>
        <time>2023-08-26T17:48:02Z</time>
      </trkpt>
      <trkpt lat="57.341462010517716" lon="-6.363701988011599">
        <ele>87.140000000000001</ele>
        <time>2023-08-26T17:48:03Z</time>
      </trkpt>
      <trkpt lat="57.341507021337748" lon="-6.364080011844635">
        <ele>87.140000000000001</ele>
        <time>2023-08-26T17:48:04Z</time>
      </trkpt>
      <trkpt lat="57.341493023559451" lon="-6.36445501819253">
        <ele>87.620000000000005</ele>
        <time>2023-08-26T17:48:05Z</time>
      </trkpt>
      <trkpt lat="57.341478019952774" lon="-6.364827007055283">
        <ele>88.099999999999994</ele>
        <time>2023-08-26T17:48:06Z</time>
      </trkpt>
      <trkpt lat="57.341451030224562" lon="-6.365200001746416">
        <ele>88.579999999999998</ele>
        <time>2023-08-26T17:48:07Z</time>
      </trkpt>
      <trkpt lat="57.341385986655951" lon="-6.36555296368897">
        <ele>89.060000000000002</ele>
        <time>2023-08-26T17:48:08Z</time>
      </trkpt>
      <trkpt lat="57.341320021077991" lon="-6.365911960601807">
        <ele>89.540000000000006</ele>
        <time>2023-08-26T17:48:09Z</time>
      </trkpt>
      <trkpt lat="57.340707974508405" lon="-6.369890011847019">
        <ele>90.980000000000004</ele>
        <time>2023-08-26T17:48:19Z</time>
      </trkpt>
      <trkpt lat="57.340323999524117" lon="-6.373471012338996">
        <ele>92.420000000000002</ele>
        <time>2023-08-26T17:48:28Z</time>
      </trkpt>
      <trkpt lat="57.340336991474032" lon="-6.373869990929961">
        <ele>92.420000000000002</ele>
        <time>2023-08-26T17:48:29Z</time>
      </trkpt>
      <trkpt lat="57.340385019779205" lon="-6.374266035854816">
        <ele>93.390000000000001</ele>
        <time>2023-08-26T17:48:30Z</time>
      </trkpt>
      <trkpt lat="57.340432964265347" lon="-6.374658979475498">
        <ele>94.349999999999994</ele>
        <time>2023-08-26T17:48:31Z</time>
      </trkpt>
      <trkpt lat="57.340508988127112" lon="-6.375025017186999">
        <ele>95.310000000000002</ele>
        <time>2023-08-26T17:48:32Z</time>
      </trkpt>
      <trkpt lat="57.340593980625272" lon="-6.375374039635062">
        <ele>96.75</ele>
        <time>2023-08-26T17:48:33Z</time>
      </trkpt>
      <trkpt lat="57.340705040842295" lon="-6.375698000192642">
        <ele>98.189999999999998</ele>
        <time>2023-08-26T17:48:34Z</time>
      </trkpt>
      <trkpt lat="57.340815011411905" lon="-6.376018021255732">
        <ele>99.629999999999995</ele>
        <time>2023-08-26T17:48:35Z</time>
      </trkpt>
      <trkpt lat="57.340949960052967" lon="-6.376286996528506">
        <ele>100.59999999999999</ele>
        <time>2023-08-26T17:48:36Z</time>
      </trkpt>
      <trkpt lat="57.341091027483344" lon="-6.376562006771565">
        <ele>102.04000000000001</ele>
        <time>2023-08-26T17:48:37Z</time>
      </trkpt>
      <trkpt lat="57.341231005266309" lon="-6.376833999529481">
        <ele>103.95999999999999</ele>
        <time>2023-08-26T17:48:38Z</time>
      </trkpt>
      <trkpt lat="57.341395961120725" lon="-6.377037009224296">
        <ele>105.40000000000001</ele>
        <time>2023-08-26T17:48:39Z</time>
      </trkpt>
      <trkpt lat="57.341566029936075" lon="-6.377244964241982">
        <ele>107.31999999999999</ele>
        <time>2023-08-26T17:48:40Z</time>
      </trkpt>
      <trkpt lat="57.341737020760775" lon="-6.37745400890708">
        <ele>108.77</ele>
        <time>2023-08-26T17:48:41Z</time>
      </trkpt>
      <trkpt lat="57.343583973124623" lon="-6.379791973158717">
        <ele>115.5</ele>
        <time>2023-08-26T17:48:52Z</time>
      </trkpt>
      <trkpt lat="57.345520025119185" lon="-6.38284700922668">
        <ele>100.11</ele>
        <time>2023-08-26T17:49:04Z</time>
      </trkpt>
      <trkpt lat="57.346505988389254" lon="-6.38456697575748">
        <ele>87.620000000000005</ele>
        <time>2023-08-26T17:49:11Z</time>
      </trkpt>
      <trkpt lat="57.346604978665709" lon="-6.384828994050622">
        <ele>85.689999999999998</ele>
        <time>2023-08-26T17:49:12Z</time>
      </trkpt>
      <trkpt lat="57.346678990870714" lon="-6.385114984586835">
        <ele>84.25</ele>
        <time>2023-08-26T17:49:13Z</time>
      </trkpt>
      <trkpt lat="57.346743028610945" lon="-6.385400975123048">
        <ele>82.810000000000002</ele>
        <time>2023-08-26T17:49:14Z</time>
      </trkpt>
      <trkpt lat="57.346792984753847" lon="-6.38570599257946">
        <ele>81.370000000000005</ele>
        <time>2023-08-26T17:49:15Z</time>
      </trkpt>
      <trkpt lat="57.346831038594246" lon="-6.386015033349395">
        <ele>79.930000000000007</ele>
        <time>2023-08-26T17:49:16Z</time>
      </trkpt>
      <trkpt lat="57.346831038594246" lon="-6.386346034705639">
        <ele>78.480000000000004</ele>
        <time>2023-08-26T17:49:17Z</time>
      </trkpt>
      <trkpt lat="57.346791978925467" lon="-6.3866710010916">
        <ele>77.040000000000006</ele>
        <time>2023-08-26T17:49:18Z</time>
      </trkpt>
      <trkpt lat="57.346747973933816" lon="-6.38701600022614">
        <ele>75.599999999999994</ele>
        <time>2023-08-26T17:49:19Z</time>
      </trkpt>
      <trkpt lat="57.346702041104436" lon="-6.387378014624119">
        <ele>74.640000000000001</ele>
        <time>2023-08-26T17:49:20Z</time>
      </trkpt>
      <trkpt lat="57.346640015020967" lon="-6.387744974344969">
        <ele>73.200000000000003</ele>
        <time>2023-08-26T17:49:21Z</time>
      </trkpt>
      <trkpt lat="57.345974994823337" lon="-6.391031015664339">
        <ele>59.259999999999998</ele>
        <time>2023-08-26T17:49:29Z</time>
      </trkpt>
      <trkpt lat="57.345565035939217" lon="-6.393952025100589">
        <ele>47.240000000000002</ele>
        <time>2023-08-26T17:49:36Z</time>
      </trkpt>
      <trkpt lat="57.345633013173938" lon="-6.396734984591603">
        <ele>39.07</ele>
        <time>2023-08-26T17:49:43Z</time>
      </trkpt>
      <trkpt lat="57.34561700373888" lon="-6.397108985111117">
        <ele>38.590000000000003</ele>
        <time>2023-08-26T17:49:44Z</time>
      </trkpt>
      <trkpt lat="57.345591019839048" lon="-6.397484997287393">
        <ele>38.109999999999999</ele>
        <time>2023-08-26T17:49:45Z</time>
      </trkpt>
      <trkpt lat="57.345414999872446" lon="-6.40091503970325">
        <ele>35.229999999999997</ele>
        <time>2023-08-26T17:49:54Z</time>
      </trkpt>
      <trkpt lat="57.345759999006987" lon="-6.403432041406632">
        <ele>33.299999999999997</ele>
        <time>2023-08-26T17:50:01Z</time>
      </trkpt>
      <trkpt lat="57.346178004518151" lon="-6.404724027961493">
        <ele>30.420000000000002</ele>
        <time>2023-08-26T17:50:05Z</time>
      </trkpt>
      <trkpt lat="57.346301972866058" lon="-6.404985040426254">
        <ele>29.460000000000001</ele>
        <time>2023-08-26T17:50:06Z</time>
      </trkpt>
      <trkpt lat="57.346442034468055" lon="-6.405218979343772">
        <ele>28.5</ele>
        <time>2023-08-26T17:50:07Z</time>
      </trkpt>
      <trkpt lat="57.346573965623975" lon="-6.405436992645264">
        <ele>27.530000000000001</ele>
        <time>2023-08-26T17:50:08Z</time>
      </trkpt>
      <trkpt lat="57.346742022782564" lon="-6.405613012611866">
        <ele>26.57</ele>
        <time>2023-08-26T17:50:09Z</time>
      </trkpt>
      <trkpt lat="57.346905972808599" lon="-6.405784003436565">
        <ele>25.129999999999999</ele>
        <time>2023-08-26T17:50:10Z</time>
      </trkpt>
      <trkpt lat="57.347070006653666" lon="-6.40594401396811">
        <ele>24.649999999999999</ele>
        <time>2023-08-26T17:50:11Z</time>
      </trkpt>
      <trkpt lat="57.347257006913424" lon="-6.406045015901327">
        <ele>23.690000000000001</ele>
        <time>2023-08-26T17:50:12Z</time>
      </trkpt>
      <trkpt lat="57.347448030486703" lon="-6.406149035319686">
        <ele>23.210000000000001</ele>
        <time>2023-08-26T17:50:13Z</time>
      </trkpt>
      <trkpt lat="57.347642993554473" lon="-6.406217012554407">
        <ele>22.73</ele>
        <time>2023-08-26T17:50:14Z</time>
      </trkpt>
      <trkpt lat="57.347839968279004" lon="-6.406236039474607">
        <ele>21.77</ele>
        <time>2023-08-26T17:50:15Z</time>
      </trkpt>
      <trkpt lat="57.348034009337425" lon="-6.406247019767761">
        <ele>21.289999999999999</ele>
        <time>2023-08-26T17:50:16Z</time>
      </trkpt>
      <trkpt lat="57.348229978233576" lon="-6.406203014776111">
        <ele>20.809999999999999</ele>
        <time>2023-08-26T17:50:17Z</time>
      </trkpt>
      <trkpt lat="57.349818013608456" lon="-6.405908977612853">
        <ele>15.52</ele>
        <time>2023-08-26T17:50:25Z</time>
      </trkpt>
      <trkpt lat="57.350014988332987" lon="-6.405964968726039">
        <ele>14.56</ele>
        <time>2023-08-26T17:50:26Z</time>
      </trkpt>
      <trkpt lat="57.350202994421124" lon="-6.406032023951411">
        <ele>13.119999999999999</ele>
        <time>2023-08-26T17:50:27Z</time>
      </trkpt>
      <trkpt lat="57.351165991276503" lon="-6.406289013102651">
        <ele>8.789999999999999</ele>
        <time>2023-08-26T17:50:32Z</time>
      </trkpt>
      <trkpt lat="57.351358020678163" lon="-6.40630996786058">
        <ele>8.310000000000001</ele>
        <time>2023-08-26T17:50:33Z</time>
      </trkpt>
      <trkpt lat="57.351543009281158" lon="-6.406279960647225">
        <ele>7.83</ele>
        <time>2023-08-26T17:50:34Z</time>
      </trkpt>
      <trkpt lat="57.351732021197677" lon="-6.40622204169631">
        <ele>7.83</ele>
        <time>2023-08-26T17:50:35Z</time>
      </trkpt>
      <trkpt lat="57.351919021457434" lon="-6.406164960935712">
        <ele>7.83</ele>
        <time>2023-08-26T17:50:36Z</time>
      </trkpt>
      <trkpt lat="57.352098980918527" lon="-6.406078962609172">
        <ele>7.83</ele>
        <time>2023-08-26T17:50:37Z</time>
      </trkpt>
      <trkpt lat="57.352279024198651" lon="-6.405978966504335">
        <ele>7.83</ele>
        <time>2023-08-26T17:50:38Z</time>
      </trkpt>
      <trkpt lat="57.353954985737801" lon="-6.404799968004227">
        <ele>8.310000000000001</ele>
        <time>2023-08-26T17:50:48Z</time>
      </trkpt>
      <trkpt lat="57.354083983227611" lon="-6.404622020199895">
        <ele>8.310000000000001</ele>
        <time>2023-08-26T17:50:49Z</time>
      </trkpt>
      <trkpt lat="57.354226978495717" lon="-6.404379028826952">
        <ele>8.310000000000001</ele>
        <time>2023-08-26T17:50:50Z</time>
      </trkpt>
      <trkpt lat="57.354363016784191" lon="-6.404150035232306">
        <ele>8.789999999999999</ele>
        <time>2023-08-26T17:50:51Z</time>
      </trkpt>
      <trkpt lat="57.355383010581136" lon="-6.401877030730248">
        <ele>9.75</ele>
        <time>2023-08-26T17:51:00Z</time>
      </trkpt>
      <trkpt lat="57.35655203461647" lon="-6.400177013128996">
        <ele>11.19</ele>
        <time>2023-08-26T17:51:08Z</time>
      </trkpt>
      <trkpt lat="57.358418013900518" lon="-6.397037990391254">
        <ele>7.35</ele>
        <time>2023-08-26T17:51:21Z</time>
      </trkpt>
      <trkpt lat="57.359097031876445" lon="-6.396228969097138">
        <ele>6.87</ele>
        <time>2023-08-26T17:51:26Z</time>
      </trkpt>
      <trkpt lat="57.35923801548779" lon="-6.396140959113836">
        <ele>6.87</ele>
        <time>2023-08-26T17:51:27Z</time>
      </trkpt>
      <trkpt lat="57.359383022412658" lon="-6.396085973829031">
        <ele>6.87</ele>
        <time>2023-08-26T17:51:28Z</time>
      </trkpt>
      <trkpt lat="57.359528029337525" lon="-6.396030988544226">
        <ele>6.87</ele>
        <time>2023-08-26T17:51:29Z</time>
      </trkpt>
      <trkpt lat="57.35966800712049" lon="-6.396008022129536">
        <ele>6.87</ele>
        <time>2023-08-26T17:51:30Z</time>
      </trkpt>
      <trkpt lat="57.359806979075074" lon="-6.396043980494142">
        <ele>6.87</ele>
        <time>2023-08-26T17:51:31Z</time>
      </trkpt>
      <trkpt lat="57.359944023191929" lon="-6.396080022677779">
        <ele>6.87</ele>
        <time>2023-08-26T17:51:32Z</time>
      </trkpt>
      <trkpt lat="57.36007796600461" lon="-6.396114975214005">
        <ele>6.87</ele>
        <time>2023-08-26T17:51:33Z</time>
      </trkpt>
      <trkpt lat="57.360206041485071" lon="-6.396153029054403">
        <ele>6.39</ele>
        <time>2023-08-26T17:51:34Z</time>
      </trkpt>
      <trkpt lat="57.360320035368204" lon="-6.396272974088788">
        <ele>6.87</ele>
        <time>2023-08-26T17:51:35Z</time>
      </trkpt>
      <trkpt lat="57.360435035079718" lon="-6.396393002942205">
        <ele>6.87</ele>
        <time>2023-08-26T17:51:36Z</time>
      </trkpt>
      <trkpt lat="57.360545005649328" lon="-6.396509008482099">
        <ele>6.87</ele>
        <time>2023-08-26T17:51:37Z</time>
      </trkpt>
      <trkpt lat="57.360645001754165" lon="-6.396628031507134">
        <ele>7.35</ele>
        <time>2023-08-26T17:51:38Z</time>
      </trkpt>
      <trkpt lat="57.360721025615931" lon="-6.39676901511848">
        <ele>7.35</ele>
        <time>2023-08-26T17:51:39Z</time>
      </trkpt>
      <trkpt lat="57.360881958156824" lon="-6.397073026746512">
        <ele>8.310000000000001</ele>
        <time>2023-08-26T17:51:42Z</time>
      </trkpt>
      <trkpt lat="57.360925963148475" lon="-6.397153995931149">
        <ele>8.310000000000001</ele>
        <time>2023-08-26T17:51:43Z</time>
      </trkpt>
      <trkpt lat="57.361045992001891" lon="-6.397165982052684">
        <ele>8.789999999999999</ele>
        <time>2023-08-26T17:51:44Z</time>
      </trkpt>
      <trkpt lat="57.361168032512069" lon="-6.397091969847679">
        <ele>9.27</ele>
        <time>2023-08-26T17:51:46Z</time>
      </trkpt>
      <trkpt lat="57.361230980604887" lon="-6.397151984274387">
        <ele>10.23</ele>
        <time>2023-08-26T17:51:47Z</time>
      </trkpt>
      <trkpt lat="57.361302981153131" lon="-6.397219961509109">
        <ele>10.710000000000001</ele>
        <time>2023-08-26T17:51:48Z</time>
      </trkpt>
      <trkpt lat="57.361380010843277" lon="-6.397292967885733">
        <ele>11.19</ele>
        <time>2023-08-26T17:51:49Z</time>
      </trkpt>
      <trkpt lat="57.361463997513056" lon="-6.397373015061021">
        <ele>12.15</ele>
        <time>2023-08-26T17:51:50Z</time>
      </trkpt>
      <trkpt lat="57.361572040244937" lon="-6.397476028650999">
        <ele>12.630000000000001</ele>
        <time>2023-08-26T17:51:51Z</time>
      </trkpt>
      <trkpt lat="57.361668013036251" lon="-6.397492960095406">
        <ele>13.6</ele>
        <time>2023-08-26T17:51:52Z</time>
      </trkpt>
      <trkpt lat="57.362355999648571" lon="-6.397612988948822">
        <ele>23.210000000000001</ele>
        <time>2023-08-26T17:51:59Z</time>
      </trkpt>
      <trkpt lat="57.362795965746045" lon="-6.397519027814269">
        <ele>32.340000000000003</ele>
        <time>2023-08-26T17:52:05Z</time>
      </trkpt>
      <trkpt lat="57.362898979336023" lon="-6.397416014224291">
        <ele>33.780000000000001</ele>
        <time>2023-08-26T17:52:06Z</time>
      </trkpt>
      <trkpt lat="57.362990006804466" lon="-6.397324986755848">
        <ele>34.740000000000002</ele>
        <time>2023-08-26T17:52:07Z</time>
      </trkpt>
      <trkpt lat="57.363908998668194" lon="-6.396185969933868">
        <ele>43.399999999999999</ele>
        <time>2023-08-26T17:52:16Z</time>
      </trkpt>
      <trkpt lat="57.364088036119938" lon="-6.395843988284469">
        <ele>44.359999999999999</ele>
        <time>2023-08-26T17:52:18Z</time>
      </trkpt>
      <trkpt lat="57.364434963092208" lon="-6.394947962835431">
        <ele>49.159999999999997</ele>
        <time>2023-08-26T17:52:23Z</time>
      </trkpt>
      <trkpt lat="57.364477040246129" lon="-6.394774960353971">
        <ele>50.130000000000003</ele>
        <time>2023-08-26T17:52:24Z</time>
      </trkpt>
      <trkpt lat="57.364919018000364" lon="-6.392974024638534">
        <ele>59.740000000000002</ele>
        <time>2023-08-26T17:52:33Z</time>
      </trkpt>
      <trkpt lat="57.365664001554251" lon="-6.391163030639291">
        <ele>60.700000000000003</ele>
        <time>2023-08-26T17:52:41Z</time>
      </trkpt>
      <trkpt lat="57.366872001439333" lon="-6.388222994282842">
        <ele>64.549999999999997</ele>
        <time>2023-08-26T17:52:54Z</time>
      </trkpt>
      <trkpt lat="57.366969985887408" lon="-6.388059966266155">
        <ele>65.510000000000005</ele>
        <time>2023-08-26T17:52:55Z</time>
      </trkpt>
      <trkpt lat="57.367069981992245" lon="-6.387895010411739">
        <ele>65.989999999999995</ele>
        <time>2023-08-26T17:52:56Z</time>
      </trkpt>
      <trkpt lat="57.367168972268701" lon="-6.387732988223434">
        <ele>66.469999999999999</ele>
        <time>2023-08-26T17:52:57Z</time>
      </trkpt>
      <trkpt lat="57.367258993908763" lon="-6.387584041804075">
        <ele>66.950000000000003</ele>
        <time>2023-08-26T17:52:58Z</time>
      </trkpt>
      <trkpt lat="57.367300987243652" lon="-6.387374997138977">
        <ele>67.430000000000007</ele>
        <time>2023-08-26T17:52:59Z</time>
      </trkpt>
      <trkpt lat="57.367344992235303" lon="-6.387161007151008">
        <ele>67.430000000000007</ele>
        <time>2023-08-26T17:53:00Z</time>
      </trkpt>
      <trkpt lat="57.367390003055334" lon="-6.386937964707613">
        <ele>68.390000000000001</ele>
        <time>2023-08-26T17:53:01Z</time>
      </trkpt>
      <trkpt lat="57.367592006921768" lon="-6.386063983663917">
        <ele>69.829999999999998</ele>
        <time>2023-08-26T17:53:05Z</time>
      </trkpt>
      <trkpt lat="57.367666019126773" lon="-6.385863991454244">
        <ele>69.829999999999998</ele>
        <time>2023-08-26T17:53:06Z</time>
      </trkpt>
      <trkpt lat="57.368056029081345" lon="-6.38469697907567">
        <ele>70.310000000000002</ele>
        <time>2023-08-26T17:53:11Z</time>
      </trkpt>
      <trkpt lat="57.368244035169482" lon="-6.38400798663497">
        <ele>71.760000000000005</ele>
        <time>2023-08-26T17:53:14Z</time>
      </trkpt>
      <trkpt lat="57.368302959948778" lon="-6.38381402939558">
        <ele>71.760000000000005</ele>
        <time>2023-08-26T17:53:15Z</time>
      </trkpt>
      <trkpt lat="57.368376972153783" lon="-6.383658964186907">
        <ele>72.239999999999995</ele>
        <time>2023-08-26T17:53:16Z</time>
      </trkpt>
      <trkpt lat="57.368473028764129" lon="-6.383526027202606">
        <ele>72.719999999999999</ele>
        <time>2023-08-26T17:53:17Z</time>
      </trkpt>
      <trkpt lat="57.368569001555443" lon="-6.383394012227655">
        <ele>72.719999999999999</ele>
        <time>2023-08-26T17:53:18Z</time>
      </trkpt>
      <trkpt lat="57.368663968518376" lon="-6.383263003081083">
        <ele>72.719999999999999</ele>
        <time>2023-08-26T17:53:19Z</time>
      </trkpt>
      <trkpt lat="57.3697230219841" lon="-6.382278967648745">
        <ele>73.200000000000003</ele>
        <time>2023-08-26T17:53:28Z</time>
      </trkpt>
      <trkpt lat="57.370594991371036" lon="-6.381262997165322">
        <ele>75.599999999999994</ele>
        <time>2023-08-26T17:53:35Z</time>
      </trkpt>
      <trkpt lat="57.371499985456467" lon="-6.379420990124345">
        <ele>79.930000000000007</ele>
        <time>2023-08-26T17:53:44Z</time>
      </trkpt>
      <trkpt lat="57.371676005423069" lon="-6.379021005704999">
        <ele>82.329999999999998</ele>
        <time>2023-08-26T17:53:49Z</time>
      </trkpt>
      <trkpt lat="57.37178698182106" lon="-6.378816990181804">
        <ele>85.209999999999994</ele>
        <time>2023-08-26T17:53:57Z</time>
      </trkpt>
      <trkpt lat="57.372174980118871" lon="-6.378236040472984">
        <ele>86.180000000000007</ele>
        <time>2023-08-26T17:54:03Z</time>
      </trkpt>
      <trkpt lat="57.373168990015984" lon="-6.377200037240982">
        <ele>87.140000000000001</ele>
        <time>2023-08-26T17:54:12Z</time>
      </trkpt>
      <trkpt lat="57.374231982976198" lon="-6.376062026247382">
        <ele>90.019999999999996</ele>
        <time>2023-08-26T17:54:22Z</time>
      </trkpt>
      <trkpt lat="57.374326027929783" lon="-6.375857004895806">
        <ele>90.5</ele>
        <time>2023-08-26T17:54:23Z</time>
      </trkpt>
      <trkpt lat="57.374402973800898" lon="-6.375686014071107">
        <ele>90.5</ele>
        <time>2023-08-26T17:54:24Z</time>
      </trkpt>
      <trkpt lat="57.37447296269238" lon="-6.375500019639731">
        <ele>90.980000000000004</ele>
        <time>2023-08-26T17:54:25Z</time>
      </trkpt>
      <trkpt lat="57.374534988775849" lon="-6.375288963317871">
        <ele>90.980000000000004</ele>
        <time>2023-08-26T17:54:26Z</time>
      </trkpt>
      <trkpt lat="57.375211995095015" lon="-6.372967008501291">
        <ele>95.310000000000002</ele>
        <time>2023-08-26T17:54:37Z</time>
      </trkpt>
      <trkpt lat="57.375455992296338" lon="-6.372135020792484">
        <ele>97.230000000000004</ele>
        <time>2023-08-26T17:54:41Z</time>
      </trkpt>
      <trkpt lat="57.37552598118782" lon="-6.372038964182138">
        <ele>97.709999999999994</ele>
        <time>2023-08-26T17:54:42Z</time>
      </trkpt>
      <trkpt lat="57.375616002827883" lon="-6.371916001662612">
        <ele>98.189999999999998</ele>
        <time>2023-08-26T17:54:43Z</time>
      </trkpt>
      <trkpt lat="57.375815995037556" lon="-6.371645014733076">
        <ele>99.629999999999995</ele>
        <time>2023-08-26T17:54:45Z</time>
      </trkpt>
      <trkpt lat="57.375925965607166" lon="-6.371494978666306">
        <ele>100.11</ele>
        <time>2023-08-26T17:54:46Z</time>
      </trkpt>
      <trkpt lat="57.376033002510667" lon="-6.371317030861974">
        <ele>100.59999999999999</ele>
        <time>2023-08-26T17:54:47Z</time>
      </trkpt>
      <trkpt lat="57.376132998615503" lon="-6.371103040874004">
        <ele>101.56</ele>
        <time>2023-08-26T17:54:48Z</time>
      </trkpt>
      <trkpt lat="57.376236012205482" lon="-6.370885027572513">
        <ele>102.52</ele>
        <time>2023-08-26T17:54:49Z</time>
      </trkpt>
      <trkpt lat="57.377209989354014" lon="-6.368731968104839">
        <ele>112.61</ele>
        <time>2023-08-26T17:54:59Z</time>
      </trkpt>
      <trkpt lat="57.378182960674167" lon="-6.366759035736322">
        <ele>123.67</ele>
        <time>2023-08-26T17:55:09Z</time>
      </trkpt>
      <trkpt lat="57.379191974177957" lon="-6.365178041160107">
        <ele>133.28</ele>
        <time>2023-08-26T17:55:18Z</time>
      </trkpt>
      <trkpt lat="57.380138961598277" lon="-6.36415502987802">
        <ele>139.53</ele>
        <time>2023-08-26T17:55:27Z</time>
      </trkpt>
      <trkpt lat="57.380466023460031" lon="-6.363800978288055">
        <ele>138.56999999999999</ele>
        <time>2023-08-26T17:55:30Z</time>
      </trkpt>
      <trkpt lat="57.380516985431314" lon="-6.363648008555174">
        <ele>137.61000000000001</ele>
        <time>2023-08-26T17:55:31Z</time>
      </trkpt>
      <trkpt lat="57.380546992644668" lon="-6.363467965275049">
        <ele>137.13</ele>
        <time>2023-08-26T17:55:32Z</time>
      </trkpt>
      <trkpt lat="57.380576999858022" lon="-6.363282976672053">
        <ele>136.63999999999999</ele>
        <time>2023-08-26T17:55:33Z</time>
      </trkpt>
      <trkpt lat="57.380606001242995" lon="-6.363107040524483">
        <ele>136.16</ele>
        <time>2023-08-26T17:55:34Z</time>
      </trkpt>
      <trkpt lat="57.380630979314446" lon="-6.362955998629332">
        <ele>136.16</ele>
        <time>2023-08-26T17:55:35Z</time>
      </trkpt>
      <trkpt lat="57.380649000406265" lon="-6.36284401640296">
        <ele>136.16</ele>
        <time>2023-08-26T17:55:36Z</time>
      </trkpt>
      <trkpt lat="57.380660986527801" lon="-6.362770004197955">
        <ele>136.16</ele>
        <time>2023-08-26T17:55:37Z</time>
      </trkpt>
      <trkpt lat="57.380801970139146" lon="-6.362345041707158">
        <ele>135.68000000000001</ele>
        <time>2023-08-26T17:55:45Z</time>
      </trkpt>
      <trkpt lat="57.380909007042646" lon="-6.36211303062737">
        <ele>136.63999999999999</ele>
        <time>2023-08-26T17:55:47Z</time>
      </trkpt>
      <trkpt lat="57.381417034193873" lon="-6.361007038503885">
        <ele>139.53</ele>
        <time>2023-08-26T17:55:55Z</time>
      </trkpt>
      <trkpt lat="57.381846019998193" lon="-6.360096009448171">
        <ele>140.49000000000001</ele>
        <time>2023-08-26T17:56:03Z</time>
      </trkpt>
      <trkpt lat="57.3825070168823" lon="-6.358853979036212">
        <ele>139.53</ele>
        <time>2023-08-26T17:56:10Z</time>
      </trkpt>
      <trkpt lat="57.382730981335044" lon="-6.358299013227224">
        <ele>139.53</ele>
        <time>2023-08-26T17:56:13Z</time>
      </trkpt>
      <trkpt lat="57.382794013246894" lon="-6.358144031837583">
        <ele>139.53</ele>
        <time>2023-08-26T17:56:14Z</time>
      </trkpt>
      <trkpt lat="57.382876994088292" lon="-6.358043029904366">
        <ele>139.53</ele>
        <time>2023-08-26T17:56:15Z</time>
      </trkpt>
      <trkpt lat="57.383082015439868" lon="-6.357792997732759">
        <ele>139.05000000000001</ele>
        <time>2023-08-26T17:56:17Z</time>
      </trkpt>
      <trkpt lat="57.38319500349462" lon="-6.357647990807891">
        <ele>138.56999999999999</ele>
        <time>2023-08-26T17:56:18Z</time>
      </trkpt>
      <trkpt lat="57.38330002874136" lon="-6.357464008033276">
        <ele>138.56999999999999</ele>
        <time>2023-08-26T17:56:19Z</time>
      </trkpt>
      <trkpt lat="57.384004024788737" lon="-6.356246033683419">
        <ele>135.68000000000001</ele>
        <time>2023-08-26T17:56:26Z</time>
      </trkpt>
      <trkpt lat="57.384067978709936" lon="-6.356079988181591">
        <ele>135.19999999999999</ele>
        <time>2023-08-26T17:56:27Z</time>
      </trkpt>
      <trkpt lat="57.384092034772038" lon="-6.355890976265073">
        <ele>134.72</ele>
        <time>2023-08-26T17:56:28Z</time>
      </trkpt>
      <trkpt lat="57.38411701284349" lon="-6.355689978227019">
        <ele>135.19999999999999</ele>
        <time>2023-08-26T17:56:29Z</time>
      </trkpt>
      <trkpt lat="57.38414098508656" lon="-6.355487974360585">
        <ele>135.68000000000001</ele>
        <time>2023-08-26T17:56:30Z</time>
      </trkpt>
      <trkpt lat="57.384165963158011" lon="-6.355289993807674">
        <ele>136.16</ele>
        <time>2023-08-26T17:56:31Z</time>
      </trkpt>
      <trkpt lat="57.384232012555003" lon="-6.354753971099854">
        <ele>138.56999999999999</ele>
        <time>2023-08-26T17:56:34Z</time>
      </trkpt>
      <trkpt lat="57.384310970082879" lon="-6.354569988325238">
        <ele>139.05000000000001</ele>
        <time>2023-08-26T17:56:35Z</time>
      </trkpt>
      <trkpt lat="57.384380036965013" lon="-6.354409977793694">
        <ele>139.53</ele>
        <time>2023-08-26T17:56:36Z</time>
      </trkpt>
      <trkpt lat="57.385146981105208" lon="-6.352835018187761">
        <ele>142.88999999999999</ele>
        <time>2023-08-26T17:56:45Z</time>
      </trkpt>
      <trkpt lat="57.386252973228693" lon="-6.351684015244246">
        <ele>145.30000000000001</ele>
        <time>2023-08-26T17:56:53Z</time>
      </trkpt>
      <trkpt lat="57.387464996427298" lon="-6.350351963192225">
        <ele>146.74000000000001</ele>
        <time>2023-08-26T17:57:02Z</time>
      </trkpt>
      <trkpt lat="57.387746041640639" lon="-6.350097991526127">
        <ele>146.25999999999999</ele>
        <time>2023-08-26T17:57:04Z</time>
      </trkpt>
      <trkpt lat="57.387864980846643" lon="-6.349924989044666">
        <ele>146.25999999999999</ele>
        <time>2023-08-26T17:57:05Z</time>
      </trkpt>
      <trkpt lat="57.387978974729776" lon="-6.34971996769309">
        <ele>146.25999999999999</ele>
        <time>2023-08-26T17:57:06Z</time>
      </trkpt>
      <trkpt lat="57.38809397444129" lon="-6.349513018503785">
        <ele>146.25999999999999</ele>
        <time>2023-08-26T17:57:07Z</time>
      </trkpt>
      <trkpt lat="57.388203023001552" lon="-6.349315037950873">
        <ele>146.25999999999999</ele>
        <time>2023-08-26T17:57:08Z</time>
      </trkpt>
      <trkpt lat="57.388397986069322" lon="-6.348962998017669">
        <ele>146.74000000000001</ele>
        <time>2023-08-26T17:57:10Z</time>
      </trkpt>
      <trkpt lat="57.38850200548768" lon="-6.348808016628027">
        <ele>146.74000000000001</ele>
        <time>2023-08-26T17:57:11Z</time>
      </trkpt>
      <trkpt lat="57.389655020087957" lon="-6.347593981772661">
        <ele>147.69999999999999</ele>
        <time>2023-08-26T17:57:20Z</time>
      </trkpt>
      <trkpt lat="57.391119003295898" lon="-6.345766978338361">
        <ele>150.09999999999999</ele>
        <time>2023-08-26T17:57:30Z</time>
      </trkpt>
      <trkpt lat="57.392511991783977" lon="-6.344032008200884">
        <ele>155.38999999999999</ele>
        <time>2023-08-26T17:57:40Z</time>
      </trkpt>
      <trkpt lat="57.3937420360744" lon="-6.342555033043027">
        <ele>158.75</ele>
        <time>2023-08-26T17:57:50Z</time>
      </trkpt>
      <trkpt lat="57.39473202265799" lon="-6.341311996802688">
        <ele>159.72</ele>
        <time>2023-08-26T17:57:59Z</time>
      </trkpt>
      <trkpt lat="57.394837969914079" lon="-6.341214012354612">
        <ele>159.24000000000001</ele>
        <time>2023-08-26T17:58:00Z</time>
      </trkpt>
      <trkpt lat="57.394952969625592" lon="-6.341214012354612">
        <ele>159.24000000000001</ele>
        <time>2023-08-26T17:58:01Z</time>
      </trkpt>
      <trkpt lat="57.39507501013577" lon="-6.341214012354612">
        <ele>158.75</ele>
        <time>2023-08-26T17:58:02Z</time>
      </trkpt>
      <trkpt lat="57.39520400762558" lon="-6.341214012354612">
        <ele>158.27000000000001</ele>
        <time>2023-08-26T17:58:03Z</time>
      </trkpt>
      <trkpt lat="57.39548203535378" lon="-6.341214012354612">
        <ele>157.31</ele>
        <time>2023-08-26T17:58:05Z</time>
      </trkpt>
      <trkpt lat="57.395615978166461" lon="-6.341130025684834">
        <ele>156.83000000000001</ele>
        <time>2023-08-26T17:58:06Z</time>
      </trkpt>
      <trkpt lat="57.395755033940077" lon="-6.341032963246107">
        <ele>156.34999999999999</ele>
        <time>2023-08-26T17:58:07Z</time>
      </trkpt>
      <trkpt lat="57.397044003009796" lon="-6.340186977759004">
        <ele>156.83000000000001</ele>
        <time>2023-08-26T17:58:16Z</time>
      </trkpt>
      <trkpt lat="57.397168977186084" lon="-6.340142972767353">
        <ele>156.83000000000001</ele>
        <time>2023-08-26T17:58:17Z</time>
      </trkpt>
      <trkpt lat="57.397278025746346" lon="-6.340125035494566">
        <ele>156.83000000000001</ele>
        <time>2023-08-26T17:58:18Z</time>
      </trkpt>
      <trkpt lat="57.397377016022801" lon="-6.340136015787721">
        <ele>156.83000000000001</ele>
        <time>2023-08-26T17:58:19Z</time>
      </trkpt>
      <trkpt lat="57.397463014349341" lon="-6.340144984424114">
        <ele>156.34999999999999</ele>
        <time>2023-08-26T17:58:20Z</time>
      </trkpt>
      <trkpt lat="57.397669041529298" lon="-6.340141966938973">
        <ele>156.34999999999999</ele>
        <time>2023-08-26T17:58:23Z</time>
      </trkpt>
      <trkpt lat="57.397720003500581" lon="-6.340119000524283">
        <ele>156.34999999999999</ele>
        <time>2023-08-26T17:58:24Z</time>
      </trkpt>
      <trkpt lat="57.397766020148993" lon="-6.340098967775703">
        <ele>155.87</ele>
        <time>2023-08-26T17:58:25Z</time>
      </trkpt>
      <trkpt lat="57.397808013483882" lon="-6.340080024674535">
        <ele>155.87</ele>
        <time>2023-08-26T17:58:26Z</time>
      </trkpt>
      <trkpt lat="57.397840032353997" lon="-6.340035013854504">
        <ele>155.87</ele>
        <time>2023-08-26T17:58:27Z</time>
      </trkpt>
      <trkpt lat="57.397874984890223" lon="-6.339978016912937">
        <ele>155.87</ele>
        <time>2023-08-26T17:58:28Z</time>
      </trkpt>
      <trkpt lat="57.397913038730621" lon="-6.339915990829468">
        <ele>155.87</ele>
        <time>2023-08-26T17:58:29Z</time>
      </trkpt>
      <trkpt lat="57.397957965731621" lon="-6.339840972796083">
        <ele>155.87</ele>
        <time>2023-08-26T17:58:30Z</time>
      </trkpt>
      <trkpt lat="57.398014040663838" lon="-6.339749023318291">
        <ele>155.87</ele>
        <time>2023-08-26T17:58:31Z</time>
      </trkpt>
      <trkpt lat="57.398080006241798" lon="-6.339639974758029">
        <ele>155.38999999999999</ele>
        <time>2023-08-26T17:58:32Z</time>
      </trkpt>
      <trkpt lat="57.398129962384701" lon="-6.339464038610458">
        <ele>155.38999999999999</ele>
        <time>2023-08-26T17:58:33Z</time>
      </trkpt>
      <trkpt lat="57.398157035931945" lon="-6.339259017258883">
        <ele>154.91</ele>
        <time>2023-08-26T17:58:34Z</time>
      </trkpt>
      <trkpt lat="57.398185031488538" lon="-6.339043015614152">
        <ele>154.91</ele>
        <time>2023-08-26T17:58:35Z</time>
      </trkpt>
      <trkpt lat="57.39821202121675" lon="-6.338842017576098">
        <ele>154.91</ele>
        <time>2023-08-26T17:58:36Z</time>
      </trkpt>
      <trkpt lat="57.39823498763144" lon="-6.338659962639213">
        <ele>154.91</ele>
        <time>2023-08-26T17:58:37Z</time>
      </trkpt>
      <trkpt lat="57.39829701371491" lon="-6.338529037311673">
        <ele>154.91</ele>
        <time>2023-08-26T17:58:38Z</time>
      </trkpt>
      <trkpt lat="57.398386029526591" lon="-6.338415965437889">
        <ele>154.43000000000001</ele>
        <time>2023-08-26T17:58:39Z</time>
      </trkpt>
      <trkpt lat="57.398488959297538" lon="-6.338286967948079">
        <ele>154.43000000000001</ele>
        <time>2023-08-26T17:58:40Z</time>
      </trkpt>
      <trkpt lat="57.399077033624053" lon="-6.337545001879334">
        <ele>151.53999999999999</ele>
        <time>2023-08-26T17:58:45Z</time>
      </trkpt>
      <trkpt lat="57.399194967001677" lon="-6.337439976632595">
        <ele>150.58000000000001</ele>
        <time>2023-08-26T17:58:46Z</time>
      </trkpt>
      <trkpt lat="57.399323964491487" lon="-6.337390020489693">
        <ele>150.09999999999999</ele>
        <time>2023-08-26T17:58:47Z</time>
      </trkpt>
      <trkpt lat="57.399453967809677" lon="-6.337338974699378">
        <ele>149.13999999999999</ele>
        <time>2023-08-26T17:58:48Z</time>
      </trkpt>
      <trkpt lat="57.399590006098151" lon="-6.33732296526432">
        <ele>148.18000000000001</ele>
        <time>2023-08-26T17:58:49Z</time>
      </trkpt>
      <trkpt lat="57.399733001366258" lon="-6.337358001619577">
        <ele>147.69999999999999</ele>
        <time>2023-08-26T17:58:50Z</time>
      </trkpt>
      <trkpt lat="57.399884965270758" lon="-6.337393959984183">
        <ele>146.74000000000001</ele>
        <time>2023-08-26T17:58:51Z</time>
      </trkpt>
      <trkpt lat="57.400211021304131" lon="-6.337455986067653">
        <ele>144.81999999999999</ele>
        <time>2023-08-26T17:58:53Z</time>
      </trkpt>
      <trkpt lat="57.400375977158546" lon="-6.337445005774498">
        <ele>143.84999999999999</ele>
        <time>2023-08-26T17:58:54Z</time>
      </trkpt>
      <trkpt lat="57.400540011003613" lon="-6.337418016046286">
        <ele>142.88999999999999</ele>
        <time>2023-08-26T17:58:55Z</time>
      </trkpt>
      <trkpt lat="57.400704966858029" lon="-6.33734199218452">
        <ele>141.93000000000001</ele>
        <time>2023-08-26T17:58:56Z</time>
      </trkpt>
      <trkpt lat="57.400876963511109" lon="-6.337264040485025">
        <ele>140.49000000000001</ele>
        <time>2023-08-26T17:58:57Z</time>
      </trkpt>
      <trkpt lat="57.401696965098381" lon="-6.336619975045323">
        <ele>138.09</ele>
        <time>2023-08-26T17:59:02Z</time>
      </trkpt>
      <trkpt lat="57.401839960366488" lon="-6.336443033069372">
        <ele>138.09</ele>
        <time>2023-08-26T17:59:03Z</time>
      </trkpt>
      <trkpt lat="57.401970969513059" lon="-6.336245974525809">
        <ele>138.56999999999999</ele>
        <time>2023-08-26T17:59:04Z</time>
      </trkpt>
      <trkpt lat="57.402088986709714" lon="-6.336018992587924">
        <ele>139.05000000000001</ele>
        <time>2023-08-26T17:59:05Z</time>
      </trkpt>
      <trkpt lat="57.402193006128073" lon="-6.335786981508136">
        <ele>139.53</ele>
        <time>2023-08-26T17:59:06Z</time>
      </trkpt>
      <trkpt lat="57.402291996404529" lon="-6.335564022883773">
        <ele>139.53</ele>
        <time>2023-08-26T17:59:07Z</time>
      </trkpt>
      <trkpt lat="57.402351005002856" lon="-6.335311979055405">
        <ele>139.53</ele>
        <time>2023-08-26T17:59:08Z</time>
      </trkpt>
      <trkpt lat="57.402405990287662" lon="-6.335063958540559">
        <ele>139.53</ele>
        <time>2023-08-26T17:59:09Z</time>
      </trkpt>
      <trkpt lat="57.402460975572467" lon="-6.334810992702842">
        <ele>139.53</ele>
        <time>2023-08-26T17:59:10Z</time>
      </trkpt>
      <trkpt lat="57.403064975515008" lon="-6.331794010475278">
        <ele>133.75999999999999</ele>
        <time>2023-08-26T17:59:21Z</time>
      </trkpt>
      <trkpt lat="57.403118032962084" lon="-6.331583959981799">
        <ele>133.28</ele>
        <time>2023-08-26T17:59:22Z</time>
      </trkpt>
      <trkpt lat="57.40317796356976" lon="-6.331438031047583">
        <ele>132.80000000000001</ele>
        <time>2023-08-26T17:59:23Z</time>
      </trkpt>
      <trkpt lat="57.403243007138371" lon="-6.331279026344419">
        <ele>131.84</ele>
        <time>2023-08-26T17:59:24Z</time>
      </trkpt>
      <trkpt lat="57.403337974101305" lon="-6.331215994432569">
        <ele>131.36000000000001</ele>
        <time>2023-08-26T17:59:25Z</time>
      </trkpt>
      <trkpt lat="57.403440987691283" lon="-6.331147011369467">
        <ele>130.40000000000001</ele>
        <time>2023-08-26T17:59:26Z</time>
      </trkpt>
      <trkpt lat="57.403536038473248" lon="-6.331051038578153">
        <ele>129.43000000000001</ele>
        <time>2023-08-26T17:59:27Z</time>
      </trkpt>
      <trkpt lat="57.403612984344363" lon="-6.330915000289679">
        <ele>128.47</ele>
        <time>2023-08-26T17:59:28Z</time>
      </trkpt>
      <trkpt lat="57.403654977679253" lon="-6.330749960616231">
        <ele>127.98999999999999</ele>
        <time>2023-08-26T17:59:29Z</time>
      </trkpt>
      <trkpt lat="57.403678027912974" lon="-6.330562960356474">
        <ele>127.03</ele>
        <time>2023-08-26T17:59:30Z</time>
      </trkpt>
      <trkpt lat="57.403686996549368" lon="-6.330365985631943">
        <ele>126.55</ele>
        <time>2023-08-26T17:59:31Z</time>
      </trkpt>
      <trkpt lat="57.403751034289598" lon="-6.329482030123472">
        <ele>124.15000000000001</ele>
        <time>2023-08-26T17:59:35Z</time>
      </trkpt>
      <trkpt lat="57.403790010139346" lon="-6.329273991286755">
        <ele>123.67</ele>
        <time>2023-08-26T17:59:36Z</time>
      </trkpt>
      <trkpt lat="57.40384298376739" lon="-6.329071987420321">
        <ele>122.70999999999999</ele>
        <time>2023-08-26T17:59:37Z</time>
      </trkpt>
      <trkpt lat="57.403939040377736" lon="-6.328903008252382">
        <ele>122.22</ele>
        <time>2023-08-26T17:59:38Z</time>
      </trkpt>
      <trkpt lat="57.40403501316905" lon="-6.328734029084444">
        <ele>121.73999999999999</ele>
        <time>2023-08-26T17:59:39Z</time>
      </trkpt>
      <trkpt lat="57.404137020930648" lon="-6.328553985804319">
        <ele>120.78</ele>
        <time>2023-08-26T17:59:40Z</time>
      </trkpt>
      <trkpt lat="57.405193978920579" lon="-6.326615000143647">
        <ele>120.3</ele>
        <time>2023-08-26T17:59:50Z</time>
      </trkpt>
      <trkpt lat="57.405559010803699" lon="-6.32569600827992">
        <ele>120.3</ele>
        <time>2023-08-26T17:59:54Z</time>
      </trkpt>
      <trkpt lat="57.405641991645098" lon="-6.32550397887826">
        <ele>120.78</ele>
        <time>2023-08-26T17:59:55Z</time>
      </trkpt>
      <trkpt lat="57.405738970264792" lon="-6.325357966125011">
        <ele>121.26000000000001</ele>
        <time>2023-08-26T17:59:56Z</time>
      </trkpt>
      <trkpt lat="57.406153958290815" lon="-6.324736028909683">
        <ele>122.70999999999999</ele>
        <time>2023-08-26T18:00:00Z</time>
      </trkpt>
      <trkpt lat="57.406254038214684" lon="-6.32453603670001">
        <ele>123.19</ele>
        <time>2023-08-26T18:00:01Z</time>
      </trkpt>
      <trkpt lat="57.406326038762927" lon="-6.324305031448603">
        <ele>123.67</ele>
        <time>2023-08-26T18:00:02Z</time>
      </trkpt>
      <trkpt lat="57.40639703348279" lon="-6.324074026197195">
        <ele>124.15000000000001</ele>
        <time>2023-08-26T18:00:03Z</time>
      </trkpt>
      <trkpt lat="57.406469034031034" lon="-6.323841009289026">
        <ele>125.11</ele>
        <time>2023-08-26T18:00:04Z</time>
      </trkpt>
      <trkpt lat="57.406815038993955" lon="-6.322627980262041">
        <ele>127.98999999999999</ele>
        <time>2023-08-26T18:00:09Z</time>
      </trkpt>
      <trkpt lat="57.406989969313145" lon="-6.321546966210008">
        <ele>131.84</ele>
        <time>2023-08-26T18:00:13Z</time>
      </trkpt>
      <trkpt lat="57.407002039253712" lon="-6.321240020915866">
        <ele>132.31999999999999</ele>
        <time>2023-08-26T18:00:14Z</time>
      </trkpt>
      <trkpt lat="57.407121984288096" lon="-6.318416995927692">
        <ele>131.84</ele>
        <time>2023-08-26T18:00:23Z</time>
      </trkpt>
      <trkpt lat="57.407148974016309" lon="-6.317824982106686">
        <ele>130.88</ele>
        <time>2023-08-26T18:00:25Z</time>
      </trkpt>
      <trkpt lat="57.407180992886424" lon="-6.317594982683659">
        <ele>130.40000000000001</ele>
        <time>2023-08-26T18:00:26Z</time>
      </trkpt>
      <trkpt lat="57.407213011756539" lon="-6.317375041544437">
        <ele>130.40000000000001</ele>
        <time>2023-08-26T18:00:27Z</time>
      </trkpt>
      <trkpt lat="57.407296998426318" lon="-6.317163985222578">
        <ele>129.91999999999999</ele>
        <time>2023-08-26T18:00:28Z</time>
      </trkpt>
      <trkpt lat="57.407376961782575" lon="-6.316963993012905">
        <ele>129.91999999999999</ele>
        <time>2023-08-26T18:00:29Z</time>
      </trkpt>
      <trkpt lat="57.407449968159199" lon="-6.316782021895051">
        <ele>129.91999999999999</ele>
        <time>2023-08-26T18:00:30Z</time>
      </trkpt>
      <trkpt lat="57.407513000071049" lon="-6.316624023020268">
        <ele>129.43000000000001</ele>
        <time>2023-08-26T18:00:31Z</time>
      </trkpt>
      <trkpt lat="57.407555999234319" lon="-6.316558979451656">
        <ele>129.43000000000001</ele>
        <time>2023-08-26T18:00:32Z</time>
      </trkpt>
      <trkpt lat="57.407624982297421" lon="-6.316454960033298">
        <ele>128.47</ele>
        <time>2023-08-26T18:00:34Z</time>
      </trkpt>
      <trkpt lat="57.407711986452341" lon="-6.316324034705758">
        <ele>127.98999999999999</ele>
        <time>2023-08-26T18:00:36Z</time>
      </trkpt>
      <trkpt lat="57.40831196308136" lon="-6.315417028963566">
        <ele>126.55</ele>
        <time>2023-08-26T18:00:43Z</time>
      </trkpt>
      <trkpt lat="57.4085049983114" lon="-6.315104970708489">
        <ele>126.06999999999999</ele>
        <time>2023-08-26T18:00:45Z</time>
      </trkpt>
      <trkpt lat="57.408576998859644" lon="-6.314941020682454">
        <ele>126.06999999999999</ele>
        <time>2023-08-26T18:00:46Z</time>
      </trkpt>
      <trkpt lat="57.408626032993197" lon="-6.314756032079458">
        <ele>126.06999999999999</ele>
        <time>2023-08-26T18:00:47Z</time>
      </trkpt>
      <trkpt lat="57.408616980537772" lon="-6.314570959657431">
        <ele>125.59</ele>
        <time>2023-08-26T18:00:48Z</time>
      </trkpt>
      <trkpt lat="57.408604994416237" lon="-6.314372979104519">
        <ele>125.59</ele>
        <time>2023-08-26T18:00:49Z</time>
      </trkpt>
      <trkpt lat="57.408576998859644" lon="-6.314154965803027">
        <ele>126.06999999999999</ele>
        <time>2023-08-26T18:00:50Z</time>
      </trkpt>
      <trkpt lat="57.40848395973444" lon="-6.313444012776017">
        <ele>126.55</ele>
        <time>2023-08-26T18:00:53Z</time>
      </trkpt>
      <trkpt lat="57.408493012189865" lon="-6.313219964504242">
        <ele>127.03</ele>
        <time>2023-08-26T18:00:54Z</time>
      </trkpt>
      <trkpt lat="57.408510027453303" lon="-6.313004968687892">
        <ele>127.51000000000001</ele>
        <time>2023-08-26T18:00:55Z</time>
      </trkpt>
      <trkpt lat="57.408530982211232" lon="-6.312798019498587">
        <ele>127.51000000000001</ele>
        <time>2023-08-26T18:00:56Z</time>
      </trkpt>
      <trkpt lat="57.408569036051631" lon="-6.312588974833489">
        <ele>127.98999999999999</ele>
        <time>2023-08-26T18:00:57Z</time>
      </trkpt>
      <trkpt lat="57.408608011901379" lon="-6.312370961531997">
        <ele>127.98999999999999</ele>
        <time>2023-08-26T18:00:58Z</time>
      </trkpt>
      <trkpt lat="57.408733991906047" lon="-6.311439983546734">
        <ele>129.43000000000001</ele>
        <time>2023-08-26T18:01:02Z</time>
      </trkpt>
      <trkpt lat="57.408714964985847" lon="-6.311186011880636">
        <ele>129.91999999999999</ele>
        <time>2023-08-26T18:01:03Z</time>
      </trkpt>
      <trkpt lat="57.408690992742777" lon="-6.310927011072636">
        <ele>130.40000000000001</ele>
        <time>2023-08-26T18:01:04Z</time>
      </trkpt>
      <trkpt lat="57.408668026328087" lon="-6.310682008042932">
        <ele>130.88</ele>
        <time>2023-08-26T18:01:05Z</time>
      </trkpt>
      <trkpt lat="57.408651011064649" lon="-6.31050799973309">
        <ele>131.36000000000001</ele>
        <time>2023-08-26T18:01:06Z</time>
      </trkpt>
      <trkpt lat="57.408641958609223" lon="-6.310409009456635">
        <ele>131.84</ele>
        <time>2023-08-26T18:01:07Z</time>
      </trkpt>
      <trkpt lat="57.408635001629591" lon="-6.310339020565152">
        <ele>132.31999999999999</ele>
        <time>2023-08-26T18:01:08Z</time>
      </trkpt>
      <trkpt lat="57.408630978316069" lon="-6.310296021401882">
        <ele>132.80000000000001</ele>
        <time>2023-08-26T18:01:09Z</time>
      </trkpt>
      <trkpt lat="57.408622009679675" lon="-6.310196025297046">
        <ele>134.24000000000001</ele>
        <time>2023-08-26T18:01:14Z</time>
      </trkpt>
      <trkpt lat="57.408612035214901" lon="-6.310095023363829">
        <ele>134.24000000000001</ele>
        <time>2023-08-26T18:01:15Z</time>
      </trkpt>
      <trkpt lat="57.408598959445953" lon="-6.309953033924103">
        <ele>134.72</ele>
        <time>2023-08-26T18:01:16Z</time>
      </trkpt>
      <trkpt lat="57.408604994416237" lon="-6.308470023795962">
        <ele>136.16</ele>
        <time>2023-08-26T18:01:23Z</time>
      </trkpt>
      <trkpt lat="57.408647993579507" lon="-6.308046989142895">
        <ele>136.63999999999999</ele>
        <time>2023-08-26T18:01:25Z</time>
      </trkpt>
      <trkpt lat="57.408685963600874" lon="-6.307825958356261">
        <ele>136.63999999999999</ele>
        <time>2023-08-26T18:01:26Z</time>
      </trkpt>
      <trkpt lat="57.408746983855963" lon="-6.307612974196672">
        <ele>136.63999999999999</ele>
        <time>2023-08-26T18:01:27Z</time>
      </trkpt>
      <trkpt lat="57.409441005438566" lon="-6.305476007983089">
        <ele>137.13</ele>
        <time>2023-08-26T18:01:36Z</time>
      </trkpt>
      <trkpt lat="57.410140978172421" lon="-6.304200030863285">
        <ele>134.72</ele>
        <time>2023-08-26T18:01:43Z</time>
      </trkpt>
      <trkpt lat="57.411345038563013" lon="-6.302289962768555">
        <ele>125.11</ele>
        <time>2023-08-26T18:01:53Z</time>
      </trkpt>
      <trkpt lat="57.412126986309886" lon="-6.300576031208038">
        <ele>114.05</ele>
        <time>2023-08-26T18:02:01Z</time>
      </trkpt>
      <trkpt lat="57.412281967699528" lon="-6.300195995718241">
        <ele>112.13</ele>
        <time>2023-08-26T18:02:03Z</time>
      </trkpt>
      <trkpt lat="57.412364026531577" lon="-6.300053000450134">
        <ele>110.69</ele>
        <time>2023-08-26T18:02:04Z</time>
      </trkpt>
      <trkpt lat="57.412471985444427" lon="-6.299934983253479">
        <ele>109.25</ele>
        <time>2023-08-26T18:02:05Z</time>
      </trkpt>
      <trkpt lat="57.412595031782985" lon="-6.299801962450147">
        <ele>107.31999999999999</ele>
        <time>2023-08-26T18:02:06Z</time>
      </trkpt>
      <trkpt lat="57.412726962938905" lon="-6.299657039344311">
        <ele>105.88</ele>
        <time>2023-08-26T18:02:07Z</time>
      </trkpt>
      <trkpt lat="57.413277989253402" lon="-6.299037029966712">
        <ele>99.629999999999995</ele>
        <time>2023-08-26T18:02:11Z</time>
      </trkpt>
      <trkpt lat="57.413363987579942" lon="-6.298831002786756">
        <ele>97.709999999999994</ele>
        <time>2023-08-26T18:02:12Z</time>
      </trkpt>
      <trkpt lat="57.413448980078101" lon="-6.298627993091941">
        <ele>96.269999999999996</ele>
        <time>2023-08-26T18:02:13Z</time>
      </trkpt>
      <trkpt lat="57.413609996438026" lon="-6.29823999479413">
        <ele>93.390000000000001</ele>
        <time>2023-08-26T18:02:15Z</time>
      </trkpt>
      <trkpt lat="57.413685014471412" lon="-6.298061041161418">
        <ele>91.939999999999998</ele>
        <time>2023-08-26T18:02:16Z</time>
      </trkpt>
      <trkpt lat="57.413796996697783" lon="-6.297936988994479">
        <ele>90.5</ele>
        <time>2023-08-26T18:02:17Z</time>
      </trkpt>
      <trkpt lat="57.4139170255512" lon="-6.297816960141063">
        <ele>89.060000000000002</ele>
        <time>2023-08-26T18:02:18Z</time>
      </trkpt>
      <trkpt lat="57.414048034697771" lon="-6.297686034813523">
        <ele>87.620000000000005</ele>
        <time>2023-08-26T18:02:19Z</time>
      </trkpt>
      <trkpt lat="57.414935007691383" lon="-6.296551041305065">
        <ele>78.969999999999999</ele>
        <time>2023-08-26T18:02:26Z</time>
      </trkpt>
      <trkpt lat="57.41535703651607" lon="-6.296007977798581">
        <ele>76.560000000000002</ele>
        <time>2023-08-26T18:02:30Z</time>
      </trkpt>
      <trkpt lat="57.415473964065313" lon="-6.295949975028634">
        <ele>76.560000000000002</ele>
        <time>2023-08-26T18:02:31Z</time>
      </trkpt>
      <trkpt lat="57.415598016232252" lon="-6.295887026935816">
        <ele>77.040000000000006</ele>
        <time>2023-08-26T18:02:32Z</time>
      </trkpt>
      <trkpt lat="57.41572399623692" lon="-6.295823995023966">
        <ele>77.519999999999996</ele>
        <time>2023-08-26T18:02:33Z</time>
      </trkpt>
      <trkpt lat="57.41585198789835" lon="-6.295701032504439">
        <ele>78.480000000000004</ele>
        <time>2023-08-26T18:02:34Z</time>
      </trkpt>
      <trkpt lat="57.415976040065289" lon="-6.295561976730824">
        <ele>79.450000000000003</ele>
        <time>2023-08-26T18:02:35Z</time>
      </trkpt>
      <trkpt lat="57.416091961786151" lon="-6.295409006997943">
        <ele>80.890000000000001</ele>
        <time>2023-08-26T18:02:36Z</time>
      </trkpt>
      <trkpt lat="57.417429964989424" lon="-6.293755006045103">
        <ele>95.310000000000002</ele>
        <time>2023-08-26T18:02:47Z</time>
      </trkpt>
      <trkpt lat="57.417642027139664" lon="-6.293535986915231">
        <ele>97.709999999999994</ele>
        <time>2023-08-26T18:02:49Z</time>
      </trkpt>
      <trkpt lat="57.418706025928259" lon="-6.292259003967047">
        <ele>107.31999999999999</ele>
        <time>2023-08-26T18:02:58Z</time>
      </trkpt>
      <trkpt lat="57.418890008702874" lon="-6.29198701120913">
        <ele>109.25</ele>
        <time>2023-08-26T18:03:00Z</time>
      </trkpt>
      <trkpt lat="57.418993022292852" lon="-6.291819037869573">
        <ele>109.73</ele>
        <time>2023-08-26T18:03:01Z</time>
      </trkpt>
      <trkpt lat="57.41905496455729" lon="-6.291624996811152">
        <ele>110.20999999999999</ele>
        <time>2023-08-26T18:03:02Z</time>
      </trkpt>
      <trkpt lat="57.419126965105534" lon="-6.291400026530027">
        <ele>110.20999999999999</ele>
        <time>2023-08-26T18:03:03Z</time>
      </trkpt>
      <trkpt lat="57.419180022552609" lon="-6.291135996580124">
        <ele>110.20999999999999</ele>
        <time>2023-08-26T18:03:04Z</time>
      </trkpt>
      <trkpt lat="57.419229978695512" lon="-6.290853023529053">
        <ele>110.20999999999999</ele>
        <time>2023-08-26T18:03:05Z</time>
      </trkpt>
      <trkpt lat="57.419282030314207" lon="-6.290554041042924">
        <ele>110.20999999999999</ele>
        <time>2023-08-26T18:03:06Z</time>
      </trkpt>
      <trkpt lat="57.419937998056412" lon="-6.287464974448085">
        <ele>111.65000000000001</ele>
        <time>2023-08-26T18:03:17Z</time>
      </trkpt>
      <trkpt lat="57.420681975781918" lon="-6.284807994961739">
        <ele>108.29000000000001</ele>
        <time>2023-08-26T18:03:27Z</time>
      </trkpt>
      <trkpt lat="57.421120014041662" lon="-6.283118035644293">
        <ele>101.56</ele>
        <time>2023-08-26T18:03:33Z</time>
      </trkpt>
      <trkpt lat="57.421858962625265" lon="-6.28109104000032">
        <ele>103.95999999999999</ele>
        <time>2023-08-26T18:03:42Z</time>
      </trkpt>
      <trkpt lat="57.422310998663306" lon="-6.279230006039143">
        <ele>107.81</ele>
        <time>2023-08-26T18:03:50Z</time>
      </trkpt>
      <trkpt lat="57.422721963375807" lon="-6.276912996545434">
        <ele>112.61</ele>
        <time>2023-08-26T18:03:59Z</time>
      </trkpt>
      <trkpt lat="57.422730010002851" lon="-6.276630023494363">
        <ele>113.09</ele>
        <time>2023-08-26T18:04:00Z</time>
      </trkpt>
      <trkpt lat="57.422677958384156" lon="-6.273629972711206">
        <ele>110.20999999999999</ele>
        <time>2023-08-26T18:04:10Z</time>
      </trkpt>
      <trkpt lat="57.422620039433241" lon="-6.271026972681284">
        <ele>109.25</ele>
        <time>2023-08-26T18:04:19Z</time>
      </trkpt>
      <trkpt lat="57.422634959220886" lon="-6.269617974758148">
        <ele>110.20999999999999</ele>
        <time>2023-08-26T18:04:24Z</time>
      </trkpt>
      <trkpt lat="57.42266496643424" lon="-6.26938303001225">
        <ele>110.20999999999999</ele>
        <time>2023-08-26T18:04:25Z</time>
      </trkpt>
      <trkpt lat="57.422694973647594" lon="-6.269153030589223">
        <ele>109.73</ele>
        <time>2023-08-26T18:04:26Z</time>
      </trkpt>
      <trkpt lat="57.42274803109467" lon="-6.268952032551169">
        <ele>109.25</ele>
        <time>2023-08-26T18:04:27Z</time>
      </trkpt>
      <trkpt lat="57.422807961702347" lon="-6.268779030069709">
        <ele>109.25</ele>
        <time>2023-08-26T18:04:28Z</time>
      </trkpt>
      <trkpt lat="57.42287702858448" lon="-6.268579959869385">
        <ele>108.77</ele>
        <time>2023-08-26T18:04:29Z</time>
      </trkpt>
      <trkpt lat="57.423098981380463" lon="-6.267964979633689">
        <ele>106.36</ele>
        <time>2023-08-26T18:04:33Z</time>
      </trkpt>
      <trkpt lat="57.42311499081552" lon="-6.267788037657738">
        <ele>105.40000000000001</ele>
        <time>2023-08-26T18:04:34Z</time>
      </trkpt>
      <trkpt lat="57.423131000250578" lon="-6.267605982720852">
        <ele>103.95999999999999</ele>
        <time>2023-08-26T18:04:35Z</time>
      </trkpt>
      <trkpt lat="57.423117002472281" lon="-6.267411019653082">
        <ele>103</ele>
        <time>2023-08-26T18:04:36Z</time>
      </trkpt>
      <trkpt lat="57.423095041885972" lon="-6.267200969159603">
        <ele>102.04000000000001</ele>
        <time>2023-08-26T18:04:37Z</time>
      </trkpt>
      <trkpt lat="57.42307098582387" lon="-6.266980022192001">
        <ele>101.08</ele>
        <time>2023-08-26T18:04:38Z</time>
      </trkpt>
      <trkpt lat="57.42296302691102" lon="-6.265962040051818">
        <ele>95.310000000000002</ele>
        <time>2023-08-26T18:04:44Z</time>
      </trkpt>
      <trkpt lat="57.42300502024591" lon="-6.265878975391388">
        <ele>93.870000000000005</ele>
        <time>2023-08-26T18:04:46Z</time>
      </trkpt>
      <trkpt lat="57.42302899248898" lon="-6.265829019248486">
        <ele>92.900000000000006</ele>
        <time>2023-08-26T18:04:47Z</time>
      </trkpt>
      <trkpt lat="57.423074003309011" lon="-6.265755007043481">
        <ele>91.939999999999998</ele>
        <time>2023-08-26T18:04:48Z</time>
      </trkpt>
      <trkpt lat="57.423099987208843" lon="-6.265803035348654">
        <ele>91.459999999999994</ele>
        <time>2023-08-26T18:04:49Z</time>
      </trkpt>
      <trkpt lat="57.423133011907339" lon="-6.26586296595633">
        <ele>90.5</ele>
        <time>2023-08-26T18:04:50Z</time>
      </trkpt>
      <trkpt lat="57.423170981928706" lon="-6.265933038666844">
        <ele>89.540000000000006</ele>
        <time>2023-08-26T18:04:51Z</time>
      </trkpt>
      <trkpt lat="57.423639027401805" lon="-6.266786986961961">
        <ele>85.209999999999994</ele>
        <time>2023-08-26T18:04:58Z</time>
      </trkpt>
      <trkpt lat="57.424723980948329" lon="-6.268528997898102">
        <ele>81.370000000000005</ele>
        <time>2023-08-26T18:05:09Z</time>
      </trkpt>
      <trkpt lat="57.424824982881546" lon="-6.268608961254358">
        <ele>80.890000000000001</ele>
        <time>2023-08-26T18:05:10Z</time>
      </trkpt>
      <trkpt lat="57.42491701617837" lon="-6.268680961802602">
        <ele>80.890000000000001</ele>
        <time>2023-08-26T18:05:11Z</time>
      </trkpt>
      <trkpt lat="57.425905996933579" lon="-6.269263001158834">
        <ele>81.370000000000005</ele>
        <time>2023-08-26T18:05:23Z</time>
      </trkpt>
      <trkpt lat="57.426152005791664" lon="-6.269473973661661">
        <ele>80.409999999999997</ele>
        <time>2023-08-26T18:05:26Z</time>
      </trkpt>
      <trkpt lat="57.426225012168288" lon="-6.269588973373175">
        <ele>79.930000000000007</ele>
        <time>2023-08-26T18:05:27Z</time>
      </trkpt>
      <trkpt lat="57.426302963867784" lon="-6.269717970862985">
        <ele>79.450000000000003</ele>
        <time>2023-08-26T18:05:28Z</time>
      </trkpt>
      <trkpt lat="57.426720969378948" lon="-6.270377039909363">
        <ele>75.599999999999994</ele>
        <time>2023-08-26T18:05:33Z</time>
      </trkpt>
      <trkpt lat="57.426819037646055" lon="-6.270492961630225">
        <ele>75.120000000000005</ele>
        <time>2023-08-26T18:05:34Z</time>
      </trkpt>
      <trkpt lat="57.427909020334482" lon="-6.271805986762047">
        <ele>71.760000000000005</ele>
        <time>2023-08-26T18:05:44Z</time>
      </trkpt>
      <trkpt lat="57.428971007466316" lon="-6.273212973028421">
        <ele>67.430000000000007</ele>
        <time>2023-08-26T18:05:53Z</time>
      </trkpt>
      <trkpt lat="57.430237010121346" lon="-6.274717021733522">
        <ele>60.700000000000003</ele>
        <time>2023-08-26T18:06:03Z</time>
      </trkpt>
      <trkpt lat="57.431273013353348" lon="-6.275351028889418">
        <ele>57.82</ele>
        <time>2023-08-26T18:06:11Z</time>
      </trkpt>
      <trkpt lat="57.431383989751339" lon="-6.275468962267041">
        <ele>57.82</ele>
        <time>2023-08-26T18:06:12Z</time>
      </trkpt>
      <trkpt lat="57.43149203248322" lon="-6.275583039969206">
        <ele>57.82</ele>
        <time>2023-08-26T18:06:13Z</time>
      </trkpt>
      <trkpt lat="57.431592028588057" lon="-6.275723017752171">
        <ele>57.82</ele>
        <time>2023-08-26T18:06:14Z</time>
      </trkpt>
      <trkpt lat="57.431692024692893" lon="-6.275879004970193">
        <ele>57.82</ele>
        <time>2023-08-26T18:06:15Z</time>
      </trkpt>
      <trkpt lat="57.431795038282871" lon="-6.276039015501738">
        <ele>58.299999999999997</ele>
        <time>2023-08-26T18:06:16Z</time>
      </trkpt>
      <trkpt lat="57.432710006833076" lon="-6.277867024764419">
        <ele>63.100000000000001</ele>
        <time>2023-08-26T18:06:25Z</time>
      </trkpt>
      <trkpt lat="57.433524979278445" lon="-6.279995022341609">
        <ele>66.469999999999999</ele>
        <time>2023-08-26T18:06:35Z</time>
      </trkpt>
      <trkpt lat="57.433735029771924" lon="-6.28044898621738">
        <ele>67.909999999999997</ele>
        <time>2023-08-26T18:06:38Z</time>
      </trkpt>
      <trkpt lat="57.433751039206982" lon="-6.280633974820375">
        <ele>67.909999999999997</ele>
        <time>2023-08-26T18:06:39Z</time>
      </trkpt>
      <trkpt lat="57.433767970651388" lon="-6.280840002000332">
        <ele>67.909999999999997</ele>
        <time>2023-08-26T18:06:40Z</time>
      </trkpt>
      <trkpt lat="57.433786997571588" lon="-6.281060026958585">
        <ele>67.909999999999997</ele>
        <time>2023-08-26T18:06:41Z</time>
      </trkpt>
      <trkpt lat="57.433805018663406" lon="-6.281277034431696">
        <ele>67.909999999999997</ele>
        <time>2023-08-26T18:06:42Z</time>
      </trkpt>
      <trkpt lat="57.433862015604973" lon="-6.281945994123817">
        <ele>67.909999999999997</ele>
        <time>2023-08-26T18:06:45Z</time>
      </trkpt>
      <trkpt lat="57.433880958706141" lon="-6.282161995768547">
        <ele>67.909999999999997</ele>
        <time>2023-08-26T18:06:46Z</time>
      </trkpt>
      <trkpt lat="57.433925969526172" lon="-6.282956013455987">
        <ele>67.430000000000007</ele>
        <time>2023-08-26T18:06:50Z</time>
      </trkpt>
      <trkpt lat="57.434009034186602" lon="-6.284972028806806">
        <ele>65.510000000000005</ele>
        <time>2023-08-26T18:07:01Z</time>
      </trkpt>
      <trkpt lat="57.434047004207969" lon="-6.285654986277223">
        <ele>64.549999999999997</ele>
        <time>2023-08-26T18:07:04Z</time>
      </trkpt>
      <trkpt lat="57.434094026684761" lon="-6.285879034548998">
        <ele>64.069999999999993</ele>
        <time>2023-08-26T18:07:05Z</time>
      </trkpt>
      <trkpt lat="57.434140965342522" lon="-6.286107022315264">
        <ele>63.579999999999998</ele>
        <time>2023-08-26T18:07:06Z</time>
      </trkpt>
      <trkpt lat="57.434489987790585" lon="-6.287460029125214">
        <ele>61.18</ele>
        <time>2023-08-26T18:07:14Z</time>
      </trkpt>
      <trkpt lat="57.434593001380563" lon="-6.288149021565914">
        <ele>56.859999999999999</ele>
        <time>2023-08-26T18:07:24Z</time>
      </trkpt>
      <trkpt lat="57.434721998870373" lon="-6.288321018218994">
        <ele>52.049999999999997</ele>
        <time>2023-08-26T18:07:35Z</time>
      </trkpt>
      <trkpt lat="57.434903969988227" lon="-6.28919399343431">
        <ele>48.68</ele>
        <time>2023-08-26T18:07:44Z</time>
      </trkpt>
      <trkpt lat="57.434942023828626" lon="-6.289363978430629">
        <ele>46.280000000000001</ele>
        <time>2023-08-26T18:07:56Z</time>
      </trkpt>
      <trkpt lat="57.4349329713732" lon="-6.289374036714435">
        <ele>45.799999999999997</ele>
        <time>2023-08-26T18:08:11Z</time>
      </trkpt>
    </trkseg>
  </trk>

</gpx>